Files
intotheeast-com-content/pages/01.trips/denmark-2026/2026-06-17-3037107432-vestkystruten-from-klanxb-ll-to-skagen-9-days.gpx
T
m038andClaude Opus 4.8 f4ab73070b content: feature 3 entries as homepage highlights; publish Denmark 2026
- featured: true on Central Asia 2023, Italy 2025, and US/Canada/Mexico 2024 entries
  (surface in the between-trips homepage highlights grid)
- Denmark 2026 trip: published: true + Vestkystruten GPX track

Co-Authored-By: Claude Opus 4.8 <noreply@anthropic.com>
Claude-Session: https://claude.ai/code/session_01Mpdu3Dt1iVoozHwAMyjrbn
2026-07-08 22:28:18 +02:00

41818 lines
1.3 MiB
Plaintext

<?xml version='1.0' encoding='UTF-8'?>
<gpx version="1.1" creator="https://www.komoot.de" xmlns="http://www.topografix.com/GPX/1/1" xmlns:xsi="http://www.w3.org/2001/XMLSchema-instance" xsi:schemaLocation="http://www.topografix.com/GPX/1/1 http://www.topografix.com/GPX/1/1/gpx.xsd">
<metadata>
<name>Vestkystruten - from Klanxbüll to Skagen (9 days)</name>
<author>
<link href="https://www.komoot.de">
<text>komoot</text>
<type>text/html</type>
</link>
</author>
</metadata>
<wpt lat="54.862490" lon="8.675650">
<name>Klanxbüll Station</name>
<sym>Picnic Area</sym>
</wpt>
<wpt lat="54.911196" lon="8.638113">
<name>Northernmost point of the German mainland</name>
<sym>Flag, Blue</sym>
</wpt>
<wpt lat="55.558749" lon="8.077614">
<name>Blåvands Huk</name>
<sym>Flag, Blue</sym>
</wpt>
<wpt lat="56.090260" lon="8.243643">
<name>Market Square.</name>
<sym>Shopping Center</sym>
</wpt>
<wpt lat="57.747110" lon="10.652734">
<name>Grenen — Denmark's northernmost point</name>
<sym>Flag, Blue</sym>
</wpt>
<trk>
<name>Vestkystruten - from Klanxbüll to Skagen (9 days)</name>
<type>touring_bicycle</type>
<trkseg>
<trkpt lat="54.862425" lon="8.675533">
<ele>0.738747</ele>
<time>2026-06-17T15:04:42.697Z</time>
</trkpt>
<trkpt lat="54.862181" lon="8.675945">
<ele>0.738747</ele>
<time>2026-06-17T15:04:50.556Z</time>
</trkpt>
<trkpt lat="54.861865" lon="8.676554">
<ele>0.738747</ele>
<time>2026-06-17T15:05:01.491Z</time>
</trkpt>
<trkpt lat="54.861657" lon="8.676789">
<ele>0.765876</ele>
<time>2026-06-17T15:05:07.370Z</time>
</trkpt>
<trkpt lat="54.861404" lon="8.677200">
<ele>0.824256</ele>
<time>2026-06-17T15:05:15.664Z</time>
</trkpt>
<trkpt lat="54.861287" lon="8.677453">
<ele>0.855741</ele>
<time>2026-06-17T15:05:20.210Z</time>
</trkpt>
<trkpt lat="54.861254" lon="8.677489">
<ele>0.862309</ele>
<time>2026-06-17T15:05:21.154Z</time>
</trkpt>
<trkpt lat="54.861190" lon="8.677564">
<ele>0.875321</ele>
<time>2026-06-17T15:05:22.992Z</time>
</trkpt>
<trkpt lat="54.861216" lon="8.677604">
<ele>0.881174</ele>
<time>2026-06-17T15:05:23.812Z</time>
</trkpt>
<trkpt lat="54.861398" lon="8.678147">
<ele>0.942133</ele>
<time>2026-06-17T15:05:32.484Z</time>
</trkpt>
<trkpt lat="54.861457" lon="8.678321">
<ele>0.961724</ele>
<time>2026-06-17T15:05:35.245Z</time>
</trkpt>
<trkpt lat="54.861515" lon="8.678471">
<ele>0.979255</ele>
<time>2026-06-17T15:05:37.650Z</time>
</trkpt>
<trkpt lat="54.861575" lon="8.678548">
<ele>0.991828</ele>
<time>2026-06-17T15:05:39.393Z</time>
</trkpt>
<trkpt lat="54.861888" lon="8.678701">
<ele>1.037412</ele>
<time>2026-06-17T15:05:46.753Z</time>
</trkpt>
<trkpt lat="54.862133" lon="8.678902">
<ele>0.993862</ele>
<time>2026-06-17T15:05:52.612Z</time>
</trkpt>
<trkpt lat="54.862305" lon="8.679239">
<ele>0.952193</ele>
<time>2026-06-17T15:05:58.142Z</time>
</trkpt>
<trkpt lat="54.862397" lon="8.679517">
<ele>0.922526</ele>
<time>2026-06-17T15:06:02.066Z</time>
</trkpt>
<trkpt lat="54.862447" lon="8.679776">
<ele>0.897254</ele>
<time>2026-06-17T15:06:05.417Z</time>
</trkpt>
<trkpt lat="54.862576" lon="8.680433">
<ele>0.833034</ele>
<time>2026-06-17T15:06:13.768Z</time>
</trkpt>
<trkpt lat="54.864330" lon="8.679338">
<ele>0.616203</ele>
<time>2026-06-17T15:06:54.626Z</time>
</trkpt>
<trkpt lat="54.865330" lon="8.678699">
<ele>0.592158</ele>
<time>2026-06-17T15:07:17.943Z</time>
</trkpt>
<trkpt lat="54.865469" lon="8.678617">
<ele>0.596668</ele>
<time>2026-06-17T15:07:21.260Z</time>
</trkpt>
<trkpt lat="54.865492" lon="8.678688">
<ele>0.598109</ele>
<time>2026-06-17T15:07:23.091Z</time>
</trkpt>
<trkpt lat="54.865684" lon="8.678542">
<ele>0.604547</ele>
<time>2026-06-17T15:07:27.787Z</time>
</trkpt>
<trkpt lat="54.865808" lon="8.678768">
<ele>0.610068</ele>
<time>2026-06-17T15:07:31.852Z</time>
</trkpt>
<trkpt lat="54.865927" lon="8.678870">
<ele>0.614144</ele>
<time>2026-06-17T15:07:34.841Z</time>
</trkpt>
<trkpt lat="54.866315" lon="8.679106">
<ele>0.626773</ele>
<time>2026-06-17T15:07:44.100Z</time>
</trkpt>
<trkpt lat="54.866816" lon="8.679374">
<ele>0.505778</ele>
<time>2026-06-17T15:07:56.034Z</time>
</trkpt>
<trkpt lat="54.866951" lon="8.679432">
<ele>0.470640</ele>
<time>2026-06-17T15:07:59.075Z</time>
</trkpt>
<trkpt lat="54.867377" lon="8.679623">
<ele>0.359473</ele>
<time>2026-06-17T15:08:08.100Z</time>
</trkpt>
<trkpt lat="54.867800" lon="8.679797">
<ele>0.249635</ele>
<time>2026-06-17T15:08:16.906Z</time>
</trkpt>
<trkpt lat="54.868542" lon="8.680148">
<ele>0.151789</ele>
<time>2026-06-17T15:08:33.378Z</time>
</trkpt>
<trkpt lat="54.868834" lon="8.680286">
<ele>0.137724</ele>
<time>2026-06-17T15:08:39.831Z</time>
</trkpt>
<trkpt lat="54.869004" lon="8.680366">
<ele>0.129537</ele>
<time>2026-06-17T15:08:43.588Z</time>
</trkpt>
<trkpt lat="54.869291" lon="8.680502">
<ele>0.115710</ele>
<time>2026-06-17T15:08:50.132Z</time>
</trkpt>
<trkpt lat="54.869565" lon="8.680631">
<ele>0.102515</ele>
<time>2026-06-17T15:08:56.705Z</time>
</trkpt>
<trkpt lat="54.869926" lon="8.680830">
<ele>0.118129</ele>
<time>2026-06-17T15:09:05.813Z</time>
</trkpt>
<trkpt lat="54.870967" lon="8.681553">
<ele>0.410847</ele>
<time>2026-06-17T15:09:32.202Z</time>
</trkpt>
<trkpt lat="54.871123" lon="8.681643">
<ele>0.453766</ele>
<time>2026-06-17T15:09:36.145Z</time>
</trkpt>
<trkpt lat="54.871592" lon="8.681935">
<ele>0.534311</ele>
<time>2026-06-17T15:09:47.538Z</time>
</trkpt>
<trkpt lat="54.872150" lon="8.682197">
<ele>0.377244</ele>
<time>2026-06-17T15:09:59.746Z</time>
</trkpt>
<trkpt lat="54.872689" lon="8.682394">
<ele>0.227574</ele>
<time>2026-06-17T15:10:11.177Z</time>
</trkpt>
<trkpt lat="54.873889" lon="8.682720">
<ele>0.039847</ele>
<time>2026-06-17T15:10:36.862Z</time>
</trkpt>
<trkpt lat="54.874418" lon="8.682862">
<ele>0.013853</ele>
<time>2026-06-17T15:10:48.770Z</time>
</trkpt>
<trkpt lat="54.874840" lon="8.682976">
<ele>-0.006885</ele>
<time>2026-06-17T15:10:58.469Z</time>
</trkpt>
<trkpt lat="54.875177" lon="8.682996">
<ele>-0.014747</ele>
<time>2026-06-17T15:11:06.266Z</time>
</trkpt>
<trkpt lat="54.875475" lon="8.682910">
<ele>-0.010860</ele>
<time>2026-06-17T15:11:13.198Z</time>
</trkpt>
<trkpt lat="54.875715" lon="8.682772">
<ele>-0.007607</ele>
<time>2026-06-17T15:11:18.869Z</time>
</trkpt>
<trkpt lat="54.876232" lon="8.682389">
<ele>-0.000376</ele>
<time>2026-06-17T15:11:31.228Z</time>
</trkpt>
<trkpt lat="54.876428" lon="8.682277">
<ele>0.002279</ele>
<time>2026-06-17T15:11:35.707Z</time>
</trkpt>
<trkpt lat="54.876905" lon="8.682006">
<ele>0.023502</ele>
<time>2026-06-17T15:11:46.757Z</time>
</trkpt>
<trkpt lat="54.877534" lon="8.681784">
<ele>0.089208</ele>
<time>2026-06-17T15:12:01.206Z</time>
</trkpt>
<trkpt lat="54.878231" lon="8.681659">
<ele>0.160941</ele>
<time>2026-06-17T15:12:17.307Z</time>
</trkpt>
<trkpt lat="54.878714" lon="8.681652">
<ele>0.176708</ele>
<time>2026-06-17T15:12:28.616Z</time>
</trkpt>
<trkpt lat="54.879371" lon="8.681743">
<ele>0.128493</ele>
<time>2026-06-17T15:12:43.438Z</time>
</trkpt>
<trkpt lat="54.880023" lon="8.681928">
<ele>0.080165</ele>
<time>2026-06-17T15:12:57.475Z</time>
</trkpt>
<trkpt lat="54.881493" lon="8.682438">
<ele>-0.135754</ele>
<time>2026-06-17T15:13:28.882Z</time>
</trkpt>
<trkpt lat="54.881813" lon="8.682520">
<ele>-0.187776</ele>
<time>2026-06-17T15:13:36.203Z</time>
</trkpt>
<trkpt lat="54.882520" lon="8.682658">
<ele>-0.078724</ele>
<time>2026-06-17T15:13:52.969Z</time>
</trkpt>
<trkpt lat="54.882983" lon="8.682652">
<ele>0.077668</ele>
<time>2026-06-17T15:14:04.344Z</time>
</trkpt>
<trkpt lat="54.883575" lon="8.682575">
<ele>0.278187</ele>
<time>2026-06-17T15:14:18.558Z</time>
</trkpt>
<trkpt lat="54.883758" lon="8.682546">
<ele>0.340255</ele>
<time>2026-06-17T15:14:22.830Z</time>
</trkpt>
<trkpt lat="54.884662" lon="8.682406">
<ele>0.264452</ele>
<time>2026-06-17T15:14:43.112Z</time>
</trkpt>
<trkpt lat="54.884808" lon="8.682382">
<ele>0.243681</ele>
<time>2026-06-17T15:14:46.276Z</time>
</trkpt>
<trkpt lat="54.885146" lon="8.682328">
<ele>0.195608</ele>
<time>2026-06-17T15:14:53.473Z</time>
</trkpt>
<trkpt lat="54.885490" lon="8.682263">
<ele>0.146599</ele>
<time>2026-06-17T15:15:00.759Z</time>
</trkpt>
<trkpt lat="54.885785" lon="8.682176">
<ele>0.072723</ele>
<time>2026-06-17T15:15:06.987Z</time>
</trkpt>
<trkpt lat="54.886118" lon="8.681981">
<ele>-0.062023</ele>
<time>2026-06-17T15:15:14.294Z</time>
</trkpt>
<trkpt lat="54.886605" lon="8.681615">
<ele>-0.265475</ele>
<time>2026-06-17T15:15:25.007Z</time>
</trkpt>
<trkpt lat="54.886848" lon="8.681433">
<ele>-0.366938</ele>
<time>2026-06-17T15:15:30.447Z</time>
</trkpt>
<trkpt lat="54.887020" lon="8.681393">
<ele>-0.433483</ele>
<time>2026-06-17T15:15:34.120Z</time>
</trkpt>
<trkpt lat="54.887045" lon="8.680626">
<ele>-0.545394</ele>
<time>2026-06-17T15:15:43.540Z</time>
</trkpt>
<trkpt lat="54.887175" lon="8.678016">
<ele>-0.196321</ele>
<time>2026-06-17T15:16:18.486Z</time>
</trkpt>
<trkpt lat="54.887195" lon="8.677563">
<ele>-0.138638</ele>
<time>2026-06-17T15:16:24.962Z</time>
</trkpt>
<trkpt lat="54.887237" lon="8.677266">
<ele>-0.105847</ele>
<time>2026-06-17T15:16:29.286Z</time>
</trkpt>
<trkpt lat="54.887310" lon="8.677105">
<ele>-0.083867</ele>
<time>2026-06-17T15:16:32.155Z</time>
</trkpt>
<trkpt lat="54.887447" lon="8.676965">
<ele>-0.054246</ele>
<time>2026-06-17T15:16:35.993Z</time>
</trkpt>
<trkpt lat="54.887814" lon="8.676868">
<ele>0.014949</ele>
<time>2026-06-17T15:16:44.826Z</time>
</trkpt>
<trkpt lat="54.888084" lon="8.676751">
<ele>0.066817</ele>
<time>2026-06-17T15:16:51.310Z</time>
</trkpt>
<trkpt lat="54.892189" lon="8.674976">
<ele>-0.362102</ele>
<time>2026-06-17T15:18:22.724Z</time>
</trkpt>
<trkpt lat="54.892945" lon="8.674650">
<ele>-0.330769</ele>
<time>2026-06-17T15:18:40.112Z</time>
</trkpt>
<trkpt lat="54.893547" lon="8.674390">
<ele>-0.305730</ele>
<time>2026-06-17T15:18:54.206Z</time>
</trkpt>
<trkpt lat="54.897767" lon="8.672571">
<ele>-0.134317</ele>
<time>2026-06-17T15:20:31.854Z</time>
</trkpt>
<trkpt lat="54.901492" lon="8.670993">
<ele>-0.227429</ele>
<time>2026-06-17T15:21:56.199Z</time>
</trkpt>
<trkpt lat="54.904646" lon="8.669663">
<ele>0.065860</ele>
<time>2026-06-17T15:23:09.772Z</time>
</trkpt>
<trkpt lat="54.905583" lon="8.669284">
<ele>0.106591</ele>
<time>2026-06-17T15:23:31.313Z</time>
</trkpt>
<trkpt lat="54.905996" lon="8.669228">
<ele>0.124130</ele>
<time>2026-06-17T15:23:40.610Z</time>
</trkpt>
<trkpt lat="54.906188" lon="8.669247">
<ele>0.132663</ele>
<time>2026-06-17T15:23:44.955Z</time>
</trkpt>
<trkpt lat="54.907560" lon="8.669600">
<ele>0.298812</ele>
<time>2026-06-17T15:24:16.480Z</time>
</trkpt>
<trkpt lat="54.909216" lon="8.669566">
<ele>0.529826</ele>
<time>2026-06-17T15:24:54.129Z</time>
</trkpt>
<trkpt lat="54.909565" lon="8.669652">
<ele>0.581254</ele>
<time>2026-06-17T15:25:02.267Z</time>
</trkpt>
<trkpt lat="54.909806" lon="8.669783">
<ele>0.622623</ele>
<time>2026-06-17T15:25:08.008Z</time>
</trkpt>
<trkpt lat="54.909856" lon="8.669816">
<ele>0.634768</ele>
<time>2026-06-17T15:25:09.226Z</time>
</trkpt>
<trkpt lat="54.909873" lon="8.669832">
<ele>0.639158</ele>
<time>2026-06-17T15:25:09.668Z</time>
</trkpt>
<trkpt lat="54.909935" lon="8.669890">
<ele>0.655147</ele>
<time>2026-06-17T15:25:11.258Z</time>
</trkpt>
<trkpt lat="54.910188" lon="8.670129">
<ele>0.720533</ele>
<time>2026-06-17T15:25:17.863Z</time>
</trkpt>
<trkpt lat="54.910271" lon="8.670206">
<ele>0.741897</ele>
<time>2026-06-17T15:25:20.056Z</time>
</trkpt>
<trkpt lat="54.910455" lon="8.670294">
<ele>0.785237</ele>
<time>2026-06-17T15:25:24.548Z</time>
</trkpt>
<trkpt lat="54.910576" lon="8.670284">
<ele>0.812749</ele>
<time>2026-06-17T15:25:27.428Z</time>
</trkpt>
<trkpt lat="54.910825" lon="8.670172">
<ele>0.871161</ele>
<time>2026-06-17T15:25:33.460Z</time>
</trkpt>
<trkpt lat="54.911053" lon="8.669951">
<ele>0.930440</ele>
<time>2026-06-17T15:25:39.460Z</time>
</trkpt>
<trkpt lat="54.911312" lon="8.669625">
<ele>1.003046</ele>
<time>2026-06-17T15:25:46.820Z</time>
</trkpt>
<trkpt lat="54.911303" lon="8.669208">
<ele>1.010989</ele>
<time>2026-06-17T15:25:52.382Z</time>
</trkpt>
<trkpt lat="54.911285" lon="8.668604">
<ele>0.995895</ele>
<time>2026-06-17T15:26:00.453Z</time>
</trkpt>
<trkpt lat="54.911239" lon="8.668390">
<ele>0.990193</ele>
<time>2026-06-17T15:26:03.530Z</time>
</trkpt>
<trkpt lat="54.908769" lon="8.660362">
<ele>0.644735</ele>
<time>2026-06-17T15:27:57.800Z</time>
</trkpt>
<trkpt lat="54.908718" lon="8.660132">
<ele>0.639892</ele>
<time>2026-06-17T15:28:00.902Z</time>
</trkpt>
<trkpt lat="54.908696" lon="8.659916">
<ele>0.635583</ele>
<time>2026-06-17T15:28:03.669Z</time>
</trkpt>
<trkpt lat="54.908712" lon="8.659678">
<ele>0.630876</ele>
<time>2026-06-17T15:28:06.710Z</time>
</trkpt>
<trkpt lat="54.909154" lon="8.655904">
<ele>0.565348</ele>
<time>2026-06-17T15:28:55.889Z</time>
</trkpt>
<trkpt lat="54.909602" lon="8.652068">
<ele>0.445022</ele>
<time>2026-06-17T15:29:45.239Z</time>
</trkpt>
<trkpt lat="54.910992" lon="8.640166">
<ele>1.225630</ele>
<time>2026-06-17T15:32:23.435Z</time>
</trkpt>
<trkpt lat="54.911118" lon="8.639048">
<ele>1.277501</ele>
<time>2026-06-17T15:32:39.282Z</time>
</trkpt>
<trkpt lat="54.911160" lon="8.638668">
<ele>1.281157</ele>
<time>2026-06-17T15:32:44.428Z</time>
</trkpt>
<trkpt lat="54.911152" lon="8.638666">
<ele>1.281290</ele>
<time>2026-06-17T15:32:44.612Z</time>
</trkpt>
<trkpt lat="54.911167" lon="8.638527">
<ele>1.282626</ele>
<time>2026-06-17T15:32:46.462Z</time>
</trkpt>
<trkpt lat="54.911190" lon="8.638327">
<ele>1.284553</ele>
<time>2026-06-17T15:33:00.998Z</time>
</trkpt>
<trkpt lat="54.911207" lon="8.638116">
<ele>1.286566</ele>
<time>2026-06-17T15:33:05.546Z</time>
</trkpt>
<trkpt lat="54.911190" lon="8.638327">
<ele>1.288579</ele>
<time>2026-06-17T15:33:10.077Z</time>
</trkpt>
<trkpt lat="54.911167" lon="8.638527">
<ele>1.290506</ele>
<time>2026-06-17T15:33:24.614Z</time>
</trkpt>
<trkpt lat="54.911152" lon="8.638666">
<ele>1.291842</ele>
<time>2026-06-17T15:33:26.372Z</time>
</trkpt>
<trkpt lat="54.911160" lon="8.638668">
<ele>1.291975</ele>
<time>2026-06-17T15:33:26.563Z</time>
</trkpt>
<trkpt lat="54.911118" lon="8.639048">
<ele>1.295631</ele>
<time>2026-06-17T15:33:31.329Z</time>
</trkpt>
<trkpt lat="54.910992" lon="8.640166">
<ele>1.252718</ele>
<time>2026-06-17T15:33:44.808Z</time>
</trkpt>
<trkpt lat="54.909602" lon="8.652068">
<ele>0.453032</ele>
<time>2026-06-17T15:36:17.250Z</time>
</trkpt>
<trkpt lat="54.909154" lon="8.655904">
<ele>0.562917</ele>
<time>2026-06-17T15:37:07.994Z</time>
</trkpt>
<trkpt lat="54.908712" lon="8.659678">
<ele>0.634145</ele>
<time>2026-06-17T15:37:57.297Z</time>
</trkpt>
<trkpt lat="54.908696" lon="8.659916">
<ele>0.638760</ele>
<time>2026-06-17T15:38:00.399Z</time>
</trkpt>
<trkpt lat="54.908718" lon="8.660132">
<ele>0.642984</ele>
<time>2026-06-17T15:38:03.232Z</time>
</trkpt>
<trkpt lat="54.908769" lon="8.660362">
<ele>0.647732</ele>
<time>2026-06-17T15:38:06.420Z</time>
</trkpt>
<trkpt lat="54.911239" lon="8.668390">
<ele>1.186417</ele>
<time>2026-06-17T15:40:05.479Z</time>
</trkpt>
<trkpt lat="54.911285" lon="8.668604">
<ele>1.192172</ele>
<time>2026-06-17T15:40:08.374Z</time>
</trkpt>
<trkpt lat="54.911303" lon="8.669208">
<ele>1.207409</ele>
<time>2026-06-17T15:40:15.996Z</time>
</trkpt>
<trkpt lat="54.911383" lon="8.669510">
<ele>1.177793</ele>
<time>2026-06-17T15:40:20.107Z</time>
</trkpt>
<trkpt lat="54.911472" lon="8.669533">
<ele>1.156389</ele>
<time>2026-06-17T15:40:22.073Z</time>
</trkpt>
<trkpt lat="54.912615" lon="8.670793">
<ele>0.834496</ele>
<time>2026-06-17T15:40:50.860Z</time>
</trkpt>
<trkpt lat="54.915276" lon="8.673634">
<ele>0.465111</ele>
<time>2026-06-17T15:41:58.133Z</time>
</trkpt>
<trkpt lat="54.915675" lon="8.674076">
<ele>0.460175</ele>
<time>2026-06-17T15:42:08.973Z</time>
</trkpt>
<trkpt lat="54.915833" lon="8.674183">
<ele>0.458406</ele>
<time>2026-06-17T15:42:12.945Z</time>
</trkpt>
<trkpt lat="54.917044" lon="8.674748">
<ele>0.634596</ele>
<time>2026-06-17T15:42:42.221Z</time>
</trkpt>
<trkpt lat="54.919650" lon="8.675964">
<ele>0.637010</ele>
<time>2026-06-17T15:43:41.391Z</time>
</trkpt>
<trkpt lat="54.920153" lon="8.676198">
<ele>0.731093</ele>
<time>2026-06-17T15:43:53.438Z</time>
</trkpt>
<trkpt lat="54.921215" lon="8.676694">
<ele>0.901387</ele>
<time>2026-06-17T15:44:19.149Z</time>
</trkpt>
<trkpt lat="54.926132" lon="8.678968">
<ele>0.631246</ele>
<time>2026-06-17T15:46:10.703Z</time>
</trkpt>
<trkpt lat="54.926394" lon="8.679098">
<ele>0.626180</ele>
<time>2026-06-17T15:46:16.783Z</time>
</trkpt>
<trkpt lat="54.926557" lon="8.679167">
<ele>0.637555</ele>
<time>2026-06-17T15:46:20.564Z</time>
</trkpt>
<trkpt lat="54.931445" lon="8.681445">
<ele>0.961579</ele>
<time>2026-06-17T15:48:14.953Z</time>
</trkpt>
<trkpt lat="54.938194" lon="8.684569">
<ele>0.538442</ele>
<time>2026-06-17T15:50:48.080Z</time>
</trkpt>
<trkpt lat="54.946830" lon="8.688587">
<ele>0.816381</ele>
<time>2026-06-17T15:54:08.419Z</time>
</trkpt>
<trkpt lat="54.949799" lon="8.689948">
<ele>0.359038</ele>
<time>2026-06-17T15:55:14.484Z</time>
</trkpt>
<trkpt lat="54.950015" lon="8.690053">
<ele>0.329515</ele>
<time>2026-06-17T15:55:19.289Z</time>
</trkpt>
<trkpt lat="54.950314" lon="8.690188">
<ele>0.288851</ele>
<time>2026-06-17T15:55:25.916Z</time>
</trkpt>
<trkpt lat="54.951465" lon="8.690709">
<ele>0.390863</ele>
<time>2026-06-17T15:55:52.987Z</time>
</trkpt>
<trkpt lat="54.951591" lon="8.690765">
<ele>0.413333</ele>
<time>2026-06-17T15:55:56.050Z</time>
</trkpt>
<trkpt lat="54.951685" lon="8.690808">
<ele>0.430126</ele>
<time>2026-06-17T15:55:58.348Z</time>
</trkpt>
<trkpt lat="54.951754" lon="8.690839">
<ele>0.442439</ele>
<time>2026-06-17T15:56:00.031Z</time>
</trkpt>
<trkpt lat="54.952034" lon="8.690971">
<ele>0.492562</ele>
<time>2026-06-17T15:56:06.772Z</time>
</trkpt>
<trkpt lat="54.952210" lon="8.691053">
<ele>0.524043</ele>
<time>2026-06-17T15:56:10.918Z</time>
</trkpt>
<trkpt lat="54.952383" lon="8.691133">
<ele>0.554844</ele>
<time>2026-06-17T15:56:15.087Z</time>
</trkpt>
<trkpt lat="54.952532" lon="8.691204">
<ele>0.538413</ele>
<time>2026-06-17T15:56:18.725Z</time>
</trkpt>
<trkpt lat="54.952691" lon="8.691280">
<ele>0.520875</ele>
<time>2026-06-17T15:56:22.544Z</time>
</trkpt>
<trkpt lat="54.952866" lon="8.691363">
<ele>0.501583</ele>
<time>2026-06-17T15:56:26.640Z</time>
</trkpt>
<trkpt lat="54.953166" lon="8.691507">
<ele>0.468484</ele>
<time>2026-06-17T15:56:33.345Z</time>
</trkpt>
<trkpt lat="54.953215" lon="8.691530">
<ele>0.463086</ele>
<time>2026-06-17T15:56:34.420Z</time>
</trkpt>
<trkpt lat="54.953496" lon="8.691664">
<ele>0.432097</ele>
<time>2026-06-17T15:56:40.543Z</time>
</trkpt>
<trkpt lat="54.953999" lon="8.691904">
<ele>0.376623</ele>
<time>2026-06-17T15:56:51.541Z</time>
</trkpt>
<trkpt lat="54.954255" lon="8.692032">
<ele>0.352779</ele>
<time>2026-06-17T15:56:57.443Z</time>
</trkpt>
<trkpt lat="54.954397" lon="8.692100">
<ele>0.341710</ele>
<time>2026-06-17T15:57:00.808Z</time>
</trkpt>
<trkpt lat="54.954898" lon="8.692322">
<ele>0.302856</ele>
<time>2026-06-17T15:57:12.194Z</time>
</trkpt>
<trkpt lat="54.954958" lon="8.692348">
<ele>0.298210</ele>
<time>2026-06-17T15:57:13.575Z</time>
</trkpt>
<trkpt lat="54.955034" lon="8.692382">
<ele>0.292312</ele>
<time>2026-06-17T15:57:15.311Z</time>
</trkpt>
<trkpt lat="54.955344" lon="8.692512">
<ele>0.268347</ele>
<time>2026-06-17T15:57:22.368Z</time>
</trkpt>
<trkpt lat="54.955460" lon="8.692565">
<ele>0.259334</ele>
<time>2026-06-17T15:57:25.043Z</time>
</trkpt>
<trkpt lat="54.957395" lon="8.693457">
<ele>0.163447</ele>
<time>2026-06-17T15:58:08.246Z</time>
</trkpt>
<trkpt lat="54.958382" lon="8.693904">
<ele>0.682212</ele>
<time>2026-06-17T15:58:32.732Z</time>
</trkpt>
<trkpt lat="54.958585" lon="8.693999">
<ele>0.818843</ele>
<time>2026-06-17T15:58:38.138Z</time>
</trkpt>
<trkpt lat="54.958950" lon="8.694172">
<ele>1.064723</ele>
<time>2026-06-17T15:58:48.047Z</time>
</trkpt>
<trkpt lat="54.959036" lon="8.694212">
<ele>1.122582</ele>
<time>2026-06-17T15:58:50.372Z</time>
</trkpt>
<trkpt lat="54.959151" lon="8.694266">
<ele>1.200001</ele>
<time>2026-06-17T15:58:53.488Z</time>
</trkpt>
<trkpt lat="54.959260" lon="8.694315">
<ele>1.273174</ele>
<time>2026-06-17T15:58:56.417Z</time>
</trkpt>
<trkpt lat="54.959704" lon="8.694517">
<ele>1.580232</ele>
<time>2026-06-17T15:59:08.148Z</time>
</trkpt>
<trkpt lat="54.959843" lon="8.694581">
<ele>1.677000</ele>
<time>2026-06-17T15:59:11.763Z</time>
</trkpt>
<trkpt lat="54.959866" lon="8.694591">
<ele>1.692956</ele>
<time>2026-06-17T15:59:12.359Z</time>
</trkpt>
<trkpt lat="54.960097" lon="8.694696">
<ele>1.853638</ele>
<time>2026-06-17T15:59:18.252Z</time>
</trkpt>
<trkpt lat="54.960131" lon="8.694712">
<ele>1.877343</ele>
<time>2026-06-17T15:59:19.112Z</time>
</trkpt>
<trkpt lat="54.960212" lon="8.694748">
<ele>1.933607</ele>
<time>2026-06-17T15:59:21.132Z</time>
</trkpt>
<trkpt lat="54.961280" lon="8.695234">
<ele>2.760309</ele>
<time>2026-06-17T15:59:48.201Z</time>
</trkpt>
<trkpt lat="54.961410" lon="8.695374">
<ele>2.923886</ele>
<time>2026-06-17T15:59:51.992Z</time>
</trkpt>
<trkpt lat="54.961937" lon="8.695094">
<ele>3.513559</ele>
<time>2026-06-17T16:00:07.059Z</time>
</trkpt>
<trkpt lat="54.962428" lon="8.694833">
<ele>4.062972</ele>
<time>2026-06-17T16:00:21.589Z</time>
</trkpt>
<trkpt lat="54.962551" lon="8.694713">
<ele>4.213854</ele>
<time>2026-06-17T16:00:25.635Z</time>
</trkpt>
<trkpt lat="54.962652" lon="8.694253">
<ele>4.520814</ele>
<time>2026-06-17T16:00:33.690Z</time>
</trkpt>
<trkpt lat="54.963015" lon="8.694187">
<ele>4.941341</ele>
<time>2026-06-17T16:00:43.730Z</time>
</trkpt>
<trkpt lat="54.963199" lon="8.694150">
<ele>5.154757</ele>
<time>2026-06-17T16:00:49.102Z</time>
</trkpt>
<trkpt lat="54.963516" lon="8.694020">
<ele>5.529996</ele>
<time>2026-06-17T16:00:58.531Z</time>
</trkpt>
<trkpt lat="54.963648" lon="8.693966">
<ele>5.686227</ele>
<time>2026-06-17T16:01:02.360Z</time>
</trkpt>
<trkpt lat="54.963782" lon="8.693948">
<ele>5.841082</ele>
<time>2026-06-17T16:01:06.086Z</time>
</trkpt>
<trkpt lat="54.963912" lon="8.693986">
<ele>5.992965</ele>
<time>2026-06-17T16:01:09.691Z</time>
</trkpt>
<trkpt lat="54.964156" lon="8.694182">
<ele>6.302560</ele>
<time>2026-06-17T16:01:16.942Z</time>
</trkpt>
<trkpt lat="54.964219" lon="8.694265">
<ele>6.393574</ele>
<time>2026-06-17T16:01:19.035Z</time>
</trkpt>
<trkpt lat="54.964471" lon="8.694417">
<ele>6.557637</ele>
<time>2026-06-17T16:01:26.009Z</time>
</trkpt>
<trkpt lat="54.964590" lon="8.694483">
<ele>6.579460</ele>
<time>2026-06-17T16:01:29.107Z</time>
</trkpt>
<trkpt lat="54.964768" lon="8.693299">
<ele>6.702242</ele>
<time>2026-06-17T16:01:45.722Z</time>
</trkpt>
<trkpt lat="54.964792" lon="8.693161">
<ele>6.716707</ele>
<time>2026-06-17T16:01:47.555Z</time>
</trkpt>
<trkpt lat="54.964957" lon="8.692315">
<ele>6.806339</ele>
<time>2026-06-17T16:01:58.463Z</time>
</trkpt>
<trkpt lat="54.965021" lon="8.691978">
<ele>6.841948</ele>
<time>2026-06-17T16:02:02.798Z</time>
</trkpt>
<trkpt lat="54.965118" lon="8.691400">
<ele>6.675232</ele>
<time>2026-06-17T16:02:10.096Z</time>
</trkpt>
<trkpt lat="54.965146" lon="8.691237">
<ele>6.623100</ele>
<time>2026-06-17T16:02:12.153Z</time>
</trkpt>
<trkpt lat="54.965207" lon="8.690904">
<ele>6.515997</ele>
<time>2026-06-17T16:02:16.299Z</time>
</trkpt>
<trkpt lat="54.965303" lon="8.690353">
<ele>6.339563</ele>
<time>2026-06-17T16:02:23.075Z</time>
</trkpt>
<trkpt lat="54.965373" lon="8.689942">
<ele>6.208204</ele>
<time>2026-06-17T16:02:28.043Z</time>
</trkpt>
<trkpt lat="54.965384" lon="8.689880">
<ele>6.188320</ele>
<time>2026-06-17T16:02:28.770Z</time>
</trkpt>
<trkpt lat="54.965481" lon="8.689324">
<ele>6.010265</ele>
<time>2026-06-17T16:02:35.487Z</time>
</trkpt>
<trkpt lat="54.965497" lon="8.689231">
<ele>5.980517</ele>
<time>2026-06-17T16:02:36.598Z</time>
</trkpt>
<trkpt lat="54.965520" lon="8.689111">
<ele>5.941753</ele>
<time>2026-06-17T16:02:38.050Z</time>
</trkpt>
<trkpt lat="54.965631" lon="8.688491">
<ele>5.665312</ele>
<time>2026-06-17T16:02:45.559Z</time>
</trkpt>
<trkpt lat="54.965694" lon="8.688162">
<ele>5.501720</ele>
<time>2026-06-17T16:02:49.477Z</time>
</trkpt>
<trkpt lat="54.965874" lon="8.687344">
<ele>5.088503</ele>
<time>2026-06-17T16:02:59.139Z</time>
</trkpt>
<trkpt lat="54.966036" lon="8.686960">
<ele>4.863724</ele>
<time>2026-06-17T16:03:04.455Z</time>
</trkpt>
<trkpt lat="54.966169" lon="8.686710">
<ele>4.702951</ele>
<time>2026-06-17T16:03:08.312Z</time>
</trkpt>
<trkpt lat="54.966588" lon="8.686046">
<ele>4.249813</ele>
<time>2026-06-17T16:03:19.726Z</time>
</trkpt>
<trkpt lat="54.967319" lon="8.685127">
<ele>3.562344</ele>
<time>2026-06-17T16:03:37.689Z</time>
</trkpt>
<trkpt lat="54.967787" lon="8.684573">
<ele>3.130846</ele>
<time>2026-06-17T16:03:49.036Z</time>
</trkpt>
<trkpt lat="54.968369" lon="8.683564">
<ele>2.519597</ele>
<time>2026-06-17T16:04:04.945Z</time>
</trkpt>
<trkpt lat="54.968725" lon="8.683098">
<ele>2.189533</ele>
<time>2026-06-17T16:04:13.643Z</time>
</trkpt>
<trkpt lat="54.968884" lon="8.682948">
<ele>2.055507</ele>
<time>2026-06-17T16:04:17.230Z</time>
</trkpt>
<trkpt lat="54.969292" lon="8.682405">
<ele>1.697036</ele>
<time>2026-06-17T16:04:28.888Z</time>
</trkpt>
<trkpt lat="54.970019" lon="8.681345">
<ele>1.535963</ele>
<time>2026-06-17T16:04:51.694Z</time>
</trkpt>
<trkpt lat="54.970930" lon="8.679350">
<ele>1.339452</ele>
<time>2026-06-17T16:05:27.943Z</time>
</trkpt>
<trkpt lat="54.972619" lon="8.677168">
<ele>1.091391</ele>
<time>2026-06-17T16:06:18.468Z</time>
</trkpt>
<trkpt lat="54.973240" lon="8.676365">
<ele>0.974086</ele>
<time>2026-06-17T16:06:37.122Z</time>
</trkpt>
<trkpt lat="54.974639" lon="8.674260">
<ele>1.022440</ele>
<time>2026-06-17T16:07:22.866Z</time>
</trkpt>
<trkpt lat="54.978157" lon="8.670731">
<ele>1.508034</ele>
<time>2026-06-17T16:09:05.878Z</time>
</trkpt>
<trkpt lat="54.979918" lon="8.668906">
<ele>1.519270</ele>
<time>2026-06-17T16:09:55.601Z</time>
</trkpt>
<trkpt lat="54.984447" lon="8.663939">
<ele>2.153043</ele>
<time>2026-06-17T16:12:10.101Z</time>
</trkpt>
<trkpt lat="54.985214" lon="8.663039">
<ele>2.472631</ele>
<time>2026-06-17T16:12:33.995Z</time>
</trkpt>
<trkpt lat="54.986093" lon="8.662108">
<ele>3.545513</ele>
<time>2026-06-17T16:13:03.587Z</time>
</trkpt>
<trkpt lat="54.986530" lon="8.661997">
<ele>4.093095</ele>
<time>2026-06-17T16:13:17.480Z</time>
</trkpt>
<trkpt lat="54.987138" lon="8.662065">
<ele>4.839754</ele>
<time>2026-06-17T16:13:36.116Z</time>
</trkpt>
<trkpt lat="54.987156" lon="8.662358">
<ele>5.022090</ele>
<time>2026-06-17T16:13:40.819Z</time>
</trkpt>
<trkpt lat="54.987164" lon="8.662588">
<ele>5.164669</ele>
<time>2026-06-17T16:13:44.498Z</time>
</trkpt>
<trkpt lat="54.987194" lon="8.663255">
<ele>5.578655</ele>
<time>2026-06-17T16:13:55.000Z</time>
</trkpt>
<trkpt lat="54.987199" lon="8.663332">
<ele>5.626605</ele>
<time>2026-06-17T16:13:56.198Z</time>
</trkpt>
<trkpt lat="54.987208" lon="8.663458">
<ele>5.705171</ele>
<time>2026-06-17T16:13:58.108Z</time>
</trkpt>
<trkpt lat="54.987314" lon="8.665029">
<ele>6.683957</ele>
<time>2026-06-17T16:14:21.053Z</time>
</trkpt>
<trkpt lat="54.987902" lon="8.664900">
<ele>7.261704</ele>
<time>2026-06-17T16:14:36.841Z</time>
</trkpt>
<trkpt lat="54.988189" lon="8.664847">
<ele>7.541225</ele>
<time>2026-06-17T16:14:44.419Z</time>
</trkpt>
<trkpt lat="54.988463" lon="8.664723">
<ele>7.815400</ele>
<time>2026-06-17T16:14:51.823Z</time>
</trkpt>
<trkpt lat="54.988786" lon="8.664558">
<ele>8.141392</ele>
<time>2026-06-17T16:15:00.622Z</time>
</trkpt>
<trkpt lat="54.989190" lon="8.664351">
<ele>8.530871</ele>
<time>2026-06-17T16:15:11.633Z</time>
</trkpt>
<trkpt lat="54.991144" lon="8.663419">
<ele>9.782224</ele>
<time>2026-06-17T16:16:07.840Z</time>
</trkpt>
<trkpt lat="54.991338" lon="8.663299">
<ele>9.748224</ele>
<time>2026-06-17T16:16:13.266Z</time>
</trkpt>
<trkpt lat="54.991617" lon="8.663095">
<ele>9.698254</ele>
<time>2026-06-17T16:16:21.058Z</time>
</trkpt>
<trkpt lat="54.995124" lon="8.660024">
<ele>8.736649</ele>
<time>2026-06-17T16:17:52.650Z</time>
</trkpt>
<trkpt lat="54.995310" lon="8.659909">
<ele>8.650369</ele>
<time>2026-06-17T16:17:57.149Z</time>
</trkpt>
<trkpt lat="54.995472" lon="8.659885">
<ele>8.579289</ele>
<time>2026-06-17T16:18:00.872Z</time>
</trkpt>
<trkpt lat="54.995624" lon="8.659912">
<ele>8.512492</ele>
<time>2026-06-17T16:18:04.360Z</time>
</trkpt>
<trkpt lat="54.996871" lon="8.660330">
<ele>8.016503</ele>
<time>2026-06-17T16:18:33.577Z</time>
</trkpt>
<trkpt lat="55.000064" lon="8.661395">
<ele>7.236114</ele>
<time>2026-06-17T16:19:51.523Z</time>
</trkpt>
<trkpt lat="55.000731" lon="8.661621">
<ele>7.120261</ele>
<time>2026-06-17T16:20:08.100Z</time>
</trkpt>
<trkpt lat="55.000870" lon="8.661630">
<ele>7.096545</ele>
<time>2026-06-17T16:20:11.462Z</time>
</trkpt>
<trkpt lat="55.000999" lon="8.661583">
<ele>7.074076</ele>
<time>2026-06-17T16:20:14.651Z</time>
</trkpt>
<trkpt lat="55.001950" lon="8.661261">
<ele>6.657686</ele>
<time>2026-06-17T16:20:37.487Z</time>
</trkpt>
<trkpt lat="55.004151" lon="8.660052">
<ele>5.415634</ele>
<time>2026-06-17T16:21:29.817Z</time>
</trkpt>
<trkpt lat="55.005109" lon="8.659427">
<ele>5.248651</ele>
<time>2026-06-17T16:21:53.013Z</time>
</trkpt>
<trkpt lat="55.005245" lon="8.659375">
<ele>5.261436</ele>
<time>2026-06-17T16:21:56.310Z</time>
</trkpt>
<trkpt lat="55.005517" lon="8.659335">
<ele>5.286501</ele>
<time>2026-06-17T16:22:02.994Z</time>
</trkpt>
<trkpt lat="55.005928" lon="8.659166">
<ele>5.325277</ele>
<time>2026-06-17T16:22:14.034Z</time>
</trkpt>
<trkpt lat="55.006107" lon="8.659065">
<ele>5.342553</ele>
<time>2026-06-17T16:22:19.219Z</time>
</trkpt>
<trkpt lat="55.006826" lon="8.658765">
<ele>6.315142</ele>
<time>2026-06-17T16:22:41.279Z</time>
</trkpt>
<trkpt lat="55.008222" lon="8.658638">
<ele>8.532915</ele>
<time>2026-06-17T16:23:26.174Z</time>
</trkpt>
<trkpt lat="55.008553" lon="8.658598">
<ele>9.065601</ele>
<time>2026-06-17T16:23:35.992Z</time>
</trkpt>
<trkpt lat="55.009993" lon="8.658431">
<ele>11.255620</ele>
<time>2026-06-17T16:24:17.173Z</time>
</trkpt>
<trkpt lat="55.013406" lon="8.657790">
<ele>14.028764</ele>
<time>2026-06-17T16:25:44.060Z</time>
</trkpt>
<trkpt lat="55.013680" lon="8.657780">
<ele>14.048672</ele>
<time>2026-06-17T16:25:50.829Z</time>
</trkpt>
<trkpt lat="55.014624" lon="8.657859">
<ele>14.117325</ele>
<time>2026-06-17T16:26:12.837Z</time>
</trkpt>
<trkpt lat="55.016923" lon="8.658066">
<ele>13.187255</ele>
<time>2026-06-17T16:26:59.709Z</time>
</trkpt>
<trkpt lat="55.017348" lon="8.658036">
<ele>13.025476</ele>
<time>2026-06-17T16:27:08.220Z</time>
</trkpt>
<trkpt lat="55.018319" lon="8.657772">
<ele>12.679489</ele>
<time>2026-06-17T16:27:28.577Z</time>
</trkpt>
<trkpt lat="55.018860" lon="8.657582">
<ele>12.571126</ele>
<time>2026-06-17T16:27:40.720Z</time>
</trkpt>
<trkpt lat="55.019243" lon="8.657398">
<ele>12.763147</ele>
<time>2026-06-17T16:27:49.817Z</time>
</trkpt>
<trkpt lat="55.019734" lon="8.657028">
<ele>13.021678</ele>
<time>2026-06-17T16:28:03.030Z</time>
</trkpt>
<trkpt lat="55.019970" lon="8.656921">
<ele>13.139542</ele>
<time>2026-06-17T16:28:09.162Z</time>
</trkpt>
<trkpt lat="55.020334" lon="8.656882">
<ele>13.315818</ele>
<time>2026-06-17T16:28:18.279Z</time>
</trkpt>
<trkpt lat="55.020549" lon="8.656909">
<ele>13.411264</ele>
<time>2026-06-17T16:28:23.711Z</time>
</trkpt>
<trkpt lat="55.020847" lon="8.657017">
<ele>13.514327</ele>
<time>2026-06-17T16:28:31.412Z</time>
</trkpt>
<trkpt lat="55.021322" lon="8.657189">
<ele>13.678598</ele>
<time>2026-06-17T16:28:43.378Z</time>
</trkpt>
<trkpt lat="55.021750" lon="8.657358">
<ele>13.827192</ele>
<time>2026-06-17T16:28:53.524Z</time>
</trkpt>
<trkpt lat="55.022182" lon="8.657520">
<ele>13.976816</ele>
<time>2026-06-17T16:29:03.284Z</time>
</trkpt>
<trkpt lat="55.022349" lon="8.657583">
<ele>13.971953</ele>
<time>2026-06-17T16:29:06.981Z</time>
</trkpt>
<trkpt lat="55.022549" lon="8.657637">
<ele>13.917036</ele>
<time>2026-06-17T16:29:11.356Z</time>
</trkpt>
<trkpt lat="55.022959" lon="8.657709">
<ele>13.805219</ele>
<time>2026-06-17T16:29:20.327Z</time>
</trkpt>
<trkpt lat="55.023277" lon="8.657717">
<ele>13.718920</ele>
<time>2026-06-17T16:29:27.038Z</time>
</trkpt>
<trkpt lat="55.023327" lon="8.657716">
<ele>13.705352</ele>
<time>2026-06-17T16:29:28.075Z</time>
</trkpt>
<trkpt lat="55.023485" lon="8.657718">
<ele>13.662477</ele>
<time>2026-06-17T16:29:31.349Z</time>
</trkpt>
<trkpt lat="55.023688" lon="8.657710">
<ele>13.607378</ele>
<time>2026-06-17T16:29:35.541Z</time>
</trkpt>
<trkpt lat="55.023955" lon="8.657705">
<ele>13.534923</ele>
<time>2026-06-17T16:29:41.051Z</time>
</trkpt>
<trkpt lat="55.024352" lon="8.657699">
<ele>13.493206</ele>
<time>2026-06-17T16:29:49.370Z</time>
</trkpt>
<trkpt lat="55.024683" lon="8.657691">
<ele>13.473475</ele>
<time>2026-06-17T16:29:56.561Z</time>
</trkpt>
<trkpt lat="55.024786" lon="8.657671">
<ele>13.467298</ele>
<time>2026-06-17T16:29:58.816Z</time>
</trkpt>
<trkpt lat="55.025050" lon="8.657503">
<ele>13.450548</ele>
<time>2026-06-17T16:30:04.906Z</time>
</trkpt>
<trkpt lat="55.025153" lon="8.657367">
<ele>13.442849</ele>
<time>2026-06-17T16:30:07.722Z</time>
</trkpt>
<trkpt lat="55.025292" lon="8.657091">
<ele>13.430297</ele>
<time>2026-06-17T16:30:12.406Z</time>
</trkpt>
<trkpt lat="55.025633" lon="8.656327">
<ele>13.392466</ele>
<time>2026-06-17T16:30:25.465Z</time>
</trkpt>
<trkpt lat="55.025724" lon="8.656004">
<ele>13.372246</ele>
<time>2026-06-17T16:30:30.327Z</time>
</trkpt>
<trkpt lat="55.025763" lon="8.655706">
<ele>13.355073</ele>
<time>2026-06-17T16:30:34.357Z</time>
</trkpt>
<trkpt lat="55.025817" lon="8.654838">
<ele>13.306021</ele>
<time>2026-06-17T16:30:45.540Z</time>
</trkpt>
<trkpt lat="55.025818" lon="8.653180">
<ele>13.097114</ele>
<time>2026-06-17T16:31:05.365Z</time>
</trkpt>
<trkpt lat="55.025979" lon="8.652137">
<ele>12.580853</ele>
<time>2026-06-17T16:31:17.822Z</time>
</trkpt>
<trkpt lat="55.026048" lon="8.651812">
<ele>12.415207</ele>
<time>2026-06-17T16:31:21.771Z</time>
</trkpt>
<trkpt lat="55.026359" lon="8.650673">
<ele>11.812217</ele>
<time>2026-06-17T16:31:35.826Z</time>
</trkpt>
<trkpt lat="55.026381" lon="8.650478">
<ele>11.711128</ele>
<time>2026-06-17T16:31:38.009Z</time>
</trkpt>
<trkpt lat="55.026564" lon="8.646042">
<ele>8.753544</ele>
<time>2026-06-17T16:32:25.424Z</time>
</trkpt>
<trkpt lat="55.026582" lon="8.645425">
<ele>8.444596</ele>
<time>2026-06-17T16:32:32.314Z</time>
</trkpt>
<trkpt lat="55.026549" lon="8.645077">
<ele>8.268203</ele>
<time>2026-06-17T16:32:36.349Z</time>
</trkpt>
<trkpt lat="55.027034" lon="8.644689">
<ele>7.858477</ele>
<time>2026-06-17T16:32:47.429Z</time>
</trkpt>
<trkpt lat="55.028762" lon="8.643317">
<ele>8.083970</ele>
<time>2026-06-17T16:33:31.524Z</time>
</trkpt>
<trkpt lat="55.029119" lon="8.643033">
<ele>8.065041</ele>
<time>2026-06-17T16:33:40.758Z</time>
</trkpt>
<trkpt lat="55.032750" lon="8.640144">
<ele>7.616943</ele>
<time>2026-06-17T16:35:07.680Z</time>
</trkpt>
<trkpt lat="55.033903" lon="8.639276">
<ele>7.216538</ele>
<time>2026-06-17T16:35:33.334Z</time>
</trkpt>
<trkpt lat="55.034645" lon="8.638876">
<ele>6.970488</ele>
<time>2026-06-17T16:35:49.716Z</time>
</trkpt>
<trkpt lat="55.035716" lon="8.638500">
<ele>6.522033</ele>
<time>2026-06-17T16:36:13.289Z</time>
</trkpt>
<trkpt lat="55.036358" lon="8.638383">
<ele>6.176566</ele>
<time>2026-06-17T16:36:26.594Z</time>
</trkpt>
<trkpt lat="55.037109" lon="8.638351">
<ele>5.765165</ele>
<time>2026-06-17T16:36:41.455Z</time>
</trkpt>
<trkpt lat="55.037689" lon="8.638396">
<ele>5.373069</ele>
<time>2026-06-17T16:36:52.766Z</time>
</trkpt>
<trkpt lat="55.037987" lon="8.638452">
<ele>5.170648</ele>
<time>2026-06-17T16:36:58.627Z</time>
</trkpt>
<trkpt lat="55.038214" lon="8.638497">
<ele>5.016355</ele>
<time>2026-06-17T16:37:03.381Z</time>
</trkpt>
<trkpt lat="55.038693" lon="8.638614">
<ele>4.689704</ele>
<time>2026-06-17T16:37:13.527Z</time>
</trkpt>
<trkpt lat="55.038915" lon="8.638668">
<ele>4.534132</ele>
<time>2026-06-17T16:37:18.184Z</time>
</trkpt>
<trkpt lat="55.039008" lon="8.638690">
<ele>4.466100</ele>
<time>2026-06-17T16:37:20.105Z</time>
</trkpt>
<trkpt lat="55.039291" lon="8.638759">
<ele>4.258960</ele>
<time>2026-06-17T16:37:25.799Z</time>
</trkpt>
<trkpt lat="55.039546" lon="8.638828">
<ele>4.071900</ele>
<time>2026-06-17T16:37:30.830Z</time>
</trkpt>
<trkpt lat="55.039910" lon="8.638953">
<ele>3.802975</ele>
<time>2026-06-17T16:37:38.291Z</time>
</trkpt>
<trkpt lat="55.039944" lon="8.638967">
<ele>3.777652</ele>
<time>2026-06-17T16:37:38.973Z</time>
</trkpt>
<trkpt lat="55.040426" lon="8.639169">
<ele>3.418315</ele>
<time>2026-06-17T16:37:48.850Z</time>
</trkpt>
<trkpt lat="55.040945" lon="8.639445">
<ele>3.019137</ele>
<time>2026-06-17T16:37:59.318Z</time>
</trkpt>
<trkpt lat="55.041369" lon="8.639721">
<ele>2.683866</ele>
<time>2026-06-17T16:38:08.206Z</time>
</trkpt>
<trkpt lat="55.041859" lon="8.640084">
<ele>2.289486</ele>
<time>2026-06-17T16:38:18.869Z</time>
</trkpt>
<trkpt lat="55.042259" lon="8.640438">
<ele>1.958673</ele>
<time>2026-06-17T16:38:27.856Z</time>
</trkpt>
<trkpt lat="55.042794" lon="8.640961">
<ele>1.864422</ele>
<time>2026-06-17T16:38:40.413Z</time>
</trkpt>
<trkpt lat="55.045159" lon="8.643781">
<ele>1.853064</ele>
<time>2026-06-17T16:39:44.901Z</time>
</trkpt>
<trkpt lat="55.045818" lon="8.644427">
<ele>2.058630</ele>
<time>2026-06-17T16:40:02.567Z</time>
</trkpt>
<trkpt lat="55.046413" lon="8.644892">
<ele>2.256382</ele>
<time>2026-06-17T16:40:17.919Z</time>
</trkpt>
<trkpt lat="55.047570" lon="8.645695">
<ele>2.832899</ele>
<time>2026-06-17T16:40:47.687Z</time>
</trkpt>
<trkpt lat="55.048585" lon="8.646405">
<ele>3.455654</ele>
<time>2026-06-17T16:41:15.169Z</time>
</trkpt>
<trkpt lat="55.049411" lon="8.646976">
<ele>3.852578</ele>
<time>2026-06-17T16:41:36.924Z</time>
</trkpt>
<trkpt lat="55.049681" lon="8.647162">
<ele>3.982261</ele>
<time>2026-06-17T16:41:43.880Z</time>
</trkpt>
<trkpt lat="55.050271" lon="8.647576">
<ele>4.259354</ele>
<time>2026-06-17T16:41:58.761Z</time>
</trkpt>
<trkpt lat="55.050308" lon="8.647602">
<ele>4.271300</ele>
<time>2026-06-17T16:41:59.672Z</time>
</trkpt>
<trkpt lat="55.051017" lon="8.648083">
<ele>4.499121</ele>
<time>2026-06-17T16:42:17.068Z</time>
</trkpt>
<trkpt lat="55.051815" lon="8.648628">
<ele>4.755765</ele>
<time>2026-06-17T16:42:37.501Z</time>
</trkpt>
<trkpt lat="55.052552" lon="8.649143">
<ele>4.875350</ele>
<time>2026-06-17T16:42:56.043Z</time>
</trkpt>
<trkpt lat="55.053138" lon="8.649515">
<ele>4.956867</ele>
<time>2026-06-17T16:43:10.332Z</time>
</trkpt>
<trkpt lat="55.053876" lon="8.649861">
<ele>4.974002</ele>
<time>2026-06-17T16:43:27.061Z</time>
</trkpt>
<trkpt lat="55.057864" lon="8.651146">
<ele>4.347373</ele>
<time>2026-06-17T16:44:54.574Z</time>
</trkpt>
<trkpt lat="55.059473" lon="8.651680">
<ele>4.113773</ele>
<time>2026-06-17T16:45:30.634Z</time>
</trkpt>
<trkpt lat="55.060374" lon="8.651979">
<ele>3.929618</ele>
<time>2026-06-17T16:45:50.140Z</time>
</trkpt>
<trkpt lat="55.060508" lon="8.652032">
<ele>3.902030</ele>
<time>2026-06-17T16:45:53.025Z</time>
</trkpt>
<trkpt lat="55.061504" lon="8.652583">
<ele>3.561896</ele>
<time>2026-06-17T16:46:14.882Z</time>
</trkpt>
<trkpt lat="55.062191" lon="8.653116">
<ele>3.300497</ele>
<time>2026-06-17T16:46:30.590Z</time>
</trkpt>
<trkpt lat="55.064825" lon="8.655488">
<ele>2.685245</ele>
<time>2026-06-17T16:47:32.846Z</time>
</trkpt>
<trkpt lat="55.065838" lon="8.656218">
<ele>2.823181</ele>
<time>2026-06-17T16:48:00.296Z</time>
</trkpt>
<trkpt lat="55.066430" lon="8.656566">
<ele>2.925294</ele>
<time>2026-06-17T16:48:15.560Z</time>
</trkpt>
<trkpt lat="55.066569" lon="8.656647">
<ele>2.949249</ele>
<time>2026-06-17T16:48:18.907Z</time>
</trkpt>
<trkpt lat="55.069705" lon="8.658511">
<ele>2.222777</ele>
<time>2026-06-17T16:49:27.475Z</time>
</trkpt>
<trkpt lat="55.070376" lon="8.658805">
<ele>2.190751</ele>
<time>2026-06-17T16:49:43.436Z</time>
</trkpt>
<trkpt lat="55.070881" lon="8.658952">
<ele>2.256475</ele>
<time>2026-06-17T16:49:55.756Z</time>
</trkpt>
<trkpt lat="55.071394" lon="8.659039">
<ele>2.470002</ele>
<time>2026-06-17T16:50:07.885Z</time>
</trkpt>
<trkpt lat="55.071845" lon="8.659058">
<ele>2.656899</ele>
<time>2026-06-17T16:50:18.383Z</time>
</trkpt>
<trkpt lat="55.071909" lon="8.659054">
<ele>2.683430</ele>
<time>2026-06-17T16:50:19.911Z</time>
</trkpt>
<trkpt lat="55.072356" lon="8.659014">
<ele>2.868858</ele>
<time>2026-06-17T16:50:31.138Z</time>
</trkpt>
<trkpt lat="55.072531" lon="8.658982">
<ele>2.949999</ele>
<time>2026-06-17T16:50:35.491Z</time>
</trkpt>
<trkpt lat="55.072983" lon="8.658886">
<ele>3.214266</ele>
<time>2026-06-17T16:50:46.786Z</time>
</trkpt>
<trkpt lat="55.073210" lon="8.658829">
<ele>3.347368</ele>
<time>2026-06-17T16:50:52.535Z</time>
</trkpt>
<trkpt lat="55.073412" lon="8.658772">
<ele>3.466126</ele>
<time>2026-06-17T16:50:57.694Z</time>
</trkpt>
<trkpt lat="55.074158" lon="8.658571">
<ele>3.904214</ele>
<time>2026-06-17T16:51:16.356Z</time>
</trkpt>
<trkpt lat="55.074291" lon="8.658535">
<ele>3.971646</ele>
<time>2026-06-17T16:51:19.612Z</time>
</trkpt>
<trkpt lat="55.075053" lon="8.658333">
<ele>4.141723</ele>
<time>2026-06-17T16:51:37.733Z</time>
</trkpt>
<trkpt lat="55.075070" lon="8.658329">
<ele>4.145508</ele>
<time>2026-06-17T16:51:38.125Z</time>
</trkpt>
<trkpt lat="55.075470" lon="8.658226">
<ele>4.234731</ele>
<time>2026-06-17T16:51:47.451Z</time>
</trkpt>
<trkpt lat="55.075737" lon="8.658179">
<ele>4.293949</ele>
<time>2026-06-17T16:51:53.594Z</time>
</trkpt>
<trkpt lat="55.076039" lon="8.658204">
<ele>4.360667</ele>
<time>2026-06-17T16:52:00.304Z</time>
</trkpt>
<trkpt lat="55.076728" lon="8.658432">
<ele>4.348037</ele>
<time>2026-06-17T16:52:15.510Z</time>
</trkpt>
<trkpt lat="55.077384" lon="8.658767">
<ele>4.334307</ele>
<time>2026-06-17T16:52:30.537Z</time>
</trkpt>
<trkpt lat="55.077829" lon="8.658997">
<ele>4.333634</ele>
<time>2026-06-17T16:52:41.147Z</time>
</trkpt>
<trkpt lat="55.078500" lon="8.659328">
<ele>4.456441</ele>
<time>2026-06-17T16:52:57.540Z</time>
</trkpt>
<trkpt lat="55.078873" lon="8.659468">
<ele>4.523637</ele>
<time>2026-06-17T16:53:06.557Z</time>
</trkpt>
<trkpt lat="55.079327" lon="8.659584">
<ele>4.604452</ele>
<time>2026-06-17T16:53:16.884Z</time>
</trkpt>
<trkpt lat="55.079648" lon="8.659621">
<ele>4.638074</ele>
<time>2026-06-17T16:53:24.191Z</time>
</trkpt>
<trkpt lat="55.080092" lon="8.659631">
<ele>4.618593</ele>
<time>2026-06-17T16:53:34.109Z</time>
</trkpt>
<trkpt lat="55.081092" lon="8.659493">
<ele>4.574584</ele>
<time>2026-06-17T16:53:55.922Z</time>
</trkpt>
<trkpt lat="55.083810" lon="8.659087">
<ele>4.701354</ele>
<time>2026-06-17T16:54:57.730Z</time>
</trkpt>
<trkpt lat="55.086331" lon="8.658710">
<ele>4.686626</ele>
<time>2026-06-17T16:55:52.795Z</time>
</trkpt>
<trkpt lat="55.086914" lon="8.658665">
<ele>4.764798</ele>
<time>2026-06-17T16:56:06.505Z</time>
</trkpt>
<trkpt lat="55.087661" lon="8.658778">
<ele>5.039896</ele>
<time>2026-06-17T16:56:24.876Z</time>
</trkpt>
<trkpt lat="55.087698" lon="8.658317">
<ele>5.137646</ele>
<time>2026-06-17T16:56:31.339Z</time>
</trkpt>
<trkpt lat="55.087726" lon="8.658230">
<ele>5.158605</ele>
<time>2026-06-17T16:56:32.695Z</time>
</trkpt>
<trkpt lat="55.087964" lon="8.658111">
<ele>5.249431</ele>
<time>2026-06-17T16:56:38.597Z</time>
</trkpt>
<trkpt lat="55.089121" lon="8.657686">
<ele>5.429597</ele>
<time>2026-06-17T16:57:05.090Z</time>
</trkpt>
<trkpt lat="55.089398" lon="8.657587">
<ele>5.453972</ele>
<time>2026-06-17T16:57:11.286Z</time>
</trkpt>
<trkpt lat="55.089644" lon="8.657507">
<ele>5.475544</ele>
<time>2026-06-17T16:57:17.028Z</time>
</trkpt>
<trkpt lat="55.089808" lon="8.657481">
<ele>5.489741</ele>
<time>2026-06-17T16:57:20.882Z</time>
</trkpt>
<trkpt lat="55.090032" lon="8.657411">
<ele>5.496875</ele>
<time>2026-06-17T16:57:26.102Z</time>
</trkpt>
<trkpt lat="55.090277" lon="8.657315">
<ele>5.414350</ele>
<time>2026-06-17T16:57:31.771Z</time>
</trkpt>
<trkpt lat="55.090667" lon="8.657570">
<ele>5.277489</ele>
<time>2026-06-17T16:57:41.081Z</time>
</trkpt>
<trkpt lat="55.090826" lon="8.657603">
<ele>5.224863</ele>
<time>2026-06-17T16:57:44.638Z</time>
</trkpt>
<trkpt lat="55.091161" lon="8.657452">
<ele>5.111154</ele>
<time>2026-06-17T16:57:52.136Z</time>
</trkpt>
<trkpt lat="55.091226" lon="8.657387">
<ele>5.086540</ele>
<time>2026-06-17T16:57:53.747Z</time>
</trkpt>
<trkpt lat="55.091375" lon="8.657037">
<ele>5.004491</ele>
<time>2026-06-17T16:57:58.984Z</time>
</trkpt>
<trkpt lat="55.091525" lon="8.656782">
<ele>4.935709</ele>
<time>2026-06-17T16:58:03.126Z</time>
</trkpt>
<trkpt lat="55.091614" lon="8.656698">
<ele>4.846883</ele>
<time>2026-06-17T16:58:05.038Z</time>
</trkpt>
<trkpt lat="55.091802" lon="8.656621">
<ele>4.514955</ele>
<time>2026-06-17T16:58:08.598Z</time>
</trkpt>
<trkpt lat="55.092341" lon="8.656367">
<ele>3.555319</ele>
<time>2026-06-17T16:58:18.512Z</time>
</trkpt>
<trkpt lat="55.092368" lon="8.656339">
<ele>3.501349</ele>
<time>2026-06-17T16:58:19.124Z</time>
</trkpt>
<trkpt lat="55.092619" lon="8.656356">
<ele>3.069558</ele>
<time>2026-06-17T16:58:24.062Z</time>
</trkpt>
<trkpt lat="55.092795" lon="8.656301">
<ele>2.762216</ele>
<time>2026-06-17T16:58:27.572Z</time>
</trkpt>
<trkpt lat="55.093068" lon="8.656111">
<ele>2.257082</ele>
<time>2026-06-17T16:58:33.396Z</time>
</trkpt>
<trkpt lat="55.093140" lon="8.656092">
<ele>2.131912</ele>
<time>2026-06-17T16:58:34.861Z</time>
</trkpt>
<trkpt lat="55.093321" lon="8.656207">
<ele>1.810804</ele>
<time>2026-06-17T16:58:38.699Z</time>
</trkpt>
<trkpt lat="55.093503" lon="8.656338">
<ele>1.619532</ele>
<time>2026-06-17T16:58:42.636Z</time>
</trkpt>
<trkpt lat="55.094348" lon="8.656828">
<ele>0.754384</ele>
<time>2026-06-17T16:59:01.530Z</time>
</trkpt>
<trkpt lat="55.094615" lon="8.657088">
<ele>0.457367</ele>
<time>2026-06-17T16:59:08.616Z</time>
</trkpt>
<trkpt lat="55.097000" lon="8.660867">
<ele>-0.199459</ele>
<time>2026-06-17T17:00:26.447Z</time>
</trkpt>
<trkpt lat="55.100610" lon="8.666580">
<ele>0.137003</ele>
<time>2026-06-17T17:02:29.105Z</time>
</trkpt>
<trkpt lat="55.100737" lon="8.666837">
<ele>0.134321</ele>
<time>2026-06-17T17:02:33.893Z</time>
</trkpt>
<trkpt lat="55.100929" lon="8.667136">
<ele>0.130771</ele>
<time>2026-06-17T17:02:40.167Z</time>
</trkpt>
<trkpt lat="55.101123" lon="8.667454">
<ele>0.127099</ele>
<time>2026-06-17T17:02:46.658Z</time>
</trkpt>
<trkpt lat="55.101472" lon="8.667932">
<ele>0.120978</ele>
<time>2026-06-17T17:02:57.426Z</time>
</trkpt>
<trkpt lat="55.103459" lon="8.671127">
<ele>-0.008207</ele>
<time>2026-06-17T17:04:03.434Z</time>
</trkpt>
<trkpt lat="55.103653" lon="8.671409">
<ele>-0.020318</ele>
<time>2026-06-17T17:04:09.622Z</time>
</trkpt>
<trkpt lat="55.103845" lon="8.671603">
<ele>-0.030962</ele>
<time>2026-06-17T17:04:15.053Z</time>
</trkpt>
<trkpt lat="55.107544" lon="8.674330">
<ele>0.106094</ele>
<time>2026-06-17T17:05:54.835Z</time>
</trkpt>
<trkpt lat="55.111410" lon="8.677107">
<ele>0.338825</ele>
<time>2026-06-17T17:07:39.196Z</time>
</trkpt>
<trkpt lat="55.114635" lon="8.678431">
<ele>0.119040</ele>
<time>2026-06-17T17:08:59.937Z</time>
</trkpt>
<trkpt lat="55.114897" lon="8.678458">
<ele>0.104412</ele>
<time>2026-06-17T17:09:06.364Z</time>
</trkpt>
<trkpt lat="55.115249" lon="8.678371">
<ele>0.084598</ele>
<time>2026-06-17T17:09:15.151Z</time>
</trkpt>
<trkpt lat="55.116656" lon="8.677802">
<ele>0.005209</ele>
<time>2026-06-17T17:09:50.793Z</time>
</trkpt>
<trkpt lat="55.116912" lon="8.677773">
<ele>-0.008415</ele>
<time>2026-06-17T17:09:56.952Z</time>
</trkpt>
<trkpt lat="55.117143" lon="8.677794">
<ele>-0.020700</ele>
<time>2026-06-17T17:10:02.486Z</time>
</trkpt>
<trkpt lat="55.117396" lon="8.677905">
<ele>-0.034553</ele>
<time>2026-06-17T17:10:08.849Z</time>
</trkpt>
<trkpt lat="55.117812" lon="8.678175">
<ele>-0.058119</ele>
<time>2026-06-17T17:10:19.793Z</time>
</trkpt>
<trkpt lat="55.118054" lon="8.678388">
<ele>-0.057738</ele>
<time>2026-06-17T17:10:26.493Z</time>
</trkpt>
<trkpt lat="55.118508" lon="8.678664">
<ele>0.001038</ele>
<time>2026-06-17T17:10:38.513Z</time>
</trkpt>
<trkpt lat="55.118718" lon="8.678794">
<ele>0.028279</ele>
<time>2026-06-17T17:10:44.157Z</time>
</trkpt>
<trkpt lat="55.118938" lon="8.678933">
<ele>0.056884</ele>
<time>2026-06-17T17:10:50.125Z</time>
</trkpt>
<trkpt lat="55.119519" lon="8.679314">
<ele>0.132763</ele>
<time>2026-06-17T17:11:05.959Z</time>
</trkpt>
<trkpt lat="55.119783" lon="8.679436">
<ele>0.152688</ele>
<time>2026-06-17T17:11:12.722Z</time>
</trkpt>
<trkpt lat="55.128948" lon="8.685322">
<ele>0.185936</ele>
<time>2026-06-17T17:15:14.278Z</time>
</trkpt>
<trkpt lat="55.129510" lon="8.685574">
<ele>0.176733</ele>
<time>2026-06-17T17:15:28.524Z</time>
</trkpt>
<trkpt lat="55.129633" lon="8.685614">
<ele>0.174749</ele>
<time>2026-06-17T17:15:31.585Z</time>
</trkpt>
<trkpt lat="55.129765" lon="8.685674">
<ele>0.172586</ele>
<time>2026-06-17T17:15:34.573Z</time>
</trkpt>
<trkpt lat="55.129860" lon="8.685714">
<ele>0.170269</ele>
<time>2026-06-17T17:15:36.719Z</time>
</trkpt>
<trkpt lat="55.129901" lon="8.685740">
<ele>0.168359</ele>
<time>2026-06-17T17:15:37.666Z</time>
</trkpt>
<trkpt lat="55.130515" lon="8.685989">
<ele>0.140747</ele>
<time>2026-06-17T17:15:51.500Z</time>
</trkpt>
<trkpt lat="55.130718" lon="8.685962">
<ele>0.131829</ele>
<time>2026-06-17T17:15:55.996Z</time>
</trkpt>
<trkpt lat="55.131602" lon="8.686376">
<ele>0.092041</ele>
<time>2026-06-17T17:16:16.168Z</time>
</trkpt>
<trkpt lat="55.134447" lon="8.687570">
<ele>-0.028504</ele>
<time>2026-06-17T17:17:28.146Z</time>
</trkpt>
<trkpt lat="55.136377" lon="8.688335">
<ele>-0.128563</ele>
<time>2026-06-17T17:18:16.255Z</time>
</trkpt>
<trkpt lat="55.140797" lon="8.691084">
<ele>0.167204</ele>
<time>2026-06-17T17:20:13.896Z</time>
</trkpt>
<trkpt lat="55.140980" lon="8.691183">
<ele>0.174020</ele>
<time>2026-06-17T17:20:18.633Z</time>
</trkpt>
<trkpt lat="55.141526" lon="8.691507">
<ele>0.194536</ele>
<time>2026-06-17T17:20:32.793Z</time>
</trkpt>
<trkpt lat="55.146501" lon="8.694517">
<ele>0.332551</ele>
<time>2026-06-17T17:22:43.290Z</time>
</trkpt>
<trkpt lat="55.147309" lon="8.695006">
<ele>0.383337</ele>
<time>2026-06-17T17:23:04.616Z</time>
</trkpt>
<trkpt lat="55.147648" lon="8.695274">
<ele>0.414662</ele>
<time>2026-06-17T17:23:13.915Z</time>
</trkpt>
<trkpt lat="55.150281" lon="8.698069">
<ele>0.658846</ele>
<time>2026-06-17T17:24:31.177Z</time>
</trkpt>
<trkpt lat="55.151163" lon="8.698862">
<ele>0.599838</ele>
<time>2026-06-17T17:24:55.562Z</time>
</trkpt>
<trkpt lat="55.151339" lon="8.699030">
<ele>0.587908</ele>
<time>2026-06-17T17:25:00.443Z</time>
</trkpt>
<trkpt lat="55.151168" lon="8.699648">
<ele>0.564560</ele>
<time>2026-06-17T17:25:09.941Z</time>
</trkpt>
<trkpt lat="55.151137" lon="8.699910">
<ele>0.531463</ele>
<time>2026-06-17T17:25:13.621Z</time>
</trkpt>
<trkpt lat="55.151071" lon="8.702515">
<ele>0.115616</ele>
<time>2026-06-17T17:25:48.775Z</time>
</trkpt>
<trkpt lat="55.151204" lon="8.702610">
<ele>0.075524</ele>
<time>2026-06-17T17:25:51.744Z</time>
</trkpt>
<trkpt lat="55.152020" lon="8.703186">
<ele>0.026083</ele>
<time>2026-06-17T17:26:10.632Z</time>
</trkpt>
<trkpt lat="55.152204" lon="8.703282">
<ele>0.018188</ele>
<time>2026-06-17T17:26:14.996Z</time>
</trkpt>
<trkpt lat="55.152643" lon="8.703406">
<ele>-0.000100</ele>
<time>2026-06-17T17:26:25.024Z</time>
</trkpt>
<trkpt lat="55.153267" lon="8.703428">
<ele>0.014811</ele>
<time>2026-06-17T17:26:39.397Z</time>
</trkpt>
<trkpt lat="55.153290" lon="8.703798">
<ele>0.036202</ele>
<time>2026-06-17T17:26:44.333Z</time>
</trkpt>
<trkpt lat="55.153550" lon="8.704926">
<ele>0.106109</ele>
<time>2026-06-17T17:27:00.111Z</time>
</trkpt>
<trkpt lat="55.153629" lon="8.705303">
<ele>0.129188</ele>
<time>2026-06-17T17:27:05.123Z</time>
</trkpt>
<trkpt lat="55.153703" lon="8.706041">
<ele>0.172531</ele>
<time>2026-06-17T17:27:14.624Z</time>
</trkpt>
<trkpt lat="55.153785" lon="8.707497">
<ele>0.261031</ele>
<time>2026-06-17T17:27:33.722Z</time>
</trkpt>
<trkpt lat="55.153874" lon="8.710219">
<ele>0.430877</ele>
<time>2026-06-17T17:28:08.714Z</time>
</trkpt>
<trkpt lat="55.153979" lon="8.710190">
<ele>0.442938</ele>
<time>2026-06-17T17:28:11.082Z</time>
</trkpt>
<trkpt lat="55.154071" lon="8.710098">
<ele>0.454960</ele>
<time>2026-06-17T17:28:13.476Z</time>
</trkpt>
<trkpt lat="55.155215" lon="8.707789">
<ele>0.683168</ele>
<time>2026-06-17T17:28:53.766Z</time>
</trkpt>
<trkpt lat="55.155703" lon="8.706792">
<ele>0.796200</ele>
<time>2026-06-17T17:29:12.812Z</time>
</trkpt>
<trkpt lat="55.155884" lon="8.706449">
<ele>0.827113</ele>
<time>2026-06-17T17:29:19.431Z</time>
</trkpt>
<trkpt lat="55.156354" lon="8.705620">
<ele>0.689948</ele>
<time>2026-06-17T17:29:35.608Z</time>
</trkpt>
<trkpt lat="55.156540" lon="8.705416">
<ele>0.644827</ele>
<time>2026-06-17T17:29:40.805Z</time>
</trkpt>
<trkpt lat="55.157887" lon="8.704754">
<ele>0.450580</ele>
<time>2026-06-17T17:30:13.987Z</time>
</trkpt>
<trkpt lat="55.158837" lon="8.704200">
<ele>0.426864</ele>
<time>2026-06-17T17:30:38.795Z</time>
</trkpt>
<trkpt lat="55.160103" lon="8.704020">
<ele>0.441691</ele>
<time>2026-06-17T17:31:10.815Z</time>
</trkpt>
<trkpt lat="55.164136" lon="8.703857">
<ele>0.325692</ele>
<time>2026-06-17T17:32:49.549Z</time>
</trkpt>
<trkpt lat="55.164616" lon="8.703809">
<ele>0.320081</ele>
<time>2026-06-17T17:33:01.363Z</time>
</trkpt>
<trkpt lat="55.164669" lon="8.703792">
<ele>0.323277</ele>
<time>2026-06-17T17:33:02.701Z</time>
</trkpt>
<trkpt lat="55.169156" lon="8.702587">
<ele>0.838924</ele>
<time>2026-06-17T17:34:56.025Z</time>
</trkpt>
<trkpt lat="55.169587" lon="8.702527">
<ele>0.961309</ele>
<time>2026-06-17T17:35:07.616Z</time>
</trkpt>
<trkpt lat="55.170007" lon="8.702539">
<ele>1.167391</ele>
<time>2026-06-17T17:35:19.174Z</time>
</trkpt>
<trkpt lat="55.170507" lon="8.702651">
<ele>1.593733</ele>
<time>2026-06-17T17:35:33.407Z</time>
</trkpt>
<trkpt lat="55.173020" lon="8.703720">
<ele>3.721039</ele>
<time>2026-06-17T17:36:46.896Z</time>
</trkpt>
<trkpt lat="55.176746" lon="8.705328">
<ele>5.463991</ele>
<time>2026-06-17T17:38:28.138Z</time>
</trkpt>
<trkpt lat="55.178146" lon="8.705734">
<ele>5.874503</ele>
<time>2026-06-17T17:39:04.788Z</time>
</trkpt>
<trkpt lat="55.178812" lon="8.706121">
<ele>5.964770</ele>
<time>2026-06-17T17:39:21.286Z</time>
</trkpt>
<trkpt lat="55.179083" lon="8.706289">
<ele>5.899849</ele>
<time>2026-06-17T17:39:27.873Z</time>
</trkpt>
<trkpt lat="55.180719" lon="8.707286">
<ele>5.400100</ele>
<time>2026-06-17T17:40:03.761Z</time>
</trkpt>
<trkpt lat="55.180783" lon="8.707377">
<ele>5.360728</ele>
<time>2026-06-17T17:40:05.421Z</time>
</trkpt>
<trkpt lat="55.182111" lon="8.709380">
<ele>4.552773</ele>
<time>2026-06-17T17:40:41.335Z</time>
</trkpt>
<trkpt lat="55.183093" lon="8.710909">
<ele>4.006959</ele>
<time>2026-06-17T17:41:09.035Z</time>
</trkpt>
<trkpt lat="55.183881" lon="8.712333">
<ele>3.508012</ele>
<time>2026-06-17T17:41:32.834Z</time>
</trkpt>
<trkpt lat="55.184450" lon="8.713485">
<ele>3.108562</ele>
<time>2026-06-17T17:41:50.478Z</time>
</trkpt>
<trkpt lat="55.185457" lon="8.715691">
<ele>2.259937</ele>
<time>2026-06-17T17:42:23.287Z</time>
</trkpt>
<trkpt lat="55.185576" lon="8.716018">
<ele>2.185420</ele>
<time>2026-06-17T17:42:27.985Z</time>
</trkpt>
<trkpt lat="55.185638" lon="8.716345">
<ele>2.119209</ele>
<time>2026-06-17T17:42:32.156Z</time>
</trkpt>
<trkpt lat="55.185667" lon="8.716798">
<ele>2.031614</ele>
<time>2026-06-17T17:42:37.650Z</time>
</trkpt>
<trkpt lat="55.185651" lon="8.716968">
<ele>1.998505</ele>
<time>2026-06-17T17:42:39.723Z</time>
</trkpt>
<trkpt lat="55.186018" lon="8.717154">
<ele>1.869912</ele>
<time>2026-06-17T17:42:47.739Z</time>
</trkpt>
<trkpt lat="55.186299" lon="8.717370">
<ele>1.766625</ele>
<time>2026-06-17T17:42:54.146Z</time>
</trkpt>
<trkpt lat="55.187158" lon="8.718149">
<ele>1.736894</ele>
<time>2026-06-17T17:43:14.836Z</time>
</trkpt>
<trkpt lat="55.187489" lon="8.718499">
<ele>1.787068</ele>
<time>2026-06-17T17:43:23.722Z</time>
</trkpt>
<trkpt lat="55.188624" lon="8.719750">
<ele>2.091967</ele>
<time>2026-06-17T17:43:55.801Z</time>
</trkpt>
<trkpt lat="55.189473" lon="8.720727">
<ele>2.459773</ele>
<time>2026-06-17T17:44:19.368Z</time>
</trkpt>
<trkpt lat="55.190213" lon="8.721874">
<ele>2.977645</ele>
<time>2026-06-17T17:44:43.380Z</time>
</trkpt>
<trkpt lat="55.190614" lon="8.722509">
<ele>3.285964</ele>
<time>2026-06-17T17:44:56.935Z</time>
</trkpt>
<trkpt lat="55.190896" lon="8.722970">
<ele>3.505968</ele>
<time>2026-06-17T17:45:06.369Z</time>
</trkpt>
<trkpt lat="55.191084" lon="8.723402">
<ele>3.620510</ele>
<time>2026-06-17T17:45:13.917Z</time>
</trkpt>
<trkpt lat="55.191356" lon="8.724224">
<ele>3.766047</ele>
<time>2026-06-17T17:45:27.307Z</time>
</trkpt>
<trkpt lat="55.191623" lon="8.725184">
<ele>3.929621</ele>
<time>2026-06-17T17:45:41.887Z</time>
</trkpt>
<trkpt lat="55.191754" lon="8.725973">
<ele>4.035540</ele>
<time>2026-06-17T17:45:52.185Z</time>
</trkpt>
<trkpt lat="55.191860" lon="8.726636">
<ele>3.868007</ele>
<time>2026-06-17T17:46:00.189Z</time>
</trkpt>
<trkpt lat="55.191950" lon="8.727197">
<ele>3.726214</ele>
<time>2026-06-17T17:46:06.716Z</time>
</trkpt>
<trkpt lat="55.192065" lon="8.727833">
<ele>3.563881</ele>
<time>2026-06-17T17:46:14.102Z</time>
</trkpt>
<trkpt lat="55.192322" lon="8.727509">
<ele>3.428912</ele>
<time>2026-06-17T17:46:20.416Z</time>
</trkpt>
<trkpt lat="55.192515" lon="8.727378">
<ele>3.340684</ele>
<time>2026-06-17T17:46:24.744Z</time>
</trkpt>
<trkpt lat="55.193025" lon="8.727172">
<ele>3.656519</ele>
<time>2026-06-17T17:46:37.102Z</time>
</trkpt>
<trkpt lat="55.193251" lon="8.727170">
<ele>3.877741</ele>
<time>2026-06-17T17:46:43.313Z</time>
</trkpt>
<trkpt lat="55.193349" lon="8.727193">
<ele>3.974525</ele>
<time>2026-06-17T17:46:46.104Z</time>
</trkpt>
<trkpt lat="55.193753" lon="8.727167">
<ele>4.370244</ele>
<time>2026-06-17T17:46:57.870Z</time>
</trkpt>
<trkpt lat="55.193964" lon="8.727149">
<ele>4.577025</ele>
<time>2026-06-17T17:47:03.771Z</time>
</trkpt>
<trkpt lat="55.194155" lon="8.727087">
<ele>4.767166</ele>
<time>2026-06-17T17:47:09.040Z</time>
</trkpt>
<trkpt lat="55.194419" lon="8.727074">
<ele>5.025683</ele>
<time>2026-06-17T17:47:15.982Z</time>
</trkpt>
<trkpt lat="55.194497" lon="8.727114">
<ele>5.053447</ele>
<time>2026-06-17T17:47:18.110Z</time>
</trkpt>
<trkpt lat="55.194797" lon="8.727091">
<ele>5.107896</ele>
<time>2026-06-17T17:47:25.723Z</time>
</trkpt>
<trkpt lat="55.194982" lon="8.727077">
<ele>5.141472</ele>
<time>2026-06-17T17:47:30.271Z</time>
</trkpt>
<trkpt lat="55.195085" lon="8.727071">
<ele>5.160159</ele>
<time>2026-06-17T17:47:32.649Z</time>
</trkpt>
<trkpt lat="55.195512" lon="8.727015">
<ele>5.237800</ele>
<time>2026-06-17T17:47:42.062Z</time>
</trkpt>
<trkpt lat="55.196049" lon="8.726975">
<ele>5.335259</ele>
<time>2026-06-17T17:47:53.292Z</time>
</trkpt>
<trkpt lat="55.196175" lon="8.726965">
<ele>5.358129</ele>
<time>2026-06-17T17:47:55.976Z</time>
</trkpt>
<trkpt lat="55.196326" lon="8.726874">
<ele>5.338208</ele>
<time>2026-06-17T17:47:59.546Z</time>
</trkpt>
<trkpt lat="55.196460" lon="8.726857">
<ele>5.300799</ele>
<time>2026-06-17T17:48:02.535Z</time>
</trkpt>
<trkpt lat="55.197857" lon="8.726752">
<ele>4.911456</ele>
<time>2026-06-17T17:48:32.537Z</time>
</trkpt>
<trkpt lat="55.201430" lon="8.726484">
<ele>3.198819</ele>
<time>2026-06-17T17:49:45.684Z</time>
</trkpt>
<trkpt lat="55.203506" lon="8.726326">
<ele>2.784940</ele>
<time>2026-06-17T17:50:30.443Z</time>
</trkpt>
<trkpt lat="55.204997" lon="8.726214">
<ele>2.902464</ele>
<time>2026-06-17T17:51:04.095Z</time>
</trkpt>
<trkpt lat="55.205846" lon="8.726151">
<ele>2.896508</ele>
<time>2026-06-17T17:51:23.378Z</time>
</trkpt>
<trkpt lat="55.210142" lon="8.725829">
<ele>2.704576</ele>
<time>2026-06-17T17:52:58.147Z</time>
</trkpt>
<trkpt lat="55.210471" lon="8.725805">
<ele>2.682723</ele>
<time>2026-06-17T17:53:05.351Z</time>
</trkpt>
<trkpt lat="55.210627" lon="8.725874">
<ele>2.672339</ele>
<time>2026-06-17T17:53:08.842Z</time>
</trkpt>
<trkpt lat="55.210746" lon="8.725881">
<ele>2.665398</ele>
<time>2026-06-17T17:53:11.407Z</time>
</trkpt>
<trkpt lat="55.211176" lon="8.725843">
<ele>2.640303</ele>
<time>2026-06-17T17:53:20.787Z</time>
</trkpt>
<trkpt lat="55.211627" lon="8.725810">
<ele>2.613992</ele>
<time>2026-06-17T17:53:30.592Z</time>
</trkpt>
<trkpt lat="55.211886" lon="8.725690">
<ele>2.598377</ele>
<time>2026-06-17T17:53:36.440Z</time>
</trkpt>
<trkpt lat="55.213863" lon="8.725530">
<ele>2.835022</ele>
<time>2026-06-17T17:54:21.301Z</time>
</trkpt>
<trkpt lat="55.213947" lon="8.725526">
<ele>2.850035</ele>
<time>2026-06-17T17:54:24.574Z</time>
</trkpt>
<trkpt lat="55.214737" lon="8.725466">
<ele>3.007973</ele>
<time>2026-06-17T17:54:43.556Z</time>
</trkpt>
<trkpt lat="55.214956" lon="8.725451">
<ele>3.053631</ele>
<time>2026-06-17T17:54:48.839Z</time>
</trkpt>
<trkpt lat="55.220069" lon="8.725119">
<ele>3.966059</ele>
<time>2026-06-17T17:56:45.603Z</time>
</trkpt>
<trkpt lat="55.220297" lon="8.725167">
<ele>3.989285</ele>
<time>2026-06-17T17:56:50.814Z</time>
</trkpt>
<trkpt lat="55.221546" lon="8.725067">
<ele>4.147127</ele>
<time>2026-06-17T17:57:19.074Z</time>
</trkpt>
<trkpt lat="55.221757" lon="8.724990">
<ele>4.205931</ele>
<time>2026-06-17T17:57:23.958Z</time>
</trkpt>
<trkpt lat="55.222954" lon="8.724885">
<ele>4.532933</ele>
<time>2026-06-17T17:57:52.119Z</time>
</trkpt>
<trkpt lat="55.223120" lon="8.724920">
<ele>4.578551</ele>
<time>2026-06-17T17:57:56.146Z</time>
</trkpt>
<trkpt lat="55.223810" lon="8.724877">
<ele>4.615732</ele>
<time>2026-06-17T17:58:12.525Z</time>
</trkpt>
<trkpt lat="55.223827" lon="8.724726">
<ele>4.619445</ele>
<time>2026-06-17T17:58:14.574Z</time>
</trkpt>
<trkpt lat="55.223908" lon="8.724416">
<ele>4.627669</ele>
<time>2026-06-17T17:58:19.066Z</time>
</trkpt>
<trkpt lat="55.224010" lon="8.724167">
<ele>4.635063</ele>
<time>2026-06-17T17:58:23.049Z</time>
</trkpt>
<trkpt lat="55.226456" lon="8.719651">
<ele>3.689571</ele>
<time>2026-06-17T17:59:37.626Z</time>
</trkpt>
<trkpt lat="55.227101" lon="8.718428">
<ele>3.388022</ele>
<time>2026-06-17T17:59:57.544Z</time>
</trkpt>
<trkpt lat="55.227154" lon="8.718282">
<ele>3.366633</ele>
<time>2026-06-17T17:59:59.645Z</time>
</trkpt>
<trkpt lat="55.227290" lon="8.717906">
<ele>3.311607</ele>
<time>2026-06-17T18:00:05.089Z</time>
</trkpt>
<trkpt lat="55.227421" lon="8.717453">
<ele>3.248836</ele>
<time>2026-06-17T18:00:11.344Z</time>
</trkpt>
<trkpt lat="55.227566" lon="8.716707">
<ele>3.151433</ele>
<time>2026-06-17T18:00:20.883Z</time>
</trkpt>
<trkpt lat="55.227743" lon="8.715767">
<ele>3.034331</ele>
<time>2026-06-17T18:00:33.143Z</time>
</trkpt>
<trkpt lat="55.227852" lon="8.715238">
<ele>2.986692</ele>
<time>2026-06-17T18:00:40.295Z</time>
</trkpt>
<trkpt lat="55.227895" lon="8.715020">
<ele>2.967155</ele>
<time>2026-06-17T18:00:43.253Z</time>
</trkpt>
<trkpt lat="55.229023" lon="8.715407">
<ele>2.796460</ele>
<time>2026-06-17T18:01:08.170Z</time>
</trkpt>
<trkpt lat="55.229089" lon="8.715436">
<ele>2.786355</ele>
<time>2026-06-17T18:01:09.621Z</time>
</trkpt>
<trkpt lat="55.229991" lon="8.715820">
<ele>2.620455</ele>
<time>2026-06-17T18:01:29.192Z</time>
</trkpt>
<trkpt lat="55.230055" lon="8.715848">
<ele>2.608547</ele>
<time>2026-06-17T18:01:30.548Z</time>
</trkpt>
<trkpt lat="55.231515" lon="8.716508">
<ele>2.710284</ele>
<time>2026-06-17T18:02:03.785Z</time>
</trkpt>
<trkpt lat="55.232191" lon="8.716896">
<ele>2.990313</ele>
<time>2026-06-17T18:02:21.125Z</time>
</trkpt>
<trkpt lat="55.232866" lon="8.717383">
<ele>3.359516</ele>
<time>2026-06-17T18:02:39.903Z</time>
</trkpt>
<trkpt lat="55.234027" lon="8.718319">
<ele>4.218643</ele>
<time>2026-06-17T18:03:11.702Z</time>
</trkpt>
<trkpt lat="55.234090" lon="8.717990">
<ele>4.351700</ele>
<time>2026-06-17T18:03:16.498Z</time>
</trkpt>
<trkpt lat="55.234145" lon="8.717685">
<ele>4.394696</ele>
<time>2026-06-17T18:03:20.888Z</time>
</trkpt>
<trkpt lat="55.234216" lon="8.717291">
<ele>4.430624</ele>
<time>2026-06-17T18:03:26.560Z</time>
</trkpt>
<trkpt lat="55.234294" lon="8.716859">
<ele>4.470024</ele>
<time>2026-06-17T18:03:32.654Z</time>
</trkpt>
<trkpt lat="55.234336" lon="8.716629">
<ele>4.491023</ele>
<time>2026-06-17T18:03:35.797Z</time>
</trkpt>
<trkpt lat="55.234381" lon="8.716382">
<ele>4.513569</ele>
<time>2026-06-17T18:03:39.037Z</time>
</trkpt>
<trkpt lat="55.234434" lon="8.716093">
<ele>4.539965</ele>
<time>2026-06-17T18:03:42.729Z</time>
</trkpt>
<trkpt lat="55.234450" lon="8.716005">
<ele>4.547996</ele>
<time>2026-06-17T18:03:43.886Z</time>
</trkpt>
<trkpt lat="55.234609" lon="8.715110">
<ele>4.629504</ele>
<time>2026-06-17T18:03:56.068Z</time>
</trkpt>
<trkpt lat="55.234634" lon="8.714974">
<ele>4.641928</ele>
<time>2026-06-17T18:03:57.975Z</time>
</trkpt>
<trkpt lat="55.234760" lon="8.714267">
<ele>4.433722</ele>
<time>2026-06-17T18:04:07.426Z</time>
</trkpt>
<trkpt lat="55.234783" lon="8.714134">
<ele>4.391567</ele>
<time>2026-06-17T18:04:09.159Z</time>
</trkpt>
<trkpt lat="55.234986" lon="8.713103">
<ele>4.060730</ele>
<time>2026-06-17T18:04:21.627Z</time>
</trkpt>
<trkpt lat="55.235034" lon="8.712897">
<ele>3.993231</ele>
<time>2026-06-17T18:04:24.099Z</time>
</trkpt>
<trkpt lat="55.235135" lon="8.712447">
<ele>3.846547</ele>
<time>2026-06-17T18:04:29.601Z</time>
</trkpt>
<trkpt lat="55.235162" lon="8.712329">
<ele>3.807982</ele>
<time>2026-06-17T18:04:31.065Z</time>
</trkpt>
<trkpt lat="55.235288" lon="8.711707">
<ele>3.571058</ele>
<time>2026-06-17T18:04:38.428Z</time>
</trkpt>
<trkpt lat="55.235451" lon="8.710669">
<ele>3.096622</ele>
<time>2026-06-17T18:04:50.117Z</time>
</trkpt>
<trkpt lat="55.235523" lon="8.710382">
<ele>2.958453</ele>
<time>2026-06-17T18:04:53.539Z</time>
</trkpt>
<trkpt lat="55.235795" lon="8.709698">
<ele>2.590983</ele>
<time>2026-06-17T18:05:03.012Z</time>
</trkpt>
<trkpt lat="55.235880" lon="8.709273">
<ele>2.392517</ele>
<time>2026-06-17T18:05:08.337Z</time>
</trkpt>
<trkpt lat="55.235971" lon="8.708055">
<ele>2.109536</ele>
<time>2026-06-17T18:05:23.131Z</time>
</trkpt>
<trkpt lat="55.236031" lon="8.707127">
<ele>1.935497</ele>
<time>2026-06-17T18:05:34.424Z</time>
</trkpt>
<trkpt lat="55.236104" lon="8.705865">
<ele>1.702043</ele>
<time>2026-06-17T18:05:49.727Z</time>
</trkpt>
<trkpt lat="55.236151" lon="8.702711">
<ele>1.258428</ele>
<time>2026-06-17T18:06:28.090Z</time>
</trkpt>
<trkpt lat="55.236418" lon="8.701223">
<ele>1.034043</ele>
<time>2026-06-17T18:06:47.619Z</time>
</trkpt>
<trkpt lat="55.236549" lon="8.700682">
<ele>0.949499</ele>
<time>2026-06-17T18:06:54.736Z</time>
</trkpt>
<trkpt lat="55.236611" lon="8.700435">
<ele>0.910680</ele>
<time>2026-06-17T18:06:57.965Z</time>
</trkpt>
<trkpt lat="55.236906" lon="8.699093">
<ele>0.648911</ele>
<time>2026-06-17T18:07:14.882Z</time>
</trkpt>
<trkpt lat="55.237005" lon="8.698346">
<ele>0.483636</ele>
<time>2026-06-17T18:07:23.710Z</time>
</trkpt>
<trkpt lat="55.237253" lon="8.695887">
<ele>-0.012266</ele>
<time>2026-06-17T18:07:53.870Z</time>
</trkpt>
<trkpt lat="55.237328" lon="8.695640">
<ele>-0.059066</ele>
<time>2026-06-17T18:07:57.304Z</time>
</trkpt>
<trkpt lat="55.237459" lon="8.695436">
<ele>-0.110450</ele>
<time>2026-06-17T18:08:01.059Z</time>
</trkpt>
<trkpt lat="55.237592" lon="8.695305">
<ele>-0.155191</ele>
<time>2026-06-17T18:08:04.303Z</time>
</trkpt>
<trkpt lat="55.237714" lon="8.695218">
<ele>-0.193820</ele>
<time>2026-06-17T18:08:07.093Z</time>
</trkpt>
<trkpt lat="55.237879" lon="8.695099">
<ele>-0.246148</ele>
<time>2026-06-17T18:08:10.856Z</time>
</trkpt>
<trkpt lat="55.238052" lon="8.694753">
<ele>-0.323109</ele>
<time>2026-06-17T18:08:16.365Z</time>
</trkpt>
<trkpt lat="55.238104" lon="8.694499">
<ele>-0.368241</ele>
<time>2026-06-17T18:08:19.628Z</time>
</trkpt>
<trkpt lat="55.238271" lon="8.693164">
<ele>-0.433690</ele>
<time>2026-06-17T18:08:36.135Z</time>
</trkpt>
<trkpt lat="55.238755" lon="8.689464">
<ele>-0.320242</ele>
<time>2026-06-17T18:09:30.630Z</time>
</trkpt>
<trkpt lat="55.238817" lon="8.688681">
<ele>-0.244654</ele>
<time>2026-06-17T18:09:42.233Z</time>
</trkpt>
<trkpt lat="55.238807" lon="8.688284">
<ele>-0.206657</ele>
<time>2026-06-17T18:09:48.025Z</time>
</trkpt>
<trkpt lat="55.238748" lon="8.687907">
<ele>-0.194514</ele>
<time>2026-06-17T18:09:53.709Z</time>
</trkpt>
<trkpt lat="55.235368" lon="8.671350">
<ele>-0.055228</ele>
<time>2026-06-17T18:14:01.572Z</time>
</trkpt>
<trkpt lat="55.235308" lon="8.671107">
<ele>-0.049570</ele>
<time>2026-06-17T18:14:05.089Z</time>
</trkpt>
<trkpt lat="55.235324" lon="8.671088">
<ele>-0.048846</ele>
<time>2026-06-17T18:14:05.537Z</time>
</trkpt>
<trkpt lat="55.235369" lon="8.671039">
<ele>-0.046861</ele>
<time>2026-06-17T18:14:06.779Z</time>
</trkpt>
<trkpt lat="55.237116" lon="8.669237">
<ele>0.125094</ele>
<time>2026-06-17T18:14:52.810Z</time>
</trkpt>
<trkpt lat="55.237792" lon="8.668629">
<ele>0.126147</ele>
<time>2026-06-17T18:15:09.541Z</time>
</trkpt>
<trkpt lat="55.238342" lon="8.668278">
<ele>0.113096</ele>
<time>2026-06-17T18:15:22.422Z</time>
</trkpt>
<trkpt lat="55.238743" lon="8.668100">
<ele>0.103872</ele>
<time>2026-06-17T18:15:31.597Z</time>
</trkpt>
<trkpt lat="55.239693" lon="8.667903">
<ele>0.065356</ele>
<time>2026-06-17T18:15:52.840Z</time>
</trkpt>
<trkpt lat="55.240903" lon="8.667737">
<ele>0.009178</ele>
<time>2026-06-17T18:16:19.625Z</time>
</trkpt>
<trkpt lat="55.242789" lon="8.667466">
<ele>-0.082876</ele>
<time>2026-06-17T18:17:01.115Z</time>
</trkpt>
<trkpt lat="55.244563" lon="8.667366">
<ele>-0.100000</ele>
<time>2026-06-17T18:17:40.649Z</time>
</trkpt>
<trkpt lat="55.244882" lon="8.667346">
<ele>-0.100000</ele>
<time>2026-06-17T18:17:47.924Z</time>
</trkpt>
<trkpt lat="55.248145" lon="8.667154">
<ele>-0.050599</ele>
<time>2026-06-17T18:19:00.338Z</time>
</trkpt>
<trkpt lat="55.250664" lon="8.666999">
<ele>0.257084</ele>
<time>2026-06-17T18:19:58.145Z</time>
</trkpt>
<trkpt lat="55.252233" lon="8.666900">
<ele>0.349018</ele>
<time>2026-06-17T18:20:33.502Z</time>
</trkpt>
<trkpt lat="55.252274" lon="8.666898">
<ele>0.348803</ele>
<time>2026-06-17T18:20:34.405Z</time>
</trkpt>
<trkpt lat="55.256554" lon="8.666645">
<ele>0.308110</ele>
<time>2026-06-17T18:22:08.950Z</time>
</trkpt>
<trkpt lat="55.256754" lon="8.666681">
<ele>0.304535</ele>
<time>2026-06-17T18:22:13.410Z</time>
</trkpt>
<trkpt lat="55.257381" lon="8.666990">
<ele>0.343660</ele>
<time>2026-06-17T18:22:27.903Z</time>
</trkpt>
<trkpt lat="55.257572" lon="8.667019">
<ele>0.359346</ele>
<time>2026-06-17T18:22:32.214Z</time>
</trkpt>
<trkpt lat="55.257775" lon="8.666987">
<ele>0.376022</ele>
<time>2026-06-17T18:22:36.800Z</time>
</trkpt>
<trkpt lat="55.257971" lon="8.666892">
<ele>0.392659</ele>
<time>2026-06-17T18:22:41.419Z</time>
</trkpt>
<trkpt lat="55.259758" lon="8.665842">
<ele>0.671133</ele>
<time>2026-06-17T18:23:24.791Z</time>
</trkpt>
<trkpt lat="55.259783" lon="8.665826">
<ele>0.676080</ele>
<time>2026-06-17T18:23:25.405Z</time>
</trkpt>
<trkpt lat="55.261078" lon="8.665099">
<ele>0.834162</ele>
<time>2026-06-17T18:23:56.420Z</time>
</trkpt>
<trkpt lat="55.261429" lon="8.664957">
<ele>0.857476</ele>
<time>2026-06-17T18:24:04.544Z</time>
</trkpt>
<trkpt lat="55.261718" lon="8.664945">
<ele>0.876187</ele>
<time>2026-06-17T18:24:11.004Z</time>
</trkpt>
<trkpt lat="55.263295" lon="8.665112">
<ele>0.832514</ele>
<time>2026-06-17T18:24:45.954Z</time>
</trkpt>
<trkpt lat="55.263483" lon="8.665097">
<ele>0.822035</ele>
<time>2026-06-17T18:24:50.077Z</time>
</trkpt>
<trkpt lat="55.265486" lon="8.664279">
<ele>0.664620</ele>
<time>2026-06-17T18:25:35.122Z</time>
</trkpt>
<trkpt lat="55.265793" lon="8.664105">
<ele>0.632801</ele>
<time>2026-06-17T18:25:42.099Z</time>
</trkpt>
<trkpt lat="55.266010" lon="8.663909">
<ele>0.605512</ele>
<time>2026-06-17T18:25:47.389Z</time>
</trkpt>
<trkpt lat="55.266172" lon="8.663686">
<ele>0.582491</ele>
<time>2026-06-17T18:25:51.871Z</time>
</trkpt>
<trkpt lat="55.266419" lon="8.663266">
<ele>0.544035</ele>
<time>2026-06-17T18:25:59.347Z</time>
</trkpt>
<trkpt lat="55.266764" lon="8.662611">
<ele>0.487206</ele>
<time>2026-06-17T18:26:10.459Z</time>
</trkpt>
<trkpt lat="55.267014" lon="8.662315">
<ele>0.453485</ele>
<time>2026-06-17T18:26:17.108Z</time>
</trkpt>
<trkpt lat="55.267279" lon="8.662130">
<ele>0.455107</ele>
<time>2026-06-17T18:26:23.457Z</time>
</trkpt>
<trkpt lat="55.267391" lon="8.662088">
<ele>0.456401</ele>
<time>2026-06-17T18:26:26.007Z</time>
</trkpt>
<trkpt lat="55.268073" lon="8.661975">
<ele>0.464144</ele>
<time>2026-06-17T18:26:41.267Z</time>
</trkpt>
<trkpt lat="55.268102" lon="8.661972">
<ele>0.464473</ele>
<time>2026-06-17T18:26:41.897Z</time>
</trkpt>
<trkpt lat="55.268145" lon="8.661965">
<ele>0.464961</ele>
<time>2026-06-17T18:26:42.863Z</time>
</trkpt>
<trkpt lat="55.273210" lon="8.661295">
<ele>0.188306</ele>
<time>2026-06-17T18:28:35.046Z</time>
</trkpt>
<trkpt lat="55.273378" lon="8.661307">
<ele>0.159150</ele>
<time>2026-06-17T18:28:38.655Z</time>
</trkpt>
<trkpt lat="55.273702" lon="8.661458">
<ele>0.101021</ele>
<time>2026-06-17T18:28:45.847Z</time>
</trkpt>
<trkpt lat="55.274613" lon="8.662191">
<ele>0.027592</ele>
<time>2026-06-17T18:29:07.297Z</time>
</trkpt>
<trkpt lat="55.274840" lon="8.662339">
<ele>0.031082</ele>
<time>2026-06-17T18:29:12.562Z</time>
</trkpt>
<trkpt lat="55.275075" lon="8.662440">
<ele>0.034570</ele>
<time>2026-06-17T18:29:17.929Z</time>
</trkpt>
<trkpt lat="55.275316" lon="8.662495">
<ele>0.038073</ele>
<time>2026-06-17T18:29:23.428Z</time>
</trkpt>
<trkpt lat="55.275558" lon="8.662502">
<ele>0.041561</ele>
<time>2026-06-17T18:29:29.006Z</time>
</trkpt>
<trkpt lat="55.275799" lon="8.662461">
<ele>0.045051</ele>
<time>2026-06-17T18:29:34.618Z</time>
</trkpt>
<trkpt lat="55.276046" lon="8.662364">
<ele>0.084266</ele>
<time>2026-06-17T18:29:40.504Z</time>
</trkpt>
<trkpt lat="55.276266" lon="8.662260">
<ele>0.128065</ele>
<time>2026-06-17T18:29:45.826Z</time>
</trkpt>
<trkpt lat="55.276530" lon="8.662230">
<ele>0.178923</ele>
<time>2026-06-17T18:29:52.011Z</time>
</trkpt>
<trkpt lat="55.276667" lon="8.662178">
<ele>0.205869</ele>
<time>2026-06-17T18:29:55.285Z</time>
</trkpt>
<trkpt lat="55.277058" lon="8.661883">
<ele>0.287683</ele>
<time>2026-06-17T18:30:05.246Z</time>
</trkpt>
<trkpt lat="55.277250" lon="8.661646">
<ele>0.332803</ele>
<time>2026-06-17T18:30:10.635Z</time>
</trkpt>
<trkpt lat="55.278212" lon="8.660094">
<ele>0.436585</ele>
<time>2026-06-17T18:30:39.496Z</time>
</trkpt>
<trkpt lat="55.278621" lon="8.659508">
<ele>0.460321</ele>
<time>2026-06-17T18:30:51.399Z</time>
</trkpt>
<trkpt lat="55.279069" lon="8.659032">
<ele>0.506978</ele>
<time>2026-06-17T18:31:03.442Z</time>
</trkpt>
<trkpt lat="55.280010" lon="8.658201">
<ele>0.650329</ele>
<time>2026-06-17T18:31:27.724Z</time>
</trkpt>
<trkpt lat="55.280342" lon="8.658023">
<ele>0.697571</ele>
<time>2026-06-17T18:31:35.551Z</time>
</trkpt>
<trkpt lat="55.280586" lon="8.657977">
<ele>0.702974</ele>
<time>2026-06-17T18:31:41.016Z</time>
</trkpt>
<trkpt lat="55.281435" lon="8.658069">
<ele>0.582607</ele>
<time>2026-06-17T18:31:59.494Z</time>
</trkpt>
<trkpt lat="55.283894" lon="8.658430">
<ele>0.247144</ele>
<time>2026-06-17T18:32:52.613Z</time>
</trkpt>
<trkpt lat="55.284184" lon="8.658365">
<ele>0.234821</ele>
<time>2026-06-17T18:32:59.099Z</time>
</trkpt>
<trkpt lat="55.284381" lon="8.658165">
<ele>0.257536</ele>
<time>2026-06-17T18:33:04.188Z</time>
</trkpt>
<trkpt lat="55.284929" lon="8.657309">
<ele>0.330753</ele>
<time>2026-06-17T18:33:20.697Z</time>
</trkpt>
<trkpt lat="55.285123" lon="8.657087">
<ele>0.353868</ele>
<time>2026-06-17T18:33:26.016Z</time>
</trkpt>
<trkpt lat="55.285335" lon="8.656922">
<ele>0.377017</ele>
<time>2026-06-17T18:33:31.377Z</time>
</trkpt>
<trkpt lat="55.285559" lon="8.656817">
<ele>0.400160</ele>
<time>2026-06-17T18:33:36.770Z</time>
</trkpt>
<trkpt lat="55.285782" lon="8.656762">
<ele>0.480892</ele>
<time>2026-06-17T18:33:42.010Z</time>
</trkpt>
<trkpt lat="55.288472" lon="8.656788">
<ele>1.452350</ele>
<time>2026-06-17T18:34:46.304Z</time>
</trkpt>
<trkpt lat="55.291268" lon="8.656838">
<ele>1.836385</ele>
<time>2026-06-17T18:35:49.719Z</time>
</trkpt>
<trkpt lat="55.291440" lon="8.656887">
<ele>1.823266</ele>
<time>2026-06-17T18:35:53.661Z</time>
</trkpt>
<trkpt lat="55.291479" lon="8.656879">
<ele>1.820309</ele>
<time>2026-06-17T18:35:54.551Z</time>
</trkpt>
<trkpt lat="55.291812" lon="8.656631">
<ele>1.793076</ele>
<time>2026-06-17T18:36:02.663Z</time>
</trkpt>
<trkpt lat="55.291935" lon="8.656496">
<ele>1.782155</ele>
<time>2026-06-17T18:36:05.911Z</time>
</trkpt>
<trkpt lat="55.292884" lon="8.655831">
<ele>1.670722</ele>
<time>2026-06-17T18:36:28.026Z</time>
</trkpt>
<trkpt lat="55.293170" lon="8.655726">
<ele>1.605002</ele>
<time>2026-06-17T18:36:34.116Z</time>
</trkpt>
<trkpt lat="55.293377" lon="8.655716">
<ele>1.558424</ele>
<time>2026-06-17T18:36:38.442Z</time>
</trkpt>
<trkpt lat="55.293774" lon="8.655680">
<ele>1.469007</ele>
<time>2026-06-17T18:36:46.755Z</time>
</trkpt>
<trkpt lat="55.294077" lon="8.655729">
<ele>1.400565</ele>
<time>2026-06-17T18:36:53.206Z</time>
</trkpt>
<trkpt lat="55.294124" lon="8.655751">
<ele>1.389624</ele>
<time>2026-06-17T18:36:54.235Z</time>
</trkpt>
<trkpt lat="55.294395" lon="8.655879">
<ele>1.326503</ele>
<time>2026-06-17T18:37:00.244Z</time>
</trkpt>
<trkpt lat="55.295254" lon="8.656449">
<ele>1.293501</ele>
<time>2026-06-17T18:37:21.151Z</time>
</trkpt>
<trkpt lat="55.295817" lon="8.656639">
<ele>1.277539</ele>
<time>2026-06-17T18:37:34.119Z</time>
</trkpt>
<trkpt lat="55.295375" lon="8.660569">
<ele>0.845527</ele>
<time>2026-06-17T18:38:22.415Z</time>
</trkpt>
<trkpt lat="55.295339" lon="8.661087">
<ele>0.921364</ele>
<time>2026-06-17T18:38:29.005Z</time>
</trkpt>
<trkpt lat="55.295290" lon="8.662769">
<ele>1.166121</ele>
<time>2026-06-17T18:38:51.559Z</time>
</trkpt>
<trkpt lat="55.295319" lon="8.663827">
<ele>1.371252</ele>
<time>2026-06-17T18:39:06.237Z</time>
</trkpt>
<trkpt lat="55.295470" lon="8.667010">
<ele>2.254528</ele>
<time>2026-06-17T18:39:50.428Z</time>
</trkpt>
<trkpt lat="55.295451" lon="8.667427">
<ele>2.320328</ele>
<time>2026-06-17T18:39:56.317Z</time>
</trkpt>
<trkpt lat="55.295412" lon="8.667676">
<ele>2.360948</ele>
<time>2026-06-17T18:39:59.953Z</time>
</trkpt>
<trkpt lat="55.295344" lon="8.667907">
<ele>2.401851</ele>
<time>2026-06-17T18:40:03.611Z</time>
</trkpt>
<trkpt lat="55.295124" lon="8.668354">
<ele>2.494788</ele>
<time>2026-06-17T18:40:11.495Z</time>
</trkpt>
<trkpt lat="55.294802" lon="8.668655">
<ele>2.595559</ele>
<time>2026-06-17T18:40:19.601Z</time>
</trkpt>
<trkpt lat="55.294526" lon="8.668933">
<ele>2.683456</ele>
<time>2026-06-17T18:40:26.432Z</time>
</trkpt>
<trkpt lat="55.294269" lon="8.669425">
<ele>2.708216</ele>
<time>2026-06-17T18:40:34.849Z</time>
</trkpt>
<trkpt lat="55.294188" lon="8.669628">
<ele>2.714998</ele>
<time>2026-06-17T18:40:38.009Z</time>
</trkpt>
<trkpt lat="55.294020" lon="8.669948">
<ele>2.726907</ele>
<time>2026-06-17T18:40:43.521Z</time>
</trkpt>
<trkpt lat="55.293929" lon="8.670056">
<ele>2.732185</ele>
<time>2026-06-17T18:40:45.923Z</time>
</trkpt>
<trkpt lat="55.293809" lon="8.670123">
<ele>2.738236</ele>
<time>2026-06-17T18:40:48.669Z</time>
</trkpt>
<trkpt lat="55.293292" lon="8.670246">
<ele>2.763307</ele>
<time>2026-06-17T18:41:00.246Z</time>
</trkpt>
<trkpt lat="55.293214" lon="8.670264">
<ele>2.767088</ele>
<time>2026-06-17T18:41:02.089Z</time>
</trkpt>
<trkpt lat="55.293179" lon="8.670271">
<ele>2.768781</ele>
<time>2026-06-17T18:41:02.891Z</time>
</trkpt>
<trkpt lat="55.292385" lon="8.670587">
<ele>2.877783</ele>
<time>2026-06-17T18:41:22.422Z</time>
</trkpt>
<trkpt lat="55.292038" lon="8.670862">
<ele>2.938469</ele>
<time>2026-06-17T18:41:30.870Z</time>
</trkpt>
<trkpt lat="55.291964" lon="8.671007">
<ele>2.956143</ele>
<time>2026-06-17T18:41:33.254Z</time>
</trkpt>
<trkpt lat="55.291936" lon="8.671103">
<ele>2.965934</ele>
<time>2026-06-17T18:41:34.573Z</time>
</trkpt>
<trkpt lat="55.291914" lon="8.671373">
<ele>2.990690</ele>
<time>2026-06-17T18:41:37.894Z</time>
</trkpt>
<trkpt lat="55.291907" lon="8.672501">
<ele>3.060953</ele>
<time>2026-06-17T18:41:52.847Z</time>
</trkpt>
<trkpt lat="55.291903" lon="8.673212">
<ele>3.053020</ele>
<time>2026-06-17T18:42:02.236Z</time>
</trkpt>
<trkpt lat="55.291870" lon="8.673850">
<ele>3.045872</ele>
<time>2026-06-17T18:42:10.271Z</time>
</trkpt>
<trkpt lat="55.291750" lon="8.674568">
<ele>3.037523</ele>
<time>2026-06-17T18:42:19.115Z</time>
</trkpt>
<trkpt lat="55.291713" lon="8.675002">
<ele>3.032627</ele>
<time>2026-06-17T18:42:24.608Z</time>
</trkpt>
<trkpt lat="55.291651" lon="8.675994">
<ele>3.123071</ele>
<time>2026-06-17T18:42:37.405Z</time>
</trkpt>
<trkpt lat="55.291614" lon="8.676401">
<ele>3.178875</ele>
<time>2026-06-17T18:42:42.485Z</time>
</trkpt>
<trkpt lat="55.291559" lon="8.676915">
<ele>3.249687</ele>
<time>2026-06-17T18:42:49.055Z</time>
</trkpt>
<trkpt lat="55.291366" lon="8.677544">
<ele>3.346430</ele>
<time>2026-06-17T18:42:58.622Z</time>
</trkpt>
<trkpt lat="55.291072" lon="8.678236">
<ele>3.467852</ele>
<time>2026-06-17T18:43:11.255Z</time>
</trkpt>
<trkpt lat="55.290991" lon="8.678428">
<ele>3.523014</ele>
<time>2026-06-17T18:43:14.779Z</time>
</trkpt>
<trkpt lat="55.290717" lon="8.679163">
<ele>3.725817</ele>
<time>2026-06-17T18:43:26.633Z</time>
</trkpt>
<trkpt lat="55.290359" lon="8.680153">
<ele>3.996551</ele>
<time>2026-06-17T18:43:42.268Z</time>
</trkpt>
<trkpt lat="55.290676" lon="8.680228">
<ele>4.126229</ele>
<time>2026-06-17T18:43:49.899Z</time>
</trkpt>
<trkpt lat="55.291173" lon="8.680387">
<ele>4.325279</ele>
<time>2026-06-17T18:44:01.538Z</time>
</trkpt>
<trkpt lat="55.291511" lon="8.680620">
<ele>4.466639</ele>
<time>2026-06-17T18:44:09.959Z</time>
</trkpt>
<trkpt lat="55.291764" lon="8.680811">
<ele>4.573849</ele>
<time>2026-06-17T18:44:16.658Z</time>
</trkpt>
<trkpt lat="55.291791" lon="8.680832">
<ele>4.585345</ele>
<time>2026-06-17T18:44:17.407Z</time>
</trkpt>
<trkpt lat="55.291944" lon="8.680979">
<ele>4.653239</ele>
<time>2026-06-17T18:44:21.752Z</time>
</trkpt>
<trkpt lat="55.292135" lon="8.681180">
<ele>4.739924</ele>
<time>2026-06-17T18:44:27.236Z</time>
</trkpt>
<trkpt lat="55.292188" lon="8.681241">
<ele>4.764594</ele>
<time>2026-06-17T18:44:28.804Z</time>
</trkpt>
<trkpt lat="55.292338" lon="8.681418">
<ele>4.834947</ele>
<time>2026-06-17T18:44:33.176Z</time>
</trkpt>
<trkpt lat="55.292637" lon="8.681778">
<ele>4.931411</ele>
<time>2026-06-17T18:44:41.618Z</time>
</trkpt>
<trkpt lat="55.292885" lon="8.682061">
<ele>4.989234</ele>
<time>2026-06-17T18:44:48.529Z</time>
</trkpt>
<trkpt lat="55.293012" lon="8.682206">
<ele>5.018850</ele>
<time>2026-06-17T18:44:52.095Z</time>
</trkpt>
<trkpt lat="55.293192" lon="8.682411">
<ele>5.060794</ele>
<time>2026-06-17T18:44:57.176Z</time>
</trkpt>
<trkpt lat="55.293980" lon="8.683336">
<ele>5.232258</ele>
<time>2026-06-17T18:45:18.538Z</time>
</trkpt>
<trkpt lat="55.294442" lon="8.683859">
<ele>5.155914</ele>
<time>2026-06-17T18:45:30.441Z</time>
</trkpt>
<trkpt lat="55.294530" lon="8.683967">
<ele>5.141003</ele>
<time>2026-06-17T18:45:32.771Z</time>
</trkpt>
<trkpt lat="55.294789" lon="8.684267">
<ele>5.097910</ele>
<time>2026-06-17T18:45:39.521Z</time>
</trkpt>
<trkpt lat="55.295732" lon="8.685341">
<ele>4.865738</ele>
<time>2026-06-17T18:46:03.993Z</time>
</trkpt>
<trkpt lat="55.295891" lon="8.685483">
<ele>4.800329</ele>
<time>2026-06-17T18:46:07.760Z</time>
</trkpt>
<trkpt lat="55.296223" lon="8.685676">
<ele>4.672090</ele>
<time>2026-06-17T18:46:14.900Z</time>
</trkpt>
<trkpt lat="55.297047" lon="8.685905">
<ele>4.366172</ele>
<time>2026-06-17T18:46:32.113Z</time>
</trkpt>
<trkpt lat="55.297302" lon="8.685970">
<ele>4.275382</ele>
<time>2026-06-17T18:46:37.480Z</time>
</trkpt>
<trkpt lat="55.297769" lon="8.686098">
<ele>4.113315</ele>
<time>2026-06-17T18:46:47.205Z</time>
</trkpt>
<trkpt lat="55.297939" lon="8.686137">
<ele>4.054529</ele>
<time>2026-06-17T18:46:50.780Z</time>
</trkpt>
<trkpt lat="55.298105" lon="8.686186">
<ele>3.996812</ele>
<time>2026-06-17T18:46:54.308Z</time>
</trkpt>
<trkpt lat="55.299848" lon="8.686645">
<ele>3.408305</ele>
<time>2026-06-17T18:47:31.955Z</time>
</trkpt>
<trkpt lat="55.300586" lon="8.686844">
<ele>3.164974</ele>
<time>2026-06-17T18:47:47.686Z</time>
</trkpt>
<trkpt lat="55.300734" lon="8.686903">
<ele>3.114983</ele>
<time>2026-06-17T18:47:50.819Z</time>
</trkpt>
<trkpt lat="55.300962" lon="8.687092">
<ele>3.028539</ele>
<time>2026-06-17T18:47:55.966Z</time>
</trkpt>
<trkpt lat="55.301771" lon="8.688305">
<ele>2.663843</ele>
<time>2026-06-17T18:48:17.508Z</time>
</trkpt>
<trkpt lat="55.302858" lon="8.689594">
<ele>2.714025</ele>
<time>2026-06-17T18:48:47.594Z</time>
</trkpt>
<trkpt lat="55.303135" lon="8.689926">
<ele>2.793983</ele>
<time>2026-06-17T18:48:55.702Z</time>
</trkpt>
<trkpt lat="55.303150" lon="8.689943">
<ele>2.798239</ele>
<time>2026-06-17T18:48:56.124Z</time>
</trkpt>
<trkpt lat="55.303648" lon="8.690496">
<ele>2.938283</ele>
<time>2026-06-17T18:49:10.076Z</time>
</trkpt>
<trkpt lat="55.303862" lon="8.690601">
<ele>2.963907</ele>
<time>2026-06-17T18:49:15.309Z</time>
</trkpt>
<trkpt lat="55.304356" lon="8.690715">
<ele>3.021368</ele>
<time>2026-06-17T18:49:26.103Z</time>
</trkpt>
<trkpt lat="55.304494" lon="8.690823">
<ele>3.038791</ele>
<time>2026-06-17T18:49:29.456Z</time>
</trkpt>
<trkpt lat="55.304555" lon="8.691005">
<ele>3.052656</ele>
<time>2026-06-17T18:49:32.135Z</time>
</trkpt>
<trkpt lat="55.304578" lon="8.691337">
<ele>3.074611</ele>
<time>2026-06-17T18:49:36.441Z</time>
</trkpt>
<trkpt lat="55.304583" lon="8.691408">
<ele>3.079308</ele>
<time>2026-06-17T18:49:37.411Z</time>
</trkpt>
<trkpt lat="55.304611" lon="8.691890">
<ele>3.111113</ele>
<time>2026-06-17T18:49:43.733Z</time>
</trkpt>
<trkpt lat="55.304613" lon="8.692292">
<ele>3.137504</ele>
<time>2026-06-17T18:49:49.099Z</time>
</trkpt>
<trkpt lat="55.304589" lon="8.692545">
<ele>3.155345</ele>
<time>2026-06-17T18:49:52.506Z</time>
</trkpt>
<trkpt lat="55.304324" lon="8.694007">
<ele>3.267256</ele>
<time>2026-06-17T18:50:12.527Z</time>
</trkpt>
<trkpt lat="55.304158" lon="8.695316">
<ele>3.365072</ele>
<time>2026-06-17T18:50:29.867Z</time>
</trkpt>
<trkpt lat="55.304099" lon="8.696068">
<ele>3.414428</ele>
<time>2026-06-17T18:50:39.389Z</time>
</trkpt>
<trkpt lat="55.304034" lon="8.697275">
<ele>3.490953</ele>
<time>2026-06-17T18:50:54.714Z</time>
</trkpt>
<trkpt lat="55.303967" lon="8.697253">
<ele>3.498511</ele>
<time>2026-06-17T18:50:56.290Z</time>
</trkpt>
<trkpt lat="55.303917" lon="8.697892">
<ele>3.539223</ele>
<time>2026-06-17T18:51:04.985Z</time>
</trkpt>
<trkpt lat="55.303821" lon="8.699117">
<ele>3.601531</ele>
<time>2026-06-17T18:51:21.174Z</time>
</trkpt>
<trkpt lat="55.303855" lon="8.699735">
<ele>3.626049</ele>
<time>2026-06-17T18:51:29.191Z</time>
</trkpt>
<trkpt lat="55.304069" lon="8.700196">
<ele>3.649539</ele>
<time>2026-06-17T18:51:36.827Z</time>
</trkpt>
<trkpt lat="55.304670" lon="8.701057">
<ele>3.699965</ele>
<time>2026-06-17T18:51:53.771Z</time>
</trkpt>
<trkpt lat="55.305051" lon="8.701589">
<ele>3.699612</ele>
<time>2026-06-17T18:52:04.627Z</time>
</trkpt>
<trkpt lat="55.305402" lon="8.701966">
<ele>3.699313</ele>
<time>2026-06-17T18:52:13.985Z</time>
</trkpt>
<trkpt lat="55.306387" lon="8.702728">
<ele>3.556259</ele>
<time>2026-06-17T18:52:38.065Z</time>
</trkpt>
<trkpt lat="55.306620" lon="8.702823">
<ele>3.404024</ele>
<time>2026-06-17T18:52:43.070Z</time>
</trkpt>
<trkpt lat="55.306991" lon="8.703167">
<ele>3.137034</ele>
<time>2026-06-17T18:52:51.442Z</time>
</trkpt>
<trkpt lat="55.307838" lon="8.703973">
<ele>2.537759</ele>
<time>2026-06-17T18:53:10.125Z</time>
</trkpt>
<trkpt lat="55.308049" lon="8.704146">
<ele>2.457744</ele>
<time>2026-06-17T18:53:14.703Z</time>
</trkpt>
<trkpt lat="55.308325" lon="8.704304">
<ele>2.357992</ele>
<time>2026-06-17T18:53:20.546Z</time>
</trkpt>
<trkpt lat="55.308835" lon="8.704675">
<ele>2.168307</ele>
<time>2026-06-17T18:53:32.250Z</time>
</trkpt>
<trkpt lat="55.309047" lon="8.704898">
<ele>2.083397</ele>
<time>2026-06-17T18:53:37.792Z</time>
</trkpt>
<trkpt lat="55.309264" lon="8.704996">
<ele>2.006403</ele>
<time>2026-06-17T18:53:43.030Z</time>
</trkpt>
<trkpt lat="55.311099" lon="8.705315">
<ele>1.827861</ele>
<time>2026-06-17T18:54:23.391Z</time>
</trkpt>
<trkpt lat="55.311459" lon="8.705392">
<ele>1.838416</ele>
<time>2026-06-17T18:54:31.329Z</time>
</trkpt>
<trkpt lat="55.311734" lon="8.705555">
<ele>1.868627</ele>
<time>2026-06-17T18:54:37.827Z</time>
</trkpt>
<trkpt lat="55.311997" lon="8.705763">
<ele>1.898650</ele>
<time>2026-06-17T18:54:44.379Z</time>
</trkpt>
<trkpt lat="55.312393" lon="8.706184">
<ele>1.946829</ele>
<time>2026-06-17T18:54:54.996Z</time>
</trkpt>
<trkpt lat="55.312709" lon="8.706654">
<ele>1.989925</ele>
<time>2026-06-17T18:55:04.749Z</time>
</trkpt>
<trkpt lat="55.313075" lon="8.707388">
<ele>1.993014</ele>
<time>2026-06-17T18:55:17.454Z</time>
</trkpt>
<trkpt lat="55.313260" lon="8.707865">
<ele>1.983881</ele>
<time>2026-06-17T18:55:24.658Z</time>
</trkpt>
<trkpt lat="55.313389" lon="8.708282">
<ele>1.976372</ele>
<time>2026-06-17T18:55:30.458Z</time>
</trkpt>
<trkpt lat="55.314069" lon="8.710875">
<ele>2.034498</ele>
<time>2026-06-17T18:56:05.667Z</time>
</trkpt>
<trkpt lat="55.314105" lon="8.711021">
<ele>2.043121</ele>
<time>2026-06-17T18:56:07.762Z</time>
</trkpt>
<trkpt lat="55.314480" lon="8.712390">
<ele>2.125454</ele>
<time>2026-06-17T18:56:28.278Z</time>
</trkpt>
<trkpt lat="55.314644" lon="8.713350">
<ele>2.212183</ele>
<time>2026-06-17T18:56:41.851Z</time>
</trkpt>
<trkpt lat="55.314649" lon="8.713683">
<ele>2.241080</ele>
<time>2026-06-17T18:56:46.263Z</time>
</trkpt>
<trkpt lat="55.315238" lon="8.718034">
<ele>2.540882</ele>
<time>2026-06-17T18:57:42.956Z</time>
</trkpt>
<trkpt lat="55.315361" lon="8.718591">
<ele>2.589674</ele>
<time>2026-06-17T18:57:50.663Z</time>
</trkpt>
<trkpt lat="55.315374" lon="8.718618">
<ele>2.599312</ele>
<time>2026-06-17T18:57:51.196Z</time>
</trkpt>
<trkpt lat="55.315412" lon="8.718604">
<ele>2.617904</ele>
<time>2026-06-17T18:57:52.144Z</time>
</trkpt>
<trkpt lat="55.315466" lon="8.718907">
<ele>2.704427</ele>
<time>2026-06-17T18:57:56.763Z</time>
</trkpt>
<trkpt lat="55.315511" lon="8.719127">
<ele>2.768133</ele>
<time>2026-06-17T18:58:00.237Z</time>
</trkpt>
<trkpt lat="55.315599" lon="8.719588">
<ele>2.900636</ele>
<time>2026-06-17T18:58:07.411Z</time>
</trkpt>
<trkpt lat="55.315623" lon="8.719715">
<ele>2.937102</ele>
<time>2026-06-17T18:58:09.217Z</time>
</trkpt>
<trkpt lat="55.315794" lon="8.720595">
<ele>3.190498</ele>
<time>2026-06-17T18:58:22.789Z</time>
</trkpt>
<trkpt lat="55.315838" lon="8.720821">
<ele>3.255588</ele>
<time>2026-06-17T18:58:26.074Z</time>
</trkpt>
<trkpt lat="55.315915" lon="8.721217">
<ele>3.369624</ele>
<time>2026-06-17T18:58:31.698Z</time>
</trkpt>
<trkpt lat="55.316043" lon="8.721897">
<ele>3.451183</ele>
<time>2026-06-17T18:58:42.176Z</time>
</trkpt>
<trkpt lat="55.316139" lon="8.722368">
<ele>3.472647</ele>
<time>2026-06-17T18:58:49.243Z</time>
</trkpt>
<trkpt lat="55.316177" lon="8.722564">
<ele>3.481530</ele>
<time>2026-06-17T18:58:51.971Z</time>
</trkpt>
<trkpt lat="55.316232" lon="8.722879">
<ele>3.495667</ele>
<time>2026-06-17T18:58:56.321Z</time>
</trkpt>
<trkpt lat="55.316318" lon="8.723334">
<ele>3.516236</ele>
<time>2026-06-17T18:59:02.664Z</time>
</trkpt>
<trkpt lat="55.316404" lon="8.723837">
<ele>3.538769</ele>
<time>2026-06-17T18:59:09.555Z</time>
</trkpt>
<trkpt lat="55.316459" lon="8.724324">
<ele>3.560070</ele>
<time>2026-06-17T18:59:15.818Z</time>
</trkpt>
<trkpt lat="55.316513" lon="8.725532">
<ele>3.485994</ele>
<time>2026-06-17T18:59:31.079Z</time>
</trkpt>
<trkpt lat="55.316516" lon="8.725598">
<ele>3.481133</ele>
<time>2026-06-17T18:59:31.961Z</time>
</trkpt>
<trkpt lat="55.316554" lon="8.726650">
<ele>3.403747</ele>
<time>2026-06-17T18:59:45.341Z</time>
</trkpt>
<trkpt lat="55.316573" lon="8.727085">
<ele>3.371718</ele>
<time>2026-06-17T18:59:50.960Z</time>
</trkpt>
<trkpt lat="55.316579" lon="8.727252">
<ele>3.359433</ele>
<time>2026-06-17T18:59:53.128Z</time>
</trkpt>
<trkpt lat="55.316610" lon="8.728656">
<ele>3.449272</ele>
<time>2026-06-17T19:00:12.235Z</time>
</trkpt>
<trkpt lat="55.316550" lon="8.729297">
<ele>3.520759</ele>
<time>2026-06-17T19:00:21.462Z</time>
</trkpt>
<trkpt lat="55.316394" lon="8.730388">
<ele>3.644551</ele>
<time>2026-06-17T19:00:36.933Z</time>
</trkpt>
<trkpt lat="55.316206" lon="8.731669">
<ele>3.764546</ele>
<time>2026-06-17T19:00:54.481Z</time>
</trkpt>
<trkpt lat="55.315991" lon="8.733124">
<ele>3.891066</ele>
<time>2026-06-17T19:01:14.600Z</time>
</trkpt>
<trkpt lat="55.315770" lon="8.734653">
<ele>4.128442</ele>
<time>2026-06-17T19:01:36.494Z</time>
</trkpt>
<trkpt lat="55.315716" lon="8.735026">
<ele>4.205145</ele>
<time>2026-06-17T19:01:42.044Z</time>
</trkpt>
<trkpt lat="55.315638" lon="8.735571">
<ele>4.317140</ele>
<time>2026-06-17T19:01:49.865Z</time>
</trkpt>
<trkpt lat="55.315609" lon="8.735775">
<ele>4.359045</ele>
<time>2026-06-17T19:01:52.789Z</time>
</trkpt>
<trkpt lat="55.315598" lon="8.735857">
<ele>4.375835</ele>
<time>2026-06-17T19:01:53.972Z</time>
</trkpt>
<trkpt lat="55.315582" lon="8.735969">
<ele>4.398848</ele>
<time>2026-06-17T19:01:55.581Z</time>
</trkpt>
<trkpt lat="55.315536" lon="8.736292">
<ele>4.465204</ele>
<time>2026-06-17T19:02:00.196Z</time>
</trkpt>
<trkpt lat="55.315516" lon="8.736434">
<ele>4.494357</ele>
<time>2026-06-17T19:02:02.255Z</time>
</trkpt>
<trkpt lat="55.315466" lon="8.736783">
<ele>4.566080</ele>
<time>2026-06-17T19:02:07.363Z</time>
</trkpt>
<trkpt lat="55.315449" lon="8.736906">
<ele>4.582117</ele>
<time>2026-06-17T19:02:09.217Z</time>
</trkpt>
<trkpt lat="55.315393" lon="8.737300">
<ele>4.610037</ele>
<time>2026-06-17T19:02:15.089Z</time>
</trkpt>
<trkpt lat="55.315356" lon="8.737633">
<ele>4.633363</ele>
<time>2026-06-17T19:02:19.818Z</time>
</trkpt>
<trkpt lat="55.315308" lon="8.738004">
<ele>4.659520</ele>
<time>2026-06-17T19:02:24.945Z</time>
</trkpt>
<trkpt lat="55.315189" lon="8.738946">
<ele>4.725859</ele>
<time>2026-06-17T19:02:37.089Z</time>
</trkpt>
<trkpt lat="55.315079" lon="8.739840">
<ele>4.788743</ele>
<time>2026-06-17T19:02:49.585Z</time>
</trkpt>
<trkpt lat="55.315037" lon="8.740176">
<ele>4.820798</ele>
<time>2026-06-17T19:02:54.411Z</time>
</trkpt>
<trkpt lat="55.315015" lon="8.740346">
<ele>4.838438</ele>
<time>2026-06-17T19:02:56.787Z</time>
</trkpt>
<trkpt lat="55.315000" lon="8.740478">
<ele>4.852057</ele>
<time>2026-06-17T19:02:58.549Z</time>
</trkpt>
<trkpt lat="55.314958" lon="8.740829">
<ele>4.888349</ele>
<time>2026-06-17T19:03:03.110Z</time>
</trkpt>
<trkpt lat="55.314900" lon="8.741296">
<ele>4.936713</ele>
<time>2026-06-17T19:03:09.375Z</time>
</trkpt>
<trkpt lat="55.314840" lon="8.741771">
<ele>4.985944</ele>
<time>2026-06-17T19:03:16.063Z</time>
</trkpt>
<trkpt lat="55.314839" lon="8.741783">
<ele>4.987171</ele>
<time>2026-06-17T19:03:16.232Z</time>
</trkpt>
<trkpt lat="55.314821" lon="8.741921">
<ele>5.001496</ele>
<time>2026-06-17T19:03:18.237Z</time>
</trkpt>
<trkpt lat="55.314737" lon="8.742594">
<ele>5.071211</ele>
<time>2026-06-17T19:03:28.031Z</time>
</trkpt>
<trkpt lat="55.314676" lon="8.743086">
<ele>5.110306</ele>
<time>2026-06-17T19:03:35.211Z</time>
</trkpt>
<trkpt lat="55.314663" lon="8.743193">
<ele>5.104501</ele>
<time>2026-06-17T19:03:36.715Z</time>
</trkpt>
<trkpt lat="55.316262" lon="8.743490">
<ele>4.954588</ele>
<time>2026-06-17T19:04:11.588Z</time>
</trkpt>
<trkpt lat="55.316249" lon="8.743971">
<ele>4.881593</ele>
<time>2026-06-17T19:04:17.386Z</time>
</trkpt>
<trkpt lat="55.316270" lon="8.744100">
<ele>4.855336</ele>
<time>2026-06-17T19:04:18.992Z</time>
</trkpt>
<trkpt lat="55.317114" lon="8.746588">
<ele>4.250886</ele>
<time>2026-06-17T19:04:53.438Z</time>
</trkpt>
<trkpt lat="55.317160" lon="8.746662">
<ele>4.209081</ele>
<time>2026-06-17T19:04:54.746Z</time>
</trkpt>
<trkpt lat="55.317528" lon="8.746787">
<ele>3.957826</ele>
<time>2026-06-17T19:05:02.448Z</time>
</trkpt>
<trkpt lat="55.317529" lon="8.746848">
<ele>3.934549</ele>
<time>2026-06-17T19:05:03.154Z</time>
</trkpt>
<trkpt lat="55.317323" lon="8.747628">
<ele>3.606534</ele>
<time>2026-06-17T19:05:13.054Z</time>
</trkpt>
<trkpt lat="55.319879" lon="8.749997">
<ele>1.378908</ele>
<time>2026-06-17T19:06:09.354Z</time>
</trkpt>
<trkpt lat="55.320004" lon="8.750074">
<ele>1.342241</ele>
<time>2026-06-17T19:06:12.054Z</time>
</trkpt>
<trkpt lat="55.320143" lon="8.750120">
<ele>1.303087</ele>
<time>2026-06-17T19:06:14.964Z</time>
</trkpt>
<trkpt lat="55.320223" lon="8.750231">
<ele>1.274872</ele>
<time>2026-06-17T19:06:17.101Z</time>
</trkpt>
<trkpt lat="55.322167" lon="8.753094">
<ele>1.150415</ele>
<time>2026-06-17T19:07:14.348Z</time>
</trkpt>
<trkpt lat="55.322331" lon="8.753336">
<ele>1.174584</ele>
<time>2026-06-17T19:07:19.374Z</time>
</trkpt>
<trkpt lat="55.322365" lon="8.753612">
<ele>1.190625</ele>
<time>2026-06-17T19:07:23.041Z</time>
</trkpt>
<trkpt lat="55.322268" lon="8.754533">
<ele>1.231696</ele>
<time>2026-06-17T19:07:35.041Z</time>
</trkpt>
<trkpt lat="55.322235" lon="8.754840">
<ele>1.245395</ele>
<time>2026-06-17T19:07:39.061Z</time>
</trkpt>
<trkpt lat="55.322193" lon="8.755200">
<ele>1.261509</ele>
<time>2026-06-17T19:07:43.721Z</time>
</trkpt>
<trkpt lat="55.322194" lon="8.755379">
<ele>1.269358</ele>
<time>2026-06-17T19:07:45.915Z</time>
</trkpt>
<trkpt lat="55.322253" lon="8.755459">
<ele>1.275101</ele>
<time>2026-06-17T19:07:47.529Z</time>
</trkpt>
<trkpt lat="55.322315" lon="8.755569">
<ele>1.281891</ele>
<time>2026-06-17T19:07:49.462Z</time>
</trkpt>
<trkpt lat="55.322322" lon="8.755645">
<ele>1.285266</ele>
<time>2026-06-17T19:07:50.426Z</time>
</trkpt>
<trkpt lat="55.321956" lon="8.757041">
<ele>1.442272</ele>
<time>2026-06-17T19:08:09.928Z</time>
</trkpt>
<trkpt lat="55.322240" lon="8.757311">
<ele>1.546993</ele>
<time>2026-06-17T19:08:17.486Z</time>
</trkpt>
<trkpt lat="55.321987" lon="8.758382">
<ele>1.760982</ele>
<time>2026-06-17T19:08:33.271Z</time>
</trkpt>
<trkpt lat="55.321778" lon="8.759301">
<ele>1.952163</ele>
<time>2026-06-17T19:08:47.059Z</time>
</trkpt>
<trkpt lat="55.321762" lon="8.759464">
<ele>1.990033</ele>
<time>2026-06-17T19:08:49.406Z</time>
</trkpt>
<trkpt lat="55.321740" lon="8.759736">
<ele>2.052934</ele>
<time>2026-06-17T19:08:53.356Z</time>
</trkpt>
<trkpt lat="55.321827" lon="8.759976">
<ele>2.118087</ele>
<time>2026-06-17T19:08:57.374Z</time>
</trkpt>
<trkpt lat="55.321900" lon="8.760050">
<ele>2.151997</ele>
<time>2026-06-17T19:08:59.433Z</time>
</trkpt>
<trkpt lat="55.321947" lon="8.760098">
<ele>2.173871</ele>
<time>2026-06-17T19:09:00.764Z</time>
</trkpt>
<trkpt lat="55.321998" lon="8.760140">
<ele>2.196534</ele>
<time>2026-06-17T19:09:02.145Z</time>
</trkpt>
<trkpt lat="55.322051" lon="8.760263">
<ele>2.231860</ele>
<time>2026-06-17T19:09:04.246Z</time>
</trkpt>
<trkpt lat="55.322332" lon="8.761216">
<ele>2.477606</ele>
<time>2026-06-17T19:09:18.376Z</time>
</trkpt>
<trkpt lat="55.322567" lon="8.761611">
<ele>2.608452</ele>
<time>2026-06-17T19:09:25.856Z</time>
</trkpt>
<trkpt lat="55.322786" lon="8.762066">
<ele>2.641618</ele>
<time>2026-06-17T19:09:34.053Z</time>
</trkpt>
<trkpt lat="55.323032" lon="8.762677">
<ele>2.656419</ele>
<time>2026-06-17T19:09:43.933Z</time>
</trkpt>
<trkpt lat="55.323106" lon="8.762857">
<ele>2.660811</ele>
<time>2026-06-17T19:09:46.701Z</time>
</trkpt>
<trkpt lat="55.323101" lon="8.763129">
<ele>2.666192</ele>
<time>2026-06-17T19:09:50.024Z</time>
</trkpt>
<trkpt lat="55.323026" lon="8.763233">
<ele>2.669513</ele>
<time>2026-06-17T19:09:52.080Z</time>
</trkpt>
<trkpt lat="55.323073" lon="8.763349">
<ele>2.672329</ele>
<time>2026-06-17T19:09:53.792Z</time>
</trkpt>
<trkpt lat="55.323120" lon="8.763464">
<ele>2.675129</ele>
<time>2026-06-17T19:09:55.534Z</time>
</trkpt>
<trkpt lat="55.323221" lon="8.763569">
<ele>2.679207</ele>
<time>2026-06-17T19:09:58.051Z</time>
</trkpt>
<trkpt lat="55.323425" lon="8.763690">
<ele>2.686690</ele>
<time>2026-06-17T19:10:02.695Z</time>
</trkpt>
<trkpt lat="55.323581" lon="8.763736">
<ele>2.692188</ele>
<time>2026-06-17T19:10:06.121Z</time>
</trkpt>
<trkpt lat="55.323718" lon="8.763765">
<ele>2.726654</ele>
<time>2026-06-17T19:10:09.112Z</time>
</trkpt>
<trkpt lat="55.323826" lon="8.763827">
<ele>2.775391</ele>
<time>2026-06-17T19:10:11.562Z</time>
</trkpt>
<trkpt lat="55.325119" lon="8.764112">
<ele>3.334395</ele>
<time>2026-06-17T19:10:41.371Z</time>
</trkpt>
<trkpt lat="55.325261" lon="8.764134">
<ele>3.395545</ele>
<time>2026-06-17T19:10:45.236Z</time>
</trkpt>
<trkpt lat="55.325335" lon="8.764235">
<ele>3.435735</ele>
<time>2026-06-17T19:10:47.807Z</time>
</trkpt>
<trkpt lat="55.325370" lon="8.764200">
<ele>3.453008</ele>
<time>2026-06-17T19:10:48.947Z</time>
</trkpt>
<trkpt lat="55.325486" lon="8.764091">
<ele>3.621578</ele>
<time>2026-06-17T19:10:52.658Z</time>
</trkpt>
<trkpt lat="55.325521" lon="8.764057">
<ele>3.682958</ele>
<time>2026-06-17T19:10:53.836Z</time>
</trkpt>
<trkpt lat="55.325655" lon="8.764058">
<ele>3.888636</ele>
<time>2026-06-17T19:10:57.869Z</time>
</trkpt>
<trkpt lat="55.326302" lon="8.764051">
<ele>4.881733</ele>
<time>2026-06-17T19:11:18.599Z</time>
</trkpt>
<trkpt lat="55.327081" lon="8.763696">
<ele>6.116946</ele>
<time>2026-06-17T19:11:42.256Z</time>
</trkpt>
<trkpt lat="55.327442" lon="8.763469">
<ele>6.105470</ele>
<time>2026-06-17T19:11:52.257Z</time>
</trkpt>
<trkpt lat="55.327477" lon="8.763866">
<ele>6.016670</ele>
<time>2026-06-17T19:11:58.007Z</time>
</trkpt>
<trkpt lat="55.327527" lon="8.764119">
<ele>5.957469</ele>
<time>2026-06-17T19:12:01.633Z</time>
</trkpt>
<trkpt lat="55.327651" lon="8.764500">
<ele>5.860446</ele>
<time>2026-06-17T19:12:07.183Z</time>
</trkpt>
<trkpt lat="55.327720" lon="8.764568">
<ele>5.829711</ele>
<time>2026-06-17T19:12:08.779Z</time>
</trkpt>
<trkpt lat="55.327722" lon="8.764699">
<ele>5.800745</ele>
<time>2026-06-17T19:12:10.290Z</time>
</trkpt>
<trkpt lat="55.327724" lon="8.764790">
<ele>5.780615</ele>
<time>2026-06-17T19:12:11.270Z</time>
</trkpt>
<trkpt lat="55.327673" lon="8.765061">
<ele>5.717522</ele>
<time>2026-06-17T19:12:14.320Z</time>
</trkpt>
<trkpt lat="55.327667" lon="8.765171">
<ele>5.693096</ele>
<time>2026-06-17T19:12:15.526Z</time>
</trkpt>
<trkpt lat="55.327678" lon="8.765456">
<ele>5.629956</ele>
<time>2026-06-17T19:12:18.461Z</time>
</trkpt>
<trkpt lat="55.327705" lon="8.765700">
<ele>5.575012</ele>
<time>2026-06-17T19:12:21.054Z</time>
</trkpt>
<trkpt lat="55.327705" lon="8.765769">
<ele>5.559761</ele>
<time>2026-06-17T19:12:21.779Z</time>
</trkpt>
<trkpt lat="55.327702" lon="8.766055">
<ele>5.539366</ele>
<time>2026-06-17T19:12:24.931Z</time>
</trkpt>
<trkpt lat="55.327691" lon="8.766777">
<ele>5.598351</ele>
<time>2026-06-17T19:12:33.802Z</time>
</trkpt>
<trkpt lat="55.327687" lon="8.767005">
<ele>5.616980</ele>
<time>2026-06-17T19:12:36.815Z</time>
</trkpt>
<trkpt lat="55.327687" lon="8.767048">
<ele>5.620491</ele>
<time>2026-06-17T19:12:37.450Z</time>
</trkpt>
<trkpt lat="55.327682" lon="8.767507">
<ele>5.657983</ele>
<time>2026-06-17T19:12:43.233Z</time>
</trkpt>
<trkpt lat="55.327682" lon="8.767535">
<ele>5.660270</ele>
<time>2026-06-17T19:12:43.573Z</time>
</trkpt>
<trkpt lat="55.327742" lon="8.767550">
<ele>5.668970</ele>
<time>2026-06-17T19:12:44.899Z</time>
</trkpt>
<trkpt lat="55.327894" lon="8.767782">
<ele>5.697869</ele>
<time>2026-06-17T19:12:49.659Z</time>
</trkpt>
<trkpt lat="55.327967" lon="8.767950">
<ele>5.715133</ele>
<time>2026-06-17T19:12:52.804Z</time>
</trkpt>
<trkpt lat="55.328169" lon="8.768446">
<ele>5.764949</ele>
<time>2026-06-17T19:13:02.331Z</time>
</trkpt>
<trkpt lat="55.328479" lon="8.768937">
<ele>5.924289</ele>
<time>2026-06-17T19:13:14.170Z</time>
</trkpt>
<trkpt lat="55.328722" lon="8.768551">
<ele>6.091696</ele>
<time>2026-06-17T19:13:23.731Z</time>
</trkpt>
<trkpt lat="55.328780" lon="8.768462">
<ele>6.131049</ele>
<time>2026-06-17T19:13:25.785Z</time>
</trkpt>
<trkpt lat="55.328869" lon="8.768331">
<ele>6.190382</ele>
<time>2026-06-17T19:13:28.850Z</time>
</trkpt>
<trkpt lat="55.328895" lon="8.768294">
<ele>6.207480</ele>
<time>2026-06-17T19:13:29.633Z</time>
</trkpt>
<trkpt lat="55.328959" lon="8.768200">
<ele>6.250109</ele>
<time>2026-06-17T19:13:31.711Z</time>
</trkpt>
<trkpt lat="55.329127" lon="8.767955">
<ele>6.361684</ele>
<time>2026-06-17T19:13:36.667Z</time>
</trkpt>
<trkpt lat="55.329357" lon="8.767579">
<ele>6.522227</ele>
<time>2026-06-17T19:13:43.992Z</time>
</trkpt>
<trkpt lat="55.329421" lon="8.767472">
<ele>6.567372</ele>
<time>2026-06-17T19:13:46.120Z</time>
</trkpt>
<trkpt lat="55.329690" lon="8.767013">
<ele>6.631382</ele>
<time>2026-06-17T19:13:54.253Z</time>
</trkpt>
<trkpt lat="55.329966" lon="8.766423">
<ele>6.324786</ele>
<time>2026-06-17T19:14:03.899Z</time>
</trkpt>
<trkpt lat="55.330068" lon="8.766403">
<ele>6.252371</ele>
<time>2026-06-17T19:14:06.207Z</time>
</trkpt>
<trkpt lat="55.330295" lon="8.766528">
<ele>6.084531</ele>
<time>2026-06-17T19:14:11.407Z</time>
</trkpt>
<trkpt lat="55.330337" lon="8.766518">
<ele>6.054627</ele>
<time>2026-06-17T19:14:12.308Z</time>
</trkpt>
<trkpt lat="55.330775" lon="8.766861">
<ele>5.716308</ele>
<time>2026-06-17T19:14:21.937Z</time>
</trkpt>
<trkpt lat="55.330867" lon="8.766930">
<ele>5.645735</ele>
<time>2026-06-17T19:14:23.913Z</time>
</trkpt>
<trkpt lat="55.331415" lon="8.767324">
<ele>4.894301</ele>
<time>2026-06-17T19:14:34.858Z</time>
</trkpt>
<trkpt lat="55.331656" lon="8.767489">
<ele>4.419498</ele>
<time>2026-06-17T19:14:39.316Z</time>
</trkpt>
<trkpt lat="55.331926" lon="8.767675">
<ele>3.887126</ele>
<time>2026-06-17T19:14:44.258Z</time>
</trkpt>
<trkpt lat="55.332012" lon="8.767738">
<ele>3.716086</ele>
<time>2026-06-17T19:14:45.825Z</time>
</trkpt>
<trkpt lat="55.332118" lon="8.767817">
<ele>3.504724</ele>
<time>2026-06-17T19:14:47.782Z</time>
</trkpt>
<trkpt lat="55.332190" lon="8.767870">
<ele>3.361425</ele>
<time>2026-06-17T19:14:49.113Z</time>
</trkpt>
<trkpt lat="55.332226" lon="8.767896">
<ele>3.289975</ele>
<time>2026-06-17T19:14:49.780Z</time>
</trkpt>
<trkpt lat="55.332479" lon="8.768073">
<ele>2.790084</ele>
<time>2026-06-17T19:14:54.541Z</time>
</trkpt>
<trkpt lat="55.332613" lon="8.768171">
<ele>2.523646</ele>
<time>2026-06-17T19:14:57.147Z</time>
</trkpt>
<trkpt lat="55.333171" lon="8.768579">
<ele>2.055771</ele>
<time>2026-06-17T19:15:08.309Z</time>
</trkpt>
<trkpt lat="55.333267" lon="8.768676">
<ele>2.033605</ele>
<time>2026-06-17T19:15:10.593Z</time>
</trkpt>
<trkpt lat="55.333375" lon="8.768888">
<ele>2.001198</ele>
<time>2026-06-17T19:15:14.056Z</time>
</trkpt>
<trkpt lat="55.333452" lon="8.769109">
<ele>1.971687</ele>
<time>2026-06-17T19:15:17.349Z</time>
</trkpt>
<trkpt lat="55.333826" lon="8.768760">
<ele>1.886923</ele>
<time>2026-06-17T19:15:27.344Z</time>
</trkpt>
<trkpt lat="55.333877" lon="8.768713">
<ele>1.875395</ele>
<time>2026-06-17T19:15:28.705Z</time>
</trkpt>
<trkpt lat="55.333955" lon="8.768972">
<ele>1.842025</ele>
<time>2026-06-17T19:15:32.825Z</time>
</trkpt>
<trkpt lat="55.334060" lon="8.769189">
<ele>1.809585</ele>
<time>2026-06-17T19:15:36.889Z</time>
</trkpt>
<trkpt lat="55.334631" lon="8.769639">
<ele>1.832025</ele>
<time>2026-06-17T19:15:52.105Z</time>
</trkpt>
<trkpt lat="55.335067" lon="8.769944">
<ele>1.892417</ele>
<time>2026-06-17T19:16:03.246Z</time>
</trkpt>
<trkpt lat="55.335268" lon="8.770085">
<ele>1.920269</ele>
<time>2026-06-17T19:16:07.837Z</time>
</trkpt>
<trkpt lat="55.335585" lon="8.770345">
<ele>1.965289</ele>
<time>2026-06-17T19:16:15.357Z</time>
</trkpt>
<trkpt lat="55.336699" lon="8.771184">
<ele>1.643844</ele>
<time>2026-06-17T19:16:41.210Z</time>
</trkpt>
<trkpt lat="55.336747" lon="8.771336">
<ele>1.603990</ele>
<time>2026-06-17T19:16:43.243Z</time>
</trkpt>
<trkpt lat="55.336654" lon="8.771872">
<ele>1.475528</ele>
<time>2026-06-17T19:16:49.461Z</time>
</trkpt>
<trkpt lat="55.336781" lon="8.771941">
<ele>1.421953</ele>
<time>2026-06-17T19:16:52.012Z</time>
</trkpt>
<trkpt lat="55.336922" lon="8.771894">
<ele>1.364110</ele>
<time>2026-06-17T19:16:54.844Z</time>
</trkpt>
<trkpt lat="55.337140" lon="8.771461">
<ele>1.440333</ele>
<time>2026-06-17T19:17:01.601Z</time>
</trkpt>
<trkpt lat="55.337256" lon="8.771215">
<ele>1.677830</ele>
<time>2026-06-17T19:17:05.577Z</time>
</trkpt>
<trkpt lat="55.337404" lon="8.770978">
<ele>1.939421</ele>
<time>2026-06-17T19:17:10.360Z</time>
</trkpt>
<trkpt lat="55.337507" lon="8.770891">
<ele>2.088742</ele>
<time>2026-06-17T19:17:13.341Z</time>
</trkpt>
<trkpt lat="55.337631" lon="8.770842">
<ele>2.254822</ele>
<time>2026-06-17T19:17:16.808Z</time>
</trkpt>
<trkpt lat="55.337793" lon="8.770858">
<ele>2.466851</ele>
<time>2026-06-17T19:17:21.379Z</time>
</trkpt>
<trkpt lat="55.337845" lon="8.770888">
<ele>2.538367</ele>
<time>2026-06-17T19:17:22.910Z</time>
</trkpt>
<trkpt lat="55.338156" lon="8.771069">
<ele>2.966454</ele>
<time>2026-06-17T19:17:32.620Z</time>
</trkpt>
<trkpt lat="55.338272" lon="8.771043">
<ele>3.119265</ele>
<time>2026-06-17T19:17:36.250Z</time>
</trkpt>
<trkpt lat="55.338335" lon="8.770985">
<ele>3.212193</ele>
<time>2026-06-17T19:17:38.533Z</time>
</trkpt>
<trkpt lat="55.338550" lon="8.770569">
<ele>3.629948</ele>
<time>2026-06-17T19:17:49.273Z</time>
</trkpt>
<trkpt lat="55.338700" lon="8.770231">
<ele>3.956503</ele>
<time>2026-06-17T19:17:57.463Z</time>
</trkpt>
<trkpt lat="55.339026" lon="8.769473">
<ele>4.680422</ele>
<time>2026-06-17T19:18:14.715Z</time>
</trkpt>
<trkpt lat="55.339159" lon="8.769158">
<ele>4.979270</ele>
<time>2026-06-17T19:18:21.096Z</time>
</trkpt>
<trkpt lat="55.340027" lon="8.767143">
<ele>5.867738</ele>
<time>2026-06-17T19:18:53.632Z</time>
</trkpt>
<trkpt lat="55.340284" lon="8.766507">
<ele>5.749126</ele>
<time>2026-06-17T19:19:02.700Z</time>
</trkpt>
<trkpt lat="55.340338" lon="8.766381">
<ele>5.725140</ele>
<time>2026-06-17T19:19:04.517Z</time>
</trkpt>
<trkpt lat="55.341238" lon="8.764290">
<ele>5.186200</ele>
<time>2026-06-17T19:19:35.559Z</time>
</trkpt>
<trkpt lat="55.341763" lon="8.763005">
<ele>4.800842</ele>
<time>2026-06-17T19:19:54.147Z</time>
</trkpt>
<trkpt lat="55.342308" lon="8.761721">
<ele>4.386245</ele>
<time>2026-06-17T19:20:12.901Z</time>
</trkpt>
<trkpt lat="55.342371" lon="8.761578">
<ele>4.339352</ele>
<time>2026-06-17T19:20:14.996Z</time>
</trkpt>
<trkpt lat="55.342430" lon="8.761435">
<ele>4.293553</ele>
<time>2026-06-17T19:20:16.988Z</time>
</trkpt>
<trkpt lat="55.342906" lon="8.760292">
<ele>3.947992</ele>
<time>2026-06-17T19:20:33.768Z</time>
</trkpt>
<trkpt lat="55.347072" lon="8.750553">
<ele>2.442542</ele>
<time>2026-06-17T19:23:02.376Z</time>
</trkpt>
<trkpt lat="55.347326" lon="8.749992">
<ele>2.372333</ele>
<time>2026-06-17T19:23:11.205Z</time>
</trkpt>
<trkpt lat="55.348762" lon="8.746994">
<ele>2.103058</ele>
<time>2026-06-17T19:23:59.292Z</time>
</trkpt>
<trkpt lat="55.349567" lon="8.745685">
<ele>2.068925</ele>
<time>2026-06-17T19:24:24.176Z</time>
</trkpt>
<trkpt lat="55.349725" lon="8.745493">
<ele>2.058137</ele>
<time>2026-06-17T19:24:28.565Z</time>
</trkpt>
<trkpt lat="55.351933" lon="8.744250">
<ele>1.872544</ele>
<time>2026-06-17T19:25:19.208Z</time>
</trkpt>
<trkpt lat="55.352427" lon="8.744099">
<ele>1.810105</ele>
<time>2026-06-17T19:25:30.014Z</time>
</trkpt>
<trkpt lat="55.352895" lon="8.744147">
<ele>1.751726</ele>
<time>2026-06-17T19:25:40.173Z</time>
</trkpt>
<trkpt lat="55.355635" lon="8.744800">
<ele>1.867766</ele>
<time>2026-06-17T19:26:41.658Z</time>
</trkpt>
<trkpt lat="55.357746" lon="8.745306">
<ele>2.379403</ele>
<time>2026-06-17T19:27:32.094Z</time>
</trkpt>
<trkpt lat="55.357857" lon="8.745285">
<ele>2.409583</ele>
<time>2026-06-17T19:27:34.626Z</time>
</trkpt>
<trkpt lat="55.357909" lon="8.745233">
<ele>2.425753</ele>
<time>2026-06-17T19:27:35.951Z</time>
</trkpt>
<trkpt lat="55.357962" lon="8.745111">
<ele>2.449349</ele>
<time>2026-06-17T19:27:37.923Z</time>
</trkpt>
<trkpt lat="55.357969" lon="8.744558">
<ele>2.534351</ele>
<time>2026-06-17T19:27:44.888Z</time>
</trkpt>
<trkpt lat="55.357964" lon="8.744189">
<ele>2.591290</ele>
<time>2026-06-17T19:27:49.653Z</time>
</trkpt>
<trkpt lat="55.357958" lon="8.743798">
<ele>2.651768</ele>
<time>2026-06-17T19:27:54.930Z</time>
</trkpt>
<trkpt lat="55.357941" lon="8.742655">
<ele>2.828556</ele>
<time>2026-06-17T19:28:10.131Z</time>
</trkpt>
<trkpt lat="55.357962" lon="8.741904">
<ele>2.944815</ele>
<time>2026-06-17T19:28:20.448Z</time>
</trkpt>
<trkpt lat="55.357938" lon="8.740195">
<ele>2.990673</ele>
<time>2026-06-17T19:28:43.006Z</time>
</trkpt>
<trkpt lat="55.357927" lon="8.739453">
<ele>2.952822</ele>
<time>2026-06-17T19:28:51.907Z</time>
</trkpt>
<trkpt lat="55.357923" lon="8.739205">
<ele>2.940170</ele>
<time>2026-06-17T19:28:54.885Z</time>
</trkpt>
<trkpt lat="55.357911" lon="8.738723">
<ele>2.915567</ele>
<time>2026-06-17T19:29:00.703Z</time>
</trkpt>
<trkpt lat="55.357877" lon="8.738167">
<ele>2.887050</ele>
<time>2026-06-17T19:29:07.485Z</time>
</trkpt>
<trkpt lat="55.357897" lon="8.737807">
<ele>2.886841</ele>
<time>2026-06-17T19:29:11.874Z</time>
</trkpt>
<trkpt lat="55.357900" lon="8.737383">
<ele>2.891689</ele>
<time>2026-06-17T19:29:17.057Z</time>
</trkpt>
<trkpt lat="55.357891" lon="8.736980">
<ele>2.896301</ele>
<time>2026-06-17T19:29:21.946Z</time>
</trkpt>
<trkpt lat="55.357881" lon="8.736296">
<ele>2.904124</ele>
<time>2026-06-17T19:29:30.492Z</time>
</trkpt>
<trkpt lat="55.357880" lon="8.736021">
<ele>2.907269</ele>
<time>2026-06-17T19:29:34.112Z</time>
</trkpt>
<trkpt lat="55.357932" lon="8.736017">
<ele>2.908316</ele>
<time>2026-06-17T19:29:35.354Z</time>
</trkpt>
<trkpt lat="55.357989" lon="8.736016">
<ele>2.909463</ele>
<time>2026-06-17T19:29:36.690Z</time>
</trkpt>
<trkpt lat="55.358461" lon="8.735748">
<ele>2.919439</ele>
<time>2026-06-17T19:29:48.381Z</time>
</trkpt>
<trkpt lat="55.358683" lon="8.735625">
<ele>2.960364</ele>
<time>2026-06-17T19:29:53.834Z</time>
</trkpt>
<trkpt lat="55.359104" lon="8.735439">
<ele>3.040359</ele>
<time>2026-06-17T19:30:03.947Z</time>
</trkpt>
<trkpt lat="55.360394" lon="8.734927">
<ele>3.258674</ele>
<time>2026-06-17T19:30:34.211Z</time>
</trkpt>
<trkpt lat="55.360982" lon="8.734666">
<ele>3.284222</ele>
<time>2026-06-17T19:30:47.403Z</time>
</trkpt>
<trkpt lat="55.361041" lon="8.734640">
<ele>3.286784</ele>
<time>2026-06-17T19:30:48.745Z</time>
</trkpt>
<trkpt lat="55.361219" lon="8.734546">
<ele>3.294614</ele>
<time>2026-06-17T19:30:52.878Z</time>
</trkpt>
<trkpt lat="55.361466" lon="8.734414">
<ele>3.305489</ele>
<time>2026-06-17T19:30:58.671Z</time>
</trkpt>
<trkpt lat="55.361657" lon="8.734360">
<ele>3.313639</ele>
<time>2026-06-17T19:31:03.049Z</time>
</trkpt>
<trkpt lat="55.361895" lon="8.734339">
<ele>3.323678</ele>
<time>2026-06-17T19:31:08.494Z</time>
</trkpt>
<trkpt lat="55.362164" lon="8.734356">
<ele>3.328968</ele>
<time>2026-06-17T19:31:14.663Z</time>
</trkpt>
<trkpt lat="55.362862" lon="8.734411">
<ele>3.336402</ele>
<time>2026-06-17T19:31:30.080Z</time>
</trkpt>
<trkpt lat="55.362972" lon="8.734418">
<ele>3.337573</ele>
<time>2026-06-17T19:31:32.685Z</time>
</trkpt>
<trkpt lat="55.363130" lon="8.734427">
<ele>3.339255</ele>
<time>2026-06-17T19:31:36.428Z</time>
</trkpt>
<trkpt lat="55.363393" lon="8.734450">
<ele>3.342057</ele>
<time>2026-06-17T19:31:42.547Z</time>
</trkpt>
<trkpt lat="55.363489" lon="8.734459">
<ele>3.343079</ele>
<time>2026-06-17T19:31:44.710Z</time>
</trkpt>
<trkpt lat="55.363788" lon="8.734500">
<ele>3.332298</ele>
<time>2026-06-17T19:31:51.356Z</time>
</trkpt>
<trkpt lat="55.364201" lon="8.734708">
<ele>3.032367</ele>
<time>2026-06-17T19:32:00.096Z</time>
</trkpt>
<trkpt lat="55.364269" lon="8.734750">
<ele>2.982050</ele>
<time>2026-06-17T19:32:01.501Z</time>
</trkpt>
<trkpt lat="55.364485" lon="8.734896">
<ele>2.820497</ele>
<time>2026-06-17T19:32:06.030Z</time>
</trkpt>
<trkpt lat="55.364646" lon="8.735002">
<ele>2.700477</ele>
<time>2026-06-17T19:32:09.458Z</time>
</trkpt>
<trkpt lat="55.365006" lon="8.735211">
<ele>2.435802</ele>
<time>2026-06-17T19:32:16.790Z</time>
</trkpt>
<trkpt lat="55.365603" lon="8.735403">
<ele>2.081577</ele>
<time>2026-06-17T19:32:28.543Z</time>
</trkpt>
<trkpt lat="55.366052" lon="8.735443">
<ele>2.046658</ele>
<time>2026-06-17T19:32:37.610Z</time>
</trkpt>
<trkpt lat="55.366363" lon="8.735428">
<ele>2.022493</ele>
<time>2026-06-17T19:32:44.405Z</time>
</trkpt>
<trkpt lat="55.367943" lon="8.735297">
<ele>2.166558</ele>
<time>2026-06-17T19:33:21.949Z</time>
</trkpt>
<trkpt lat="55.369406" lon="8.734967">
<ele>2.529108</ele>
<time>2026-06-17T19:33:56.716Z</time>
</trkpt>
<trkpt lat="55.372566" lon="8.734864">
<ele>2.248032</ele>
<time>2026-06-17T19:35:05.193Z</time>
</trkpt>
<trkpt lat="55.372678" lon="8.734850">
<ele>2.234911</ele>
<time>2026-06-17T19:35:07.655Z</time>
</trkpt>
<trkpt lat="55.372805" lon="8.734750">
<ele>2.243320</ele>
<time>2026-06-17T19:35:10.699Z</time>
</trkpt>
<trkpt lat="55.372878" lon="8.734558">
<ele>2.251254</ele>
<time>2026-06-17T19:35:13.603Z</time>
</trkpt>
<trkpt lat="55.372900" lon="8.734286">
<ele>2.260689</ele>
<time>2026-06-17T19:35:17.085Z</time>
</trkpt>
<trkpt lat="55.372736" lon="8.731127">
<ele>2.312391</ele>
<time>2026-06-17T19:35:58.047Z</time>
</trkpt>
<trkpt lat="55.372710" lon="8.730615">
<ele>2.291880</ele>
<time>2026-06-17T19:36:04.499Z</time>
</trkpt>
<trkpt lat="55.372667" lon="8.729784">
<ele>2.258583</ele>
<time>2026-06-17T19:36:14.736Z</time>
</trkpt>
<trkpt lat="55.372459" lon="8.727359">
<ele>2.265443</ele>
<time>2026-06-17T19:36:44.935Z</time>
</trkpt>
<trkpt lat="55.372421" lon="8.726568">
<ele>2.292868</ele>
<time>2026-06-17T19:36:55.111Z</time>
</trkpt>
<trkpt lat="55.372434" lon="8.725992">
<ele>2.312783</ele>
<time>2026-06-17T19:37:02.708Z</time>
</trkpt>
<trkpt lat="55.372546" lon="8.724384">
<ele>2.621342</ele>
<time>2026-06-17T19:37:24.923Z</time>
</trkpt>
<trkpt lat="55.372603" lon="8.723670">
<ele>2.794124</ele>
<time>2026-06-17T19:37:34.901Z</time>
</trkpt>
<trkpt lat="55.372677" lon="8.723114">
<ele>2.930969</ele>
<time>2026-06-17T19:37:42.709Z</time>
</trkpt>
<trkpt lat="55.372758" lon="8.722731">
<ele>3.028902</ele>
<time>2026-06-17T19:37:48.220Z</time>
</trkpt>
<trkpt lat="55.372960" lon="8.722102">
<ele>3.113060</ele>
<time>2026-06-17T19:37:57.859Z</time>
</trkpt>
<trkpt lat="55.374346" lon="8.718883">
<ele>3.495294</ele>
<time>2026-06-17T19:38:49.330Z</time>
</trkpt>
<trkpt lat="55.374871" lon="8.717495">
<ele>3.773490</ele>
<time>2026-06-17T19:39:12.039Z</time>
</trkpt>
<trkpt lat="55.375166" lon="8.716686">
<ele>3.891859</ele>
<time>2026-06-17T19:39:25.507Z</time>
</trkpt>
<trkpt lat="55.375260" lon="8.716430">
<ele>3.927214</ele>
<time>2026-06-17T19:39:29.705Z</time>
</trkpt>
<trkpt lat="55.375392" lon="8.716067">
<ele>3.977203</ele>
<time>2026-06-17T19:39:35.471Z</time>
</trkpt>
<trkpt lat="55.375553" lon="8.715595">
<ele>4.041058</ele>
<time>2026-06-17T19:39:42.628Z</time>
</trkpt>
<trkpt lat="55.375661" lon="8.715240">
<ele>4.087765</ele>
<time>2026-06-17T19:39:47.698Z</time>
</trkpt>
<trkpt lat="55.376284" lon="8.713052">
<ele>3.944877</ele>
<time>2026-06-17T19:40:17.223Z</time>
</trkpt>
<trkpt lat="55.376963" lon="8.710909">
<ele>3.491893</ele>
<time>2026-06-17T19:40:47.428Z</time>
</trkpt>
<trkpt lat="55.377102" lon="8.710744">
<ele>3.413925</ele>
<time>2026-06-17T19:40:50.913Z</time>
</trkpt>
<trkpt lat="55.377245" lon="8.710724">
<ele>3.347214</ele>
<time>2026-06-17T19:40:53.869Z</time>
</trkpt>
<trkpt lat="55.377378" lon="8.710809">
<ele>3.281412</ele>
<time>2026-06-17T19:40:56.739Z</time>
</trkpt>
<trkpt lat="55.378306" lon="8.711620">
<ele>2.775932</ele>
<time>2026-06-17T19:41:17.302Z</time>
</trkpt>
<trkpt lat="55.378346" lon="8.711657">
<ele>2.751432</ele>
<time>2026-06-17T19:41:18.207Z</time>
</trkpt>
<trkpt lat="55.378597" lon="8.711871">
<ele>2.600216</ele>
<time>2026-06-17T19:41:23.880Z</time>
</trkpt>
<trkpt lat="55.378993" lon="8.712118">
<ele>2.372426</ele>
<time>2026-06-17T19:41:32.487Z</time>
</trkpt>
<trkpt lat="55.381150" lon="8.713208">
<ele>1.476618</ele>
<time>2026-06-17T19:42:19.157Z</time>
</trkpt>
<trkpt lat="55.381542" lon="8.713279">
<ele>1.392011</ele>
<time>2026-06-17T19:42:27.726Z</time>
</trkpt>
<trkpt lat="55.387509" lon="8.712792">
<ele>2.418110</ele>
<time>2026-06-17T19:44:45.225Z</time>
</trkpt>
<trkpt lat="55.388032" lon="8.712759">
<ele>2.526364</ele>
<time>2026-06-17T19:44:57.385Z</time>
</trkpt>
<trkpt lat="55.388694" lon="8.712708">
<ele>2.650064</ele>
<time>2026-06-17T19:45:12.547Z</time>
</trkpt>
<trkpt lat="55.388862" lon="8.712713">
<ele>2.645062</ele>
<time>2026-06-17T19:45:16.327Z</time>
</trkpt>
<trkpt lat="55.389077" lon="8.712720">
<ele>2.638660</ele>
<time>2026-06-17T19:45:21.061Z</time>
</trkpt>
<trkpt lat="55.391737" lon="8.713130">
<ele>2.626208</ele>
<time>2026-06-17T19:46:19.812Z</time>
</trkpt>
<trkpt lat="55.392079" lon="8.713156">
<ele>2.633520</ele>
<time>2026-06-17T19:46:27.534Z</time>
</trkpt>
<trkpt lat="55.393000" lon="8.713211">
<ele>3.048945</ele>
<time>2026-06-17T19:46:49.529Z</time>
</trkpt>
<trkpt lat="55.393902" lon="8.713256">
<ele>3.528224</ele>
<time>2026-06-17T19:47:12.380Z</time>
</trkpt>
<trkpt lat="55.394277" lon="8.713283">
<ele>3.655849</ele>
<time>2026-06-17T19:47:21.313Z</time>
</trkpt>
<trkpt lat="55.394332" lon="8.713289">
<ele>3.669640</ele>
<time>2026-06-17T19:47:22.615Z</time>
</trkpt>
<trkpt lat="55.394963" lon="8.713380">
<ele>3.828080</ele>
<time>2026-06-17T19:47:37.488Z</time>
</trkpt>
<trkpt lat="55.394994" lon="8.713387">
<ele>3.835901</ele>
<time>2026-06-17T19:47:38.204Z</time>
</trkpt>
<trkpt lat="55.395237" lon="8.713423">
<ele>3.896928</ele>
<time>2026-06-17T19:47:43.789Z</time>
</trkpt>
<trkpt lat="55.395782" lon="8.713508">
<ele>4.033852</ele>
<time>2026-06-17T19:47:56.203Z</time>
</trkpt>
<trkpt lat="55.396751" lon="8.713687">
<ele>3.970886</ele>
<time>2026-06-17T19:48:17.703Z</time>
</trkpt>
<trkpt lat="55.397197" lon="8.713769">
<ele>3.936980</ele>
<time>2026-06-17T19:48:27.510Z</time>
</trkpt>
<trkpt lat="55.397282" lon="8.713785">
<ele>3.930516</ele>
<time>2026-06-17T19:48:29.348Z</time>
</trkpt>
<trkpt lat="55.397461" lon="8.713781">
<ele>3.916981</ele>
<time>2026-06-17T19:48:33.194Z</time>
</trkpt>
<trkpt lat="55.397504" lon="8.713768">
<ele>3.913682</ele>
<time>2026-06-17T19:48:34.126Z</time>
</trkpt>
<trkpt lat="55.397503" lon="8.713367">
<ele>3.918900</ele>
<time>2026-06-17T19:48:38.952Z</time>
</trkpt>
<trkpt lat="55.397530" lon="8.713005">
<ele>3.939824</ele>
<time>2026-06-17T19:48:43.387Z</time>
</trkpt>
<trkpt lat="55.397716" lon="8.711529">
<ele>4.026467</ele>
<time>2026-06-17T19:49:02.513Z</time>
</trkpt>
<trkpt lat="55.397743" lon="8.711317">
<ele>4.038918</ele>
<time>2026-06-17T19:49:05.545Z</time>
</trkpt>
<trkpt lat="55.397801" lon="8.710861">
<ele>4.065697</ele>
<time>2026-06-17T19:49:11.976Z</time>
</trkpt>
<trkpt lat="55.397896" lon="8.710103">
<ele>4.135597</ele>
<time>2026-06-17T19:49:22.444Z</time>
</trkpt>
<trkpt lat="55.397932" lon="8.709747">
<ele>4.179625</ele>
<time>2026-06-17T19:49:27.239Z</time>
</trkpt>
<trkpt lat="55.397925" lon="8.709497">
<ele>4.210102</ele>
<time>2026-06-17T19:49:30.586Z</time>
</trkpt>
<trkpt lat="55.397892" lon="8.709248">
<ele>4.241235</ele>
<time>2026-06-17T19:49:33.968Z</time>
</trkpt>
<trkpt lat="55.397861" lon="8.709020">
<ele>4.269781</ele>
<time>2026-06-17T19:49:37.074Z</time>
</trkpt>
<trkpt lat="55.397820" lon="8.708719">
<ele>4.307470</ele>
<time>2026-06-17T19:49:41.150Z</time>
</trkpt>
<trkpt lat="55.397712" lon="8.707959">
<ele>4.402861</ele>
<time>2026-06-17T19:49:51.278Z</time>
</trkpt>
<trkpt lat="55.397598" lon="8.707205">
<ele>4.470392</ele>
<time>2026-06-17T19:50:01.318Z</time>
</trkpt>
<trkpt lat="55.397584" lon="8.706524">
<ele>4.460809</ele>
<time>2026-06-17T19:50:09.900Z</time>
</trkpt>
<trkpt lat="55.397584" lon="8.705476">
<ele>4.446071</ele>
<time>2026-06-17T19:50:22.752Z</time>
</trkpt>
<trkpt lat="55.397582" lon="8.705373">
<ele>4.444622</ele>
<time>2026-06-17T19:50:23.977Z</time>
</trkpt>
<trkpt lat="55.397578" lon="8.705108">
<ele>4.440894</ele>
<time>2026-06-17T19:50:27.233Z</time>
</trkpt>
<trkpt lat="55.397561" lon="8.704781">
<ele>4.436276</ele>
<time>2026-06-17T19:50:31.445Z</time>
</trkpt>
<trkpt lat="55.397525" lon="8.704474">
<ele>4.431868</ele>
<time>2026-06-17T19:50:35.717Z</time>
</trkpt>
<trkpt lat="55.397505" lon="8.704336">
<ele>4.429865</ele>
<time>2026-06-17T19:50:37.617Z</time>
</trkpt>
<trkpt lat="55.397363" lon="8.703833">
<ele>4.332275</ele>
<time>2026-06-17T19:50:44.780Z</time>
</trkpt>
<trkpt lat="55.397308" lon="8.703556">
<ele>4.273154</ele>
<time>2026-06-17T19:50:48.368Z</time>
</trkpt>
<trkpt lat="55.397273" lon="8.703015">
<ele>4.163451</ele>
<time>2026-06-17T19:50:54.785Z</time>
</trkpt>
<trkpt lat="55.397282" lon="8.702852">
<ele>4.130455</ele>
<time>2026-06-17T19:50:56.689Z</time>
</trkpt>
<trkpt lat="55.397324" lon="8.702724">
<ele>4.100671</ele>
<time>2026-06-17T19:50:58.367Z</time>
</trkpt>
<trkpt lat="55.397258" lon="8.702542">
<ele>4.057164</ele>
<time>2026-06-17T19:51:00.772Z</time>
</trkpt>
<trkpt lat="55.397226" lon="8.702027">
<ele>3.952785</ele>
<time>2026-06-17T19:51:06.650Z</time>
</trkpt>
<trkpt lat="55.397168" lon="8.701619">
<ele>3.868046</ele>
<time>2026-06-17T19:51:12.023Z</time>
</trkpt>
<trkpt lat="55.397015" lon="8.700780">
<ele>3.755289</ele>
<time>2026-06-17T19:51:22.409Z</time>
</trkpt>
<trkpt lat="55.396995" lon="8.700216">
<ele>3.715147</ele>
<time>2026-06-17T19:51:28.918Z</time>
</trkpt>
<trkpt lat="55.396994" lon="8.700157">
<ele>3.710954</ele>
<time>2026-06-17T19:51:29.659Z</time>
</trkpt>
<trkpt lat="55.396999" lon="8.699892">
<ele>3.692120</ele>
<time>2026-06-17T19:51:32.942Z</time>
</trkpt>
<trkpt lat="55.397004" lon="8.699538">
<ele>3.666966</ele>
<time>2026-06-17T19:51:37.373Z</time>
</trkpt>
<trkpt lat="55.397000" lon="8.699153">
<ele>3.639613</ele>
<time>2026-06-17T19:51:42.274Z</time>
</trkpt>
<trkpt lat="55.396994" lon="8.699039">
<ele>3.631480</ele>
<time>2026-06-17T19:51:43.721Z</time>
</trkpt>
<trkpt lat="55.396962" lon="8.698825">
<ele>3.615761</ele>
<time>2026-06-17T19:51:46.467Z</time>
</trkpt>
<trkpt lat="55.396845" lon="8.698590">
<ele>3.593561</ele>
<time>2026-06-17T19:51:50.487Z</time>
</trkpt>
<trkpt lat="55.396676" lon="8.698340">
<ele>3.565952</ele>
<time>2026-06-17T19:51:55.668Z</time>
</trkpt>
<trkpt lat="55.396243" lon="8.697873">
<ele>3.639945</ele>
<time>2026-06-17T19:52:06.885Z</time>
</trkpt>
<trkpt lat="55.396161" lon="8.697657">
<ele>3.661681</ele>
<time>2026-06-17T19:52:10.260Z</time>
</trkpt>
<trkpt lat="55.396148" lon="8.697593">
<ele>3.667367</ele>
<time>2026-06-17T19:52:11.181Z</time>
</trkpt>
<trkpt lat="55.396153" lon="8.697444">
<ele>3.679853</ele>
<time>2026-06-17T19:52:13.247Z</time>
</trkpt>
<trkpt lat="55.396184" lon="8.697317">
<ele>3.691417</ele>
<time>2026-06-17T19:52:15.131Z</time>
</trkpt>
<trkpt lat="55.396777" lon="8.695849">
<ele>3.823155</ele>
<time>2026-06-17T19:52:38.446Z</time>
</trkpt>
<trkpt lat="55.397181" lon="8.695010">
<ele>3.764535</ele>
<time>2026-06-17T19:52:52.992Z</time>
</trkpt>
<trkpt lat="55.397315" lon="8.694689">
<ele>3.743304</ele>
<time>2026-06-17T19:52:58.076Z</time>
</trkpt>
<trkpt lat="55.397493" lon="8.694063">
<ele>3.705996</ele>
<time>2026-06-17T19:53:06.704Z</time>
</trkpt>
<trkpt lat="55.397554" lon="8.693766">
<ele>3.689166</ele>
<time>2026-06-17T19:53:10.465Z</time>
</trkpt>
<trkpt lat="55.397651" lon="8.692977">
<ele>3.584560</ele>
<time>2026-06-17T19:53:19.798Z</time>
</trkpt>
<trkpt lat="55.397705" lon="8.692449">
<ele>3.443135</ele>
<time>2026-06-17T19:53:25.929Z</time>
</trkpt>
<trkpt lat="55.397920" lon="8.690404">
<ele>2.894895</ele>
<time>2026-06-17T19:53:50.193Z</time>
</trkpt>
<trkpt lat="55.398333" lon="8.688526">
<ele>2.548473</ele>
<time>2026-06-17T19:54:14.926Z</time>
</trkpt>
<trkpt lat="55.398409" lon="8.688187">
<ele>2.490691</ele>
<time>2026-06-17T19:54:19.329Z</time>
</trkpt>
<trkpt lat="55.398883" lon="8.686501">
<ele>2.203323</ele>
<time>2026-06-17T19:54:41.541Z</time>
</trkpt>
<trkpt lat="55.399933" lon="8.681919">
<ele>1.618447</ele>
<time>2026-06-17T19:55:42.048Z</time>
</trkpt>
<trkpt lat="55.400047" lon="8.681302">
<ele>1.556180</ele>
<time>2026-06-17T19:55:49.968Z</time>
</trkpt>
<trkpt lat="55.400111" lon="8.680649">
<ele>1.484886</ele>
<time>2026-06-17T19:55:58.080Z</time>
</trkpt>
<trkpt lat="55.400119" lon="8.679883">
<ele>1.402459</ele>
<time>2026-06-17T19:56:07.407Z</time>
</trkpt>
<trkpt lat="55.400051" lon="8.679078">
<ele>1.314897</ele>
<time>2026-06-17T19:56:17.408Z</time>
</trkpt>
<trkpt lat="55.399511" lon="8.675993">
<ele>0.943051</ele>
<time>2026-06-17T19:56:56.934Z</time>
</trkpt>
<trkpt lat="55.399483" lon="8.675561">
<ele>0.891813</ele>
<time>2026-06-17T19:57:02.142Z</time>
</trkpt>
<trkpt lat="55.399482" lon="8.675056">
<ele>0.827766</ele>
<time>2026-06-17T19:57:08.221Z</time>
</trkpt>
<trkpt lat="55.399542" lon="8.674362">
<ele>0.725710</ele>
<time>2026-06-17T19:57:16.725Z</time>
</trkpt>
<trkpt lat="55.399595" lon="8.674044">
<ele>0.677529</ele>
<time>2026-06-17T19:57:20.766Z</time>
</trkpt>
<trkpt lat="55.399978" lon="8.672309">
<ele>0.406909</ele>
<time>2026-06-17T19:57:43.139Z</time>
</trkpt>
<trkpt lat="55.400358" lon="8.671073">
<ele>0.350056</ele>
<time>2026-06-17T19:58:00.207Z</time>
</trkpt>
<trkpt lat="55.400577" lon="8.670443">
<ele>0.326617</ele>
<time>2026-06-17T19:58:09.290Z</time>
</trkpt>
<trkpt lat="55.402135" lon="8.667041">
<ele>0.801528</ele>
<time>2026-06-17T19:59:07.097Z</time>
</trkpt>
<trkpt lat="55.402316" lon="8.666471">
<ele>0.918734</ele>
<time>2026-06-17T19:59:15.718Z</time>
</trkpt>
<trkpt lat="55.402757" lon="8.664337">
<ele>1.326286</ele>
<time>2026-06-17T19:59:45.830Z</time>
</trkpt>
<trkpt lat="55.402900" lon="8.663392">
<ele>1.534950</ele>
<time>2026-06-17T19:59:59.344Z</time>
</trkpt>
<trkpt lat="55.402979" lon="8.662524">
<ele>1.728863</ele>
<time>2026-06-17T20:00:11.646Z</time>
</trkpt>
<trkpt lat="55.403236" lon="8.659703">
<ele>1.887547</ele>
<time>2026-06-17T20:00:49.729Z</time>
</trkpt>
<trkpt lat="55.403365" lon="8.658058">
<ele>1.684183</ele>
<time>2026-06-17T20:01:08.812Z</time>
</trkpt>
<trkpt lat="55.403364" lon="8.657834">
<ele>1.630123</ele>
<time>2026-06-17T20:01:11.324Z</time>
</trkpt>
<trkpt lat="55.403337" lon="8.657645">
<ele>1.549506</ele>
<time>2026-06-17T20:01:13.486Z</time>
</trkpt>
<trkpt lat="55.403277" lon="8.657468">
<ele>1.464235</ele>
<time>2026-06-17T20:01:15.777Z</time>
</trkpt>
<trkpt lat="55.403132" lon="8.657296">
<ele>1.336873</ele>
<time>2026-06-17T20:01:19.230Z</time>
</trkpt>
<trkpt lat="55.403008" lon="8.657245">
<ele>1.244106</ele>
<time>2026-06-17T20:01:21.746Z</time>
</trkpt>
<trkpt lat="55.401282" lon="8.657567">
<ele>0.112991</ele>
<time>2026-06-17T20:01:56.433Z</time>
</trkpt>
<trkpt lat="55.401140" lon="8.657555">
<ele>0.045962</ele>
<time>2026-06-17T20:01:59.269Z</time>
</trkpt>
<trkpt lat="55.401015" lon="8.657495">
<ele>-0.015124</ele>
<time>2026-06-17T20:02:01.855Z</time>
</trkpt>
<trkpt lat="55.400880" lon="8.657345">
<ele>-0.090386</ele>
<time>2026-06-17T20:02:05.060Z</time>
</trkpt>
<trkpt lat="55.400782" lon="8.657169">
<ele>-0.156381</ele>
<time>2026-06-17T20:02:07.883Z</time>
</trkpt>
<trkpt lat="55.400716" lon="8.656973">
<ele>-0.217389</ele>
<time>2026-06-17T20:02:10.496Z</time>
</trkpt>
<trkpt lat="55.400669" lon="8.656718">
<ele>-0.289166</ele>
<time>2026-06-17T20:02:13.597Z</time>
</trkpt>
<trkpt lat="55.399961" lon="8.643761">
<ele>0.402603</ele>
<time>2026-06-17T20:05:01.791Z</time>
</trkpt>
<trkpt lat="55.399579" lon="8.637671">
<ele>0.938180</ele>
<time>2026-06-17T20:06:21.132Z</time>
</trkpt>
<trkpt lat="55.399711" lon="8.637641">
<ele>0.960810</ele>
<time>2026-06-17T20:06:24.224Z</time>
</trkpt>
<trkpt lat="55.400643" lon="8.637512">
<ele>1.137528</ele>
<time>2026-06-17T20:06:45.988Z</time>
</trkpt>
<trkpt lat="55.401192" lon="8.637367">
<ele>1.245614</ele>
<time>2026-06-17T20:06:58.831Z</time>
</trkpt>
<trkpt lat="55.402044" lon="8.636974">
<ele>1.348950</ele>
<time>2026-06-17T20:07:18.741Z</time>
</trkpt>
<trkpt lat="55.402725" lon="8.636485">
<ele>1.351817</ele>
<time>2026-06-17T20:07:35.142Z</time>
</trkpt>
<trkpt lat="55.404135" lon="8.635243">
<ele>1.328161</ele>
<time>2026-06-17T20:08:10.077Z</time>
</trkpt>
<trkpt lat="55.404714" lon="8.634776">
<ele>1.308840</ele>
<time>2026-06-17T20:08:24.163Z</time>
</trkpt>
<trkpt lat="55.406016" lon="8.634007">
<ele>1.234757</ele>
<time>2026-06-17T20:08:54.526Z</time>
</trkpt>
<trkpt lat="55.406628" lon="8.633689">
<ele>1.196278</ele>
<time>2026-06-17T20:09:08.394Z</time>
</trkpt>
<trkpt lat="55.408004" lon="8.632815">
<ele>1.154156</ele>
<time>2026-06-17T20:09:40.149Z</time>
</trkpt>
<trkpt lat="55.409250" lon="8.631571">
<ele>1.424324</ele>
<time>2026-06-17T20:10:13.542Z</time>
</trkpt>
<trkpt lat="55.410273" lon="8.630512">
<ele>1.645513</ele>
<time>2026-06-17T20:10:41.447Z</time>
</trkpt>
<trkpt lat="55.410626" lon="8.630216">
<ele>1.650581</ele>
<time>2026-06-17T20:10:50.294Z</time>
</trkpt>
<trkpt lat="55.413410" lon="8.628562">
<ele>1.460658</ele>
<time>2026-06-17T20:11:54.165Z</time>
</trkpt>
<trkpt lat="55.414080" lon="8.628246">
<ele>1.445017</ele>
<time>2026-06-17T20:12:09.819Z</time>
</trkpt>
<trkpt lat="55.414199" lon="8.628157">
<ele>1.442102</ele>
<time>2026-06-17T20:12:12.748Z</time>
</trkpt>
<trkpt lat="55.414217" lon="8.628146">
<ele>1.441672</ele>
<time>2026-06-17T20:12:13.174Z</time>
</trkpt>
<trkpt lat="55.414325" lon="8.628070">
<ele>1.439050</ele>
<time>2026-06-17T20:12:15.817Z</time>
</trkpt>
<trkpt lat="55.414530" lon="8.627902">
<ele>1.433951</ele>
<time>2026-06-17T20:12:20.947Z</time>
</trkpt>
<trkpt lat="55.416513" lon="8.626940">
<ele>1.104073</ele>
<time>2026-06-17T20:13:05.368Z</time>
</trkpt>
<trkpt lat="55.418001" lon="8.626305">
<ele>0.622353</ele>
<time>2026-06-17T20:13:36.993Z</time>
</trkpt>
<trkpt lat="55.418551" lon="8.626129">
<ele>0.459652</ele>
<time>2026-06-17T20:13:49.105Z</time>
</trkpt>
<trkpt lat="55.419377" lon="8.625962">
<ele>0.453830</ele>
<time>2026-06-17T20:14:07.832Z</time>
</trkpt>
<trkpt lat="55.419813" lon="8.625801">
<ele>0.450711</ele>
<time>2026-06-17T20:14:18.047Z</time>
</trkpt>
<trkpt lat="55.419869" lon="8.625740">
<ele>0.450250</ele>
<time>2026-06-17T20:14:19.659Z</time>
</trkpt>
<trkpt lat="55.419954" lon="8.625762">
<ele>0.449648</ele>
<time>2026-06-17T20:14:21.861Z</time>
</trkpt>
<trkpt lat="55.420084" lon="8.625718">
<ele>0.448722</ele>
<time>2026-06-17T20:14:25.156Z</time>
</trkpt>
<trkpt lat="55.420130" lon="8.625699">
<ele>0.448391</ele>
<time>2026-06-17T20:14:26.328Z</time>
</trkpt>
<trkpt lat="55.420261" lon="8.625644">
<ele>0.444254</ele>
<time>2026-06-17T20:14:29.342Z</time>
</trkpt>
<trkpt lat="55.420286" lon="8.625636">
<ele>0.439257</ele>
<time>2026-06-17T20:14:29.890Z</time>
</trkpt>
<trkpt lat="55.421254" lon="8.625035">
<ele>0.237415</ele>
<time>2026-06-17T20:14:51.954Z</time>
</trkpt>
<trkpt lat="55.421671" lon="8.624906">
<ele>0.154153</ele>
<time>2026-06-17T20:15:00.874Z</time>
</trkpt>
<trkpt lat="55.421945" lon="8.624851">
<ele>0.099919</ele>
<time>2026-06-17T20:15:06.675Z</time>
</trkpt>
<trkpt lat="55.426091" lon="8.624428">
<ele>-0.947396</ele>
<time>2026-06-17T20:16:34.511Z</time>
</trkpt>
<trkpt lat="55.426470" lon="8.624315">
<ele>-0.954936</ele>
<time>2026-06-17T20:16:43.151Z</time>
</trkpt>
<trkpt lat="55.426839" lon="8.624137">
<ele>-0.962441</ele>
<time>2026-06-17T20:16:51.905Z</time>
</trkpt>
<trkpt lat="55.430421" lon="8.621523">
<ele>-0.271555</ele>
<time>2026-06-17T20:18:21.646Z</time>
</trkpt>
<trkpt lat="55.430580" lon="8.621378">
<ele>-0.238148</ele>
<time>2026-06-17T20:18:25.595Z</time>
</trkpt>
<trkpt lat="55.430966" lon="8.620967">
<ele>-0.182219</ele>
<time>2026-06-17T20:18:35.565Z</time>
</trkpt>
<trkpt lat="55.431448" lon="8.620330">
<ele>-0.112019</ele>
<time>2026-06-17T20:18:49.103Z</time>
</trkpt>
<trkpt lat="55.431887" lon="8.619611">
<ele>-0.042188</ele>
<time>2026-06-17T20:19:02.886Z</time>
</trkpt>
<trkpt lat="55.432118" lon="8.619164">
<ele>0.009835</ele>
<time>2026-06-17T20:19:10.864Z</time>
</trkpt>
<trkpt lat="55.432117" lon="8.619066">
<ele>0.020815</ele>
<time>2026-06-17T20:19:12.301Z</time>
</trkpt>
<trkpt lat="55.432133" lon="8.618979">
<ele>0.031061</ele>
<time>2026-06-17T20:19:13.650Z</time>
</trkpt>
<trkpt lat="55.432209" lon="8.618942">
<ele>0.046629</ele>
<time>2026-06-17T20:19:15.693Z</time>
</trkpt>
<trkpt lat="55.432278" lon="8.618813">
<ele>0.066490</ele>
<time>2026-06-17T20:19:18.072Z</time>
</trkpt>
<trkpt lat="55.432563" lon="8.618291">
<ele>0.147646</ele>
<time>2026-06-17T20:19:27.671Z</time>
</trkpt>
<trkpt lat="55.432815" lon="8.617753">
<ele>0.225801</ele>
<time>2026-06-17T20:19:36.817Z</time>
</trkpt>
<trkpt lat="55.433076" lon="8.617093">
<ele>0.315925</ele>
<time>2026-06-17T20:19:47.077Z</time>
</trkpt>
<trkpt lat="55.433295" lon="8.616461">
<ele>0.324381</ele>
<time>2026-06-17T20:19:56.506Z</time>
</trkpt>
<trkpt lat="55.433463" lon="8.615862">
<ele>0.311150</ele>
<time>2026-06-17T20:20:04.962Z</time>
</trkpt>
<trkpt lat="55.433591" lon="8.615221">
<ele>0.297694</ele>
<time>2026-06-17T20:20:13.486Z</time>
</trkpt>
<trkpt lat="55.433668" lon="8.614679">
<ele>0.286631</ele>
<time>2026-06-17T20:20:20.405Z</time>
</trkpt>
<trkpt lat="55.433703" lon="8.614115">
<ele>0.275396</ele>
<time>2026-06-17T20:20:27.356Z</time>
</trkpt>
<trkpt lat="55.433690" lon="8.613622">
<ele>0.282934</ele>
<time>2026-06-17T20:20:33.365Z</time>
</trkpt>
<trkpt lat="55.433649" lon="8.613178">
<ele>0.295516</ele>
<time>2026-06-17T20:20:38.905Z</time>
</trkpt>
<trkpt lat="55.433591" lon="8.612871">
<ele>0.304566</ele>
<time>2026-06-17T20:20:42.969Z</time>
</trkpt>
<trkpt lat="55.433511" lon="8.612635">
<ele>0.312255</ele>
<time>2026-06-17T20:20:46.456Z</time>
</trkpt>
<trkpt lat="55.433349" lon="8.612350">
<ele>0.323539</ele>
<time>2026-06-17T20:20:51.631Z</time>
</trkpt>
<trkpt lat="55.433265" lon="8.612058">
<ele>0.332696</ele>
<time>2026-06-17T20:20:55.893Z</time>
</trkpt>
<trkpt lat="55.433073" lon="8.610693">
<ele>0.361797</ele>
<time>2026-06-17T20:21:14.476Z</time>
</trkpt>
<trkpt lat="55.433035" lon="8.610148">
<ele>0.362274</ele>
<time>2026-06-17T20:21:21.696Z</time>
</trkpt>
<trkpt lat="55.433038" lon="8.609574">
<ele>0.362774</ele>
<time>2026-06-17T20:21:29.074Z</time>
</trkpt>
<trkpt lat="55.433070" lon="8.609040">
<ele>0.363241</ele>
<time>2026-06-17T20:21:35.706Z</time>
</trkpt>
<trkpt lat="55.433204" lon="8.607971">
<ele>0.364193</ele>
<time>2026-06-17T20:21:49.028Z</time>
</trkpt>
<trkpt lat="55.433190" lon="8.607609">
<ele>0.347379</ele>
<time>2026-06-17T20:21:53.408Z</time>
</trkpt>
<trkpt lat="55.433183" lon="8.607421">
<ele>0.337619</ele>
<time>2026-06-17T20:21:55.699Z</time>
</trkpt>
<trkpt lat="55.433242" lon="8.607060">
<ele>0.318158</ele>
<time>2026-06-17T20:22:00.231Z</time>
</trkpt>
<trkpt lat="55.433321" lon="8.606907">
<ele>0.307441</ele>
<time>2026-06-17T20:22:02.732Z</time>
</trkpt>
<trkpt lat="55.433429" lon="8.606469">
<ele>0.282701</ele>
<time>2026-06-17T20:22:08.610Z</time>
</trkpt>
<trkpt lat="55.433438" lon="8.606351">
<ele>0.276533</ele>
<time>2026-06-17T20:22:10.241Z</time>
</trkpt>
<trkpt lat="55.433485" lon="8.606270">
<ele>0.270531</ele>
<time>2026-06-17T20:22:11.873Z</time>
</trkpt>
<trkpt lat="55.433809" lon="8.605210">
<ele>0.208158</ele>
<time>2026-06-17T20:22:27.298Z</time>
</trkpt>
<trkpt lat="55.435181" lon="8.601692">
<ele>0.145549</ele>
<time>2026-06-17T20:23:21.167Z</time>
</trkpt>
<trkpt lat="55.436186" lon="8.598218">
<ele>-0.006348</ele>
<time>2026-06-17T20:24:09.103Z</time>
</trkpt>
<trkpt lat="55.436352" lon="8.597831">
<ele>-0.016473</ele>
<time>2026-06-17T20:24:15.230Z</time>
</trkpt>
<trkpt lat="55.436535" lon="8.597514">
<ele>-0.025912</ele>
<time>2026-06-17T20:24:21.014Z</time>
</trkpt>
<trkpt lat="55.437579" lon="8.596074">
<ele>0.066663</ele>
<time>2026-06-17T20:24:51.399Z</time>
</trkpt>
<trkpt lat="55.438826" lon="8.594274">
<ele>0.172852</ele>
<time>2026-06-17T20:25:27.364Z</time>
</trkpt>
<trkpt lat="55.439200" lon="8.593690">
<ele>0.187543</ele>
<time>2026-06-17T20:25:38.377Z</time>
</trkpt>
<trkpt lat="55.439843" lon="8.592520">
<ele>0.210777</ele>
<time>2026-06-17T20:25:58.974Z</time>
</trkpt>
<trkpt lat="55.441926" lon="8.587545">
<ele>0.277968</ele>
<time>2026-06-17T20:27:17.658Z</time>
</trkpt>
<trkpt lat="55.441986" lon="8.587485">
<ele>0.276109</ele>
<time>2026-06-17T20:27:19.319Z</time>
</trkpt>
<trkpt lat="55.441993" lon="8.587363">
<ele>0.274236</ele>
<time>2026-06-17T20:27:21.016Z</time>
</trkpt>
<trkpt lat="55.442093" lon="8.587110">
<ele>0.269524</ele>
<time>2026-06-17T20:27:24.826Z</time>
</trkpt>
<trkpt lat="55.442215" lon="8.586832">
<ele>0.264154</ele>
<time>2026-06-17T20:27:29.154Z</time>
</trkpt>
<trkpt lat="55.442284" lon="8.586759">
<ele>0.261986</ele>
<time>2026-06-17T20:27:31.111Z</time>
</trkpt>
<trkpt lat="55.442292" lon="8.586652">
<ele>0.260337</ele>
<time>2026-06-17T20:27:32.580Z</time>
</trkpt>
<trkpt lat="55.443585" lon="8.583327">
<ele>0.226352</ele>
<time>2026-06-17T20:28:23.717Z</time>
</trkpt>
<trkpt lat="55.444122" lon="8.581602">
<ele>0.166833</ele>
<time>2026-06-17T20:28:47.800Z</time>
</trkpt>
<trkpt lat="55.444303" lon="8.580865">
<ele>0.134999</ele>
<time>2026-06-17T20:28:57.648Z</time>
</trkpt>
<trkpt lat="55.444527" lon="8.579727">
<ele>0.126892</ele>
<time>2026-06-17T20:29:12.904Z</time>
</trkpt>
<trkpt lat="55.444803" lon="8.577941">
<ele>0.321690</ele>
<time>2026-06-17T20:29:37.199Z</time>
</trkpt>
<trkpt lat="55.444883" lon="8.577609">
<ele>0.359649</ele>
<time>2026-06-17T20:29:41.959Z</time>
</trkpt>
<trkpt lat="55.445183" lon="8.576679">
<ele>0.451406</ele>
<time>2026-06-17T20:29:55.980Z</time>
</trkpt>
<trkpt lat="55.445251" lon="8.576388">
<ele>0.467464</ele>
<time>2026-06-17T20:30:00.060Z</time>
</trkpt>
<trkpt lat="55.446002" lon="8.571274">
<ele>0.699515</ele>
<time>2026-06-17T20:31:07.376Z</time>
</trkpt>
<trkpt lat="55.446413" lon="8.568666">
<ele>0.731180</ele>
<time>2026-06-17T20:31:41.890Z</time>
</trkpt>
<trkpt lat="55.446549" lon="8.568060">
<ele>0.736200</ele>
<time>2026-06-17T20:31:50.084Z</time>
</trkpt>
<trkpt lat="55.446684" lon="8.567582">
<ele>0.717196</ele>
<time>2026-06-17T20:31:56.740Z</time>
</trkpt>
<trkpt lat="55.447803" lon="8.564185">
<ele>0.516555</ele>
<time>2026-06-17T20:32:45.307Z</time>
</trkpt>
<trkpt lat="55.447952" lon="8.563816">
<ele>0.499494</ele>
<time>2026-06-17T20:32:50.889Z</time>
</trkpt>
<trkpt lat="55.448127" lon="8.563491">
<ele>0.482614</ele>
<time>2026-06-17T20:32:56.328Z</time>
</trkpt>
<trkpt lat="55.448298" lon="8.563257">
<ele>0.468240</ele>
<time>2026-06-17T20:33:00.924Z</time>
</trkpt>
<trkpt lat="55.448689" lon="8.562909">
<ele>0.440031</ele>
<time>2026-06-17T20:33:10.353Z</time>
</trkpt>
<trkpt lat="55.448839" lon="8.562838">
<ele>0.604496</ele>
<time>2026-06-17T20:33:13.869Z</time>
</trkpt>
<trkpt lat="55.449174" lon="8.562753">
<ele>0.962896</ele>
<time>2026-06-17T20:33:22.263Z</time>
</trkpt>
<trkpt lat="55.449362" lon="8.562759">
<ele>1.162011</ele>
<time>2026-06-17T20:33:27.167Z</time>
</trkpt>
<trkpt lat="55.449804" lon="8.562897">
<ele>1.637345</ele>
<time>2026-06-17T20:33:39.417Z</time>
</trkpt>
<trkpt lat="55.450211" lon="8.563117">
<ele>2.088131</ele>
<time>2026-06-17T20:33:51.742Z</time>
</trkpt>
<trkpt lat="55.451055" lon="8.563572">
<ele>3.012006</ele>
<time>2026-06-17T20:34:17.757Z</time>
</trkpt>
<trkpt lat="55.452628" lon="8.564255">
<ele>4.438980</ele>
<time>2026-06-17T20:35:01.721Z</time>
</trkpt>
<trkpt lat="55.452695" lon="8.564244">
<ele>4.471068</ele>
<time>2026-06-17T20:35:03.473Z</time>
</trkpt>
<trkpt lat="55.453665" lon="8.568112">
<ele>5.290629</ele>
<time>2026-06-17T20:36:00.400Z</time>
</trkpt>
<trkpt lat="55.453786" lon="8.568578">
<ele>5.345815</ele>
<time>2026-06-17T20:36:06.905Z</time>
</trkpt>
<trkpt lat="55.454036" lon="8.569500">
<ele>5.420463</ele>
<time>2026-06-17T20:36:19.528Z</time>
</trkpt>
<trkpt lat="55.454150" lon="8.569788">
<ele>5.423202</ele>
<time>2026-06-17T20:36:23.852Z</time>
</trkpt>
<trkpt lat="55.454328" lon="8.569993">
<ele>5.426127</ele>
<time>2026-06-17T20:36:28.428Z</time>
</trkpt>
<trkpt lat="55.454586" lon="8.570173">
<ele>5.429943</ele>
<time>2026-06-17T20:36:34.528Z</time>
</trkpt>
<trkpt lat="55.456401" lon="8.571241">
<ele>5.603049</ele>
<time>2026-06-17T20:37:18.303Z</time>
</trkpt>
<trkpt lat="55.458716" lon="8.572625">
<ele>5.979555</ele>
<time>2026-06-17T20:38:14.270Z</time>
</trkpt>
<trkpt lat="55.458960" lon="8.572767">
<ele>5.972553</ele>
<time>2026-06-17T20:38:20.144Z</time>
</trkpt>
<trkpt lat="55.459235" lon="8.571562">
<ele>5.773918</ele>
<time>2026-06-17T20:38:36.496Z</time>
</trkpt>
<trkpt lat="55.459384" lon="8.570891">
<ele>5.663720</ele>
<time>2026-06-17T20:38:45.467Z</time>
</trkpt>
<trkpt lat="55.459414" lon="8.570747">
<ele>5.640261</ele>
<time>2026-06-17T20:38:47.465Z</time>
</trkpt>
<trkpt lat="55.459530" lon="8.570223">
<ele>5.554240</ele>
<time>2026-06-17T20:38:54.238Z</time>
</trkpt>
<trkpt lat="55.459837" lon="8.568922">
<ele>4.692079</ele>
<time>2026-06-17T20:39:09.023Z</time>
</trkpt>
<trkpt lat="55.460134" lon="8.567745">
<ele>3.779710</ele>
<time>2026-06-17T20:39:22.270Z</time>
</trkpt>
<trkpt lat="55.461143" lon="8.563744">
<ele>1.726883</ele>
<time>2026-06-17T20:40:10.447Z</time>
</trkpt>
<trkpt lat="55.461328" lon="8.563097">
<ele>1.821517</ele>
<time>2026-06-17T20:40:19.620Z</time>
</trkpt>
<trkpt lat="55.461832" lon="8.561542">
<ele>2.055436</ele>
<time>2026-06-17T20:40:44.817Z</time>
</trkpt>
<trkpt lat="55.461866" lon="8.561310">
<ele>2.105340</ele>
<time>2026-06-17T20:40:48.420Z</time>
</trkpt>
<trkpt lat="55.461857" lon="8.560975">
<ele>2.238135</ele>
<time>2026-06-17T20:40:53.378Z</time>
</trkpt>
<trkpt lat="55.462040" lon="8.560932">
<ele>2.367071</ele>
<time>2026-06-17T20:40:58.197Z</time>
</trkpt>
<trkpt lat="55.462073" lon="8.560676">
<ele>2.471023</ele>
<time>2026-06-17T20:41:02.018Z</time>
</trkpt>
<trkpt lat="55.462318" lon="8.560223">
<ele>2.718916</ele>
<time>2026-06-17T20:41:11.004Z</time>
</trkpt>
<trkpt lat="55.462468" lon="8.559679">
<ele>2.958439</ele>
<time>2026-06-17T20:41:19.483Z</time>
</trkpt>
<trkpt lat="55.463085" lon="8.556831">
<ele>3.766002</ele>
<time>2026-06-17T20:42:01.350Z</time>
</trkpt>
<trkpt lat="55.463189" lon="8.556162">
<ele>3.908722</ele>
<time>2026-06-17T20:42:10.735Z</time>
</trkpt>
<trkpt lat="55.463278" lon="8.555466">
<ele>3.954556</ele>
<time>2026-06-17T20:42:19.809Z</time>
</trkpt>
<trkpt lat="55.463300" lon="8.554915">
<ele>3.902049</ele>
<time>2026-06-17T20:42:26.547Z</time>
</trkpt>
<trkpt lat="55.463467" lon="8.553635">
<ele>3.777194</ele>
<time>2026-06-17T20:42:41.996Z</time>
</trkpt>
<trkpt lat="55.463616" lon="8.552877">
<ele>3.700932</ele>
<time>2026-06-17T20:42:51.372Z</time>
</trkpt>
<trkpt lat="55.464299" lon="8.547577">
<ele>4.308465</ele>
<time>2026-06-17T20:44:04.846Z</time>
</trkpt>
<trkpt lat="55.464464" lon="8.546285">
<ele>4.186240</ele>
<time>2026-06-17T20:44:20.615Z</time>
</trkpt>
<trkpt lat="55.464866" lon="8.543142">
<ele>2.164174</ele>
<time>2026-06-17T20:44:54.548Z</time>
</trkpt>
<trkpt lat="55.465109" lon="8.541297">
<ele>1.330577</ele>
<time>2026-06-17T20:45:15.414Z</time>
</trkpt>
<trkpt lat="55.465251" lon="8.540398">
<ele>0.919865</ele>
<time>2026-06-17T20:45:26.476Z</time>
</trkpt>
<trkpt lat="55.466046" lon="8.536677">
<ele>0.898663</ele>
<time>2026-06-17T20:46:16.620Z</time>
</trkpt>
<trkpt lat="55.466298" lon="8.535307">
<ele>1.072819</ele>
<time>2026-06-17T20:46:35.424Z</time>
</trkpt>
<trkpt lat="55.466425" lon="8.534394">
<ele>1.186489</ele>
<time>2026-06-17T20:46:48.053Z</time>
</trkpt>
<trkpt lat="55.466940" lon="8.529630">
<ele>3.001039</ele>
<time>2026-06-17T20:47:56.799Z</time>
</trkpt>
<trkpt lat="55.467026" lon="8.528558">
<ele>3.425879</ele>
<time>2026-06-17T20:48:12.448Z</time>
</trkpt>
<trkpt lat="55.467070" lon="8.527425">
<ele>3.741841</ele>
<time>2026-06-17T20:48:28.125Z</time>
</trkpt>
<trkpt lat="55.467066" lon="8.526309">
<ele>3.967953</ele>
<time>2026-06-17T20:48:42.774Z</time>
</trkpt>
<trkpt lat="55.466966" lon="8.523989">
<ele>4.634245</ele>
<time>2026-06-17T20:49:13.773Z</time>
</trkpt>
<trkpt lat="55.466981" lon="8.523643">
<ele>4.775513</ele>
<time>2026-06-17T20:49:18.631Z</time>
</trkpt>
<trkpt lat="55.466957" lon="8.522767">
<ele>5.132550</ele>
<time>2026-06-17T20:49:31.213Z</time>
</trkpt>
<trkpt lat="55.466975" lon="8.522620">
<ele>5.193774</ele>
<time>2026-06-17T20:49:33.427Z</time>
</trkpt>
<trkpt lat="55.467076" lon="8.522503">
<ele>5.280547</ele>
<time>2026-06-17T20:49:36.637Z</time>
</trkpt>
<trkpt lat="55.467069" lon="8.522330">
<ele>5.351155</ele>
<time>2026-06-17T20:49:39.324Z</time>
</trkpt>
<trkpt lat="55.467062" lon="8.522168">
<ele>5.417296</ele>
<time>2026-06-17T20:49:41.830Z</time>
</trkpt>
<trkpt lat="55.466924" lon="8.522026">
<ele>5.532028</ele>
<time>2026-06-17T20:49:46.270Z</time>
</trkpt>
<trkpt lat="55.466852" lon="8.521716">
<ele>5.608755</ele>
<time>2026-06-17T20:49:51.439Z</time>
</trkpt>
<trkpt lat="55.466768" lon="8.520176">
<ele>5.950595</ele>
<time>2026-06-17T20:50:13.728Z</time>
</trkpt>
<trkpt lat="55.466503" lon="8.515037">
<ele>5.756583</ele>
<time>2026-06-17T20:51:15.054Z</time>
</trkpt>
<trkpt lat="55.466428" lon="8.513230">
<ele>5.982895</ele>
<time>2026-06-17T20:51:38.628Z</time>
</trkpt>
<trkpt lat="55.466454" lon="8.513154">
<ele>5.993982</ele>
<time>2026-06-17T20:51:39.903Z</time>
</trkpt>
<trkpt lat="55.466587" lon="8.513030">
<ele>6.027128</ele>
<time>2026-06-17T20:51:43.802Z</time>
</trkpt>
<trkpt lat="55.466737" lon="8.512787">
<ele>6.080277</ele>
<time>2026-06-17T20:51:49.083Z</time>
</trkpt>
<trkpt lat="55.466848" lon="8.512146">
<ele>6.324837</ele>
<time>2026-06-17T20:51:58.969Z</time>
</trkpt>
<trkpt lat="55.466886" lon="8.511897">
<ele>6.418927</ele>
<time>2026-06-17T20:52:02.771Z</time>
</trkpt>
<trkpt lat="55.466971" lon="8.511329">
<ele>6.633280</ele>
<time>2026-06-17T20:52:11.371Z</time>
</trkpt>
<trkpt lat="55.467024" lon="8.510968">
<ele>6.769348</ele>
<time>2026-06-17T20:52:16.770Z</time>
</trkpt>
<trkpt lat="55.467118" lon="8.510328">
<ele>7.010583</ele>
<time>2026-06-17T20:52:26.154Z</time>
</trkpt>
<trkpt lat="55.467151" lon="8.510103">
<ele>7.095384</ele>
<time>2026-06-17T20:52:29.316Z</time>
</trkpt>
<trkpt lat="55.467153" lon="8.509946">
<ele>7.152685</ele>
<time>2026-06-17T20:52:31.396Z</time>
</trkpt>
<trkpt lat="55.467090" lon="8.509778">
<ele>7.225279</ele>
<time>2026-06-17T20:52:33.992Z</time>
</trkpt>
<trkpt lat="55.466810" lon="8.509654">
<ele>7.191658</ele>
<time>2026-06-17T20:52:40.316Z</time>
</trkpt>
<trkpt lat="55.466721" lon="8.509581">
<ele>7.180228</ele>
<time>2026-06-17T20:52:42.420Z</time>
</trkpt>
<trkpt lat="55.466686" lon="8.509482">
<ele>7.172525</ele>
<time>2026-06-17T20:52:43.809Z</time>
</trkpt>
<trkpt lat="55.466701" lon="8.509311">
<ele>7.161101</ele>
<time>2026-06-17T20:52:45.875Z</time>
</trkpt>
<trkpt lat="55.466504" lon="8.509132">
<ele>7.135294</ele>
<time>2026-06-17T20:52:50.573Z</time>
</trkpt>
<trkpt lat="55.466355" lon="8.508926">
<ele>7.113246</ele>
<time>2026-06-17T20:52:54.631Z</time>
</trkpt>
<trkpt lat="55.466216" lon="8.508649">
<ele>7.088823</ele>
<time>2026-06-17T20:52:59.148Z</time>
</trkpt>
<trkpt lat="55.466121" lon="8.508377">
<ele>7.067731</ele>
<time>2026-06-17T20:53:03.035Z</time>
</trkpt>
<trkpt lat="55.466021" lon="8.507859">
<ele>7.031603</ele>
<time>2026-06-17T20:53:09.692Z</time>
</trkpt>
<trkpt lat="55.465968" lon="8.506966">
<ele>7.068940</ele>
<time>2026-06-17T20:53:20.650Z</time>
</trkpt>
<trkpt lat="55.465881" lon="8.505284">
<ele>7.204407</ele>
<time>2026-06-17T20:53:42.829Z</time>
</trkpt>
<trkpt lat="55.465824" lon="8.504148">
<ele>7.318052</ele>
<time>2026-06-17T20:53:58.002Z</time>
</trkpt>
<trkpt lat="55.465745" lon="8.502601">
<ele>7.551165</ele>
<time>2026-06-17T20:54:19.138Z</time>
</trkpt>
<trkpt lat="55.465712" lon="8.501937">
<ele>7.651200</ele>
<time>2026-06-17T20:54:27.808Z</time>
</trkpt>
<trkpt lat="55.465665" lon="8.501029">
<ele>7.710129</ele>
<time>2026-06-17T20:54:39.386Z</time>
</trkpt>
<trkpt lat="55.465652" lon="8.500797">
<ele>7.679349</ele>
<time>2026-06-17T20:54:42.286Z</time>
</trkpt>
<trkpt lat="55.465525" lon="8.498423">
<ele>7.364527</ele>
<time>2026-06-17T20:55:10.844Z</time>
</trkpt>
<trkpt lat="55.465493" lon="8.497927">
<ele>7.335502</ele>
<time>2026-06-17T20:55:16.721Z</time>
</trkpt>
<trkpt lat="55.465483" lon="8.497807">
<ele>7.339796</ele>
<time>2026-06-17T20:55:18.150Z</time>
</trkpt>
<trkpt lat="55.465461" lon="8.497517">
<ele>7.350153</ele>
<time>2026-06-17T20:55:21.588Z</time>
</trkpt>
<trkpt lat="55.465519" lon="8.497244">
<ele>7.360474</ele>
<time>2026-06-17T20:55:25.001Z</time>
</trkpt>
<trkpt lat="55.465317" lon="8.495225">
<ele>7.433051</ele>
<time>2026-06-17T20:55:50.819Z</time>
</trkpt>
<trkpt lat="55.468361" lon="8.494274">
<ele>10.712691</ele>
<time>2026-06-17T20:57:17.253Z</time>
</trkpt>
<trkpt lat="55.468848" lon="8.494122">
<ele>11.268066</ele>
<time>2026-06-17T20:57:31.140Z</time>
</trkpt>
<trkpt lat="55.472139" lon="8.493168">
<ele>13.296194</ele>
<time>2026-06-17T20:58:57.880Z</time>
</trkpt>
<trkpt lat="55.472567" lon="8.493044">
<ele>13.408195</ele>
<time>2026-06-17T20:59:07.200Z</time>
</trkpt>
<trkpt lat="55.472690" lon="8.493007">
<ele>13.336698</ele>
<time>2026-06-17T20:59:09.870Z</time>
</trkpt>
<trkpt lat="55.472902" lon="8.492968">
<ele>13.214562</ele>
<time>2026-06-17T20:59:14.364Z</time>
</trkpt>
<trkpt lat="55.473814" lon="8.492963">
<ele>12.691976</ele>
<time>2026-06-17T20:59:32.855Z</time>
</trkpt>
<trkpt lat="55.474521" lon="8.492954">
<ele>12.511386</ele>
<time>2026-06-17T20:59:48.477Z</time>
</trkpt>
<trkpt lat="55.474973" lon="8.492881">
<ele>12.743798</ele>
<time>2026-06-17T20:59:58.807Z</time>
</trkpt>
<trkpt lat="55.475504" lon="8.492679">
<ele>13.021942</ele>
<time>2026-06-17T21:00:12.458Z</time>
</trkpt>
<trkpt lat="55.475965" lon="8.492420">
<ele>13.269673</ele>
<time>2026-06-17T21:00:26.161Z</time>
</trkpt>
<trkpt lat="55.476347" lon="8.492130">
<ele>13.725286</ele>
<time>2026-06-17T21:00:38.356Z</time>
</trkpt>
<trkpt lat="55.476784" lon="8.491688">
<ele>14.383920</ele>
<time>2026-06-17T21:00:52.979Z</time>
</trkpt>
<trkpt lat="55.477142" lon="8.491234">
<ele>14.960392</ele>
<time>2026-06-17T21:01:05.609Z</time>
</trkpt>
<trkpt lat="55.477609" lon="8.490488">
<ele>15.801860</ele>
<time>2026-06-17T21:01:23.048Z</time>
</trkpt>
<trkpt lat="55.477896" lon="8.489944">
<ele>16.445081</ele>
<time>2026-06-17T21:01:34.537Z</time>
</trkpt>
<trkpt lat="55.477935" lon="8.489872">
<ele>16.531276</ele>
<time>2026-06-17T21:01:36.026Z</time>
</trkpt>
<trkpt lat="55.477970" lon="8.489804">
<ele>16.610774</ele>
<time>2026-06-17T21:01:37.483Z</time>
</trkpt>
<trkpt lat="55.478040" lon="8.489673">
<ele>16.766594</ele>
<time>2026-06-17T21:01:40.303Z</time>
</trkpt>
<trkpt lat="55.478085" lon="8.489580">
<ele>16.872424</ele>
<time>2026-06-17T21:01:42.294Z</time>
</trkpt>
<trkpt lat="55.478292" lon="8.489047">
<ele>17.431616</ele>
<time>2026-06-17T21:01:52.986Z</time>
</trkpt>
<trkpt lat="55.478358" lon="8.488777">
<ele>17.686090</ele>
<time>2026-06-17T21:01:57.994Z</time>
</trkpt>
<trkpt lat="55.478381" lon="8.488371">
<ele>18.039203</ele>
<time>2026-06-17T21:02:05.116Z</time>
</trkpt>
<trkpt lat="55.478396" lon="8.488200">
<ele>18.188953</ele>
<time>2026-06-17T21:02:08.085Z</time>
</trkpt>
<trkpt lat="55.478454" lon="8.487552">
<ele>18.937351</ele>
<time>2026-06-17T21:02:19.979Z</time>
</trkpt>
<trkpt lat="55.478512" lon="8.486918">
<ele>19.795781</ele>
<time>2026-06-17T21:02:31.926Z</time>
</trkpt>
<trkpt lat="55.478525" lon="8.486769">
<ele>19.997294</ele>
<time>2026-06-17T21:02:34.798Z</time>
</trkpt>
<trkpt lat="55.478665" lon="8.485214">
<ele>22.101901</ele>
<time>2026-06-17T21:03:04.355Z</time>
</trkpt>
<trkpt lat="55.478676" lon="8.485092">
<ele>22.267027</ele>
<time>2026-06-17T21:03:06.647Z</time>
</trkpt>
<trkpt lat="55.478738" lon="8.484385">
<ele>23.009045</ele>
<time>2026-06-17T21:03:19.968Z</time>
</trkpt>
<trkpt lat="55.478746" lon="8.484294">
<ele>23.084701</ele>
<time>2026-06-17T21:03:21.645Z</time>
</trkpt>
<trkpt lat="55.478765" lon="8.484088">
<ele>23.256167</ele>
<time>2026-06-17T21:03:25.453Z</time>
</trkpt>
<trkpt lat="55.478815" lon="8.483497">
<ele>23.747085</ele>
<time>2026-06-17T21:03:36.156Z</time>
</trkpt>
<trkpt lat="55.478944" lon="8.481800">
<ele>25.153742</ele>
<time>2026-06-17T21:04:03.079Z</time>
</trkpt>
<trkpt lat="55.478950" lon="8.481720">
<ele>25.220039</ele>
<time>2026-06-17T21:04:04.198Z</time>
</trkpt>
<trkpt lat="55.479001" lon="8.481056">
<ele>25.057718</ele>
<time>2026-06-17T21:04:13.232Z</time>
</trkpt>
<trkpt lat="55.479016" lon="8.480885">
<ele>24.995471</ele>
<time>2026-06-17T21:04:15.392Z</time>
</trkpt>
<trkpt lat="55.479036" lon="8.480665">
<ele>24.915318</ele>
<time>2026-06-17T21:04:18.157Z</time>
</trkpt>
<trkpt lat="55.479075" lon="8.480298">
<ele>24.780994</ele>
<time>2026-06-17T21:04:22.586Z</time>
</trkpt>
<trkpt lat="55.479117" lon="8.479889">
<ele>24.631467</ele>
<time>2026-06-17T21:04:27.302Z</time>
</trkpt>
<trkpt lat="55.479170" lon="8.479378">
<ele>24.444591</ele>
<time>2026-06-17T21:04:33.099Z</time>
</trkpt>
<trkpt lat="55.479209" lon="8.478998">
<ele>24.305669</ele>
<time>2026-06-17T21:04:37.462Z</time>
</trkpt>
<trkpt lat="55.479268" lon="8.477978">
<ele>23.610070</ele>
<time>2026-06-17T21:04:48.976Z</time>
</trkpt>
<trkpt lat="55.479303" lon="8.477375">
<ele>23.028886</ele>
<time>2026-06-17T21:04:55.639Z</time>
</trkpt>
<trkpt lat="55.479337" lon="8.476818">
<ele>22.491742</ele>
<time>2026-06-17T21:05:01.663Z</time>
</trkpt>
<trkpt lat="55.479428" lon="8.475338">
<ele>21.059454</ele>
<time>2026-06-17T21:05:17.206Z</time>
</trkpt>
<trkpt lat="55.479453" lon="8.474924">
<ele>20.583221</ele>
<time>2026-06-17T21:05:21.479Z</time>
</trkpt>
<trkpt lat="55.479479" lon="8.474469">
<ele>20.060132</ele>
<time>2026-06-17T21:05:26.187Z</time>
</trkpt>
<trkpt lat="55.479522" lon="8.473825">
<ele>19.318400</ele>
<time>2026-06-17T21:05:32.843Z</time>
</trkpt>
<trkpt lat="55.479525" lon="8.473775">
<ele>19.260888</ele>
<time>2026-06-17T21:05:33.366Z</time>
</trkpt>
<trkpt lat="55.479544" lon="8.473493">
<ele>18.936053</ele>
<time>2026-06-17T21:05:36.291Z</time>
</trkpt>
<trkpt lat="55.479569" lon="8.473131">
<ele>18.518918</ele>
<time>2026-06-17T21:05:40.084Z</time>
</trkpt>
<trkpt lat="55.479576" lon="8.473029">
<ele>18.401393</ele>
<time>2026-06-17T21:05:41.154Z</time>
</trkpt>
<trkpt lat="55.479602" lon="8.472575">
<ele>17.879444</ele>
<time>2026-06-17T21:05:45.988Z</time>
</trkpt>
<trkpt lat="55.479644" lon="8.471806">
<ele>17.170164</ele>
<time>2026-06-17T21:05:54.328Z</time>
</trkpt>
<trkpt lat="55.479663" lon="8.471578">
<ele>17.005702</ele>
<time>2026-06-17T21:05:56.857Z</time>
</trkpt>
<trkpt lat="55.479690" lon="8.471142">
<ele>16.692697</ele>
<time>2026-06-17T21:06:01.643Z</time>
</trkpt>
<trkpt lat="55.479711" lon="8.470814">
<ele>16.457130</ele>
<time>2026-06-17T21:06:05.217Z</time>
</trkpt>
<trkpt lat="55.479753" lon="8.470149">
<ele>15.979614</ele>
<time>2026-06-17T21:06:12.525Z</time>
</trkpt>
<trkpt lat="55.479786" lon="8.469319">
<ele>15.385829</ele>
<time>2026-06-17T21:06:22.100Z</time>
</trkpt>
<trkpt lat="55.479794" lon="8.468413">
<ele>15.048293</ele>
<time>2026-06-17T21:06:33.092Z</time>
</trkpt>
<trkpt lat="55.479784" lon="8.467802">
<ele>14.908257</ele>
<time>2026-06-17T21:06:40.761Z</time>
</trkpt>
<trkpt lat="55.479756" lon="8.467259">
<ele>14.783343</ele>
<time>2026-06-17T21:06:47.780Z</time>
</trkpt>
<trkpt lat="55.479714" lon="8.466631">
<ele>14.638472</ele>
<time>2026-06-17T21:06:55.821Z</time>
</trkpt>
<trkpt lat="55.479512" lon="8.463556">
<ele>13.202218</ele>
<time>2026-06-17T21:07:30.888Z</time>
</trkpt>
<trkpt lat="55.479509" lon="8.463512">
<ele>13.178345</ele>
<time>2026-06-17T21:07:31.340Z</time>
</trkpt>
<trkpt lat="55.479499" lon="8.463350">
<ele>13.090562</ele>
<time>2026-06-17T21:07:32.986Z</time>
</trkpt>
<trkpt lat="55.479490" lon="8.463228">
<ele>13.024287</ele>
<time>2026-06-17T21:07:34.247Z</time>
</trkpt>
<trkpt lat="55.479416" lon="8.462135">
<ele>12.452451</ele>
<time>2026-06-17T21:07:45.503Z</time>
</trkpt>
<trkpt lat="55.479354" lon="8.461201">
<ele>11.978696</ele>
<time>2026-06-17T21:07:55.396Z</time>
</trkpt>
<trkpt lat="55.479290" lon="8.460471">
<ele>11.606554</ele>
<time>2026-06-17T21:08:03.755Z</time>
</trkpt>
<trkpt lat="55.479252" lon="8.460130">
<ele>11.431472</ele>
<time>2026-06-17T21:08:07.917Z</time>
</trkpt>
<trkpt lat="55.479171" lon="8.459426">
<ele>11.156037</ele>
<time>2026-06-17T21:08:16.831Z</time>
</trkpt>
<trkpt lat="55.479160" lon="8.459325">
<ele>11.154538</ele>
<time>2026-06-17T21:08:18.145Z</time>
</trkpt>
<trkpt lat="55.478988" lon="8.457755">
<ele>11.131232</ele>
<time>2026-06-17T21:08:38.362Z</time>
</trkpt>
<trkpt lat="55.478976" lon="8.457639">
<ele>11.129513</ele>
<time>2026-06-17T21:08:39.819Z</time>
</trkpt>
<trkpt lat="55.478968" lon="8.457566">
<ele>11.128429</ele>
<time>2026-06-17T21:08:40.734Z</time>
</trkpt>
<trkpt lat="55.478837" lon="8.456319">
<ele>11.124758</ele>
<time>2026-06-17T21:08:56.392Z</time>
</trkpt>
<trkpt lat="55.478703" lon="8.455097">
<ele>11.218131</ele>
<time>2026-06-17T21:09:13.375Z</time>
</trkpt>
<trkpt lat="55.478667" lon="8.454791">
<ele>11.241576</ele>
<time>2026-06-17T21:09:17.722Z</time>
</trkpt>
<trkpt lat="55.478650" lon="8.454642">
<ele>11.252978</ele>
<time>2026-06-17T21:09:19.750Z</time>
</trkpt>
<trkpt lat="55.478580" lon="8.453965">
<ele>11.304604</ele>
<time>2026-06-17T21:09:28.724Z</time>
</trkpt>
<trkpt lat="55.478441" lon="8.453178">
<ele>11.327717</ele>
<time>2026-06-17T21:09:38.399Z</time>
</trkpt>
<trkpt lat="55.478317" lon="8.452417">
<ele>11.243290</ele>
<time>2026-06-17T21:09:48.215Z</time>
</trkpt>
<trkpt lat="55.478249" lon="8.452146">
<ele>11.211689</ele>
<time>2026-06-17T21:09:51.804Z</time>
</trkpt>
<trkpt lat="55.478141" lon="8.451673">
<ele>11.157316</ele>
<time>2026-06-17T21:09:57.720Z</time>
</trkpt>
<trkpt lat="55.478062" lon="8.451296">
<ele>11.114459</ele>
<time>2026-06-17T21:10:02.362Z</time>
</trkpt>
<trkpt lat="55.477991" lon="8.450954">
<ele>11.075624</ele>
<time>2026-06-17T21:10:06.563Z</time>
</trkpt>
<trkpt lat="55.477769" lon="8.449917">
<ele>11.141703</ele>
<time>2026-06-17T21:10:20.996Z</time>
</trkpt>
<trkpt lat="55.477671" lon="8.449459">
<ele>11.265607</ele>
<time>2026-06-17T21:10:28.171Z</time>
</trkpt>
<trkpt lat="55.477539" lon="8.448843">
<ele>11.432286</ele>
<time>2026-06-17T21:10:37.399Z</time>
</trkpt>
<trkpt lat="55.477535" lon="8.448701">
<ele>11.468270</ele>
<time>2026-06-17T21:10:39.378Z</time>
</trkpt>
<trkpt lat="55.477467" lon="8.448351">
<ele>11.561914</ele>
<time>2026-06-17T21:10:44.597Z</time>
</trkpt>
<trkpt lat="55.477198" lon="8.447052">
<ele>11.729299</ele>
<time>2026-06-17T21:11:03.667Z</time>
</trkpt>
<trkpt lat="55.477183" lon="8.446979">
<ele>11.711809</ele>
<time>2026-06-17T21:11:04.682Z</time>
</trkpt>
<trkpt lat="55.477165" lon="8.446891">
<ele>11.690736</ele>
<time>2026-06-17T21:11:05.881Z</time>
</trkpt>
<trkpt lat="55.477059" lon="8.446367">
<ele>11.565417</ele>
<time>2026-06-17T21:11:12.847Z</time>
</trkpt>
<trkpt lat="55.476984" lon="8.445811">
<ele>11.436685</ele>
<time>2026-06-17T21:11:19.689Z</time>
</trkpt>
<trkpt lat="55.476975" lon="8.445397">
<ele>11.343366</ele>
<time>2026-06-17T21:11:24.483Z</time>
</trkpt>
<trkpt lat="55.477079" lon="8.444078">
<ele>10.931054</ele>
<time>2026-06-17T21:11:39.014Z</time>
</trkpt>
<trkpt lat="55.477132" lon="8.443491">
<ele>10.533488</ele>
<time>2026-06-17T21:11:45.258Z</time>
</trkpt>
<trkpt lat="55.477149" lon="8.443288">
<ele>10.396237</ele>
<time>2026-06-17T21:11:47.392Z</time>
</trkpt>
<trkpt lat="55.477161" lon="8.443171">
<ele>10.316711</ele>
<time>2026-06-17T21:11:48.632Z</time>
</trkpt>
<trkpt lat="55.477175" lon="8.443010">
<ele>10.207766</ele>
<time>2026-06-17T21:11:50.324Z</time>
</trkpt>
<trkpt lat="55.477189" lon="8.442908">
<ele>10.137571</ele>
<time>2026-06-17T21:11:51.423Z</time>
</trkpt>
<trkpt lat="55.477236" lon="8.442550">
<ele>9.891783</ele>
<time>2026-06-17T21:11:55.304Z</time>
</trkpt>
<trkpt lat="55.477307" lon="8.442013">
<ele>9.522967</ele>
<time>2026-06-17T21:12:01.186Z</time>
</trkpt>
<trkpt lat="55.477446" lon="8.441057">
<ele>8.929626</ele>
<time>2026-06-17T21:12:11.901Z</time>
</trkpt>
<trkpt lat="55.477497" lon="8.440684">
<ele>8.822160</ele>
<time>2026-06-17T21:12:16.158Z</time>
</trkpt>
<trkpt lat="55.477572" lon="8.440139">
<ele>8.665083</ele>
<time>2026-06-17T21:12:22.587Z</time>
</trkpt>
<trkpt lat="55.477585" lon="8.440035">
<ele>8.635255</ele>
<time>2026-06-17T21:12:23.844Z</time>
</trkpt>
<trkpt lat="55.477635" lon="8.439685">
<ele>8.534162</ele>
<time>2026-06-17T21:12:28.172Z</time>
</trkpt>
<trkpt lat="55.477688" lon="8.439298">
<ele>8.422653</ele>
<time>2026-06-17T21:12:33.061Z</time>
</trkpt>
<trkpt lat="55.477752" lon="8.438823">
<ele>8.285909</ele>
<time>2026-06-17T21:12:39.111Z</time>
</trkpt>
<trkpt lat="55.477772" lon="8.438674">
<ele>8.243023</ele>
<time>2026-06-17T21:12:40.967Z</time>
</trkpt>
<trkpt lat="55.477826" lon="8.438280">
<ele>8.129493</ele>
<time>2026-06-17T21:12:45.733Z</time>
</trkpt>
<trkpt lat="55.477950" lon="8.437285">
<ele>7.735484</ele>
<time>2026-06-17T21:12:57.610Z</time>
</trkpt>
<trkpt lat="55.478058" lon="8.436379">
<ele>7.361021</ele>
<time>2026-06-17T21:13:08.212Z</time>
</trkpt>
<trkpt lat="55.478201" lon="8.435701">
<ele>7.068419</ele>
<time>2026-06-17T21:13:16.068Z</time>
</trkpt>
<trkpt lat="55.478470" lon="8.434574">
<ele>6.548498</ele>
<time>2026-06-17T21:13:29.556Z</time>
</trkpt>
<trkpt lat="55.478567" lon="8.434171">
<ele>6.352033</ele>
<time>2026-06-17T21:13:34.603Z</time>
</trkpt>
<trkpt lat="55.478612" lon="8.433975">
<ele>6.257142</ele>
<time>2026-06-17T21:13:37.022Z</time>
</trkpt>
<trkpt lat="55.478704" lon="8.433504">
<ele>6.033599</ele>
<time>2026-06-17T21:13:42.630Z</time>
</trkpt>
<trkpt lat="55.478806" lon="8.432933">
<ele>5.764958</ele>
<time>2026-06-17T21:13:49.317Z</time>
</trkpt>
<trkpt lat="55.478868" lon="8.432527">
<ele>5.576285</ele>
<time>2026-06-17T21:13:54.080Z</time>
</trkpt>
<trkpt lat="55.478896" lon="8.432344">
<ele>5.491231</ele>
<time>2026-06-17T21:13:56.238Z</time>
</trkpt>
<trkpt lat="55.478938" lon="8.432078">
<ele>5.366229</ele>
<time>2026-06-17T21:13:59.394Z</time>
</trkpt>
<trkpt lat="55.479036" lon="8.431424">
<ele>5.038378</ele>
<time>2026-06-17T21:14:06.972Z</time>
</trkpt>
<trkpt lat="55.479106" lon="8.430973">
<ele>4.811754</ele>
<time>2026-06-17T21:14:12.070Z</time>
</trkpt>
<trkpt lat="55.479238" lon="8.430049">
<ele>4.349934</ele>
<time>2026-06-17T21:14:22.300Z</time>
</trkpt>
<trkpt lat="55.479230" lon="8.429728">
<ele>4.194214</ele>
<time>2026-06-17T21:14:25.875Z</time>
</trkpt>
<trkpt lat="55.479516" lon="8.429389">
<ele>3.899571</ele>
<time>2026-06-17T21:14:32.814Z</time>
</trkpt>
<trkpt lat="55.479664" lon="8.429220">
<ele>3.816090</ele>
<time>2026-06-17T21:14:36.377Z</time>
</trkpt>
<trkpt lat="55.480001" lon="8.428826">
<ele>3.717668</ele>
<time>2026-06-17T21:14:44.724Z</time>
</trkpt>
<trkpt lat="55.480783" lon="8.427883">
<ele>3.487070</ele>
<time>2026-06-17T21:15:05.403Z</time>
</trkpt>
<trkpt lat="55.481515" lon="8.427019">
<ele>3.359740</ele>
<time>2026-06-17T21:15:24.899Z</time>
</trkpt>
<trkpt lat="55.482860" lon="8.425384">
<ele>3.178162</ele>
<time>2026-06-17T21:16:00.527Z</time>
</trkpt>
<trkpt lat="55.483194" lon="8.424870">
<ele>3.087743</ele>
<time>2026-06-17T21:16:10.204Z</time>
</trkpt>
<trkpt lat="55.483635" lon="8.424005">
<ele>2.953216</ele>
<time>2026-06-17T21:16:24.380Z</time>
</trkpt>
<trkpt lat="55.483705" lon="8.423829">
<ele>2.928356</ele>
<time>2026-06-17T21:16:26.939Z</time>
</trkpt>
<trkpt lat="55.483821" lon="8.423547">
<ele>2.887693</ele>
<time>2026-06-17T21:16:31.068Z</time>
</trkpt>
<trkpt lat="55.483764" lon="8.423485">
<ele>2.851581</ele>
<time>2026-06-17T21:16:32.445Z</time>
</trkpt>
<trkpt lat="55.483955" lon="8.422919">
<ele>2.650256</ele>
<time>2026-06-17T21:16:40.040Z</time>
</trkpt>
<trkpt lat="55.484704" lon="8.420249">
<ele>1.810508</ele>
<time>2026-06-17T21:17:14.227Z</time>
</trkpt>
<trkpt lat="55.485036" lon="8.419410">
<ele>1.621737</ele>
<time>2026-06-17T21:17:26.523Z</time>
</trkpt>
<trkpt lat="55.485126" lon="8.419108">
<ele>1.558794</ele>
<time>2026-06-17T21:17:30.623Z</time>
</trkpt>
<trkpt lat="55.485215" lon="8.418805">
<ele>1.495838</ele>
<time>2026-06-17T21:17:34.746Z</time>
</trkpt>
<trkpt lat="55.485296" lon="8.418628">
<ele>1.453869</ele>
<time>2026-06-17T21:17:37.502Z</time>
</trkpt>
<trkpt lat="55.485408" lon="8.418580">
<ele>1.416348</ele>
<time>2026-06-17T21:17:40.017Z</time>
</trkpt>
<trkpt lat="55.485482" lon="8.418422">
<ele>1.378535</ele>
<time>2026-06-17T21:17:42.532Z</time>
</trkpt>
<trkpt lat="55.485487" lon="8.418218">
<ele>1.340869</ele>
<time>2026-06-17T21:17:45.040Z</time>
</trkpt>
<trkpt lat="55.485461" lon="8.418124">
<ele>1.336177</ele>
<time>2026-06-17T21:17:46.318Z</time>
</trkpt>
<trkpt lat="55.485518" lon="8.417852">
<ele>1.353050</ele>
<time>2026-06-17T21:17:49.864Z</time>
</trkpt>
<trkpt lat="55.485783" lon="8.417139">
<ele>1.402664</ele>
<time>2026-06-17T21:18:00.276Z</time>
</trkpt>
<trkpt lat="55.486369" lon="8.415593">
<ele>1.510887</ele>
<time>2026-06-17T21:18:24.599Z</time>
</trkpt>
<trkpt lat="55.487019" lon="8.413879">
<ele>2.232334</ele>
<time>2026-06-17T21:18:53.143Z</time>
</trkpt>
<trkpt lat="55.487297" lon="8.413206">
<ele>2.537540</ele>
<time>2026-06-17T21:19:05.100Z</time>
</trkpt>
<trkpt lat="55.487356" lon="8.413054">
<ele>2.605058</ele>
<time>2026-06-17T21:19:07.838Z</time>
</trkpt>
<trkpt lat="55.487407" lon="8.412928">
<ele>2.661802</ele>
<time>2026-06-17T21:19:10.089Z</time>
</trkpt>
<trkpt lat="55.487480" lon="8.412743">
<ele>2.789959</ele>
<time>2026-06-17T21:19:13.439Z</time>
</trkpt>
<trkpt lat="55.487542" lon="8.412598">
<ele>2.904088</ele>
<time>2026-06-17T21:19:16.250Z</time>
</trkpt>
<trkpt lat="55.487684" lon="8.412266">
<ele>3.165432</ele>
<time>2026-06-17T21:19:22.661Z</time>
</trkpt>
<trkpt lat="55.487859" lon="8.411904">
<ele>3.464398</ele>
<time>2026-06-17T21:19:30.041Z</time>
</trkpt>
<trkpt lat="55.487962" lon="8.411705">
<ele>3.633737</ele>
<time>2026-06-17T21:19:34.226Z</time>
</trkpt>
<trkpt lat="55.488222" lon="8.411056">
<ele>4.133107</ele>
<time>2026-06-17T21:19:46.755Z</time>
</trkpt>
<trkpt lat="55.488812" lon="8.410025">
<ele>5.139779</ele>
<time>2026-06-17T21:20:10.357Z</time>
</trkpt>
<trkpt lat="55.489231" lon="8.409293">
<ele>5.942052</ele>
<time>2026-06-17T21:20:27.307Z</time>
</trkpt>
<trkpt lat="55.489819" lon="8.408290">
<ele>7.054838</ele>
<time>2026-06-17T21:20:51.075Z</time>
</trkpt>
<trkpt lat="55.490140" lon="8.407751">
<ele>7.416261</ele>
<time>2026-06-17T21:21:03.225Z</time>
</trkpt>
<trkpt lat="55.490713" lon="8.406835">
<ele>7.993371</ele>
<time>2026-06-17T21:21:23.285Z</time>
</trkpt>
<trkpt lat="55.491283" lon="8.405949">
<ele>8.524959</ele>
<time>2026-06-17T21:21:42.126Z</time>
</trkpt>
<trkpt lat="55.491845" lon="8.405079">
<ele>8.874724</ele>
<time>2026-06-17T21:22:01.132Z</time>
</trkpt>
<trkpt lat="55.491971" lon="8.404884">
<ele>8.953132</ele>
<time>2026-06-17T21:22:05.383Z</time>
</trkpt>
<trkpt lat="55.492144" lon="8.404615">
<ele>9.061007</ele>
<time>2026-06-17T21:22:11.189Z</time>
</trkpt>
<trkpt lat="55.492299" lon="8.404373">
<ele>9.157832</ele>
<time>2026-06-17T21:22:16.495Z</time>
</trkpt>
<trkpt lat="55.492348" lon="8.404296">
<ele>9.188528</ele>
<time>2026-06-17T21:22:18.176Z</time>
</trkpt>
<trkpt lat="55.492430" lon="8.404168">
<ele>9.239747</ele>
<time>2026-06-17T21:22:20.954Z</time>
</trkpt>
<trkpt lat="55.492578" lon="8.403937">
<ele>9.299519</ele>
<time>2026-06-17T21:22:25.814Z</time>
</trkpt>
<trkpt lat="55.492958" lon="8.403345">
<ele>9.227745</ele>
<time>2026-06-17T21:22:38.010Z</time>
</trkpt>
<trkpt lat="55.493206" lon="8.402957">
<ele>9.180816</ele>
<time>2026-06-17T21:22:45.562Z</time>
</trkpt>
<trkpt lat="55.493389" lon="8.402635">
<ele>9.144225</ele>
<time>2026-06-17T21:22:51.278Z</time>
</trkpt>
<trkpt lat="55.493637" lon="8.402197">
<ele>9.094544</ele>
<time>2026-06-17T21:22:59.012Z</time>
</trkpt>
<trkpt lat="55.493834" lon="8.401850">
<ele>9.055133</ele>
<time>2026-06-17T21:23:04.896Z</time>
</trkpt>
<trkpt lat="55.494152" lon="8.401289">
<ele>8.941219</ele>
<time>2026-06-17T21:23:14.086Z</time>
</trkpt>
<trkpt lat="55.494856" lon="8.400047">
<ele>8.684032</ele>
<time>2026-06-17T21:23:36.751Z</time>
</trkpt>
<trkpt lat="55.495159" lon="8.399531">
<ele>8.575608</ele>
<time>2026-06-17T21:23:46.280Z</time>
</trkpt>
<trkpt lat="55.495187" lon="8.399482">
<ele>8.565721</ele>
<time>2026-06-17T21:23:47.149Z</time>
</trkpt>
<trkpt lat="55.495497" lon="8.398953">
<ele>8.457600</ele>
<time>2026-06-17T21:23:57.074Z</time>
</trkpt>
<trkpt lat="55.495525" lon="8.398907">
<ele>8.448008</ele>
<time>2026-06-17T21:23:57.937Z</time>
</trkpt>
<trkpt lat="55.495902" lon="8.398293">
<ele>8.319380</ele>
<time>2026-06-17T21:24:09.779Z</time>
</trkpt>
<trkpt lat="55.496201" lon="8.397894">
<ele>8.225388</ele>
<time>2026-06-17T21:24:17.643Z</time>
</trkpt>
<trkpt lat="55.497040" lon="8.396778">
<ele>7.957714</ele>
<time>2026-06-17T21:24:40.456Z</time>
</trkpt>
<trkpt lat="55.497080" lon="8.396724">
<ele>7.944780</ele>
<time>2026-06-17T21:24:41.570Z</time>
</trkpt>
<trkpt lat="55.497752" lon="8.395828">
<ele>7.728472</ele>
<time>2026-06-17T21:25:00.642Z</time>
</trkpt>
<trkpt lat="55.498421" lon="8.394798">
<ele>7.635711</ele>
<time>2026-06-17T21:25:20.704Z</time>
</trkpt>
<trkpt lat="55.498885" lon="8.393966">
<ele>7.597786</ele>
<time>2026-06-17T21:25:35.494Z</time>
</trkpt>
<trkpt lat="55.499069" lon="8.393636">
<ele>7.582746</ele>
<time>2026-06-17T21:25:41.456Z</time>
</trkpt>
<trkpt lat="55.499138" lon="8.393514">
<ele>7.577146</ele>
<time>2026-06-17T21:25:43.759Z</time>
</trkpt>
<trkpt lat="55.499236" lon="8.393338">
<ele>7.603370</ele>
<time>2026-06-17T21:25:47.162Z</time>
</trkpt>
<trkpt lat="55.499417" lon="8.393016">
<ele>7.806917</ele>
<time>2026-06-17T21:25:53.566Z</time>
</trkpt>
<trkpt lat="55.499444" lon="8.392967">
<ele>7.837590</ele>
<time>2026-06-17T21:25:54.546Z</time>
</trkpt>
<trkpt lat="55.499750" lon="8.392421">
<ele>8.182225</ele>
<time>2026-06-17T21:26:05.965Z</time>
</trkpt>
<trkpt lat="55.499998" lon="8.391986">
<ele>8.459151</ele>
<time>2026-06-17T21:26:15.517Z</time>
</trkpt>
<trkpt lat="55.500444" lon="8.391174">
<ele>8.966650</ele>
<time>2026-06-17T21:26:33.296Z</time>
</trkpt>
<trkpt lat="55.500487" lon="8.391093">
<ele>9.012602</ele>
<time>2026-06-17T21:26:35.020Z</time>
</trkpt>
<trkpt lat="55.501205" lon="8.389901">
<ele>9.644374</ele>
<time>2026-06-17T21:27:00.985Z</time>
</trkpt>
<trkpt lat="55.501426" lon="8.389582">
<ele>9.827359</ele>
<time>2026-06-17T21:27:08.154Z</time>
</trkpt>
<trkpt lat="55.502461" lon="8.388169">
<ele>10.218561</ele>
<time>2026-06-17T21:27:39.965Z</time>
</trkpt>
<trkpt lat="55.503150" lon="8.387262">
<ele>10.292482</ele>
<time>2026-06-17T21:27:59.928Z</time>
</trkpt>
<trkpt lat="55.503241" lon="8.387143">
<ele>10.302223</ele>
<time>2026-06-17T21:28:02.457Z</time>
</trkpt>
<trkpt lat="55.503562" lon="8.386690">
<ele>9.992176</ele>
<time>2026-06-17T21:28:11.499Z</time>
</trkpt>
<trkpt lat="55.504262" lon="8.385717">
<ele>9.282179</ele>
<time>2026-06-17T21:28:30.050Z</time>
</trkpt>
<trkpt lat="55.505164" lon="8.384619">
<ele>8.320455</ele>
<time>2026-06-17T21:28:51.342Z</time>
</trkpt>
<trkpt lat="55.505189" lon="8.384589">
<ele>8.291740</ele>
<time>2026-06-17T21:28:51.907Z</time>
</trkpt>
<trkpt lat="55.506084" lon="8.383711">
<ele>7.319111</ele>
<time>2026-06-17T21:29:12.769Z</time>
</trkpt>
<trkpt lat="55.506149" lon="8.383647">
<ele>7.248412</ele>
<time>2026-06-17T21:29:14.402Z</time>
</trkpt>
<trkpt lat="55.506526" lon="8.383294">
<ele>6.948294</ele>
<time>2026-06-17T21:29:23.928Z</time>
</trkpt>
<trkpt lat="55.507136" lon="8.382823">
<ele>6.524671</ele>
<time>2026-06-17T21:29:38.697Z</time>
</trkpt>
<trkpt lat="55.508162" lon="8.382125">
<ele>5.608827</ele>
<time>2026-06-17T21:30:01.247Z</time>
</trkpt>
<trkpt lat="55.508481" lon="8.381922">
<ele>5.150441</ele>
<time>2026-06-17T21:30:07.744Z</time>
</trkpt>
<trkpt lat="55.508739" lon="8.381759">
<ele>4.780015</ele>
<time>2026-06-17T21:30:12.980Z</time>
</trkpt>
<trkpt lat="55.508987" lon="8.381602">
<ele>4.423864</ele>
<time>2026-06-17T21:30:17.981Z</time>
</trkpt>
<trkpt lat="55.509664" lon="8.381173">
<ele>3.485677</ele>
<time>2026-06-17T21:30:31.751Z</time>
</trkpt>
<trkpt lat="55.510064" lon="8.380921">
<ele>3.057529</ele>
<time>2026-06-17T21:30:39.969Z</time>
</trkpt>
<trkpt lat="55.510902" lon="8.380192">
<ele>2.115771</ele>
<time>2026-06-17T21:30:58.811Z</time>
</trkpt>
<trkpt lat="55.511166" lon="8.379891">
<ele>1.798975</ele>
<time>2026-06-17T21:31:05.526Z</time>
</trkpt>
<trkpt lat="55.511663" lon="8.379192">
<ele>1.811721</ele>
<time>2026-06-17T21:31:19.887Z</time>
</trkpt>
<trkpt lat="55.511914" lon="8.378775">
<ele>1.833871</ele>
<time>2026-06-17T21:31:28.032Z</time>
</trkpt>
<trkpt lat="55.512065" lon="8.378479">
<ele>1.848371</ele>
<time>2026-06-17T21:31:33.491Z</time>
</trkpt>
<trkpt lat="55.512224" lon="8.378167">
<ele>1.863648</ele>
<time>2026-06-17T21:31:39.283Z</time>
</trkpt>
<trkpt lat="55.512243" lon="8.378125">
<ele>1.865604</ele>
<time>2026-06-17T21:31:40.032Z</time>
</trkpt>
<trkpt lat="55.512432" lon="8.377704">
<ele>1.885158</ele>
<time>2026-06-17T21:31:47.526Z</time>
</trkpt>
<trkpt lat="55.512694" lon="8.377119">
<ele>2.224117</ele>
<time>2026-06-17T21:31:57.901Z</time>
</trkpt>
<trkpt lat="55.512788" lon="8.376902">
<ele>2.362566</ele>
<time>2026-06-17T21:32:02.035Z</time>
</trkpt>
<trkpt lat="55.512833" lon="8.376798">
<ele>2.428893</ele>
<time>2026-06-17T21:32:04.023Z</time>
</trkpt>
<trkpt lat="55.512876" lon="8.376699">
<ele>2.492119</ele>
<time>2026-06-17T21:32:05.910Z</time>
</trkpt>
<trkpt lat="55.512981" lon="8.376458">
<ele>2.646209</ele>
<time>2026-06-17T21:32:10.586Z</time>
</trkpt>
<trkpt lat="55.513000" lon="8.376414">
<ele>2.674249</ele>
<time>2026-06-17T21:32:11.441Z</time>
</trkpt>
<trkpt lat="55.513101" lon="8.376173">
<ele>2.826183</ele>
<time>2026-06-17T21:32:16.073Z</time>
</trkpt>
<trkpt lat="55.513125" lon="8.376119">
<ele>2.860969</ele>
<time>2026-06-17T21:32:17.079Z</time>
</trkpt>
<trkpt lat="55.513253" lon="8.375840">
<ele>3.042929</ele>
<time>2026-06-17T21:32:22.451Z</time>
</trkpt>
<trkpt lat="55.513356" lon="8.375612">
<ele>3.190729</ele>
<time>2026-06-17T21:32:26.798Z</time>
</trkpt>
<trkpt lat="55.513452" lon="8.375403">
<ele>3.327101</ele>
<time>2026-06-17T21:32:30.970Z</time>
</trkpt>
<trkpt lat="55.513560" lon="8.375164">
<ele>3.482048</ele>
<time>2026-06-17T21:32:35.779Z</time>
</trkpt>
<trkpt lat="55.513758" lon="8.374731">
<ele>4.008506</ele>
<time>2026-06-17T21:32:45.003Z</time>
</trkpt>
<trkpt lat="55.513787" lon="8.374667">
<ele>4.088177</ele>
<time>2026-06-17T21:32:46.344Z</time>
</trkpt>
<trkpt lat="55.513805" lon="8.374625">
<ele>4.139374</ele>
<time>2026-06-17T21:32:47.220Z</time>
</trkpt>
<trkpt lat="55.513874" lon="8.374470">
<ele>4.331012</ele>
<time>2026-06-17T21:32:50.636Z</time>
</trkpt>
<trkpt lat="55.514007" lon="8.374168">
<ele>4.702874</ele>
<time>2026-06-17T21:32:57.392Z</time>
</trkpt>
<trkpt lat="55.514038" lon="8.374097">
<ele>4.790017</ele>
<time>2026-06-17T21:32:59.130Z</time>
</trkpt>
<trkpt lat="55.514122" lon="8.373907">
<ele>5.024312</ele>
<time>2026-06-17T21:33:03.387Z</time>
</trkpt>
<trkpt lat="55.514216" lon="8.373695">
<ele>5.286025</ele>
<time>2026-06-17T21:33:07.979Z</time>
</trkpt>
<trkpt lat="55.514241" lon="8.373638">
<ele>5.356103</ele>
<time>2026-06-17T21:33:09.203Z</time>
</trkpt>
<trkpt lat="55.514344" lon="8.373402">
<ele>5.645714</ele>
<time>2026-06-17T21:33:14.284Z</time>
</trkpt>
<trkpt lat="55.514412" lon="8.373249">
<ele>5.834761</ele>
<time>2026-06-17T21:33:17.617Z</time>
</trkpt>
<trkpt lat="55.514433" lon="8.373202">
<ele>5.892952</ele>
<time>2026-06-17T21:33:18.600Z</time>
</trkpt>
<trkpt lat="55.514525" lon="8.372992">
<ele>6.151021</ele>
<time>2026-06-17T21:33:23.151Z</time>
</trkpt>
<trkpt lat="55.514569" lon="8.372894">
<ele>6.272582</ele>
<time>2026-06-17T21:33:25.233Z</time>
</trkpt>
<trkpt lat="55.514679" lon="8.372643">
<ele>6.581076</ele>
<time>2026-06-17T21:33:30.860Z</time>
</trkpt>
<trkpt lat="55.514712" lon="8.372569">
<ele>6.642262</ele>
<time>2026-06-17T21:33:32.555Z</time>
</trkpt>
<trkpt lat="55.514766" lon="8.372447">
<ele>6.740388</ele>
<time>2026-06-17T21:33:35.307Z</time>
</trkpt>
<trkpt lat="55.514829" lon="8.372304">
<ele>6.855202</ele>
<time>2026-06-17T21:33:38.431Z</time>
</trkpt>
<trkpt lat="55.514849" lon="8.372256">
<ele>6.892966</ele>
<time>2026-06-17T21:33:39.453Z</time>
</trkpt>
<trkpt lat="55.514972" lon="8.371978">
<ele>7.116532</ele>
<time>2026-06-17T21:33:45.564Z</time>
</trkpt>
<trkpt lat="55.515095" lon="8.371699">
<ele>7.340596</ele>
<time>2026-06-17T21:33:51.373Z</time>
</trkpt>
<trkpt lat="55.515200" lon="8.371461">
<ele>7.531785</ele>
<time>2026-06-17T21:33:56.212Z</time>
</trkpt>
<trkpt lat="55.515297" lon="8.371242">
<ele>7.707974</ele>
<time>2026-06-17T21:34:00.707Z</time>
</trkpt>
<trkpt lat="55.515408" lon="8.370989">
<ele>7.910788</ele>
<time>2026-06-17T21:34:05.662Z</time>
</trkpt>
<trkpt lat="55.515433" lon="8.370932">
<ele>7.956476</ele>
<time>2026-06-17T21:34:06.755Z</time>
</trkpt>
<trkpt lat="55.515528" lon="8.370718">
<ele>8.128789</ele>
<time>2026-06-17T21:34:10.633Z</time>
</trkpt>
<trkpt lat="55.515628" lon="8.370494">
<ele>8.309543</ele>
<time>2026-06-17T21:34:14.643Z</time>
</trkpt>
<trkpt lat="55.515725" lon="8.370274">
<ele>8.486230</ele>
<time>2026-06-17T21:34:18.438Z</time>
</trkpt>
<trkpt lat="55.515845" lon="8.370004">
<ele>8.530802</ele>
<time>2026-06-17T21:34:22.888Z</time>
</trkpt>
<trkpt lat="55.515949" lon="8.369770">
<ele>8.409947</ele>
<time>2026-06-17T21:34:26.624Z</time>
</trkpt>
<trkpt lat="55.516150" lon="8.369317">
<ele>8.176131</ele>
<time>2026-06-17T21:34:33.539Z</time>
</trkpt>
<trkpt lat="55.516204" lon="8.369195">
<ele>8.113219</ele>
<time>2026-06-17T21:34:35.325Z</time>
</trkpt>
<trkpt lat="55.516297" lon="8.368985">
<ele>8.004907</ele>
<time>2026-06-17T21:34:38.323Z</time>
</trkpt>
<trkpt lat="55.516383" lon="8.368792">
<ele>7.905130</ele>
<time>2026-06-17T21:34:41.034Z</time>
</trkpt>
<trkpt lat="55.516515" lon="8.368494">
<ele>7.751417</ele>
<time>2026-06-17T21:34:45.152Z</time>
</trkpt>
<trkpt lat="55.516719" lon="8.368064">
<ele>7.523508</ele>
<time>2026-06-17T21:34:51.123Z</time>
</trkpt>
<trkpt lat="55.516736" lon="8.368030">
<ele>7.505080</ele>
<time>2026-06-17T21:34:51.589Z</time>
</trkpt>
<trkpt lat="55.516763" lon="8.367973">
<ele>7.474889</ele>
<time>2026-06-17T21:34:52.366Z</time>
</trkpt>
<trkpt lat="55.516872" lon="8.367744">
<ele>7.353349</ele>
<time>2026-06-17T21:34:55.491Z</time>
</trkpt>
<trkpt lat="55.516969" lon="8.367539">
<ele>7.251137</ele>
<time>2026-06-17T21:34:58.263Z</time>
</trkpt>
<trkpt lat="55.516990" lon="8.367495">
<ele>7.230107</ele>
<time>2026-06-17T21:34:58.857Z</time>
</trkpt>
<trkpt lat="55.517120" lon="8.367221">
<ele>7.099471</ele>
<time>2026-06-17T21:35:02.570Z</time>
</trkpt>
<trkpt lat="55.517137" lon="8.367185">
<ele>7.082341</ele>
<time>2026-06-17T21:35:03.053Z</time>
</trkpt>
<trkpt lat="55.517271" lon="8.366905">
<ele>6.948365</ele>
<time>2026-06-17T21:35:06.887Z</time>
</trkpt>
<trkpt lat="55.517354" lon="8.366730">
<ele>6.864942</ele>
<time>2026-06-17T21:35:09.311Z</time>
</trkpt>
<trkpt lat="55.517372" lon="8.366693">
<ele>6.847115</ele>
<time>2026-06-17T21:35:09.814Z</time>
</trkpt>
<trkpt lat="55.517451" lon="8.366526">
<ele>6.767591</ele>
<time>2026-06-17T21:35:12.157Z</time>
</trkpt>
<trkpt lat="55.517551" lon="8.366316">
<ele>6.667317</ele>
<time>2026-06-17T21:35:15.163Z</time>
</trkpt>
<trkpt lat="55.517631" lon="8.366149">
<ele>6.587378</ele>
<time>2026-06-17T21:35:17.650Z</time>
</trkpt>
<trkpt lat="55.517648" lon="8.366112">
<ele>6.569965</ele>
<time>2026-06-17T21:35:18.218Z</time>
</trkpt>
<trkpt lat="55.517749" lon="8.365900">
<ele>6.468717</ele>
<time>2026-06-17T21:35:21.502Z</time>
</trkpt>
<trkpt lat="55.517924" lon="8.365533">
<ele>6.293380</ele>
<time>2026-06-17T21:35:27.554Z</time>
</trkpt>
<trkpt lat="55.517996" lon="8.365381">
<ele>6.220959</ele>
<time>2026-06-17T21:35:30.199Z</time>
</trkpt>
<trkpt lat="55.518226" lon="8.364897">
<ele>6.295507</ele>
<time>2026-06-17T21:35:39.127Z</time>
</trkpt>
<trkpt lat="55.518436" lon="8.364457">
<ele>6.494936</ele>
<time>2026-06-17T21:35:47.767Z</time>
</trkpt>
<trkpt lat="55.518548" lon="8.364220">
<ele>6.601918</ele>
<time>2026-06-17T21:35:52.437Z</time>
</trkpt>
<trkpt lat="55.519022" lon="8.363209">
<ele>7.056803</ele>
<time>2026-06-17T21:36:11.572Z</time>
</trkpt>
<trkpt lat="55.519178" lon="8.362877">
<ele>7.206316</ele>
<time>2026-06-17T21:36:17.576Z</time>
</trkpt>
<trkpt lat="55.519500" lon="8.362171">
<ele>6.850977</ele>
<time>2026-06-17T21:36:28.822Z</time>
</trkpt>
<trkpt lat="55.519819" lon="8.361474">
<ele>6.399044</ele>
<time>2026-06-17T21:36:38.599Z</time>
</trkpt>
<trkpt lat="55.520028" lon="8.361016">
<ele>6.102423</ele>
<time>2026-06-17T21:36:44.750Z</time>
</trkpt>
<trkpt lat="55.520074" lon="8.360914">
<ele>6.036667</ele>
<time>2026-06-17T21:36:46.123Z</time>
</trkpt>
<trkpt lat="55.520347" lon="8.360272">
<ele>5.623570</ele>
<time>2026-06-17T21:36:54.585Z</time>
</trkpt>
<trkpt lat="55.520621" lon="8.359485">
<ele>4.883145</ele>
<time>2026-06-17T21:37:03.964Z</time>
</trkpt>
<trkpt lat="55.520631" lon="8.359457">
<ele>4.856613</ele>
<time>2026-06-17T21:37:04.290Z</time>
</trkpt>
<trkpt lat="55.520731" lon="8.359105">
<ele>4.540996</ele>
<time>2026-06-17T21:37:08.303Z</time>
</trkpt>
<trkpt lat="55.520810" lon="8.358824">
<ele>4.289565</ele>
<time>2026-06-17T21:37:11.512Z</time>
</trkpt>
<trkpt lat="55.520859" lon="8.358646">
<ele>4.130947</ele>
<time>2026-06-17T21:37:13.562Z</time>
</trkpt>
<trkpt lat="55.520893" lon="8.358532">
<ele>4.027686</ele>
<time>2026-06-17T21:37:14.907Z</time>
</trkpt>
<trkpt lat="55.520961" lon="8.358293">
<ele>3.813325</ele>
<time>2026-06-17T21:37:17.718Z</time>
</trkpt>
<trkpt lat="55.521101" lon="8.357800">
<ele>3.371320</ele>
<time>2026-06-17T21:37:23.554Z</time>
</trkpt>
<trkpt lat="55.521268" lon="8.357241">
<ele>2.986798</ele>
<time>2026-06-17T21:37:30.451Z</time>
</trkpt>
<trkpt lat="55.521455" lon="8.356804">
<ele>2.775906</ele>
<time>2026-06-17T21:37:36.671Z</time>
</trkpt>
<trkpt lat="55.521699" lon="8.356425">
<ele>2.554948</ele>
<time>2026-06-17T21:37:43.391Z</time>
</trkpt>
<trkpt lat="55.521778" lon="8.356317">
<ele>2.487015</ele>
<time>2026-06-17T21:37:45.433Z</time>
</trkpt>
<trkpt lat="55.522059" lon="8.355947">
<ele>2.248674</ele>
<time>2026-06-17T21:37:52.397Z</time>
</trkpt>
<trkpt lat="55.522166" lon="8.355787">
<ele>2.153338</ele>
<time>2026-06-17T21:37:55.186Z</time>
</trkpt>
<trkpt lat="55.522190" lon="8.355749">
<ele>2.131421</ele>
<time>2026-06-17T21:37:55.823Z</time>
</trkpt>
<trkpt lat="55.522271" lon="8.355627">
<ele>2.059032</ele>
<time>2026-06-17T21:37:57.986Z</time>
</trkpt>
<trkpt lat="55.522304" lon="8.355576">
<ele>2.029214</ele>
<time>2026-06-17T21:37:58.893Z</time>
</trkpt>
<trkpt lat="55.522414" lon="8.355395">
<ele>1.926984</ele>
<time>2026-06-17T21:38:02.008Z</time>
</trkpt>
<trkpt lat="55.522541" lon="8.355153">
<ele>1.824278</ele>
<time>2026-06-17T21:38:05.932Z</time>
</trkpt>
<trkpt lat="55.522590" lon="8.355046">
<ele>1.788152</ele>
<time>2026-06-17T21:38:07.578Z</time>
</trkpt>
<trkpt lat="55.522712" lon="8.354776">
<ele>1.697473</ele>
<time>2026-06-17T21:38:11.637Z</time>
</trkpt>
<trkpt lat="55.522875" lon="8.354403">
<ele>1.573788</ele>
<time>2026-06-17T21:38:16.912Z</time>
</trkpt>
<trkpt lat="55.522908" lon="8.354328">
<ele>1.548855</ele>
<time>2026-06-17T21:38:17.959Z</time>
</trkpt>
<trkpt lat="55.522959" lon="8.354214">
<ele>1.510716</ele>
<time>2026-06-17T21:38:19.581Z</time>
</trkpt>
<trkpt lat="55.523033" lon="8.354064">
<ele>1.458490</ele>
<time>2026-06-17T21:38:22.574Z</time>
</trkpt>
<trkpt lat="55.523173" lon="8.353829">
<ele>1.368942</ele>
<time>2026-06-17T21:38:27.783Z</time>
</trkpt>
<trkpt lat="55.523395" lon="8.353545">
<ele>1.241848</ele>
<time>2026-06-17T21:38:35.323Z</time>
</trkpt>
<trkpt lat="55.523443" lon="8.353484">
<ele>1.214430</ele>
<time>2026-06-17T21:38:36.533Z</time>
</trkpt>
<trkpt lat="55.523686" lon="8.353174">
<ele>1.075447</ele>
<time>2026-06-17T21:38:43.237Z</time>
</trkpt>
<trkpt lat="55.524089" lon="8.352641">
<ele>1.000540</ele>
<time>2026-06-17T21:38:54.554Z</time>
</trkpt>
<trkpt lat="55.524302" lon="8.352362">
<ele>0.974847</ele>
<time>2026-06-17T21:39:02.135Z</time>
</trkpt>
<trkpt lat="55.524525" lon="8.352067">
<ele>0.947854</ele>
<time>2026-06-17T21:39:08.306Z</time>
</trkpt>
<trkpt lat="55.526030" lon="8.350090">
<ele>1.061306</ele>
<time>2026-06-17T21:39:48.762Z</time>
</trkpt>
<trkpt lat="55.526196" lon="8.349871">
<ele>1.099320</ele>
<time>2026-06-17T21:39:53.471Z</time>
</trkpt>
<trkpt lat="55.526465" lon="8.349518">
<ele>1.160804</ele>
<time>2026-06-17T21:40:01.545Z</time>
</trkpt>
<trkpt lat="55.526546" lon="8.349412">
<ele>1.179300</ele>
<time>2026-06-17T21:40:04.096Z</time>
</trkpt>
<trkpt lat="55.526625" lon="8.349307">
<ele>1.197439</ele>
<time>2026-06-17T21:40:06.630Z</time>
</trkpt>
<trkpt lat="55.526842" lon="8.349022">
<ele>1.884354</ele>
<time>2026-06-17T21:40:13.753Z</time>
</trkpt>
<trkpt lat="55.526888" lon="8.348977">
<ele>2.019774</ele>
<time>2026-06-17T21:40:15.226Z</time>
</trkpt>
<trkpt lat="55.527127" lon="8.348740">
<ele>2.725637</ele>
<time>2026-06-17T21:40:23.145Z</time>
</trkpt>
<trkpt lat="55.527516" lon="8.348514">
<ele>3.780266</ele>
<time>2026-06-17T21:40:36.335Z</time>
</trkpt>
<trkpt lat="55.527792" lon="8.348461">
<ele>4.495278</ele>
<time>2026-06-17T21:40:46.126Z</time>
</trkpt>
<trkpt lat="55.528117" lon="8.348414">
<ele>5.335099</ele>
<time>2026-06-17T21:40:58.424Z</time>
</trkpt>
<trkpt lat="55.528314" lon="8.348389">
<ele>5.849535</ele>
<time>2026-06-17T21:41:05.907Z</time>
</trkpt>
<trkpt lat="55.528398" lon="8.348379">
<ele>6.160446</ele>
<time>2026-06-17T21:41:09.144Z</time>
</trkpt>
<trkpt lat="55.528637" lon="8.348349">
<ele>7.045288</ele>
<time>2026-06-17T21:41:18.411Z</time>
</trkpt>
<trkpt lat="55.529105" lon="8.348332">
<ele>8.773958</ele>
<time>2026-06-17T21:41:37.002Z</time>
</trkpt>
<trkpt lat="55.530179" lon="8.348418">
<ele>12.600088</ele>
<time>2026-06-17T21:42:16.246Z</time>
</trkpt>
<trkpt lat="55.530483" lon="8.348434">
<ele>13.126727</ele>
<time>2026-06-17T21:42:26.126Z</time>
</trkpt>
<trkpt lat="55.530792" lon="8.348438">
<ele>13.661805</ele>
<time>2026-06-17T21:42:35.673Z</time>
</trkpt>
<trkpt lat="55.531077" lon="8.348435">
<ele>14.155319</ele>
<time>2026-06-17T21:42:43.981Z</time>
</trkpt>
<trkpt lat="55.531422" lon="8.348362">
<ele>14.756989</ele>
<time>2026-06-17T21:42:53.400Z</time>
</trkpt>
<trkpt lat="55.531514" lon="8.348341">
<ele>14.917620</ele>
<time>2026-06-17T21:42:55.836Z</time>
</trkpt>
<trkpt lat="55.532092" lon="8.348215">
<ele>15.590934</ele>
<time>2026-06-17T21:43:10.552Z</time>
</trkpt>
<trkpt lat="55.532922" lon="8.348008">
<ele>15.606392</ele>
<time>2026-06-17T21:43:30.062Z</time>
</trkpt>
<trkpt lat="55.533110" lon="8.347941">
<ele>15.609929</ele>
<time>2026-06-17T21:43:34.276Z</time>
</trkpt>
<trkpt lat="55.533454" lon="8.347762">
<ele>15.616543</ele>
<time>2026-06-17T21:43:41.802Z</time>
</trkpt>
<trkpt lat="55.533714" lon="8.347589">
<ele>15.523457</ele>
<time>2026-06-17T21:43:47.340Z</time>
</trkpt>
<trkpt lat="55.534214" lon="8.347176">
<ele>14.678984</ele>
<time>2026-06-17T21:43:57.899Z</time>
</trkpt>
<trkpt lat="55.534650" lon="8.346673">
<ele>13.882302</ele>
<time>2026-06-17T21:44:07.255Z</time>
</trkpt>
<trkpt lat="55.534689" lon="8.346619">
<ele>13.806494</ele>
<time>2026-06-17T21:44:08.133Z</time>
</trkpt>
<trkpt lat="55.534842" lon="8.346410">
<ele>13.510608</ele>
<time>2026-06-17T21:44:11.540Z</time>
</trkpt>
<trkpt lat="55.535018" lon="8.346165">
<ele>13.167802</ele>
<time>2026-06-17T21:44:15.473Z</time>
</trkpt>
<trkpt lat="55.535558" lon="8.345356">
<ele>12.144159</ele>
<time>2026-06-17T21:44:27.861Z</time>
</trkpt>
<trkpt lat="55.535883" lon="8.344926">
<ele>11.570149</ele>
<time>2026-06-17T21:44:35.137Z</time>
</trkpt>
<trkpt lat="55.536274" lon="8.344568">
<ele>10.947552</ele>
<time>2026-06-17T21:44:43.324Z</time>
</trkpt>
<trkpt lat="55.536522" lon="8.344432">
<ele>10.580431</ele>
<time>2026-06-17T21:44:48.347Z</time>
</trkpt>
<trkpt lat="55.536717" lon="8.344358">
<ele>10.337712</ele>
<time>2026-06-17T21:44:52.350Z</time>
</trkpt>
<trkpt lat="55.537033" lon="8.344304">
<ele>10.538968</ele>
<time>2026-06-17T21:44:59.002Z</time>
</trkpt>
<trkpt lat="55.537422" lon="8.344341">
<ele>10.785923</ele>
<time>2026-06-17T21:45:08.074Z</time>
</trkpt>
<trkpt lat="55.537704" lon="8.344442">
<ele>10.968325</ele>
<time>2026-06-17T21:45:15.532Z</time>
</trkpt>
<trkpt lat="55.538559" lon="8.344943">
<ele>11.678876</ele>
<time>2026-06-17T21:45:40.609Z</time>
</trkpt>
<trkpt lat="55.539216" lon="8.345339">
<ele>12.953334</ele>
<time>2026-06-17T21:46:00.023Z</time>
</trkpt>
<trkpt lat="55.539486" lon="8.343868">
<ele>14.559894</ele>
<time>2026-06-17T21:46:25.840Z</time>
</trkpt>
<trkpt lat="55.540886" lon="8.344565">
<ele>18.947856</ele>
<time>2026-06-17T21:47:16.104Z</time>
</trkpt>
<trkpt lat="55.541521" lon="8.344970">
<ele>20.990000</ele>
<time>2026-06-17T21:47:40.993Z</time>
</trkpt>
<trkpt lat="55.541739" lon="8.345131">
<ele>21.659190</ele>
<time>2026-06-17T21:47:49.616Z</time>
</trkpt>
<trkpt lat="55.541970" lon="8.345298">
<ele>22.366080</ele>
<time>2026-06-17T21:47:58.457Z</time>
</trkpt>
<trkpt lat="55.542595" lon="8.345753">
<ele>24.280582</ele>
<time>2026-06-17T21:48:21.494Z</time>
</trkpt>
<trkpt lat="55.543086" lon="8.346018">
<ele>25.512079</ele>
<time>2026-06-17T21:48:37.203Z</time>
</trkpt>
<trkpt lat="55.543464" lon="8.346142">
<ele>25.691575</ele>
<time>2026-06-17T21:48:47.943Z</time>
</trkpt>
<trkpt lat="55.543591" lon="8.346181">
<ele>25.751758</ele>
<time>2026-06-17T21:48:51.316Z</time>
</trkpt>
<trkpt lat="55.544900" lon="8.346567">
<ele>26.139346</ele>
<time>2026-06-17T21:49:20.503Z</time>
</trkpt>
<trkpt lat="55.546085" lon="8.346984">
<ele>24.640727</ele>
<time>2026-06-17T21:49:43.158Z</time>
</trkpt>
<trkpt lat="55.546380" lon="8.347104">
<ele>24.265270</ele>
<time>2026-06-17T21:49:48.502Z</time>
</trkpt>
<trkpt lat="55.546614" lon="8.347199">
<ele>24.019485</ele>
<time>2026-06-17T21:49:52.746Z</time>
</trkpt>
<trkpt lat="55.547185" lon="8.347434">
<ele>23.637544</ele>
<time>2026-06-17T21:50:03.387Z</time>
</trkpt>
<trkpt lat="55.547633" lon="8.347707">
<ele>23.328828</ele>
<time>2026-06-17T21:50:12.442Z</time>
</trkpt>
<trkpt lat="55.549436" lon="8.349452">
<ele>24.007472</ele>
<time>2026-06-17T21:51:03.994Z</time>
</trkpt>
<trkpt lat="55.549639" lon="8.349648">
<ele>24.188882</ele>
<time>2026-06-17T21:51:10.594Z</time>
</trkpt>
<trkpt lat="55.550193" lon="8.350184">
<ele>23.771184</ele>
<time>2026-06-17T21:51:26.842Z</time>
</trkpt>
<trkpt lat="55.550331" lon="8.350321">
<ele>23.587585</ele>
<time>2026-06-17T21:51:30.500Z</time>
</trkpt>
<trkpt lat="55.550534" lon="8.350519">
<ele>23.318636</ele>
<time>2026-06-17T21:51:35.529Z</time>
</trkpt>
<trkpt lat="55.551559" lon="8.351494">
<ele>21.568419</ele>
<time>2026-06-17T21:51:55.161Z</time>
</trkpt>
<trkpt lat="55.552119" lon="8.352028">
<ele>19.699306</ele>
<time>2026-06-17T21:52:05.250Z</time>
</trkpt>
<trkpt lat="55.553624" lon="8.353475">
<ele>15.714387</ele>
<time>2026-06-17T21:52:34.096Z</time>
</trkpt>
<trkpt lat="55.554437" lon="8.354218">
<ele>14.261803</ele>
<time>2026-06-17T21:52:52.239Z</time>
</trkpt>
<trkpt lat="55.554579" lon="8.354351">
<ele>14.021587</ele>
<time>2026-06-17T21:52:55.488Z</time>
</trkpt>
<trkpt lat="55.555006" lon="8.354757">
<ele>13.387602</ele>
<time>2026-06-17T21:53:05.101Z</time>
</trkpt>
<trkpt lat="55.557494" lon="8.357137">
<ele>10.263864</ele>
<time>2026-06-17T21:53:56.658Z</time>
</trkpt>
<trkpt lat="55.560149" lon="8.359656">
<ele>13.421154</ele>
<time>2026-06-17T21:55:22.725Z</time>
</trkpt>
<trkpt lat="55.560485" lon="8.359970">
<ele>13.790374</ele>
<time>2026-06-17T21:55:32.253Z</time>
</trkpt>
<trkpt lat="55.560989" lon="8.360336">
<ele>14.144429</ele>
<time>2026-06-17T21:55:44.678Z</time>
</trkpt>
<trkpt lat="55.561527" lon="8.360513">
<ele>13.804995</ele>
<time>2026-06-17T21:55:55.896Z</time>
</trkpt>
<trkpt lat="55.562098" lon="8.360500">
<ele>13.450788</ele>
<time>2026-06-17T21:56:07.387Z</time>
</trkpt>
<trkpt lat="55.562577" lon="8.360454">
<ele>13.153239</ele>
<time>2026-06-17T21:56:16.787Z</time>
</trkpt>
<trkpt lat="55.562730" lon="8.360449">
<ele>13.014344</ele>
<time>2026-06-17T21:56:19.697Z</time>
</trkpt>
<trkpt lat="55.563152" lon="8.360477">
<ele>12.455181</ele>
<time>2026-06-17T21:56:27.583Z</time>
</trkpt>
<trkpt lat="55.563387" lon="8.360557">
<ele>12.138305</ele>
<time>2026-06-17T21:56:32.001Z</time>
</trkpt>
<trkpt lat="55.563562" lon="8.360635">
<ele>11.899341</ele>
<time>2026-06-17T21:56:35.315Z</time>
</trkpt>
<trkpt lat="55.563750" lon="8.360745">
<ele>11.637138</ele>
<time>2026-06-17T21:56:38.983Z</time>
</trkpt>
<trkpt lat="55.564084" lon="8.361013">
<ele>11.151493</ele>
<time>2026-06-17T21:56:45.677Z</time>
</trkpt>
<trkpt lat="55.567371" lon="8.364074">
<ele>6.632250</ele>
<time>2026-06-17T21:57:55.410Z</time>
</trkpt>
<trkpt lat="55.569685" lon="8.366210">
<ele>5.263653</ele>
<time>2026-06-17T21:58:48.947Z</time>
</trkpt>
<trkpt lat="55.569749" lon="8.366074">
<ele>5.239575</ele>
<time>2026-06-17T21:58:51.039Z</time>
</trkpt>
<trkpt lat="55.569971" lon="8.365594">
<ele>5.155189</ele>
<time>2026-06-17T21:58:58.526Z</time>
</trkpt>
<trkpt lat="55.570402" lon="8.364604">
<ele>4.985165</ele>
<time>2026-06-17T21:59:14.191Z</time>
</trkpt>
<trkpt lat="55.570559" lon="8.364216">
<ele>4.929503</ele>
<time>2026-06-17T21:59:20.437Z</time>
</trkpt>
<trkpt lat="55.571103" lon="8.362862">
<ele>4.741616</ele>
<time>2026-06-17T21:59:40.505Z</time>
</trkpt>
<trkpt lat="55.571552" lon="8.361743">
<ele>4.588701</ele>
<time>2026-06-17T21:59:57.127Z</time>
</trkpt>
<trkpt lat="55.571708" lon="8.361348">
<ele>4.538530</ele>
<time>2026-06-17T22:00:02.909Z</time>
</trkpt>
<trkpt lat="55.571983" lon="8.360672">
<ele>4.451813</ele>
<time>2026-06-17T22:00:12.606Z</time>
</trkpt>
<trkpt lat="55.572339" lon="8.359787">
<ele>4.338716</ele>
<time>2026-06-17T22:00:25.745Z</time>
</trkpt>
<trkpt lat="55.572604" lon="8.359130">
<ele>4.347977</ele>
<time>2026-06-17T22:00:36.017Z</time>
</trkpt>
<trkpt lat="55.575350" lon="8.352323">
<ele>6.213472</ele>
<time>2026-06-17T22:02:29.349Z</time>
</trkpt>
<trkpt lat="55.576118" lon="8.350418">
<ele>6.400898</ele>
<time>2026-06-17T22:03:00.047Z</time>
</trkpt>
<trkpt lat="55.576451" lon="8.349591">
<ele>6.397711</ele>
<time>2026-06-17T22:03:12.465Z</time>
</trkpt>
<trkpt lat="55.576530" lon="8.349568">
<ele>6.397267</ele>
<time>2026-06-17T22:03:14.148Z</time>
</trkpt>
<trkpt lat="55.576738" lon="8.349023">
<ele>6.394071</ele>
<time>2026-06-17T22:03:22.002Z</time>
</trkpt>
<trkpt lat="55.576827" lon="8.348435">
<ele>6.382632</ele>
<time>2026-06-17T22:03:29.418Z</time>
</trkpt>
<trkpt lat="55.577037" lon="8.347816">
<ele>6.369066</ele>
<time>2026-06-17T22:03:38.460Z</time>
</trkpt>
<trkpt lat="55.576956" lon="8.347660">
<ele>6.365086</ele>
<time>2026-06-17T22:03:41.172Z</time>
</trkpt>
<trkpt lat="55.577214" lon="8.347187">
<ele>6.352735</ele>
<time>2026-06-17T22:03:49.586Z</time>
</trkpt>
<trkpt lat="55.577843" lon="8.345949">
<ele>6.219181</ele>
<time>2026-06-17T22:04:10.794Z</time>
</trkpt>
<trkpt lat="55.578301" lon="8.344922">
<ele>6.017360</ele>
<time>2026-06-17T22:04:26.506Z</time>
</trkpt>
<trkpt lat="55.578527" lon="8.344413">
<ele>5.917502</ele>
<time>2026-06-17T22:04:34.115Z</time>
</trkpt>
<trkpt lat="55.579990" lon="8.340801">
<ele>4.560574</ele>
<time>2026-06-17T22:05:25.136Z</time>
</trkpt>
<trkpt lat="55.580076" lon="8.340578">
<ele>4.464024</ele>
<time>2026-06-17T22:05:28.181Z</time>
</trkpt>
<trkpt lat="55.581142" lon="8.337991">
<ele>3.308875</ele>
<time>2026-06-17T22:06:04.657Z</time>
</trkpt>
<trkpt lat="55.582616" lon="8.334435">
<ele>1.816857</ele>
<time>2026-06-17T22:06:54.779Z</time>
</trkpt>
<trkpt lat="55.583177" lon="8.333096">
<ele>1.331733</ele>
<time>2026-06-17T22:07:14.730Z</time>
</trkpt>
<trkpt lat="55.583918" lon="8.331301">
<ele>0.736669</ele>
<time>2026-06-17T22:07:40.258Z</time>
</trkpt>
<trkpt lat="55.584518" lon="8.329857">
<ele>0.525572</ele>
<time>2026-06-17T22:08:02.422Z</time>
</trkpt>
<trkpt lat="55.585235" lon="8.328200">
<ele>0.379702</ele>
<time>2026-06-17T22:08:28.912Z</time>
</trkpt>
<trkpt lat="55.585661" lon="8.327470">
<ele>0.406474</ele>
<time>2026-06-17T22:08:42.129Z</time>
</trkpt>
<trkpt lat="55.585753" lon="8.327333">
<ele>0.411902</ele>
<time>2026-06-17T22:08:44.824Z</time>
</trkpt>
<trkpt lat="55.586284" lon="8.326679">
<ele>0.441109</ele>
<time>2026-06-17T22:08:59.406Z</time>
</trkpt>
<trkpt lat="55.586611" lon="8.326364">
<ele>0.453519</ele>
<time>2026-06-17T22:09:07.831Z</time>
</trkpt>
<trkpt lat="55.586959" lon="8.326096">
<ele>0.463482</ele>
<time>2026-06-17T22:09:16.373Z</time>
</trkpt>
<trkpt lat="55.587383" lon="8.325848">
<ele>0.475204</ele>
<time>2026-06-17T22:09:26.432Z</time>
</trkpt>
<trkpt lat="55.587746" lon="8.325696">
<ele>0.484997</ele>
<time>2026-06-17T22:09:34.752Z</time>
</trkpt>
<trkpt lat="55.588320" lon="8.325571">
<ele>0.487625</ele>
<time>2026-06-17T22:09:47.496Z</time>
</trkpt>
<trkpt lat="55.590764" lon="8.325411">
<ele>0.599262</ele>
<time>2026-06-17T22:10:41.380Z</time>
</trkpt>
<trkpt lat="55.590880" lon="8.325404">
<ele>0.621450</ele>
<time>2026-06-17T22:10:44.046Z</time>
</trkpt>
<trkpt lat="55.595234" lon="8.325125">
<ele>2.557617</ele>
<time>2026-06-17T22:12:29.110Z</time>
</trkpt>
<trkpt lat="55.595235" lon="8.324990">
<ele>2.606929</ele>
<time>2026-06-17T22:12:31.091Z</time>
</trkpt>
<trkpt lat="55.595996" lon="8.324924">
<ele>3.497339</ele>
<time>2026-06-17T22:12:51.176Z</time>
</trkpt>
<trkpt lat="55.596063" lon="8.324840">
<ele>3.593293</ele>
<time>2026-06-17T22:12:53.475Z</time>
</trkpt>
<trkpt lat="55.596096" lon="8.324686">
<ele>3.702049</ele>
<time>2026-06-17T22:12:55.959Z</time>
</trkpt>
<trkpt lat="55.596151" lon="8.324644">
<ele>3.772053</ele>
<time>2026-06-17T22:12:57.679Z</time>
</trkpt>
<trkpt lat="55.596182" lon="8.325052">
<ele>4.043886</ele>
<time>2026-06-17T22:13:04.121Z</time>
</trkpt>
<trkpt lat="55.596151" lon="8.324644">
<ele>4.315718</ele>
<time>2026-06-17T22:13:10.693Z</time>
</trkpt>
<trkpt lat="55.596121" lon="8.324412">
<ele>4.472872</ele>
<time>2026-06-17T22:13:14.411Z</time>
</trkpt>
<trkpt lat="55.596060" lon="8.323999">
<ele>4.769852</ele>
<time>2026-06-17T22:13:20.948Z</time>
</trkpt>
<trkpt lat="55.595837" lon="8.323246">
<ele>5.473206</ele>
<time>2026-06-17T22:13:34.172Z</time>
</trkpt>
<trkpt lat="55.595463" lon="8.322133">
<ele>6.544550</ele>
<time>2026-06-17T22:13:55.643Z</time>
</trkpt>
<trkpt lat="55.595272" lon="8.321351">
<ele>7.249380</ele>
<time>2026-06-17T22:14:09.319Z</time>
</trkpt>
<trkpt lat="55.595140" lon="8.320563">
<ele>7.472655</ele>
<time>2026-06-17T22:14:21.527Z</time>
</trkpt>
<trkpt lat="55.595010" lon="8.319781">
<ele>7.634357</ele>
<time>2026-06-17T22:14:32.613Z</time>
</trkpt>
<trkpt lat="55.594831" lon="8.319146">
<ele>7.775130</ele>
<time>2026-06-17T22:14:41.412Z</time>
</trkpt>
<trkpt lat="55.594665" lon="8.318764">
<ele>7.870728</ele>
<time>2026-06-17T22:14:47.209Z</time>
</trkpt>
<trkpt lat="55.594257" lon="8.318041">
<ele>7.869007</ele>
<time>2026-06-17T22:14:59.559Z</time>
</trkpt>
<trkpt lat="55.593964" lon="8.317485">
<ele>7.747840</ele>
<time>2026-06-17T22:15:08.809Z</time>
</trkpt>
<trkpt lat="55.593813" lon="8.317055">
<ele>7.667153</ele>
<time>2026-06-17T22:15:15.092Z</time>
</trkpt>
<trkpt lat="55.593728" lon="8.316683">
<ele>7.603202</ele>
<time>2026-06-17T22:15:20.125Z</time>
</trkpt>
<trkpt lat="55.593104" lon="8.312163">
<ele>5.948834</ele>
<time>2026-06-17T22:16:13.465Z</time>
</trkpt>
<trkpt lat="55.593074" lon="8.311599">
<ele>5.585023</ele>
<time>2026-06-17T22:16:19.335Z</time>
</trkpt>
<trkpt lat="55.593089" lon="8.311248">
<ele>5.358962</ele>
<time>2026-06-17T22:16:22.952Z</time>
</trkpt>
<trkpt lat="55.593148" lon="8.310806">
<ele>5.067291</ele>
<time>2026-06-17T22:16:27.716Z</time>
</trkpt>
<trkpt lat="55.593220" lon="8.310420">
<ele>4.806240</ele>
<time>2026-06-17T22:16:32.069Z</time>
</trkpt>
<trkpt lat="55.593436" lon="8.309553">
<ele>4.224790</ele>
<time>2026-06-17T22:16:42.115Z</time>
</trkpt>
<trkpt lat="55.593540" lon="8.309121">
<ele>4.105946</ele>
<time>2026-06-17T22:16:47.232Z</time>
</trkpt>
<trkpt lat="55.593581" lon="8.308953">
<ele>4.059631</ele>
<time>2026-06-17T22:16:49.291Z</time>
</trkpt>
<trkpt lat="55.593610" lon="8.308836">
<ele>4.027296</ele>
<time>2026-06-17T22:16:50.746Z</time>
</trkpt>
<trkpt lat="55.593805" lon="8.308043">
<ele>3.808417</ele>
<time>2026-06-17T22:17:00.638Z</time>
</trkpt>
<trkpt lat="55.593896" lon="8.307762">
<ele>3.726447</ele>
<time>2026-06-17T22:17:04.483Z</time>
</trkpt>
<trkpt lat="55.594227" lon="8.307021">
<ele>3.487388</ele>
<time>2026-06-17T22:17:15.891Z</time>
</trkpt>
<trkpt lat="55.594508" lon="8.306425">
<ele>3.789475</ele>
<time>2026-06-17T22:17:26.240Z</time>
</trkpt>
<trkpt lat="55.594636" lon="8.306096">
<ele>4.033939</ele>
<time>2026-06-17T22:17:32.055Z</time>
</trkpt>
<trkpt lat="55.594784" lon="8.305540">
<ele>4.410083</ele>
<time>2026-06-17T22:17:41.404Z</time>
</trkpt>
<trkpt lat="55.594942" lon="8.304644">
<ele>4.984523</ele>
<time>2026-06-17T22:17:56.537Z</time>
</trkpt>
<trkpt lat="55.595055" lon="8.303935">
<ele>5.427297</ele>
<time>2026-06-17T22:18:08.847Z</time>
</trkpt>
<trkpt lat="55.595358" lon="8.302153">
<ele>6.384061</ele>
<time>2026-06-17T22:18:37.255Z</time>
</trkpt>
<trkpt lat="55.595959" lon="8.299690">
<ele>7.131607</ele>
<time>2026-06-17T22:19:12.906Z</time>
</trkpt>
<trkpt lat="55.596514" lon="8.297381">
<ele>7.040433</ele>
<time>2026-06-17T22:19:44.434Z</time>
</trkpt>
<trkpt lat="55.596912" lon="8.295414">
<ele>6.431928</ele>
<time>2026-06-17T22:20:08.361Z</time>
</trkpt>
<trkpt lat="55.597287" lon="8.293533">
<ele>5.329271</ele>
<time>2026-06-17T22:20:30.003Z</time>
</trkpt>
<trkpt lat="55.597456" lon="8.292683">
<ele>4.785250</ele>
<time>2026-06-17T22:20:39.546Z</time>
</trkpt>
<trkpt lat="55.597783" lon="8.291040">
<ele>3.888535</ele>
<time>2026-06-17T22:20:58.236Z</time>
</trkpt>
<trkpt lat="55.597926" lon="8.290242">
<ele>3.497993</ele>
<time>2026-06-17T22:21:07.190Z</time>
</trkpt>
<trkpt lat="55.598056" lon="8.289443">
<ele>3.110115</ele>
<time>2026-06-17T22:21:16.804Z</time>
</trkpt>
<trkpt lat="55.598115" lon="8.289046">
<ele>2.928690</ele>
<time>2026-06-17T22:21:21.878Z</time>
</trkpt>
<trkpt lat="55.598140" lon="8.288889">
<ele>2.918609</ele>
<time>2026-06-17T22:21:23.929Z</time>
</trkpt>
<trkpt lat="55.598369" lon="8.287430">
<ele>2.825027</ele>
<time>2026-06-17T22:21:43.024Z</time>
</trkpt>
<trkpt lat="55.598415" lon="8.287132">
<ele>2.805936</ele>
<time>2026-06-17T22:21:47.193Z</time>
</trkpt>
<trkpt lat="55.598963" lon="8.283659">
<ele>2.146540</ele>
<time>2026-06-17T22:22:30.606Z</time>
</trkpt>
<trkpt lat="55.599082" lon="8.283112">
<ele>2.005170</ele>
<time>2026-06-17T22:22:37.003Z</time>
</trkpt>
<trkpt lat="55.599214" lon="8.282844">
<ele>1.927194</ele>
<time>2026-06-17T22:22:40.864Z</time>
</trkpt>
<trkpt lat="55.599996" lon="8.281760">
<ele>1.574453</ele>
<time>2026-06-17T22:23:00.337Z</time>
</trkpt>
<trkpt lat="55.600156" lon="8.281617">
<ele>1.510800</ele>
<time>2026-06-17T22:23:04.333Z</time>
</trkpt>
<trkpt lat="55.600243" lon="8.281611">
<ele>1.479881</ele>
<time>2026-06-17T22:23:06.297Z</time>
</trkpt>
<trkpt lat="55.600412" lon="8.281708">
<ele>1.416787</ele>
<time>2026-06-17T22:23:10.467Z</time>
</trkpt>
<trkpt lat="55.601582" lon="8.282871">
<ele>1.621784</ele>
<time>2026-06-17T22:23:43.967Z</time>
</trkpt>
<trkpt lat="55.601924" lon="8.283236">
<ele>1.729936</ele>
<time>2026-06-17T22:23:53.091Z</time>
</trkpt>
<trkpt lat="55.602003" lon="8.283300">
<ele>1.753465</ele>
<time>2026-06-17T22:23:54.972Z</time>
</trkpt>
<trkpt lat="55.602080" lon="8.283305">
<ele>1.774332</ele>
<time>2026-06-17T22:23:56.631Z</time>
</trkpt>
<trkpt lat="55.602131" lon="8.283262">
<ele>1.789631</ele>
<time>2026-06-17T22:23:57.801Z</time>
</trkpt>
<trkpt lat="55.602204" lon="8.283112">
<ele>1.799442</ele>
<time>2026-06-17T22:24:00.128Z</time>
</trkpt>
<trkpt lat="55.603159" lon="8.280230">
<ele>0.670598</ele>
<time>2026-06-17T22:24:37.099Z</time>
</trkpt>
<trkpt lat="55.603216" lon="8.280058">
<ele>0.732071</ele>
<time>2026-06-17T22:24:39.598Z</time>
</trkpt>
<trkpt lat="55.603390" lon="8.279662">
<ele>0.886728</ele>
<time>2026-06-17T22:24:46.089Z</time>
</trkpt>
<trkpt lat="55.603810" lon="8.279143">
<ele>1.166241</ele>
<time>2026-06-17T22:24:58.838Z</time>
</trkpt>
<trkpt lat="55.603941" lon="8.278874">
<ele>1.275725</ele>
<time>2026-06-17T22:25:04.207Z</time>
</trkpt>
<trkpt lat="55.604101" lon="8.278138">
<ele>1.518832</ele>
<time>2026-06-17T22:25:16.024Z</time>
</trkpt>
<trkpt lat="55.604268" lon="8.277014">
<ele>2.418762</ele>
<time>2026-06-17T22:25:33.723Z</time>
</trkpt>
<trkpt lat="55.604397" lon="8.276046">
<ele>3.307243</ele>
<time>2026-06-17T22:25:49.661Z</time>
</trkpt>
<trkpt lat="55.604348" lon="8.273583">
<ele>5.247648</ele>
<time>2026-06-17T22:26:31.694Z</time>
</trkpt>
<trkpt lat="55.604391" lon="8.273267">
<ele>5.467311</ele>
<time>2026-06-17T22:26:36.986Z</time>
</trkpt>
<trkpt lat="55.604483" lon="8.273098">
<ele>5.625922</ele>
<time>2026-06-17T22:26:40.651Z</time>
</trkpt>
<trkpt lat="55.605189" lon="8.272218">
<ele>6.575935</ele>
<time>2026-06-17T22:27:01.912Z</time>
</trkpt>
<trkpt lat="55.605343" lon="8.272088">
<ele>6.541836</ele>
<time>2026-06-17T22:27:05.566Z</time>
</trkpt>
<trkpt lat="55.605257" lon="8.271977">
<ele>6.520564</ele>
<time>2026-06-17T22:27:07.762Z</time>
</trkpt>
<trkpt lat="55.605343" lon="8.272088">
<ele>6.499293</ele>
<time>2026-06-17T22:27:09.967Z</time>
</trkpt>
<trkpt lat="55.605422" lon="8.272081">
<ele>6.483484</ele>
<time>2026-06-17T22:27:11.592Z</time>
</trkpt>
<trkpt lat="55.605573" lon="8.272162">
<ele>6.451950</ele>
<time>2026-06-17T22:27:14.851Z</time>
</trkpt>
<trkpt lat="55.607785" lon="8.273848">
<ele>6.275752</ele>
<time>2026-06-17T22:28:05.833Z</time>
</trkpt>
<trkpt lat="55.608337" lon="8.274248">
<ele>6.402761</ele>
<time>2026-06-17T22:28:20.460Z</time>
</trkpt>
<trkpt lat="55.608760" lon="8.274459">
<ele>6.948195</ele>
<time>2026-06-17T22:28:32.458Z</time>
</trkpt>
<trkpt lat="55.609479" lon="8.274670">
<ele>7.852737</ele>
<time>2026-06-17T22:28:53.763Z</time>
</trkpt>
<trkpt lat="55.609820" lon="8.274679">
<ele>8.276006</ele>
<time>2026-06-17T22:29:03.437Z</time>
</trkpt>
<trkpt lat="55.610486" lon="8.274602">
<ele>8.498568</ele>
<time>2026-06-17T22:29:20.515Z</time>
</trkpt>
<trkpt lat="55.611528" lon="8.274370">
<ele>8.434823</ele>
<time>2026-06-17T22:29:42.438Z</time>
</trkpt>
<trkpt lat="55.612476" lon="8.274189">
<ele>8.175585</ele>
<time>2026-06-17T22:30:01.106Z</time>
</trkpt>
<trkpt lat="55.612811" lon="8.274195">
<ele>8.054623</ele>
<time>2026-06-17T22:30:08.077Z</time>
</trkpt>
<trkpt lat="55.613100" lon="8.274271">
<ele>7.949132</ele>
<time>2026-06-17T22:30:14.351Z</time>
</trkpt>
<trkpt lat="55.613374" lon="8.274392">
<ele>7.847170</ele>
<time>2026-06-17T22:30:20.595Z</time>
</trkpt>
<trkpt lat="55.614113" lon="8.274885">
<ele>8.080071</ele>
<time>2026-06-17T22:30:39.074Z</time>
</trkpt>
<trkpt lat="55.614480" lon="8.275063">
<ele>8.287874</ele>
<time>2026-06-17T22:30:48.377Z</time>
</trkpt>
<trkpt lat="55.614868" lon="8.275131">
<ele>8.500799</ele>
<time>2026-06-17T22:30:57.922Z</time>
</trkpt>
<trkpt lat="55.615756" lon="8.275116">
<ele>9.004514</ele>
<time>2026-06-17T22:31:20.821Z</time>
</trkpt>
<trkpt lat="55.616345" lon="8.275106">
<ele>9.351819</ele>
<time>2026-06-17T22:31:36.762Z</time>
</trkpt>
<trkpt lat="55.616701" lon="8.275174">
<ele>9.562943</ele>
<time>2026-06-17T22:31:45.636Z</time>
</trkpt>
<trkpt lat="55.616769" lon="8.275196">
<ele>9.603701</ele>
<time>2026-06-17T22:31:47.266Z</time>
</trkpt>
<trkpt lat="55.617083" lon="8.275456">
<ele>9.808085</ele>
<time>2026-06-17T22:31:54.902Z</time>
</trkpt>
<trkpt lat="55.617204" lon="8.275641">
<ele>9.758868</ele>
<time>2026-06-17T22:31:58.159Z</time>
</trkpt>
<trkpt lat="55.617383" lon="8.276032">
<ele>9.663231</ele>
<time>2026-06-17T22:32:03.852Z</time>
</trkpt>
<trkpt lat="55.617492" lon="8.276431">
<ele>9.579016</ele>
<time>2026-06-17T22:32:08.762Z</time>
</trkpt>
<trkpt lat="55.617592" lon="8.277465">
<ele>9.379694</ele>
<time>2026-06-17T22:32:20.222Z</time>
</trkpt>
<trkpt lat="55.617783" lon="8.280430">
<ele>9.356033</ele>
<time>2026-06-17T22:33:00.780Z</time>
</trkpt>
<trkpt lat="55.617816" lon="8.280945">
<ele>9.393658</ele>
<time>2026-06-17T22:33:07.505Z</time>
</trkpt>
<trkpt lat="55.619085" lon="8.280561">
<ele>8.746041</ele>
<time>2026-06-17T22:33:33.165Z</time>
</trkpt>
<trkpt lat="55.619684" lon="8.280393">
<ele>8.304882</ele>
<time>2026-06-17T22:33:45.049Z</time>
</trkpt>
<trkpt lat="55.620402" lon="8.280159">
<ele>7.966546</ele>
<time>2026-06-17T22:33:59.461Z</time>
</trkpt>
<trkpt lat="55.620471" lon="8.280119">
<ele>7.942417</ele>
<time>2026-06-17T22:34:00.949Z</time>
</trkpt>
<trkpt lat="55.620723" lon="8.279926">
<ele>7.851173</ele>
<time>2026-06-17T22:34:06.759Z</time>
</trkpt>
<trkpt lat="55.620963" lon="8.279666">
<ele>7.757673</ele>
<time>2026-06-17T22:34:12.942Z</time>
</trkpt>
<trkpt lat="55.620998" lon="8.279619">
<ele>7.743076</ele>
<time>2026-06-17T22:34:13.885Z</time>
</trkpt>
<trkpt lat="55.621206" lon="8.279271">
<ele>7.647981</ele>
<time>2026-06-17T22:34:20.037Z</time>
</trkpt>
<trkpt lat="55.621265" lon="8.279150">
<ele>7.617981</ele>
<time>2026-06-17T22:34:21.987Z</time>
</trkpt>
<trkpt lat="55.621669" lon="8.278345">
<ele>7.591200</ele>
<time>2026-06-17T22:34:35.356Z</time>
</trkpt>
<trkpt lat="55.621838" lon="8.278107">
<ele>7.628810</ele>
<time>2026-06-17T22:34:40.333Z</time>
</trkpt>
<trkpt lat="55.621923" lon="8.277994">
<ele>7.647322</ele>
<time>2026-06-17T22:34:42.802Z</time>
</trkpt>
<trkpt lat="55.621969" lon="8.277940">
<ele>7.656935</ele>
<time>2026-06-17T22:34:44.072Z</time>
</trkpt>
<trkpt lat="55.622010" lon="8.277897">
<ele>7.665235</ele>
<time>2026-06-17T22:34:45.190Z</time>
</trkpt>
<trkpt lat="55.622146" lon="8.277754">
<ele>7.692784</ele>
<time>2026-06-17T22:34:48.845Z</time>
</trkpt>
<trkpt lat="55.622238" lon="8.277679">
<ele>7.710425</ele>
<time>2026-06-17T22:34:51.158Z</time>
</trkpt>
<trkpt lat="55.622476" lon="8.277485">
<ele>7.756061</ele>
<time>2026-06-17T22:34:56.911Z</time>
</trkpt>
<trkpt lat="55.622809" lon="8.277274">
<ele>7.817664</ele>
<time>2026-06-17T22:35:04.761Z</time>
</trkpt>
<trkpt lat="55.622940" lon="8.277214">
<ele>7.841233</ele>
<time>2026-06-17T22:35:07.967Z</time>
</trkpt>
<trkpt lat="55.623213" lon="8.277078">
<ele>8.120218</ele>
<time>2026-06-17T22:35:15.186Z</time>
</trkpt>
<trkpt lat="55.623337" lon="8.277016">
<ele>8.253640</ele>
<time>2026-06-17T22:35:18.572Z</time>
</trkpt>
<trkpt lat="55.623488" lon="8.276940">
<ele>8.416194</ele>
<time>2026-06-17T22:35:22.751Z</time>
</trkpt>
<trkpt lat="55.623937" lon="8.276737">
<ele>8.896050</ele>
<time>2026-06-17T22:35:35.169Z</time>
</trkpt>
<trkpt lat="55.623978" lon="8.276160">
<ele>9.236067</ele>
<time>2026-06-17T22:35:44.014Z</time>
</trkpt>
<trkpt lat="55.623990" lon="8.275820">
<ele>9.435244</ele>
<time>2026-06-17T22:35:49.235Z</time>
</trkpt>
<trkpt lat="55.623993" lon="8.275433">
<ele>9.661534</ele>
<time>2026-06-17T22:35:55.343Z</time>
</trkpt>
<trkpt lat="55.623967" lon="8.274694">
<ele>10.108526</ele>
<time>2026-06-17T22:36:07.304Z</time>
</trkpt>
<trkpt lat="55.623895" lon="8.274138">
<ele>10.454157</ele>
<time>2026-06-17T22:36:15.853Z</time>
</trkpt>
<trkpt lat="55.623812" lon="8.273819">
<ele>10.666977</ele>
<time>2026-06-17T22:36:20.950Z</time>
</trkpt>
<trkpt lat="55.623619" lon="8.273243">
<ele>11.072809</ele>
<time>2026-06-17T22:36:30.722Z</time>
</trkpt>
<trkpt lat="55.623519" lon="8.272887">
<ele>11.313733</ele>
<time>2026-06-17T22:36:36.564Z</time>
</trkpt>
<trkpt lat="55.623459" lon="8.272597">
<ele>11.500874</ele>
<time>2026-06-17T22:36:41.140Z</time>
</trkpt>
<trkpt lat="55.623394" lon="8.272238">
<ele>11.703838</ele>
<time>2026-06-17T22:36:46.756Z</time>
</trkpt>
<trkpt lat="55.623373" lon="8.272119">
<ele>11.758565</ele>
<time>2026-06-17T22:36:48.592Z</time>
</trkpt>
<trkpt lat="55.623341" lon="8.271930">
<ele>11.845177</ele>
<time>2026-06-17T22:36:51.523Z</time>
</trkpt>
<trkpt lat="55.623312" lon="8.271781">
<ele>11.914358</ele>
<time>2026-06-17T22:36:53.823Z</time>
</trkpt>
<trkpt lat="55.623226" lon="8.271427">
<ele>12.083520</ele>
<time>2026-06-17T22:36:59.356Z</time>
</trkpt>
<trkpt lat="55.623199" lon="8.271320">
<ele>12.134965</ele>
<time>2026-06-17T22:37:00.991Z</time>
</trkpt>
<trkpt lat="55.623239" lon="8.271084">
<ele>12.243124</ele>
<time>2026-06-17T22:37:04.462Z</time>
</trkpt>
<trkpt lat="55.623316" lon="8.270965">
<ele>12.322572</ele>
<time>2026-06-17T22:37:07.057Z</time>
</trkpt>
<trkpt lat="55.623175" lon="8.270722">
<ele>12.475520</ele>
<time>2026-06-17T22:37:12.183Z</time>
</trkpt>
<trkpt lat="55.623217" lon="8.270646">
<ele>12.522200</ele>
<time>2026-06-17T22:37:14.600Z</time>
</trkpt>
<trkpt lat="55.622741" lon="8.269741">
<ele>13.028713</ele>
<time>2026-06-17T22:37:37.252Z</time>
</trkpt>
<trkpt lat="55.622575" lon="8.269387">
<ele>12.985131</ele>
<time>2026-06-17T22:37:45.222Z</time>
</trkpt>
<trkpt lat="55.622268" lon="8.268776">
<ele>12.907668</ele>
<time>2026-06-17T22:37:58.736Z</time>
</trkpt>
<trkpt lat="55.622112" lon="8.268457">
<ele>12.867699</ele>
<time>2026-06-17T22:38:05.553Z</time>
</trkpt>
<trkpt lat="55.621989" lon="8.268201">
<ele>12.835863</ele>
<time>2026-06-17T22:38:10.897Z</time>
</trkpt>
<trkpt lat="55.621758" lon="8.267735">
<ele>12.777132</ele>
<time>2026-06-17T22:38:20.527Z</time>
</trkpt>
<trkpt lat="55.621619" lon="8.267460">
<ele>12.742175</ele>
<time>2026-06-17T22:38:26.124Z</time>
</trkpt>
<trkpt lat="55.621565" lon="8.267284">
<ele>12.672695</ele>
<time>2026-06-17T22:38:29.112Z</time>
</trkpt>
<trkpt lat="55.621487" lon="8.267036">
<ele>12.513596</ele>
<time>2026-06-17T22:38:32.250Z</time>
</trkpt>
<trkpt lat="55.620677" lon="8.265423">
<ele>11.303798</ele>
<time>2026-06-17T22:38:55.608Z</time>
</trkpt>
<trkpt lat="55.619963" lon="8.263967">
<ele>10.713167</ele>
<time>2026-06-17T22:39:16.551Z</time>
</trkpt>
<trkpt lat="55.619533" lon="8.263124">
<ele>10.506802</ele>
<time>2026-06-17T22:39:30.071Z</time>
</trkpt>
<trkpt lat="55.617243" lon="8.258798">
<ele>11.794877</ele>
<time>2026-06-17T22:40:54.196Z</time>
</trkpt>
<trkpt lat="55.616987" lon="8.258293">
<ele>11.863112</ele>
<time>2026-06-17T22:41:02.345Z</time>
</trkpt>
<trkpt lat="55.616891" lon="8.257985">
<ele>11.898486</ele>
<time>2026-06-17T22:41:06.380Z</time>
</trkpt>
<trkpt lat="55.616763" lon="8.257952">
<ele>11.872734</ele>
<time>2026-06-17T22:41:08.942Z</time>
</trkpt>
<trkpt lat="55.615948" lon="8.256313">
<ele>10.416539</ele>
<time>2026-06-17T22:41:31.877Z</time>
</trkpt>
<trkpt lat="55.615495" lon="8.255864">
<ele>9.803559</ele>
<time>2026-06-17T22:41:41.603Z</time>
</trkpt>
<trkpt lat="55.615395" lon="8.255543">
<ele>9.630150</ele>
<time>2026-06-17T22:41:45.542Z</time>
</trkpt>
<trkpt lat="55.615370" lon="8.254886">
<ele>9.325375</ele>
<time>2026-06-17T22:41:52.650Z</time>
</trkpt>
<trkpt lat="55.615331" lon="8.254822">
<ele>9.281797</ele>
<time>2026-06-17T22:41:53.670Z</time>
</trkpt>
<trkpt lat="55.615227" lon="8.254821">
<ele>9.196562</ele>
<time>2026-06-17T22:41:55.700Z</time>
</trkpt>
<trkpt lat="55.615141" lon="8.254824">
<ele>9.126067</ele>
<time>2026-06-17T22:41:57.375Z</time>
</trkpt>
<trkpt lat="55.615131" lon="8.254419">
<ele>8.938436</ele>
<time>2026-06-17T22:42:01.944Z</time>
</trkpt>
<trkpt lat="55.615092" lon="8.254298">
<ele>8.873954</ele>
<time>2026-06-17T22:42:03.529Z</time>
</trkpt>
<trkpt lat="55.615066" lon="8.254013">
<ele>8.740333</ele>
<time>2026-06-17T22:42:06.871Z</time>
</trkpt>
<trkpt lat="55.614987" lon="8.253711">
<ele>8.586288</ele>
<time>2026-06-17T22:42:10.795Z</time>
</trkpt>
<trkpt lat="55.614978" lon="8.253562">
<ele>8.516931</ele>
<time>2026-06-17T22:42:12.536Z</time>
</trkpt>
<trkpt lat="55.614925" lon="8.253206">
<ele>8.346529</ele>
<time>2026-06-17T22:42:16.782Z</time>
</trkpt>
<trkpt lat="55.614882" lon="8.252281">
<ele>7.999490</ele>
<time>2026-06-17T22:42:27.362Z</time>
</trkpt>
<trkpt lat="55.614881" lon="8.251854">
<ele>7.842602</ele>
<time>2026-06-17T22:42:32.214Z</time>
</trkpt>
<trkpt lat="55.614946" lon="8.251484">
<ele>7.700234</ele>
<time>2026-06-17T22:42:36.621Z</time>
</trkpt>
<trkpt lat="55.614875" lon="8.251307">
<ele>7.620467</ele>
<time>2026-06-17T22:42:39.109Z</time>
</trkpt>
<trkpt lat="55.615002" lon="8.249535">
<ele>7.124812</ele>
<time>2026-06-17T22:42:59.223Z</time>
</trkpt>
<trkpt lat="55.615027" lon="8.248500">
<ele>7.078399</ele>
<time>2026-06-17T22:43:11.156Z</time>
</trkpt>
<trkpt lat="55.615122" lon="8.246708">
<ele>7.078524</ele>
<time>2026-06-17T22:43:34.831Z</time>
</trkpt>
<trkpt lat="55.615110" lon="8.245957">
<ele>7.452461</ele>
<time>2026-06-17T22:43:46.022Z</time>
</trkpt>
<trkpt lat="55.615194" lon="8.243537">
<ele>8.540966</ele>
<time>2026-06-17T22:44:22.727Z</time>
</trkpt>
<trkpt lat="55.615201" lon="8.243395">
<ele>8.491413</ele>
<time>2026-06-17T22:44:24.667Z</time>
</trkpt>
<trkpt lat="55.615207" lon="8.243232">
<ele>8.434627</ele>
<time>2026-06-17T22:44:26.878Z</time>
</trkpt>
<trkpt lat="55.615225" lon="8.242728">
<ele>8.259065</ele>
<time>2026-06-17T22:44:33.446Z</time>
</trkpt>
<trkpt lat="55.615207" lon="8.240861">
<ele>7.609921</ele>
<time>2026-06-17T22:44:53.755Z</time>
</trkpt>
<trkpt lat="55.615175" lon="8.239856">
<ele>6.881431</ele>
<time>2026-06-17T22:45:03.991Z</time>
</trkpt>
<trkpt lat="55.615137" lon="8.239466">
<ele>6.509677</ele>
<time>2026-06-17T22:45:07.976Z</time>
</trkpt>
<trkpt lat="55.614856" lon="8.237495">
<ele>4.600151</ele>
<time>2026-06-17T22:45:28.506Z</time>
</trkpt>
<trkpt lat="55.614757" lon="8.236980">
<ele>4.318303</ele>
<time>2026-06-17T22:45:34.151Z</time>
</trkpt>
<trkpt lat="55.614413" lon="8.235549">
<ele>3.691028</ele>
<time>2026-06-17T22:45:50.856Z</time>
</trkpt>
<trkpt lat="55.614374" lon="8.234723">
<ele>3.356715</ele>
<time>2026-06-17T22:46:00.916Z</time>
</trkpt>
<trkpt lat="55.614007" lon="8.233735">
<ele>3.555939</ele>
<time>2026-06-17T22:46:17.326Z</time>
</trkpt>
<trkpt lat="55.613860" lon="8.233346">
<ele>3.758169</ele>
<time>2026-06-17T22:46:24.234Z</time>
</trkpt>
<trkpt lat="55.613461" lon="8.232468">
<ele>4.245092</ele>
<time>2026-06-17T22:46:41.058Z</time>
</trkpt>
<trkpt lat="55.613131" lon="8.231939">
<ele>4.584243</ele>
<time>2026-06-17T22:46:52.803Z</time>
</trkpt>
<trkpt lat="55.611907" lon="8.230144">
<ele>5.294945</ele>
<time>2026-06-17T22:47:30.675Z</time>
</trkpt>
<trkpt lat="55.611739" lon="8.229897">
<ele>5.390448</ele>
<time>2026-06-17T22:47:35.766Z</time>
</trkpt>
<trkpt lat="55.610889" lon="8.229120">
<ele>5.666052</ele>
<time>2026-06-17T22:47:57.945Z</time>
</trkpt>
<trkpt lat="55.610297" lon="8.228718">
<ele>5.848726</ele>
<time>2026-06-17T22:48:12.773Z</time>
</trkpt>
<trkpt lat="55.609007" lon="8.228033">
<ele>6.194935</ele>
<time>2026-06-17T22:48:45.056Z</time>
</trkpt>
<trkpt lat="55.608468" lon="8.227800">
<ele>6.334657</ele>
<time>2026-06-17T22:48:57.549Z</time>
</trkpt>
<trkpt lat="55.607647" lon="8.227439">
<ele>6.311121</ele>
<time>2026-06-17T22:49:15.725Z</time>
</trkpt>
<trkpt lat="55.607248" lon="8.227220">
<ele>6.285324</ele>
<time>2026-06-17T22:49:24.529Z</time>
</trkpt>
<trkpt lat="55.606973" lon="8.227022">
<ele>6.266991</ele>
<time>2026-06-17T22:49:30.912Z</time>
</trkpt>
<trkpt lat="55.605788" lon="8.226450">
<ele>6.475217</ele>
<time>2026-06-17T22:49:59.732Z</time>
</trkpt>
<trkpt lat="55.605580" lon="8.226776">
<ele>6.545881</ele>
<time>2026-06-17T22:50:06.414Z</time>
</trkpt>
<trkpt lat="55.605517" lon="8.226756">
<ele>6.562161</ele>
<time>2026-06-17T22:50:07.926Z</time>
</trkpt>
<trkpt lat="55.605471" lon="8.226660">
<ele>6.580249</ele>
<time>2026-06-17T22:50:09.628Z</time>
</trkpt>
<trkpt lat="55.605324" lon="8.226459">
<ele>6.627496</ele>
<time>2026-06-17T22:50:14.052Z</time>
</trkpt>
<trkpt lat="55.602405" lon="8.225144">
<ele>7.019352</ele>
<time>2026-06-17T22:51:21.993Z</time>
</trkpt>
<trkpt lat="55.601042" lon="8.225010">
<ele>7.151396</ele>
<time>2026-06-17T22:51:53.414Z</time>
</trkpt>
<trkpt lat="55.599744" lon="8.225166">
<ele>7.219173</ele>
<time>2026-06-17T22:52:22.538Z</time>
</trkpt>
<trkpt lat="55.599596" lon="8.225101">
<ele>7.201848</ele>
<time>2026-06-17T22:52:25.837Z</time>
</trkpt>
<trkpt lat="55.599486" lon="8.225044">
<ele>7.186100</ele>
<time>2026-06-17T22:52:28.313Z</time>
</trkpt>
<trkpt lat="55.598777" lon="8.225232">
<ele>7.087598</ele>
<time>2026-06-17T22:52:43.797Z</time>
</trkpt>
<trkpt lat="55.596196" lon="8.226100">
<ele>6.630250</ele>
<time>2026-06-17T22:53:40.617Z</time>
</trkpt>
<trkpt lat="55.594482" lon="8.226629">
<ele>6.065912</ele>
<time>2026-06-17T22:54:16.646Z</time>
</trkpt>
<trkpt lat="55.593119" lon="8.227049">
<ele>6.414267</ele>
<time>2026-06-17T22:54:48.497Z</time>
</trkpt>
<trkpt lat="55.592559" lon="8.227114">
<ele>6.617767</ele>
<time>2026-06-17T22:55:02.496Z</time>
</trkpt>
<trkpt lat="55.592129" lon="8.227087">
<ele>6.981937</ele>
<time>2026-06-17T22:55:13.548Z</time>
</trkpt>
<trkpt lat="55.591048" lon="8.226812">
<ele>7.906274</ele>
<time>2026-06-17T22:55:42.151Z</time>
</trkpt>
<trkpt lat="55.590544" lon="8.226709">
<ele>8.118007</ele>
<time>2026-06-17T22:55:55.141Z</time>
</trkpt>
<trkpt lat="55.589717" lon="8.226770">
<ele>8.243211</ele>
<time>2026-06-17T22:56:14.386Z</time>
</trkpt>
<trkpt lat="55.589293" lon="8.226957">
<ele>8.309309</ele>
<time>2026-06-17T22:56:23.723Z</time>
</trkpt>
<trkpt lat="55.588829" lon="8.227220">
<ele>8.179878</ele>
<time>2026-06-17T22:56:33.670Z</time>
</trkpt>
<trkpt lat="55.587207" lon="8.228502">
<ele>7.175794</ele>
<time>2026-06-17T22:57:09.210Z</time>
</trkpt>
<trkpt lat="55.585746" lon="8.229581">
<ele>6.746678</ele>
<time>2026-06-17T22:57:43.167Z</time>
</trkpt>
<trkpt lat="55.585174" lon="8.229867">
<ele>6.773683</ele>
<time>2026-06-17T22:57:56.434Z</time>
</trkpt>
<trkpt lat="55.584645" lon="8.230015">
<ele>6.798015</ele>
<time>2026-06-17T22:58:08.452Z</time>
</trkpt>
<trkpt lat="55.584082" lon="8.230053">
<ele>6.823612</ele>
<time>2026-06-17T22:58:21.193Z</time>
</trkpt>
<trkpt lat="55.583154" lon="8.230058">
<ele>7.083779</ele>
<time>2026-06-17T22:58:42.793Z</time>
</trkpt>
<trkpt lat="55.581929" lon="8.230010">
<ele>7.455021</ele>
<time>2026-06-17T22:59:11.769Z</time>
</trkpt>
<trkpt lat="55.580727" lon="8.229754">
<ele>7.828105</ele>
<time>2026-06-17T22:59:40.243Z</time>
</trkpt>
<trkpt lat="55.579379" lon="8.229252">
<ele>8.024960</ele>
<time>2026-06-17T23:00:12.537Z</time>
</trkpt>
<trkpt lat="55.577996" lon="8.228541">
<ele>7.913016</ele>
<time>2026-06-17T23:00:43.301Z</time>
</trkpt>
<trkpt lat="55.578011" lon="8.228346">
<ele>7.884574</ele>
<time>2026-06-17T23:00:45.669Z</time>
</trkpt>
<trkpt lat="55.578078" lon="8.227537">
<ele>7.766405</ele>
<time>2026-06-17T23:00:55.592Z</time>
</trkpt>
<trkpt lat="55.578060" lon="8.227226">
<ele>7.721222</ele>
<time>2026-06-17T23:00:59.435Z</time>
</trkpt>
<trkpt lat="55.577998" lon="8.226884">
<ele>7.669315</ele>
<time>2026-06-17T23:01:03.873Z</time>
</trkpt>
<trkpt lat="55.577371" lon="8.224262">
<ele>7.094373</ele>
<time>2026-06-17T23:01:37.540Z</time>
</trkpt>
<trkpt lat="55.577263" lon="8.223978">
<ele>7.023432</ele>
<time>2026-06-17T23:01:41.489Z</time>
</trkpt>
<trkpt lat="55.576886" lon="8.223160">
<ele>6.933309</ele>
<time>2026-06-17T23:01:53.865Z</time>
</trkpt>
<trkpt lat="55.576475" lon="8.222143">
<ele>6.869823</ele>
<time>2026-06-17T23:02:08.899Z</time>
</trkpt>
<trkpt lat="55.575798" lon="8.219657">
<ele>7.198808</ele>
<time>2026-06-17T23:02:45.596Z</time>
</trkpt>
<trkpt lat="55.575334" lon="8.218051">
<ele>7.603213</ele>
<time>2026-06-17T23:03:10.896Z</time>
</trkpt>
<trkpt lat="55.573903" lon="8.214536">
<ele>8.277206</ele>
<time>2026-06-17T23:04:07.466Z</time>
</trkpt>
<trkpt lat="55.573865" lon="8.214242">
<ele>8.314278</ele>
<time>2026-06-17T23:04:11.369Z</time>
</trkpt>
<trkpt lat="55.573500" lon="8.213349">
<ele>8.449736</ele>
<time>2026-06-17T23:04:25.542Z</time>
</trkpt>
<trkpt lat="55.573012" lon="8.212126">
<ele>8.606375</ele>
<time>2026-06-17T23:04:45.460Z</time>
</trkpt>
<trkpt lat="55.572542" lon="8.210766">
<ele>8.764065</ele>
<time>2026-06-17T23:05:06.184Z</time>
</trkpt>
<trkpt lat="55.572313" lon="8.210206">
<ele>8.797833</ele>
<time>2026-06-17T23:05:14.975Z</time>
</trkpt>
<trkpt lat="55.572244" lon="8.210050">
<ele>8.789374</ele>
<time>2026-06-17T23:05:17.464Z</time>
</trkpt>
<trkpt lat="55.572094" lon="8.209899">
<ele>8.776336</ele>
<time>2026-06-17T23:05:21.260Z</time>
</trkpt>
<trkpt lat="55.571856" lon="8.209484">
<ele>8.751090</ele>
<time>2026-06-17T23:05:28.533Z</time>
</trkpt>
<trkpt lat="55.570609" lon="8.207785">
<ele>8.664564</ele>
<time>2026-06-17T23:06:02.781Z</time>
</trkpt>
<trkpt lat="55.570300" lon="8.207226">
<ele>8.658061</ele>
<time>2026-06-17T23:06:12.588Z</time>
</trkpt>
<trkpt lat="55.570135" lon="8.206847">
<ele>8.654082</ele>
<time>2026-06-17T23:06:18.630Z</time>
</trkpt>
<trkpt lat="55.569950" lon="8.206405">
<ele>8.649508</ele>
<time>2026-06-17T23:06:25.610Z</time>
</trkpt>
<trkpt lat="55.569663" lon="8.205409">
<ele>8.630898</ele>
<time>2026-06-17T23:06:39.891Z</time>
</trkpt>
<trkpt lat="55.569447" lon="8.204388">
<ele>8.607082</ele>
<time>2026-06-17T23:06:53.876Z</time>
</trkpt>
<trkpt lat="55.569127" lon="8.202842">
<ele>8.530013</ele>
<time>2026-06-17T23:07:14.151Z</time>
</trkpt>
<trkpt lat="55.568941" lon="8.201846">
<ele>8.330114</ele>
<time>2026-06-17T23:07:26.474Z</time>
</trkpt>
<trkpt lat="55.568832" lon="8.201102">
<ele>8.183642</ele>
<time>2026-06-17T23:07:35.353Z</time>
</trkpt>
<trkpt lat="55.568641" lon="8.199607">
<ele>7.990406</ele>
<time>2026-06-17T23:07:53.494Z</time>
</trkpt>
<trkpt lat="55.568580" lon="8.198913">
<ele>8.024808</ele>
<time>2026-06-17T23:08:02.300Z</time>
</trkpt>
<trkpt lat="55.568471" lon="8.194481">
<ele>8.539930</ele>
<time>2026-06-17T23:09:00.773Z</time>
</trkpt>
<trkpt lat="55.568458" lon="8.191254">
<ele>8.973054</ele>
<time>2026-06-17T23:09:43.963Z</time>
</trkpt>
<trkpt lat="55.568405" lon="8.190463">
<ele>9.061793</ele>
<time>2026-06-17T23:09:53.808Z</time>
</trkpt>
<trkpt lat="55.568164" lon="8.188206">
<ele>8.803792</ele>
<time>2026-06-17T23:10:21.623Z</time>
</trkpt>
<trkpt lat="55.567911" lon="8.186334">
<ele>8.514491</ele>
<time>2026-06-17T23:10:45.015Z</time>
</trkpt>
<trkpt lat="55.567647" lon="8.184287">
<ele>8.135500</ele>
<time>2026-06-17T23:11:09.635Z</time>
</trkpt>
<trkpt lat="55.567538" lon="8.183710">
<ele>8.113060</ele>
<time>2026-06-17T23:11:16.828Z</time>
</trkpt>
<trkpt lat="55.567361" lon="8.183062">
<ele>8.088115</ele>
<time>2026-06-17T23:11:25.669Z</time>
</trkpt>
<trkpt lat="55.566610" lon="8.180559">
<ele>7.967631</ele>
<time>2026-06-17T23:12:02.164Z</time>
</trkpt>
<trkpt lat="55.566149" lon="8.179111">
<ele>7.871941</ele>
<time>2026-06-17T23:12:22.632Z</time>
</trkpt>
<trkpt lat="55.565743" lon="8.178084">
<ele>7.733362</ele>
<time>2026-06-17T23:12:37.216Z</time>
</trkpt>
<trkpt lat="55.565159" lon="8.176605">
<ele>7.459588</ele>
<time>2026-06-17T23:12:58.549Z</time>
</trkpt>
<trkpt lat="55.564251" lon="8.174251">
<ele>7.385342</ele>
<time>2026-06-17T23:13:34.817Z</time>
</trkpt>
<trkpt lat="55.564043" lon="8.173687">
<ele>7.393905</ele>
<time>2026-06-17T23:13:43.273Z</time>
</trkpt>
<trkpt lat="55.563627" lon="8.172281">
<ele>7.421341</ele>
<time>2026-06-17T23:14:03.147Z</time>
</trkpt>
<trkpt lat="55.563502" lon="8.171821">
<ele>7.430777</ele>
<time>2026-06-17T23:14:09.523Z</time>
</trkpt>
<trkpt lat="55.563067" lon="8.170581">
<ele>7.459845</ele>
<time>2026-06-17T23:14:28.196Z</time>
</trkpt>
<trkpt lat="55.562876" lon="8.170141">
<ele>7.495194</ele>
<time>2026-06-17T23:14:35.481Z</time>
</trkpt>
<trkpt lat="55.562212" lon="8.168773">
<ele>7.610085</ele>
<time>2026-06-17T23:14:58.913Z</time>
</trkpt>
<trkpt lat="55.561973" lon="8.168276">
<ele>7.651663</ele>
<time>2026-06-17T23:15:07.201Z</time>
</trkpt>
<trkpt lat="55.561415" lon="8.167011">
<ele>7.565820</ele>
<time>2026-06-17T23:15:26.971Z</time>
</trkpt>
<trkpt lat="55.561068" lon="8.166049">
<ele>7.493507</ele>
<time>2026-06-17T23:15:40.731Z</time>
</trkpt>
<trkpt lat="55.560756" lon="8.164913">
<ele>7.433319</ele>
<time>2026-06-17T23:15:56.252Z</time>
</trkpt>
<trkpt lat="55.560472" lon="8.163609">
<ele>7.384201</ele>
<time>2026-06-17T23:16:13.794Z</time>
</trkpt>
<trkpt lat="55.560469" lon="8.163495">
<ele>7.380190</ele>
<time>2026-06-17T23:16:15.228Z</time>
</trkpt>
<trkpt lat="55.560462" lon="8.163293">
<ele>7.373076</ele>
<time>2026-06-17T23:16:17.766Z</time>
</trkpt>
<trkpt lat="55.560429" lon="8.163128">
<ele>7.366924</ele>
<time>2026-06-17T23:16:19.970Z</time>
</trkpt>
<trkpt lat="55.560323" lon="8.162599">
<ele>7.347197</ele>
<time>2026-06-17T23:16:27.023Z</time>
</trkpt>
<trkpt lat="55.560261" lon="8.162132">
<ele>7.344926</ele>
<time>2026-06-17T23:16:33.075Z</time>
</trkpt>
<trkpt lat="55.560189" lon="8.161788">
<ele>7.343858</ele>
<time>2026-06-17T23:16:37.687Z</time>
</trkpt>
<trkpt lat="55.560077" lon="8.161542">
<ele>7.342940</ele>
<time>2026-06-17T23:16:41.652Z</time>
</trkpt>
<trkpt lat="55.559860" lon="8.160475">
<ele>7.339640</ele>
<time>2026-06-17T23:16:55.910Z</time>
</trkpt>
<trkpt lat="55.559313" lon="8.157506">
<ele>7.183519</ele>
<time>2026-06-17T23:17:34.738Z</time>
</trkpt>
<trkpt lat="55.559031" lon="8.156168">
<ele>7.066655</ele>
<time>2026-06-17T23:17:52.146Z</time>
</trkpt>
<trkpt lat="55.558655" lon="8.154240">
<ele>6.846153</ele>
<time>2026-06-17T23:18:16.773Z</time>
</trkpt>
<trkpt lat="55.558308" lon="8.152788">
<ele>6.733582</ele>
<time>2026-06-17T23:18:36.234Z</time>
</trkpt>
<trkpt lat="55.558080" lon="8.151834">
<ele>6.688619</ele>
<time>2026-06-17T23:18:49.221Z</time>
</trkpt>
<trkpt lat="55.557776" lon="8.150429">
<ele>6.638139</ele>
<time>2026-06-17T23:19:07.879Z</time>
</trkpt>
<trkpt lat="55.557444" lon="8.148797">
<ele>6.664117</ele>
<time>2026-06-17T23:19:29.710Z</time>
</trkpt>
<trkpt lat="55.557435" lon="8.148447">
<ele>6.669365</ele>
<time>2026-06-17T23:19:34.186Z</time>
</trkpt>
<trkpt lat="55.557322" lon="8.148081">
<ele>6.675611</ele>
<time>2026-06-17T23:19:39.450Z</time>
</trkpt>
<trkpt lat="55.557004" lon="8.147043">
<ele>6.639477</ele>
<time>2026-06-17T23:19:54.276Z</time>
</trkpt>
<trkpt lat="55.556919" lon="8.146553">
<ele>6.610669</ele>
<time>2026-06-17T23:20:00.828Z</time>
</trkpt>
<trkpt lat="55.556903" lon="8.146250">
<ele>6.593563</ele>
<time>2026-06-17T23:20:04.707Z</time>
</trkpt>
<trkpt lat="55.556877" lon="8.145617">
<ele>6.557890</ele>
<time>2026-06-17T23:20:12.659Z</time>
</trkpt>
<trkpt lat="55.556873" lon="8.145512">
<ele>6.551974</ele>
<time>2026-06-17T23:20:13.962Z</time>
</trkpt>
<trkpt lat="55.556869" lon="8.145407">
<ele>6.546059</ele>
<time>2026-06-17T23:20:15.231Z</time>
</trkpt>
<trkpt lat="55.556842" lon="8.144600">
<ele>6.496946</ele>
<time>2026-06-17T23:20:24.799Z</time>
</trkpt>
<trkpt lat="55.556836" lon="8.144448">
<ele>6.476277</ele>
<time>2026-06-17T23:20:26.592Z</time>
</trkpt>
<trkpt lat="55.556823" lon="8.144033">
<ele>6.419895</ele>
<time>2026-06-17T23:20:31.495Z</time>
</trkpt>
<trkpt lat="55.556816" lon="8.143850">
<ele>6.395014</ele>
<time>2026-06-17T23:20:33.681Z</time>
</trkpt>
<trkpt lat="55.556740" lon="8.142791">
<ele>6.250206</ele>
<time>2026-06-17T23:20:46.547Z</time>
</trkpt>
<trkpt lat="55.556719" lon="8.142566">
<ele>6.219271</ele>
<time>2026-06-17T23:20:49.284Z</time>
</trkpt>
<trkpt lat="55.556702" lon="8.142426">
<ele>6.199847</ele>
<time>2026-06-17T23:20:50.996Z</time>
</trkpt>
<trkpt lat="55.556691" lon="8.142292">
<ele>6.181479</ele>
<time>2026-06-17T23:20:52.591Z</time>
</trkpt>
<trkpt lat="55.556655" lon="8.141909">
<ele>6.128811</ele>
<time>2026-06-17T23:20:57.209Z</time>
</trkpt>
<trkpt lat="55.556619" lon="8.141556">
<ele>6.080154</ele>
<time>2026-06-17T23:21:01.493Z</time>
</trkpt>
<trkpt lat="55.556601" lon="8.141373">
<ele>6.081234</ele>
<time>2026-06-17T23:21:03.767Z</time>
</trkpt>
<trkpt lat="55.556430" lon="8.139640">
<ele>6.214298</ele>
<time>2026-06-17T23:21:27.485Z</time>
</trkpt>
<trkpt lat="55.556425" lon="8.139588">
<ele>6.218287</ele>
<time>2026-06-17T23:21:28.177Z</time>
</trkpt>
<trkpt lat="55.556318" lon="8.138939">
<ele>6.269421</ele>
<time>2026-06-17T23:21:36.746Z</time>
</trkpt>
<trkpt lat="55.556250" lon="8.138657">
<ele>6.292609</ele>
<time>2026-06-17T23:21:40.549Z</time>
</trkpt>
<trkpt lat="55.556026" lon="8.137820">
<ele>6.270121</ele>
<time>2026-06-17T23:21:52.071Z</time>
</trkpt>
<trkpt lat="55.556011" lon="8.137766">
<ele>6.266297</ele>
<time>2026-06-17T23:21:52.838Z</time>
</trkpt>
<trkpt lat="55.555965" lon="8.137600">
<ele>6.254548</ele>
<time>2026-06-17T23:21:55.184Z</time>
</trkpt>
<trkpt lat="55.555938" lon="8.137455">
<ele>6.244846</ele>
<time>2026-06-17T23:21:57.120Z</time>
</trkpt>
<trkpt lat="55.555844" lon="8.136876">
<ele>6.206560</ele>
<time>2026-06-17T23:22:04.439Z</time>
</trkpt>
<trkpt lat="55.555805" lon="8.136360">
<ele>6.173472</ele>
<time>2026-06-17T23:22:10.504Z</time>
</trkpt>
<trkpt lat="55.555799" lon="8.135680">
<ele>6.130247</ele>
<time>2026-06-17T23:22:18.651Z</time>
</trkpt>
<trkpt lat="55.555796" lon="8.135360">
<ele>6.110783</ele>
<time>2026-06-17T23:22:22.732Z</time>
</trkpt>
<trkpt lat="55.555793" lon="8.134903">
<ele>6.155429</ele>
<time>2026-06-17T23:22:28.705Z</time>
</trkpt>
<trkpt lat="55.555785" lon="8.134721">
<ele>6.173262</ele>
<time>2026-06-17T23:22:31.117Z</time>
</trkpt>
<trkpt lat="55.555756" lon="8.134577">
<ele>6.188194</ele>
<time>2026-06-17T23:22:33.123Z</time>
</trkpt>
<trkpt lat="55.555686" lon="8.134021">
<ele>6.243838</ele>
<time>2026-06-17T23:22:40.588Z</time>
</trkpt>
<trkpt lat="55.555621" lon="8.133365">
<ele>6.308898</ele>
<time>2026-06-17T23:22:49.256Z</time>
</trkpt>
<trkpt lat="55.555555" lon="8.132814">
<ele>6.363918</ele>
<time>2026-06-17T23:22:56.768Z</time>
</trkpt>
<trkpt lat="55.555513" lon="8.132456">
<ele>6.399635</ele>
<time>2026-06-17T23:23:01.632Z</time>
</trkpt>
<trkpt lat="55.555450" lon="8.131927">
<ele>6.420448</ele>
<time>2026-06-17T23:23:08.657Z</time>
</trkpt>
<trkpt lat="55.555406" lon="8.131552">
<ele>6.419909</ele>
<time>2026-06-17T23:23:13.520Z</time>
</trkpt>
<trkpt lat="55.555395" lon="8.131459">
<ele>6.419775</ele>
<time>2026-06-17T23:23:14.715Z</time>
</trkpt>
<trkpt lat="55.555352" lon="8.131097">
<ele>6.419253</ele>
<time>2026-06-17T23:23:19.406Z</time>
</trkpt>
<trkpt lat="55.555281" lon="8.130524">
<ele>6.418427</ele>
<time>2026-06-17T23:23:26.775Z</time>
</trkpt>
<trkpt lat="55.555219" lon="8.130020">
<ele>6.417700</ele>
<time>2026-06-17T23:23:33.272Z</time>
</trkpt>
<trkpt lat="55.555199" lon="8.129859">
<ele>6.417467</ele>
<time>2026-06-17T23:23:35.340Z</time>
</trkpt>
<trkpt lat="55.555128" lon="8.129265">
<ele>6.416612</ele>
<time>2026-06-17T23:23:42.766Z</time>
</trkpt>
<trkpt lat="55.555083" lon="8.128889">
<ele>6.379107</ele>
<time>2026-06-17T23:23:47.358Z</time>
</trkpt>
<trkpt lat="55.555025" lon="8.128396">
<ele>6.303773</ele>
<time>2026-06-17T23:23:53.422Z</time>
</trkpt>
<trkpt lat="55.555008" lon="8.128247">
<ele>6.281033</ele>
<time>2026-06-17T23:23:55.274Z</time>
</trkpt>
<trkpt lat="55.554943" lon="8.127743">
<ele>6.203696</ele>
<time>2026-06-17T23:24:01.637Z</time>
</trkpt>
<trkpt lat="55.554803" lon="8.127004">
<ele>6.087100</ele>
<time>2026-06-17T23:24:10.962Z</time>
</trkpt>
<trkpt lat="55.554518" lon="8.126025">
<ele>5.924971</ele>
<time>2026-06-17T23:24:24.123Z</time>
</trkpt>
<trkpt lat="55.554527" lon="8.125937">
<ele>5.913490</ele>
<time>2026-06-17T23:24:25.201Z</time>
</trkpt>
<trkpt lat="55.554381" lon="8.125453">
<ele>5.843067</ele>
<time>2026-06-17T23:24:31.767Z</time>
</trkpt>
<trkpt lat="55.554141" lon="8.124718">
<ele>5.734108</ele>
<time>2026-06-17T23:24:41.890Z</time>
</trkpt>
<trkpt lat="55.553979" lon="8.124223">
<ele>5.660686</ele>
<time>2026-06-17T23:24:48.720Z</time>
</trkpt>
<trkpt lat="55.553904" lon="8.123988">
<ele>5.626044</ele>
<time>2026-06-17T23:24:51.976Z</time>
</trkpt>
<trkpt lat="55.553860" lon="8.123850">
<ele>5.605705</ele>
<time>2026-06-17T23:24:53.879Z</time>
</trkpt>
<trkpt lat="55.553696" lon="8.123339">
<ele>5.532091</ele>
<time>2026-06-17T23:25:01.051Z</time>
</trkpt>
<trkpt lat="55.553672" lon="8.123264">
<ele>5.530386</ele>
<time>2026-06-17T23:25:02.108Z</time>
</trkpt>
<trkpt lat="55.553659" lon="8.123222">
<ele>5.529438</ele>
<time>2026-06-17T23:25:02.696Z</time>
</trkpt>
<trkpt lat="55.553477" lon="8.122643">
<ele>5.516329</ele>
<time>2026-06-17T23:25:11.035Z</time>
</trkpt>
<trkpt lat="55.553425" lon="8.122478">
<ele>5.512590</ele>
<time>2026-06-17T23:25:13.446Z</time>
</trkpt>
<trkpt lat="55.553291" lon="8.122050">
<ele>5.502909</ele>
<time>2026-06-17T23:25:19.724Z</time>
</trkpt>
<trkpt lat="55.553192" lon="8.121735">
<ele>5.495777</ele>
<time>2026-06-17T23:25:24.345Z</time>
</trkpt>
<trkpt lat="55.553058" lon="8.121308">
<ele>5.486112</ele>
<time>2026-06-17T23:25:30.548Z</time>
</trkpt>
<trkpt lat="55.553046" lon="8.121271">
<ele>5.485268</ele>
<time>2026-06-17T23:25:31.075Z</time>
</trkpt>
<trkpt lat="55.553010" lon="8.121146">
<ele>5.482492</ele>
<time>2026-06-17T23:25:32.834Z</time>
</trkpt>
<trkpt lat="55.552920" lon="8.120828">
<ele>5.475455</ele>
<time>2026-06-17T23:25:37.210Z</time>
</trkpt>
<trkpt lat="55.552772" lon="8.120190">
<ele>5.412932</ele>
<time>2026-06-17T23:25:45.703Z</time>
</trkpt>
<trkpt lat="55.552701" lon="8.119677">
<ele>5.335980</ele>
<time>2026-06-17T23:25:52.192Z</time>
</trkpt>
<trkpt lat="55.552663" lon="8.119143">
<ele>5.257558</ele>
<time>2026-06-17T23:25:58.734Z</time>
</trkpt>
<trkpt lat="55.552616" lon="8.118301">
<ele>5.134276</ele>
<time>2026-06-17T23:26:08.667Z</time>
</trkpt>
<trkpt lat="55.552557" lon="8.117247">
<ele>4.995247</ele>
<time>2026-06-17T23:26:21.004Z</time>
</trkpt>
<trkpt lat="55.552533" lon="8.116815">
<ele>4.968898</ele>
<time>2026-06-17T23:26:26.445Z</time>
</trkpt>
<trkpt lat="55.552514" lon="8.116478">
<ele>4.948341</ele>
<time>2026-06-17T23:26:30.717Z</time>
</trkpt>
<trkpt lat="55.552462" lon="8.115557">
<ele>4.892159</ele>
<time>2026-06-17T23:26:42.335Z</time>
</trkpt>
<trkpt lat="55.552439" lon="8.115199">
<ele>4.870289</ele>
<time>2026-06-17T23:26:46.821Z</time>
</trkpt>
<trkpt lat="55.552411" lon="8.114727">
<ele>4.841481</ele>
<time>2026-06-17T23:26:52.732Z</time>
</trkpt>
<trkpt lat="55.552401" lon="8.114427">
<ele>4.823240</ele>
<time>2026-06-17T23:26:56.537Z</time>
</trkpt>
<trkpt lat="55.552390" lon="8.113966">
<ele>4.766686</ele>
<time>2026-06-17T23:27:02.303Z</time>
</trkpt>
<trkpt lat="55.552373" lon="8.113209">
<ele>4.647467</ele>
<time>2026-06-17T23:27:11.845Z</time>
</trkpt>
<trkpt lat="55.552367" lon="8.112828">
<ele>4.587488</ele>
<time>2026-06-17T23:27:16.436Z</time>
</trkpt>
<trkpt lat="55.552362" lon="8.112586">
<ele>4.549381</ele>
<time>2026-06-17T23:27:19.302Z</time>
</trkpt>
<trkpt lat="55.552355" lon="8.112099">
<ele>4.472719</ele>
<time>2026-06-17T23:27:25.005Z</time>
</trkpt>
<trkpt lat="55.552343" lon="8.111395">
<ele>4.361884</ele>
<time>2026-06-17T23:27:33.198Z</time>
</trkpt>
<trkpt lat="55.552341" lon="8.111271">
<ele>4.342363</ele>
<time>2026-06-17T23:27:34.614Z</time>
</trkpt>
<trkpt lat="55.552321" lon="8.110023">
<ele>4.118400</ele>
<time>2026-06-17T23:27:49.103Z</time>
</trkpt>
<trkpt lat="55.552309" lon="8.109235">
<ele>3.973915</ele>
<time>2026-06-17T23:27:58.391Z</time>
</trkpt>
<trkpt lat="55.552295" lon="8.108018">
<ele>3.750804</ele>
<time>2026-06-17T23:28:13.160Z</time>
</trkpt>
<trkpt lat="55.552304" lon="8.107298">
<ele>3.702815</ele>
<time>2026-06-17T23:28:22.268Z</time>
</trkpt>
<trkpt lat="55.552309" lon="8.106915">
<ele>3.685670</ele>
<time>2026-06-17T23:28:27.167Z</time>
</trkpt>
<trkpt lat="55.552316" lon="8.106654">
<ele>3.673976</ele>
<time>2026-06-17T23:28:30.480Z</time>
</trkpt>
<trkpt lat="55.552353" lon="8.105426">
<ele>3.618939</ele>
<time>2026-06-17T23:28:45.994Z</time>
</trkpt>
<trkpt lat="55.552397" lon="8.104761">
<ele>3.588974</ele>
<time>2026-06-17T23:28:54.164Z</time>
</trkpt>
<trkpt lat="55.552410" lon="8.104567">
<ele>3.571054</ele>
<time>2026-06-17T23:28:56.519Z</time>
</trkpt>
<trkpt lat="55.552419" lon="8.104412">
<ele>3.555450</ele>
<time>2026-06-17T23:28:58.381Z</time>
</trkpt>
<trkpt lat="55.552463" lon="8.103718">
<ele>3.485517</ele>
<time>2026-06-17T23:29:06.665Z</time>
</trkpt>
<trkpt lat="55.552468" lon="8.103657">
<ele>3.479344</ele>
<time>2026-06-17T23:29:07.387Z</time>
</trkpt>
<trkpt lat="55.552557" lon="8.102864">
<ele>3.398384</ele>
<time>2026-06-17T23:29:16.979Z</time>
</trkpt>
<trkpt lat="55.552760" lon="8.101721">
<ele>3.278414</ele>
<time>2026-06-17T23:29:31.794Z</time>
</trkpt>
<trkpt lat="55.552912" lon="8.100865">
<ele>3.272786</ele>
<time>2026-06-17T23:29:43.331Z</time>
</trkpt>
<trkpt lat="55.552986" lon="8.100236">
<ele>3.275631</ele>
<time>2026-06-17T23:29:51.687Z</time>
</trkpt>
<trkpt lat="55.553036" lon="8.099475">
<ele>3.279024</ele>
<time>2026-06-17T23:30:01.533Z</time>
</trkpt>
<trkpt lat="55.553064" lon="8.099028">
<ele>3.281015</ele>
<time>2026-06-17T23:30:07.117Z</time>
</trkpt>
<trkpt lat="55.553093" lon="8.098593">
<ele>3.282955</ele>
<time>2026-06-17T23:30:12.461Z</time>
</trkpt>
<trkpt lat="55.553149" lon="8.097519">
<ele>3.238457</ele>
<time>2026-06-17T23:30:25.402Z</time>
</trkpt>
<trkpt lat="55.553164" lon="8.097223">
<ele>3.225136</ele>
<time>2026-06-17T23:30:29.001Z</time>
</trkpt>
<trkpt lat="55.553287" lon="8.096368">
<ele>3.185592</ele>
<time>2026-06-17T23:30:39.940Z</time>
</trkpt>
<trkpt lat="55.553595" lon="8.095213">
<ele>3.219953</ele>
<time>2026-06-17T23:30:56.197Z</time>
</trkpt>
<trkpt lat="55.553800" lon="8.094480">
<ele>3.453767</ele>
<time>2026-06-17T23:31:06.730Z</time>
</trkpt>
<trkpt lat="55.554194" lon="8.093080">
<ele>3.900892</ele>
<time>2026-06-17T23:31:28.245Z</time>
</trkpt>
<trkpt lat="55.554250" lon="8.092896">
<ele>3.960637</ele>
<time>2026-06-17T23:31:31.326Z</time>
</trkpt>
<trkpt lat="55.554366" lon="8.092517">
<ele>4.091635</ele>
<time>2026-06-17T23:31:37.817Z</time>
</trkpt>
<trkpt lat="55.554537" lon="8.092072">
<ele>4.280832</ele>
<time>2026-06-17T23:31:46.014Z</time>
</trkpt>
<trkpt lat="55.554691" lon="8.091752">
<ele>4.428592</ele>
<time>2026-06-17T23:31:52.365Z</time>
</trkpt>
<trkpt lat="55.554874" lon="8.091441">
<ele>4.586416</ele>
<time>2026-06-17T23:31:59.013Z</time>
</trkpt>
<trkpt lat="55.554949" lon="8.091386">
<ele>4.636900</ele>
<time>2026-06-17T23:32:01.129Z</time>
</trkpt>
<trkpt lat="55.555220" lon="8.091326">
<ele>4.806713</ele>
<time>2026-06-17T23:32:07.988Z</time>
</trkpt>
<trkpt lat="55.555420" lon="8.091215">
<ele>4.937048</ele>
<time>2026-06-17T23:32:13.020Z</time>
</trkpt>
<trkpt lat="55.555750" lon="8.090911">
<ele>5.168321</ele>
<time>2026-06-17T23:32:21.477Z</time>
</trkpt>
<trkpt lat="55.555803" lon="8.090876">
<ele>5.156976</ele>
<time>2026-06-17T23:32:22.714Z</time>
</trkpt>
<trkpt lat="55.556253" lon="8.090564">
<ele>5.060052</ele>
<time>2026-06-17T23:32:32.709Z</time>
</trkpt>
<trkpt lat="55.556293" lon="8.090526">
<ele>5.050947</ele>
<time>2026-06-17T23:32:33.634Z</time>
</trkpt>
<trkpt lat="55.556385" lon="8.090397">
<ele>5.027402</ele>
<time>2026-06-17T23:32:36.016Z</time>
</trkpt>
<trkpt lat="55.556497" lon="8.090175">
<ele>4.993664</ele>
<time>2026-06-17T23:32:39.430Z</time>
</trkpt>
<trkpt lat="55.556761" lon="8.089458">
<ele>4.896634</ele>
<time>2026-06-17T23:32:49.555Z</time>
</trkpt>
<trkpt lat="55.556788" lon="8.089353">
<ele>4.883553</ele>
<time>2026-06-17T23:32:50.979Z</time>
</trkpt>
<trkpt lat="55.556818" lon="8.089223">
<ele>4.867630</ele>
<time>2026-06-17T23:32:52.736Z</time>
</trkpt>
<trkpt lat="55.556965" lon="8.088579">
<ele>4.859838</ele>
<time>2026-06-17T23:33:01.798Z</time>
</trkpt>
<trkpt lat="55.556987" lon="8.088484">
<ele>4.892120</ele>
<time>2026-06-17T23:33:03.146Z</time>
</trkpt>
<trkpt lat="55.557035" lon="8.088294">
<ele>4.957557</ele>
<time>2026-06-17T23:33:05.861Z</time>
</trkpt>
<trkpt lat="55.557144" lon="8.087900">
<ele>5.095484</ele>
<time>2026-06-17T23:33:11.542Z</time>
</trkpt>
<trkpt lat="55.557278" lon="8.087462">
<ele>5.252078</ele>
<time>2026-06-17T23:33:17.969Z</time>
</trkpt>
<trkpt lat="55.557308" lon="8.087293">
<ele>5.307779</ele>
<time>2026-06-17T23:33:20.322Z</time>
</trkpt>
<trkpt lat="55.557494" lon="8.087214">
<ele>5.414136</ele>
<time>2026-06-17T23:33:25.392Z</time>
</trkpt>
<trkpt lat="55.557581" lon="8.087228">
<ele>5.462708</ele>
<time>2026-06-17T23:33:27.734Z</time>
</trkpt>
<trkpt lat="55.558078" lon="8.087502">
<ele>5.752161</ele>
<time>2026-06-17T23:33:42.541Z</time>
</trkpt>
<trkpt lat="55.558135" lon="8.087485">
<ele>5.784300</ele>
<time>2026-06-17T23:33:44.192Z</time>
</trkpt>
<trkpt lat="55.558145" lon="8.087284">
<ele>5.920601</ele>
<time>2026-06-17T23:33:47.612Z</time>
</trkpt>
<trkpt lat="55.558267" lon="8.086572">
<ele>6.580327</ele>
<time>2026-06-17T23:34:00.448Z</time>
</trkpt>
<trkpt lat="55.558329" lon="8.086207">
<ele>6.918283</ele>
<time>2026-06-17T23:34:07.215Z</time>
</trkpt>
<trkpt lat="55.558376" lon="8.086070">
<ele>7.060374</ele>
<time>2026-06-17T23:34:10.191Z</time>
</trkpt>
<trkpt lat="55.558339" lon="8.085475">
<ele>7.591184</ele>
<time>2026-06-17T23:34:25.532Z</time>
</trkpt>
<trkpt lat="55.558651" lon="8.085161">
<ele>8.154075</ele>
<time>2026-06-17T23:34:41.848Z</time>
</trkpt>
<trkpt lat="55.558814" lon="8.084950">
<ele>8.470819</ele>
<time>2026-06-17T23:34:50.741Z</time>
</trkpt>
<trkpt lat="55.559101" lon="8.084819">
<ele>8.582807</ele>
<time>2026-06-17T23:35:03.224Z</time>
</trkpt>
<trkpt lat="55.559333" lon="8.084800">
<ele>8.529456</ele>
<time>2026-06-17T23:35:12.568Z</time>
</trkpt>
<trkpt lat="55.559438" lon="8.084627">
<ele>8.496488</ele>
<time>2026-06-17T23:35:18.158Z</time>
</trkpt>
<trkpt lat="55.559444" lon="8.084346">
<ele>8.459956</ele>
<time>2026-06-17T23:35:22.189Z</time>
</trkpt>
<trkpt lat="55.559370" lon="8.082882">
<ele>8.269004</ele>
<time>2026-06-17T23:35:40.854Z</time>
</trkpt>
<trkpt lat="55.559430" lon="8.082462">
<ele>8.199850</ele>
<time>2026-06-17T23:35:45.752Z</time>
</trkpt>
<trkpt lat="55.559371" lon="8.082059">
<ele>7.795444</ele>
<time>2026-06-17T23:35:50.417Z</time>
</trkpt>
<trkpt lat="55.559177" lon="8.081704">
<ele>7.315875</ele>
<time>2026-06-17T23:35:56.072Z</time>
</trkpt>
<trkpt lat="55.559106" lon="8.081492">
<ele>7.076521</ele>
<time>2026-06-17T23:35:58.934Z</time>
</trkpt>
<trkpt lat="55.559059" lon="8.081181">
<ele>6.763792</ele>
<time>2026-06-17T23:36:02.652Z</time>
</trkpt>
<trkpt lat="55.559059" lon="8.080812">
<ele>6.405318</ele>
<time>2026-06-17T23:36:06.885Z</time>
</trkpt>
<trkpt lat="55.558830" lon="8.080810">
<ele>6.011952</ele>
<time>2026-06-17T23:36:14.263Z</time>
</trkpt>
<trkpt lat="55.558839" lon="8.080681">
<ele>5.885681</ele>
<time>2026-06-17T23:36:16.576Z</time>
</trkpt>
<trkpt lat="55.558831" lon="8.080436">
<ele>5.647271</ele>
<time>2026-06-17T23:36:20.982Z</time>
</trkpt>
<trkpt lat="55.558854" lon="8.080087">
<ele>5.305931</ele>
<time>2026-06-17T23:36:27.182Z</time>
</trkpt>
<trkpt lat="55.558805" lon="8.079719">
<ele>5.062277</ele>
<time>2026-06-17T23:36:33.764Z</time>
</trkpt>
<trkpt lat="55.558860" lon="8.079023">
<ele>4.832180</ele>
<time>2026-06-17T23:36:46.541Z</time>
</trkpt>
<trkpt lat="55.558791" lon="8.078774">
<ele>4.741393</ele>
<time>2026-06-17T23:36:51.881Z</time>
</trkpt>
<trkpt lat="55.558716" lon="8.078110">
<ele>4.519694</ele>
<time>2026-06-17T23:37:05.272Z</time>
</trkpt>
<trkpt lat="55.558712" lon="8.077870">
<ele>4.441079</ele>
<time>2026-06-17T23:37:10.144Z</time>
</trkpt>
<trkpt lat="55.558667" lon="8.077673">
<ele>4.371515</ele>
<time>2026-06-17T23:37:14.521Z</time>
</trkpt>
<trkpt lat="55.558712" lon="8.077870">
<ele>4.301951</ele>
<time>2026-06-17T23:37:19.050Z</time>
</trkpt>
<trkpt lat="55.558716" lon="8.078110">
<ele>4.223337</ele>
<time>2026-06-17T23:37:24.253Z</time>
</trkpt>
<trkpt lat="55.558791" lon="8.078774">
<ele>4.306673</ele>
<time>2026-06-17T23:37:39.366Z</time>
</trkpt>
<trkpt lat="55.558860" lon="8.079023">
<ele>4.552776</ele>
<time>2026-06-17T23:37:45.775Z</time>
</trkpt>
<trkpt lat="55.558805" lon="8.079719">
<ele>5.176512</ele>
<time>2026-06-17T23:38:03.151Z</time>
</trkpt>
<trkpt lat="55.558854" lon="8.080087">
<ele>5.512061</ele>
<time>2026-06-17T23:38:13.149Z</time>
</trkpt>
<trkpt lat="55.558831" lon="8.080436">
<ele>5.823912</ele>
<time>2026-06-17T23:38:22.218Z</time>
</trkpt>
<trkpt lat="55.558839" lon="8.080681">
<ele>6.041724</ele>
<time>2026-06-17T23:38:28.389Z</time>
</trkpt>
<trkpt lat="55.558830" lon="8.080810">
<ele>6.157086</ele>
<time>2026-06-17T23:38:31.689Z</time>
</trkpt>
<trkpt lat="55.559059" lon="8.080812">
<ele>6.516467</ele>
<time>2026-06-17T23:38:41.682Z</time>
</trkpt>
<trkpt lat="55.559059" lon="8.081181">
<ele>6.843971</ele>
<time>2026-06-17T23:38:48.271Z</time>
</trkpt>
<trkpt lat="55.559106" lon="8.081492">
<ele>7.078687</ele>
<time>2026-06-17T23:38:53.957Z</time>
</trkpt>
<trkpt lat="55.559177" lon="8.081704">
<ele>7.247395</ele>
<time>2026-06-17T23:38:58.315Z</time>
</trkpt>
<trkpt lat="55.559371" lon="8.082059">
<ele>7.585417</ele>
<time>2026-06-17T23:39:07.158Z</time>
</trkpt>
<trkpt lat="55.559430" lon="8.082462">
<ele>7.870461</ele>
<time>2026-06-17T23:39:14.879Z</time>
</trkpt>
<trkpt lat="55.559370" lon="8.082882">
<ele>8.167083</ele>
<time>2026-06-17T23:39:22.799Z</time>
</trkpt>
<trkpt lat="55.559444" lon="8.084346">
<ele>8.999856</ele>
<time>2026-06-17T23:39:45.656Z</time>
</trkpt>
<trkpt lat="55.559438" lon="8.084627">
<ele>8.818079</ele>
<time>2026-06-17T23:39:49.479Z</time>
</trkpt>
<trkpt lat="55.559333" lon="8.084800">
<ele>8.654035</ele>
<time>2026-06-17T23:39:54.563Z</time>
</trkpt>
<trkpt lat="55.559101" lon="8.084819">
<ele>8.388572</ele>
<time>2026-06-17T23:40:02.550Z</time>
</trkpt>
<trkpt lat="55.558814" lon="8.084950">
<ele>8.049774</ele>
<time>2026-06-17T23:40:12.348Z</time>
</trkpt>
<trkpt lat="55.558651" lon="8.085161">
<ele>7.818871</ele>
<time>2026-06-17T23:40:18.806Z</time>
</trkpt>
<trkpt lat="55.558339" lon="8.085475">
<ele>7.408529</ele>
<time>2026-06-17T23:40:30.063Z</time>
</trkpt>
<trkpt lat="55.558376" lon="8.086070">
<ele>7.021715</ele>
<time>2026-06-17T23:40:40.677Z</time>
</trkpt>
<trkpt lat="55.558329" lon="8.086207">
<ele>6.920291</ele>
<time>2026-06-17T23:40:42.479Z</time>
</trkpt>
<trkpt lat="55.558267" lon="8.086572">
<ele>6.679061</ele>
<time>2026-06-17T23:40:46.863Z</time>
</trkpt>
<trkpt lat="55.558145" lon="8.087284">
<ele>6.208155</ele>
<time>2026-06-17T23:40:55.603Z</time>
</trkpt>
<trkpt lat="55.558135" lon="8.087485">
<ele>6.080436</ele>
<time>2026-06-17T23:40:57.997Z</time>
</trkpt>
<trkpt lat="55.558078" lon="8.087502">
<ele>6.015741</ele>
<time>2026-06-17T23:40:59.258Z</time>
</trkpt>
<trkpt lat="55.557581" lon="8.087228">
<ele>5.433096</ele>
<time>2026-06-17T23:41:10.645Z</time>
</trkpt>
<trkpt lat="55.557494" lon="8.087214">
<ele>5.335325</ele>
<time>2026-06-17T23:41:12.654Z</time>
</trkpt>
<trkpt lat="55.557308" lon="8.087293">
<ele>5.121236</ele>
<time>2026-06-17T23:41:17.069Z</time>
</trkpt>
<trkpt lat="55.557278" lon="8.087462">
<ele>5.015183</ele>
<time>2026-06-17T23:41:19.182Z</time>
</trkpt>
<trkpt lat="55.557144" lon="8.087900">
<ele>5.008242</ele>
<time>2026-06-17T23:41:25.282Z</time>
</trkpt>
<trkpt lat="55.557035" lon="8.088294">
<ele>5.002129</ele>
<time>2026-06-17T23:41:30.652Z</time>
</trkpt>
<trkpt lat="55.556987" lon="8.088484">
<ele>4.999229</ele>
<time>2026-06-17T23:41:33.163Z</time>
</trkpt>
<trkpt lat="55.556965" lon="8.088579">
<ele>4.997798</ele>
<time>2026-06-17T23:41:34.404Z</time>
</trkpt>
<trkpt lat="55.556818" lon="8.089223">
<ele>4.988120</ele>
<time>2026-06-17T23:41:42.846Z</time>
</trkpt>
<trkpt lat="55.556788" lon="8.089353">
<ele>4.986163</ele>
<time>2026-06-17T23:41:44.626Z</time>
</trkpt>
<trkpt lat="55.556761" lon="8.089458">
<ele>4.984555</ele>
<time>2026-06-17T23:41:46.111Z</time>
</trkpt>
<trkpt lat="55.556497" lon="8.090175">
<ele>4.972631</ele>
<time>2026-06-17T23:41:57.586Z</time>
</trkpt>
<trkpt lat="55.556385" lon="8.090397">
<ele>4.959584</ele>
<time>2026-06-17T23:42:01.689Z</time>
</trkpt>
<trkpt lat="55.556293" lon="8.090526">
<ele>4.946438</ele>
<time>2026-06-17T23:42:04.586Z</time>
</trkpt>
<trkpt lat="55.556253" lon="8.090564">
<ele>4.941354</ele>
<time>2026-06-17T23:42:05.706Z</time>
</trkpt>
<trkpt lat="55.555803" lon="8.090876">
<ele>4.887239</ele>
<time>2026-06-17T23:42:17.335Z</time>
</trkpt>
<trkpt lat="55.555750" lon="8.090911">
<ele>4.880905</ele>
<time>2026-06-17T23:42:18.632Z</time>
</trkpt>
<trkpt lat="55.555420" lon="8.091215">
<ele>4.839245</ele>
<time>2026-06-17T23:42:26.706Z</time>
</trkpt>
<trkpt lat="55.555220" lon="8.091326">
<ele>4.815776</ele>
<time>2026-06-17T23:42:31.072Z</time>
</trkpt>
<trkpt lat="55.554949" lon="8.091386">
<ele>4.785200</ele>
<time>2026-06-17T23:42:36.512Z</time>
</trkpt>
<trkpt lat="55.554874" lon="8.091441">
<ele>4.776109</ele>
<time>2026-06-17T23:42:38.082Z</time>
</trkpt>
<trkpt lat="55.554691" lon="8.091752">
<ele>4.616196</ele>
<time>2026-06-17T23:42:42.978Z</time>
</trkpt>
<trkpt lat="55.554537" lon="8.092072">
<ele>4.430114</ele>
<time>2026-06-17T23:42:47.520Z</time>
</trkpt>
<trkpt lat="55.554366" lon="8.092517">
<ele>4.191846</ele>
<time>2026-06-17T23:42:53.285Z</time>
</trkpt>
<trkpt lat="55.554250" lon="8.092896">
<ele>4.000991</ele>
<time>2026-06-17T23:42:57.927Z</time>
</trkpt>
<trkpt lat="55.554194" lon="8.093080">
<ele>3.908450</ele>
<time>2026-06-17T23:43:00.229Z</time>
</trkpt>
<trkpt lat="55.553800" lon="8.094480">
<ele>3.340634</ele>
<time>2026-06-17T23:43:18.347Z</time>
</trkpt>
<trkpt lat="55.553595" lon="8.095213">
<ele>3.289247</ele>
<time>2026-06-17T23:43:28.384Z</time>
</trkpt>
<trkpt lat="55.553287" lon="8.096368">
<ele>3.209002</ele>
<time>2026-06-17T23:43:44.266Z</time>
</trkpt>
<trkpt lat="55.553164" lon="8.097223">
<ele>3.167532</ele>
<time>2026-06-17T23:43:55.519Z</time>
</trkpt>
<trkpt lat="55.553149" lon="8.097519">
<ele>3.182015</ele>
<time>2026-06-17T23:43:59.411Z</time>
</trkpt>
<trkpt lat="55.553093" lon="8.098593">
<ele>3.234577</ele>
<time>2026-06-17T23:44:13.683Z</time>
</trkpt>
<trkpt lat="55.553064" lon="8.099028">
<ele>3.255922</ele>
<time>2026-06-17T23:44:19.351Z</time>
</trkpt>
<trkpt lat="55.553036" lon="8.099475">
<ele>3.277839</ele>
<time>2026-06-17T23:44:25.097Z</time>
</trkpt>
<trkpt lat="55.552986" lon="8.100236">
<ele>3.315175</ele>
<time>2026-06-17T23:44:34.530Z</time>
</trkpt>
<trkpt lat="55.552912" lon="8.100865">
<ele>3.332729</ele>
<time>2026-06-17T23:44:42.355Z</time>
</trkpt>
<trkpt lat="55.552760" lon="8.101721">
<ele>3.356465</ele>
<time>2026-06-17T23:44:53.407Z</time>
</trkpt>
<trkpt lat="55.552557" lon="8.102864">
<ele>3.388160</ele>
<time>2026-06-17T23:45:08.747Z</time>
</trkpt>
<trkpt lat="55.552468" lon="8.103657">
<ele>3.431956</ele>
<time>2026-06-17T23:45:19.562Z</time>
</trkpt>
<trkpt lat="55.552463" lon="8.103718">
<ele>3.437633</ele>
<time>2026-06-17T23:45:20.394Z</time>
</trkpt>
<trkpt lat="55.552419" lon="8.104412">
<ele>3.501953</ele>
<time>2026-06-17T23:45:29.758Z</time>
</trkpt>
<trkpt lat="55.552410" lon="8.104567">
<ele>3.516304</ele>
<time>2026-06-17T23:45:31.815Z</time>
</trkpt>
<trkpt lat="55.552397" lon="8.104761">
<ele>3.534297</ele>
<time>2026-06-17T23:45:34.380Z</time>
</trkpt>
<trkpt lat="55.552353" lon="8.105426">
<ele>3.595964</ele>
<time>2026-06-17T23:45:43.082Z</time>
</trkpt>
<trkpt lat="55.552316" lon="8.106654">
<ele>3.707830</ele>
<time>2026-06-17T23:45:58.496Z</time>
</trkpt>
<trkpt lat="55.552309" lon="8.106915">
<ele>3.729772</ele>
<time>2026-06-17T23:46:01.753Z</time>
</trkpt>
<trkpt lat="55.552304" lon="8.107298">
<ele>3.761944</ele>
<time>2026-06-17T23:46:06.515Z</time>
</trkpt>
<trkpt lat="55.552295" lon="8.108018">
<ele>3.822422</ele>
<time>2026-06-17T23:46:15.505Z</time>
</trkpt>
<trkpt lat="55.552309" lon="8.109235">
<ele>3.924644</ele>
<time>2026-06-17T23:46:31.415Z</time>
</trkpt>
<trkpt lat="55.552321" lon="8.110023">
<ele>4.043380</ele>
<time>2026-06-17T23:46:42.064Z</time>
</trkpt>
<trkpt lat="55.552341" lon="8.111271">
<ele>4.329254</ele>
<time>2026-06-17T23:46:59.209Z</time>
</trkpt>
<trkpt lat="55.552343" lon="8.111395">
<ele>4.357659</ele>
<time>2026-06-17T23:47:00.928Z</time>
</trkpt>
<trkpt lat="55.552355" lon="8.112099">
<ele>4.518930</ele>
<time>2026-06-17T23:47:10.563Z</time>
</trkpt>
<trkpt lat="55.552362" lon="8.112586">
<ele>4.630476</ele>
<time>2026-06-17T23:47:17.190Z</time>
</trkpt>
<trkpt lat="55.552367" lon="8.112828">
<ele>4.685925</ele>
<time>2026-06-17T23:47:20.448Z</time>
</trkpt>
<trkpt lat="55.552373" lon="8.113209">
<ele>4.710027</ele>
<time>2026-06-17T23:47:25.471Z</time>
</trkpt>
<trkpt lat="55.552390" lon="8.113966">
<ele>4.754120</ele>
<time>2026-06-17T23:47:34.988Z</time>
</trkpt>
<trkpt lat="55.552401" lon="8.114427">
<ele>4.780975</ele>
<time>2026-06-17T23:47:40.829Z</time>
</trkpt>
<trkpt lat="55.552411" lon="8.114727">
<ele>4.798465</ele>
<time>2026-06-17T23:47:44.587Z</time>
</trkpt>
<trkpt lat="55.552439" lon="8.115199">
<ele>4.826087</ele>
<time>2026-06-17T23:47:50.621Z</time>
</trkpt>
<trkpt lat="55.552462" lon="8.115557">
<ele>4.847057</ele>
<time>2026-06-17T23:47:55.189Z</time>
</trkpt>
<trkpt lat="55.552514" lon="8.116478">
<ele>4.937146</ele>
<time>2026-06-17T23:48:06.869Z</time>
</trkpt>
<trkpt lat="55.552533" lon="8.116815">
<ele>4.982949</ele>
<time>2026-06-17T23:48:11.120Z</time>
</trkpt>
<trkpt lat="55.552557" lon="8.117247">
<ele>5.041655</ele>
<time>2026-06-17T23:48:16.598Z</time>
</trkpt>
<trkpt lat="55.552616" lon="8.118301">
<ele>5.184897</ele>
<time>2026-06-17T23:48:31.060Z</time>
</trkpt>
<trkpt lat="55.552663" lon="8.119143">
<ele>5.299325</ele>
<time>2026-06-17T23:48:42.544Z</time>
</trkpt>
<trkpt lat="55.552701" lon="8.119677">
<ele>5.334892</ele>
<time>2026-06-17T23:48:49.561Z</time>
</trkpt>
<trkpt lat="55.552772" lon="8.120190">
<ele>5.367511</ele>
<time>2026-06-17T23:48:56.347Z</time>
</trkpt>
<trkpt lat="55.552920" lon="8.120828">
<ele>5.410101</ele>
<time>2026-06-17T23:49:05.230Z</time>
</trkpt>
<trkpt lat="55.553010" lon="8.121146">
<ele>5.432063</ele>
<time>2026-06-17T23:49:09.793Z</time>
</trkpt>
<trkpt lat="55.553046" lon="8.121271">
<ele>5.440726</ele>
<time>2026-06-17T23:49:11.578Z</time>
</trkpt>
<trkpt lat="55.553058" lon="8.121308">
<ele>5.443360</ele>
<time>2026-06-17T23:49:12.116Z</time>
</trkpt>
<trkpt lat="55.553192" lon="8.121735">
<ele>5.473520</ele>
<time>2026-06-17T23:49:18.193Z</time>
</trkpt>
<trkpt lat="55.553291" lon="8.122050">
<ele>5.495776</ele>
<time>2026-06-17T23:49:22.631Z</time>
</trkpt>
<trkpt lat="55.553425" lon="8.122478">
<ele>5.527574</ele>
<time>2026-06-17T23:49:28.680Z</time>
</trkpt>
<trkpt lat="55.553477" lon="8.122643">
<ele>5.539950</ele>
<time>2026-06-17T23:49:31.008Z</time>
</trkpt>
<trkpt lat="55.553659" lon="8.123222">
<ele>5.583354</ele>
<time>2026-06-17T23:49:39.339Z</time>
</trkpt>
<trkpt lat="55.553672" lon="8.123264">
<ele>5.586491</ele>
<time>2026-06-17T23:49:39.957Z</time>
</trkpt>
<trkpt lat="55.553696" lon="8.123339">
<ele>5.592138</ele>
<time>2026-06-17T23:49:41.069Z</time>
</trkpt>
<trkpt lat="55.553860" lon="8.123850">
<ele>5.630635</ele>
<time>2026-06-17T23:49:48.707Z</time>
</trkpt>
<trkpt lat="55.553904" lon="8.123988">
<ele>5.641015</ele>
<time>2026-06-17T23:49:50.782Z</time>
</trkpt>
<trkpt lat="55.553979" lon="8.124223">
<ele>5.658696</ele>
<time>2026-06-17T23:49:54.351Z</time>
</trkpt>
<trkpt lat="55.554141" lon="8.124718">
<ele>5.696168</ele>
<time>2026-06-17T23:50:01.927Z</time>
</trkpt>
<trkpt lat="55.554381" lon="8.125453">
<ele>5.817825</ele>
<time>2026-06-17T23:50:13.227Z</time>
</trkpt>
<trkpt lat="55.554527" lon="8.125937">
<ele>5.908444</ele>
<time>2026-06-17T23:50:20.490Z</time>
</trkpt>
<trkpt lat="55.554518" lon="8.126025">
<ele>5.923218</ele>
<time>2026-06-17T23:50:21.673Z</time>
</trkpt>
<trkpt lat="55.554803" lon="8.127004">
<ele>6.105116</ele>
<time>2026-06-17T23:50:36.302Z</time>
</trkpt>
<trkpt lat="55.554943" lon="8.127743">
<ele>6.233782</ele>
<time>2026-06-17T23:50:46.614Z</time>
</trkpt>
<trkpt lat="55.555008" lon="8.128247">
<ele>6.275936</ele>
<time>2026-06-17T23:50:53.271Z</time>
</trkpt>
<trkpt lat="55.555025" lon="8.128396">
<ele>6.288332</ele>
<time>2026-06-17T23:50:55.248Z</time>
</trkpt>
<trkpt lat="55.555083" lon="8.128889">
<ele>6.329395</ele>
<time>2026-06-17T23:51:01.886Z</time>
</trkpt>
<trkpt lat="55.555128" lon="8.129265">
<ele>6.360735</ele>
<time>2026-06-17T23:51:06.968Z</time>
</trkpt>
<trkpt lat="55.555199" lon="8.129859">
<ele>6.410244</ele>
<time>2026-06-17T23:51:14.838Z</time>
</trkpt>
<trkpt lat="55.555219" lon="8.130020">
<ele>6.423686</ele>
<time>2026-06-17T23:51:16.910Z</time>
</trkpt>
<trkpt lat="55.555281" lon="8.130524">
<ele>6.465746</ele>
<time>2026-06-17T23:51:23.395Z</time>
</trkpt>
<trkpt lat="55.555352" lon="8.131097">
<ele>6.470686</ele>
<time>2026-06-17T23:51:30.781Z</time>
</trkpt>
<trkpt lat="55.555395" lon="8.131459">
<ele>6.437926</ele>
<time>2026-06-17T23:51:35.396Z</time>
</trkpt>
<trkpt lat="55.555406" lon="8.131552">
<ele>6.429511</ele>
<time>2026-06-17T23:51:36.594Z</time>
</trkpt>
<trkpt lat="55.555450" lon="8.131927">
<ele>6.395592</ele>
<time>2026-06-17T23:51:41.368Z</time>
</trkpt>
<trkpt lat="55.555513" lon="8.132456">
<ele>6.347715</ele>
<time>2026-06-17T23:51:47.952Z</time>
</trkpt>
<trkpt lat="55.555555" lon="8.132814">
<ele>6.315334</ele>
<time>2026-06-17T23:51:52.305Z</time>
</trkpt>
<trkpt lat="55.555621" lon="8.133365">
<ele>6.265453</ele>
<time>2026-06-17T23:51:59.022Z</time>
</trkpt>
<trkpt lat="55.555686" lon="8.134021">
<ele>6.211467</ele>
<time>2026-06-17T23:52:07.127Z</time>
</trkpt>
<trkpt lat="55.555756" lon="8.134577">
<ele>6.212338</ele>
<time>2026-06-17T23:52:14.010Z</time>
</trkpt>
<trkpt lat="55.555785" lon="8.134721">
<ele>6.212572</ele>
<time>2026-06-17T23:52:15.859Z</time>
</trkpt>
<trkpt lat="55.555793" lon="8.134903">
<ele>6.212851</ele>
<time>2026-06-17T23:52:18.045Z</time>
</trkpt>
<trkpt lat="55.555796" lon="8.135360">
<ele>6.213551</ele>
<time>2026-06-17T23:52:23.574Z</time>
</trkpt>
<trkpt lat="55.555799" lon="8.135680">
<ele>6.214040</ele>
<time>2026-06-17T23:52:27.560Z</time>
</trkpt>
<trkpt lat="55.555805" lon="8.136360">
<ele>6.215081</ele>
<time>2026-06-17T23:52:36.571Z</time>
</trkpt>
<trkpt lat="55.555844" lon="8.136876">
<ele>6.215877</ele>
<time>2026-06-17T23:52:43.689Z</time>
</trkpt>
<trkpt lat="55.555938" lon="8.137455">
<ele>6.211502</ele>
<time>2026-06-17T23:52:51.523Z</time>
</trkpt>
<trkpt lat="55.555965" lon="8.137600">
<ele>6.209493</ele>
<time>2026-06-17T23:52:53.445Z</time>
</trkpt>
<trkpt lat="55.556011" lon="8.137766">
<ele>6.207061</ele>
<time>2026-06-17T23:52:55.751Z</time>
</trkpt>
<trkpt lat="55.556026" lon="8.137820">
<ele>6.206269</ele>
<time>2026-06-17T23:52:56.472Z</time>
</trkpt>
<trkpt lat="55.556250" lon="8.138657">
<ele>6.194083</ele>
<time>2026-06-17T23:53:08.268Z</time>
</trkpt>
<trkpt lat="55.556318" lon="8.138939">
<ele>6.190049</ele>
<time>2026-06-17T23:53:12.176Z</time>
</trkpt>
<trkpt lat="55.556425" lon="8.139588">
<ele>6.181153</ele>
<time>2026-06-17T23:53:20.599Z</time>
</trkpt>
<trkpt lat="55.556430" lon="8.139640">
<ele>6.180459</ele>
<time>2026-06-17T23:53:21.256Z</time>
</trkpt>
<trkpt lat="55.556601" lon="8.141373">
<ele>6.204375</ele>
<time>2026-06-17T23:53:41.976Z</time>
</trkpt>
<trkpt lat="55.556619" lon="8.141556">
<ele>6.208663</ele>
<time>2026-06-17T23:53:44.384Z</time>
</trkpt>
<trkpt lat="55.556655" lon="8.141909">
<ele>6.216943</ele>
<time>2026-06-17T23:53:49.159Z</time>
</trkpt>
<trkpt lat="55.556691" lon="8.142292">
<ele>6.225905</ele>
<time>2026-06-17T23:53:54.340Z</time>
</trkpt>
<trkpt lat="55.556702" lon="8.142426">
<ele>6.229031</ele>
<time>2026-06-17T23:53:56.166Z</time>
</trkpt>
<trkpt lat="55.556719" lon="8.142566">
<ele>6.232336</ele>
<time>2026-06-17T23:53:58.060Z</time>
</trkpt>
<trkpt lat="55.556740" lon="8.142791">
<ele>6.237600</ele>
<time>2026-06-17T23:54:01.077Z</time>
</trkpt>
<trkpt lat="55.556816" lon="8.143850">
<ele>6.334015</ele>
<time>2026-06-17T23:54:15.103Z</time>
</trkpt>
<trkpt lat="55.556823" lon="8.144033">
<ele>6.359301</ele>
<time>2026-06-17T23:54:17.537Z</time>
</trkpt>
<trkpt lat="55.556836" lon="8.144448">
<ele>6.416601</ele>
<time>2026-06-17T23:54:23.149Z</time>
</trkpt>
<trkpt lat="55.556842" lon="8.144600">
<ele>6.437607</ele>
<time>2026-06-17T23:54:25.212Z</time>
</trkpt>
<trkpt lat="55.556869" lon="8.145407">
<ele>6.549056</ele>
<time>2026-06-17T23:54:36.062Z</time>
</trkpt>
<trkpt lat="55.556873" lon="8.145512">
<ele>6.563565</ele>
<time>2026-06-17T23:54:37.440Z</time>
</trkpt>
<trkpt lat="55.556877" lon="8.145617">
<ele>6.578073</ele>
<time>2026-06-17T23:54:38.790Z</time>
</trkpt>
<trkpt lat="55.556903" lon="8.146250">
<ele>6.665569</ele>
<time>2026-06-17T23:54:46.800Z</time>
</trkpt>
<trkpt lat="55.556919" lon="8.146553">
<ele>6.683424</ele>
<time>2026-06-17T23:54:50.584Z</time>
</trkpt>
<trkpt lat="55.557004" lon="8.147043">
<ele>6.674132</ele>
<time>2026-06-17T23:54:56.919Z</time>
</trkpt>
<trkpt lat="55.557322" lon="8.148081">
<ele>6.652729</ele>
<time>2026-06-17T23:55:11.810Z</time>
</trkpt>
<trkpt lat="55.557435" lon="8.148447">
<ele>6.645169</ele>
<time>2026-06-17T23:55:17.030Z</time>
</trkpt>
<trkpt lat="55.557444" lon="8.148797">
<ele>6.638817</ele>
<time>2026-06-17T23:55:21.363Z</time>
</trkpt>
<trkpt lat="55.557776" lon="8.150429">
<ele>6.654448</ele>
<time>2026-06-17T23:55:43.163Z</time>
</trkpt>
<trkpt lat="55.558080" lon="8.151834">
<ele>6.687750</ele>
<time>2026-06-17T23:56:02.348Z</time>
</trkpt>
<trkpt lat="55.558308" lon="8.152788">
<ele>6.741859</ele>
<time>2026-06-17T23:56:15.407Z</time>
</trkpt>
<trkpt lat="55.558655" lon="8.154240">
<ele>6.869701</ele>
<time>2026-06-17T23:56:35.615Z</time>
</trkpt>
<trkpt lat="55.559031" lon="8.156168">
<ele>7.045729</ele>
<time>2026-06-17T23:57:02.382Z</time>
</trkpt>
<trkpt lat="55.559313" lon="8.157506">
<ele>7.177270</ele>
<time>2026-06-17T23:57:20.933Z</time>
</trkpt>
<trkpt lat="55.559860" lon="8.160475">
<ele>7.347210</ele>
<time>2026-06-17T23:58:00.668Z</time>
</trkpt>
<trkpt lat="55.560077" lon="8.161542">
<ele>7.380333</ele>
<time>2026-06-17T23:58:14.930Z</time>
</trkpt>
<trkpt lat="55.560189" lon="8.161788">
<ele>7.377978</ele>
<time>2026-06-17T23:58:18.898Z</time>
</trkpt>
<trkpt lat="55.560261" lon="8.162132">
<ele>7.375242</ele>
<time>2026-06-17T23:58:23.509Z</time>
</trkpt>
<trkpt lat="55.560323" lon="8.162599">
<ele>7.371664</ele>
<time>2026-06-17T23:58:29.535Z</time>
</trkpt>
<trkpt lat="55.560429" lon="8.163128">
<ele>7.367478</ele>
<time>2026-06-17T23:58:36.590Z</time>
</trkpt>
<trkpt lat="55.560462" lon="8.163293">
<ele>7.366173</ele>
<time>2026-06-17T23:58:38.794Z</time>
</trkpt>
<trkpt lat="55.560469" lon="8.163495">
<ele>7.364663</ele>
<time>2026-06-17T23:58:41.340Z</time>
</trkpt>
<trkpt lat="55.560472" lon="8.163609">
<ele>7.363812</ele>
<time>2026-06-17T23:58:42.776Z</time>
</trkpt>
<trkpt lat="55.560756" lon="8.164913">
<ele>7.412091</ele>
<time>2026-06-17T23:59:00.380Z</time>
</trkpt>
<trkpt lat="55.561068" lon="8.166049">
<ele>7.505642</ele>
<time>2026-06-17T23:59:16.636Z</time>
</trkpt>
<trkpt lat="55.561415" lon="8.167011">
<ele>7.590165</ele>
<time>2026-06-17T23:59:31.639Z</time>
</trkpt>
<trkpt lat="55.561973" lon="8.168276">
<ele>7.587179</ele>
<time>2026-06-17T23:59:52.237Z</time>
</trkpt>
<trkpt lat="55.562212" lon="8.168773">
<ele>7.584152</ele>
<time>2026-06-18T00:00:00.357Z</time>
</trkpt>
<trkpt lat="55.562876" lon="8.170141">
<ele>7.533167</ele>
<time>2026-06-18T00:00:22.318Z</time>
</trkpt>
<trkpt lat="55.563067" lon="8.170581">
<ele>7.501845</ele>
<time>2026-06-18T00:00:29.023Z</time>
</trkpt>
<trkpt lat="55.563502" lon="8.171821">
<ele>7.419446</ele>
<time>2026-06-18T00:00:47.061Z</time>
</trkpt>
<trkpt lat="55.563627" lon="8.172281">
<ele>7.398417</ele>
<time>2026-06-18T00:00:53.526Z</time>
</trkpt>
<trkpt lat="55.564043" lon="8.173687">
<ele>7.383283</ele>
<time>2026-06-18T00:01:13.548Z</time>
</trkpt>
<trkpt lat="55.564251" lon="8.174251">
<ele>7.376862</ele>
<time>2026-06-18T00:01:22.042Z</time>
</trkpt>
<trkpt lat="55.565159" lon="8.176605">
<ele>7.490525</ele>
<time>2026-06-18T00:01:57.452Z</time>
</trkpt>
<trkpt lat="55.565743" lon="8.178084">
<ele>7.663537</ele>
<time>2026-06-18T00:02:21.682Z</time>
</trkpt>
<trkpt lat="55.566149" lon="8.179111">
<ele>7.856142</ele>
<time>2026-06-18T00:02:38.818Z</time>
</trkpt>
<trkpt lat="55.566610" lon="8.180559">
<ele>8.033643</ele>
<time>2026-06-18T00:03:00.147Z</time>
</trkpt>
<trkpt lat="55.567361" lon="8.183062">
<ele>7.999224</ele>
<time>2026-06-18T00:03:34.943Z</time>
</trkpt>
<trkpt lat="55.567538" lon="8.183710">
<ele>8.112617</ele>
<time>2026-06-18T00:03:44.232Z</time>
</trkpt>
<trkpt lat="55.567647" lon="8.184287">
<ele>8.208473</ele>
<time>2026-06-18T00:03:52.394Z</time>
</trkpt>
<trkpt lat="55.567911" lon="8.186334">
<ele>8.532116</ele>
<time>2026-06-18T00:04:20.880Z</time>
</trkpt>
<trkpt lat="55.568164" lon="8.188206">
<ele>8.796045</ele>
<time>2026-06-18T00:04:45.935Z</time>
</trkpt>
<trkpt lat="55.568405" lon="8.190463">
<ele>8.939963</ele>
<time>2026-06-18T00:05:15.978Z</time>
</trkpt>
<trkpt lat="55.568458" lon="8.191254">
<ele>8.951299</ele>
<time>2026-06-18T00:05:26.158Z</time>
</trkpt>
<trkpt lat="55.568471" lon="8.194481">
<ele>8.536294</ele>
<time>2026-06-18T00:06:04.434Z</time>
</trkpt>
<trkpt lat="55.568580" lon="8.198913">
<ele>7.945482</ele>
<time>2026-06-18T00:06:57.746Z</time>
</trkpt>
<trkpt lat="55.568641" lon="8.199607">
<ele>8.041715</ele>
<time>2026-06-18T00:07:06.613Z</time>
</trkpt>
<trkpt lat="55.568832" lon="8.201102">
<ele>8.251720</ele>
<time>2026-06-18T00:07:27.155Z</time>
</trkpt>
<trkpt lat="55.568941" lon="8.201846">
<ele>8.352919</ele>
<time>2026-06-18T00:07:37.783Z</time>
</trkpt>
<trkpt lat="55.569127" lon="8.202842">
<ele>8.463725</ele>
<time>2026-06-18T00:07:51.966Z</time>
</trkpt>
<trkpt lat="55.569447" lon="8.204388">
<ele>8.637639</ele>
<time>2026-06-18T00:08:13.105Z</time>
</trkpt>
<trkpt lat="55.569663" lon="8.205409">
<ele>8.661203</ele>
<time>2026-06-18T00:08:26.540Z</time>
</trkpt>
<trkpt lat="55.569950" lon="8.206405">
<ele>8.640017</ele>
<time>2026-06-18T00:08:40.403Z</time>
</trkpt>
<trkpt lat="55.570135" lon="8.206847">
<ele>8.629595</ele>
<time>2026-06-18T00:08:47.231Z</time>
</trkpt>
<trkpt lat="55.570300" lon="8.207226">
<ele>8.620530</ele>
<time>2026-06-18T00:08:53.216Z</time>
</trkpt>
<trkpt lat="55.570609" lon="8.207785">
<ele>8.641141</ele>
<time>2026-06-18T00:09:03.077Z</time>
</trkpt>
<trkpt lat="55.571856" lon="8.209484">
<ele>8.785575</ele>
<time>2026-06-18T00:09:38.859Z</time>
</trkpt>
<trkpt lat="55.572094" lon="8.209899">
<ele>8.765755</ele>
<time>2026-06-18T00:09:46.495Z</time>
</trkpt>
<trkpt lat="55.572244" lon="8.210050">
<ele>8.755520</ele>
<time>2026-06-18T00:09:50.362Z</time>
</trkpt>
<trkpt lat="55.572313" lon="8.210206">
<ele>8.748879</ele>
<time>2026-06-18T00:09:52.851Z</time>
</trkpt>
<trkpt lat="55.572542" lon="8.210766">
<ele>8.725706</ele>
<time>2026-06-18T00:10:01.437Z</time>
</trkpt>
<trkpt lat="55.573012" lon="8.212126">
<ele>8.645083</ele>
<time>2026-06-18T00:10:20.849Z</time>
</trkpt>
<trkpt lat="55.573500" lon="8.213349">
<ele>8.451081</ele>
<time>2026-06-18T00:10:38.672Z</time>
</trkpt>
<trkpt lat="55.573865" lon="8.214242">
<ele>8.308271</ele>
<time>2026-06-18T00:10:52.224Z</time>
</trkpt>
<trkpt lat="55.573903" lon="8.214536">
<ele>8.269184</ele>
<time>2026-06-18T00:10:55.922Z</time>
</trkpt>
<trkpt lat="55.575334" lon="8.218051">
<ele>7.582023</ele>
<time>2026-06-18T00:11:48.402Z</time>
</trkpt>
<trkpt lat="55.575798" lon="8.219657">
<ele>7.156685</ele>
<time>2026-06-18T00:12:08.949Z</time>
</trkpt>
<trkpt lat="55.576475" lon="8.222143">
<ele>6.826705</ele>
<time>2026-06-18T00:12:41.837Z</time>
</trkpt>
<trkpt lat="55.576886" lon="8.223160">
<ele>6.867708</ele>
<time>2026-06-18T00:12:58.319Z</time>
</trkpt>
<trkpt lat="55.577263" lon="8.223978">
<ele>7.063820</ele>
<time>2026-06-18T00:13:12.625Z</time>
</trkpt>
<trkpt lat="55.577371" lon="8.224262">
<ele>7.127421</ele>
<time>2026-06-18T00:13:17.330Z</time>
</trkpt>
<trkpt lat="55.577998" lon="8.226884">
<ele>7.639223</ele>
<time>2026-06-18T00:13:55.542Z</time>
</trkpt>
<trkpt lat="55.578060" lon="8.227226">
<ele>7.702248</ele>
<time>2026-06-18T00:14:00.131Z</time>
</trkpt>
<trkpt lat="55.578078" lon="8.227537">
<ele>7.757107</ele>
<time>2026-06-18T00:14:04.171Z</time>
</trkpt>
<trkpt lat="55.578011" lon="8.228346">
<ele>7.900585</ele>
<time>2026-06-18T00:14:14.819Z</time>
</trkpt>
<trkpt lat="55.577996" lon="8.228541">
<ele>7.917520</ele>
<time>2026-06-18T00:14:17.403Z</time>
</trkpt>
<trkpt lat="55.579379" lon="8.229252">
<ele>8.099261</ele>
<time>2026-06-18T00:14:50.782Z</time>
</trkpt>
<trkpt lat="55.580727" lon="8.229754">
<ele>7.818471</ele>
<time>2026-06-18T00:15:19.913Z</time>
</trkpt>
<trkpt lat="55.581929" lon="8.230010">
<ele>7.451009</ele>
<time>2026-06-18T00:15:45.453Z</time>
</trkpt>
<trkpt lat="55.583154" lon="8.230058">
<ele>7.044348</ele>
<time>2026-06-18T00:16:11.170Z</time>
</trkpt>
<trkpt lat="55.584082" lon="8.230053">
<ele>6.875303</ele>
<time>2026-06-18T00:16:30.921Z</time>
</trkpt>
<trkpt lat="55.584645" lon="8.230015">
<ele>6.777139</ele>
<time>2026-06-18T00:16:43.284Z</time>
</trkpt>
<trkpt lat="55.585174" lon="8.229867">
<ele>6.735234</ele>
<time>2026-06-18T00:16:55.050Z</time>
</trkpt>
<trkpt lat="55.585746" lon="8.229581">
<ele>6.799871</ele>
<time>2026-06-18T00:17:08.246Z</time>
</trkpt>
<trkpt lat="55.587207" lon="8.228502">
<ele>7.217536</ele>
<time>2026-06-18T00:17:44.805Z</time>
</trkpt>
<trkpt lat="55.588829" lon="8.227220">
<ele>8.061060</ele>
<time>2026-06-18T00:18:29.273Z</time>
</trkpt>
<trkpt lat="55.589293" lon="8.226957">
<ele>8.211908</ele>
<time>2026-06-18T00:18:41.161Z</time>
</trkpt>
<trkpt lat="55.589717" lon="8.226770">
<ele>8.347198</ele>
<time>2026-06-18T00:18:51.315Z</time>
</trkpt>
<trkpt lat="55.590544" lon="8.226709">
<ele>8.110672</ele>
<time>2026-06-18T00:19:08.947Z</time>
</trkpt>
<trkpt lat="55.591048" lon="8.226812">
<ele>7.759243</ele>
<time>2026-06-18T00:19:18.903Z</time>
</trkpt>
<trkpt lat="55.592129" lon="8.227087">
<ele>7.025878</ele>
<time>2026-06-18T00:19:40.035Z</time>
</trkpt>
<trkpt lat="55.592559" lon="8.227114">
<ele>6.761846</ele>
<time>2026-06-18T00:19:48.455Z</time>
</trkpt>
<trkpt lat="55.593119" lon="8.227049">
<ele>6.417468</ele>
<time>2026-06-18T00:19:59.705Z</time>
</trkpt>
<trkpt lat="55.594482" lon="8.226629">
<ele>6.210428</ele>
<time>2026-06-18T00:20:29.461Z</time>
</trkpt>
<trkpt lat="55.596196" lon="8.226100">
<ele>6.562695</ele>
<time>2026-06-18T00:21:11.252Z</time>
</trkpt>
<trkpt lat="55.598777" lon="8.225232">
<ele>7.099796</ele>
<time>2026-06-18T00:22:11.379Z</time>
</trkpt>
<trkpt lat="55.599486" lon="8.225044">
<ele>7.153427</ele>
<time>2026-06-18T00:22:27.824Z</time>
</trkpt>
<trkpt lat="55.599596" lon="8.225101">
<ele>7.159454</ele>
<time>2026-06-18T00:22:30.440Z</time>
</trkpt>
<trkpt lat="55.599744" lon="8.225166">
<ele>7.167472</ele>
<time>2026-06-18T00:22:33.947Z</time>
</trkpt>
<trkpt lat="55.601042" lon="8.225010">
<ele>7.180287</ele>
<time>2026-06-18T00:23:02.657Z</time>
</trkpt>
<trkpt lat="55.602405" lon="8.225144">
<ele>7.019483</ele>
<time>2026-06-18T00:23:32.051Z</time>
</trkpt>
<trkpt lat="55.605324" lon="8.226459">
<ele>6.786562</ele>
<time>2026-06-18T00:24:38.390Z</time>
</trkpt>
<trkpt lat="55.605471" lon="8.226660">
<ele>6.771972</ele>
<time>2026-06-18T00:24:42.442Z</time>
</trkpt>
<trkpt lat="55.605517" lon="8.226756">
<ele>6.766387</ele>
<time>2026-06-18T00:24:43.978Z</time>
</trkpt>
<trkpt lat="55.605580" lon="8.226776">
<ele>6.761359</ele>
<time>2026-06-18T00:24:45.368Z</time>
</trkpt>
<trkpt lat="55.605788" lon="8.226450">
<ele>6.739538</ele>
<time>2026-06-18T00:24:51.398Z</time>
</trkpt>
<trkpt lat="55.605821" lon="8.226271">
<ele>6.732301</ele>
<time>2026-06-18T00:24:53.698Z</time>
</trkpt>
<trkpt lat="55.605830" lon="8.226221">
<ele>6.732612</ele>
<time>2026-06-18T00:24:54.348Z</time>
</trkpt>
<trkpt lat="55.605847" lon="8.226123">
<ele>6.733220</ele>
<time>2026-06-18T00:24:55.612Z</time>
</trkpt>
<trkpt lat="55.605836" lon="8.225850">
<ele>6.734844</ele>
<time>2026-06-18T00:24:58.971Z</time>
</trkpt>
<trkpt lat="55.606947" lon="8.220871">
<ele>6.727544</ele>
<time>2026-06-18T00:26:06.650Z</time>
</trkpt>
<trkpt lat="55.607064" lon="8.220359">
<ele>6.722588</ele>
<time>2026-06-18T00:26:13.607Z</time>
</trkpt>
<trkpt lat="55.607637" lon="8.217842">
<ele>6.321930</ele>
<time>2026-06-18T00:26:46.124Z</time>
</trkpt>
<trkpt lat="55.607776" lon="8.216979">
<ele>6.286457</ele>
<time>2026-06-18T00:26:56.704Z</time>
</trkpt>
<trkpt lat="55.607812" lon="8.216580">
<ele>6.321495</ele>
<time>2026-06-18T00:27:01.544Z</time>
</trkpt>
<trkpt lat="55.607953" lon="8.212706">
<ele>6.928628</ele>
<time>2026-06-18T00:27:53.022Z</time>
</trkpt>
<trkpt lat="55.608076" lon="8.211805">
<ele>7.174288</ele>
<time>2026-06-18T00:28:06.162Z</time>
</trkpt>
<trkpt lat="55.608187" lon="8.211317">
<ele>7.313710</ele>
<time>2026-06-18T00:28:13.579Z</time>
</trkpt>
<trkpt lat="55.608436" lon="8.210424">
<ele>7.522363</ele>
<time>2026-06-18T00:28:27.541Z</time>
</trkpt>
<trkpt lat="55.609384" lon="8.207737">
<ele>7.971219</ele>
<time>2026-06-18T00:29:09.007Z</time>
</trkpt>
<trkpt lat="55.609516" lon="8.207147">
<ele>7.956305</ele>
<time>2026-06-18T00:29:16.927Z</time>
</trkpt>
<trkpt lat="55.609999" lon="8.204381">
<ele>7.785032</ele>
<time>2026-06-18T00:29:52.113Z</time>
</trkpt>
<trkpt lat="55.610670" lon="8.200516">
<ele>7.367513</ele>
<time>2026-06-18T00:30:40.981Z</time>
</trkpt>
<trkpt lat="55.612073" lon="8.192420">
<ele>7.008250</ele>
<time>2026-06-18T00:32:26.142Z</time>
</trkpt>
<trkpt lat="55.612783" lon="8.188367">
<ele>6.879173</ele>
<time>2026-06-18T00:33:19.128Z</time>
</trkpt>
<trkpt lat="55.613022" lon="8.187296">
<ele>6.839696</ele>
<time>2026-06-18T00:33:33.437Z</time>
</trkpt>
<trkpt lat="55.614680" lon="8.181735">
<ele>6.905181</ele>
<time>2026-06-18T00:34:52.543Z</time>
</trkpt>
<trkpt lat="55.615669" lon="8.178490">
<ele>7.043617</ele>
<time>2026-06-18T00:35:39.216Z</time>
</trkpt>
<trkpt lat="55.616067" lon="8.177177">
<ele>7.159917</ele>
<time>2026-06-18T00:35:58.738Z</time>
</trkpt>
<trkpt lat="55.616528" lon="8.175780">
<ele>7.280055</ele>
<time>2026-06-18T00:36:19.430Z</time>
</trkpt>
<trkpt lat="55.616749" lon="8.174948">
<ele>7.329696</ele>
<time>2026-06-18T00:36:31.148Z</time>
</trkpt>
<trkpt lat="55.616929" lon="8.174054">
<ele>7.380939</ele>
<time>2026-06-18T00:36:43.152Z</time>
</trkpt>
<trkpt lat="55.617390" lon="8.171791">
<ele>7.588856</ele>
<time>2026-06-18T00:37:14.626Z</time>
</trkpt>
<trkpt lat="55.617622" lon="8.170634">
<ele>7.726402</ele>
<time>2026-06-18T00:37:30.879Z</time>
</trkpt>
<trkpt lat="55.617780" lon="8.169967">
<ele>7.771732</ele>
<time>2026-06-18T00:37:40.212Z</time>
</trkpt>
<trkpt lat="55.618089" lon="8.169078">
<ele>7.551435</ele>
<time>2026-06-18T00:37:52.966Z</time>
</trkpt>
<trkpt lat="55.618164" lon="8.168734">
<ele>7.473618</ele>
<time>2026-06-18T00:37:57.302Z</time>
</trkpt>
<trkpt lat="55.618281" lon="8.168360">
<ele>7.383391</ele>
<time>2026-06-18T00:38:02.272Z</time>
</trkpt>
<trkpt lat="55.618669" lon="8.166984">
<ele>7.038779</ele>
<time>2026-06-18T00:38:19.650Z</time>
</trkpt>
<trkpt lat="55.618961" lon="8.165699">
<ele>6.655021</ele>
<time>2026-06-18T00:38:35.348Z</time>
</trkpt>
<trkpt lat="55.619049" lon="8.164882">
<ele>6.424587</ele>
<time>2026-06-18T00:38:45.172Z</time>
</trkpt>
<trkpt lat="55.619087" lon="8.163538">
<ele>6.208394</ele>
<time>2026-06-18T00:39:01.504Z</time>
</trkpt>
<trkpt lat="55.619111" lon="8.161739">
<ele>6.123723</ele>
<time>2026-06-18T00:39:24.148Z</time>
</trkpt>
<trkpt lat="55.619222" lon="8.160245">
<ele>6.000839</ele>
<time>2026-06-18T00:39:42.624Z</time>
</trkpt>
<trkpt lat="55.619259" lon="8.159844">
<ele>5.955393</ele>
<time>2026-06-18T00:39:47.523Z</time>
</trkpt>
<trkpt lat="55.619380" lon="8.159492">
<ele>5.909302</ele>
<time>2026-06-18T00:39:52.503Z</time>
</trkpt>
<trkpt lat="55.619581" lon="8.158614">
<ele>5.803336</ele>
<time>2026-06-18T00:40:03.813Z</time>
</trkpt>
<trkpt lat="55.619623" lon="8.158314">
<ele>5.768765</ele>
<time>2026-06-18T00:40:07.483Z</time>
</trkpt>
<trkpt lat="55.619642" lon="8.157715">
<ele>5.769474</ele>
<time>2026-06-18T00:40:14.703Z</time>
</trkpt>
<trkpt lat="55.619552" lon="8.156128">
<ele>5.961662</ele>
<time>2026-06-18T00:40:35.319Z</time>
</trkpt>
<trkpt lat="55.619664" lon="8.154723">
<ele>6.142090</ele>
<time>2026-06-18T00:40:54.617Z</time>
</trkpt>
<trkpt lat="55.619792" lon="8.153253">
<ele>6.437945</ele>
<time>2026-06-18T00:41:15.156Z</time>
</trkpt>
<trkpt lat="55.619894" lon="8.152705">
<ele>6.552716</ele>
<time>2026-06-18T00:41:22.861Z</time>
</trkpt>
<trkpt lat="55.620114" lon="8.151754">
<ele>6.750014</ele>
<time>2026-06-18T00:41:35.948Z</time>
</trkpt>
<trkpt lat="55.620214" lon="8.150996">
<ele>6.702545</ele>
<time>2026-06-18T00:41:45.696Z</time>
</trkpt>
<trkpt lat="55.620237" lon="8.150574">
<ele>6.676692</ele>
<time>2026-06-18T00:41:51.007Z</time>
</trkpt>
<trkpt lat="55.620231" lon="8.150062">
<ele>6.645462</ele>
<time>2026-06-18T00:41:57.420Z</time>
</trkpt>
<trkpt lat="55.620100" lon="8.148400">
<ele>6.482169</ele>
<time>2026-06-18T00:42:17.833Z</time>
</trkpt>
<trkpt lat="55.620000" lon="8.147230">
<ele>6.102711</ele>
<time>2026-06-18T00:42:31.618Z</time>
</trkpt>
<trkpt lat="55.620686" lon="8.146606">
<ele>5.664760</ele>
<time>2026-06-18T00:42:47.053Z</time>
</trkpt>
<trkpt lat="55.621226" lon="8.146027">
<ele>5.327923</ele>
<time>2026-06-18T00:42:59.430Z</time>
</trkpt>
<trkpt lat="55.621444" lon="8.145499">
<ele>5.137940</ele>
<time>2026-06-18T00:43:06.923Z</time>
</trkpt>
<trkpt lat="55.621751" lon="8.144516">
<ele>4.811667</ele>
<time>2026-06-18T00:43:20.233Z</time>
</trkpt>
<trkpt lat="55.622135" lon="8.143471">
<ele>4.547134</ele>
<time>2026-06-18T00:43:35.023Z</time>
</trkpt>
<trkpt lat="55.622352" lon="8.142666">
<ele>4.444816</ele>
<time>2026-06-18T00:43:45.884Z</time>
</trkpt>
<trkpt lat="55.622529" lon="8.141844">
<ele>4.343908</ele>
<time>2026-06-18T00:43:56.687Z</time>
</trkpt>
<trkpt lat="55.623076" lon="8.139069">
<ele>4.084912</ele>
<time>2026-06-18T00:44:32.694Z</time>
</trkpt>
<trkpt lat="55.623203" lon="8.138719">
<ele>4.052814</ele>
<time>2026-06-18T00:44:37.761Z</time>
</trkpt>
<trkpt lat="55.623359" lon="8.138474">
<ele>4.024325</ele>
<time>2026-06-18T00:44:42.244Z</time>
</trkpt>
<trkpt lat="55.623636" lon="8.138169">
<ele>3.972664</ele>
<time>2026-06-18T00:44:49.300Z</time>
</trkpt>
<trkpt lat="55.623864" lon="8.138009">
<ele>3.927230</ele>
<time>2026-06-18T00:44:54.619Z</time>
</trkpt>
<trkpt lat="55.624064" lon="8.137945">
<ele>3.889578</ele>
<time>2026-06-18T00:44:58.989Z</time>
</trkpt>
<trkpt lat="55.624215" lon="8.137945">
<ele>3.861604</ele>
<time>2026-06-18T00:45:02.232Z</time>
</trkpt>
<trkpt lat="55.624543" lon="8.138071">
<ele>3.799426</ele>
<time>2026-06-18T00:45:09.436Z</time>
</trkpt>
<trkpt lat="55.624612" lon="8.138105">
<ele>3.786157</ele>
<time>2026-06-18T00:45:10.975Z</time>
</trkpt>
<trkpt lat="55.624960" lon="8.138225">
<ele>3.720477</ele>
<time>2026-06-18T00:45:18.612Z</time>
</trkpt>
<trkpt lat="55.626264" lon="8.138441">
<ele>3.564776</ele>
<time>2026-06-18T00:45:46.799Z</time>
</trkpt>
<trkpt lat="55.626298" lon="8.138454">
<ele>3.561302</ele>
<time>2026-06-18T00:45:47.563Z</time>
</trkpt>
<trkpt lat="55.626644" lon="8.138594">
<ele>3.525853</ele>
<time>2026-06-18T00:45:55.325Z</time>
</trkpt>
<trkpt lat="55.627981" lon="8.139076">
<ele>3.581347</ele>
<time>2026-06-18T00:46:26.181Z</time>
</trkpt>
<trkpt lat="55.629112" lon="8.139487">
<ele>3.638922</ele>
<time>2026-06-18T00:46:52.457Z</time>
</trkpt>
<trkpt lat="55.629474" lon="8.139616">
<ele>3.613705</ele>
<time>2026-06-18T00:47:00.750Z</time>
</trkpt>
<trkpt lat="55.630509" lon="8.139997">
<ele>3.541510</ele>
<time>2026-06-18T00:47:23.449Z</time>
</trkpt>
<trkpt lat="55.630808" lon="8.140099">
<ele>3.532977</ele>
<time>2026-06-18T00:47:30.068Z</time>
</trkpt>
<trkpt lat="55.632387" lon="8.140661">
<ele>3.504980</ele>
<time>2026-06-18T00:48:06.098Z</time>
</trkpt>
<trkpt lat="55.632436" lon="8.140678">
<ele>3.508352</ele>
<time>2026-06-18T00:48:07.216Z</time>
</trkpt>
<trkpt lat="55.633984" lon="8.141223">
<ele>3.614961</ele>
<time>2026-06-18T00:48:42.087Z</time>
</trkpt>
<trkpt lat="55.635319" lon="8.141701">
<ele>4.296712</ele>
<time>2026-06-18T00:49:14.779Z</time>
</trkpt>
<trkpt lat="55.635890" lon="8.141898">
<ele>4.606229</ele>
<time>2026-06-18T00:49:29.704Z</time>
</trkpt>
<trkpt lat="55.636874" lon="8.142257">
<ele>5.123193</ele>
<time>2026-06-18T00:49:55.845Z</time>
</trkpt>
<trkpt lat="55.637572" lon="8.142503">
<ele>5.489402</ele>
<time>2026-06-18T00:50:12.122Z</time>
</trkpt>
<trkpt lat="55.637748" lon="8.142569">
<ele>5.449424</ele>
<time>2026-06-18T00:50:15.966Z</time>
</trkpt>
<trkpt lat="55.638797" lon="8.142954">
<ele>5.027698</ele>
<time>2026-06-18T00:50:38.341Z</time>
</trkpt>
<trkpt lat="55.638804" lon="8.142957">
<ele>5.024863</ele>
<time>2026-06-18T00:50:38.477Z</time>
</trkpt>
<trkpt lat="55.639272" lon="8.143131">
<ele>4.836613</ele>
<time>2026-06-18T00:50:48.081Z</time>
</trkpt>
<trkpt lat="55.641239" lon="8.143847">
<ele>3.878442</ele>
<time>2026-06-18T00:51:29.170Z</time>
</trkpt>
<trkpt lat="55.643061" lon="8.144526">
<ele>3.501460</ele>
<time>2026-06-18T00:52:09.103Z</time>
</trkpt>
<trkpt lat="55.644130" lon="8.144922">
<ele>3.619116</ele>
<time>2026-06-18T00:52:33.972Z</time>
</trkpt>
<trkpt lat="55.644563" lon="8.145275">
<ele>3.670464</ele>
<time>2026-06-18T00:52:45.091Z</time>
</trkpt>
<trkpt lat="55.645001" lon="8.145837">
<ele>3.663942</ele>
<time>2026-06-18T00:52:57.756Z</time>
</trkpt>
<trkpt lat="55.645437" lon="8.146291">
<ele>3.651219</ele>
<time>2026-06-18T00:53:09.165Z</time>
</trkpt>
<trkpt lat="55.645684" lon="8.146456">
<ele>3.644578</ele>
<time>2026-06-18T00:53:15.012Z</time>
</trkpt>
<trkpt lat="55.645812" lon="8.146521">
<ele>3.641228</ele>
<time>2026-06-18T00:53:17.886Z</time>
</trkpt>
<trkpt lat="55.646150" lon="8.146525">
<ele>3.632725</ele>
<time>2026-06-18T00:53:24.828Z</time>
</trkpt>
<trkpt lat="55.646357" lon="8.146448">
<ele>3.655971</ele>
<time>2026-06-18T00:53:29.140Z</time>
</trkpt>
<trkpt lat="55.646669" lon="8.146223">
<ele>3.715660</ele>
<time>2026-06-18T00:53:36.062Z</time>
</trkpt>
<trkpt lat="55.646807" lon="8.146171">
<ele>3.740661</ele>
<time>2026-06-18T00:53:39.163Z</time>
</trkpt>
<trkpt lat="55.647190" lon="8.146149">
<ele>3.808565</ele>
<time>2026-06-18T00:53:47.830Z</time>
</trkpt>
<trkpt lat="55.647727" lon="8.146298">
<ele>3.904881</ele>
<time>2026-06-18T00:54:00.775Z</time>
</trkpt>
<trkpt lat="55.647902" lon="8.146339">
<ele>3.936161</ele>
<time>2026-06-18T00:54:05.118Z</time>
</trkpt>
<trkpt lat="55.648848" lon="8.146580">
<ele>4.713038</ele>
<time>2026-06-18T00:54:30.967Z</time>
</trkpt>
<trkpt lat="55.649013" lon="8.146674">
<ele>4.863475</ele>
<time>2026-06-18T00:54:35.582Z</time>
</trkpt>
<trkpt lat="55.649709" lon="8.147200">
<ele>5.513216</ele>
<time>2026-06-18T00:54:54.426Z</time>
</trkpt>
<trkpt lat="55.649947" lon="8.147282">
<ele>5.565459</ele>
<time>2026-06-18T00:55:00.348Z</time>
</trkpt>
<trkpt lat="55.651420" lon="8.147398">
<ele>5.883166</ele>
<time>2026-06-18T00:55:34.211Z</time>
</trkpt>
<trkpt lat="55.651708" lon="8.147491">
<ele>5.835084</ele>
<time>2026-06-18T00:55:40.591Z</time>
</trkpt>
<trkpt lat="55.651978" lon="8.147633">
<ele>5.754602</ele>
<time>2026-06-18T00:55:46.657Z</time>
</trkpt>
<trkpt lat="55.652449" lon="8.148002">
<ele>5.607442</ele>
<time>2026-06-18T00:55:57.504Z</time>
</trkpt>
<trkpt lat="55.652673" lon="8.148065">
<ele>5.542629</ele>
<time>2026-06-18T00:56:02.211Z</time>
</trkpt>
<trkpt lat="55.652930" lon="8.148088">
<ele>5.469093</ele>
<time>2026-06-18T00:56:07.553Z</time>
</trkpt>
<trkpt lat="55.653407" lon="8.147997">
<ele>5.318504</ele>
<time>2026-06-18T00:56:17.478Z</time>
</trkpt>
<trkpt lat="55.655396" lon="8.147986">
<ele>4.710232</ele>
<time>2026-06-18T00:56:59.353Z</time>
</trkpt>
<trkpt lat="55.655716" lon="8.148018">
<ele>4.686162</ele>
<time>2026-06-18T00:57:06.128Z</time>
</trkpt>
<trkpt lat="55.656593" lon="8.148231">
<ele>4.619685</ele>
<time>2026-06-18T00:57:25.799Z</time>
</trkpt>
<trkpt lat="55.657583" lon="8.148463">
<ele>4.726732</ele>
<time>2026-06-18T00:57:48.982Z</time>
</trkpt>
<trkpt lat="55.657737" lon="8.148532">
<ele>4.751892</ele>
<time>2026-06-18T00:57:52.715Z</time>
</trkpt>
<trkpt lat="55.657934" lon="8.148684">
<ele>4.785923</ele>
<time>2026-06-18T00:57:57.709Z</time>
</trkpt>
<trkpt lat="55.658802" lon="8.149539">
<ele>4.878118</ele>
<time>2026-06-18T00:58:19.879Z</time>
</trkpt>
<trkpt lat="55.660796" lon="8.151485">
<ele>4.844467</ele>
<time>2026-06-18T00:59:10.045Z</time>
</trkpt>
<trkpt lat="55.661657" lon="8.152327">
<ele>4.856380</ele>
<time>2026-06-18T00:59:32.068Z</time>
</trkpt>
<trkpt lat="55.661823" lon="8.152423">
<ele>4.896916</ele>
<time>2026-06-18T00:59:35.993Z</time>
</trkpt>
<trkpt lat="55.662596" lon="8.152694">
<ele>5.079849</ele>
<time>2026-06-18T00:59:54.593Z</time>
</trkpt>
<trkpt lat="55.662769" lon="8.152793">
<ele>5.122053</ele>
<time>2026-06-18T00:59:59.081Z</time>
</trkpt>
<trkpt lat="55.663000" lon="8.153008">
<ele>5.182623</ele>
<time>2026-06-18T01:00:05.417Z</time>
</trkpt>
<trkpt lat="55.663515" lon="8.153554">
<ele>5.112612</ele>
<time>2026-06-18T01:00:19.196Z</time>
</trkpt>
<trkpt lat="55.663767" lon="8.153735">
<ele>4.913008</ele>
<time>2026-06-18T01:00:25.077Z</time>
</trkpt>
<trkpt lat="55.666022" lon="8.154915">
<ele>3.260719</ele>
<time>2026-06-18T01:01:09.970Z</time>
</trkpt>
<trkpt lat="55.667490" lon="8.155678">
<ele>2.884813</ele>
<time>2026-06-18T01:01:43.382Z</time>
</trkpt>
<trkpt lat="55.668016" lon="8.155948">
<ele>2.974587</ele>
<time>2026-06-18T01:01:56.471Z</time>
</trkpt>
<trkpt lat="55.668428" lon="8.156159">
<ele>3.044891</ele>
<time>2026-06-18T01:02:06.677Z</time>
</trkpt>
<trkpt lat="55.668797" lon="8.156437">
<ele>3.117451</ele>
<time>2026-06-18T01:02:16.040Z</time>
</trkpt>
<trkpt lat="55.669088" lon="8.156772">
<ele>3.181084</ele>
<time>2026-06-18T01:02:23.860Z</time>
</trkpt>
<trkpt lat="55.669403" lon="8.157230">
<ele>3.255797</ele>
<time>2026-06-18T01:02:32.962Z</time>
</trkpt>
<trkpt lat="55.669656" lon="8.157689">
<ele>3.322184</ele>
<time>2026-06-18T01:02:41.121Z</time>
</trkpt>
<trkpt lat="55.669799" lon="8.158039">
<ele>3.366888</ele>
<time>2026-06-18T01:02:46.712Z</time>
</trkpt>
<trkpt lat="55.670136" lon="8.159516">
<ele>3.853783</ele>
<time>2026-06-18T01:03:08.511Z</time>
</trkpt>
<trkpt lat="55.670194" lon="8.159950">
<ele>3.999835</ele>
<time>2026-06-18T01:03:14.901Z</time>
</trkpt>
<trkpt lat="55.670204" lon="8.160205">
<ele>4.083539</ele>
<time>2026-06-18T01:03:18.598Z</time>
</trkpt>
<trkpt lat="55.670183" lon="8.160412">
<ele>4.152410</ele>
<time>2026-06-18T01:03:21.632Z</time>
</trkpt>
<trkpt lat="55.670136" lon="8.160624">
<ele>4.227003</ele>
<time>2026-06-18T01:03:24.917Z</time>
</trkpt>
<trkpt lat="55.669440" lon="8.162891">
<ele>4.855371</ele>
<time>2026-06-18T01:04:00.256Z</time>
</trkpt>
<trkpt lat="55.669410" lon="8.163149">
<ele>4.912625</ele>
<time>2026-06-18T01:04:03.667Z</time>
</trkpt>
<trkpt lat="55.669419" lon="8.163360">
<ele>4.958616</ele>
<time>2026-06-18T01:04:06.397Z</time>
</trkpt>
<trkpt lat="55.669458" lon="8.163490">
<ele>4.990620</ele>
<time>2026-06-18T01:04:08.287Z</time>
</trkpt>
<trkpt lat="55.669473" lon="8.163536">
<ele>5.002168</ele>
<time>2026-06-18T01:04:08.978Z</time>
</trkpt>
<trkpt lat="55.669529" lon="8.163697">
<ele>5.043281</ele>
<time>2026-06-18T01:04:11.422Z</time>
</trkpt>
<trkpt lat="55.669666" lon="8.163994">
<ele>5.124060</ele>
<time>2026-06-18T01:04:16.376Z</time>
</trkpt>
<trkpt lat="55.670609" lon="8.165597">
<ele>5.413605</ele>
<time>2026-06-18T01:04:46.638Z</time>
</trkpt>
<trkpt lat="55.672305" lon="8.167523">
<ele>5.873913</ele>
<time>2026-06-18T01:05:33.314Z</time>
</trkpt>
<trkpt lat="55.675326" lon="8.171020">
<ele>6.410632</ele>
<time>2026-06-18T01:06:56.034Z</time>
</trkpt>
<trkpt lat="55.675550" lon="8.171055">
<ele>6.435049</ele>
<time>2026-06-18T01:07:01.013Z</time>
</trkpt>
<trkpt lat="55.676027" lon="8.170888">
<ele>6.348730</ele>
<time>2026-06-18T01:07:11.553Z</time>
</trkpt>
<trkpt lat="55.676276" lon="8.170821">
<ele>6.299983</ele>
<time>2026-06-18T01:07:16.881Z</time>
</trkpt>
<trkpt lat="55.676479" lon="8.170844">
<ele>6.260612</ele>
<time>2026-06-18T01:07:21.187Z</time>
</trkpt>
<trkpt lat="55.676670" lon="8.170917">
<ele>6.222794</ele>
<time>2026-06-18T01:07:25.307Z</time>
</trkpt>
<trkpt lat="55.676957" lon="8.171116">
<ele>6.163149</ele>
<time>2026-06-18T01:07:31.823Z</time>
</trkpt>
<trkpt lat="55.677079" lon="8.171249">
<ele>6.135431</ele>
<time>2026-06-18T01:07:34.860Z</time>
</trkpt>
<trkpt lat="55.677664" lon="8.171992">
<ele>6.161207</ele>
<time>2026-06-18T01:07:50.571Z</time>
</trkpt>
<trkpt lat="55.677845" lon="8.172135">
<ele>6.190516</ele>
<time>2026-06-18T01:07:55.035Z</time>
</trkpt>
<trkpt lat="55.678057" lon="8.172202">
<ele>6.222369</ele>
<time>2026-06-18T01:07:59.988Z</time>
</trkpt>
<trkpt lat="55.679350" lon="8.172287">
<ele>6.362113</ele>
<time>2026-06-18T01:08:30.237Z</time>
</trkpt>
<trkpt lat="55.679568" lon="8.172350">
<ele>6.365689</ele>
<time>2026-06-18T01:08:35.344Z</time>
</trkpt>
<trkpt lat="55.679656" lon="8.172419">
<ele>6.367248</ele>
<time>2026-06-18T01:08:37.567Z</time>
</trkpt>
<trkpt lat="55.680560" lon="8.173515">
<ele>6.384249</ele>
<time>2026-06-18T01:09:01.602Z</time>
</trkpt>
<trkpt lat="55.680782" lon="8.173833">
<ele>6.351157</ele>
<time>2026-06-18T01:09:07.680Z</time>
</trkpt>
<trkpt lat="55.681198" lon="8.174529">
<ele>6.284837</ele>
<time>2026-06-18T01:09:19.830Z</time>
</trkpt>
<trkpt lat="55.681958" lon="8.175865">
<ele>6.205643</ele>
<time>2026-06-18T01:09:43.200Z</time>
</trkpt>
<trkpt lat="55.682907" lon="8.177545">
<ele>6.498881</ele>
<time>2026-06-18T01:10:14.734Z</time>
</trkpt>
<trkpt lat="55.683814" lon="8.179157">
<ele>6.688450</ele>
<time>2026-06-18T01:10:44.481Z</time>
</trkpt>
<trkpt lat="55.683444" lon="8.180731">
<ele>6.782192</ele>
<time>2026-06-18T01:11:20.115Z</time>
</trkpt>
<trkpt lat="55.683234" lon="8.181459">
<ele>6.744870</ele>
<time>2026-06-18T01:11:36.969Z</time>
</trkpt>
<trkpt lat="55.683184" lon="8.181650">
<ele>6.735259</ele>
<time>2026-06-18T01:11:41.317Z</time>
</trkpt>
<trkpt lat="55.683308" lon="8.181645">
<ele>6.725218</ele>
<time>2026-06-18T01:11:44.322Z</time>
</trkpt>
<trkpt lat="55.684403" lon="8.181093">
<ele>6.700217</ele>
<time>2026-06-18T01:12:12.002Z</time>
</trkpt>
<trkpt lat="55.684695" lon="8.180995">
<ele>6.796016</ele>
<time>2026-06-18T01:12:19.393Z</time>
</trkpt>
<trkpt lat="55.685256" lon="8.180971">
<ele>6.976911</ele>
<time>2026-06-18T01:12:33.958Z</time>
</trkpt>
<trkpt lat="55.685498" lon="8.181006">
<ele>7.055180</ele>
<time>2026-06-18T01:12:40.452Z</time>
</trkpt>
<trkpt lat="55.686012" lon="8.181166">
<ele>7.223403</ele>
<time>2026-06-18T01:12:54.670Z</time>
</trkpt>
<trkpt lat="55.686493" lon="8.181399">
<ele>7.247826</ele>
<time>2026-06-18T01:13:07.944Z</time>
</trkpt>
<trkpt lat="55.687052" lon="8.181527">
<ele>7.272557</ele>
<time>2026-06-18T01:13:22.233Z</time>
</trkpt>
<trkpt lat="55.687228" lon="8.181518">
<ele>7.280283</ele>
<time>2026-06-18T01:13:26.493Z</time>
</trkpt>
<trkpt lat="55.688200" lon="8.181448">
<ele>7.232941</ele>
<time>2026-06-18T01:13:48.961Z</time>
</trkpt>
<trkpt lat="55.688864" lon="8.181577">
<ele>7.113159</ele>
<time>2026-06-18T01:14:04.798Z</time>
</trkpt>
<trkpt lat="55.689128" lon="8.181657">
<ele>7.065132</ele>
<time>2026-06-18T01:14:11.392Z</time>
</trkpt>
<trkpt lat="55.689548" lon="8.181852">
<ele>6.987280</ele>
<time>2026-06-18T01:14:22.331Z</time>
</trkpt>
<trkpt lat="55.689903" lon="8.182112">
<ele>7.020365</ele>
<time>2026-06-18T01:14:32.096Z</time>
</trkpt>
<trkpt lat="55.690326" lon="8.182516">
<ele>7.070768</ele>
<time>2026-06-18T01:14:44.282Z</time>
</trkpt>
<trkpt lat="55.691274" lon="8.183654">
<ele>7.170393</ele>
<time>2026-06-18T01:15:12.754Z</time>
</trkpt>
<trkpt lat="55.691502" lon="8.183836">
<ele>7.168977</ele>
<time>2026-06-18T01:15:18.938Z</time>
</trkpt>
<trkpt lat="55.691608" lon="8.183972">
<ele>7.168236</ele>
<time>2026-06-18T01:15:22.177Z</time>
</trkpt>
<trkpt lat="55.692056" lon="8.184718">
<ele>7.164757</ele>
<time>2026-06-18T01:15:37.407Z</time>
</trkpt>
<trkpt lat="55.692262" lon="8.185000">
<ele>7.163283</ele>
<time>2026-06-18T01:15:43.844Z</time>
</trkpt>
<trkpt lat="55.692560" lon="8.185300">
<ele>7.161343</ele>
<time>2026-06-18T01:15:52.252Z</time>
</trkpt>
<trkpt lat="55.692907" lon="8.185768">
<ele>7.167658</ele>
<time>2026-06-18T01:16:02.808Z</time>
</trkpt>
<trkpt lat="55.693575" lon="8.186542">
<ele>7.179811</ele>
<time>2026-06-18T01:16:22.306Z</time>
</trkpt>
<trkpt lat="55.693681" lon="8.186681">
<ele>7.181819</ele>
<time>2026-06-18T01:16:25.620Z</time>
</trkpt>
<trkpt lat="55.693835" lon="8.186884">
<ele>7.184741</ele>
<time>2026-06-18T01:16:30.515Z</time>
</trkpt>
<trkpt lat="55.694175" lon="8.187175">
<ele>7.194406</ele>
<time>2026-06-18T01:16:40.203Z</time>
</trkpt>
<trkpt lat="55.694445" lon="8.187463">
<ele>7.209423</ele>
<time>2026-06-18T01:16:48.304Z</time>
</trkpt>
<trkpt lat="55.694590" lon="8.187666">
<ele>7.218226</ele>
<time>2026-06-18T01:16:52.968Z</time>
</trkpt>
<trkpt lat="55.694703" lon="8.187954">
<ele>7.227654</ele>
<time>2026-06-18T01:16:57.941Z</time>
</trkpt>
<trkpt lat="55.694924" lon="8.188826">
<ele>7.253339</ele>
<time>2026-06-18T01:17:11.472Z</time>
</trkpt>
<trkpt lat="55.695025" lon="8.189101">
<ele>7.262156</ele>
<time>2026-06-18T01:17:15.998Z</time>
</trkpt>
<trkpt lat="55.695194" lon="8.189487">
<ele>7.272415</ele>
<time>2026-06-18T01:17:22.659Z</time>
</trkpt>
<trkpt lat="55.695302" lon="8.189623">
<ele>7.258628</ele>
<time>2026-06-18T01:17:25.799Z</time>
</trkpt>
<trkpt lat="55.695518" lon="8.189763">
<ele>7.234689</ele>
<time>2026-06-18T01:17:31.190Z</time>
</trkpt>
<trkpt lat="55.695694" lon="8.189961">
<ele>7.212994</ele>
<time>2026-06-18T01:17:36.073Z</time>
</trkpt>
<trkpt lat="55.695783" lon="8.190113">
<ele>7.200135</ele>
<time>2026-06-18T01:17:38.980Z</time>
</trkpt>
<trkpt lat="55.696018" lon="8.190658">
<ele>7.159874</ele>
<time>2026-06-18T01:17:48.396Z</time>
</trkpt>
<trkpt lat="55.696148" lon="8.191081">
<ele>7.131606</ele>
<time>2026-06-18T01:17:55.157Z</time>
</trkpt>
<trkpt lat="55.696413" lon="8.191617">
<ele>7.089774</ele>
<time>2026-06-18T01:18:05.096Z</time>
</trkpt>
<trkpt lat="55.696652" lon="8.191969">
<ele>7.034159</ele>
<time>2026-06-18T01:18:12.747Z</time>
</trkpt>
<trkpt lat="55.696782" lon="8.192368">
<ele>6.985927</ele>
<time>2026-06-18T01:18:19.085Z</time>
</trkpt>
<trkpt lat="55.696840" lon="8.192429">
<ele>6.973407</ele>
<time>2026-06-18T01:18:20.725Z</time>
</trkpt>
<trkpt lat="55.696950" lon="8.192401">
<ele>6.952772</ele>
<time>2026-06-18T01:18:23.463Z</time>
</trkpt>
<trkpt lat="55.697074" lon="8.192283">
<ele>6.926644</ele>
<time>2026-06-18T01:18:26.898Z</time>
</trkpt>
<trkpt lat="55.697219" lon="8.192282">
<ele>6.899718</ele>
<time>2026-06-18T01:18:30.408Z</time>
</trkpt>
<trkpt lat="55.697482" lon="8.192480">
<ele>6.846667</ele>
<time>2026-06-18T01:18:37.290Z</time>
</trkpt>
<trkpt lat="55.697627" lon="8.192512">
<ele>6.819534</ele>
<time>2026-06-18T01:18:40.728Z</time>
</trkpt>
<trkpt lat="55.697896" lon="8.192445">
<ele>6.769093</ele>
<time>2026-06-18T01:18:47.040Z</time>
</trkpt>
<trkpt lat="55.698268" lon="8.192104">
<ele>6.678565</ele>
<time>2026-06-18T01:18:56.744Z</time>
</trkpt>
<trkpt lat="55.698330" lon="8.192191">
<ele>6.660853</ele>
<time>2026-06-18T01:18:58.594Z</time>
</trkpt>
<trkpt lat="55.698406" lon="8.192450">
<ele>6.623978</ele>
<time>2026-06-18T01:19:02.411Z</time>
</trkpt>
<trkpt lat="55.698473" lon="8.192590">
<ele>6.600784</ele>
<time>2026-06-18T01:19:04.790Z</time>
</trkpt>
<trkpt lat="55.700321" lon="8.194833">
<ele>6.493459</ele>
<time>2026-06-18T01:19:59.093Z</time>
</trkpt>
<trkpt lat="55.700590" lon="8.195077">
<ele>6.532120</ele>
<time>2026-06-18T01:20:07.276Z</time>
</trkpt>
<trkpt lat="55.701324" lon="8.195594">
<ele>6.550339</ele>
<time>2026-06-18T01:20:28.582Z</time>
</trkpt>
<trkpt lat="55.701414" lon="8.195708">
<ele>6.542331</ele>
<time>2026-06-18T01:20:31.493Z</time>
</trkpt>
<trkpt lat="55.701560" lon="8.196074">
<ele>6.524032</ele>
<time>2026-06-18T01:20:37.908Z</time>
</trkpt>
<trkpt lat="55.701723" lon="8.196348">
<ele>6.507773</ele>
<time>2026-06-18T01:20:43.372Z</time>
</trkpt>
<trkpt lat="55.702579" lon="8.197416">
<ele>6.356885</ele>
<time>2026-06-18T01:21:07.048Z</time>
</trkpt>
<trkpt lat="55.702038" lon="8.199722">
<ele>5.830225</ele>
<time>2026-06-18T01:21:56.751Z</time>
</trkpt>
<trkpt lat="55.701731" lon="8.200799">
<ele>5.955245</ele>
<time>2026-06-18T01:22:22.779Z</time>
</trkpt>
<trkpt lat="55.701877" lon="8.201397">
<ele>6.076918</ele>
<time>2026-06-18T01:22:31.805Z</time>
</trkpt>
<trkpt lat="55.701946" lon="8.201465">
<ele>6.103068</ele>
<time>2026-06-18T01:22:33.822Z</time>
</trkpt>
<trkpt lat="55.703053" lon="8.202329">
<ele>6.283404</ele>
<time>2026-06-18T01:23:02.841Z</time>
</trkpt>
<trkpt lat="55.704822" lon="8.203729">
<ele>5.886359</ele>
<time>2026-06-18T01:23:42.765Z</time>
</trkpt>
<trkpt lat="55.706391" lon="8.204970">
<ele>5.667356</ele>
<time>2026-06-18T01:24:20.908Z</time>
</trkpt>
<trkpt lat="55.706716" lon="8.205148">
<ele>5.643094</ele>
<time>2026-06-18T01:24:28.541Z</time>
</trkpt>
<trkpt lat="55.707515" lon="8.205462">
<ele>5.584719</ele>
<time>2026-06-18T01:24:46.490Z</time>
</trkpt>
<trkpt lat="55.707696" lon="8.205502">
<ele>5.571708</ele>
<time>2026-06-18T01:24:50.407Z</time>
</trkpt>
<trkpt lat="55.709171" lon="8.205857">
<ele>5.391689</ele>
<time>2026-06-18T01:25:22.405Z</time>
</trkpt>
<trkpt lat="55.718650" lon="8.207988">
<ele>5.913394</ele>
<time>2026-06-18T01:28:58.190Z</time>
</trkpt>
<trkpt lat="55.718776" lon="8.208023">
<ele>5.854920</ele>
<time>2026-06-18T01:29:00.859Z</time>
</trkpt>
<trkpt lat="55.719119" lon="8.208222">
<ele>5.689468</ele>
<time>2026-06-18T01:29:08.305Z</time>
</trkpt>
<trkpt lat="55.721578" lon="8.209668">
<ele>4.315980</ele>
<time>2026-06-18T01:30:00.476Z</time>
</trkpt>
<trkpt lat="55.722284" lon="8.209950">
<ele>4.019606</ele>
<time>2026-06-18T01:30:15.846Z</time>
</trkpt>
<trkpt lat="55.722981" lon="8.210126">
<ele>3.803988</ele>
<time>2026-06-18T01:30:30.510Z</time>
</trkpt>
<trkpt lat="55.723401" lon="8.210129">
<ele>3.675353</ele>
<time>2026-06-18T01:30:39.387Z</time>
</trkpt>
<trkpt lat="55.723576" lon="8.210171">
<ele>3.621268</ele>
<time>2026-06-18T01:30:45.737Z</time>
</trkpt>
<trkpt lat="55.723708" lon="8.210310">
<ele>3.634168</ele>
<time>2026-06-18T01:30:49.034Z</time>
</trkpt>
<trkpt lat="55.723972" lon="8.210382">
<ele>3.702893</ele>
<time>2026-06-18T01:30:54.867Z</time>
</trkpt>
<trkpt lat="55.726449" lon="8.211010">
<ele>4.521141</ele>
<time>2026-06-18T01:31:54.422Z</time>
</trkpt>
<trkpt lat="55.726978" lon="8.211265">
<ele>4.750974</ele>
<time>2026-06-18T01:32:07.719Z</time>
</trkpt>
<trkpt lat="55.727655" lon="8.211641">
<ele>5.082596</ele>
<time>2026-06-18T01:32:25.074Z</time>
</trkpt>
<trkpt lat="55.729430" lon="8.212645">
<ele>5.719167</ele>
<time>2026-06-18T01:33:09.856Z</time>
</trkpt>
<trkpt lat="55.730761" lon="8.213398">
<ele>5.786755</ele>
<time>2026-06-18T01:33:39.992Z</time>
</trkpt>
<trkpt lat="55.730890" lon="8.213384">
<ele>5.796434</ele>
<time>2026-06-18T01:33:42.723Z</time>
</trkpt>
<trkpt lat="55.730932" lon="8.213226">
<ele>5.803803</ele>
<time>2026-06-18T01:33:44.849Z</time>
</trkpt>
<trkpt lat="55.730999" lon="8.213252">
<ele>5.808940</ele>
<time>2026-06-18T01:33:46.313Z</time>
</trkpt>
<trkpt lat="55.731097" lon="8.213303">
<ele>5.816588</ele>
<time>2026-06-18T01:33:48.563Z</time>
</trkpt>
<trkpt lat="55.730906" lon="8.214409">
<ele>5.865376</ele>
<time>2026-06-18T01:34:03.331Z</time>
</trkpt>
<trkpt lat="55.730990" lon="8.214480">
<ele>5.872344</ele>
<time>2026-06-18T01:34:05.512Z</time>
</trkpt>
<trkpt lat="55.731058" lon="8.214597">
<ele>5.879435</ele>
<time>2026-06-18T01:34:07.707Z</time>
</trkpt>
<trkpt lat="55.731161" lon="8.214935">
<ele>5.895644</ele>
<time>2026-06-18T01:34:12.759Z</time>
</trkpt>
<trkpt lat="55.731280" lon="8.215347">
<ele>5.930388</ele>
<time>2026-06-18T01:34:18.870Z</time>
</trkpt>
<trkpt lat="55.731396" lon="8.215806">
<ele>5.989384</ele>
<time>2026-06-18T01:34:25.645Z</time>
</trkpt>
<trkpt lat="55.731417" lon="8.215906">
<ele>6.001900</ele>
<time>2026-06-18T01:34:27.087Z</time>
</trkpt>
<trkpt lat="55.731495" lon="8.216457">
<ele>6.068522</ele>
<time>2026-06-18T01:34:34.768Z</time>
</trkpt>
<trkpt lat="55.731512" lon="8.216712">
<ele>6.098632</ele>
<time>2026-06-18T01:34:38.169Z</time>
</trkpt>
<trkpt lat="55.731514" lon="8.216905">
<ele>6.121268</ele>
<time>2026-06-18T01:34:40.702Z</time>
</trkpt>
<trkpt lat="55.731513" lon="8.217151">
<ele>6.150115</ele>
<time>2026-06-18T01:34:43.868Z</time>
</trkpt>
<trkpt lat="55.731485" lon="8.217476">
<ele>6.188669</ele>
<time>2026-06-18T01:34:47.971Z</time>
</trkpt>
<trkpt lat="55.731457" lon="8.217684">
<ele>6.213747</ele>
<time>2026-06-18T01:34:50.644Z</time>
</trkpt>
<trkpt lat="55.731441" lon="8.217795">
<ele>6.227182</ele>
<time>2026-06-18T01:34:52.039Z</time>
</trkpt>
<trkpt lat="55.731386" lon="8.218157">
<ele>6.271150</ele>
<time>2026-06-18T01:34:56.678Z</time>
</trkpt>
<trkpt lat="55.731302" lon="8.218708">
<ele>6.294657</ele>
<time>2026-06-18T01:35:03.951Z</time>
</trkpt>
<trkpt lat="55.731245" lon="8.219053">
<ele>6.304630</ele>
<time>2026-06-18T01:35:08.380Z</time>
</trkpt>
<trkpt lat="55.731227" lon="8.219158">
<ele>6.307675</ele>
<time>2026-06-18T01:35:09.717Z</time>
</trkpt>
<trkpt lat="55.731209" lon="8.219267">
<ele>6.310826</ele>
<time>2026-06-18T01:35:11.094Z</time>
</trkpt>
<trkpt lat="55.731168" lon="8.219513">
<ele>6.317942</ele>
<time>2026-06-18T01:35:14.197Z</time>
</trkpt>
<trkpt lat="55.731069" lon="8.220077">
<ele>6.334329</ele>
<time>2026-06-18T01:35:21.247Z</time>
</trkpt>
<trkpt lat="55.731033" lon="8.220261">
<ele>6.339733</ele>
<time>2026-06-18T01:35:23.681Z</time>
</trkpt>
<trkpt lat="55.731000" lon="8.220416">
<ele>6.344329</ele>
<time>2026-06-18T01:35:25.712Z</time>
</trkpt>
<trkpt lat="55.730876" lon="8.221006">
<ele>6.361798</ele>
<time>2026-06-18T01:35:33.890Z</time>
</trkpt>
<trkpt lat="55.730779" lon="8.221452">
<ele>6.476021</ele>
<time>2026-06-18T01:35:40.497Z</time>
</trkpt>
<trkpt lat="55.731030" lon="8.221515">
<ele>6.728484</ele>
<time>2026-06-18T01:35:46.852Z</time>
</trkpt>
<trkpt lat="55.731475" lon="8.221625">
<ele>7.175945</ele>
<time>2026-06-18T01:35:58.374Z</time>
</trkpt>
<trkpt lat="55.731807" lon="8.221712">
<ele>7.510174</ele>
<time>2026-06-18T01:36:07.280Z</time>
</trkpt>
<trkpt lat="55.731921" lon="8.221741">
<ele>7.624869</ele>
<time>2026-06-18T01:36:10.378Z</time>
</trkpt>
<trkpt lat="55.732352" lon="8.221847">
<ele>8.058211</ele>
<time>2026-06-18T01:36:22.530Z</time>
</trkpt>
<trkpt lat="55.732827" lon="8.221964">
<ele>8.544946</ele>
<time>2026-06-18T01:36:35.884Z</time>
</trkpt>
<trkpt lat="55.733135" lon="8.222041">
<ele>8.862273</ele>
<time>2026-06-18T01:36:44.259Z</time>
</trkpt>
<trkpt lat="55.733437" lon="8.222117">
<ele>9.173458</ele>
<time>2026-06-18T01:36:52.296Z</time>
</trkpt>
<trkpt lat="55.733921" lon="8.222239">
<ele>9.672195</ele>
<time>2026-06-18T01:37:04.948Z</time>
</trkpt>
<trkpt lat="55.733945" lon="8.222244">
<ele>9.696848</ele>
<time>2026-06-18T01:37:05.562Z</time>
</trkpt>
<trkpt lat="55.734231" lon="8.222307">
<ele>9.990868</ele>
<time>2026-06-18T01:37:12.913Z</time>
</trkpt>
<trkpt lat="55.734591" lon="8.222385">
<ele>10.015060</ele>
<time>2026-06-18T01:37:21.796Z</time>
</trkpt>
<trkpt lat="55.734985" lon="8.222465">
<ele>10.036037</ele>
<time>2026-06-18T01:37:30.993Z</time>
</trkpt>
<trkpt lat="55.735016" lon="8.222471">
<ele>10.037687</ele>
<time>2026-06-18T01:37:31.692Z</time>
</trkpt>
<trkpt lat="55.735428" lon="8.222553">
<ele>10.059617</ele>
<time>2026-06-18T01:37:40.668Z</time>
</trkpt>
<trkpt lat="55.736106" lon="8.222679">
<ele>10.096071</ele>
<time>2026-06-18T01:37:54.840Z</time>
</trkpt>
<trkpt lat="55.736291" lon="8.222712">
<ele>10.106788</ele>
<time>2026-06-18T01:37:58.743Z</time>
</trkpt>
<trkpt lat="55.736587" lon="8.222760">
<ele>10.123920</ele>
<time>2026-06-18T01:38:05.143Z</time>
</trkpt>
<trkpt lat="55.737194" lon="8.222874">
<ele>10.159102</ele>
<time>2026-06-18T01:38:19.041Z</time>
</trkpt>
<trkpt lat="55.737532" lon="8.222994">
<ele>10.178970</ele>
<time>2026-06-18T01:38:27.103Z</time>
</trkpt>
<trkpt lat="55.737978" lon="8.223261">
<ele>10.246825</ele>
<time>2026-06-18T01:38:38.345Z</time>
</trkpt>
<trkpt lat="55.738152" lon="8.223498">
<ele>10.305706</ele>
<time>2026-06-18T01:38:43.398Z</time>
</trkpt>
<trkpt lat="55.738202" lon="8.223610">
<ele>10.327316</ele>
<time>2026-06-18T01:38:45.272Z</time>
</trkpt>
<trkpt lat="55.738340" lon="8.223599">
<ele>10.364411</ele>
<time>2026-06-18T01:38:48.751Z</time>
</trkpt>
<trkpt lat="55.738891" lon="8.223716">
<ele>10.513427</ele>
<time>2026-06-18T01:39:02.554Z</time>
</trkpt>
<trkpt lat="55.739140" lon="8.223700">
<ele>10.580336</ele>
<time>2026-06-18T01:39:08.837Z</time>
</trkpt>
<trkpt lat="55.739874" lon="8.223424">
<ele>10.980649</ele>
<time>2026-06-18T01:39:29.022Z</time>
</trkpt>
<trkpt lat="55.740172" lon="8.223294">
<ele>11.220833</ele>
<time>2026-06-18T01:39:37.849Z</time>
</trkpt>
<trkpt lat="55.740190" lon="8.223286">
<ele>11.235357</ele>
<time>2026-06-18T01:39:38.390Z</time>
</trkpt>
<trkpt lat="55.740969" lon="8.222938">
<ele>11.864090</ele>
<time>2026-06-18T01:40:01.562Z</time>
</trkpt>
<trkpt lat="55.741084" lon="8.222871">
<ele>11.958822</ele>
<time>2026-06-18T01:40:05.013Z</time>
</trkpt>
<trkpt lat="55.743189" lon="8.221772">
<ele>13.012185</ele>
<time>2026-06-18T01:41:02.690Z</time>
</trkpt>
<trkpt lat="55.746397" lon="8.220138">
<ele>14.736826</ele>
<time>2026-06-18T01:42:31.090Z</time>
</trkpt>
<trkpt lat="55.746659" lon="8.220059">
<ele>15.032130</ele>
<time>2026-06-18T01:42:39.237Z</time>
</trkpt>
<trkpt lat="55.746987" lon="8.219994">
<ele>15.418509</ele>
<time>2026-06-18T01:42:49.590Z</time>
</trkpt>
<trkpt lat="55.747775" lon="8.220068">
<ele>16.342328</ele>
<time>2026-06-18T01:43:14.421Z</time>
</trkpt>
<trkpt lat="55.748036" lon="8.219973">
<ele>16.654234</ele>
<time>2026-06-18T01:43:22.268Z</time>
</trkpt>
<trkpt lat="55.748182" lon="8.219952">
<ele>16.825719</ele>
<time>2026-06-18T01:43:26.329Z</time>
</trkpt>
<trkpt lat="55.748334" lon="8.220007">
<ele>16.821770</ele>
<time>2026-06-18T01:43:30.456Z</time>
</trkpt>
<trkpt lat="55.748447" lon="8.220104">
<ele>16.785835</ele>
<time>2026-06-18T01:43:33.628Z</time>
</trkpt>
<trkpt lat="55.748944" lon="8.220712">
<ele>16.613051</ele>
<time>2026-06-18T01:43:47.505Z</time>
</trkpt>
<trkpt lat="55.749214" lon="8.221120">
<ele>16.511559</ele>
<time>2026-06-18T01:43:55.296Z</time>
</trkpt>
<trkpt lat="55.749366" lon="8.221285">
<ele>16.460554</ele>
<time>2026-06-18T01:43:59.165Z</time>
</trkpt>
<trkpt lat="55.749569" lon="8.221367">
<ele>16.400943</ele>
<time>2026-06-18T01:44:03.728Z</time>
</trkpt>
<trkpt lat="55.751041" lon="8.220965">
<ele>16.262551</ele>
<time>2026-06-18T01:44:39.627Z</time>
</trkpt>
<trkpt lat="55.751550" lon="8.220894">
<ele>16.230571</ele>
<time>2026-06-18T01:44:53.397Z</time>
</trkpt>
<trkpt lat="55.752160" lon="8.220927">
<ele>15.768816</ele>
<time>2026-06-18T01:45:08.886Z</time>
</trkpt>
<trkpt lat="55.752224" lon="8.220903">
<ele>15.719294</ele>
<time>2026-06-18T01:45:10.451Z</time>
</trkpt>
<trkpt lat="55.752291" lon="8.220877">
<ele>15.667371</ele>
<time>2026-06-18T01:45:12.098Z</time>
</trkpt>
<trkpt lat="55.752653" lon="8.220723">
<ele>15.385550</ele>
<time>2026-06-18T01:45:20.487Z</time>
</trkpt>
<trkpt lat="55.753183" lon="8.220607">
<ele>14.981246</ele>
<time>2026-06-18T01:45:31.512Z</time>
</trkpt>
<trkpt lat="55.753632" lon="8.220688">
<ele>14.288444</ele>
<time>2026-06-18T01:45:40.342Z</time>
</trkpt>
<trkpt lat="55.754142" lon="8.220952">
<ele>13.270192</ele>
<time>2026-06-18T01:45:50.574Z</time>
</trkpt>
<trkpt lat="55.754988" lon="8.221554">
<ele>11.523312</ele>
<time>2026-06-18T01:46:08.755Z</time>
</trkpt>
<trkpt lat="55.755251" lon="8.221757">
<ele>11.255420</ele>
<time>2026-06-18T01:46:14.843Z</time>
</trkpt>
<trkpt lat="55.755864" lon="8.222239">
<ele>10.779888</ele>
<time>2026-06-18T01:46:29.793Z</time>
</trkpt>
<trkpt lat="55.756498" lon="8.222813">
<ele>10.275121</ele>
<time>2026-06-18T01:46:46.649Z</time>
</trkpt>
<trkpt lat="55.757145" lon="8.223460">
<ele>9.910269</ele>
<time>2026-06-18T01:47:03.993Z</time>
</trkpt>
<trkpt lat="55.758212" lon="8.224483">
<ele>9.401171</ele>
<time>2026-06-18T01:47:31.960Z</time>
</trkpt>
<trkpt lat="55.758932" lon="8.225225">
<ele>9.036775</ele>
<time>2026-06-18T01:47:51.108Z</time>
</trkpt>
<trkpt lat="55.759246" lon="8.225530">
<ele>8.879889</ele>
<time>2026-06-18T01:47:59.492Z</time>
</trkpt>
<trkpt lat="55.762027" lon="8.228062">
<ele>7.837570</ele>
<time>2026-06-18T01:49:12.952Z</time>
</trkpt>
<trkpt lat="55.762301" lon="8.228309">
<ele>7.754238</ele>
<time>2026-06-18T01:49:20.418Z</time>
</trkpt>
<trkpt lat="55.763061" lon="8.228971">
<ele>7.512021</ele>
<time>2026-06-18T01:49:40.671Z</time>
</trkpt>
<trkpt lat="55.764239" lon="8.230108">
<ele>6.772740</ele>
<time>2026-06-18T01:50:11.010Z</time>
</trkpt>
<trkpt lat="55.764899" lon="8.230735">
<ele>6.486334</ele>
<time>2026-06-18T01:50:27.985Z</time>
</trkpt>
<trkpt lat="55.764997" lon="8.230826">
<ele>6.467005</ele>
<time>2026-06-18T01:50:30.513Z</time>
</trkpt>
<trkpt lat="55.765077" lon="8.230901">
<ele>6.451193</ele>
<time>2026-06-18T01:50:32.608Z</time>
</trkpt>
<trkpt lat="55.765702" lon="8.231480">
<ele>6.327984</ele>
<time>2026-06-18T01:50:49.678Z</time>
</trkpt>
<trkpt lat="55.765868" lon="8.231631">
<ele>6.295385</ele>
<time>2026-06-18T01:50:54.615Z</time>
</trkpt>
<trkpt lat="55.766067" lon="8.231854">
<ele>6.254261</ele>
<time>2026-06-18T01:51:00.834Z</time>
</trkpt>
<trkpt lat="55.766226" lon="8.232033">
<ele>6.216348</ele>
<time>2026-06-18T01:51:05.628Z</time>
</trkpt>
<trkpt lat="55.766455" lon="8.232292">
<ele>6.142945</ele>
<time>2026-06-18T01:51:12.311Z</time>
</trkpt>
<trkpt lat="55.766662" lon="8.232532">
<ele>6.076109</ele>
<time>2026-06-18T01:51:18.203Z</time>
</trkpt>
<trkpt lat="55.766824" lon="8.232720">
<ele>6.023789</ele>
<time>2026-06-18T01:51:22.808Z</time>
</trkpt>
<trkpt lat="55.767207" lon="8.233156">
<ele>5.900793</ele>
<time>2026-06-18T01:51:33.578Z</time>
</trkpt>
<trkpt lat="55.767546" lon="8.233545">
<ele>5.791674</ele>
<time>2026-06-18T01:51:42.775Z</time>
</trkpt>
<trkpt lat="55.767561" lon="8.233562">
<ele>5.786863</ele>
<time>2026-06-18T01:51:43.182Z</time>
</trkpt>
<trkpt lat="55.767903" lon="8.233953">
<ele>5.682706</ele>
<time>2026-06-18T01:51:52.131Z</time>
</trkpt>
<trkpt lat="55.768558" lon="8.234704">
<ele>5.490140</ele>
<time>2026-06-18T01:52:10.500Z</time>
</trkpt>
<trkpt lat="55.768684" lon="8.234855">
<ele>5.452597</ele>
<time>2026-06-18T01:52:14.253Z</time>
</trkpt>
<trkpt lat="55.769009" lon="8.235239">
<ele>5.356185</ele>
<time>2026-06-18T01:52:23.879Z</time>
</trkpt>
<trkpt lat="55.769428" lon="8.235707">
<ele>5.199758</ele>
<time>2026-06-18T01:52:36.183Z</time>
</trkpt>
<trkpt lat="55.769860" lon="8.236227">
<ele>5.003927</ele>
<time>2026-06-18T01:52:49.249Z</time>
</trkpt>
<trkpt lat="55.770032" lon="8.236518">
<ele>4.914800</ele>
<time>2026-06-18T01:52:54.858Z</time>
</trkpt>
<trkpt lat="55.770198" lon="8.236882">
<ele>4.815858</ele>
<time>2026-06-18T01:53:00.680Z</time>
</trkpt>
<trkpt lat="55.770261" lon="8.237004">
<ele>4.780890</ele>
<time>2026-06-18T01:53:02.691Z</time>
</trkpt>
<trkpt lat="55.770324" lon="8.237047">
<ele>4.755559</ele>
<time>2026-06-18T01:53:04.192Z</time>
</trkpt>
<trkpt lat="55.770375" lon="8.237200">
<ele>4.718008</ele>
<time>2026-06-18T01:53:06.390Z</time>
</trkpt>
<trkpt lat="55.770712" lon="8.237861">
<ele>4.574416</ele>
<time>2026-06-18T01:53:17.579Z</time>
</trkpt>
<trkpt lat="55.770879" lon="8.237920">
<ele>4.540641</ele>
<time>2026-06-18T01:53:20.994Z</time>
</trkpt>
<trkpt lat="55.770924" lon="8.237979">
<ele>4.529550</ele>
<time>2026-06-18T01:53:22.095Z</time>
</trkpt>
<trkpt lat="55.771141" lon="8.237932">
<ele>4.486186</ele>
<time>2026-06-18T01:53:26.513Z</time>
</trkpt>
<trkpt lat="55.774421" lon="8.237838">
<ele>4.620016</ele>
<time>2026-06-18T01:54:41.463Z</time>
</trkpt>
<trkpt lat="55.774484" lon="8.237837">
<ele>4.632669</ele>
<time>2026-06-18T01:54:42.934Z</time>
</trkpt>
<trkpt lat="55.777596" lon="8.237818">
<ele>5.245938</ele>
<time>2026-06-18T01:55:54.642Z</time>
</trkpt>
<trkpt lat="55.777712" lon="8.237817">
<ele>5.251752</ele>
<time>2026-06-18T01:55:57.275Z</time>
</trkpt>
<trkpt lat="55.778435" lon="8.237816">
<ele>5.230191</ele>
<time>2026-06-18T01:56:13.518Z</time>
</trkpt>
<trkpt lat="55.779122" lon="8.237871">
<ele>5.209682</ele>
<time>2026-06-18T01:56:28.705Z</time>
</trkpt>
<trkpt lat="55.780343" lon="8.238143">
<ele>4.987435</ele>
<time>2026-06-18T01:56:54.962Z</time>
</trkpt>
<trkpt lat="55.780889" lon="8.238262">
<ele>4.859749</ele>
<time>2026-06-18T01:57:06.675Z</time>
</trkpt>
<trkpt lat="55.784240" lon="8.239107">
<ele>4.473554</ele>
<time>2026-06-18T01:58:20.239Z</time>
</trkpt>
<trkpt lat="55.785786" lon="8.239542">
<ele>4.657928</ele>
<time>2026-06-18T01:58:55.651Z</time>
</trkpt>
<trkpt lat="55.786391" lon="8.239719">
<ele>4.788094</ele>
<time>2026-06-18T01:59:09.790Z</time>
</trkpt>
<trkpt lat="55.787293" lon="8.240075">
<ele>5.153559</ele>
<time>2026-06-18T01:59:32.573Z</time>
</trkpt>
<trkpt lat="55.787882" lon="8.240293">
<ele>5.415391</ele>
<time>2026-06-18T01:59:47.239Z</time>
</trkpt>
<trkpt lat="55.787918" lon="8.240306">
<ele>5.431378</ele>
<time>2026-06-18T01:59:48.111Z</time>
</trkpt>
<trkpt lat="55.788177" lon="8.240324">
<ele>5.544185</ele>
<time>2026-06-18T01:59:54.100Z</time>
</trkpt>
<trkpt lat="55.788598" lon="8.240089">
<ele>5.667807</ele>
<time>2026-06-18T02:00:03.985Z</time>
</trkpt>
<trkpt lat="55.788740" lon="8.240050">
<ele>5.697539</ele>
<time>2026-06-18T02:00:07.318Z</time>
</trkpt>
<trkpt lat="55.788765" lon="8.239951">
<ele>5.710166</ele>
<time>2026-06-18T02:00:08.733Z</time>
</trkpt>
<trkpt lat="55.788809" lon="8.239887">
<ele>5.721928</ele>
<time>2026-06-18T02:00:10.107Z</time>
</trkpt>
<trkpt lat="55.789383" lon="8.239572">
<ele>5.846233</ele>
<time>2026-06-18T02:00:26.000Z</time>
</trkpt>
<trkpt lat="55.789499" lon="8.239577">
<ele>5.870245</ele>
<time>2026-06-18T02:00:28.962Z</time>
</trkpt>
<trkpt lat="55.789688" lon="8.239236">
<ele>5.925955</ele>
<time>2026-06-18T02:00:35.754Z</time>
</trkpt>
<trkpt lat="55.789711" lon="8.238648">
<ele>5.947750</ele>
<time>2026-06-18T02:00:43.880Z</time>
</trkpt>
<trkpt lat="55.789743" lon="8.238535">
<ele>5.920842</ele>
<time>2026-06-18T02:00:45.609Z</time>
</trkpt>
<trkpt lat="55.789891" lon="8.238251">
<ele>5.838489</ele>
<time>2026-06-18T02:00:50.878Z</time>
</trkpt>
<trkpt lat="55.790122" lon="8.237931">
<ele>5.727735</ele>
<time>2026-06-18T02:00:58.001Z</time>
</trkpt>
<trkpt lat="55.790562" lon="8.237489">
<ele>5.536589</ele>
<time>2026-06-18T02:01:09.447Z</time>
</trkpt>
<trkpt lat="55.790833" lon="8.237268">
<ele>5.423819</ele>
<time>2026-06-18T02:01:15.925Z</time>
</trkpt>
<trkpt lat="55.791045" lon="8.237164">
<ele>5.340634</ele>
<time>2026-06-18T02:01:20.876Z</time>
</trkpt>
<trkpt lat="55.791108" lon="8.237164">
<ele>5.316803</ele>
<time>2026-06-18T02:01:23.116Z</time>
</trkpt>
<trkpt lat="55.791411" lon="8.236548">
<ele>5.336693</ele>
<time>2026-06-18T02:01:39.718Z</time>
</trkpt>
<trkpt lat="55.791495" lon="8.236477">
<ele>5.345565</ele>
<time>2026-06-18T02:01:43.189Z</time>
</trkpt>
<trkpt lat="55.791513" lon="8.236364">
<ele>5.351865</ele>
<time>2026-06-18T02:01:44.681Z</time>
</trkpt>
<trkpt lat="55.791675" lon="8.235971">
<ele>5.378002</ele>
<time>2026-06-18T02:01:51.068Z</time>
</trkpt>
<trkpt lat="55.791813" lon="8.235701">
<ele>5.397573</ele>
<time>2026-06-18T02:01:55.968Z</time>
</trkpt>
<trkpt lat="55.791844" lon="8.235635">
<ele>5.402186</ele>
<time>2026-06-18T02:01:57.133Z</time>
</trkpt>
<trkpt lat="55.792024" lon="8.235264">
<ele>5.428469</ele>
<time>2026-06-18T02:02:03.761Z</time>
</trkpt>
<trkpt lat="55.792175" lon="8.234955">
<ele>5.450428</ele>
<time>2026-06-18T02:02:09.195Z</time>
</trkpt>
<trkpt lat="55.792196" lon="8.234912">
<ele>5.453483</ele>
<time>2026-06-18T02:02:09.957Z</time>
</trkpt>
<trkpt lat="55.792394" lon="8.234504">
<ele>5.462368</ele>
<time>2026-06-18T02:02:16.998Z</time>
</trkpt>
<trkpt lat="55.792589" lon="8.234021">
<ele>5.445773</ele>
<time>2026-06-18T02:02:24.600Z</time>
</trkpt>
<trkpt lat="55.792892" lon="8.232914">
<ele>5.411413</ele>
<time>2026-06-18T02:02:39.841Z</time>
</trkpt>
<trkpt lat="55.793029" lon="8.232163">
<ele>5.389380</ele>
<time>2026-06-18T02:02:49.361Z</time>
</trkpt>
<trkpt lat="55.793171" lon="8.231308">
<ele>5.229516</ele>
<time>2026-06-18T02:02:59.888Z</time>
</trkpt>
<trkpt lat="55.793364" lon="8.230084">
<ele>4.883818</ele>
<time>2026-06-18T02:03:14.459Z</time>
</trkpt>
<trkpt lat="55.793536" lon="8.228912">
<ele>4.554425</ele>
<time>2026-06-18T02:03:28.487Z</time>
</trkpt>
<trkpt lat="55.793582" lon="8.228557">
<ele>4.489843</ele>
<time>2026-06-18T02:03:32.633Z</time>
</trkpt>
<trkpt lat="55.793626" lon="8.228571">
<ele>4.481894</ele>
<time>2026-06-18T02:03:33.557Z</time>
</trkpt>
<trkpt lat="55.793922" lon="8.228658">
<ele>4.428542</ele>
<time>2026-06-18T02:03:39.655Z</time>
</trkpt>
<trkpt lat="55.793977" lon="8.228666">
<ele>4.418729</ele>
<time>2026-06-18T02:03:40.811Z</time>
</trkpt>
<trkpt lat="55.794685" lon="8.228888">
<ele>4.290883</ele>
<time>2026-06-18T02:03:56.238Z</time>
</trkpt>
<trkpt lat="55.794749" lon="8.228746">
<ele>4.272688</ele>
<time>2026-06-18T02:03:58.576Z</time>
</trkpt>
<trkpt lat="55.794970" lon="8.227166">
<ele>4.340390</ele>
<time>2026-06-18T02:04:19.491Z</time>
</trkpt>
<trkpt lat="55.795045" lon="8.227035">
<ele>4.375469</ele>
<time>2026-06-18T02:04:21.998Z</time>
</trkpt>
<trkpt lat="55.796546" lon="8.225530">
<ele>4.834726</ele>
<time>2026-06-18T02:05:03.108Z</time>
</trkpt>
<trkpt lat="55.797364" lon="8.224690">
<ele>4.922119</ele>
<time>2026-06-18T02:05:24.813Z</time>
</trkpt>
<trkpt lat="55.799102" lon="8.222924">
<ele>4.665794</ele>
<time>2026-06-18T02:06:07.004Z</time>
</trkpt>
<trkpt lat="55.799772" lon="8.222276">
<ele>4.763772</ele>
<time>2026-06-18T02:06:24.793Z</time>
</trkpt>
<trkpt lat="55.800437" lon="8.221720">
<ele>4.923567</ele>
<time>2026-06-18T02:06:42.641Z</time>
</trkpt>
<trkpt lat="55.800991" lon="8.220984">
<ele>4.933601</ele>
<time>2026-06-18T02:06:58.186Z</time>
</trkpt>
<trkpt lat="55.801205" lon="8.220762">
<ele>4.828645</ele>
<time>2026-06-18T02:07:03.442Z</time>
</trkpt>
<trkpt lat="55.801530" lon="8.220499">
<ele>4.677373</ele>
<time>2026-06-18T02:07:10.814Z</time>
</trkpt>
<trkpt lat="55.801778" lon="8.220165">
<ele>4.545590</ele>
<time>2026-06-18T02:07:17.096Z</time>
</trkpt>
<trkpt lat="55.801919" lon="8.219906">
<ele>4.459724</ele>
<time>2026-06-18T02:07:21.136Z</time>
</trkpt>
<trkpt lat="55.802360" lon="8.219476">
<ele>4.239540</ele>
<time>2026-06-18T02:07:31.142Z</time>
</trkpt>
<trkpt lat="55.803121" lon="8.218867">
<ele>3.743114</ele>
<time>2026-06-18T02:07:48.278Z</time>
</trkpt>
<trkpt lat="55.803355" lon="8.218440">
<ele>3.543702</ele>
<time>2026-06-18T02:07:55.086Z</time>
</trkpt>
<trkpt lat="55.804062" lon="8.217712">
<ele>3.102505</ele>
<time>2026-06-18T02:08:11.593Z</time>
</trkpt>
<trkpt lat="55.804764" lon="8.217021">
<ele>2.781792</ele>
<time>2026-06-18T02:08:27.972Z</time>
</trkpt>
<trkpt lat="55.805642" lon="8.216016">
<ele>2.515215</ele>
<time>2026-06-18T02:08:50.286Z</time>
</trkpt>
<trkpt lat="55.806189" lon="8.215198">
<ele>2.618460</ele>
<time>2026-06-18T02:09:06.428Z</time>
</trkpt>
<trkpt lat="55.806350" lon="8.214836">
<ele>2.655948</ele>
<time>2026-06-18T02:09:12.439Z</time>
</trkpt>
<trkpt lat="55.806904" lon="8.213836">
<ele>2.831727</ele>
<time>2026-06-18T02:09:31.310Z</time>
</trkpt>
<trkpt lat="55.807169" lon="8.213425">
<ele>2.972417</ele>
<time>2026-06-18T02:09:39.950Z</time>
</trkpt>
<trkpt lat="55.807220" lon="8.213268">
<ele>3.013203</ele>
<time>2026-06-18T02:09:42.453Z</time>
</trkpt>
<trkpt lat="55.807298" lon="8.213264">
<ele>3.044433</ele>
<time>2026-06-18T02:09:44.338Z</time>
</trkpt>
<trkpt lat="55.807333" lon="8.213084">
<ele>3.087272</ele>
<time>2026-06-18T02:09:46.970Z</time>
</trkpt>
<trkpt lat="55.807746" lon="8.212355">
<ele>3.320090</ele>
<time>2026-06-18T02:10:00.855Z</time>
</trkpt>
<trkpt lat="55.807774" lon="8.212142">
<ele>3.369289</ele>
<time>2026-06-18T02:10:03.725Z</time>
</trkpt>
<trkpt lat="55.807804" lon="8.212061">
<ele>3.391108</ele>
<time>2026-06-18T02:10:05.011Z</time>
</trkpt>
<trkpt lat="55.808880" lon="8.210026">
<ele>3.845638</ele>
<time>2026-06-18T02:10:40.328Z</time>
</trkpt>
<trkpt lat="55.810292" lon="8.207356">
<ele>5.410386</ele>
<time>2026-06-18T02:11:32.605Z</time>
</trkpt>
<trkpt lat="55.810223" lon="8.207042">
<ele>5.575220</ele>
<time>2026-06-18T02:11:38.000Z</time>
</trkpt>
<trkpt lat="55.810516" lon="8.206450">
<ele>5.959696</ele>
<time>2026-06-18T02:11:50.667Z</time>
</trkpt>
<trkpt lat="55.810938" lon="8.205633">
<ele>6.500530</ele>
<time>2026-06-18T02:12:07.754Z</time>
</trkpt>
<trkpt lat="55.811250" lon="8.205334">
<ele>6.807871</ele>
<time>2026-06-18T02:12:16.649Z</time>
</trkpt>
<trkpt lat="55.811333" lon="8.205214">
<ele>6.900619</ele>
<time>2026-06-18T02:12:19.174Z</time>
</trkpt>
<trkpt lat="55.811938" lon="8.204019">
<ele>6.671197</ele>
<time>2026-06-18T02:12:38.319Z</time>
</trkpt>
<trkpt lat="55.812249" lon="8.203236">
<ele>6.354742</ele>
<time>2026-06-18T02:12:48.855Z</time>
</trkpt>
<trkpt lat="55.812447" lon="8.202590">
<ele>6.111889</ele>
<time>2026-06-18T02:12:56.917Z</time>
</trkpt>
<trkpt lat="55.812821" lon="8.201092">
<ele>5.750938</ele>
<time>2026-06-18T02:13:14.923Z</time>
</trkpt>
<trkpt lat="55.813105" lon="8.199903">
<ele>5.494001</ele>
<time>2026-06-18T02:13:30.273Z</time>
</trkpt>
<trkpt lat="55.813126" lon="8.199786">
<ele>5.469575</ele>
<time>2026-06-18T02:13:32.055Z</time>
</trkpt>
<trkpt lat="55.813333" lon="8.198895">
<ele>5.672061</ele>
<time>2026-06-18T02:13:46.396Z</time>
</trkpt>
<trkpt lat="55.813584" lon="8.197799">
<ele>6.284046</ele>
<time>2026-06-18T02:14:06.178Z</time>
</trkpt>
<trkpt lat="55.813612" lon="8.197759">
<ele>6.317087</ele>
<time>2026-06-18T02:14:07.246Z</time>
</trkpt>
<trkpt lat="55.813609" lon="8.197599">
<ele>6.399866</ele>
<time>2026-06-18T02:14:09.987Z</time>
</trkpt>
<trkpt lat="55.813681" lon="8.197416">
<ele>6.515382</ele>
<time>2026-06-18T02:14:13.756Z</time>
</trkpt>
<trkpt lat="55.813878" lon="8.196629">
<ele>6.960877</ele>
<time>2026-06-18T02:14:28.146Z</time>
</trkpt>
<trkpt lat="55.813944" lon="8.196331">
<ele>7.023787</ele>
<time>2026-06-18T02:14:33.308Z</time>
</trkpt>
<trkpt lat="55.814011" lon="8.196027">
<ele>6.986062</ele>
<time>2026-06-18T02:14:38.453Z</time>
</trkpt>
<trkpt lat="55.814806" lon="8.192621">
<ele>5.492029</ele>
<time>2026-06-18T02:15:26.351Z</time>
</trkpt>
<trkpt lat="55.814852" lon="8.192423">
<ele>5.232831</ele>
<time>2026-06-18T02:15:28.571Z</time>
</trkpt>
<trkpt lat="55.814876" lon="8.192318">
<ele>5.095699</ele>
<time>2026-06-18T02:15:29.718Z</time>
</trkpt>
<trkpt lat="55.814937" lon="8.192029">
<ele>4.722227</ele>
<time>2026-06-18T02:15:34.777Z</time>
</trkpt>
<trkpt lat="55.814959" lon="8.191907">
<ele>4.567223</ele>
<time>2026-06-18T02:15:35.937Z</time>
</trkpt>
<trkpt lat="55.815031" lon="8.191515">
<ele>4.068309</ele>
<time>2026-06-18T02:15:40.149Z</time>
</trkpt>
<trkpt lat="55.815173" lon="8.190768">
<ele>3.114316</ele>
<time>2026-06-18T02:15:48.218Z</time>
</trkpt>
<trkpt lat="55.815191" lon="8.190679">
<ele>2.999887</ele>
<time>2026-06-18T02:15:49.191Z</time>
</trkpt>
<trkpt lat="55.815251" lon="8.190354">
<ele>2.693407</ele>
<time>2026-06-18T02:15:54.840Z</time>
</trkpt>
<trkpt lat="55.815939" lon="8.186677">
<ele>0.833925</ele>
<time>2026-06-18T02:16:43.980Z</time>
</trkpt>
<trkpt lat="55.816284" lon="8.185429">
<ele>0.775433</ele>
<time>2026-06-18T02:17:03.720Z</time>
</trkpt>
<trkpt lat="55.816502" lon="8.184834">
<ele>0.745561</ele>
<time>2026-06-18T02:17:13.868Z</time>
</trkpt>
<trkpt lat="55.816787" lon="8.184168">
<ele>0.831715</ele>
<time>2026-06-18T02:17:25.898Z</time>
</trkpt>
<trkpt lat="55.817259" lon="8.183278">
<ele>1.032692</ele>
<time>2026-06-18T02:17:43.695Z</time>
</trkpt>
<trkpt lat="55.817622" lon="8.182723">
<ele>1.172558</ele>
<time>2026-06-18T02:17:56.056Z</time>
</trkpt>
<trkpt lat="55.818578" lon="8.181484">
<ele>1.474756</ele>
<time>2026-06-18T02:18:26.724Z</time>
</trkpt>
<trkpt lat="55.818835" lon="8.181207">
<ele>1.547748</ele>
<time>2026-06-18T02:18:34.526Z</time>
</trkpt>
<trkpt lat="55.819371" lon="8.180495">
<ele>1.693670</ele>
<time>2026-06-18T02:18:59.924Z</time>
</trkpt>
<trkpt lat="55.821215" lon="8.178122">
<ele>1.396998</ele>
<time>2026-06-18T02:20:23.194Z</time>
</trkpt>
<trkpt lat="55.821629" lon="8.177484">
<ele>1.234520</ele>
<time>2026-06-18T02:20:42.541Z</time>
</trkpt>
<trkpt lat="55.821954" lon="8.176860">
<ele>1.092683</ele>
<time>2026-06-18T02:20:59.432Z</time>
</trkpt>
<trkpt lat="55.822406" lon="8.175818">
<ele>1.132524</ele>
<time>2026-06-18T02:21:26.440Z</time>
</trkpt>
<trkpt lat="55.822772" lon="8.174652">
<ele>1.303243</ele>
<time>2026-06-18T02:21:55.234Z</time>
</trkpt>
<trkpt lat="55.822944" lon="8.174029">
<ele>1.391968</ele>
<time>2026-06-18T02:22:10.951Z</time>
</trkpt>
<trkpt lat="55.822973" lon="8.173948">
<ele>1.404244</ele>
<time>2026-06-18T02:22:13.167Z</time>
</trkpt>
<trkpt lat="55.823302" lon="8.173044">
<ele>1.372143</ele>
<time>2026-06-18T02:22:36.265Z</time>
</trkpt>
<trkpt lat="55.823442" lon="8.172789">
<ele>1.349055</ele>
<time>2026-06-18T02:22:43.461Z</time>
</trkpt>
<trkpt lat="55.823783" lon="8.172747">
<ele>1.309654</ele>
<time>2026-06-18T02:22:55.711Z</time>
</trkpt>
<trkpt lat="55.823893" lon="8.172905">
<ele>1.293361</ele>
<time>2026-06-18T02:23:00.749Z</time>
</trkpt>
<trkpt lat="55.824039" lon="8.173259">
<ele>1.264925</ele>
<time>2026-06-18T02:23:09.510Z</time>
</trkpt>
<trkpt lat="55.824227" lon="8.173441">
<ele>1.240257</ele>
<time>2026-06-18T02:23:14.450Z</time>
</trkpt>
<trkpt lat="55.824495" lon="8.173443">
<ele>1.275549</ele>
<time>2026-06-18T02:23:20.621Z</time>
</trkpt>
<trkpt lat="55.825152" lon="8.173540">
<ele>1.600706</ele>
<time>2026-06-18T02:23:36.712Z</time>
</trkpt>
<trkpt lat="55.825329" lon="8.173648">
<ele>1.692991</ele>
<time>2026-06-18T02:23:42.046Z</time>
</trkpt>
<trkpt lat="55.825611" lon="8.173586">
<ele>1.833136</ele>
<time>2026-06-18T02:23:50.371Z</time>
</trkpt>
<trkpt lat="55.825700" lon="8.173604">
<ele>1.877315</ele>
<time>2026-06-18T02:23:52.987Z</time>
</trkpt>
<trkpt lat="55.825847" lon="8.173734">
<ele>1.958270</ele>
<time>2026-06-18T02:23:57.754Z</time>
</trkpt>
<trkpt lat="55.825969" lon="8.173706">
<ele>2.018941</ele>
<time>2026-06-18T02:24:01.326Z</time>
</trkpt>
<trkpt lat="55.826318" lon="8.173264">
<ele>2.206950</ele>
<time>2026-06-18T02:24:12.520Z</time>
</trkpt>
<trkpt lat="55.826360" lon="8.173051">
<ele>2.257496</ele>
<time>2026-06-18T02:24:15.759Z</time>
</trkpt>
<trkpt lat="55.826476" lon="8.173117">
<ele>2.306041</ele>
<time>2026-06-18T02:24:20.602Z</time>
</trkpt>
<trkpt lat="55.826450" lon="8.173232">
<ele>2.333798</ele>
<time>2026-06-18T02:24:23.380Z</time>
</trkpt>
<trkpt lat="55.826453" lon="8.173378">
<ele>2.366511</ele>
<time>2026-06-18T02:24:26.629Z</time>
</trkpt>
<trkpt lat="55.826648" lon="8.173201">
<ele>2.453763</ele>
<time>2026-06-18T02:24:31.908Z</time>
</trkpt>
<trkpt lat="55.826991" lon="8.172966">
<ele>2.600268</ele>
<time>2026-06-18T02:24:40.562Z</time>
</trkpt>
<trkpt lat="55.827168" lon="8.172882">
<ele>2.673288</ele>
<time>2026-06-18T02:24:44.729Z</time>
</trkpt>
<trkpt lat="55.827346" lon="8.172797">
<ele>2.746752</ele>
<time>2026-06-18T02:24:48.790Z</time>
</trkpt>
<trkpt lat="55.827699" lon="8.172699">
<ele>2.782272</ele>
<time>2026-06-18T02:24:56.520Z</time>
</trkpt>
<trkpt lat="55.827669" lon="8.172482">
<ele>2.747614</ele>
<time>2026-06-18T02:25:01.027Z</time>
</trkpt>
<trkpt lat="55.827631" lon="8.172424">
<ele>2.733794</ele>
<time>2026-06-18T02:25:02.824Z</time>
</trkpt>
<trkpt lat="55.827707" lon="8.172225">
<ele>2.696475</ele>
<time>2026-06-18T02:25:07.684Z</time>
</trkpt>
<trkpt lat="55.827763" lon="8.172353">
<ele>2.671313</ele>
<time>2026-06-18T02:25:09.603Z</time>
</trkpt>
<trkpt lat="55.827801" lon="8.172377">
<ele>2.660180</ele>
<time>2026-06-18T02:25:10.465Z</time>
</trkpt>
<trkpt lat="55.828181" lon="8.172421">
<ele>2.555039</ele>
<time>2026-06-18T02:25:18.499Z</time>
</trkpt>
<trkpt lat="55.828397" lon="8.172401">
<ele>2.495320</ele>
<time>2026-06-18T02:25:23.099Z</time>
</trkpt>
<trkpt lat="55.829211" lon="8.172476">
<ele>2.309100</ele>
<time>2026-06-18T02:25:40.120Z</time>
</trkpt>
<trkpt lat="55.829569" lon="8.172458">
<ele>2.275151</ele>
<time>2026-06-18T02:25:47.704Z</time>
</trkpt>
<trkpt lat="55.829840" lon="8.172503">
<ele>2.249351</ele>
<time>2026-06-18T02:25:53.589Z</time>
</trkpt>
<trkpt lat="55.831426" lon="8.172539">
<ele>2.164917</ele>
<time>2026-06-18T02:26:29.140Z</time>
</trkpt>
<trkpt lat="55.831626" lon="8.172510">
<ele>2.166826</ele>
<time>2026-06-18T02:26:33.681Z</time>
</trkpt>
<trkpt lat="55.832201" lon="8.172573">
<ele>2.172307</ele>
<time>2026-06-18T02:26:46.641Z</time>
</trkpt>
<trkpt lat="55.833031" lon="8.172569">
<ele>2.098168</ele>
<time>2026-06-18T02:27:04.868Z</time>
</trkpt>
<trkpt lat="55.833283" lon="8.172484">
<ele>2.052797</ele>
<time>2026-06-18T02:27:10.333Z</time>
</trkpt>
<trkpt lat="55.833484" lon="8.172554">
<ele>2.016567</ele>
<time>2026-06-18T02:27:14.672Z</time>
</trkpt>
<trkpt lat="55.833681" lon="8.172464">
<ele>1.980589</ele>
<time>2026-06-18T02:27:18.995Z</time>
</trkpt>
<trkpt lat="55.833922" lon="8.172552">
<ele>1.937070</ele>
<time>2026-06-18T02:27:24.260Z</time>
</trkpt>
<trkpt lat="55.834477" lon="8.172657">
<ele>1.842171</ele>
<time>2026-06-18T02:27:36.339Z</time>
</trkpt>
<trkpt lat="55.834885" lon="8.172660">
<ele>1.784176</ele>
<time>2026-06-18T02:27:45.255Z</time>
</trkpt>
<trkpt lat="55.835141" lon="8.172514">
<ele>1.745966</ele>
<time>2026-06-18T02:27:51.173Z</time>
</trkpt>
<trkpt lat="55.835475" lon="8.172616">
<ele>1.697797</ele>
<time>2026-06-18T02:27:58.593Z</time>
</trkpt>
<trkpt lat="55.836164" lon="8.172536">
<ele>1.601984</ele>
<time>2026-06-18T02:28:13.445Z</time>
</trkpt>
<trkpt lat="55.836710" lon="8.172562">
<ele>1.596090</ele>
<time>2026-06-18T02:28:25.258Z</time>
</trkpt>
<trkpt lat="55.836838" lon="8.172609">
<ele>1.594680</ele>
<time>2026-06-18T02:28:28.079Z</time>
</trkpt>
<trkpt lat="55.837201" lon="8.172644">
<ele>1.590757</ele>
<time>2026-06-18T02:28:36.072Z</time>
</trkpt>
<trkpt lat="55.837285" lon="8.172193">
<ele>1.587878</ele>
<time>2026-06-18T02:28:42.664Z</time>
</trkpt>
<trkpt lat="55.837395" lon="8.171969">
<ele>1.586075</ele>
<time>2026-06-18T02:28:46.826Z</time>
</trkpt>
<trkpt lat="55.837511" lon="8.171943">
<ele>1.584813</ele>
<time>2026-06-18T02:28:49.786Z</time>
</trkpt>
<trkpt lat="55.837742" lon="8.172099">
<ele>1.600045</ele>
<time>2026-06-18T02:28:56.100Z</time>
</trkpt>
<trkpt lat="55.837998" lon="8.172073">
<ele>1.677203</ele>
<time>2026-06-18T02:29:02.689Z</time>
</trkpt>
<trkpt lat="55.838107" lon="8.171966">
<ele>1.714655</ele>
<time>2026-06-18T02:29:05.892Z</time>
</trkpt>
<trkpt lat="55.838143" lon="8.171858">
<ele>1.735877</ele>
<time>2026-06-18T02:29:07.692Z</time>
</trkpt>
<trkpt lat="55.838196" lon="8.171503">
<ele>1.797946</ele>
<time>2026-06-18T02:29:12.937Z</time>
</trkpt>
<trkpt lat="55.838266" lon="8.171365">
<ele>1.829369</ele>
<time>2026-06-18T02:29:15.584Z</time>
</trkpt>
<trkpt lat="55.838365" lon="8.171354">
<ele>1.859217</ele>
<time>2026-06-18T02:29:18.108Z</time>
</trkpt>
<trkpt lat="55.838552" lon="8.171497">
<ele>1.920456</ele>
<time>2026-06-18T02:29:23.348Z</time>
</trkpt>
<trkpt lat="55.838798" lon="8.171478">
<ele>1.994549</ele>
<time>2026-06-18T02:29:29.734Z</time>
</trkpt>
<trkpt lat="55.838876" lon="8.171416">
<ele>2.020252</ele>
<time>2026-06-18T02:29:31.973Z</time>
</trkpt>
<trkpt lat="55.839168" lon="8.170779">
<ele>2.207260</ele>
<time>2026-06-18T02:29:44.257Z</time>
</trkpt>
<trkpt lat="55.839394" lon="8.170453">
<ele>2.414286</ele>
<time>2026-06-18T02:29:52.227Z</time>
</trkpt>
<trkpt lat="55.839669" lon="8.170275">
<ele>2.622569</ele>
<time>2026-06-18T02:30:00.436Z</time>
</trkpt>
<trkpt lat="55.840118" lon="8.169907">
<ele>2.974404</ele>
<time>2026-06-18T02:30:14.495Z</time>
</trkpt>
<trkpt lat="55.840196" lon="8.169765">
<ele>3.053803</ele>
<time>2026-06-18T02:30:17.654Z</time>
</trkpt>
<trkpt lat="55.840112" lon="8.169095">
<ele>3.328195</ele>
<time>2026-06-18T02:30:33.181Z</time>
</trkpt>
<trkpt lat="55.840065" lon="8.168820">
<ele>3.418237</ele>
<time>2026-06-18T02:30:37.590Z</time>
</trkpt>
<trkpt lat="55.840056" lon="8.168585">
<ele>3.452012</ele>
<time>2026-06-18T02:30:41.147Z</time>
</trkpt>
<trkpt lat="55.840055" lon="8.168532">
<ele>3.459616</ele>
<time>2026-06-18T02:30:41.941Z</time>
</trkpt>
<trkpt lat="55.840063" lon="8.168348">
<ele>3.486078</ele>
<time>2026-06-18T02:30:44.682Z</time>
</trkpt>
<trkpt lat="55.840134" lon="8.168171">
<ele>3.517269</ele>
<time>2026-06-18T02:30:47.911Z</time>
</trkpt>
<trkpt lat="55.840201" lon="8.168110">
<ele>3.536484</ele>
<time>2026-06-18T02:30:49.871Z</time>
</trkpt>
<trkpt lat="55.840778" lon="8.167861">
<ele>3.688093</ele>
<time>2026-06-18T02:31:05.163Z</time>
</trkpt>
<trkpt lat="55.841087" lon="8.167793">
<ele>3.767600</ele>
<time>2026-06-18T02:31:12.906Z</time>
</trkpt>
<trkpt lat="55.841307" lon="8.167741">
<ele>3.824273</ele>
<time>2026-06-18T02:31:18.392Z</time>
</trkpt>
<trkpt lat="55.841638" lon="8.167357">
<ele>3.768800</ele>
<time>2026-06-18T02:31:28.058Z</time>
</trkpt>
<trkpt lat="55.842050" lon="8.167369">
<ele>3.606551</ele>
<time>2026-06-18T02:31:37.962Z</time>
</trkpt>
<trkpt lat="55.842243" lon="8.167112">
<ele>3.511663</ele>
<time>2026-06-18T02:31:43.663Z</time>
</trkpt>
<trkpt lat="55.842426" lon="8.167014">
<ele>3.436419</ele>
<time>2026-06-18T02:31:48.115Z</time>
</trkpt>
<trkpt lat="55.842507" lon="8.166996">
<ele>3.404277</ele>
<time>2026-06-18T02:31:49.998Z</time>
</trkpt>
<trkpt lat="55.842729" lon="8.167062">
<ele>3.315654</ele>
<time>2026-06-18T02:31:55.121Z</time>
</trkpt>
<trkpt lat="55.843611" lon="8.167019">
<ele>2.826284</ele>
<time>2026-06-18T02:32:14.576Z</time>
</trkpt>
<trkpt lat="55.844561" lon="8.166766">
<ele>2.161237</ele>
<time>2026-06-18T02:32:35.965Z</time>
</trkpt>
<trkpt lat="55.844623" lon="8.166794">
<ele>2.116953</ele>
<time>2026-06-18T02:32:37.407Z</time>
</trkpt>
<trkpt lat="55.844792" lon="8.167563">
<ele>1.881275</ele>
<time>2026-06-18T02:32:53.799Z</time>
</trkpt>
<trkpt lat="55.844962" lon="8.168561">
<ele>1.778861</ele>
<time>2026-06-18T02:33:15.089Z</time>
</trkpt>
<trkpt lat="55.845006" lon="8.169097">
<ele>1.725667</ele>
<time>2026-06-18T02:33:26.309Z</time>
</trkpt>
<trkpt lat="55.844995" lon="8.169323">
<ele>1.703391</ele>
<time>2026-06-18T02:33:30.986Z</time>
</trkpt>
<trkpt lat="55.845390" lon="8.169823">
<ele>1.618634</ele>
<time>2026-06-18T02:33:42.836Z</time>
</trkpt>
<trkpt lat="55.845658" lon="8.170010">
<ele>1.581318</ele>
<time>2026-06-18T02:33:49.929Z</time>
</trkpt>
<trkpt lat="55.845923" lon="8.170095">
<ele>1.556751</ele>
<time>2026-06-18T02:33:56.497Z</time>
</trkpt>
<trkpt lat="55.846002" lon="8.170056">
<ele>1.549272</ele>
<time>2026-06-18T02:33:58.518Z</time>
</trkpt>
<trkpt lat="55.846053" lon="8.170071">
<ele>1.544556</ele>
<time>2026-06-18T02:34:00.409Z</time>
</trkpt>
<trkpt lat="55.846765" lon="8.169872">
<ele>1.478800</ele>
<time>2026-06-18T02:34:26.728Z</time>
</trkpt>
<trkpt lat="55.846893" lon="8.169840">
<ele>1.467008</ele>
<time>2026-06-18T02:34:31.457Z</time>
</trkpt>
<trkpt lat="55.847248" lon="8.169776">
<ele>1.434453</ele>
<time>2026-06-18T02:34:44.627Z</time>
</trkpt>
<trkpt lat="55.847436" lon="8.169719">
<ele>1.450725</ele>
<time>2026-06-18T02:34:51.682Z</time>
</trkpt>
<trkpt lat="55.847701" lon="8.169639">
<ele>1.483674</ele>
<time>2026-06-18T02:35:01.557Z</time>
</trkpt>
<trkpt lat="55.848030" lon="8.169539">
<ele>1.524589</ele>
<time>2026-06-18T02:35:13.835Z</time>
</trkpt>
<trkpt lat="55.848504" lon="8.169433">
<ele>1.583152</ele>
<time>2026-06-18T02:35:31.957Z</time>
</trkpt>
<trkpt lat="55.848805" lon="8.169365">
<ele>1.620347</ele>
<time>2026-06-18T02:35:43.532Z</time>
</trkpt>
<trkpt lat="55.848866" lon="8.169351">
<ele>1.627887</ele>
<time>2026-06-18T02:35:45.858Z</time>
</trkpt>
<trkpt lat="55.848839" lon="8.169007">
<ele>1.651791</ele>
<time>2026-06-18T02:35:53.274Z</time>
</trkpt>
<trkpt lat="55.848807" lon="8.168636">
<ele>1.723406</ele>
<time>2026-06-18T02:36:01.298Z</time>
</trkpt>
<trkpt lat="55.848781" lon="8.168335">
<ele>1.781689</ele>
<time>2026-06-18T02:36:07.867Z</time>
</trkpt>
<trkpt lat="55.848752" lon="8.167999">
<ele>1.846749</ele>
<time>2026-06-18T02:36:15.289Z</time>
</trkpt>
<trkpt lat="55.848741" lon="8.167867">
<ele>1.872288</ele>
<time>2026-06-18T02:36:18.240Z</time>
</trkpt>
<trkpt lat="55.848722" lon="8.167649">
<ele>1.914509</ele>
<time>2026-06-18T02:36:23.079Z</time>
</trkpt>
<trkpt lat="55.848686" lon="8.167232">
<ele>1.995254</ele>
<time>2026-06-18T02:36:32.340Z</time>
</trkpt>
<trkpt lat="55.848676" lon="8.167113">
<ele>2.018282</ele>
<time>2026-06-18T02:36:34.943Z</time>
</trkpt>
<trkpt lat="55.848658" lon="8.166896">
<ele>2.060262</ele>
<time>2026-06-18T02:36:39.744Z</time>
</trkpt>
<trkpt lat="55.848630" lon="8.166577">
<ele>2.122055</ele>
<time>2026-06-18T02:36:46.750Z</time>
</trkpt>
<trkpt lat="55.848605" lon="8.166289">
<ele>2.177828</ele>
<time>2026-06-18T02:36:53.004Z</time>
</trkpt>
<trkpt lat="55.848597" lon="8.165966">
<ele>2.239705</ele>
<time>2026-06-18T02:36:59.860Z</time>
</trkpt>
<trkpt lat="55.848626" lon="8.165895">
<ele>2.256509</ele>
<time>2026-06-18T02:37:01.723Z</time>
</trkpt>
<trkpt lat="55.848872" lon="8.165810">
<ele>2.279876</ele>
<time>2026-06-18T02:37:11.152Z</time>
</trkpt>
<trkpt lat="55.849156" lon="8.165739">
<ele>2.298681</ele>
<time>2026-06-18T02:37:21.881Z</time>
</trkpt>
<trkpt lat="55.849202" lon="8.165727">
<ele>2.301730</ele>
<time>2026-06-18T02:37:23.640Z</time>
</trkpt>
<trkpt lat="55.849433" lon="8.165669">
<ele>2.317027</ele>
<time>2026-06-18T02:37:32.238Z</time>
</trkpt>
<trkpt lat="55.849567" lon="8.165606">
<ele>2.326115</ele>
<time>2026-06-18T02:37:37.377Z</time>
</trkpt>
<trkpt lat="55.849826" lon="8.165398">
<ele>2.344744</ele>
<time>2026-06-18T02:37:47.800Z</time>
</trkpt>
<trkpt lat="55.849926" lon="8.165230">
<ele>2.353758</ele>
<time>2026-06-18T02:37:51.198Z</time>
</trkpt>
<trkpt lat="55.850134" lon="8.165190">
<ele>2.367477</ele>
<time>2026-06-18T02:37:56.478Z</time>
</trkpt>
<trkpt lat="55.850366" lon="8.165146">
<ele>2.382776</ele>
<time>2026-06-18T02:38:02.342Z</time>
</trkpt>
<trkpt lat="55.851228" lon="8.164988">
<ele>2.414142</ele>
<time>2026-06-18T02:38:24.170Z</time>
</trkpt>
<trkpt lat="55.851668" lon="8.164914">
<ele>2.430079</ele>
<time>2026-06-18T02:38:35.098Z</time>
</trkpt>
<trkpt lat="55.852074" lon="8.164838">
<ele>2.444801</ele>
<time>2026-06-18T02:38:45.102Z</time>
</trkpt>
<trkpt lat="55.852270" lon="8.164914">
<ele>2.437651</ele>
<time>2026-06-18T02:38:50.003Z</time>
</trkpt>
<trkpt lat="55.852424" lon="8.165005">
<ele>2.423151</ele>
<time>2026-06-18T02:38:53.942Z</time>
</trkpt>
<trkpt lat="55.852634" lon="8.165148">
<ele>2.403059</ele>
<time>2026-06-18T02:38:59.430Z</time>
</trkpt>
<trkpt lat="55.852752" lon="8.165200">
<ele>2.392196</ele>
<time>2026-06-18T02:39:02.394Z</time>
</trkpt>
<trkpt lat="55.852847" lon="8.165178">
<ele>2.383635</ele>
<time>2026-06-18T02:39:04.753Z</time>
</trkpt>
<trkpt lat="55.853122" lon="8.164918">
<ele>2.355812</ele>
<time>2026-06-18T02:39:12.274Z</time>
</trkpt>
<trkpt lat="55.853525" lon="8.164715">
<ele>2.318385</ele>
<time>2026-06-18T02:39:22.499Z</time>
</trkpt>
<trkpt lat="55.854178" lon="8.164521">
<ele>2.249911</ele>
<time>2026-06-18T02:39:38.819Z</time>
</trkpt>
<trkpt lat="55.854433" lon="8.164440">
<ele>2.219048</ele>
<time>2026-06-18T02:39:45.029Z</time>
</trkpt>
<trkpt lat="55.854566" lon="8.164507">
<ele>2.202580</ele>
<time>2026-06-18T02:39:48.332Z</time>
</trkpt>
<trkpt lat="55.854922" lon="8.164842">
<ele>2.154609</ele>
<time>2026-06-18T02:39:58.015Z</time>
</trkpt>
<trkpt lat="55.855038" lon="8.164924">
<ele>2.139739</ele>
<time>2026-06-18T02:40:01.025Z</time>
</trkpt>
<trkpt lat="55.855095" lon="8.164925">
<ele>2.132947</ele>
<time>2026-06-18T02:40:02.392Z</time>
</trkpt>
<trkpt lat="55.855413" lon="8.164874">
<ele>2.094904</ele>
<time>2026-06-18T02:40:10.171Z</time>
</trkpt>
<trkpt lat="55.855885" lon="8.164580">
<ele>2.095092</ele>
<time>2026-06-18T02:40:22.300Z</time>
</trkpt>
<trkpt lat="55.856207" lon="8.164394">
<ele>2.119005</ele>
<time>2026-06-18T02:40:30.695Z</time>
</trkpt>
<trkpt lat="55.856627" lon="8.164240">
<ele>2.149298</ele>
<time>2026-06-18T02:40:41.682Z</time>
</trkpt>
<trkpt lat="55.856994" lon="8.164034">
<ele>2.176481</ele>
<time>2026-06-18T02:40:51.469Z</time>
</trkpt>
<trkpt lat="55.857699" lon="8.163697">
<ele>2.230252</ele>
<time>2026-06-18T02:41:09.280Z</time>
</trkpt>
<trkpt lat="55.858028" lon="8.163733">
<ele>2.255363</ele>
<time>2026-06-18T02:41:17.863Z</time>
</trkpt>
<trkpt lat="55.858198" lon="8.163893">
<ele>2.270009</ele>
<time>2026-06-18T02:41:22.979Z</time>
</trkpt>
<trkpt lat="55.858366" lon="8.164131">
<ele>2.286360</ele>
<time>2026-06-18T02:41:28.664Z</time>
</trkpt>
<trkpt lat="55.858416" lon="8.164305">
<ele>2.294718</ele>
<time>2026-06-18T02:41:31.512Z</time>
</trkpt>
<trkpt lat="55.858443" lon="8.164430">
<ele>2.300444</ele>
<time>2026-06-18T02:41:33.389Z</time>
</trkpt>
<trkpt lat="55.858479" lon="8.165007">
<ele>2.325266</ele>
<time>2026-06-18T02:41:41.158Z</time>
</trkpt>
<trkpt lat="55.858607" lon="8.165440">
<ele>2.282113</ele>
<time>2026-06-18T02:41:47.554Z</time>
</trkpt>
<trkpt lat="55.858609" lon="8.165558">
<ele>2.252222</ele>
<time>2026-06-18T02:41:49.137Z</time>
</trkpt>
<trkpt lat="55.858611" lon="8.165703">
<ele>2.215496</ele>
<time>2026-06-18T02:41:51.060Z</time>
</trkpt>
<trkpt lat="55.858551" lon="8.165923">
<ele>2.153562</ele>
<time>2026-06-18T02:41:54.353Z</time>
</trkpt>
<trkpt lat="55.858539" lon="8.166071">
<ele>2.115699</ele>
<time>2026-06-18T02:41:56.407Z</time>
</trkpt>
<trkpt lat="55.858585" lon="8.166217">
<ele>2.073304</ele>
<time>2026-06-18T02:41:58.626Z</time>
</trkpt>
<trkpt lat="55.858689" lon="8.166367">
<ele>2.012939</ele>
<time>2026-06-18T02:42:01.820Z</time>
</trkpt>
<trkpt lat="55.858767" lon="8.166572">
<ele>1.950228</ele>
<time>2026-06-18T02:42:05.069Z</time>
</trkpt>
<trkpt lat="55.858812" lon="8.166792">
<ele>1.890939</ele>
<time>2026-06-18T02:42:08.070Z</time>
</trkpt>
<trkpt lat="55.858830" lon="8.167412">
<ele>1.733744</ele>
<time>2026-06-18T02:42:15.777Z</time>
</trkpt>
<trkpt lat="55.858950" lon="8.168228">
<ele>1.524388</ele>
<time>2026-06-18T02:42:26.204Z</time>
</trkpt>
<trkpt lat="55.859051" lon="8.168550">
<ele>1.505369</ele>
<time>2026-06-18T02:42:30.961Z</time>
</trkpt>
<trkpt lat="55.859364" lon="8.169167">
<ele>1.462486</ele>
<time>2026-06-18T02:42:42.096Z</time>
</trkpt>
<trkpt lat="55.859654" lon="8.170069">
<ele>1.408887</ele>
<time>2026-06-18T02:42:56.502Z</time>
</trkpt>
<trkpt lat="55.859757" lon="8.170316">
<ele>1.393021</ele>
<time>2026-06-18T02:43:00.873Z</time>
</trkpt>
<trkpt lat="55.859891" lon="8.170384">
<ele>1.380221</ele>
<time>2026-06-18T02:43:04.433Z</time>
</trkpt>
<trkpt lat="55.859894" lon="8.170424">
<ele>1.378140</ele>
<time>2026-06-18T02:43:05.018Z</time>
</trkpt>
<trkpt lat="55.859976" lon="8.171526">
<ele>1.498738</ele>
<time>2026-06-18T02:43:21.547Z</time>
</trkpt>
<trkpt lat="55.860055" lon="8.172623">
<ele>1.699196</ele>
<time>2026-06-18T02:43:38.044Z</time>
</trkpt>
<trkpt lat="55.860118" lon="8.173485">
<ele>1.856749</ele>
<time>2026-06-18T02:43:50.787Z</time>
</trkpt>
<trkpt lat="55.860136" lon="8.173730">
<ele>1.901533</ele>
<time>2026-06-18T02:43:54.347Z</time>
</trkpt>
<trkpt lat="55.860166" lon="8.174138">
<ele>1.920106</ele>
<time>2026-06-18T02:44:00.158Z</time>
</trkpt>
<trkpt lat="55.860235" lon="8.175090">
<ele>1.815765</ele>
<time>2026-06-18T02:44:13.256Z</time>
</trkpt>
<trkpt lat="55.860254" lon="8.175303">
<ele>1.792322</ele>
<time>2026-06-18T02:44:16.106Z</time>
</trkpt>
<trkpt lat="55.860947" lon="8.175178">
<ele>1.657412</ele>
<time>2026-06-18T02:44:30.769Z</time>
</trkpt>
<trkpt lat="55.861315" lon="8.175067">
<ele>1.585067</ele>
<time>2026-06-18T02:44:38.653Z</time>
</trkpt>
<trkpt lat="55.861648" lon="8.174914">
<ele>1.517983</ele>
<time>2026-06-18T02:44:45.907Z</time>
</trkpt>
<trkpt lat="55.861734" lon="8.174879">
<ele>1.500775</ele>
<time>2026-06-18T02:44:47.784Z</time>
</trkpt>
<trkpt lat="55.862226" lon="8.174681">
<ele>1.402381</ele>
<time>2026-06-18T02:44:58.527Z</time>
</trkpt>
<trkpt lat="55.862485" lon="8.174618">
<ele>1.351389</ele>
<time>2026-06-18T02:45:04.182Z</time>
</trkpt>
<trkpt lat="55.862675" lon="8.174575">
<ele>1.314027</ele>
<time>2026-06-18T02:45:08.359Z</time>
</trkpt>
<trkpt lat="55.862930" lon="8.174516">
<ele>1.263866</ele>
<time>2026-06-18T02:45:14.055Z</time>
</trkpt>
<trkpt lat="55.862977" lon="8.174506">
<ele>1.254632</ele>
<time>2026-06-18T02:45:15.113Z</time>
</trkpt>
<trkpt lat="55.863226" lon="8.174449">
<ele>1.253634</ele>
<time>2026-06-18T02:45:20.645Z</time>
</trkpt>
<trkpt lat="55.863682" lon="8.174347">
<ele>1.282778</ele>
<time>2026-06-18T02:45:30.874Z</time>
</trkpt>
<trkpt lat="55.864040" lon="8.174252">
<ele>1.305731</ele>
<time>2026-06-18T02:45:39.053Z</time>
</trkpt>
<trkpt lat="55.864445" lon="8.174146">
<ele>1.331689</ele>
<time>2026-06-18T02:45:48.292Z</time>
</trkpt>
<trkpt lat="55.865050" lon="8.174029">
<ele>1.397838</ele>
<time>2026-06-18T02:46:11.081Z</time>
</trkpt>
<trkpt lat="55.865141" lon="8.174006">
<ele>1.414855</ele>
<time>2026-06-18T02:46:14.520Z</time>
</trkpt>
<trkpt lat="55.865474" lon="8.173935">
<ele>1.476949</ele>
<time>2026-06-18T02:46:27.170Z</time>
</trkpt>
<trkpt lat="55.865551" lon="8.173979">
<ele>1.491920</ele>
<time>2026-06-18T02:46:30.216Z</time>
</trkpt>
<trkpt lat="55.865853" lon="8.173922">
<ele>1.548148</ele>
<time>2026-06-18T02:46:37.942Z</time>
</trkpt>
<trkpt lat="55.865799" lon="8.173281">
<ele>1.615490</ele>
<time>2026-06-18T02:46:47.193Z</time>
</trkpt>
<trkpt lat="55.865799" lon="8.173281">
<ele>1.615490</ele>
<time>2026-06-18T02:46:47.206Z</time>
</trkpt>
<trkpt lat="55.865679" lon="8.173313">
<ele>1.637955</ele>
<time>2026-06-18T02:46:50.344Z</time>
</trkpt>
<trkpt lat="55.866386" lon="8.173313">
<ele>1.778614</ele>
<time>2026-06-18T02:47:08.626Z</time>
</trkpt>
<trkpt lat="55.867092" lon="8.173313">
<ele>1.925292</ele>
<time>2026-06-18T02:47:26.883Z</time>
</trkpt>
<trkpt lat="55.867799" lon="8.173313">
<ele>2.062631</ele>
<time>2026-06-18T02:47:45.166Z</time>
</trkpt>
<trkpt lat="55.868019" lon="8.171915">
<ele>2.062728</ele>
<time>2026-06-18T02:48:06.233Z</time>
</trkpt>
<trkpt lat="55.868239" lon="8.170517">
<ele>2.062826</ele>
<time>2026-06-18T02:48:27.300Z</time>
</trkpt>
<trkpt lat="55.868459" lon="8.169119">
<ele>1.936043</ele>
<time>2026-06-18T02:48:48.367Z</time>
</trkpt>
<trkpt lat="55.868680" lon="8.167722">
<ele>1.786684</ele>
<time>2026-06-18T02:49:09.427Z</time>
</trkpt>
<trkpt lat="55.868900" lon="8.166324">
<ele>1.670210</ele>
<time>2026-06-18T02:49:30.494Z</time>
</trkpt>
<trkpt lat="55.869120" lon="8.164926">
<ele>1.572219</ele>
<time>2026-06-18T02:49:51.561Z</time>
</trkpt>
<trkpt lat="55.869340" lon="8.163528">
<ele>1.532465</ele>
<time>2026-06-18T02:50:12.627Z</time>
</trkpt>
<trkpt lat="55.869982" lon="8.164444">
<ele>1.569411</ele>
<time>2026-06-18T02:50:33.893Z</time>
</trkpt>
<trkpt lat="55.870624" lon="8.165359">
<ele>1.597720</ele>
<time>2026-06-18T02:50:55.150Z</time>
</trkpt>
<trkpt lat="55.871266" lon="8.166275">
<ele>1.598911</ele>
<time>2026-06-18T02:51:16.416Z</time>
</trkpt>
<trkpt lat="55.871908" lon="8.167190">
<ele>1.602781</ele>
<time>2026-06-18T02:51:37.673Z</time>
</trkpt>
<trkpt lat="55.872550" lon="8.168106">
<ele>1.654071</ele>
<time>2026-06-18T02:51:58.938Z</time>
</trkpt>
<trkpt lat="55.873192" lon="8.169021">
<ele>1.705338</ele>
<time>2026-06-18T02:52:20.195Z</time>
</trkpt>
<trkpt lat="55.873834" lon="8.169937">
<ele>1.727277</ele>
<time>2026-06-18T02:52:41.460Z</time>
</trkpt>
<trkpt lat="55.874476" lon="8.170852">
<ele>1.744663</ele>
<time>2026-06-18T02:53:02.716Z</time>
</trkpt>
<trkpt lat="55.875118" lon="8.171768">
<ele>1.641110</ele>
<time>2026-06-18T02:53:23.981Z</time>
</trkpt>
<trkpt lat="55.875906" lon="8.171350">
<ele>1.480218</ele>
<time>2026-06-18T02:53:45.241Z</time>
</trkpt>
<trkpt lat="55.876695" lon="8.170931">
<ele>1.319561</ele>
<time>2026-06-18T02:54:06.530Z</time>
</trkpt>
<trkpt lat="55.877483" lon="8.170513">
<ele>1.159592</ele>
<time>2026-06-18T02:54:27.791Z</time>
</trkpt>
<trkpt lat="55.878271" lon="8.170095">
<ele>1.032199</ele>
<time>2026-06-18T02:54:49.051Z</time>
</trkpt>
<trkpt lat="55.879060" lon="8.169676">
<ele>0.979211</ele>
<time>2026-06-18T02:55:10.340Z</time>
</trkpt>
<trkpt lat="55.879848" lon="8.169258">
<ele>0.924785</ele>
<time>2026-06-18T02:55:31.600Z</time>
</trkpt>
<trkpt lat="55.880637" lon="8.168839">
<ele>0.858970</ele>
<time>2026-06-18T02:55:52.889Z</time>
</trkpt>
<trkpt lat="55.881425" lon="8.168421">
<ele>0.793243</ele>
<time>2026-06-18T02:56:14.149Z</time>
</trkpt>
<trkpt lat="55.882051" lon="8.168678">
<ele>0.767458</ele>
<time>2026-06-18T02:56:30.760Z</time>
</trkpt>
<trkpt lat="55.882677" lon="8.168936">
<ele>0.744124</ele>
<time>2026-06-18T02:56:47.375Z</time>
</trkpt>
<trkpt lat="55.883303" lon="8.169193">
<ele>0.730931</ele>
<time>2026-06-18T02:57:03.987Z</time>
</trkpt>
<trkpt lat="55.884109" lon="8.169021">
<ele>0.815215</ele>
<time>2026-06-18T02:57:24.978Z</time>
</trkpt>
<trkpt lat="55.884915" lon="8.168850">
<ele>0.899492</ele>
<time>2026-06-18T02:57:45.968Z</time>
</trkpt>
<trkpt lat="55.885722" lon="8.168679">
<ele>0.875144</ele>
<time>2026-06-18T02:58:06.983Z</time>
</trkpt>
<trkpt lat="55.886528" lon="8.168507">
<ele>0.835081</ele>
<time>2026-06-18T02:58:27.974Z</time>
</trkpt>
<trkpt lat="55.886516" lon="8.168662">
<ele>0.830751</ele>
<time>2026-06-18T02:58:30.252Z</time>
</trkpt>
<trkpt lat="55.886675" lon="8.168768">
<ele>0.822373</ele>
<time>2026-06-18T02:58:36.368Z</time>
</trkpt>
<trkpt lat="55.886667" lon="8.168880">
<ele>0.824316</ele>
<time>2026-06-18T02:58:38.659Z</time>
</trkpt>
<trkpt lat="55.886658" lon="8.169619">
<ele>0.851903</ele>
<time>2026-06-18T02:58:53.796Z</time>
</trkpt>
<trkpt lat="55.886677" lon="8.170589">
<ele>0.888126</ele>
<time>2026-06-18T02:59:13.898Z</time>
</trkpt>
<trkpt lat="55.886690" lon="8.171705">
<ele>0.929784</ele>
<time>2026-06-18T02:59:37.622Z</time>
</trkpt>
<trkpt lat="55.886884" lon="8.171759">
<ele>0.947083</ele>
<time>2026-06-18T02:59:45.204Z</time>
</trkpt>
<trkpt lat="55.887236" lon="8.172028">
<ele>1.034085</ele>
<time>2026-06-18T03:00:00.134Z</time>
</trkpt>
<trkpt lat="55.887558" lon="8.172315">
<ele>1.115866</ele>
<time>2026-06-18T03:00:14.103Z</time>
</trkpt>
<trkpt lat="55.887760" lon="8.172439">
<ele>1.164399</ele>
<time>2026-06-18T03:00:22.312Z</time>
</trkpt>
<trkpt lat="55.888009" lon="8.172432">
<ele>1.220973</ele>
<time>2026-06-18T03:00:31.793Z</time>
</trkpt>
<trkpt lat="55.888228" lon="8.172260">
<ele>1.275337</ele>
<time>2026-06-18T03:00:40.807Z</time>
</trkpt>
<trkpt lat="55.888308" lon="8.172183">
<ele>1.295990</ele>
<time>2026-06-18T03:00:44.153Z</time>
</trkpt>
<trkpt lat="55.888429" lon="8.172033">
<ele>1.329468</ele>
<time>2026-06-18T03:00:49.591Z</time>
</trkpt>
<trkpt lat="55.888519" lon="8.171923">
<ele>1.348073</ele>
<time>2026-06-18T03:00:53.618Z</time>
</trkpt>
<trkpt lat="55.888668" lon="8.171735">
<ele>1.333164</ele>
<time>2026-06-18T03:01:00.258Z</time>
</trkpt>
<trkpt lat="55.888845" lon="8.171508">
<ele>1.315356</ele>
<time>2026-06-18T03:01:08.213Z</time>
</trkpt>
<trkpt lat="55.888882" lon="8.171491">
<ele>1.312235</ele>
<time>2026-06-18T03:01:09.608Z</time>
</trkpt>
<trkpt lat="55.888970" lon="8.171474">
<ele>1.305006</ele>
<time>2026-06-18T03:01:12.811Z</time>
</trkpt>
<trkpt lat="55.888996" lon="8.171465">
<ele>1.302842</ele>
<time>2026-06-18T03:01:13.796Z</time>
</trkpt>
<trkpt lat="55.889469" lon="8.171254">
<ele>1.263018</ele>
<time>2026-06-18T03:01:25.515Z</time>
</trkpt>
<trkpt lat="55.890920" lon="8.170253">
<ele>1.209255</ele>
<time>2026-06-18T03:02:03.972Z</time>
</trkpt>
<trkpt lat="55.891042" lon="8.170132">
<ele>1.210356</ele>
<time>2026-06-18T03:02:07.484Z</time>
</trkpt>
<trkpt lat="55.891328" lon="8.169699">
<ele>1.213316</ele>
<time>2026-06-18T03:02:16.815Z</time>
</trkpt>
<trkpt lat="55.891553" lon="8.169512">
<ele>1.215275</ele>
<time>2026-06-18T03:02:22.854Z</time>
</trkpt>
<trkpt lat="55.891908" lon="8.169373">
<ele>1.213965</ele>
<time>2026-06-18T03:02:31.686Z</time>
</trkpt>
<trkpt lat="55.892132" lon="8.169066">
<ele>1.208129</ele>
<time>2026-06-18T03:02:38.584Z</time>
</trkpt>
<trkpt lat="55.892592" lon="8.169110">
<ele>1.198614</ele>
<time>2026-06-18T03:02:49.809Z</time>
</trkpt>
<trkpt lat="55.892850" lon="8.168731">
<ele>1.191709</ele>
<time>2026-06-18T03:02:57.999Z</time>
</trkpt>
<trkpt lat="55.893158" lon="8.168473">
<ele>1.184680</ele>
<time>2026-06-18T03:03:06.402Z</time>
</trkpt>
<trkpt lat="55.893229" lon="8.168438">
<ele>1.183158</ele>
<time>2026-06-18T03:03:08.259Z</time>
</trkpt>
<trkpt lat="55.893431" lon="8.168457">
<ele>1.186612</ele>
<time>2026-06-18T03:03:13.364Z</time>
</trkpt>
<trkpt lat="55.893532" lon="8.168394">
<ele>1.204153</ele>
<time>2026-06-18T03:03:16.088Z</time>
</trkpt>
<trkpt lat="55.894865" lon="8.166306">
<ele>1.526566</ele>
<time>2026-06-18T03:04:01.110Z</time>
</trkpt>
<trkpt lat="55.894957" lon="8.166208">
<ele>1.571451</ele>
<time>2026-06-18T03:04:03.838Z</time>
</trkpt>
<trkpt lat="55.895010" lon="8.165838">
<ele>1.661140</ele>
<time>2026-06-18T03:04:11.916Z</time>
</trkpt>
<trkpt lat="55.895087" lon="8.165572">
<ele>1.731446</ele>
<time>2026-06-18T03:04:18.339Z</time>
</trkpt>
<trkpt lat="55.895147" lon="8.165390">
<ele>1.781031</ele>
<time>2026-06-18T03:04:22.907Z</time>
</trkpt>
<trkpt lat="55.895306" lon="8.165077">
<ele>1.880224</ele>
<time>2026-06-18T03:04:32.139Z</time>
</trkpt>
<trkpt lat="55.895498" lon="8.164805">
<ele>1.982929</ele>
<time>2026-06-18T03:04:41.766Z</time>
</trkpt>
<trkpt lat="55.895961" lon="8.164424">
<ele>2.196508</ele>
<time>2026-06-18T03:05:01.916Z</time>
</trkpt>
<trkpt lat="55.896055" lon="8.164271">
<ele>2.227606</ele>
<time>2026-06-18T03:05:06.985Z</time>
</trkpt>
<trkpt lat="55.896126" lon="8.164079">
<ele>2.226472</ele>
<time>2026-06-18T03:05:12.101Z</time>
</trkpt>
<trkpt lat="55.896250" lon="8.163241">
<ele>2.222201</ele>
<time>2026-06-18T03:05:30.920Z</time>
</trkpt>
<trkpt lat="55.896493" lon="8.162118">
<ele>2.216267</ele>
<time>2026-06-18T03:05:55.607Z</time>
</trkpt>
<trkpt lat="55.896541" lon="8.161809">
<ele>2.214687</ele>
<time>2026-06-18T03:06:02.005Z</time>
</trkpt>
<trkpt lat="55.896680" lon="8.160905">
<ele>2.142748</ele>
<time>2026-06-18T03:06:20.312Z</time>
</trkpt>
<trkpt lat="55.896806" lon="8.160124">
<ele>2.015286</ele>
<time>2026-06-18T03:06:36.317Z</time>
</trkpt>
<trkpt lat="55.897236" lon="8.160091">
<ele>1.894891</ele>
<time>2026-06-18T03:06:46.548Z</time>
</trkpt>
<trkpt lat="55.898210" lon="8.159896">
<ele>1.677659</ele>
<time>2026-06-18T03:07:10.913Z</time>
</trkpt>
<trkpt lat="55.898313" lon="8.159934">
<ele>1.667188</ele>
<time>2026-06-18T03:07:13.511Z</time>
</trkpt>
<trkpt lat="55.898400" lon="8.160160">
<ele>1.651886</ele>
<time>2026-06-18T03:07:17.331Z</time>
</trkpt>
<trkpt lat="55.898437" lon="8.160208">
<ele>1.647332</ele>
<time>2026-06-18T03:07:18.462Z</time>
</trkpt>
<trkpt lat="55.898497" lon="8.160219">
<ele>1.641327</ele>
<time>2026-06-18T03:07:19.928Z</time>
</trkpt>
<trkpt lat="55.898943" lon="8.159797">
<ele>1.591065</ele>
<time>2026-06-18T03:07:32.078Z</time>
</trkpt>
<trkpt lat="55.899717" lon="8.159370">
<ele>1.539346</ele>
<time>2026-06-18T03:07:51.275Z</time>
</trkpt>
<trkpt lat="55.900648" lon="8.159424">
<ele>1.583190</ele>
<time>2026-06-18T03:08:14.412Z</time>
</trkpt>
<trkpt lat="55.900799" lon="8.159452">
<ele>1.590335</ele>
<time>2026-06-18T03:08:18.330Z</time>
</trkpt>
<trkpt lat="55.900851" lon="8.159449">
<ele>1.592784</ele>
<time>2026-06-18T03:08:19.671Z</time>
</trkpt>
<trkpt lat="55.901062" lon="8.159206">
<ele>1.604606</ele>
<time>2026-06-18T03:08:26.165Z</time>
</trkpt>
<trkpt lat="55.901241" lon="8.159074">
<ele>1.613723</ele>
<time>2026-06-18T03:08:31.118Z</time>
</trkpt>
<trkpt lat="55.901340" lon="8.158905">
<ele>1.606241</ele>
<time>2026-06-18T03:08:34.635Z</time>
</trkpt>
<trkpt lat="55.901411" lon="8.158700">
<ele>1.596365</ele>
<time>2026-06-18T03:08:38.077Z</time>
</trkpt>
<trkpt lat="55.901519" lon="8.158617">
<ele>1.587767</ele>
<time>2026-06-18T03:08:41.042Z</time>
</trkpt>
<trkpt lat="55.901820" lon="8.158481">
<ele>1.565067</ele>
<time>2026-06-18T03:08:48.818Z</time>
</trkpt>
<trkpt lat="55.902249" lon="8.158330">
<ele>1.533099</ele>
<time>2026-06-18T03:08:59.509Z</time>
</trkpt>
<trkpt lat="55.902302" lon="8.158251">
<ele>1.528049</ele>
<time>2026-06-18T03:09:01.168Z</time>
</trkpt>
<trkpt lat="55.902384" lon="8.158000">
<ele>1.516143</ele>
<time>2026-06-18T03:09:05.026Z</time>
</trkpt>
<trkpt lat="55.902503" lon="8.157751">
<ele>1.502733</ele>
<time>2026-06-18T03:09:09.312Z</time>
</trkpt>
<trkpt lat="55.902580" lon="8.157657">
<ele>1.495911</ele>
<time>2026-06-18T03:09:11.508Z</time>
</trkpt>
<trkpt lat="55.902661" lon="8.157622">
<ele>1.489818</ele>
<time>2026-06-18T03:09:13.462Z</time>
</trkpt>
<trkpt lat="55.903333" lon="8.157447">
<ele>1.377437</ele>
<time>2026-06-18T03:09:29.592Z</time>
</trkpt>
<trkpt lat="55.904317" lon="8.157187">
<ele>1.198747</ele>
<time>2026-06-18T03:09:53.523Z</time>
</trkpt>
<trkpt lat="55.905608" lon="8.156866">
<ele>1.067143</ele>
<time>2026-06-18T03:10:25.054Z</time>
</trkpt>
<trkpt lat="55.906922" lon="8.156536">
<ele>1.069432</ele>
<time>2026-06-18T03:10:57.903Z</time>
</trkpt>
<trkpt lat="55.907809" lon="8.156306">
<ele>1.160921</ele>
<time>2026-06-18T03:11:20.675Z</time>
</trkpt>
<trkpt lat="55.907873" lon="8.156291">
<ele>1.167509</ele>
<time>2026-06-18T03:11:22.291Z</time>
</trkpt>
<trkpt lat="55.908144" lon="8.156226">
<ele>1.203404</ele>
<time>2026-06-18T03:11:29.214Z</time>
</trkpt>
<trkpt lat="55.909615" lon="8.155875">
<ele>1.580880</ele>
<time>2026-06-18T03:12:06.237Z</time>
</trkpt>
<trkpt lat="55.909807" lon="8.156148">
<ele>1.643327</ele>
<time>2026-06-18T03:12:12.964Z</time>
</trkpt>
<trkpt lat="55.910389" lon="8.156395">
<ele>2.068038</ele>
<time>2026-06-18T03:12:30.229Z</time>
</trkpt>
<trkpt lat="55.910899" lon="8.156885">
<ele>2.486796</ele>
<time>2026-06-18T03:12:47.276Z</time>
</trkpt>
<trkpt lat="55.910953" lon="8.157086">
<ele>2.577112</ele>
<time>2026-06-18T03:12:50.820Z</time>
</trkpt>
<trkpt lat="55.911001" lon="8.158267">
<ele>2.848033</ele>
<time>2026-06-18T03:13:08.460Z</time>
</trkpt>
<trkpt lat="55.911021" lon="8.158437">
<ele>2.783606</ele>
<time>2026-06-18T03:13:10.791Z</time>
</trkpt>
<trkpt lat="55.911066" lon="8.158548">
<ele>2.732795</ele>
<time>2026-06-18T03:13:12.578Z</time>
</trkpt>
<trkpt lat="55.911133" lon="8.158591">
<ele>2.685676</ele>
<time>2026-06-18T03:13:14.199Z</time>
</trkpt>
<trkpt lat="55.911324" lon="8.158424">
<ele>2.544919</ele>
<time>2026-06-18T03:13:18.954Z</time>
</trkpt>
<trkpt lat="55.911389" lon="8.158416">
<ele>2.501803</ele>
<time>2026-06-18T03:13:20.361Z</time>
</trkpt>
<trkpt lat="55.911709" lon="8.158478">
<ele>2.288796</ele>
<time>2026-06-18T03:13:27.348Z</time>
</trkpt>
<trkpt lat="55.912085" lon="8.158800">
<ele>2.012799</ele>
<time>2026-06-18T03:13:36.343Z</time>
</trkpt>
<trkpt lat="55.912423" lon="8.159430">
<ele>1.701385</ele>
<time>2026-06-18T03:13:46.888Z</time>
</trkpt>
<trkpt lat="55.912520" lon="8.159650">
<ele>1.615893</ele>
<time>2026-06-18T03:13:50.297Z</time>
</trkpt>
<trkpt lat="55.912585" lon="8.159845">
<ele>1.546599</ele>
<time>2026-06-18T03:13:53.093Z</time>
</trkpt>
<trkpt lat="55.912964" lon="8.160049">
<ele>1.330871</ele>
<time>2026-06-18T03:14:02.026Z</time>
</trkpt>
<trkpt lat="55.913453" lon="8.160171">
<ele>1.061800</ele>
<time>2026-06-18T03:14:13.703Z</time>
</trkpt>
<trkpt lat="55.913589" lon="8.160252">
<ele>0.983668</ele>
<time>2026-06-18T03:14:17.119Z</time>
</trkpt>
<trkpt lat="55.913700" lon="8.160404">
<ele>0.907418</ele>
<time>2026-06-18T03:14:20.404Z</time>
</trkpt>
<trkpt lat="55.913857" lon="8.160906">
<ele>0.770356</ele>
<time>2026-06-18T03:14:27.949Z</time>
</trkpt>
<trkpt lat="55.913890" lon="8.161105">
<ele>0.760526</ele>
<time>2026-06-18T03:14:30.673Z</time>
</trkpt>
<trkpt lat="55.913915" lon="8.161673">
<ele>0.733539</ele>
<time>2026-06-18T03:14:38.189Z</time>
</trkpt>
<trkpt lat="55.913940" lon="8.161794">
<ele>0.727430</ele>
<time>2026-06-18T03:14:39.919Z</time>
</trkpt>
<trkpt lat="55.914208" lon="8.162279">
<ele>0.695169</ele>
<time>2026-06-18T03:14:49.251Z</time>
</trkpt>
<trkpt lat="55.914283" lon="8.162531">
<ele>0.681654</ele>
<time>2026-06-18T03:14:53.204Z</time>
</trkpt>
<trkpt lat="55.914314" lon="8.162757">
<ele>0.670633</ele>
<time>2026-06-18T03:14:56.437Z</time>
</trkpt>
<trkpt lat="55.914392" lon="8.163054">
<ele>0.655097</ele>
<time>2026-06-18T03:15:00.971Z</time>
</trkpt>
<trkpt lat="55.914485" lon="8.163291">
<ele>0.641393</ele>
<time>2026-06-18T03:15:04.976Z</time>
</trkpt>
<trkpt lat="55.914596" lon="8.163485">
<ele>0.628261</ele>
<time>2026-06-18T03:15:08.857Z</time>
</trkpt>
<trkpt lat="55.914722" lon="8.163608">
<ele>0.635774</ele>
<time>2026-06-18T03:15:12.452Z</time>
</trkpt>
<trkpt lat="55.914905" lon="8.163693">
<ele>0.653615</ele>
<time>2026-06-18T03:15:17.230Z</time>
</trkpt>
<trkpt lat="55.915278" lon="8.163819">
<ele>0.689433</ele>
<time>2026-06-18T03:15:25.978Z</time>
</trkpt>
<trkpt lat="55.915790" lon="8.163616">
<ele>0.738918</ele>
<time>2026-06-18T03:15:38.121Z</time>
</trkpt>
<trkpt lat="55.915896" lon="8.163608">
<ele>0.748928</ele>
<time>2026-06-18T03:15:40.523Z</time>
</trkpt>
<trkpt lat="55.916056" lon="8.163671">
<ele>0.764387</ele>
<time>2026-06-18T03:15:44.186Z</time>
</trkpt>
<trkpt lat="55.916163" lon="8.163644">
<ele>0.774583</ele>
<time>2026-06-18T03:15:46.595Z</time>
</trkpt>
<trkpt lat="55.916425" lon="8.163444">
<ele>0.795293</ele>
<time>2026-06-18T03:15:52.890Z</time>
</trkpt>
<trkpt lat="55.916695" lon="8.163044">
<ele>0.796247</ele>
<time>2026-06-18T03:16:00.604Z</time>
</trkpt>
<trkpt lat="55.916722" lon="8.162980">
<ele>0.796369</ele>
<time>2026-06-18T03:16:01.586Z</time>
</trkpt>
<trkpt lat="55.916779" lon="8.162751">
<ele>0.796751</ele>
<time>2026-06-18T03:16:05.066Z</time>
</trkpt>
<trkpt lat="55.916805" lon="8.162145">
<ele>0.797677</ele>
<time>2026-06-18T03:16:13.524Z</time>
</trkpt>
<trkpt lat="55.917120" lon="8.161295">
<ele>0.799230</ele>
<time>2026-06-18T03:16:27.513Z</time>
</trkpt>
<trkpt lat="55.917249" lon="8.160893">
<ele>0.799935</ele>
<time>2026-06-18T03:16:34.000Z</time>
</trkpt>
<trkpt lat="55.917343" lon="8.160771">
<ele>0.802360</ele>
<time>2026-06-18T03:16:36.898Z</time>
</trkpt>
<trkpt lat="55.917374" lon="8.160731">
<ele>0.803337</ele>
<time>2026-06-18T03:16:37.846Z</time>
</trkpt>
<trkpt lat="55.917451" lon="8.160418">
<ele>0.808225</ele>
<time>2026-06-18T03:16:42.613Z</time>
</trkpt>
<trkpt lat="55.918062" lon="8.158676">
<ele>0.837614</ele>
<time>2026-06-18T03:17:11.144Z</time>
</trkpt>
<trkpt lat="55.918558" lon="8.157563">
<ele>0.897621</ele>
<time>2026-06-18T03:17:31.021Z</time>
</trkpt>
<trkpt lat="55.918685" lon="8.157419">
<ele>0.914103</ele>
<time>2026-06-18T03:17:34.772Z</time>
</trkpt>
<trkpt lat="55.918817" lon="8.157398">
<ele>0.928619</ele>
<time>2026-06-18T03:17:38.067Z</time>
</trkpt>
<trkpt lat="55.918902" lon="8.157493">
<ele>0.939605</ele>
<time>2026-06-18T03:17:40.559Z</time>
</trkpt>
<trkpt lat="55.918935" lon="8.157644">
<ele>0.949553</ele>
<time>2026-06-18T03:17:42.820Z</time>
</trkpt>
<trkpt lat="55.918920" lon="8.158217">
<ele>0.984762</ele>
<time>2026-06-18T03:17:50.897Z</time>
</trkpt>
<trkpt lat="55.918981" lon="8.158402">
<ele>0.997938</ele>
<time>2026-06-18T03:17:53.920Z</time>
</trkpt>
<trkpt lat="55.919393" lon="8.158714">
<ele>1.056326</ele>
<time>2026-06-18T03:18:05.322Z</time>
</trkpt>
<trkpt lat="55.919540" lon="8.158738">
<ele>1.109933</ele>
<time>2026-06-18T03:18:09.128Z</time>
</trkpt>
<trkpt lat="55.919688" lon="8.158695">
<ele>1.164386</ele>
<time>2026-06-18T03:18:13.045Z</time>
</trkpt>
<trkpt lat="55.919797" lon="8.158603">
<ele>1.208174</ele>
<time>2026-06-18T03:18:16.209Z</time>
</trkpt>
<trkpt lat="55.919923" lon="8.158414">
<ele>1.267947</ele>
<time>2026-06-18T03:18:20.551Z</time>
</trkpt>
<trkpt lat="55.920442" lon="8.157286">
<ele>1.564949</ele>
<time>2026-06-18T03:18:42.301Z</time>
</trkpt>
<trkpt lat="55.920586" lon="8.157062">
<ele>1.634320</ele>
<time>2026-06-18T03:18:47.315Z</time>
</trkpt>
<trkpt lat="55.920659" lon="8.156814">
<ele>1.691324</ele>
<time>2026-06-18T03:18:51.423Z</time>
</trkpt>
<trkpt lat="55.920836" lon="8.156473">
<ele>1.747386</ele>
<time>2026-06-18T03:18:58.189Z</time>
</trkpt>
<trkpt lat="55.920909" lon="8.155908">
<ele>1.814765</ele>
<time>2026-06-18T03:19:06.477Z</time>
</trkpt>
<trkpt lat="55.921084" lon="8.155060">
<ele>1.919778</ele>
<time>2026-06-18T03:19:19.120Z</time>
</trkpt>
<trkpt lat="55.921721" lon="8.153716">
<ele>2.105959</ele>
<time>2026-06-18T03:19:44.237Z</time>
</trkpt>
<trkpt lat="55.921875" lon="8.153327">
<ele>2.142891</ele>
<time>2026-06-18T03:19:51.266Z</time>
</trkpt>
<trkpt lat="55.921934" lon="8.153074">
<ele>2.164139</ele>
<time>2026-06-18T03:19:55.320Z</time>
</trkpt>
<trkpt lat="55.922015" lon="8.152879">
<ele>2.182961</ele>
<time>2026-06-18T03:19:58.897Z</time>
</trkpt>
<trkpt lat="55.922068" lon="8.152812">
<ele>2.191949</ele>
<time>2026-06-18T03:20:00.587Z</time>
</trkpt>
<trkpt lat="55.922299" lon="8.152760">
<ele>2.224169</ele>
<time>2026-06-18T03:20:06.562Z</time>
</trkpt>
<trkpt lat="55.922396" lon="8.152686">
<ele>2.238767</ele>
<time>2026-06-18T03:20:09.208Z</time>
</trkpt>
<trkpt lat="55.922486" lon="8.152568">
<ele>2.254221</ele>
<time>2026-06-18T03:20:11.983Z</time>
</trkpt>
<trkpt lat="55.922668" lon="8.152157">
<ele>2.294840</ele>
<time>2026-06-18T03:20:19.107Z</time>
</trkpt>
<trkpt lat="55.922806" lon="8.151971">
<ele>2.317889</ele>
<time>2026-06-18T03:20:23.233Z</time>
</trkpt>
<trkpt lat="55.922866" lon="8.151934">
<ele>2.316505</ele>
<time>2026-06-18T03:20:24.753Z</time>
</trkpt>
<trkpt lat="55.923743" lon="8.151717">
<ele>2.297192</ele>
<time>2026-06-18T03:20:45.981Z</time>
</trkpt>
<trkpt lat="55.923774" lon="8.151709">
<ele>2.296509</ele>
<time>2026-06-18T03:20:46.739Z</time>
</trkpt>
<trkpt lat="55.924106" lon="8.151542">
<ele>2.288985</ele>
<time>2026-06-18T03:20:59.186Z</time>
</trkpt>
<trkpt lat="55.924629" lon="8.151221">
<ele>2.285643</ele>
<time>2026-06-18T03:21:20.129Z</time>
</trkpt>
<trkpt lat="55.924686" lon="8.151202">
<ele>2.290325</ele>
<time>2026-06-18T03:21:22.372Z</time>
</trkpt>
<trkpt lat="55.924790" lon="8.151165">
<ele>2.298888</ele>
<time>2026-06-18T03:21:26.584Z</time>
</trkpt>
<trkpt lat="55.924944" lon="8.151180">
<ele>2.311342</ele>
<time>2026-06-18T03:21:32.691Z</time>
</trkpt>
<trkpt lat="55.925070" lon="8.151137">
<ele>2.321701</ele>
<time>2026-06-18T03:21:37.793Z</time>
</trkpt>
<trkpt lat="55.925142" lon="8.151113">
<ele>2.327616</ele>
<time>2026-06-18T03:21:40.635Z</time>
</trkpt>
<trkpt lat="55.925415" lon="8.151045">
<ele>2.349874</ele>
<time>2026-06-18T03:21:51.180Z</time>
</trkpt>
<trkpt lat="55.925644" lon="8.150988">
<ele>2.368544</ele>
<time>2026-06-18T03:21:59.686Z</time>
</trkpt>
<trkpt lat="55.925682" lon="8.150979">
<ele>2.371640</ele>
<time>2026-06-18T03:22:01.073Z</time>
</trkpt>
<trkpt lat="55.925888" lon="8.150927">
<ele>2.388440</ele>
<time>2026-06-18T03:22:08.618Z</time>
</trkpt>
<trkpt lat="55.926150" lon="8.150948">
<ele>2.409617</ele>
<time>2026-06-18T03:22:18.208Z</time>
</trkpt>
<trkpt lat="55.926173" lon="8.150951">
<ele>2.411479</ele>
<time>2026-06-18T03:22:19.074Z</time>
</trkpt>
<trkpt lat="55.926553" lon="8.151013">
<ele>2.380857</ele>
<time>2026-06-18T03:22:32.986Z</time>
</trkpt>
<trkpt lat="55.926906" lon="8.151064">
<ele>2.313327</ele>
<time>2026-06-18T03:22:45.726Z</time>
</trkpt>
<trkpt lat="55.926942" lon="8.151069">
<ele>2.306442</ele>
<time>2026-06-18T03:22:47.020Z</time>
</trkpt>
<trkpt lat="55.927024" lon="8.151081">
<ele>2.290753</ele>
<time>2026-06-18T03:22:49.961Z</time>
</trkpt>
<trkpt lat="55.927407" lon="8.151137">
<ele>2.217479</ele>
<time>2026-06-18T03:23:03.625Z</time>
</trkpt>
<trkpt lat="55.927577" lon="8.151161">
<ele>2.184962</ele>
<time>2026-06-18T03:23:09.764Z</time>
</trkpt>
<trkpt lat="55.927716" lon="8.151184">
<ele>2.158344</ele>
<time>2026-06-18T03:23:14.857Z</time>
</trkpt>
<trkpt lat="55.927943" lon="8.151232">
<ele>2.114757</ele>
<time>2026-06-18T03:23:23.337Z</time>
</trkpt>
<trkpt lat="55.928202" lon="8.151178">
<ele>2.099826</ele>
<time>2026-06-18T03:23:33.044Z</time>
</trkpt>
<trkpt lat="55.928283" lon="8.151156">
<ele>2.118140</ele>
<time>2026-06-18T03:23:36.094Z</time>
</trkpt>
<trkpt lat="55.928441" lon="8.151027">
<ele>2.156976</ele>
<time>2026-06-18T03:23:42.553Z</time>
</trkpt>
<trkpt lat="55.928483" lon="8.150993">
<ele>2.167285</ele>
<time>2026-06-18T03:23:44.264Z</time>
</trkpt>
<trkpt lat="55.928686" lon="8.150890">
<ele>2.214458</ele>
<time>2026-06-18T03:23:52.124Z</time>
</trkpt>
<trkpt lat="55.928737" lon="8.150870">
<ele>2.226129</ele>
<time>2026-06-18T03:23:54.094Z</time>
</trkpt>
<trkpt lat="55.929110" lon="8.150793">
<ele>2.310060</ele>
<time>2026-06-18T03:24:03.434Z</time>
</trkpt>
<trkpt lat="55.929415" lon="8.150761">
<ele>2.378353</ele>
<time>2026-06-18T03:24:11.265Z</time>
</trkpt>
<trkpt lat="55.929728" lon="8.150645">
<ele>2.449808</ele>
<time>2026-06-18T03:24:20.012Z</time>
</trkpt>
<trkpt lat="55.929890" lon="8.150671">
<ele>2.485890</ele>
<time>2026-06-18T03:24:24.475Z</time>
</trkpt>
<trkpt lat="55.930223" lon="8.150821">
<ele>2.555769</ele>
<time>2026-06-18T03:24:33.760Z</time>
</trkpt>
<trkpt lat="55.930304" lon="8.150857">
<ele>2.572753</ele>
<time>2026-06-18T03:24:35.969Z</time>
</trkpt>
<trkpt lat="55.930338" lon="8.150873">
<ele>2.579907</ele>
<time>2026-06-18T03:24:36.897Z</time>
</trkpt>
<trkpt lat="55.930626" lon="8.150984">
<ele>2.639857</ele>
<time>2026-06-18T03:24:44.694Z</time>
</trkpt>
<trkpt lat="55.930685" lon="8.150977">
<ele>2.651888</ele>
<time>2026-06-18T03:24:46.257Z</time>
</trkpt>
<trkpt lat="55.930711" lon="8.150974">
<ele>2.657189</ele>
<time>2026-06-18T03:24:46.931Z</time>
</trkpt>
<trkpt lat="55.930838" lon="8.150857">
<ele>2.686268</ele>
<time>2026-06-18T03:24:50.673Z</time>
</trkpt>
<trkpt lat="55.931237" lon="8.150489">
<ele>2.777648</ele>
<time>2026-06-18T03:25:02.311Z</time>
</trkpt>
<trkpt lat="55.931723" lon="8.150132">
<ele>2.770871</ele>
<time>2026-06-18T03:25:14.577Z</time>
</trkpt>
<trkpt lat="55.931793" lon="8.150081">
<ele>2.737004</ele>
<time>2026-06-18T03:25:16.258Z</time>
</trkpt>
<trkpt lat="55.931892" lon="8.150008">
<ele>2.689024</ele>
<time>2026-06-18T03:25:18.646Z</time>
</trkpt>
<trkpt lat="55.932048" lon="8.149990">
<ele>2.619000</ele>
<time>2026-06-18T03:25:22.127Z</time>
</trkpt>
<trkpt lat="55.932199" lon="8.150025">
<ele>2.550793</ele>
<time>2026-06-18T03:25:25.551Z</time>
</trkpt>
<trkpt lat="55.932638" lon="8.150021">
<ele>2.354145</ele>
<time>2026-06-18T03:25:35.548Z</time>
</trkpt>
<trkpt lat="55.932788" lon="8.150187">
<ele>2.275091</ele>
<time>2026-06-18T03:25:39.696Z</time>
</trkpt>
<trkpt lat="55.933000" lon="8.150319">
<ele>2.174517</ele>
<time>2026-06-18T03:25:44.901Z</time>
</trkpt>
<trkpt lat="55.933202" lon="8.150287">
<ele>2.083678</ele>
<time>2026-06-18T03:25:49.554Z</time>
</trkpt>
<trkpt lat="55.933566" lon="8.150402">
<ele>1.975917</ele>
<time>2026-06-18T03:25:58.344Z</time>
</trkpt>
<trkpt lat="55.933697" lon="8.150378">
<ele>1.944153</ele>
<time>2026-06-18T03:26:01.549Z</time>
</trkpt>
<trkpt lat="55.933838" lon="8.150273">
<ele>1.907304</ele>
<time>2026-06-18T03:26:05.313Z</time>
</trkpt>
<trkpt lat="55.933903" lon="8.150265">
<ele>1.891588</ele>
<time>2026-06-18T03:26:06.901Z</time>
</trkpt>
<trkpt lat="55.934100" lon="8.150477">
<ele>1.836106</ele>
<time>2026-06-18T03:26:12.450Z</time>
</trkpt>
<trkpt lat="55.934202" lon="8.150522">
<ele>1.810763</ele>
<time>2026-06-18T03:26:14.991Z</time>
</trkpt>
<trkpt lat="55.934510" lon="8.150461">
<ele>1.736017</ele>
<time>2026-06-18T03:26:22.347Z</time>
</trkpt>
<trkpt lat="55.934626" lon="8.150502">
<ele>1.707495</ele>
<time>2026-06-18T03:26:25.133Z</time>
</trkpt>
<trkpt lat="55.935104" lon="8.150909">
<ele>1.637371</ele>
<time>2026-06-18T03:26:37.529Z</time>
</trkpt>
<trkpt lat="55.935711" lon="8.151354">
<ele>1.785261</ele>
<time>2026-06-18T03:26:53.593Z</time>
</trkpt>
<trkpt lat="55.935971" lon="8.151430">
<ele>1.844640</ele>
<time>2026-06-18T03:27:00.290Z</time>
</trkpt>
<trkpt lat="55.936230" lon="8.151377">
<ele>1.903395</ele>
<time>2026-06-18T03:27:07.083Z</time>
</trkpt>
<trkpt lat="55.936386" lon="8.151257">
<ele>1.941678</ele>
<time>2026-06-18T03:27:11.572Z</time>
</trkpt>
<trkpt lat="55.936438" lon="8.151172">
<ele>1.957568</ele>
<time>2026-06-18T03:27:13.476Z</time>
</trkpt>
<trkpt lat="55.936650" lon="8.150621">
<ele>2.079178</ele>
<time>2026-06-18T03:27:23.907Z</time>
</trkpt>
<trkpt lat="55.936769" lon="8.150375">
<ele>2.176702</ele>
<time>2026-06-18T03:27:29.209Z</time>
</trkpt>
<trkpt lat="55.937207" lon="8.149696">
<ele>2.487425</ele>
<time>2026-06-18T03:27:46.035Z</time>
</trkpt>
<trkpt lat="55.937664" lon="8.149543">
<ele>2.736491</ele>
<time>2026-06-18T03:27:58.478Z</time>
</trkpt>
<trkpt lat="55.937728" lon="8.149522">
<ele>2.771348</ele>
<time>2026-06-18T03:28:00.136Z</time>
</trkpt>
<trkpt lat="55.938013" lon="8.149473">
<ele>2.924719</ele>
<time>2026-06-18T03:28:07.119Z</time>
</trkpt>
<trkpt lat="55.938121" lon="8.149209">
<ele>2.954362</ele>
<time>2026-06-18T03:28:11.519Z</time>
</trkpt>
<trkpt lat="55.938230" lon="8.149134">
<ele>2.920512</ele>
<time>2026-06-18T03:28:14.336Z</time>
</trkpt>
<trkpt lat="55.938964" lon="8.149051">
<ele>2.707390</ele>
<time>2026-06-18T03:28:31.395Z</time>
</trkpt>
<trkpt lat="55.939574" lon="8.149155">
<ele>2.529823</ele>
<time>2026-06-18T03:28:45.421Z</time>
</trkpt>
<trkpt lat="55.940145" lon="8.148962">
<ele>2.389000</ele>
<time>2026-06-18T03:28:59.777Z</time>
</trkpt>
<trkpt lat="55.940541" lon="8.149128">
<ele>2.305073</ele>
<time>2026-06-18T03:29:10.001Z</time>
</trkpt>
<trkpt lat="55.940673" lon="8.149109">
<ele>2.277749</ele>
<time>2026-06-18T03:29:13.263Z</time>
</trkpt>
<trkpt lat="55.941120" lon="8.148696">
<ele>2.173906</ele>
<time>2026-06-18T03:29:25.335Z</time>
</trkpt>
<trkpt lat="55.941234" lon="8.148644">
<ele>2.149629</ele>
<time>2026-06-18T03:29:28.077Z</time>
</trkpt>
<trkpt lat="55.941781" lon="8.148609">
<ele>1.979075</ele>
<time>2026-06-18T03:29:40.613Z</time>
</trkpt>
<trkpt lat="55.942580" lon="8.149166">
<ele>1.595594</ele>
<time>2026-06-18T03:30:00.035Z</time>
</trkpt>
<trkpt lat="55.942732" lon="8.149209">
<ele>1.526790</ele>
<time>2026-06-18T03:30:03.550Z</time>
</trkpt>
<trkpt lat="55.943625" lon="8.149043">
<ele>1.459891</ele>
<time>2026-06-18T03:30:24.783Z</time>
</trkpt>
<trkpt lat="55.944228" lon="8.148744">
<ele>1.777966</ele>
<time>2026-06-18T03:30:41.022Z</time>
</trkpt>
<trkpt lat="55.944306" lon="8.148705">
<ele>1.819135</ele>
<time>2026-06-18T03:30:43.195Z</time>
</trkpt>
<trkpt lat="55.944564" lon="8.148787">
<ele>1.952326</ele>
<time>2026-06-18T03:30:50.334Z</time>
</trkpt>
<trkpt lat="55.944683" lon="8.148999">
<ele>2.037761</ele>
<time>2026-06-18T03:30:55.082Z</time>
</trkpt>
<trkpt lat="55.944888" lon="8.149604">
<ele>2.278641</ele>
<time>2026-06-18T03:31:06.823Z</time>
</trkpt>
<trkpt lat="55.944980" lon="8.150348">
<ele>2.695649</ele>
<time>2026-06-18T03:31:20.273Z</time>
</trkpt>
<trkpt lat="55.945146" lon="8.150903">
<ele>3.040018</ele>
<time>2026-06-18T03:31:31.224Z</time>
</trkpt>
<trkpt lat="55.945138" lon="8.151338">
<ele>3.278226</ele>
<time>2026-06-18T03:31:38.620Z</time>
</trkpt>
<trkpt lat="55.945000" lon="8.151995">
<ele>3.662270</ele>
<time>2026-06-18T03:31:49.975Z</time>
</trkpt>
<trkpt lat="55.944934" lon="8.153417">
<ele>3.613289</ele>
<time>2026-06-18T03:32:09.138Z</time>
</trkpt>
<trkpt lat="55.945042" lon="8.154224">
<ele>3.296989</ele>
<time>2026-06-18T03:32:19.108Z</time>
</trkpt>
<trkpt lat="55.945173" lon="8.154770">
<ele>3.070549</ele>
<time>2026-06-18T03:32:26.213Z</time>
</trkpt>
<trkpt lat="55.945593" lon="8.154719">
<ele>2.783975</ele>
<time>2026-06-18T03:32:35.237Z</time>
</trkpt>
<trkpt lat="55.945851" lon="8.154646">
<ele>2.656196</ele>
<time>2026-06-18T03:32:41.009Z</time>
</trkpt>
<trkpt lat="55.946228" lon="8.154402">
<ele>2.493881</ele>
<time>2026-06-18T03:32:50.353Z</time>
</trkpt>
<trkpt lat="55.949010" lon="8.151366">
<ele>1.566595</ele>
<time>2026-06-18T03:34:07.823Z</time>
</trkpt>
<trkpt lat="55.949002" lon="8.151090">
<ele>1.572445</ele>
<time>2026-06-18T03:34:11.176Z</time>
</trkpt>
<trkpt lat="55.948994" lon="8.150796">
<ele>1.578677</ele>
<time>2026-06-18T03:34:14.777Z</time>
</trkpt>
<trkpt lat="55.949000" lon="8.150441">
<ele>1.586195</ele>
<time>2026-06-18T03:34:19.172Z</time>
</trkpt>
<trkpt lat="55.949322" lon="8.150372">
<ele>1.598457</ele>
<time>2026-06-18T03:34:26.413Z</time>
</trkpt>
<trkpt lat="55.949383" lon="8.150455">
<ele>1.601356</ele>
<time>2026-06-18T03:34:28.140Z</time>
</trkpt>
<trkpt lat="55.949459" lon="8.150473">
<ele>1.604255</ele>
<time>2026-06-18T03:34:29.904Z</time>
</trkpt>
<trkpt lat="55.949861" lon="8.150415">
<ele>1.619503</ele>
<time>2026-06-18T03:34:39.393Z</time>
</trkpt>
<trkpt lat="55.949902" lon="8.150332">
<ele>1.621846</ele>
<time>2026-06-18T03:34:41.786Z</time>
</trkpt>
<trkpt lat="55.950118" lon="8.150093">
<ele>1.637271</ele>
<time>2026-06-18T03:34:51.573Z</time>
</trkpt>
<trkpt lat="55.950276" lon="8.149918">
<ele>1.650970</ele>
<time>2026-06-18T03:34:58.619Z</time>
</trkpt>
<trkpt lat="55.950468" lon="8.149709">
<ele>1.667539</ele>
<time>2026-06-18T03:35:07.097Z</time>
</trkpt>
<trkpt lat="55.950769" lon="8.149347">
<ele>1.694278</ele>
<time>2026-06-18T03:35:20.730Z</time>
</trkpt>
<trkpt lat="55.950842" lon="8.149275">
<ele>1.700423</ele>
<time>2026-06-18T03:35:23.836Z</time>
</trkpt>
<trkpt lat="55.951012" lon="8.149106">
<ele>1.714759</ele>
<time>2026-06-18T03:35:31.093Z</time>
</trkpt>
<trkpt lat="55.951453" lon="8.148591">
<ele>1.753584</ele>
<time>2026-06-18T03:35:50.637Z</time>
</trkpt>
<trkpt lat="55.951586" lon="8.148436">
<ele>1.749605</ele>
<time>2026-06-18T03:35:56.452Z</time>
</trkpt>
<trkpt lat="55.951895" lon="8.148093">
<ele>1.719842</ele>
<time>2026-06-18T03:36:09.551Z</time>
</trkpt>
<trkpt lat="55.952462" lon="8.147463">
<ele>1.665214</ele>
<time>2026-06-18T03:36:33.993Z</time>
</trkpt>
<trkpt lat="55.952653" lon="8.147264">
<ele>1.647125</ele>
<time>2026-06-18T03:36:42.116Z</time>
</trkpt>
<trkpt lat="55.952710" lon="8.147198">
<ele>1.641568</ele>
<time>2026-06-18T03:36:44.642Z</time>
</trkpt>
<trkpt lat="55.953338" lon="8.146477">
<ele>1.628089</ele>
<time>2026-06-18T03:37:12.313Z</time>
</trkpt>
<trkpt lat="55.954121" lon="8.145601">
<ele>1.671555</ele>
<time>2026-06-18T03:37:46.802Z</time>
</trkpt>
<trkpt lat="55.955076" lon="8.144694">
<ele>1.774186</ele>
<time>2026-06-18T03:38:27.019Z</time>
</trkpt>
<trkpt lat="55.955141" lon="8.144638">
<ele>1.784061</ele>
<time>2026-06-18T03:38:29.703Z</time>
</trkpt>
<trkpt lat="55.955301" lon="8.144500">
<ele>1.808375</ele>
<time>2026-06-18T03:38:36.327Z</time>
</trkpt>
<trkpt lat="55.955313" lon="8.144489">
<ele>1.810220</ele>
<time>2026-06-18T03:38:36.853Z</time>
</trkpt>
<trkpt lat="55.955408" lon="8.144413">
<ele>1.824465</ele>
<time>2026-06-18T03:38:40.744Z</time>
</trkpt>
<trkpt lat="55.955419" lon="8.144404">
<ele>1.826120</ele>
<time>2026-06-18T03:38:41.202Z</time>
</trkpt>
<trkpt lat="55.955689" lon="8.144168">
<ele>1.867254</ele>
<time>2026-06-18T03:38:52.596Z</time>
</trkpt>
<trkpt lat="55.956062" lon="8.143845">
<ele>1.923978</ele>
<time>2026-06-18T03:39:08.340Z</time>
</trkpt>
<trkpt lat="55.956129" lon="8.143780">
<ele>1.934412</ele>
<time>2026-06-18T03:39:11.257Z</time>
</trkpt>
<trkpt lat="55.956238" lon="8.143684">
<ele>1.974116</ele>
<time>2026-06-18T03:39:15.856Z</time>
</trkpt>
<trkpt lat="55.956319" lon="8.143612">
<ele>2.016313</ele>
<time>2026-06-18T03:39:19.295Z</time>
</trkpt>
<trkpt lat="55.956520" lon="8.143437">
<ele>2.120601</ele>
<time>2026-06-18T03:39:27.892Z</time>
</trkpt>
<trkpt lat="55.956816" lon="8.143174">
<ele>2.274789</ele>
<time>2026-06-18T03:39:40.610Z</time>
</trkpt>
<trkpt lat="55.956910" lon="8.143086">
<ele>2.324286</ele>
<time>2026-06-18T03:39:44.747Z</time>
</trkpt>
<trkpt lat="55.956993" lon="8.143008">
<ele>2.368027</ele>
<time>2026-06-18T03:39:48.404Z</time>
</trkpt>
<trkpt lat="55.957592" lon="8.142467">
<ele>2.681077</ele>
<time>2026-06-18T03:40:14.511Z</time>
</trkpt>
<trkpt lat="55.957988" lon="8.142122">
<ele>2.929757</ele>
<time>2026-06-18T03:40:31.811Z</time>
</trkpt>
<trkpt lat="55.958468" lon="8.141693">
<ele>3.281872</ele>
<time>2026-06-18T03:40:53.994Z</time>
</trkpt>
<trkpt lat="55.958556" lon="8.141616">
<ele>3.346157</ele>
<time>2026-06-18T03:40:58.186Z</time>
</trkpt>
<trkpt lat="55.958773" lon="8.141470">
<ele>3.498281</ele>
<time>2026-06-18T03:41:08.054Z</time>
</trkpt>
<trkpt lat="55.959132" lon="8.141407">
<ele>3.734935</ele>
<time>2026-06-18T03:41:22.686Z</time>
</trkpt>
<trkpt lat="55.959296" lon="8.141376">
<ele>3.843126</ele>
<time>2026-06-18T03:41:28.948Z</time>
</trkpt>
<trkpt lat="55.959303" lon="8.141373">
<ele>3.847849</ele>
<time>2026-06-18T03:41:29.222Z</time>
</trkpt>
<trkpt lat="55.959482" lon="8.141288">
<ele>3.949134</ele>
<time>2026-06-18T03:41:36.000Z</time>
</trkpt>
<trkpt lat="55.959528" lon="8.141261">
<ele>3.909763</ele>
<time>2026-06-18T03:41:37.770Z</time>
</trkpt>
<trkpt lat="55.959681" lon="8.141173">
<ele>3.779066</ele>
<time>2026-06-18T03:41:43.453Z</time>
</trkpt>
<trkpt lat="55.959877" lon="8.141152">
<ele>3.619408</ele>
<time>2026-06-18T03:41:50.337Z</time>
</trkpt>
<trkpt lat="55.960340" lon="8.141287">
<ele>3.237952</ele>
<time>2026-06-18T03:42:06.267Z</time>
</trkpt>
<trkpt lat="55.960700" lon="8.141449">
<ele>2.936085</ele>
<time>2026-06-18T03:42:18.452Z</time>
</trkpt>
<trkpt lat="55.960798" lon="8.141492">
<ele>2.854030</ele>
<time>2026-06-18T03:42:21.742Z</time>
</trkpt>
<trkpt lat="55.960919" lon="8.141544">
<ele>2.752836</ele>
<time>2026-06-18T03:42:25.790Z</time>
</trkpt>
<trkpt lat="55.961209" lon="8.141670">
<ele>2.510158</ele>
<time>2026-06-18T03:42:35.548Z</time>
</trkpt>
<trkpt lat="55.961435" lon="8.141769">
<ele>2.528046</ele>
<time>2026-06-18T03:42:43.503Z</time>
</trkpt>
<trkpt lat="55.961662" lon="8.141869">
<ele>2.560541</ele>
<time>2026-06-18T03:42:51.857Z</time>
</trkpt>
<trkpt lat="55.962529" lon="8.142280">
<ele>2.685216</ele>
<time>2026-06-18T03:43:26.848Z</time>
</trkpt>
<trkpt lat="55.962447" lon="8.142667">
<ele>2.717409</ele>
<time>2026-06-18T03:43:32.885Z</time>
</trkpt>
<trkpt lat="55.962431" lon="8.142752">
<ele>2.724385</ele>
<time>2026-06-18T03:43:34.181Z</time>
</trkpt>
<trkpt lat="55.962249" lon="8.143702">
<ele>2.653526</ele>
<time>2026-06-18T03:43:48.329Z</time>
</trkpt>
<trkpt lat="55.962189" lon="8.144014">
<ele>2.609285</ele>
<time>2026-06-18T03:43:52.525Z</time>
</trkpt>
<trkpt lat="55.962172" lon="8.144102">
<ele>2.596801</ele>
<time>2026-06-18T03:43:53.681Z</time>
</trkpt>
<trkpt lat="55.962097" lon="8.144491">
<ele>2.541627</ele>
<time>2026-06-18T03:43:58.736Z</time>
</trkpt>
<trkpt lat="55.962003" lon="8.144981">
<ele>2.472163</ele>
<time>2026-06-18T03:44:04.846Z</time>
</trkpt>
<trkpt lat="55.961900" lon="8.145521">
<ele>2.395658</ele>
<time>2026-06-18T03:44:11.257Z</time>
</trkpt>
<trkpt lat="55.961889" lon="8.145691">
<ele>2.372708</ele>
<time>2026-06-18T03:44:13.104Z</time>
</trkpt>
<trkpt lat="55.961878" lon="8.145879">
<ele>2.347359</ele>
<time>2026-06-18T03:44:15.114Z</time>
</trkpt>
<trkpt lat="55.961867" lon="8.146197">
<ele>2.272183</ele>
<time>2026-06-18T03:44:18.457Z</time>
</trkpt>
<trkpt lat="55.962886" lon="8.145953">
<ele>1.373461</ele>
<time>2026-06-18T03:44:37.647Z</time>
</trkpt>
<trkpt lat="55.963282" lon="8.145862">
<ele>1.024446</ele>
<time>2026-06-18T03:44:45.654Z</time>
</trkpt>
<trkpt lat="55.967368" lon="8.144887">
<ele>0.674662</ele>
<time>2026-06-18T03:46:15.967Z</time>
</trkpt>
<trkpt lat="55.968270" lon="8.144603">
<ele>1.465143</ele>
<time>2026-06-18T03:46:38.532Z</time>
</trkpt>
<trkpt lat="55.968975" lon="8.144310">
<ele>2.087837</ele>
<time>2026-06-18T03:46:59.153Z</time>
</trkpt>
<trkpt lat="55.968933" lon="8.144122">
<ele>2.180652</ele>
<time>2026-06-18T03:47:02.539Z</time>
</trkpt>
<trkpt lat="55.968962" lon="8.143966">
<ele>2.256024</ele>
<time>2026-06-18T03:47:06.699Z</time>
</trkpt>
<trkpt lat="55.968966" lon="8.143663">
<ele>2.394993</ele>
<time>2026-06-18T03:47:14.211Z</time>
</trkpt>
<trkpt lat="55.968922" lon="8.143189">
<ele>2.615298</ele>
<time>2026-06-18T03:47:25.869Z</time>
</trkpt>
<trkpt lat="55.968912" lon="8.143097">
<ele>2.658270</ele>
<time>2026-06-18T03:47:28.044Z</time>
</trkpt>
<trkpt lat="55.968891" lon="8.142871">
<ele>2.763314</ele>
<time>2026-06-18T03:47:33.384Z</time>
</trkpt>
<trkpt lat="55.968876" lon="8.142706">
<ele>2.839960</ele>
<time>2026-06-18T03:47:37.165Z</time>
</trkpt>
<trkpt lat="55.968854" lon="8.142469">
<ele>2.950114</ele>
<time>2026-06-18T03:47:42.493Z</time>
</trkpt>
<trkpt lat="55.968838" lon="8.142236">
<ele>3.057749</ele>
<time>2026-06-18T03:47:47.557Z</time>
</trkpt>
<trkpt lat="55.968882" lon="8.141903">
<ele>3.214633</ele>
<time>2026-06-18T03:47:54.821Z</time>
</trkpt>
<trkpt lat="55.969021" lon="8.141500">
<ele>3.431690</ele>
<time>2026-06-18T03:48:04.514Z</time>
</trkpt>
<trkpt lat="55.968986" lon="8.140971">
<ele>3.501116</ele>
<time>2026-06-18T03:48:15.418Z</time>
</trkpt>
<trkpt lat="55.968919" lon="8.140526">
<ele>3.469552</ele>
<time>2026-06-18T03:48:24.540Z</time>
</trkpt>
<trkpt lat="55.968924" lon="8.140451">
<ele>3.464379</ele>
<time>2026-06-18T03:48:26.026Z</time>
</trkpt>
<trkpt lat="55.968997" lon="8.140305">
<ele>3.450969</ele>
<time>2026-06-18T03:48:29.938Z</time>
</trkpt>
<trkpt lat="55.969044" lon="8.140226">
<ele>3.443071</ele>
<time>2026-06-18T03:48:32.260Z</time>
</trkpt>
<trkpt lat="55.969082" lon="8.140088">
<ele>3.432537</ele>
<time>2026-06-18T03:48:35.308Z</time>
</trkpt>
<trkpt lat="55.969111" lon="8.139765">
<ele>3.410131</ele>
<time>2026-06-18T03:48:41.805Z</time>
</trkpt>
<trkpt lat="55.969114" lon="8.139271">
<ele>3.376293</ele>
<time>2026-06-18T03:48:51.674Z</time>
</trkpt>
<trkpt lat="55.969119" lon="8.139197">
<ele>3.371187</ele>
<time>2026-06-18T03:48:53.180Z</time>
</trkpt>
<trkpt lat="55.969174" lon="8.138875">
<ele>3.348128</ele>
<time>2026-06-18T03:49:00.208Z</time>
</trkpt>
<trkpt lat="55.969215" lon="8.138710">
<ele>3.335763</ele>
<time>2026-06-18T03:49:04.033Z</time>
</trkpt>
<trkpt lat="55.969284" lon="8.138394">
<ele>3.312530</ele>
<time>2026-06-18T03:49:11.390Z</time>
</trkpt>
<trkpt lat="55.969344" lon="8.137953">
<ele>3.277621</ele>
<time>2026-06-18T03:49:21.237Z</time>
</trkpt>
<trkpt lat="55.969384" lon="8.137899">
<ele>3.270432</ele>
<time>2026-06-18T03:49:23.173Z</time>
</trkpt>
<trkpt lat="55.969480" lon="8.137825">
<ele>3.255438</ele>
<time>2026-06-18T03:49:27.167Z</time>
</trkpt>
<trkpt lat="55.969755" lon="8.137829">
<ele>3.215998</ele>
<time>2026-06-18T03:49:37.298Z</time>
</trkpt>
<trkpt lat="55.969825" lon="8.137844">
<ele>3.205887</ele>
<time>2026-06-18T03:49:39.898Z</time>
</trkpt>
<trkpt lat="55.969845" lon="8.137859">
<ele>3.202777</ele>
<time>2026-06-18T03:49:40.649Z</time>
</trkpt>
<trkpt lat="55.970019" lon="8.138013">
<ele>3.174930</ele>
<time>2026-06-18T03:49:47.637Z</time>
</trkpt>
<trkpt lat="55.970144" lon="8.138179">
<ele>3.152595</ele>
<time>2026-06-18T03:49:53.153Z</time>
</trkpt>
<trkpt lat="55.970320" lon="8.138513">
<ele>3.115776</ele>
<time>2026-06-18T03:50:02.167Z</time>
</trkpt>
<trkpt lat="55.970449" lon="8.138512">
<ele>3.097275</ele>
<time>2026-06-18T03:50:06.754Z</time>
</trkpt>
<trkpt lat="55.970546" lon="8.138492">
<ele>3.083272</ele>
<time>2026-06-18T03:50:10.290Z</time>
</trkpt>
<trkpt lat="55.970789" lon="8.138394">
<ele>3.047547</ele>
<time>2026-06-18T03:50:19.376Z</time>
</trkpt>
<trkpt lat="55.970928" lon="8.138337">
<ele>3.036327</ele>
<time>2026-06-18T03:50:24.581Z</time>
</trkpt>
<trkpt lat="55.970992" lon="8.138313">
<ele>3.031589</ele>
<time>2026-06-18T03:50:26.996Z</time>
</trkpt>
<trkpt lat="55.971004" lon="8.138312">
<ele>3.030719</ele>
<time>2026-06-18T03:50:27.423Z</time>
</trkpt>
<trkpt lat="55.971086" lon="8.138299">
<ele>3.024754</ele>
<time>2026-06-18T03:50:30.468Z</time>
</trkpt>
<trkpt lat="55.971195" lon="8.138246">
<ele>3.016570</ele>
<time>2026-06-18T03:50:34.630Z</time>
</trkpt>
<trkpt lat="55.971344" lon="8.138226">
<ele>3.005744</ele>
<time>2026-06-18T03:50:40.085Z</time>
</trkpt>
<trkpt lat="55.971375" lon="8.138236">
<ele>3.003461</ele>
<time>2026-06-18T03:50:41.224Z</time>
</trkpt>
<trkpt lat="55.971852" lon="8.138082">
<ele>2.968341</ele>
<time>2026-06-18T03:50:53.027Z</time>
</trkpt>
<trkpt lat="55.972016" lon="8.137884">
<ele>2.954001</ele>
<time>2026-06-18T03:50:57.943Z</time>
</trkpt>
<trkpt lat="55.972068" lon="8.137855">
<ele>2.950054</ele>
<time>2026-06-18T03:50:59.315Z</time>
</trkpt>
<trkpt lat="55.972150" lon="8.137893">
<ele>2.943916</ele>
<time>2026-06-18T03:51:01.402Z</time>
</trkpt>
<trkpt lat="55.972278" lon="8.138036">
<ele>2.932979</ele>
<time>2026-06-18T03:51:05.139Z</time>
</trkpt>
<trkpt lat="55.972429" lon="8.138125">
<ele>2.921459</ele>
<time>2026-06-18T03:51:09.074Z</time>
</trkpt>
<trkpt lat="55.972816" lon="8.138608">
<ele>2.943497</ele>
<time>2026-06-18T03:51:20.736Z</time>
</trkpt>
<trkpt lat="55.973226" lon="8.139002">
<ele>2.977084</ele>
<time>2026-06-18T03:51:32.500Z</time>
</trkpt>
<trkpt lat="55.973321" lon="8.139004">
<ele>2.983939</ele>
<time>2026-06-18T03:51:34.970Z</time>
</trkpt>
<trkpt lat="55.973703" lon="8.138810">
<ele>3.012592</ele>
<time>2026-06-18T03:51:45.235Z</time>
</trkpt>
<trkpt lat="55.973860" lon="8.138785">
<ele>3.023965</ele>
<time>2026-06-18T03:51:49.158Z</time>
</trkpt>
<trkpt lat="55.974193" lon="8.138868">
<ele>3.032416</ele>
<time>2026-06-18T03:51:57.349Z</time>
</trkpt>
<trkpt lat="55.974451" lon="8.138859">
<ele>2.953385</ele>
<time>2026-06-18T03:52:03.582Z</time>
</trkpt>
<trkpt lat="55.974506" lon="8.138859">
<ele>2.936541</ele>
<time>2026-06-18T03:52:05.529Z</time>
</trkpt>
<trkpt lat="55.974612" lon="8.138861">
<ele>2.904075</ele>
<time>2026-06-18T03:52:09.350Z</time>
</trkpt>
<trkpt lat="55.974697" lon="8.138859">
<ele>2.878041</ele>
<time>2026-06-18T03:52:12.359Z</time>
</trkpt>
<trkpt lat="55.975076" lon="8.138844">
<ele>2.761940</ele>
<time>2026-06-18T03:52:25.985Z</time>
</trkpt>
<trkpt lat="55.975119" lon="8.138815">
<ele>2.747864</ele>
<time>2026-06-18T03:52:27.602Z</time>
</trkpt>
<trkpt lat="55.975251" lon="8.138747">
<ele>2.705791</ele>
<time>2026-06-18T03:52:32.532Z</time>
</trkpt>
<trkpt lat="55.975396" lon="8.138656">
<ele>2.658725</ele>
<time>2026-06-18T03:52:37.922Z</time>
</trkpt>
<trkpt lat="55.975669" lon="8.138402">
<ele>2.564464</ele>
<time>2026-06-18T03:52:48.707Z</time>
</trkpt>
<trkpt lat="55.975893" lon="8.138199">
<ele>2.490805</ele>
<time>2026-06-18T03:52:57.595Z</time>
</trkpt>
<trkpt lat="55.976123" lon="8.138072">
<ele>2.452372</ele>
<time>2026-06-18T03:53:06.318Z</time>
</trkpt>
<trkpt lat="55.976265" lon="8.138054">
<ele>2.429644</ele>
<time>2026-06-18T03:53:11.589Z</time>
</trkpt>
<trkpt lat="55.976293" lon="8.137972">
<ele>2.421062</ele>
<time>2026-06-18T03:53:12.883Z</time>
</trkpt>
<trkpt lat="55.976298" lon="8.137735">
<ele>2.399876</ele>
<time>2026-06-18T03:53:16.140Z</time>
</trkpt>
<trkpt lat="55.976345" lon="8.137501">
<ele>2.377666</ele>
<time>2026-06-18T03:53:19.559Z</time>
</trkpt>
<trkpt lat="55.976448" lon="8.137391">
<ele>2.358509</ele>
<time>2026-06-18T03:53:23.995Z</time>
</trkpt>
<trkpt lat="55.976579" lon="8.137252">
<ele>2.334186</ele>
<time>2026-06-18T03:53:29.674Z</time>
</trkpt>
<trkpt lat="55.976743" lon="8.137048">
<ele>2.302285</ele>
<time>2026-06-18T03:53:37.008Z</time>
</trkpt>
<trkpt lat="55.976849" lon="8.137149">
<ele>2.283107</ele>
<time>2026-06-18T03:53:41.392Z</time>
</trkpt>
<trkpt lat="55.976909" lon="8.137089">
<ele>2.272130</ele>
<time>2026-06-18T03:53:43.038Z</time>
</trkpt>
<trkpt lat="55.977260" lon="8.137009">
<ele>2.215637</ele>
<time>2026-06-18T03:53:51.585Z</time>
</trkpt>
<trkpt lat="55.977525" lon="8.136892">
<ele>2.169390</ele>
<time>2026-06-18T03:54:01.555Z</time>
</trkpt>
<trkpt lat="55.977849" lon="8.136789">
<ele>2.112862</ele>
<time>2026-06-18T03:54:13.432Z</time>
</trkpt>
<trkpt lat="55.978081" lon="8.136734">
<ele>2.072662</ele>
<time>2026-06-18T03:54:21.942Z</time>
</trkpt>
<trkpt lat="55.978336" lon="8.136604">
<ele>2.027113</ele>
<time>2026-06-18T03:54:31.562Z</time>
</trkpt>
<trkpt lat="55.978634" lon="8.136673">
<ele>1.975497</ele>
<time>2026-06-18T03:54:42.499Z</time>
</trkpt>
<trkpt lat="55.978789" lon="8.136753">
<ele>1.947784</ele>
<time>2026-06-18T03:54:48.389Z</time>
</trkpt>
<trkpt lat="55.979026" lon="8.136848">
<ele>1.906063</ele>
<time>2026-06-18T03:54:57.265Z</time>
</trkpt>
<trkpt lat="55.979254" lon="8.136800">
<ele>1.900150</ele>
<time>2026-06-18T03:55:05.599Z</time>
</trkpt>
<trkpt lat="55.979473" lon="8.136725">
<ele>1.902469</ele>
<time>2026-06-18T03:55:13.667Z</time>
</trkpt>
<trkpt lat="55.979795" lon="8.136651">
<ele>1.905846</ele>
<time>2026-06-18T03:55:25.566Z</time>
</trkpt>
<trkpt lat="55.979840" lon="8.136643">
<ele>1.906316</ele>
<time>2026-06-18T03:55:27.251Z</time>
</trkpt>
<trkpt lat="55.980117" lon="8.136563">
<ele>1.909235</ele>
<time>2026-06-18T03:55:37.825Z</time>
</trkpt>
<trkpt lat="55.980143" lon="8.136556">
<ele>1.909508</ele>
<time>2026-06-18T03:55:38.816Z</time>
</trkpt>
<trkpt lat="55.980251" lon="8.136529">
<ele>1.910643</ele>
<time>2026-06-18T03:55:42.916Z</time>
</trkpt>
<trkpt lat="55.980596" lon="8.136454">
<ele>1.914258</ele>
<time>2026-06-18T03:55:51.825Z</time>
</trkpt>
<trkpt lat="55.980651" lon="8.136438">
<ele>1.914837</ele>
<time>2026-06-18T03:55:53.916Z</time>
</trkpt>
<trkpt lat="55.980948" lon="8.136368">
<ele>1.900520</ele>
<time>2026-06-18T03:56:05.114Z</time>
</trkpt>
<trkpt lat="55.981043" lon="8.136346">
<ele>1.884298</ele>
<time>2026-06-18T03:56:08.692Z</time>
</trkpt>
<trkpt lat="55.981421" lon="8.136275">
<ele>1.819937</ele>
<time>2026-06-18T03:56:18.048Z</time>
</trkpt>
<trkpt lat="55.981708" lon="8.136172">
<ele>1.770368</ele>
<time>2026-06-18T03:56:25.165Z</time>
</trkpt>
<trkpt lat="55.982002" lon="8.135969">
<ele>1.716999</ele>
<time>2026-06-18T03:56:32.766Z</time>
</trkpt>
<trkpt lat="55.982225" lon="8.135844">
<ele>1.677424</ele>
<time>2026-06-18T03:56:37.684Z</time>
</trkpt>
<trkpt lat="55.982334" lon="8.135738">
<ele>1.656411</ele>
<time>2026-06-18T03:56:40.277Z</time>
</trkpt>
<trkpt lat="55.982459" lon="8.135617">
<ele>1.632340</ele>
<time>2026-06-18T03:56:43.214Z</time>
</trkpt>
<trkpt lat="55.982493" lon="8.135584">
<ele>1.625788</ele>
<time>2026-06-18T03:56:43.998Z</time>
</trkpt>
<trkpt lat="55.982754" lon="8.135407">
<ele>1.568688</ele>
<time>2026-06-18T03:56:49.762Z</time>
</trkpt>
<trkpt lat="55.982983" lon="8.135355">
<ele>1.518247</ele>
<time>2026-06-18T03:56:54.561Z</time>
</trkpt>
<trkpt lat="55.983338" lon="8.135276">
<ele>1.440078</ele>
<time>2026-06-18T03:57:02.195Z</time>
</trkpt>
<trkpt lat="55.983573" lon="8.135225">
<ele>1.388352</ele>
<time>2026-06-18T03:57:07.287Z</time>
</trkpt>
<trkpt lat="55.983958" lon="8.135140">
<ele>1.303587</ele>
<time>2026-06-18T03:57:15.819Z</time>
</trkpt>
<trkpt lat="55.984305" lon="8.135061">
<ele>1.227153</ele>
<time>2026-06-18T03:57:23.451Z</time>
</trkpt>
<trkpt lat="55.984762" lon="8.134960">
<ele>1.213037</ele>
<time>2026-06-18T03:57:33.395Z</time>
</trkpt>
<trkpt lat="55.985028" lon="8.134904">
<ele>1.209053</ele>
<time>2026-06-18T03:57:39.172Z</time>
</trkpt>
<trkpt lat="55.985054" lon="8.135262">
<ele>1.206050</ele>
<time>2026-06-18T03:57:43.547Z</time>
</trkpt>
<trkpt lat="55.985146" lon="8.136538">
<ele>1.195346</ele>
<time>2026-06-18T03:57:59.465Z</time>
</trkpt>
<trkpt lat="55.985158" lon="8.136848">
<ele>1.192761</ele>
<time>2026-06-18T03:58:03.345Z</time>
</trkpt>
<trkpt lat="55.987035" lon="8.135677">
<ele>2.206264</ele>
<time>2026-06-18T03:58:50.805Z</time>
</trkpt>
<trkpt lat="55.987898" lon="8.135086">
<ele>3.411870</ele>
<time>2026-06-18T03:59:16.491Z</time>
</trkpt>
<trkpt lat="55.989170" lon="8.133943">
<ele>5.020769</ele>
<time>2026-06-18T03:59:57.443Z</time>
</trkpt>
<trkpt lat="55.989978" lon="8.133197">
<ele>5.896928</ele>
<time>2026-06-18T04:00:20.649Z</time>
</trkpt>
<trkpt lat="55.990343" lon="8.132859">
<ele>6.033341</ele>
<time>2026-06-18T04:00:29.529Z</time>
</trkpt>
<trkpt lat="55.991343" lon="8.131919">
<ele>5.947613</ele>
<time>2026-06-18T04:00:53.813Z</time>
</trkpt>
<trkpt lat="55.992434" lon="8.130916">
<ele>5.675858</ele>
<time>2026-06-18T04:01:21.112Z</time>
</trkpt>
<trkpt lat="55.993975" lon="8.129492">
<ele>4.734007</ele>
<time>2026-06-18T04:01:56.688Z</time>
</trkpt>
<trkpt lat="55.994344" lon="8.129109">
<ele>4.362560</ele>
<time>2026-06-18T04:02:04.731Z</time>
</trkpt>
<trkpt lat="55.994485" lon="8.128971">
<ele>4.222622</ele>
<time>2026-06-18T04:02:07.717Z</time>
</trkpt>
<trkpt lat="55.994510" lon="8.129062">
<ele>4.173258</ele>
<time>2026-06-18T04:02:08.789Z</time>
</trkpt>
<trkpt lat="55.994939" lon="8.128603">
<ele>3.771938</ele>
<time>2026-06-18T04:02:18.630Z</time>
</trkpt>
<trkpt lat="55.995301" lon="8.128228">
<ele>3.566920</ele>
<time>2026-06-18T04:02:27.276Z</time>
</trkpt>
<trkpt lat="55.995517" lon="8.128002">
<ele>3.444279</ele>
<time>2026-06-18T04:02:32.636Z</time>
</trkpt>
<trkpt lat="55.995629" lon="8.127884">
<ele>3.380575</ele>
<time>2026-06-18T04:02:35.403Z</time>
</trkpt>
<trkpt lat="55.995651" lon="8.127861">
<ele>3.368086</ele>
<time>2026-06-18T04:02:35.925Z</time>
</trkpt>
<trkpt lat="55.995964" lon="8.127529">
<ele>3.189744</ele>
<time>2026-06-18T04:02:43.680Z</time>
</trkpt>
<trkpt lat="55.996290" lon="8.127194">
<ele>3.005485</ele>
<time>2026-06-18T04:02:52.278Z</time>
</trkpt>
<trkpt lat="55.996458" lon="8.127026">
<ele>2.944819</ele>
<time>2026-06-18T04:02:56.870Z</time>
</trkpt>
<trkpt lat="55.996703" lon="8.126775">
<ele>3.008657</ele>
<time>2026-06-18T04:03:03.713Z</time>
</trkpt>
<trkpt lat="55.996815" lon="8.126676">
<ele>3.036903</ele>
<time>2026-06-18T04:03:06.663Z</time>
</trkpt>
<trkpt lat="55.997097" lon="8.126505">
<ele>3.104224</ele>
<time>2026-06-18T04:03:13.654Z</time>
</trkpt>
<trkpt lat="55.997259" lon="8.126443">
<ele>3.141679</ele>
<time>2026-06-18T04:03:17.639Z</time>
</trkpt>
<trkpt lat="55.997557" lon="8.126505">
<ele>3.209506</ele>
<time>2026-06-18T04:03:25.063Z</time>
</trkpt>
<trkpt lat="55.997619" lon="8.126583">
<ele>3.226645</ele>
<time>2026-06-18T04:03:27.004Z</time>
</trkpt>
<trkpt lat="55.997693" lon="8.126498">
<ele>3.246529</ele>
<time>2026-06-18T04:03:29.240Z</time>
</trkpt>
<trkpt lat="55.997749" lon="8.126487">
<ele>3.259266</ele>
<time>2026-06-18T04:03:30.705Z</time>
</trkpt>
<trkpt lat="55.997940" lon="8.126493">
<ele>3.302455</ele>
<time>2026-06-18T04:03:35.591Z</time>
</trkpt>
<trkpt lat="55.998039" lon="8.126501">
<ele>3.324860</ele>
<time>2026-06-18T04:03:38.103Z</time>
</trkpt>
<trkpt lat="55.998193" lon="8.126515">
<ele>3.307653</ele>
<time>2026-06-18T04:03:41.892Z</time>
</trkpt>
<trkpt lat="55.998341" lon="8.126527">
<ele>3.248808</ele>
<time>2026-06-18T04:03:45.402Z</time>
</trkpt>
<trkpt lat="55.998640" lon="8.126712">
<ele>3.123138</ele>
<time>2026-06-18T04:03:52.625Z</time>
</trkpt>
<trkpt lat="55.998694" lon="8.126748">
<ele>3.100247</ele>
<time>2026-06-18T04:03:53.890Z</time>
</trkpt>
<trkpt lat="55.998794" lon="8.126842">
<ele>3.055374</ele>
<time>2026-06-18T04:03:56.379Z</time>
</trkpt>
<trkpt lat="55.999061" lon="8.127162">
<ele>2.927707</ele>
<time>2026-06-18T04:04:03.438Z</time>
</trkpt>
<trkpt lat="55.999363" lon="8.127724">
<ele>2.754586</ele>
<time>2026-06-18T04:04:12.694Z</time>
</trkpt>
<trkpt lat="55.999524" lon="8.128029">
<ele>2.661426</ele>
<time>2026-06-18T04:04:17.382Z</time>
</trkpt>
<trkpt lat="55.999723" lon="8.128393">
<ele>2.476714</ele>
<time>2026-06-18T04:04:22.931Z</time>
</trkpt>
<trkpt lat="55.999732" lon="8.128538">
<ele>2.414570</ele>
<time>2026-06-18T04:04:24.522Z</time>
</trkpt>
<trkpt lat="55.999799" lon="8.128569">
<ele>2.361852</ele>
<time>2026-06-18T04:04:25.918Z</time>
</trkpt>
<trkpt lat="55.999837" lon="8.128516">
<ele>2.325143</ele>
<time>2026-06-18T04:04:26.874Z</time>
</trkpt>
<trkpt lat="56.000140" lon="8.128879">
<ele>2.047326</ele>
<time>2026-06-18T04:04:34.231Z</time>
</trkpt>
<trkpt lat="56.000175" lon="8.128923">
<ele>2.014736</ele>
<time>2026-06-18T04:04:35.137Z</time>
</trkpt>
<trkpt lat="56.000380" lon="8.129178">
<ele>1.824516</ele>
<time>2026-06-18T04:04:40.276Z</time>
</trkpt>
<trkpt lat="56.000431" lon="8.129233">
<ele>1.779149</ele>
<time>2026-06-18T04:04:41.547Z</time>
</trkpt>
<trkpt lat="56.000567" lon="8.129368">
<ele>1.660662</ele>
<time>2026-06-18T04:04:44.803Z</time>
</trkpt>
<trkpt lat="56.000955" lon="8.129635">
<ele>1.343977</ele>
<time>2026-06-18T04:04:53.649Z</time>
</trkpt>
<trkpt lat="56.001875" lon="8.129939">
<ele>1.046777</ele>
<time>2026-06-18T04:05:14.622Z</time>
</trkpt>
<trkpt lat="56.002261" lon="8.129965">
<ele>0.948134</ele>
<time>2026-06-18T04:05:23.021Z</time>
</trkpt>
<trkpt lat="56.002308" lon="8.129960">
<ele>0.936110</ele>
<time>2026-06-18T04:05:24.039Z</time>
</trkpt>
<trkpt lat="56.002572" lon="8.129882">
<ele>0.867778</ele>
<time>2026-06-18T04:05:29.747Z</time>
</trkpt>
<trkpt lat="56.003657" lon="8.129371">
<ele>1.432744</ele>
<time>2026-06-18T04:05:56.189Z</time>
</trkpt>
<trkpt lat="56.003705" lon="8.129350">
<ele>1.469934</ele>
<time>2026-06-18T04:05:57.516Z</time>
</trkpt>
<trkpt lat="56.003785" lon="8.129317">
<ele>1.531722</ele>
<time>2026-06-18T04:05:59.648Z</time>
</trkpt>
<trkpt lat="56.004103" lon="8.129249">
<ele>1.772751</ele>
<time>2026-06-18T04:06:08.307Z</time>
</trkpt>
<trkpt lat="56.004352" lon="8.129246">
<ele>1.960151</ele>
<time>2026-06-18T04:06:15.422Z</time>
</trkpt>
<trkpt lat="56.004423" lon="8.129279">
<ele>2.015360</ele>
<time>2026-06-18T04:06:17.586Z</time>
</trkpt>
<trkpt lat="56.004472" lon="8.129410">
<ele>2.081682</ele>
<time>2026-06-18T04:06:20.190Z</time>
</trkpt>
<trkpt lat="56.004513" lon="8.129443">
<ele>2.115519</ele>
<time>2026-06-18T04:06:21.517Z</time>
</trkpt>
<trkpt lat="56.004558" lon="8.129446">
<ele>2.149409</ele>
<time>2026-06-18T04:06:22.863Z</time>
</trkpt>
<trkpt lat="56.004646" lon="8.129336">
<ele>2.290389</ele>
<time>2026-06-18T04:06:26.141Z</time>
</trkpt>
<trkpt lat="56.004660" lon="8.129205">
<ele>2.388950</ele>
<time>2026-06-18T04:06:28.439Z</time>
</trkpt>
<trkpt lat="56.004628" lon="8.129084">
<ele>2.487866</ele>
<time>2026-06-18T04:06:30.770Z</time>
</trkpt>
<trkpt lat="56.004562" lon="8.129021">
<ele>2.586745</ele>
<time>2026-06-18T04:06:33.116Z</time>
</trkpt>
<trkpt lat="56.004642" lon="8.128292">
<ele>3.135751</ele>
<time>2026-06-18T04:06:46.287Z</time>
</trkpt>
<trkpt lat="56.004683" lon="8.128301">
<ele>3.190348</ele>
<time>2026-06-18T04:06:47.498Z</time>
</trkpt>
<trkpt lat="56.004823" lon="8.127888">
<ele>3.547263</ele>
<time>2026-06-18T04:06:55.008Z</time>
</trkpt>
<trkpt lat="56.005019" lon="8.127633">
<ele>3.867605</ele>
<time>2026-06-18T04:07:01.419Z</time>
</trkpt>
<trkpt lat="56.005123" lon="8.127572">
<ele>4.012265</ele>
<time>2026-06-18T04:07:04.190Z</time>
</trkpt>
<trkpt lat="56.005272" lon="8.127551">
<ele>4.209808</ele>
<time>2026-06-18T04:07:08.031Z</time>
</trkpt>
<trkpt lat="56.005327" lon="8.127543">
<ele>4.282742</ele>
<time>2026-06-18T04:07:09.411Z</time>
</trkpt>
<trkpt lat="56.005333" lon="8.127465">
<ele>4.340925</ele>
<time>2026-06-18T04:07:10.505Z</time>
</trkpt>
<trkpt lat="56.005450" lon="8.127499">
<ele>4.497592</ele>
<time>2026-06-18T04:07:13.549Z</time>
</trkpt>
<trkpt lat="56.005497" lon="8.127518">
<ele>4.516441</ele>
<time>2026-06-18T04:07:14.765Z</time>
</trkpt>
<trkpt lat="56.005521" lon="8.127244">
<ele>4.446144</ele>
<time>2026-06-18T04:07:18.822Z</time>
</trkpt>
<trkpt lat="56.005571" lon="8.127025">
<ele>4.386186</ele>
<time>2026-06-18T04:07:22.146Z</time>
</trkpt>
<trkpt lat="56.005694" lon="8.126801">
<ele>4.306608</ele>
<time>2026-06-18T04:07:26.416Z</time>
</trkpt>
<trkpt lat="56.005877" lon="8.126133">
<ele>4.118063</ele>
<time>2026-06-18T04:07:35.968Z</time>
</trkpt>
<trkpt lat="56.006334" lon="8.124843">
<ele>3.730988</ele>
<time>2026-06-18T04:07:54.566Z</time>
</trkpt>
<trkpt lat="56.006381" lon="8.124607">
<ele>3.664445</ele>
<time>2026-06-18T04:07:57.689Z</time>
</trkpt>
<trkpt lat="56.006371" lon="8.124341">
<ele>3.592302</ele>
<time>2026-06-18T04:08:01.007Z</time>
</trkpt>
<trkpt lat="56.006351" lon="8.124140">
<ele>3.537056</ele>
<time>2026-06-18T04:08:03.553Z</time>
</trkpt>
<trkpt lat="56.006377" lon="8.123925">
<ele>3.477531</ele>
<time>2026-06-18T04:08:06.287Z</time>
</trkpt>
<trkpt lat="56.006748" lon="8.123451">
<ele>3.256862</ele>
<time>2026-06-18T04:08:16.462Z</time>
</trkpt>
<trkpt lat="56.006833" lon="8.123218">
<ele>3.181578</ele>
<time>2026-06-18T04:08:20.044Z</time>
</trkpt>
<trkpt lat="56.006850" lon="8.123078">
<ele>3.142810</ele>
<time>2026-06-18T04:08:21.939Z</time>
</trkpt>
<trkpt lat="56.006821" lon="8.122798">
<ele>3.065753</ele>
<time>2026-06-18T04:08:25.684Z</time>
</trkpt>
<trkpt lat="56.006788" lon="8.122379">
<ele>2.951252</ele>
<time>2026-06-18T04:08:31.428Z</time>
</trkpt>
<trkpt lat="56.006653" lon="8.121892">
<ele>2.841414</ele>
<time>2026-06-18T04:08:39.003Z</time>
</trkpt>
<trkpt lat="56.006874" lon="8.121669">
<ele>2.839612</ele>
<time>2026-06-18T04:08:45.318Z</time>
</trkpt>
<trkpt lat="56.006938" lon="8.121565">
<ele>2.838999</ele>
<time>2026-06-18T04:08:47.449Z</time>
</trkpt>
<trkpt lat="56.007132" lon="8.120902">
<ele>2.836029</ele>
<time>2026-06-18T04:08:57.864Z</time>
</trkpt>
<trkpt lat="56.007224" lon="8.120702">
<ele>2.835001</ele>
<time>2026-06-18T04:09:01.509Z</time>
</trkpt>
<trkpt lat="56.007391" lon="8.120436">
<ele>2.833414</ele>
<time>2026-06-18T04:09:07.196Z</time>
</trkpt>
<trkpt lat="56.007514" lon="8.120300">
<ele>2.832387</ele>
<time>2026-06-18T04:09:10.855Z</time>
</trkpt>
<trkpt lat="56.008861" lon="8.119455">
<ele>2.597084</ele>
<time>2026-06-18T04:09:45.214Z</time>
</trkpt>
<trkpt lat="56.009046" lon="8.119289">
<ele>2.547987</ele>
<time>2026-06-18T04:09:50.102Z</time>
</trkpt>
<trkpt lat="56.010395" lon="8.117999">
<ele>2.264811</ele>
<time>2026-06-18T04:10:25.989Z</time>
</trkpt>
<trkpt lat="56.011327" lon="8.117282">
<ele>2.165927</ele>
<time>2026-06-18T04:10:50.925Z</time>
</trkpt>
<trkpt lat="56.012259" lon="8.116564">
<ele>2.423992</ele>
<time>2026-06-18T04:11:17.042Z</time>
</trkpt>
<trkpt lat="56.012467" lon="8.116409">
<ele>2.481296</ele>
<time>2026-06-18T04:11:22.906Z</time>
</trkpt>
<trkpt lat="56.014216" lon="8.115424">
<ele>3.241338</ele>
<time>2026-06-18T04:12:11.454Z</time>
</trkpt>
<trkpt lat="56.015436" lon="8.114749">
<ele>3.887044</ele>
<time>2026-06-18T04:12:45.832Z</time>
</trkpt>
<trkpt lat="56.015768" lon="8.114529">
<ele>4.072726</ele>
<time>2026-06-18T04:12:55.081Z</time>
</trkpt>
<trkpt lat="56.016451" lon="8.113973">
<ele>4.499065</ele>
<time>2026-06-18T04:13:14.917Z</time>
</trkpt>
<trkpt lat="56.017187" lon="8.113376">
<ele>5.061165</ele>
<time>2026-06-18T04:13:37.492Z</time>
</trkpt>
<trkpt lat="56.018149" lon="8.112827">
<ele>5.541131</ele>
<time>2026-06-18T04:14:06.120Z</time>
</trkpt>
<trkpt lat="56.018359" lon="8.112649">
<ele>5.457683</ele>
<time>2026-06-18T04:14:12.088Z</time>
</trkpt>
<trkpt lat="56.018603" lon="8.112592">
<ele>5.369318</ele>
<time>2026-06-18T04:14:18.005Z</time>
</trkpt>
<trkpt lat="56.018935" lon="8.112309">
<ele>5.237255</ele>
<time>2026-06-18T04:14:26.246Z</time>
</trkpt>
<trkpt lat="56.019474" lon="8.112175">
<ele>5.041837</ele>
<time>2026-06-18T04:14:37.944Z</time>
</trkpt>
<trkpt lat="56.020007" lon="8.112211">
<ele>4.862742</ele>
<time>2026-06-18T04:14:49.590Z</time>
</trkpt>
<trkpt lat="56.020368" lon="8.112214">
<ele>4.746475</ele>
<time>2026-06-18T04:14:57.758Z</time>
</trkpt>
<trkpt lat="56.020605" lon="8.112164">
<ele>4.669617</ele>
<time>2026-06-18T04:15:03.365Z</time>
</trkpt>
<trkpt lat="56.021013" lon="8.112281">
<ele>4.536537</ele>
<time>2026-06-18T04:15:13.417Z</time>
</trkpt>
<trkpt lat="56.021181" lon="8.112288">
<ele>4.482416</ele>
<time>2026-06-18T04:15:17.255Z</time>
</trkpt>
<trkpt lat="56.021309" lon="8.112197">
<ele>4.438057</ele>
<time>2026-06-18T04:15:20.460Z</time>
</trkpt>
<trkpt lat="56.021490" lon="8.112193">
<ele>4.388352</ele>
<time>2026-06-18T04:15:24.727Z</time>
</trkpt>
<trkpt lat="56.021805" lon="8.111972">
<ele>4.358010</ele>
<time>2026-06-18T04:15:32.698Z</time>
</trkpt>
<trkpt lat="56.022027" lon="8.111892">
<ele>4.337703</ele>
<time>2026-06-18T04:15:37.855Z</time>
</trkpt>
<trkpt lat="56.022256" lon="8.111837">
<ele>4.316983</ele>
<time>2026-06-18T04:15:42.912Z</time>
</trkpt>
<trkpt lat="56.022444" lon="8.111915">
<ele>4.299677</ele>
<time>2026-06-18T04:15:47.072Z</time>
</trkpt>
<trkpt lat="56.022527" lon="8.111998">
<ele>4.291151</ele>
<time>2026-06-18T04:15:49.087Z</time>
</trkpt>
<trkpt lat="56.022728" lon="8.112310">
<ele>4.267289</ele>
<time>2026-06-18T04:15:54.723Z</time>
</trkpt>
<trkpt lat="56.022965" lon="8.112133">
<ele>4.244259</ele>
<time>2026-06-18T04:16:00.155Z</time>
</trkpt>
<trkpt lat="56.023325" lon="8.111865">
<ele>4.139335</ele>
<time>2026-06-18T04:16:08.456Z</time>
</trkpt>
<trkpt lat="56.023509" lon="8.111728">
<ele>4.062156</ele>
<time>2026-06-18T04:16:12.623Z</time>
</trkpt>
<trkpt lat="56.023830" lon="8.111519">
<ele>3.929872</ele>
<time>2026-06-18T04:16:19.565Z</time>
</trkpt>
<trkpt lat="56.024069" lon="8.111384">
<ele>3.832814</ele>
<time>2026-06-18T04:16:24.653Z</time>
</trkpt>
<trkpt lat="56.024498" lon="8.111271">
<ele>3.664888</ele>
<time>2026-06-18T04:16:33.738Z</time>
</trkpt>
<trkpt lat="56.025019" lon="8.111234">
<ele>3.510308</ele>
<time>2026-06-18T04:16:44.820Z</time>
</trkpt>
<trkpt lat="56.025045" lon="8.111234">
<ele>3.506966</ele>
<time>2026-06-18T04:16:45.377Z</time>
</trkpt>
<trkpt lat="56.025492" lon="8.111223">
<ele>3.449505</ele>
<time>2026-06-18T04:16:57.965Z</time>
</trkpt>
<trkpt lat="56.025543" lon="8.111178">
<ele>3.442196</ele>
<time>2026-06-18T04:16:59.578Z</time>
</trkpt>
<trkpt lat="56.025821" lon="8.111168">
<ele>3.406455</ele>
<time>2026-06-18T04:17:07.508Z</time>
</trkpt>
<trkpt lat="56.026096" lon="8.111166">
<ele>3.371107</ele>
<time>2026-06-18T04:17:14.213Z</time>
</trkpt>
<trkpt lat="56.026217" lon="8.111123">
<ele>3.355251</ele>
<time>2026-06-18T04:17:17.267Z</time>
</trkpt>
<trkpt lat="56.027273" lon="8.110606">
<ele>3.347878</ele>
<time>2026-06-18T04:17:45.039Z</time>
</trkpt>
<trkpt lat="56.027514" lon="8.110564">
<ele>3.363859</ele>
<time>2026-06-18T04:17:51.340Z</time>
</trkpt>
<trkpt lat="56.027644" lon="8.110575">
<ele>3.372449</ele>
<time>2026-06-18T04:17:54.706Z</time>
</trkpt>
<trkpt lat="56.028349" lon="8.111132">
<ele>3.411047</ele>
<time>2026-06-18T04:18:13.717Z</time>
</trkpt>
<trkpt lat="56.028519" lon="8.111307">
<ele>3.343171</ele>
<time>2026-06-18T04:18:18.345Z</time>
</trkpt>
<trkpt lat="56.028796" lon="8.111316">
<ele>3.247285</ele>
<time>2026-06-18T04:18:24.753Z</time>
</trkpt>
<trkpt lat="56.028838" lon="8.111311">
<ele>3.232716</ele>
<time>2026-06-18T04:18:25.715Z</time>
</trkpt>
<trkpt lat="56.029203" lon="8.111268">
<ele>3.106116</ele>
<time>2026-06-18T04:18:34.071Z</time>
</trkpt>
<trkpt lat="56.029754" lon="8.111300">
<ele>2.915314</ele>
<time>2026-06-18T04:18:46.684Z</time>
</trkpt>
<trkpt lat="56.029850" lon="8.111341">
<ele>2.881155</ele>
<time>2026-06-18T04:18:48.966Z</time>
</trkpt>
<trkpt lat="56.029921" lon="8.111439">
<ele>2.850123</ele>
<time>2026-06-18T04:18:51.052Z</time>
</trkpt>
<trkpt lat="56.030110" lon="8.111870">
<ele>2.812448</ele>
<time>2026-06-18T04:18:58.392Z</time>
</trkpt>
<trkpt lat="56.030210" lon="8.111748">
<ele>2.822878</ele>
<time>2026-06-18T04:19:01.434Z</time>
</trkpt>
<trkpt lat="56.030457" lon="8.111506">
<ele>2.847147</ele>
<time>2026-06-18T04:19:08.531Z</time>
</trkpt>
<trkpt lat="56.030709" lon="8.111405">
<ele>2.869403</ele>
<time>2026-06-18T04:19:15.074Z</time>
</trkpt>
<trkpt lat="56.031014" lon="8.111296">
<ele>2.896208</ele>
<time>2026-06-18T04:19:23.013Z</time>
</trkpt>
<trkpt lat="56.031180" lon="8.111099">
<ele>2.913374</ele>
<time>2026-06-18T04:19:28.086Z</time>
</trkpt>
<trkpt lat="56.031251" lon="8.111057">
<ele>2.919819</ele>
<time>2026-06-18T04:19:29.981Z</time>
</trkpt>
<trkpt lat="56.032530" lon="8.111354">
<ele>3.274130</ele>
<time>2026-06-18T04:20:02.702Z</time>
</trkpt>
<trkpt lat="56.032636" lon="8.111273">
<ele>3.315381</ele>
<time>2026-06-18T04:20:05.665Z</time>
</trkpt>
<trkpt lat="56.033061" lon="8.110799">
<ele>3.494610</ele>
<time>2026-06-18T04:20:18.904Z</time>
</trkpt>
<trkpt lat="56.033541" lon="8.110426">
<ele>3.700320</ele>
<time>2026-06-18T04:20:33.503Z</time>
</trkpt>
<trkpt lat="56.034482" lon="8.109533">
<ele>4.164823</ele>
<time>2026-06-18T04:21:02.777Z</time>
</trkpt>
<trkpt lat="56.035090" lon="8.109281">
<ele>4.350783</ele>
<time>2026-06-18T04:21:18.234Z</time>
</trkpt>
<trkpt lat="56.035829" lon="8.109517">
<ele>4.164705</ele>
<time>2026-06-18T04:21:35.572Z</time>
</trkpt>
<trkpt lat="56.036609" lon="8.109545">
<ele>3.971318</ele>
<time>2026-06-18T04:21:53.675Z</time>
</trkpt>
<trkpt lat="56.036691" lon="8.109482">
<ele>3.949198</ele>
<time>2026-06-18T04:21:55.858Z</time>
</trkpt>
<trkpt lat="56.037118" lon="8.108448">
<ele>4.199860</ele>
<time>2026-06-18T04:22:14.353Z</time>
</trkpt>
<trkpt lat="56.037273" lon="8.107907">
<ele>4.334379</ele>
<time>2026-06-18T04:22:23.510Z</time>
</trkpt>
<trkpt lat="56.038057" lon="8.105070">
<ele>5.029421</ele>
<time>2026-06-18T04:23:11.347Z</time>
</trkpt>
<trkpt lat="56.038133" lon="8.104854">
<ele>5.085133</ele>
<time>2026-06-18T04:23:14.943Z</time>
</trkpt>
<trkpt lat="56.038581" lon="8.104224">
<ele>5.307703</ele>
<time>2026-06-18T04:23:29.254Z</time>
</trkpt>
<trkpt lat="56.038671" lon="8.104144">
<ele>5.346960</ele>
<time>2026-06-18T04:23:31.786Z</time>
</trkpt>
<trkpt lat="56.039289" lon="8.104167">
<ele>5.654012</ele>
<time>2026-06-18T04:23:47.837Z</time>
</trkpt>
<trkpt lat="56.040185" lon="8.104183">
<ele>6.100809</ele>
<time>2026-06-18T04:24:11.987Z</time>
</trkpt>
<trkpt lat="56.040260" lon="8.104103">
<ele>6.144342</ele>
<time>2026-06-18T04:24:14.422Z</time>
</trkpt>
<trkpt lat="56.040473" lon="8.103747">
<ele>6.273110</ele>
<time>2026-06-18T04:24:22.607Z</time>
</trkpt>
<trkpt lat="56.040916" lon="8.102834">
<ele>6.476047</ele>
<time>2026-06-18T04:24:41.349Z</time>
</trkpt>
<trkpt lat="56.041457" lon="8.102120">
<ele>6.677957</ele>
<time>2026-06-18T04:24:58.177Z</time>
</trkpt>
<trkpt lat="56.041556" lon="8.102019">
<ele>6.712188</ele>
<time>2026-06-18T04:25:01.112Z</time>
</trkpt>
<trkpt lat="56.041801" lon="8.101917">
<ele>6.787751</ele>
<time>2026-06-18T04:25:07.325Z</time>
</trkpt>
<trkpt lat="56.042099" lon="8.101930">
<ele>6.679065</ele>
<time>2026-06-18T04:25:14.422Z</time>
</trkpt>
<trkpt lat="56.042448" lon="8.101959">
<ele>6.550050</ele>
<time>2026-06-18T04:25:22.323Z</time>
</trkpt>
<trkpt lat="56.042622" lon="8.101973">
<ele>6.485731</ele>
<time>2026-06-18T04:25:26.180Z</time>
</trkpt>
<trkpt lat="56.043229" lon="8.102023">
<ele>6.261345</ele>
<time>2026-06-18T04:25:39.960Z</time>
</trkpt>
<trkpt lat="56.043570" lon="8.102066">
<ele>6.135110</ele>
<time>2026-06-18T04:25:48.231Z</time>
</trkpt>
<trkpt lat="56.043662" lon="8.102079">
<ele>6.112062</ele>
<time>2026-06-18T04:25:50.510Z</time>
</trkpt>
<trkpt lat="56.044370" lon="8.102139">
<ele>5.975032</ele>
<time>2026-06-18T04:26:07.845Z</time>
</trkpt>
<trkpt lat="56.045032" lon="8.102223">
<ele>5.846728</ele>
<time>2026-06-18T04:26:24.047Z</time>
</trkpt>
<trkpt lat="56.045255" lon="8.102911">
<ele>5.736034</ele>
<time>2026-06-18T04:26:34.515Z</time>
</trkpt>
<trkpt lat="56.045338" lon="8.103006">
<ele>5.686753</ele>
<time>2026-06-18T04:26:36.780Z</time>
</trkpt>
<trkpt lat="56.045508" lon="8.103049">
<ele>5.600864</ele>
<time>2026-06-18T04:26:40.675Z</time>
</trkpt>
<trkpt lat="56.045855" lon="8.103219">
<ele>5.420892</ele>
<time>2026-06-18T04:26:48.667Z</time>
</trkpt>
<trkpt lat="56.046029" lon="8.103156">
<ele>5.332085</ele>
<time>2026-06-18T04:26:52.562Z</time>
</trkpt>
<trkpt lat="56.046397" lon="8.103195">
<ele>5.147667</ele>
<time>2026-06-18T04:27:00.910Z</time>
</trkpt>
<trkpt lat="56.046593" lon="8.103259">
<ele>5.047999</ele>
<time>2026-06-18T04:27:05.609Z</time>
</trkpt>
<trkpt lat="56.046826" lon="8.103263">
<ele>4.931432</ele>
<time>2026-06-18T04:27:11.065Z</time>
</trkpt>
<trkpt lat="56.047163" lon="8.103355">
<ele>4.942477</ele>
<time>2026-06-18T04:27:19.150Z</time>
</trkpt>
<trkpt lat="56.047271" lon="8.103664">
<ele>5.000377</ele>
<time>2026-06-18T04:27:24.060Z</time>
</trkpt>
<trkpt lat="56.047377" lon="8.103872">
<ele>5.045102</ele>
<time>2026-06-18T04:27:27.905Z</time>
</trkpt>
<trkpt lat="56.047491" lon="8.104293">
<ele>5.119418</ele>
<time>2026-06-18T04:27:34.474Z</time>
</trkpt>
<trkpt lat="56.047626" lon="8.104664">
<ele>5.189751</ele>
<time>2026-06-18T04:27:41.007Z</time>
</trkpt>
<trkpt lat="56.047809" lon="8.105528">
<ele>5.336523</ele>
<time>2026-06-18T04:27:55.414Z</time>
</trkpt>
<trkpt lat="56.047956" lon="8.105852">
<ele>5.389590</ele>
<time>2026-06-18T04:28:01.815Z</time>
</trkpt>
<trkpt lat="56.048024" lon="8.105974">
<ele>5.392200</ele>
<time>2026-06-18T04:28:04.462Z</time>
</trkpt>
<trkpt lat="56.048097" lon="8.106040">
<ele>5.394417</ele>
<time>2026-06-18T04:28:06.695Z</time>
</trkpt>
<trkpt lat="56.048311" lon="8.106176">
<ele>5.400573</ele>
<time>2026-06-18T04:28:12.891Z</time>
</trkpt>
<trkpt lat="56.048453" lon="8.106173">
<ele>5.404424</ele>
<time>2026-06-18T04:28:16.721Z</time>
</trkpt>
<trkpt lat="56.048888" lon="8.106200">
<ele>5.416225</ele>
<time>2026-06-18T04:28:27.804Z</time>
</trkpt>
<trkpt lat="56.049480" lon="8.106357">
<ele>5.432451</ele>
<time>2026-06-18T04:28:41.872Z</time>
</trkpt>
<trkpt lat="56.049847" lon="8.106419">
<ele>5.297989</ele>
<time>2026-06-18T04:28:49.940Z</time>
</trkpt>
<trkpt lat="56.050006" lon="8.106512">
<ele>5.183077</ele>
<time>2026-06-18T04:28:53.585Z</time>
</trkpt>
<trkpt lat="56.050117" lon="8.106584">
<ele>5.101972</ele>
<time>2026-06-18T04:28:56.165Z</time>
</trkpt>
<trkpt lat="56.050187" lon="8.106630">
<ele>5.050746</ele>
<time>2026-06-18T04:28:57.801Z</time>
</trkpt>
<trkpt lat="56.050274" lon="8.106659">
<ele>4.989950</ele>
<time>2026-06-18T04:28:59.734Z</time>
</trkpt>
<trkpt lat="56.050672" lon="8.106841">
<ele>4.707752</ele>
<time>2026-06-18T04:29:08.728Z</time>
</trkpt>
<trkpt lat="56.050788" lon="8.106841">
<ele>4.628060</ele>
<time>2026-06-18T04:29:11.300Z</time>
</trkpt>
<trkpt lat="56.051292" lon="8.106668">
<ele>4.275511</ele>
<time>2026-06-18T04:29:23.036Z</time>
</trkpt>
<trkpt lat="56.051592" lon="8.106561">
<ele>4.239240</ele>
<time>2026-06-18T04:29:30.290Z</time>
</trkpt>
<trkpt lat="56.051899" lon="8.106507">
<ele>4.298381</ele>
<time>2026-06-18T04:29:37.719Z</time>
</trkpt>
<trkpt lat="56.052039" lon="8.106384">
<ele>4.328278</ele>
<time>2026-06-18T04:29:41.504Z</time>
</trkpt>
<trkpt lat="56.052090" lon="8.106091">
<ele>4.361136</ele>
<time>2026-06-18T04:29:45.740Z</time>
</trkpt>
<trkpt lat="56.052184" lon="8.104559">
<ele>4.526144</ele>
<time>2026-06-18T04:30:08.316Z</time>
</trkpt>
<trkpt lat="56.052277" lon="8.103985">
<ele>4.775672</ele>
<time>2026-06-18T04:30:17.698Z</time>
</trkpt>
<trkpt lat="56.052601" lon="8.102355">
<ele>5.742111</ele>
<time>2026-06-18T04:30:46.678Z</time>
</trkpt>
<trkpt lat="56.052653" lon="8.102256">
<ele>5.818028</ele>
<time>2026-06-18T04:30:48.953Z</time>
</trkpt>
<trkpt lat="56.052944" lon="8.101966">
<ele>6.151140</ele>
<time>2026-06-18T04:30:58.792Z</time>
</trkpt>
<trkpt lat="56.053138" lon="8.101600">
<ele>6.323439</ele>
<time>2026-06-18T04:31:06.488Z</time>
</trkpt>
<trkpt lat="56.053171" lon="8.101503">
<ele>6.307679</ele>
<time>2026-06-18T04:31:08.205Z</time>
</trkpt>
<trkpt lat="56.053432" lon="8.100790">
<ele>6.189383</ele>
<time>2026-06-18T04:31:20.075Z</time>
</trkpt>
<trkpt lat="56.053489" lon="8.100706">
<ele>6.171041</ele>
<time>2026-06-18T04:31:21.795Z</time>
</trkpt>
<trkpt lat="56.053714" lon="8.100604">
<ele>6.113369</ele>
<time>2026-06-18T04:31:27.259Z</time>
</trkpt>
<trkpt lat="56.054047" lon="8.100633">
<ele>6.030527</ele>
<time>2026-06-18T04:31:34.773Z</time>
</trkpt>
<trkpt lat="56.054541" lon="8.100969">
<ele>5.899222</ele>
<time>2026-06-18T04:31:46.295Z</time>
</trkpt>
<trkpt lat="56.054615" lon="8.100985">
<ele>5.878678</ele>
<time>2026-06-18T04:31:47.948Z</time>
</trkpt>
<trkpt lat="56.054927" lon="8.100751">
<ele>5.784969</ele>
<time>2026-06-18T04:31:55.608Z</time>
</trkpt>
<trkpt lat="56.055425" lon="8.100580">
<ele>5.644494</ele>
<time>2026-06-18T04:32:07.646Z</time>
</trkpt>
<trkpt lat="56.055521" lon="8.100588">
<ele>5.617870</ele>
<time>2026-06-18T04:32:09.976Z</time>
</trkpt>
<trkpt lat="56.056192" lon="8.100905">
<ele>5.425622</ele>
<time>2026-06-18T04:32:27.048Z</time>
</trkpt>
<trkpt lat="56.056600" lon="8.101150">
<ele>5.394286</ele>
<time>2026-06-18T04:32:37.536Z</time>
</trkpt>
<trkpt lat="56.057576" lon="8.101730">
<ele>5.376805</ele>
<time>2026-06-18T04:33:03.029Z</time>
</trkpt>
<trkpt lat="56.057645" lon="8.101796">
<ele>5.375476</ele>
<time>2026-06-18T04:33:04.996Z</time>
</trkpt>
<trkpt lat="56.057889" lon="8.102193">
<ele>5.369872</ele>
<time>2026-06-18T04:33:13.240Z</time>
</trkpt>
<trkpt lat="56.057962" lon="8.102242">
<ele>5.357572</ele>
<time>2026-06-18T04:33:15.171Z</time>
</trkpt>
<trkpt lat="56.058103" lon="8.102223">
<ele>5.326148</ele>
<time>2026-06-18T04:33:18.692Z</time>
</trkpt>
<trkpt lat="56.059415" lon="8.101617">
<ele>5.025031</ele>
<time>2026-06-18T04:33:50.860Z</time>
</trkpt>
<trkpt lat="56.059816" lon="8.101674">
<ele>4.976334</ele>
<time>2026-06-18T04:34:00.150Z</time>
</trkpt>
<trkpt lat="56.060103" lon="8.101714">
<ele>4.988730</ele>
<time>2026-06-18T04:34:06.923Z</time>
</trkpt>
<trkpt lat="56.060233" lon="8.101797">
<ele>4.994672</ele>
<time>2026-06-18T04:34:10.195Z</time>
</trkpt>
<trkpt lat="56.060884" lon="8.102240">
<ele>5.024659</ele>
<time>2026-06-18T04:34:27.521Z</time>
</trkpt>
<trkpt lat="56.061643" lon="8.102654">
<ele>5.113841</ele>
<time>2026-06-18T04:34:48.738Z</time>
</trkpt>
<trkpt lat="56.061723" lon="8.102642">
<ele>5.133629</ele>
<time>2026-06-18T04:34:50.931Z</time>
</trkpt>
<trkpt lat="56.063015" lon="8.101931">
<ele>5.466768</ele>
<time>2026-06-18T04:35:25.827Z</time>
</trkpt>
<trkpt lat="56.063105" lon="8.101922">
<ele>5.488986</ele>
<time>2026-06-18T04:35:27.989Z</time>
</trkpt>
<trkpt lat="56.063855" lon="8.102398">
<ele>5.342640</ele>
<time>2026-06-18T04:35:46.943Z</time>
</trkpt>
<trkpt lat="56.063978" lon="8.102450">
<ele>5.318972</ele>
<time>2026-06-18T04:35:49.934Z</time>
</trkpt>
<trkpt lat="56.064253" lon="8.102472">
<ele>5.267419</ele>
<time>2026-06-18T04:35:56.448Z</time>
</trkpt>
<trkpt lat="56.064482" lon="8.102589">
<ele>5.222822</ele>
<time>2026-06-18T04:36:02.124Z</time>
</trkpt>
<trkpt lat="56.064923" lon="8.103096">
<ele>5.126919</ele>
<time>2026-06-18T04:36:14.636Z</time>
</trkpt>
<trkpt lat="56.064990" lon="8.103227">
<ele>5.109775</ele>
<time>2026-06-18T04:36:17.019Z</time>
</trkpt>
<trkpt lat="56.065042" lon="8.103421">
<ele>5.089010</ele>
<time>2026-06-18T04:36:19.920Z</time>
</trkpt>
<trkpt lat="56.065228" lon="8.103768">
<ele>5.042592</ele>
<time>2026-06-18T04:36:26.410Z</time>
</trkpt>
<trkpt lat="56.065411" lon="8.103981">
<ele>5.004870</ele>
<time>2026-06-18T04:36:31.707Z</time>
</trkpt>
<trkpt lat="56.065463" lon="8.105249">
<ele>4.882190</ele>
<time>2026-06-18T04:36:48.797Z</time>
</trkpt>
<trkpt lat="56.065443" lon="8.105751">
<ele>4.836058</ele>
<time>2026-06-18T04:36:55.500Z</time>
</trkpt>
<trkpt lat="56.065067" lon="8.109253">
<ele>4.564478</ele>
<time>2026-06-18T04:37:43.729Z</time>
</trkpt>
<trkpt lat="56.065028" lon="8.110173">
<ele>4.459305</ele>
<time>2026-06-18T04:37:56.265Z</time>
</trkpt>
<trkpt lat="56.065037" lon="8.110378">
<ele>4.435865</ele>
<time>2026-06-18T04:37:59.026Z</time>
</trkpt>
<trkpt lat="56.065130" lon="8.110803">
<ele>4.383830</ele>
<time>2026-06-18T04:38:05.113Z</time>
</trkpt>
<trkpt lat="56.065202" lon="8.110890">
<ele>4.366096</ele>
<time>2026-06-18T04:38:07.197Z</time>
</trkpt>
<trkpt lat="56.065520" lon="8.110906">
<ele>4.301137</ele>
<time>2026-06-18T04:38:14.705Z</time>
</trkpt>
<trkpt lat="56.065718" lon="8.111095">
<ele>4.255325</ele>
<time>2026-06-18T04:38:19.953Z</time>
</trkpt>
<trkpt lat="56.066059" lon="8.111764">
<ele>4.167972</ele>
<time>2026-06-18T04:38:31.916Z</time>
</trkpt>
<trkpt lat="56.066170" lon="8.112175">
<ele>4.124627</ele>
<time>2026-06-18T04:38:37.917Z</time>
</trkpt>
<trkpt lat="56.066234" lon="8.112332">
<ele>4.106172</ele>
<time>2026-06-18T04:38:40.469Z</time>
</trkpt>
<trkpt lat="56.066339" lon="8.112414">
<ele>4.086692</ele>
<time>2026-06-18T04:38:43.165Z</time>
</trkpt>
<trkpt lat="56.066814" lon="8.112616">
<ele>4.003669</ele>
<time>2026-06-18T04:38:54.739Z</time>
</trkpt>
<trkpt lat="56.067025" lon="8.112659">
<ele>3.967555</ele>
<time>2026-06-18T04:38:59.917Z</time>
</trkpt>
<trkpt lat="56.067232" lon="8.112746">
<ele>3.970283</ele>
<time>2026-06-18T04:39:05.293Z</time>
</trkpt>
<trkpt lat="56.067836" lon="8.112894">
<ele>4.270909</ele>
<time>2026-06-18T04:39:21.662Z</time>
</trkpt>
<trkpt lat="56.067885" lon="8.112907">
<ele>4.295336</ele>
<time>2026-06-18T04:39:23.011Z</time>
</trkpt>
<trkpt lat="56.068366" lon="8.113039">
<ele>4.535300</ele>
<time>2026-06-18T04:39:36.345Z</time>
</trkpt>
<trkpt lat="56.068650" lon="8.113028">
<ele>4.675382</ele>
<time>2026-06-18T04:39:44.113Z</time>
</trkpt>
<trkpt lat="56.068769" lon="8.112959">
<ele>4.737062</ele>
<time>2026-06-18T04:39:47.540Z</time>
</trkpt>
<trkpt lat="56.068870" lon="8.113036">
<ele>4.791191</ele>
<time>2026-06-18T04:39:51.871Z</time>
</trkpt>
<trkpt lat="56.069099" lon="8.113104">
<ele>4.845857</ele>
<time>2026-06-18T04:40:00.930Z</time>
</trkpt>
<trkpt lat="56.069672" lon="8.113213">
<ele>4.910238</ele>
<time>2026-06-18T04:40:22.796Z</time>
</trkpt>
<trkpt lat="56.069790" lon="8.113307">
<ele>4.924667</ele>
<time>2026-06-18T04:40:27.613Z</time>
</trkpt>
<trkpt lat="56.070023" lon="8.113385">
<ele>4.951151</ele>
<time>2026-06-18T04:40:33.452Z</time>
</trkpt>
<trkpt lat="56.070246" lon="8.113455">
<ele>4.976446</ele>
<time>2026-06-18T04:40:39.049Z</time>
</trkpt>
<trkpt lat="56.070571" lon="8.113429">
<ele>5.012795</ele>
<time>2026-06-18T04:40:46.991Z</time>
</trkpt>
<trkpt lat="56.070725" lon="8.113344">
<ele>5.026909</ele>
<time>2026-06-18T04:40:50.891Z</time>
</trkpt>
<trkpt lat="56.070923" lon="8.113386">
<ele>4.991337</ele>
<time>2026-06-18T04:40:55.676Z</time>
</trkpt>
<trkpt lat="56.071183" lon="8.113360">
<ele>4.944879</ele>
<time>2026-06-18T04:41:01.934Z</time>
</trkpt>
<trkpt lat="56.071412" lon="8.113220">
<ele>4.901710</ele>
<time>2026-06-18T04:41:07.847Z</time>
</trkpt>
<trkpt lat="56.071593" lon="8.112989">
<ele>4.862063</ele>
<time>2026-06-18T04:41:13.257Z</time>
</trkpt>
<trkpt lat="56.072083" lon="8.112546">
<ele>4.764143</ele>
<time>2026-06-18T04:41:26.321Z</time>
</trkpt>
<trkpt lat="56.072744" lon="8.112260">
<ele>4.614092</ele>
<time>2026-06-18T04:41:42.397Z</time>
</trkpt>
<trkpt lat="56.073397" lon="8.112276">
<ele>4.446536</ele>
<time>2026-06-18T04:41:58.100Z</time>
</trkpt>
<trkpt lat="56.074395" lon="8.111916">
<ele>4.169471</ele>
<time>2026-06-18T04:42:22.290Z</time>
</trkpt>
<trkpt lat="56.074657" lon="8.112042">
<ele>4.081937</ele>
<time>2026-06-18T04:42:28.527Z</time>
</trkpt>
<trkpt lat="56.074787" lon="8.112084">
<ele>4.039313</ele>
<time>2026-06-18T04:42:31.568Z</time>
</trkpt>
<trkpt lat="56.074928" lon="8.112077">
<ele>3.993798</ele>
<time>2026-06-18T04:42:34.784Z</time>
</trkpt>
<trkpt lat="56.075406" lon="8.111946">
<ele>3.837764</ele>
<time>2026-06-18T04:42:45.962Z</time>
</trkpt>
<trkpt lat="56.075558" lon="8.111938">
<ele>3.788696</ele>
<time>2026-06-18T04:42:49.510Z</time>
</trkpt>
<trkpt lat="56.076018" lon="8.111988">
<ele>3.672257</ele>
<time>2026-06-18T04:43:00.565Z</time>
</trkpt>
<trkpt lat="56.076175" lon="8.111969">
<ele>3.683178</ele>
<time>2026-06-18T04:43:04.465Z</time>
</trkpt>
<trkpt lat="56.076442" lon="8.112060">
<ele>3.702040</ele>
<time>2026-06-18T04:43:11.248Z</time>
</trkpt>
<trkpt lat="56.076891" lon="8.111907">
<ele>3.733761</ele>
<time>2026-06-18T04:43:22.858Z</time>
</trkpt>
<trkpt lat="56.077200" lon="8.111857">
<ele>3.755293</ele>
<time>2026-06-18T04:43:30.804Z</time>
</trkpt>
<trkpt lat="56.077695" lon="8.111659">
<ele>3.790493</ele>
<time>2026-06-18T04:43:43.702Z</time>
</trkpt>
<trkpt lat="56.078470" lon="8.111000">
<ele>3.884137</ele>
<time>2026-06-18T04:44:04.977Z</time>
</trkpt>
<trkpt lat="56.078528" lon="8.110993">
<ele>3.890518</ele>
<time>2026-06-18T04:44:06.454Z</time>
</trkpt>
<trkpt lat="56.078568" lon="8.111023">
<ele>3.895277</ele>
<time>2026-06-18T04:44:07.532Z</time>
</trkpt>
<trkpt lat="56.078592" lon="8.111041">
<ele>3.898133</ele>
<time>2026-06-18T04:44:08.182Z</time>
</trkpt>
<trkpt lat="56.078890" lon="8.111338">
<ele>3.935561</ele>
<time>2026-06-18T04:44:16.812Z</time>
</trkpt>
<trkpt lat="56.079423" lon="8.111388">
<ele>3.987204</ele>
<time>2026-06-18T04:44:30.416Z</time>
</trkpt>
<trkpt lat="56.079536" lon="8.111581">
<ele>3.982095</ele>
<time>2026-06-18T04:44:34.390Z</time>
</trkpt>
<trkpt lat="56.079965" lon="8.111624">
<ele>3.968031</ele>
<time>2026-06-18T04:44:45.234Z</time>
</trkpt>
<trkpt lat="56.080053" lon="8.111665">
<ele>3.965055</ele>
<time>2026-06-18T04:44:47.539Z</time>
</trkpt>
<trkpt lat="56.080019" lon="8.112143">
<ele>3.956254</ele>
<time>2026-06-18T04:44:53.613Z</time>
</trkpt>
<trkpt lat="56.080005" lon="8.112244">
<ele>3.954353</ele>
<time>2026-06-18T04:44:54.905Z</time>
</trkpt>
<trkpt lat="56.079998" lon="8.112756">
<ele>3.944998</ele>
<time>2026-06-18T04:45:01.155Z</time>
</trkpt>
<trkpt lat="56.080002" lon="8.112865">
<ele>3.943003</ele>
<time>2026-06-18T04:45:02.456Z</time>
</trkpt>
<trkpt lat="56.080007" lon="8.113303">
<ele>3.935001</ele>
<time>2026-06-18T04:45:07.592Z</time>
</trkpt>
<trkpt lat="56.080003" lon="8.113667">
<ele>3.919872</ele>
<time>2026-06-18T04:45:11.828Z</time>
</trkpt>
<trkpt lat="56.079994" lon="8.114027">
<ele>3.877856</ele>
<time>2026-06-18T04:45:16.018Z</time>
</trkpt>
<trkpt lat="56.079977" lon="8.114463">
<ele>3.826898</ele>
<time>2026-06-18T04:45:21.141Z</time>
</trkpt>
<trkpt lat="56.079971" lon="8.114620">
<ele>3.808550</ele>
<time>2026-06-18T04:45:22.992Z</time>
</trkpt>
<trkpt lat="56.080060" lon="8.114626">
<ele>3.789942</ele>
<time>2026-06-18T04:45:24.894Z</time>
</trkpt>
<trkpt lat="56.080139" lon="8.114638">
<ele>3.773377</ele>
<time>2026-06-18T04:45:26.763Z</time>
</trkpt>
<trkpt lat="56.080426" lon="8.114660">
<ele>3.713358</ele>
<time>2026-06-18T04:45:33.662Z</time>
</trkpt>
<trkpt lat="56.080494" lon="8.114664">
<ele>3.699143</ele>
<time>2026-06-18T04:45:35.295Z</time>
</trkpt>
<trkpt lat="56.080701" lon="8.114615">
<ele>3.655518</ele>
<time>2026-06-18T04:45:40.259Z</time>
</trkpt>
<trkpt lat="56.080994" lon="8.114401">
<ele>3.589411</ele>
<time>2026-06-18T04:45:47.817Z</time>
</trkpt>
<trkpt lat="56.081112" lon="8.114337">
<ele>3.563653</ele>
<time>2026-06-18T04:45:50.793Z</time>
</trkpt>
<trkpt lat="56.081380" lon="8.114340">
<ele>3.562748</ele>
<time>2026-06-18T04:45:57.440Z</time>
</trkpt>
<trkpt lat="56.081586" lon="8.114408">
<ele>3.570864</ele>
<time>2026-06-18T04:46:02.757Z</time>
</trkpt>
<trkpt lat="56.081734" lon="8.114643">
<ele>3.578526</ele>
<time>2026-06-18T04:46:07.791Z</time>
</trkpt>
<trkpt lat="56.081916" lon="8.115040">
<ele>3.589636</ele>
<time>2026-06-18T04:46:15.108Z</time>
</trkpt>
<trkpt lat="56.082004" lon="8.115129">
<ele>3.593551</ele>
<time>2026-06-18T04:46:17.615Z</time>
</trkpt>
<trkpt lat="56.082087" lon="8.115143">
<ele>3.596782</ele>
<time>2026-06-18T04:46:19.627Z</time>
</trkpt>
<trkpt lat="56.082881" lon="8.115109">
<ele>3.624437</ele>
<time>2026-06-18T04:46:39.286Z</time>
</trkpt>
<trkpt lat="56.082947" lon="8.115111">
<ele>3.624857</ele>
<time>2026-06-18T04:46:40.972Z</time>
</trkpt>
<trkpt lat="56.083185" lon="8.115133">
<ele>3.626372</ele>
<time>2026-06-18T04:46:47.004Z</time>
</trkpt>
<trkpt lat="56.083182" lon="8.114816">
<ele>3.627497</ele>
<time>2026-06-18T04:46:50.946Z</time>
</trkpt>
<trkpt lat="56.083253" lon="8.114781">
<ele>3.627965</ele>
<time>2026-06-18T04:46:52.726Z</time>
</trkpt>
<trkpt lat="56.083358" lon="8.114686">
<ele>3.628713</ele>
<time>2026-06-18T04:46:55.574Z</time>
</trkpt>
<trkpt lat="56.083442" lon="8.114620">
<ele>3.629296</ele>
<time>2026-06-18T04:46:57.799Z</time>
</trkpt>
<trkpt lat="56.083686" lon="8.114180">
<ele>3.631498</ele>
<time>2026-06-18T04:47:06.118Z</time>
</trkpt>
<trkpt lat="56.083946" lon="8.113984">
<ele>3.633291</ele>
<time>2026-06-18T04:47:13.002Z</time>
</trkpt>
<trkpt lat="56.083995" lon="8.114015">
<ele>3.633622</ele>
<time>2026-06-18T04:47:14.290Z</time>
</trkpt>
<trkpt lat="56.084208" lon="8.114007">
<ele>3.634976</ele>
<time>2026-06-18T04:47:19.753Z</time>
</trkpt>
<trkpt lat="56.084437" lon="8.114007">
<ele>3.650265</ele>
<time>2026-06-18T04:47:25.605Z</time>
</trkpt>
<trkpt lat="56.084606" lon="8.113953">
<ele>3.664254</ele>
<time>2026-06-18T04:47:29.872Z</time>
</trkpt>
<trkpt lat="56.084910" lon="8.113975">
<ele>3.689047</ele>
<time>2026-06-18T04:47:37.344Z</time>
</trkpt>
<trkpt lat="56.084984" lon="8.113894">
<ele>3.696113</ele>
<time>2026-06-18T04:47:39.535Z</time>
</trkpt>
<trkpt lat="56.085248" lon="8.113726">
<ele>3.718943</ele>
<time>2026-06-18T04:47:46.618Z</time>
</trkpt>
<trkpt lat="56.085269" lon="8.113712">
<ele>3.720769</ele>
<time>2026-06-18T04:47:47.214Z</time>
</trkpt>
<trkpt lat="56.085429" lon="8.113671">
<ele>3.733940</ele>
<time>2026-06-18T04:47:51.427Z</time>
</trkpt>
<trkpt lat="56.085773" lon="8.113686">
<ele>3.761981</ele>
<time>2026-06-18T04:48:00.180Z</time>
</trkpt>
<trkpt lat="56.085991" lon="8.113616">
<ele>3.780029</ele>
<time>2026-06-18T04:48:05.672Z</time>
</trkpt>
<trkpt lat="56.086124" lon="8.113539">
<ele>3.767386</ele>
<time>2026-06-18T04:48:09.127Z</time>
</trkpt>
<trkpt lat="56.086442" lon="8.113330">
<ele>3.725776</ele>
<time>2026-06-18T04:48:17.351Z</time>
</trkpt>
<trkpt lat="56.086565" lon="8.113256">
<ele>3.709836</ele>
<time>2026-06-18T04:48:20.454Z</time>
</trkpt>
<trkpt lat="56.087060" lon="8.113026">
<ele>3.647014</ele>
<time>2026-06-18T04:48:32.856Z</time>
</trkpt>
<trkpt lat="56.087616" lon="8.112812">
<ele>3.577151</ele>
<time>2026-06-18T04:48:46.356Z</time>
</trkpt>
<trkpt lat="56.087963" lon="8.112734">
<ele>3.532566</ele>
<time>2026-06-18T04:48:54.743Z</time>
</trkpt>
<trkpt lat="56.088592" lon="8.112736">
<ele>3.450595</ele>
<time>2026-06-18T04:49:10.039Z</time>
</trkpt>
<trkpt lat="56.088918" lon="8.112714">
<ele>3.408080</ele>
<time>2026-06-18T04:49:17.908Z</time>
</trkpt>
<trkpt lat="56.089324" lon="8.112717">
<ele>3.355170</ele>
<time>2026-06-18T04:49:27.775Z</time>
</trkpt>
<trkpt lat="56.089330" lon="8.112937">
<ele>3.339156</ele>
<time>2026-06-18T04:49:30.786Z</time>
</trkpt>
<trkpt lat="56.089484" lon="8.113125">
<ele>3.327870</ele>
<time>2026-06-18T04:49:35.362Z</time>
</trkpt>
<trkpt lat="56.089889" lon="8.113167">
<ele>3.334255</ele>
<time>2026-06-18T04:49:45.261Z</time>
</trkpt>
<trkpt lat="56.090250" lon="8.113256">
<ele>3.339991</ele>
<time>2026-06-18T04:49:54.145Z</time>
</trkpt>
<trkpt lat="56.090597" lon="8.113429">
<ele>3.345660</ele>
<time>2026-06-18T04:50:02.215Z</time>
</trkpt>
<trkpt lat="56.090655" lon="8.113479">
<ele>3.346673</ele>
<time>2026-06-18T04:50:03.653Z</time>
</trkpt>
<trkpt lat="56.090830" lon="8.113631">
<ele>3.349734</ele>
<time>2026-06-18T04:50:08.053Z</time>
</trkpt>
<trkpt lat="56.091062" lon="8.113603">
<ele>3.353394</ele>
<time>2026-06-18T04:50:13.342Z</time>
</trkpt>
<trkpt lat="56.091254" lon="8.113654">
<ele>3.366941</ele>
<time>2026-06-18T04:50:17.806Z</time>
</trkpt>
<trkpt lat="56.091405" lon="8.113783">
<ele>3.386126</ele>
<time>2026-06-18T04:50:21.630Z</time>
</trkpt>
<trkpt lat="56.091579" lon="8.113778">
<ele>3.406085</ele>
<time>2026-06-18T04:50:25.584Z</time>
</trkpt>
<trkpt lat="56.091874" lon="8.113737">
<ele>3.440021</ele>
<time>2026-06-18T04:50:32.284Z</time>
</trkpt>
<trkpt lat="56.091991" lon="8.113673">
<ele>3.454052</ele>
<time>2026-06-18T04:50:35.088Z</time>
</trkpt>
<trkpt lat="56.092253" lon="8.113190">
<ele>3.497157</ele>
<time>2026-06-18T04:50:43.717Z</time>
</trkpt>
<trkpt lat="56.092326" lon="8.113200">
<ele>3.505554</ele>
<time>2026-06-18T04:50:45.385Z</time>
</trkpt>
<trkpt lat="56.092517" lon="8.113223">
<ele>3.527510</ele>
<time>2026-06-18T04:50:49.764Z</time>
</trkpt>
<trkpt lat="56.093115" lon="8.113151">
<ele>3.544475</ele>
<time>2026-06-18T04:51:03.363Z</time>
</trkpt>
<trkpt lat="56.093234" lon="8.113136">
<ele>3.538019</ele>
<time>2026-06-18T04:51:06.014Z</time>
</trkpt>
<trkpt lat="56.093826" lon="8.113161">
<ele>3.505970</ele>
<time>2026-06-18T04:51:18.871Z</time>
</trkpt>
<trkpt lat="56.094177" lon="8.113080">
<ele>3.486816</ele>
<time>2026-06-18T04:51:26.552Z</time>
</trkpt>
<trkpt lat="56.094444" lon="8.113100">
<ele>3.472353</ele>
<time>2026-06-18T04:51:32.401Z</time>
</trkpt>
<trkpt lat="56.095108" lon="8.113863">
<ele>3.460042</ele>
<time>2026-06-18T04:51:49.557Z</time>
</trkpt>
<trkpt lat="56.095189" lon="8.113717">
<ele>3.459369</ele>
<time>2026-06-18T04:51:52.064Z</time>
</trkpt>
<trkpt lat="56.095293" lon="8.113744">
<ele>3.458754</ele>
<time>2026-06-18T04:51:54.664Z</time>
</trkpt>
<trkpt lat="56.095747" lon="8.114019">
<ele>3.455947</ele>
<time>2026-06-18T04:52:06.579Z</time>
</trkpt>
<trkpt lat="56.096049" lon="8.114033">
<ele>3.454178</ele>
<time>2026-06-18T04:52:14.135Z</time>
</trkpt>
<trkpt lat="56.096674" lon="8.114029">
<ele>3.565044</ele>
<time>2026-06-18T04:52:29.816Z</time>
</trkpt>
<trkpt lat="56.097158" lon="8.114071">
<ele>3.683650</ele>
<time>2026-06-18T04:52:42.189Z</time>
</trkpt>
<trkpt lat="56.097973" lon="8.114196">
<ele>3.883863</ele>
<time>2026-06-18T04:53:03.578Z</time>
</trkpt>
<trkpt lat="56.099392" lon="8.114396">
<ele>4.127079</ele>
<time>2026-06-18T04:53:40.725Z</time>
</trkpt>
<trkpt lat="56.099621" lon="8.114455">
<ele>4.166128</ele>
<time>2026-06-18T04:53:46.345Z</time>
</trkpt>
<trkpt lat="56.099941" lon="8.114471">
<ele>4.178758</ele>
<time>2026-06-18T04:53:53.941Z</time>
</trkpt>
<trkpt lat="56.100095" lon="8.114469">
<ele>4.158238</ele>
<time>2026-06-18T04:53:57.557Z</time>
</trkpt>
<trkpt lat="56.100428" lon="8.114434">
<ele>4.113792</ele>
<time>2026-06-18T04:54:05.332Z</time>
</trkpt>
<trkpt lat="56.100904" lon="8.114369">
<ele>4.050186</ele>
<time>2026-06-18T04:54:16.624Z</time>
</trkpt>
<trkpt lat="56.101363" lon="8.114297">
<ele>3.988795</ele>
<time>2026-06-18T04:54:27.908Z</time>
</trkpt>
<trkpt lat="56.101615" lon="8.114256">
<ele>3.957825</ele>
<time>2026-06-18T04:54:34.247Z</time>
</trkpt>
<trkpt lat="56.102071" lon="8.114144">
<ele>3.970053</ele>
<time>2026-06-18T04:54:46.047Z</time>
</trkpt>
<trkpt lat="56.102312" lon="8.113988">
<ele>3.976860</ele>
<time>2026-06-18T04:54:52.615Z</time>
</trkpt>
<trkpt lat="56.102476" lon="8.113943">
<ele>3.981267</ele>
<time>2026-06-18T04:54:56.844Z</time>
</trkpt>
<trkpt lat="56.102484" lon="8.114227">
<ele>3.985480</ele>
<time>2026-06-18T04:55:00.861Z</time>
</trkpt>
<trkpt lat="56.102483" lon="8.114260">
<ele>3.985970</ele>
<time>2026-06-18T04:55:01.277Z</time>
</trkpt>
<trkpt lat="56.102446" lon="8.114639">
<ele>3.991671</ele>
<time>2026-06-18T04:55:06.088Z</time>
</trkpt>
<trkpt lat="56.102284" lon="8.115351">
<ele>4.003064</ele>
<time>2026-06-18T04:55:15.415Z</time>
</trkpt>
<trkpt lat="56.102214" lon="8.115656">
<ele>3.968346</ele>
<time>2026-06-18T04:55:19.304Z</time>
</trkpt>
<trkpt lat="56.102107" lon="8.116060">
<ele>3.881195</ele>
<time>2026-06-18T04:55:24.554Z</time>
</trkpt>
<trkpt lat="56.102017" lon="8.116675">
<ele>3.757298</ele>
<time>2026-06-18T04:55:31.974Z</time>
</trkpt>
<trkpt lat="56.102022" lon="8.117053">
<ele>3.683619</ele>
<time>2026-06-18T04:55:36.388Z</time>
</trkpt>
<trkpt lat="56.102086" lon="8.117541">
<ele>3.585932</ele>
<time>2026-06-18T04:55:42.274Z</time>
</trkpt>
<trkpt lat="56.102084" lon="8.117659">
<ele>3.562927</ele>
<time>2026-06-18T04:55:43.654Z</time>
</trkpt>
<trkpt lat="56.102079" lon="8.117908">
<ele>3.514375</ele>
<time>2026-06-18T04:55:46.567Z</time>
</trkpt>
<trkpt lat="56.102073" lon="8.118319">
<ele>3.434259</ele>
<time>2026-06-18T04:55:51.317Z</time>
</trkpt>
<trkpt lat="56.102068" lon="8.118619">
<ele>3.375359</ele>
<time>2026-06-18T04:55:54.783Z</time>
</trkpt>
<trkpt lat="56.102062" lon="8.119019">
<ele>3.262970</ele>
<time>2026-06-18T04:55:59.361Z</time>
</trkpt>
<trkpt lat="56.102038" lon="8.119750">
<ele>3.057298</ele>
<time>2026-06-18T04:56:07.689Z</time>
</trkpt>
<trkpt lat="56.102019" lon="8.120389">
<ele>2.877567</ele>
<time>2026-06-18T04:56:14.931Z</time>
</trkpt>
<trkpt lat="56.101997" lon="8.121600">
<ele>2.537251</ele>
<time>2026-06-18T04:56:28.705Z</time>
</trkpt>
<trkpt lat="56.101977" lon="8.122453">
<ele>2.405777</ele>
<time>2026-06-18T04:56:38.585Z</time>
</trkpt>
<trkpt lat="56.101951" lon="8.123506">
<ele>2.294618</ele>
<time>2026-06-18T04:56:51.376Z</time>
</trkpt>
<trkpt lat="56.101949" lon="8.123607">
<ele>2.283960</ele>
<time>2026-06-18T04:56:52.614Z</time>
</trkpt>
<trkpt lat="56.101946" lon="8.123741">
<ele>2.269817</ele>
<time>2026-06-18T04:56:54.292Z</time>
</trkpt>
<trkpt lat="56.101945" lon="8.123803">
<ele>2.263276</ele>
<time>2026-06-18T04:56:55.054Z</time>
</trkpt>
<trkpt lat="56.101914" lon="8.125065">
<ele>2.129603</ele>
<time>2026-06-18T04:57:10.710Z</time>
</trkpt>
<trkpt lat="56.101908" lon="8.125686">
<ele>2.023775</ele>
<time>2026-06-18T04:57:18.121Z</time>
</trkpt>
<trkpt lat="56.101909" lon="8.125880">
<ele>1.990718</ele>
<time>2026-06-18T04:57:20.410Z</time>
</trkpt>
<trkpt lat="56.101901" lon="8.126070">
<ele>1.958252</ele>
<time>2026-06-18T04:57:22.671Z</time>
</trkpt>
<trkpt lat="56.101897" lon="8.126153">
<ele>1.944057</ele>
<time>2026-06-18T04:57:23.647Z</time>
</trkpt>
<trkpt lat="56.101844" lon="8.127794">
<ele>1.663979</ele>
<time>2026-06-18T04:57:42.749Z</time>
</trkpt>
<trkpt lat="56.101844" lon="8.127921">
<ele>1.642339</ele>
<time>2026-06-18T04:57:44.230Z</time>
</trkpt>
<trkpt lat="56.101175" lon="8.128097">
<ele>1.466972</ele>
<time>2026-06-18T04:57:58.420Z</time>
</trkpt>
<trkpt lat="56.100462" lon="8.128190">
<ele>1.295407</ele>
<time>2026-06-18T04:58:13.940Z</time>
</trkpt>
<trkpt lat="56.099508" lon="8.128129">
<ele>1.031490</ele>
<time>2026-06-18T04:58:34.310Z</time>
</trkpt>
<trkpt lat="56.099503" lon="8.128267">
<ele>1.005242</ele>
<time>2026-06-18T04:58:35.944Z</time>
</trkpt>
<trkpt lat="56.099498" lon="8.128368">
<ele>0.985997</ele>
<time>2026-06-18T04:58:37.130Z</time>
</trkpt>
<trkpt lat="56.099469" lon="8.128640">
<ele>0.933437</ele>
<time>2026-06-18T04:58:40.363Z</time>
</trkpt>
<trkpt lat="56.099346" lon="8.128861">
<ele>0.874180</ele>
<time>2026-06-18T04:58:43.991Z</time>
</trkpt>
<trkpt lat="56.099265" lon="8.132773">
<ele>0.286380</ele>
<time>2026-06-18T04:59:34.997Z</time>
</trkpt>
<trkpt lat="56.099122" lon="8.137238">
<ele>0.309701</ele>
<time>2026-06-18T05:00:37.589Z</time>
</trkpt>
<trkpt lat="56.099086" lon="8.138026">
<ele>0.304501</ele>
<time>2026-06-18T05:00:48.801Z</time>
</trkpt>
<trkpt lat="56.098966" lon="8.138485">
<ele>0.301167</ele>
<time>2026-06-18T05:00:55.919Z</time>
</trkpt>
<trkpt lat="56.098922" lon="8.138829">
<ele>0.298845</ele>
<time>2026-06-18T05:01:00.838Z</time>
</trkpt>
<trkpt lat="56.098795" lon="8.139466">
<ele>0.294396</ele>
<time>2026-06-18T05:01:10.144Z</time>
</trkpt>
<trkpt lat="56.098732" lon="8.140019">
<ele>0.290683</ele>
<time>2026-06-18T05:01:17.744Z</time>
</trkpt>
<trkpt lat="56.098721" lon="8.140397">
<ele>0.253182</ele>
<time>2026-06-18T05:01:22.769Z</time>
</trkpt>
<trkpt lat="56.098782" lon="8.141398">
<ele>0.077929</ele>
<time>2026-06-18T05:01:35.956Z</time>
</trkpt>
<trkpt lat="56.098886" lon="8.141824">
<ele>-0.003004</ele>
<time>2026-06-18T05:01:42.005Z</time>
</trkpt>
<trkpt lat="56.099132" lon="8.142345">
<ele>-0.121808</ele>
<time>2026-06-18T05:01:50.885Z</time>
</trkpt>
<trkpt lat="56.099171" lon="8.142759">
<ele>-0.194881</ele>
<time>2026-06-18T05:01:56.383Z</time>
</trkpt>
<trkpt lat="56.099207" lon="8.142935">
<ele>-0.227507</ele>
<time>2026-06-18T05:01:58.830Z</time>
</trkpt>
<trkpt lat="56.099582" lon="8.143760">
<ele>-0.461593</ele>
<time>2026-06-18T05:02:12.759Z</time>
</trkpt>
<trkpt lat="56.099735" lon="8.144320">
<ele>-0.607712</ele>
<time>2026-06-18T05:02:20.906Z</time>
</trkpt>
<trkpt lat="56.100290" lon="8.145596">
<ele>-0.986875</ele>
<time>2026-06-18T05:02:41.821Z</time>
</trkpt>
<trkpt lat="56.100366" lon="8.145859">
<ele>-1.044616</ele>
<time>2026-06-18T05:02:45.651Z</time>
</trkpt>
<trkpt lat="56.100397" lon="8.145969">
<ele>-1.061861</ele>
<time>2026-06-18T05:02:47.244Z</time>
</trkpt>
<trkpt lat="56.100517" lon="8.146333">
<ele>-1.121025</ele>
<time>2026-06-18T05:02:52.726Z</time>
</trkpt>
<trkpt lat="56.100685" lon="8.146687">
<ele>-1.186063</ele>
<time>2026-06-18T05:02:58.768Z</time>
</trkpt>
<trkpt lat="56.101151" lon="8.147941">
<ele>-1.396906</ele>
<time>2026-06-18T05:03:18.712Z</time>
</trkpt>
<trkpt lat="56.101341" lon="8.148310">
<ele>-1.467175</ele>
<time>2026-06-18T05:03:25.560Z</time>
</trkpt>
<trkpt lat="56.101537" lon="8.148819">
<ele>-1.495382</ele>
<time>2026-06-18T05:03:34.002Z</time>
</trkpt>
<trkpt lat="56.101780" lon="8.149585">
<ele>-1.522976</ele>
<time>2026-06-18T05:03:46.080Z</time>
</trkpt>
<trkpt lat="56.102313" lon="8.150973">
<ele>-1.575743</ele>
<time>2026-06-18T05:04:06.800Z</time>
</trkpt>
<trkpt lat="56.102726" lon="8.152066">
<ele>-1.587149</ele>
<time>2026-06-18T05:04:24.894Z</time>
</trkpt>
<trkpt lat="56.102866" lon="8.152354">
<ele>-1.589572</ele>
<time>2026-06-18T05:04:30.144Z</time>
</trkpt>
<trkpt lat="56.103138" lon="8.153186">
<ele>-1.595688</ele>
<time>2026-06-18T05:04:43.406Z</time>
</trkpt>
<trkpt lat="56.103455" lon="8.153926">
<ele>-1.599100</ele>
<time>2026-06-18T05:04:56.294Z</time>
</trkpt>
<trkpt lat="56.103506" lon="8.154122">
<ele>-1.598331</ele>
<time>2026-06-18T05:04:59.280Z</time>
</trkpt>
<trkpt lat="56.103684" lon="8.154473">
<ele>-1.596644</ele>
<time>2026-06-18T05:05:05.840Z</time>
</trkpt>
<trkpt lat="56.103740" lon="8.154672">
<ele>-1.595852</ele>
<time>2026-06-18T05:05:08.905Z</time>
</trkpt>
<trkpt lat="56.104287" lon="8.156115">
<ele>-1.589649</ele>
<time>2026-06-18T05:05:32.989Z</time>
</trkpt>
<trkpt lat="56.104410" lon="8.156313">
<ele>-1.588596</ele>
<time>2026-06-18T05:05:37.091Z</time>
</trkpt>
<trkpt lat="56.104528" lon="8.156783">
<ele>-1.561445</ele>
<time>2026-06-18T05:05:44.230Z</time>
</trkpt>
<trkpt lat="56.104712" lon="8.157102">
<ele>-1.536497</ele>
<time>2026-06-18T05:05:50.599Z</time>
</trkpt>
<trkpt lat="56.104822" lon="8.157638">
<ele>-1.505450</ele>
<time>2026-06-18T05:05:58.546Z</time>
</trkpt>
<trkpt lat="56.105022" lon="8.158069">
<ele>-1.474971</ele>
<time>2026-06-18T05:06:06.350Z</time>
</trkpt>
<trkpt lat="56.105558" lon="8.159464">
<ele>-1.324003</ele>
<time>2026-06-18T05:06:27.974Z</time>
</trkpt>
<trkpt lat="56.106170" lon="8.160965">
<ele>-1.026694</ele>
<time>2026-06-18T05:06:54.771Z</time>
</trkpt>
<trkpt lat="56.106318" lon="8.161210">
<ele>-0.968942</ele>
<time>2026-06-18T05:07:00.050Z</time>
</trkpt>
<trkpt lat="56.106416" lon="8.161597">
<ele>-0.900982</ele>
<time>2026-06-18T05:07:06.309Z</time>
</trkpt>
<trkpt lat="56.106589" lon="8.162104">
<ele>-0.750722</ele>
<time>2026-06-18T05:07:15.040Z</time>
</trkpt>
<trkpt lat="56.106937" lon="8.162880">
<ele>-0.495462</ele>
<time>2026-06-18T05:07:29.802Z</time>
</trkpt>
<trkpt lat="56.107050" lon="8.163173">
<ele>-0.404144</ele>
<time>2026-06-18T05:07:35.263Z</time>
</trkpt>
<trkpt lat="56.107266" lon="8.163527">
<ele>-0.269635</ele>
<time>2026-06-18T05:07:43.243Z</time>
</trkpt>
<trkpt lat="56.107296" lon="8.163698">
<ele>-0.223684</ele>
<time>2026-06-18T05:07:45.933Z</time>
</trkpt>
<trkpt lat="56.107257" lon="8.164065">
<ele>-0.127917</ele>
<time>2026-06-18T05:07:51.428Z</time>
</trkpt>
<trkpt lat="56.107286" lon="8.164280">
<ele>-0.071216</ele>
<time>2026-06-18T05:07:54.625Z</time>
</trkpt>
<trkpt lat="56.107382" lon="8.164526">
<ele>-0.070270</ele>
<time>2026-06-18T05:07:58.920Z</time>
</trkpt>
<trkpt lat="56.107547" lon="8.164734">
<ele>-0.069742</ele>
<time>2026-06-18T05:08:04.094Z</time>
</trkpt>
<trkpt lat="56.107264" lon="8.165926">
<ele>-0.067854</ele>
<time>2026-06-18T05:08:22.091Z</time>
</trkpt>
<trkpt lat="56.107059" lon="8.166893">
<ele>-0.066345</ele>
<time>2026-06-18T05:08:35.760Z</time>
</trkpt>
<trkpt lat="56.107006" lon="8.167059">
<ele>-0.066067</ele>
<time>2026-06-18T05:08:38.261Z</time>
</trkpt>
<trkpt lat="56.106930" lon="8.167211">
<ele>-0.083560</ele>
<time>2026-06-18T05:08:40.934Z</time>
</trkpt>
<trkpt lat="56.106586" lon="8.167704">
<ele>-0.170228</ele>
<time>2026-06-18T05:08:51.421Z</time>
</trkpt>
<trkpt lat="56.106513" lon="8.167860">
<ele>-0.192579</ele>
<time>2026-06-18T05:08:54.147Z</time>
</trkpt>
<trkpt lat="56.106359" lon="8.168383">
<ele>-0.257490</ele>
<time>2026-06-18T05:09:02.067Z</time>
</trkpt>
<trkpt lat="56.106212" lon="8.169037">
<ele>-0.334879</ele>
<time>2026-06-18T05:09:11.501Z</time>
</trkpt>
<trkpt lat="56.106100" lon="8.169882">
<ele>-0.421943</ele>
<time>2026-06-18T05:09:23.222Z</time>
</trkpt>
<trkpt lat="56.105943" lon="8.170578">
<ele>-0.437657</ele>
<time>2026-06-18T05:09:38.573Z</time>
</trkpt>
<trkpt lat="56.105721" lon="8.171407">
<ele>-0.456905</ele>
<time>2026-06-18T05:09:57.400Z</time>
</trkpt>
<trkpt lat="56.105567" lon="8.172472">
<ele>-0.479934</ele>
<time>2026-06-18T05:10:20.092Z</time>
</trkpt>
<trkpt lat="56.105483" lon="8.173410">
<ele>-0.453509</ele>
<time>2026-06-18T05:10:39.896Z</time>
</trkpt>
<trkpt lat="56.104989" lon="8.175858">
<ele>-0.303082</ele>
<time>2026-06-18T05:11:34.706Z</time>
</trkpt>
<trkpt lat="56.104811" lon="8.177286">
<ele>-0.224358</ele>
<time>2026-06-18T05:12:05.346Z</time>
</trkpt>
<trkpt lat="56.104453" lon="8.179849">
<ele>-0.027258</ele>
<time>2026-06-18T05:13:00.184Z</time>
</trkpt>
<trkpt lat="56.104230" lon="8.180983">
<ele>0.115720</ele>
<time>2026-06-18T05:13:25.473Z</time>
</trkpt>
<trkpt lat="56.104134" lon="8.181472">
<ele>0.177363</ele>
<time>2026-06-18T05:13:36.608Z</time>
</trkpt>
<trkpt lat="56.104008" lon="8.182040">
<ele>0.250049</ele>
<time>2026-06-18T05:13:49.856Z</time>
</trkpt>
<trkpt lat="56.103909" lon="8.182640">
<ele>0.245858</ele>
<time>2026-06-18T05:14:03.217Z</time>
</trkpt>
<trkpt lat="56.103723" lon="8.183618">
<ele>0.228510</ele>
<time>2026-06-18T05:14:24.918Z</time>
</trkpt>
<trkpt lat="56.103378" lon="8.185228">
<ele>0.187574</ele>
<time>2026-06-18T05:14:59.692Z</time>
</trkpt>
<trkpt lat="56.103068" lon="8.186911">
<ele>-0.031619</ele>
<time>2026-06-18T05:15:34.745Z</time>
</trkpt>
<trkpt lat="56.102797" lon="8.188293">
<ele>-0.200240</ele>
<time>2026-06-18T05:16:04.889Z</time>
</trkpt>
<trkpt lat="56.102747" lon="8.188995">
<ele>-0.216331</ele>
<time>2026-06-18T05:16:19.711Z</time>
</trkpt>
<trkpt lat="56.102607" lon="8.189733">
<ele>-0.234055</ele>
<time>2026-06-18T05:16:35.979Z</time>
</trkpt>
<trkpt lat="56.101977" lon="8.191682">
<ele>-0.335878</ele>
<time>2026-06-18T05:17:22.131Z</time>
</trkpt>
<trkpt lat="56.101879" lon="8.192090">
<ele>-0.381147</ele>
<time>2026-06-18T05:17:31.128Z</time>
</trkpt>
<trkpt lat="56.101569" lon="8.193526">
<ele>-0.538062</ele>
<time>2026-06-18T05:18:02.145Z</time>
</trkpt>
<trkpt lat="56.101452" lon="8.194438">
<ele>-0.620744</ele>
<time>2026-06-18T05:18:20.960Z</time>
</trkpt>
<trkpt lat="56.101387" lon="8.194864">
<ele>-0.648984</ele>
<time>2026-06-18T05:18:29.827Z</time>
</trkpt>
<trkpt lat="56.100955" lon="8.196558">
<ele>-0.768084</ele>
<time>2026-06-18T05:19:07.749Z</time>
</trkpt>
<trkpt lat="56.100592" lon="8.197673">
<ele>-0.684008</ele>
<time>2026-06-18T05:19:34.827Z</time>
</trkpt>
<trkpt lat="56.100218" lon="8.199322">
<ele>-0.376801</ele>
<time>2026-06-18T05:20:13.196Z</time>
</trkpt>
<trkpt lat="56.099857" lon="8.200518">
<ele>-0.180883</ele>
<time>2026-06-18T05:20:42.507Z</time>
</trkpt>
<trkpt lat="56.099656" lon="8.201056">
<ele>-0.109647</ele>
<time>2026-06-18T05:20:56.197Z</time>
</trkpt>
<trkpt lat="56.099214" lon="8.202542">
<ele>0.075623</ele>
<time>2026-06-18T05:21:31.309Z</time>
</trkpt>
<trkpt lat="56.099144" lon="8.202928">
<ele>0.113208</ele>
<time>2026-06-18T05:21:39.697Z</time>
</trkpt>
<trkpt lat="56.098893" lon="8.204389">
<ele>0.199772</ele>
<time>2026-06-18T05:22:11.839Z</time>
</trkpt>
<trkpt lat="56.098816" lon="8.205029">
<ele>0.236846</ele>
<time>2026-06-18T05:22:25.725Z</time>
</trkpt>
<trkpt lat="56.098715" lon="8.206204">
<ele>0.280791</ele>
<time>2026-06-18T05:22:50.583Z</time>
</trkpt>
<trkpt lat="56.098579" lon="8.207294">
<ele>0.250782</ele>
<time>2026-06-18T05:23:13.680Z</time>
</trkpt>
<trkpt lat="56.098463" lon="8.207935">
<ele>0.232675</ele>
<time>2026-06-18T05:23:27.401Z</time>
</trkpt>
<trkpt lat="56.098449" lon="8.208048">
<ele>0.229565</ele>
<time>2026-06-18T05:23:29.773Z</time>
</trkpt>
<trkpt lat="56.098332" lon="8.208768">
<ele>0.209416</ele>
<time>2026-06-18T05:23:44.983Z</time>
</trkpt>
<trkpt lat="56.098181" lon="8.209219">
<ele>0.179453</ele>
<time>2026-06-18T05:23:55.667Z</time>
</trkpt>
<trkpt lat="56.097853" lon="8.211246">
<ele>-0.017773</ele>
<time>2026-06-18T05:24:38.687Z</time>
</trkpt>
<trkpt lat="56.097734" lon="8.211653">
<ele>-0.060714</ele>
<time>2026-06-18T05:24:48.032Z</time>
</trkpt>
<trkpt lat="56.097510" lon="8.212733">
<ele>-0.203798</ele>
<time>2026-06-18T05:25:11.370Z</time>
</trkpt>
<trkpt lat="56.097425" lon="8.213339">
<ele>-0.292275</ele>
<time>2026-06-18T05:25:23.892Z</time>
</trkpt>
<trkpt lat="56.097400" lon="8.213439">
<ele>-0.307791</ele>
<time>2026-06-18T05:25:26.084Z</time>
</trkpt>
<trkpt lat="56.097323" lon="8.213734">
<ele>-0.353909</ele>
<time>2026-06-18T05:25:32.610Z</time>
</trkpt>
<trkpt lat="56.097276" lon="8.213918">
<ele>-0.382564</ele>
<time>2026-06-18T05:25:36.675Z</time>
</trkpt>
<trkpt lat="56.097183" lon="8.214319">
<ele>-0.444056</ele>
<time>2026-06-18T05:25:45.410Z</time>
</trkpt>
<trkpt lat="56.097109" lon="8.214660">
<ele>-0.495866</ele>
<time>2026-06-18T05:25:52.774Z</time>
</trkpt>
<trkpt lat="56.097024" lon="8.215051">
<ele>-0.555286</ele>
<time>2026-06-18T05:26:01.210Z</time>
</trkpt>
<trkpt lat="56.096704" lon="8.217030">
<ele>-0.553370</ele>
<time>2026-06-18T05:26:42.855Z</time>
</trkpt>
<trkpt lat="56.096587" lon="8.217944">
<ele>-0.552054</ele>
<time>2026-06-18T05:27:02.513Z</time>
</trkpt>
<trkpt lat="56.096401" lon="8.218671">
<ele>-0.320041</ele>
<time>2026-06-18T05:27:20.175Z</time>
</trkpt>
<trkpt lat="56.096336" lon="8.218928">
<ele>-0.204666</ele>
<time>2026-06-18T05:27:26.466Z</time>
</trkpt>
<trkpt lat="56.096333" lon="8.218953">
<ele>-0.194211</ele>
<time>2026-06-18T05:27:27.054Z</time>
</trkpt>
<trkpt lat="56.096290" lon="8.219333">
<ele>-0.035678</ele>
<time>2026-06-18T05:27:35.763Z</time>
</trkpt>
<trkpt lat="56.096345" lon="8.220021">
<ele>0.248495</ele>
<time>2026-06-18T05:27:51.421Z</time>
</trkpt>
<trkpt lat="56.096384" lon="8.220045">
<ele>0.278719</ele>
<time>2026-06-18T05:27:53.103Z</time>
</trkpt>
<trkpt lat="56.096286" lon="8.220539">
<ele>0.493091</ele>
<time>2026-06-18T05:28:04.983Z</time>
</trkpt>
<trkpt lat="56.096268" lon="8.220638">
<ele>0.535665</ele>
<time>2026-06-18T05:28:07.358Z</time>
</trkpt>
<trkpt lat="56.096255" lon="8.220704">
<ele>0.564283</ele>
<time>2026-06-18T05:28:08.943Z</time>
</trkpt>
<trkpt lat="56.096112" lon="8.221366">
<ele>0.778504</ele>
<time>2026-06-18T05:28:19.403Z</time>
</trkpt>
<trkpt lat="56.096022" lon="8.221728">
<ele>0.800325</ele>
<time>2026-06-18T05:28:24.887Z</time>
</trkpt>
<trkpt lat="56.095861" lon="8.222404">
<ele>0.840795</ele>
<time>2026-06-18T05:28:34.381Z</time>
</trkpt>
<trkpt lat="56.095763" lon="8.223000">
<ele>0.875005</ele>
<time>2026-06-18T05:28:42.118Z</time>
</trkpt>
<trkpt lat="56.095724" lon="8.223347">
<ele>0.894494</ele>
<time>2026-06-18T05:28:46.358Z</time>
</trkpt>
<trkpt lat="56.095642" lon="8.224080">
<ele>0.935655</ele>
<time>2026-06-18T05:28:55.154Z</time>
</trkpt>
<trkpt lat="56.095585" lon="8.224581">
<ele>0.862812</ele>
<time>2026-06-18T05:29:01.021Z</time>
</trkpt>
<trkpt lat="56.095533" lon="8.225000">
<ele>0.764676</ele>
<time>2026-06-18T05:29:05.867Z</time>
</trkpt>
<trkpt lat="56.095458" lon="8.225412">
<ele>0.665593</ele>
<time>2026-06-18T05:29:10.769Z</time>
</trkpt>
<trkpt lat="56.095388" lon="8.225797">
<ele>0.573014</ele>
<time>2026-06-18T05:29:15.420Z</time>
</trkpt>
<trkpt lat="56.095366" lon="8.225916">
<ele>0.544353</ele>
<time>2026-06-18T05:29:16.861Z</time>
</trkpt>
<trkpt lat="56.095318" lon="8.226177">
<ele>0.481522</ele>
<time>2026-06-18T05:29:20.066Z</time>
</trkpt>
<trkpt lat="56.095309" lon="8.226549">
<ele>0.396392</ele>
<time>2026-06-18T05:29:24.348Z</time>
</trkpt>
<trkpt lat="56.095445" lon="8.227353">
<ele>0.207222</ele>
<time>2026-06-18T05:29:34.151Z</time>
</trkpt>
<trkpt lat="56.095560" lon="8.227991">
<ele>0.219290</ele>
<time>2026-06-18T05:29:42.364Z</time>
</trkpt>
<trkpt lat="56.095637" lon="8.228355">
<ele>0.226296</ele>
<time>2026-06-18T05:29:47.283Z</time>
</trkpt>
<trkpt lat="56.095907" lon="8.229062">
<ele>0.241718</ele>
<time>2026-06-18T05:29:58.280Z</time>
</trkpt>
<trkpt lat="56.096183" lon="8.229700">
<ele>0.256250</ele>
<time>2026-06-18T05:30:08.466Z</time>
</trkpt>
<trkpt lat="56.096460" lon="8.230305">
<ele>0.247314</ele>
<time>2026-06-18T05:30:18.238Z</time>
</trkpt>
<trkpt lat="56.096567" lon="8.230539">
<ele>0.229065</ele>
<time>2026-06-18T05:30:22.009Z</time>
</trkpt>
<trkpt lat="56.096559" lon="8.230560">
<ele>0.227531</ele>
<time>2026-06-18T05:30:22.316Z</time>
</trkpt>
<trkpt lat="56.096135" lon="8.231742">
<ele>0.142771</ele>
<time>2026-06-18T05:30:39.374Z</time>
</trkpt>
<trkpt lat="56.095904" lon="8.232404">
<ele>0.095674</ele>
<time>2026-06-18T05:30:48.697Z</time>
</trkpt>
<trkpt lat="56.095786" lon="8.232732">
<ele>0.072133</ele>
<time>2026-06-18T05:30:53.359Z</time>
</trkpt>
<trkpt lat="56.095481" lon="8.233579">
<ele>0.134979</ele>
<time>2026-06-18T05:31:05.659Z</time>
</trkpt>
<trkpt lat="56.095461" lon="8.233632">
<ele>0.139176</ele>
<time>2026-06-18T05:31:06.448Z</time>
</trkpt>
<trkpt lat="56.095340" lon="8.233964">
<ele>0.165188</ele>
<time>2026-06-18T05:31:11.441Z</time>
</trkpt>
<trkpt lat="56.095044" lon="8.234594">
<ele>0.219215</ele>
<time>2026-06-18T05:31:22.180Z</time>
</trkpt>
<trkpt lat="56.094865" lon="8.234897">
<ele>0.248163</ele>
<time>2026-06-18T05:31:27.944Z</time>
</trkpt>
<trkpt lat="56.094631" lon="8.235190">
<ele>0.281726</ele>
<time>2026-06-18T05:31:34.611Z</time>
</trkpt>
<trkpt lat="56.094259" lon="8.235571">
<ele>0.404409</ele>
<time>2026-06-18T05:31:44.467Z</time>
</trkpt>
<trkpt lat="56.093721" lon="8.236034">
<ele>0.575966</ele>
<time>2026-06-18T05:31:58.513Z</time>
</trkpt>
<trkpt lat="56.093270" lon="8.236447">
<ele>0.721552</ele>
<time>2026-06-18T05:32:10.365Z</time>
</trkpt>
<trkpt lat="56.093087" lon="8.236598">
<ele>0.779464</ele>
<time>2026-06-18T05:32:15.064Z</time>
</trkpt>
<trkpt lat="56.092887" lon="8.236792">
<ele>0.870617</ele>
<time>2026-06-18T05:32:20.374Z</time>
</trkpt>
<trkpt lat="56.092488" lon="8.237300">
<ele>1.090632</ele>
<time>2026-06-18T05:32:31.946Z</time>
</trkpt>
<trkpt lat="56.092314" lon="8.237627">
<ele>1.203965</ele>
<time>2026-06-18T05:32:38.101Z</time>
</trkpt>
<trkpt lat="56.092140" lon="8.238012">
<ele>1.328230</ele>
<time>2026-06-18T05:32:44.810Z</time>
</trkpt>
<trkpt lat="56.091797" lon="8.238952">
<ele>1.612497</ele>
<time>2026-06-18T05:32:59.704Z</time>
</trkpt>
<trkpt lat="56.091769" lon="8.239035">
<ele>1.665064</ele>
<time>2026-06-18T05:33:01.058Z</time>
</trkpt>
<trkpt lat="56.091760" lon="8.239059">
<ele>1.680737</ele>
<time>2026-06-18T05:33:01.459Z</time>
</trkpt>
<trkpt lat="56.091697" lon="8.239253">
<ele>1.802392</ele>
<time>2026-06-18T05:33:04.591Z</time>
</trkpt>
<trkpt lat="56.091592" lon="8.239556">
<ele>1.995708</ele>
<time>2026-06-18T05:33:09.714Z</time>
</trkpt>
<trkpt lat="56.091286" lon="8.240403">
<ele>2.542596</ele>
<time>2026-06-18T05:33:24.462Z</time>
</trkpt>
<trkpt lat="56.091229" lon="8.240570">
<ele>2.648699</ele>
<time>2026-06-18T05:33:27.305Z</time>
</trkpt>
<trkpt lat="56.091097" lon="8.241001">
<ele>2.915170</ele>
<time>2026-06-18T05:33:34.795Z</time>
</trkpt>
<trkpt lat="56.090943" lon="8.241523">
<ele>3.235198</ele>
<time>2026-06-18T05:33:43.491Z</time>
</trkpt>
<trkpt lat="56.091151" lon="8.241724">
<ele>3.507373</ele>
<time>2026-06-18T05:33:49.625Z</time>
</trkpt>
<trkpt lat="56.091069" lon="8.242048">
<ele>3.775098</ele>
<time>2026-06-18T05:33:55.066Z</time>
</trkpt>
<trkpt lat="56.091086" lon="8.242151">
<ele>3.855926</ele>
<time>2026-06-18T05:33:56.772Z</time>
</trkpt>
<trkpt lat="56.091032" lon="8.242409">
<ele>4.063284</ele>
<time>2026-06-18T05:34:01.245Z</time>
</trkpt>
<trkpt lat="56.091195" lon="8.242573">
<ele>4.315416</ele>
<time>2026-06-18T05:34:06.429Z</time>
</trkpt>
<trkpt lat="56.091324" lon="8.242694">
<ele>4.511803</ele>
<time>2026-06-18T05:34:10.410Z</time>
</trkpt>
<trkpt lat="56.091469" lon="8.242839">
<ele>4.735765</ele>
<time>2026-06-18T05:34:14.875Z</time>
</trkpt>
<trkpt lat="56.091629" lon="8.243014">
<ele>4.988586</ele>
<time>2026-06-18T05:34:19.896Z</time>
</trkpt>
<trkpt lat="56.091416" lon="8.243618">
<ele>5.526284</ele>
<time>2026-06-18T05:34:31.191Z</time>
</trkpt>
<trkpt lat="56.091481" lon="8.243706">
<ele>5.636157</ele>
<time>2026-06-18T05:34:33.423Z</time>
</trkpt>
<trkpt lat="56.091555" lon="8.243806">
<ele>5.761160</ele>
<time>2026-06-18T05:34:36.032Z</time>
</trkpt>
<trkpt lat="56.091636" lon="8.243916">
<ele>5.834950</ele>
<time>2026-06-18T05:34:38.865Z</time>
</trkpt>
<trkpt lat="56.091893" lon="8.244264">
<ele>6.034511</ele>
<time>2026-06-18T05:34:48.224Z</time>
</trkpt>
<trkpt lat="56.091793" lon="8.244509">
<ele>6.139441</ele>
<time>2026-06-18T05:34:53.153Z</time>
</trkpt>
<trkpt lat="56.091593" lon="8.244992">
<ele>6.347354</ele>
<time>2026-06-18T05:35:02.188Z</time>
</trkpt>
<trkpt lat="56.091423" lon="8.244759">
<ele>6.479947</ele>
<time>2026-06-18T05:35:07.241Z</time>
</trkpt>
<trkpt lat="56.091125" lon="8.244335">
<ele>6.715680</ele>
<time>2026-06-18T05:35:15.756Z</time>
</trkpt>
<trkpt lat="56.091098" lon="8.244297">
<ele>6.736950</ele>
<time>2026-06-18T05:35:16.523Z</time>
</trkpt>
<trkpt lat="56.091062" lon="8.244243">
<ele>6.766034</ele>
<time>2026-06-18T05:35:17.583Z</time>
</trkpt>
<trkpt lat="56.091030" lon="8.244201">
<ele>6.790608</ele>
<time>2026-06-18T05:35:18.475Z</time>
</trkpt>
<trkpt lat="56.090904" lon="8.244024">
<ele>6.889794</ele>
<time>2026-06-18T05:35:22.019Z</time>
</trkpt>
<trkpt lat="56.090744" lon="8.243812">
<ele>6.616373</ele>
<time>2026-06-18T05:35:26.202Z</time>
</trkpt>
<trkpt lat="56.090707" lon="8.243770">
<ele>6.551865</ele>
<time>2026-06-18T05:35:27.091Z</time>
</trkpt>
<trkpt lat="56.090533" lon="8.243575">
<ele>6.249599</ele>
<time>2026-06-18T05:35:31.164Z</time>
</trkpt>
<trkpt lat="56.090364" lon="8.243409">
<ele>5.965742</ele>
<time>2026-06-18T05:35:34.899Z</time>
</trkpt>
<trkpt lat="56.090267" lon="8.243652">
<ele>5.720206</ele>
<time>2026-06-18T05:35:38.039Z</time>
</trkpt>
<trkpt lat="56.090364" lon="8.243409">
<ele>5.474669</ele>
<time>2026-06-18T05:35:41.124Z</time>
</trkpt>
<trkpt lat="56.090418" lon="8.243251">
<ele>5.322406</ele>
<time>2026-06-18T05:35:43.056Z</time>
</trkpt>
<trkpt lat="56.090661" lon="8.242476">
<ele>4.591862</ele>
<time>2026-06-18T05:35:52.249Z</time>
</trkpt>
<trkpt lat="56.090681" lon="8.242401">
<ele>4.523553</ele>
<time>2026-06-18T05:35:53.052Z</time>
</trkpt>
<trkpt lat="56.090844" lon="8.241848">
<ele>4.026591</ele>
<time>2026-06-18T05:35:59.236Z</time>
</trkpt>
<trkpt lat="56.090867" lon="8.241769">
<ele>3.958621</ele>
<time>2026-06-18T05:36:00.124Z</time>
</trkpt>
<trkpt lat="56.090943" lon="8.241523">
<ele>3.744133</ele>
<time>2026-06-18T05:36:02.921Z</time>
</trkpt>
<trkpt lat="56.091097" lon="8.241001">
<ele>3.293732</ele>
<time>2026-06-18T05:36:08.872Z</time>
</trkpt>
<trkpt lat="56.091229" lon="8.240570">
<ele>2.918706</ele>
<time>2026-06-18T05:36:13.887Z</time>
</trkpt>
<trkpt lat="56.091286" lon="8.240403">
<ele>2.769378</ele>
<time>2026-06-18T05:36:15.925Z</time>
</trkpt>
<trkpt lat="56.091592" lon="8.239556">
<ele>1.999696</ele>
<time>2026-06-18T05:36:26.724Z</time>
</trkpt>
<trkpt lat="56.091697" lon="8.239253">
<ele>1.765139</ele>
<time>2026-06-18T05:36:30.618Z</time>
</trkpt>
<trkpt lat="56.091760" lon="8.239059">
<ele>1.701940</ele>
<time>2026-06-18T05:36:33.117Z</time>
</trkpt>
<trkpt lat="56.091769" lon="8.239035">
<ele>1.693799</ele>
<time>2026-06-18T05:36:33.442Z</time>
</trkpt>
<trkpt lat="56.091797" lon="8.238952">
<ele>1.666491</ele>
<time>2026-06-18T05:36:34.532Z</time>
</trkpt>
<trkpt lat="56.092140" lon="8.238012">
<ele>1.350261</ele>
<time>2026-06-18T05:36:47.631Z</time>
</trkpt>
<trkpt lat="56.092314" lon="8.237627">
<ele>1.210763</ele>
<time>2026-06-18T05:36:53.306Z</time>
</trkpt>
<trkpt lat="56.092488" lon="8.237300">
<ele>1.083537</ele>
<time>2026-06-18T05:36:58.435Z</time>
</trkpt>
<trkpt lat="56.092887" lon="8.236792">
<ele>0.854698</ele>
<time>2026-06-18T05:37:08.708Z</time>
</trkpt>
<trkpt lat="56.093087" lon="8.236598">
<ele>0.788582</ele>
<time>2026-06-18T05:37:13.538Z</time>
</trkpt>
<trkpt lat="56.093270" lon="8.236447">
<ele>0.730009</ele>
<time>2026-06-18T05:37:17.831Z</time>
</trkpt>
<trkpt lat="56.093721" lon="8.236034">
<ele>0.582764</ele>
<time>2026-06-18T05:37:28.563Z</time>
</trkpt>
<trkpt lat="56.094259" lon="8.235571">
<ele>0.409251</ele>
<time>2026-06-18T05:37:41.135Z</time>
</trkpt>
<trkpt lat="56.094631" lon="8.235190">
<ele>0.314103</ele>
<time>2026-06-18T05:37:50.336Z</time>
</trkpt>
<trkpt lat="56.094865" lon="8.234897">
<ele>0.265152</ele>
<time>2026-06-18T05:37:56.411Z</time>
</trkpt>
<trkpt lat="56.095044" lon="8.234594">
<ele>0.222930</ele>
<time>2026-06-18T05:38:01.607Z</time>
</trkpt>
<trkpt lat="56.095340" lon="8.233964">
<ele>0.144130</ele>
<time>2026-06-18T05:38:11.364Z</time>
</trkpt>
<trkpt lat="56.095461" lon="8.233632">
<ele>0.106191</ele>
<time>2026-06-18T05:38:16.220Z</time>
</trkpt>
<trkpt lat="56.095481" lon="8.233579">
<ele>0.100070</ele>
<time>2026-06-18T05:38:17.008Z</time>
</trkpt>
<trkpt lat="56.095786" lon="8.232732">
<ele>0.079625</ele>
<time>2026-06-18T05:38:29.720Z</time>
</trkpt>
<trkpt lat="56.095904" lon="8.232404">
<ele>0.106317</ele>
<time>2026-06-18T05:38:34.765Z</time>
</trkpt>
<trkpt lat="56.096135" lon="8.231742">
<ele>0.159720</ele>
<time>2026-06-18T05:38:44.853Z</time>
</trkpt>
<trkpt lat="56.096559" lon="8.230560">
<ele>0.255828</ele>
<time>2026-06-18T05:39:02.689Z</time>
</trkpt>
<trkpt lat="56.096567" lon="8.230539">
<ele>0.257567</ele>
<time>2026-06-18T05:39:03.002Z</time>
</trkpt>
<trkpt lat="56.096460" lon="8.230305">
<ele>0.264086</ele>
<time>2026-06-18T05:39:06.746Z</time>
</trkpt>
<trkpt lat="56.096183" lon="8.229700">
<ele>0.240157</ele>
<time>2026-06-18T05:39:16.377Z</time>
</trkpt>
<trkpt lat="56.095907" lon="8.229062">
<ele>0.215474</ele>
<time>2026-06-18T05:39:26.256Z</time>
</trkpt>
<trkpt lat="56.095637" lon="8.228355">
<ele>0.189279</ele>
<time>2026-06-18T05:39:36.543Z</time>
</trkpt>
<trkpt lat="56.095560" lon="8.227991">
<ele>0.177377</ele>
<time>2026-06-18T05:39:41.270Z</time>
</trkpt>
<trkpt lat="56.095445" lon="8.227353">
<ele>0.258849</ele>
<time>2026-06-18T05:39:49.702Z</time>
</trkpt>
<trkpt lat="56.095309" lon="8.226549">
<ele>0.434550</ele>
<time>2026-06-18T05:40:00.830Z</time>
</trkpt>
<trkpt lat="56.095318" lon="8.226177">
<ele>0.512419</ele>
<time>2026-06-18T05:40:05.828Z</time>
</trkpt>
<trkpt lat="56.095366" lon="8.225916">
<ele>0.569892</ele>
<time>2026-06-18T05:40:09.481Z</time>
</trkpt>
<trkpt lat="56.095388" lon="8.225797">
<ele>0.596109</ele>
<time>2026-06-18T05:40:11.156Z</time>
</trkpt>
<trkpt lat="56.095458" lon="8.225412">
<ele>0.680793</ele>
<time>2026-06-18T05:40:16.606Z</time>
</trkpt>
<trkpt lat="56.095533" lon="8.225000">
<ele>0.771425</ele>
<time>2026-06-18T05:40:22.579Z</time>
</trkpt>
<trkpt lat="56.095585" lon="8.224581">
<ele>0.845940</ele>
<time>2026-06-18T05:40:28.484Z</time>
</trkpt>
<trkpt lat="56.095642" lon="8.224080">
<ele>0.856824</ele>
<time>2026-06-18T05:40:35.388Z</time>
</trkpt>
<trkpt lat="56.095724" lon="8.223347">
<ele>0.872738</ele>
<time>2026-06-18T05:40:45.189Z</time>
</trkpt>
<trkpt lat="56.095763" lon="8.223000">
<ele>0.880273</ele>
<time>2026-06-18T05:40:49.763Z</time>
</trkpt>
<trkpt lat="56.095861" lon="8.222404">
<ele>0.893499</ele>
<time>2026-06-18T05:40:57.439Z</time>
</trkpt>
<trkpt lat="56.096022" lon="8.221728">
<ele>0.909145</ele>
<time>2026-06-18T05:41:06.209Z</time>
</trkpt>
<trkpt lat="56.096112" lon="8.221366">
<ele>0.820292</ele>
<time>2026-06-18T05:41:10.652Z</time>
</trkpt>
<trkpt lat="56.096255" lon="8.220704">
<ele>0.524729</ele>
<time>2026-06-18T05:41:18.258Z</time>
</trkpt>
<trkpt lat="56.096268" lon="8.220638">
<ele>0.495588</ele>
<time>2026-06-18T05:41:19.568Z</time>
</trkpt>
<trkpt lat="56.096286" lon="8.220539">
<ele>0.452236</ele>
<time>2026-06-18T05:41:21.549Z</time>
</trkpt>
<trkpt lat="56.096384" lon="8.220045">
<ele>0.233944</ele>
<time>2026-06-18T05:41:31.525Z</time>
</trkpt>
<trkpt lat="56.096345" lon="8.220021">
<ele>0.203167</ele>
<time>2026-06-18T05:41:32.914Z</time>
</trkpt>
<trkpt lat="56.096290" lon="8.219333">
<ele>-0.086201</ele>
<time>2026-06-18T05:41:46.187Z</time>
</trkpt>
<trkpt lat="56.096333" lon="8.218953">
<ele>-0.247633</ele>
<time>2026-06-18T05:41:53.617Z</time>
</trkpt>
<trkpt lat="56.096336" lon="8.218928">
<ele>-0.258279</ele>
<time>2026-06-18T05:41:54.116Z</time>
</trkpt>
<trkpt lat="56.096401" lon="8.218671">
<ele>-0.375764</ele>
<time>2026-06-18T05:41:59.565Z</time>
</trkpt>
<trkpt lat="56.096587" lon="8.217944">
<ele>-0.468474</ele>
<time>2026-06-18T05:42:15.104Z</time>
</trkpt>
<trkpt lat="56.096704" lon="8.217030">
<ele>-0.522777</ele>
<time>2026-06-18T05:42:34.229Z</time>
</trkpt>
<trkpt lat="56.097024" lon="8.215051">
<ele>-0.552392</ele>
<time>2026-06-18T05:43:17.837Z</time>
</trkpt>
<trkpt lat="56.097109" lon="8.214660">
<ele>-0.491923</ele>
<time>2026-06-18T05:43:26.741Z</time>
</trkpt>
<trkpt lat="56.097183" lon="8.214319">
<ele>-0.439199</ele>
<time>2026-06-18T05:43:34.527Z</time>
</trkpt>
<trkpt lat="56.097276" lon="8.213918">
<ele>-0.376621</ele>
<time>2026-06-18T05:43:43.769Z</time>
</trkpt>
<trkpt lat="56.097323" lon="8.213734">
<ele>-0.347459</ele>
<time>2026-06-18T05:43:48.087Z</time>
</trkpt>
<trkpt lat="56.097400" lon="8.213439">
<ele>-0.300527</ele>
<time>2026-06-18T05:43:55.030Z</time>
</trkpt>
<trkpt lat="56.097425" lon="8.213339">
<ele>-0.284736</ele>
<time>2026-06-18T05:43:57.373Z</time>
</trkpt>
<trkpt lat="56.097510" lon="8.212733">
<ele>-0.194696</ele>
<time>2026-06-18T05:44:10.695Z</time>
</trkpt>
<trkpt lat="56.097734" lon="8.211653">
<ele>-0.067142</ele>
<time>2026-06-18T05:44:35.021Z</time>
</trkpt>
<trkpt lat="56.097853" lon="8.211246">
<ele>-0.021631</ele>
<time>2026-06-18T05:44:44.696Z</time>
</trkpt>
<trkpt lat="56.098181" lon="8.209219">
<ele>0.175725</ele>
<time>2026-06-18T05:45:28.982Z</time>
</trkpt>
<trkpt lat="56.098332" lon="8.208768">
<ele>0.197042</ele>
<time>2026-06-18T05:45:40.033Z</time>
</trkpt>
<trkpt lat="56.098449" lon="8.208048">
<ele>0.227433</ele>
<time>2026-06-18T05:45:55.869Z</time>
</trkpt>
<trkpt lat="56.098463" lon="8.207935">
<ele>0.232124</ele>
<time>2026-06-18T05:45:58.289Z</time>
</trkpt>
<trkpt lat="56.098579" lon="8.207294">
<ele>0.259433</ele>
<time>2026-06-18T05:46:12.411Z</time>
</trkpt>
<trkpt lat="56.098715" lon="8.206204">
<ele>0.290201</ele>
<time>2026-06-18T05:46:35.493Z</time>
</trkpt>
<trkpt lat="56.098816" lon="8.205029">
<ele>0.228825</ele>
<time>2026-06-18T05:46:59.815Z</time>
</trkpt>
<trkpt lat="56.098893" lon="8.204389">
<ele>0.195024</ele>
<time>2026-06-18T05:47:13.001Z</time>
</trkpt>
<trkpt lat="56.099144" lon="8.202928">
<ele>0.103271</ele>
<time>2026-06-18T05:47:44.105Z</time>
</trkpt>
<trkpt lat="56.099214" lon="8.202542">
<ele>0.065234</ele>
<time>2026-06-18T05:47:52.489Z</time>
</trkpt>
<trkpt lat="56.099656" lon="8.201056">
<ele>-0.092588</ele>
<time>2026-06-18T05:48:27.027Z</time>
</trkpt>
<trkpt lat="56.099857" lon="8.200518">
<ele>-0.153271</ele>
<time>2026-06-18T05:48:40.108Z</time>
</trkpt>
<trkpt lat="56.100218" lon="8.199322">
<ele>-0.389114</ele>
<time>2026-06-18T05:49:07.137Z</time>
</trkpt>
<trkpt lat="56.100592" lon="8.197673">
<ele>-0.719813</ele>
<time>2026-06-18T05:49:42.505Z</time>
</trkpt>
<trkpt lat="56.100955" lon="8.196558">
<ele>-0.733381</ele>
<time>2026-06-18T05:50:08.799Z</time>
</trkpt>
<trkpt lat="56.101387" lon="8.194864">
<ele>-0.667744</ele>
<time>2026-06-18T05:50:47.898Z</time>
</trkpt>
<trkpt lat="56.101452" lon="8.194438">
<ele>-0.644306</ele>
<time>2026-06-18T05:50:57.279Z</time>
</trkpt>
<trkpt lat="56.101569" lon="8.193526">
<ele>-0.539938</ele>
<time>2026-06-18T05:51:17.191Z</time>
</trkpt>
<trkpt lat="56.101879" lon="8.192090">
<ele>-0.368208</ele>
<time>2026-06-18T05:51:49.903Z</time>
</trkpt>
<trkpt lat="56.101977" lon="8.191682">
<ele>-0.318665</ele>
<time>2026-06-18T05:51:59.253Z</time>
</trkpt>
<trkpt lat="56.102607" lon="8.189733">
<ele>-0.235849</ele>
<time>2026-06-18T05:52:46.284Z</time>
</trkpt>
<trkpt lat="56.102747" lon="8.188995">
<ele>-0.212928</ele>
<time>2026-06-18T05:53:02.233Z</time>
</trkpt>
<trkpt lat="56.102797" lon="8.188293">
<ele>-0.170697</ele>
<time>2026-06-18T05:53:16.686Z</time>
</trkpt>
<trkpt lat="56.103068" lon="8.186911">
<ele>-0.027346</ele>
<time>2026-06-18T05:53:47.079Z</time>
</trkpt>
<trkpt lat="56.103378" lon="8.185228">
<ele>0.135082</ele>
<time>2026-06-18T05:54:25.441Z</time>
</trkpt>
<trkpt lat="56.103723" lon="8.183618">
<ele>0.245464</ele>
<time>2026-06-18T05:55:02.050Z</time>
</trkpt>
<trkpt lat="56.103909" lon="8.182640">
<ele>0.311594</ele>
<time>2026-06-18T05:55:23.079Z</time>
</trkpt>
<trkpt lat="56.104008" lon="8.182040">
<ele>0.256767</ele>
<time>2026-06-18T05:55:35.592Z</time>
</trkpt>
<trkpt lat="56.104134" lon="8.181472">
<ele>0.176028</ele>
<time>2026-06-18T05:55:47.678Z</time>
</trkpt>
<trkpt lat="56.104230" lon="8.180983">
<ele>0.107555</ele>
<time>2026-06-18T05:55:58.018Z</time>
</trkpt>
<trkpt lat="56.104453" lon="8.179849">
<ele>-0.051264</ele>
<time>2026-06-18T05:56:22.447Z</time>
</trkpt>
<trkpt lat="56.104811" lon="8.177286">
<ele>-0.220266</ele>
<time>2026-06-18T05:57:16.831Z</time>
</trkpt>
<trkpt lat="56.104989" lon="8.175858">
<ele>-0.301020</ele>
<time>2026-06-18T05:57:46.700Z</time>
</trkpt>
<trkpt lat="56.105483" lon="8.173410">
<ele>-0.465042</ele>
<time>2026-06-18T05:58:39.561Z</time>
</trkpt>
<trkpt lat="56.105567" lon="8.172472">
<ele>-0.467364</ele>
<time>2026-06-18T05:58:59.024Z</time>
</trkpt>
<trkpt lat="56.105721" lon="8.171407">
<ele>-0.457459</ele>
<time>2026-06-18T05:59:21.824Z</time>
</trkpt>
<trkpt lat="56.105943" lon="8.170578">
<ele>-0.449181</ele>
<time>2026-06-18T05:59:41.007Z</time>
</trkpt>
<trkpt lat="56.106100" lon="8.169882">
<ele>-0.409539</ele>
<time>2026-06-18T05:59:56.675Z</time>
</trkpt>
<trkpt lat="56.106212" lon="8.169037">
<ele>-0.318773</ele>
<time>2026-06-18T06:00:08.912Z</time>
</trkpt>
<trkpt lat="56.106359" lon="8.168383">
<ele>-0.245085</ele>
<time>2026-06-18T06:00:18.919Z</time>
</trkpt>
<trkpt lat="56.106513" lon="8.167860">
<ele>-0.183279</ele>
<time>2026-06-18T06:00:27.324Z</time>
</trkpt>
<trkpt lat="56.106586" lon="8.167704">
<ele>-0.161997</ele>
<time>2026-06-18T06:00:30.216Z</time>
</trkpt>
<trkpt lat="56.106930" lon="8.167211">
<ele>-0.052112</ele>
<time>2026-06-18T06:00:41.509Z</time>
</trkpt>
<trkpt lat="56.107006" lon="8.167059">
<ele>-0.010638</ele>
<time>2026-06-18T06:00:44.477Z</time>
</trkpt>
<trkpt lat="56.107059" lon="8.166893">
<ele>0.028221</ele>
<time>2026-06-18T06:00:47.282Z</time>
</trkpt>
<trkpt lat="56.107264" lon="8.165926">
<ele>0.238385</ele>
<time>2026-06-18T06:01:02.653Z</time>
</trkpt>
<trkpt lat="56.107547" lon="8.164734">
<ele>0.501574</ele>
<time>2026-06-18T06:01:22.028Z</time>
</trkpt>
<trkpt lat="56.107895" lon="8.163772">
<ele>0.462742</ele>
<time>2026-06-18T06:01:38.321Z</time>
</trkpt>
<trkpt lat="56.107940" lon="8.163573">
<ele>0.443210</ele>
<time>2026-06-18T06:01:41.261Z</time>
</trkpt>
<trkpt lat="56.107992" lon="8.162994">
<ele>0.389868</ele>
<time>2026-06-18T06:01:49.105Z</time>
</trkpt>
<trkpt lat="56.107974" lon="8.162501">
<ele>0.344930</ele>
<time>2026-06-18T06:01:55.528Z</time>
</trkpt>
<trkpt lat="56.107985" lon="8.162258">
<ele>0.322755</ele>
<time>2026-06-18T06:01:58.666Z</time>
</trkpt>
<trkpt lat="56.108190" lon="8.160838">
<ele>0.112915</ele>
<time>2026-06-18T06:02:17.262Z</time>
</trkpt>
<trkpt lat="56.108311" lon="8.160382">
<ele>0.012197</ele>
<time>2026-06-18T06:02:23.783Z</time>
</trkpt>
<trkpt lat="56.108579" lon="8.159601">
<ele>-0.170698</ele>
<time>2026-06-18T06:02:35.791Z</time>
</trkpt>
<trkpt lat="56.108734" lon="8.159069">
<ele>-0.290410</ele>
<time>2026-06-18T06:02:43.762Z</time>
</trkpt>
<trkpt lat="56.108913" lon="8.158231">
<ele>-0.411912</ele>
<time>2026-06-18T06:02:55.801Z</time>
</trkpt>
<trkpt lat="56.108946" lon="8.157356">
<ele>-0.460355</ele>
<time>2026-06-18T06:03:07.609Z</time>
</trkpt>
<trkpt lat="56.108922" lon="8.156835">
<ele>-0.489232</ele>
<time>2026-06-18T06:03:14.697Z</time>
</trkpt>
<trkpt lat="56.108871" lon="8.156516">
<ele>-0.507563</ele>
<time>2026-06-18T06:03:19.213Z</time>
</trkpt>
<trkpt lat="56.108883" lon="8.156233">
<ele>-0.523240</ele>
<time>2026-06-18T06:03:23.085Z</time>
</trkpt>
<trkpt lat="56.109001" lon="8.155606">
<ele>-0.559793</ele>
<time>2026-06-18T06:03:32.147Z</time>
</trkpt>
<trkpt lat="56.110089" lon="8.151463">
<ele>-0.344536</ele>
<time>2026-06-18T06:04:35.973Z</time>
</trkpt>
<trkpt lat="56.110163" lon="8.151254">
<ele>-0.322234</ele>
<time>2026-06-18T06:04:39.480Z</time>
</trkpt>
<trkpt lat="56.110421" lon="8.150933">
<ele>-0.271503</ele>
<time>2026-06-18T06:04:47.512Z</time>
</trkpt>
<trkpt lat="56.111966" lon="8.147578">
<ele>0.149944</ele>
<time>2026-06-18T06:05:49.403Z</time>
</trkpt>
<trkpt lat="56.112390" lon="8.146875">
<ele>0.184277</ele>
<time>2026-06-18T06:06:03.886Z</time>
</trkpt>
<trkpt lat="56.113108" lon="8.145826">
<ele>0.229428</ele>
<time>2026-06-18T06:06:26.719Z</time>
</trkpt>
<trkpt lat="56.113788" lon="8.144990">
<ele>0.257947</ele>
<time>2026-06-18T06:06:47.252Z</time>
</trkpt>
<trkpt lat="56.114795" lon="8.143699">
<ele>0.288287</ele>
<time>2026-06-18T06:07:17.996Z</time>
</trkpt>
<trkpt lat="56.115015" lon="8.142983">
<ele>0.257107</ele>
<time>2026-06-18T06:07:29.141Z</time>
</trkpt>
<trkpt lat="56.115616" lon="8.142098">
<ele>0.188707</ele>
<time>2026-06-18T06:07:47.918Z</time>
</trkpt>
<trkpt lat="56.116024" lon="8.141414">
<ele>0.139581</ele>
<time>2026-06-18T06:08:01.467Z</time>
</trkpt>
<trkpt lat="56.116244" lon="8.141012">
<ele>0.145147</ele>
<time>2026-06-18T06:08:09.170Z</time>
</trkpt>
<trkpt lat="56.116573" lon="8.140234">
<ele>0.176507</ele>
<time>2026-06-18T06:08:22.667Z</time>
</trkpt>
<trkpt lat="56.116896" lon="8.139818">
<ele>0.199412</ele>
<time>2026-06-18T06:08:32.573Z</time>
</trkpt>
<trkpt lat="56.117442" lon="8.138432">
<ele>0.291171</ele>
<time>2026-06-18T06:08:56.665Z</time>
</trkpt>
<trkpt lat="56.118116" lon="8.135948">
<ele>0.549762</ele>
<time>2026-06-18T06:09:36.095Z</time>
</trkpt>
<trkpt lat="56.118287" lon="8.135002">
<ele>0.544999</ele>
<time>2026-06-18T06:09:49.725Z</time>
</trkpt>
<trkpt lat="56.118333" lon="8.134215">
<ele>0.541209</ele>
<time>2026-06-18T06:10:00.429Z</time>
</trkpt>
<trkpt lat="56.118363" lon="8.134047">
<ele>0.540364</ele>
<time>2026-06-18T06:10:02.809Z</time>
</trkpt>
<trkpt lat="56.118462" lon="8.133737">
<ele>0.538653</ele>
<time>2026-06-18T06:10:07.618Z</time>
</trkpt>
<trkpt lat="56.118609" lon="8.133473">
<ele>0.536866</ele>
<time>2026-06-18T06:10:12.708Z</time>
</trkpt>
<trkpt lat="56.118871" lon="8.133122">
<ele>0.534987</ele>
<time>2026-06-18T06:10:20.799Z</time>
</trkpt>
<trkpt lat="56.118999" lon="8.132997">
<ele>0.535270</ele>
<time>2026-06-18T06:10:24.431Z</time>
</trkpt>
<trkpt lat="56.119455" lon="8.132692">
<ele>0.536213</ele>
<time>2026-06-18T06:10:36.681Z</time>
</trkpt>
<trkpt lat="56.119591" lon="8.132691">
<ele>0.536477</ele>
<time>2026-06-18T06:10:40.081Z</time>
</trkpt>
<trkpt lat="56.119840" lon="8.132784">
<ele>0.536970</ele>
<time>2026-06-18T06:10:46.442Z</time>
</trkpt>
<trkpt lat="56.120390" lon="8.132659">
<ele>0.538045</ele>
<time>2026-06-18T06:11:00.119Z</time>
</trkpt>
<trkpt lat="56.120477" lon="8.132594">
<ele>0.538227</ele>
<time>2026-06-18T06:11:02.427Z</time>
</trkpt>
<trkpt lat="56.120556" lon="8.132605">
<ele>0.529297</ele>
<time>2026-06-18T06:11:04.159Z</time>
</trkpt>
<trkpt lat="56.120515" lon="8.132086">
<ele>0.464200</ele>
<time>2026-06-18T06:11:10.501Z</time>
</trkpt>
<trkpt lat="56.120012" lon="8.127087">
<ele>-0.204864</ele>
<time>2026-06-18T06:12:10.629Z</time>
</trkpt>
<trkpt lat="56.119995" lon="8.126926">
<ele>-0.227770</ele>
<time>2026-06-18T06:12:13.943Z</time>
</trkpt>
<trkpt lat="56.119719" lon="8.124270">
<ele>-0.452240</ele>
<time>2026-06-18T06:12:46.510Z</time>
</trkpt>
<trkpt lat="56.119462" lon="8.123431">
<ele>-0.515855</ele>
<time>2026-06-18T06:12:58.216Z</time>
</trkpt>
<trkpt lat="56.119385" lon="8.123377">
<ele>-0.525711</ele>
<time>2026-06-18T06:13:00.018Z</time>
</trkpt>
<trkpt lat="56.119368" lon="8.123289">
<ele>-0.525349</ele>
<time>2026-06-18T06:13:01.190Z</time>
</trkpt>
<trkpt lat="56.119365" lon="8.123200">
<ele>-0.521740</ele>
<time>2026-06-18T06:13:02.296Z</time>
</trkpt>
<trkpt lat="56.119491" lon="8.123138">
<ele>-0.512254</ele>
<time>2026-06-18T06:13:11.395Z</time>
</trkpt>
<trkpt lat="56.119365" lon="8.123200">
<ele>-0.502767</ele>
<time>2026-06-18T06:13:14.313Z</time>
</trkpt>
<trkpt lat="56.119368" lon="8.123289">
<ele>-0.499159</ele>
<time>2026-06-18T06:13:15.420Z</time>
</trkpt>
<trkpt lat="56.119385" lon="8.123377">
<ele>-0.495389</ele>
<time>2026-06-18T06:13:16.549Z</time>
</trkpt>
<trkpt lat="56.119462" lon="8.123431">
<ele>-0.489386</ele>
<time>2026-06-18T06:13:18.425Z</time>
</trkpt>
<trkpt lat="56.119719" lon="8.124270">
<ele>-0.450640</ele>
<time>2026-06-18T06:13:30.469Z</time>
</trkpt>
<trkpt lat="56.119995" lon="8.126926">
<ele>-0.213530</ele>
<time>2026-06-18T06:14:04.928Z</time>
</trkpt>
<trkpt lat="56.120012" lon="8.127087">
<ele>-0.191754</ele>
<time>2026-06-18T06:14:08.388Z</time>
</trkpt>
<trkpt lat="56.120515" lon="8.132086">
<ele>0.466190</ele>
<time>2026-06-18T06:15:14.259Z</time>
</trkpt>
<trkpt lat="56.120556" lon="8.132605">
<ele>0.540336</ele>
<time>2026-06-18T06:15:20.883Z</time>
</trkpt>
<trkpt lat="56.120515" lon="8.132086">
<ele>0.614481</ele>
<time>2026-06-18T06:15:27.519Z</time>
</trkpt>
<trkpt lat="56.120596" lon="8.132060">
<ele>0.635361</ele>
<time>2026-06-18T06:15:29.385Z</time>
</trkpt>
<trkpt lat="56.120671" lon="8.132033">
<ele>0.654771</ele>
<time>2026-06-18T06:15:31.159Z</time>
</trkpt>
<trkpt lat="56.120702" lon="8.131909">
<ele>0.673993</ele>
<time>2026-06-18T06:15:32.897Z</time>
</trkpt>
<trkpt lat="56.120783" lon="8.131825">
<ele>0.697734</ele>
<time>2026-06-18T06:15:35.087Z</time>
</trkpt>
<trkpt lat="56.121180" lon="8.131777">
<ele>0.798698</ele>
<time>2026-06-18T06:15:44.176Z</time>
</trkpt>
<trkpt lat="56.121189" lon="8.131682">
<ele>0.812328</ele>
<time>2026-06-18T06:15:45.395Z</time>
</trkpt>
<trkpt lat="56.121412" lon="8.131616">
<ele>0.869678</ele>
<time>2026-06-18T06:15:50.703Z</time>
</trkpt>
<trkpt lat="56.121805" lon="8.131424">
<ele>1.000717</ele>
<time>2026-06-18T06:16:00.721Z</time>
</trkpt>
<trkpt lat="56.121866" lon="8.131390">
<ele>1.022916</ele>
<time>2026-06-18T06:16:02.312Z</time>
</trkpt>
<trkpt lat="56.122217" lon="8.131179">
<ele>1.151565</ele>
<time>2026-06-18T06:16:11.586Z</time>
</trkpt>
<trkpt lat="56.122628" lon="8.130930">
<ele>1.302325</ele>
<time>2026-06-18T06:16:21.967Z</time>
</trkpt>
<trkpt lat="56.122837" lon="8.130803">
<ele>1.379012</ele>
<time>2026-06-18T06:16:27.097Z</time>
</trkpt>
<trkpt lat="56.122912" lon="8.130744">
<ele>1.407472</ele>
<time>2026-06-18T06:16:28.956Z</time>
</trkpt>
<trkpt lat="56.123109" lon="8.130581">
<ele>1.482866</ele>
<time>2026-06-18T06:16:33.978Z</time>
</trkpt>
<trkpt lat="56.123239" lon="8.130440">
<ele>1.518507</ele>
<time>2026-06-18T06:16:37.487Z</time>
</trkpt>
<trkpt lat="56.123425" lon="8.130119">
<ele>1.484670</ele>
<time>2026-06-18T06:16:43.293Z</time>
</trkpt>
<trkpt lat="56.123684" lon="8.129676">
<ele>1.437754</ele>
<time>2026-06-18T06:16:50.852Z</time>
</trkpt>
<trkpt lat="56.124105" lon="8.129153">
<ele>1.370618</ele>
<time>2026-06-18T06:17:01.518Z</time>
</trkpt>
<trkpt lat="56.124181" lon="8.129081">
<ele>1.359350</ele>
<time>2026-06-18T06:17:03.323Z</time>
</trkpt>
<trkpt lat="56.124314" lon="8.128951">
<ele>1.339493</ele>
<time>2026-06-18T06:17:06.627Z</time>
</trkpt>
<trkpt lat="56.124417" lon="8.128852">
<ele>1.324174</ele>
<time>2026-06-18T06:17:09.223Z</time>
</trkpt>
<trkpt lat="56.124719" lon="8.128625">
<ele>1.281518</ele>
<time>2026-06-18T06:17:16.504Z</time>
</trkpt>
<trkpt lat="56.124927" lon="8.128551">
<ele>1.254947</ele>
<time>2026-06-18T06:17:21.220Z</time>
</trkpt>
<trkpt lat="56.125311" lon="8.128728">
<ele>1.205268</ele>
<time>2026-06-18T06:17:29.931Z</time>
</trkpt>
<trkpt lat="56.125379" lon="8.128730">
<ele>1.196746</ele>
<time>2026-06-18T06:17:31.457Z</time>
</trkpt>
<trkpt lat="56.125575" lon="8.128707">
<ele>1.172134</ele>
<time>2026-06-18T06:17:35.842Z</time>
</trkpt>
<trkpt lat="56.125939" lon="8.128561">
<ele>1.125398</ele>
<time>2026-06-18T06:17:44.011Z</time>
</trkpt>
<trkpt lat="56.126186" lon="8.128569">
<ele>1.094443</ele>
<time>2026-06-18T06:17:49.256Z</time>
</trkpt>
<trkpt lat="56.126692" lon="8.128748">
<ele>0.986972</ele>
<time>2026-06-18T06:18:00.048Z</time>
</trkpt>
<trkpt lat="56.127119" lon="8.129064">
<ele>0.852080</ele>
<time>2026-06-18T06:18:09.711Z</time>
</trkpt>
<trkpt lat="56.127830" lon="8.129531">
<ele>0.630965</ele>
<time>2026-06-18T06:18:25.677Z</time>
</trkpt>
<trkpt lat="56.127888" lon="8.129576">
<ele>0.612511</ele>
<time>2026-06-18T06:18:27.029Z</time>
</trkpt>
<trkpt lat="56.128316" lon="8.129927">
<ele>0.554995</ele>
<time>2026-06-18T06:18:37.337Z</time>
</trkpt>
<trkpt lat="56.128884" lon="8.130483">
<ele>0.610919</ele>
<time>2026-06-18T06:18:51.940Z</time>
</trkpt>
<trkpt lat="56.129645" lon="8.131069">
<ele>0.682494</ele>
<time>2026-06-18T06:19:10.967Z</time>
</trkpt>
<trkpt lat="56.130402" lon="8.131576">
<ele>0.659723</ele>
<time>2026-06-18T06:19:29.334Z</time>
</trkpt>
<trkpt lat="56.130641" lon="8.131642">
<ele>0.648432</ele>
<time>2026-06-18T06:19:34.655Z</time>
</trkpt>
<trkpt lat="56.132436" lon="8.131795">
<ele>0.450310</ele>
<time>2026-06-18T06:20:13.202Z</time>
</trkpt>
<trkpt lat="56.133228" lon="8.132134">
<ele>0.312922</ele>
<time>2026-06-18T06:20:31.061Z</time>
</trkpt>
<trkpt lat="56.134433" lon="8.132714">
<ele>0.213954</ele>
<time>2026-06-18T06:20:58.399Z</time>
</trkpt>
<trkpt lat="56.135018" lon="8.132981">
<ele>0.168423</ele>
<time>2026-06-18T06:21:11.576Z</time>
</trkpt>
<trkpt lat="56.135598" lon="8.133150">
<ele>0.148432</ele>
<time>2026-06-18T06:21:24.526Z</time>
</trkpt>
<trkpt lat="56.136228" lon="8.133240">
<ele>0.126932</ele>
<time>2026-06-18T06:21:38.415Z</time>
</trkpt>
<trkpt lat="56.137328" lon="8.133347">
<ele>0.190069</ele>
<time>2026-06-18T06:22:03.038Z</time>
</trkpt>
<trkpt lat="56.138376" lon="8.133393">
<ele>0.354710</ele>
<time>2026-06-18T06:22:27.126Z</time>
</trkpt>
<trkpt lat="56.138627" lon="8.133365">
<ele>0.396308</ele>
<time>2026-06-18T06:22:32.988Z</time>
</trkpt>
<trkpt lat="56.138885" lon="8.133287">
<ele>0.457221</ele>
<time>2026-06-18T06:22:39.100Z</time>
</trkpt>
<trkpt lat="56.140031" lon="8.132730">
<ele>0.733641</ele>
<time>2026-06-18T06:23:06.599Z</time>
</trkpt>
<trkpt lat="56.140279" lon="8.132621">
<ele>0.793086</ele>
<time>2026-06-18T06:23:12.595Z</time>
</trkpt>
<trkpt lat="56.140707" lon="8.132542">
<ele>0.897896</ele>
<time>2026-06-18T06:23:22.643Z</time>
</trkpt>
<trkpt lat="56.141443" lon="8.132593">
<ele>1.078776</ele>
<time>2026-06-18T06:23:39.752Z</time>
</trkpt>
<trkpt lat="56.141847" lon="8.132687">
<ele>1.178819</ele>
<time>2026-06-18T06:23:49.240Z</time>
</trkpt>
<trkpt lat="56.142882" lon="8.133063">
<ele>1.361179</ele>
<time>2026-06-18T06:24:13.576Z</time>
</trkpt>
<trkpt lat="56.142928" lon="8.133085">
<ele>1.368079</ele>
<time>2026-06-18T06:24:14.683Z</time>
</trkpt>
<trkpt lat="56.143020" lon="8.133134">
<ele>1.381989</ele>
<time>2026-06-18T06:24:16.872Z</time>
</trkpt>
<trkpt lat="56.143225" lon="8.133260">
<ele>1.413397</ele>
<time>2026-06-18T06:24:21.825Z</time>
</trkpt>
<trkpt lat="56.143468" lon="8.133465">
<ele>1.452316</ele>
<time>2026-06-18T06:24:27.920Z</time>
</trkpt>
<trkpt lat="56.143997" lon="8.133926">
<ele>1.445238</ele>
<time>2026-06-18T06:24:41.133Z</time>
</trkpt>
<trkpt lat="56.144333" lon="8.134212">
<ele>1.311572</ele>
<time>2026-06-18T06:24:49.116Z</time>
</trkpt>
<trkpt lat="56.144714" lon="8.134537">
<ele>1.159945</ele>
<time>2026-06-18T06:24:57.873Z</time>
</trkpt>
<trkpt lat="56.144898" lon="8.134687">
<ele>1.087305</ele>
<time>2026-06-18T06:25:02.006Z</time>
</trkpt>
<trkpt lat="56.145119" lon="8.134866">
<ele>1.000154</ele>
<time>2026-06-18T06:25:06.954Z</time>
</trkpt>
<trkpt lat="56.145168" lon="8.134913">
<ele>0.980184</ele>
<time>2026-06-18T06:25:08.093Z</time>
</trkpt>
<trkpt lat="56.145292" lon="8.134164">
<ele>0.828188</ele>
<time>2026-06-18T06:25:16.963Z</time>
</trkpt>
<trkpt lat="56.145417" lon="8.133188">
<ele>0.649629</ele>
<time>2026-06-18T06:25:28.316Z</time>
</trkpt>
<trkpt lat="56.146887" lon="8.133581">
<ele>0.271111</ele>
<time>2026-06-18T06:26:00.382Z</time>
</trkpt>
<trkpt lat="56.147335" lon="8.133740">
<ele>0.248554</ele>
<time>2026-06-18T06:26:10.508Z</time>
</trkpt>
<trkpt lat="56.147689" lon="8.133886">
<ele>0.230614</ele>
<time>2026-06-18T06:26:18.535Z</time>
</trkpt>
<trkpt lat="56.148612" lon="8.134372">
<ele>0.199094</ele>
<time>2026-06-18T06:26:39.998Z</time>
</trkpt>
<trkpt lat="56.149288" lon="8.134839">
<ele>0.197176</ele>
<time>2026-06-18T06:26:56.140Z</time>
</trkpt>
<trkpt lat="56.149793" lon="8.135238">
<ele>0.195715</ele>
<time>2026-06-18T06:27:08.423Z</time>
</trkpt>
<trkpt lat="56.150382" lon="8.135773">
<ele>0.172513</ele>
<time>2026-06-18T06:27:22.962Z</time>
</trkpt>
<trkpt lat="56.151267" lon="8.136713">
<ele>0.123789</ele>
<time>2026-06-18T06:27:45.663Z</time>
</trkpt>
<trkpt lat="56.151872" lon="8.137459">
<ele>0.065470</ele>
<time>2026-06-18T06:28:01.910Z</time>
</trkpt>
<trkpt lat="56.152296" lon="8.137836">
<ele>0.017916</ele>
<time>2026-06-18T06:28:12.285Z</time>
</trkpt>
<trkpt lat="56.154284" lon="8.138852">
<ele>-0.269322</ele>
<time>2026-06-18T06:28:56.888Z</time>
</trkpt>
<trkpt lat="56.158181" lon="8.141439">
<ele>-0.774378</ele>
<time>2026-06-18T06:30:27.475Z</time>
</trkpt>
<trkpt lat="56.158601" lon="8.141652">
<ele>-0.796547</ele>
<time>2026-06-18T06:30:36.961Z</time>
</trkpt>
<trkpt lat="56.160381" lon="8.142379">
<ele>-0.562358</ele>
<time>2026-06-18T06:31:17.107Z</time>
</trkpt>
<trkpt lat="56.160539" lon="8.142482">
<ele>-0.440589</ele>
<time>2026-06-18T06:31:21.076Z</time>
</trkpt>
<trkpt lat="56.160693" lon="8.142643">
<ele>-0.311498</ele>
<time>2026-06-18T06:31:25.394Z</time>
</trkpt>
<trkpt lat="56.160789" lon="8.142857">
<ele>-0.200640</ele>
<time>2026-06-18T06:31:29.208Z</time>
</trkpt>
<trkpt lat="56.160902" lon="8.143204">
<ele>-0.038479</ele>
<time>2026-06-18T06:31:34.955Z</time>
</trkpt>
<trkpt lat="56.160928" lon="8.143287">
<ele>-0.000061</ele>
<time>2026-06-18T06:31:36.340Z</time>
</trkpt>
<trkpt lat="56.160991" lon="8.143516">
<ele>0.102978</ele>
<time>2026-06-18T06:31:40.254Z</time>
</trkpt>
<trkpt lat="56.161102" lon="8.144024">
<ele>0.323120</ele>
<time>2026-06-18T06:31:48.645Z</time>
</trkpt>
<trkpt lat="56.161155" lon="8.144548">
<ele>0.597842</ele>
<time>2026-06-18T06:31:57.175Z</time>
</trkpt>
<trkpt lat="56.161161" lon="8.144852">
<ele>0.800402</ele>
<time>2026-06-18T06:32:02.060Z</time>
</trkpt>
<trkpt lat="56.161140" lon="8.145228">
<ele>1.052037</ele>
<time>2026-06-18T06:32:08.131Z</time>
</trkpt>
<trkpt lat="56.161016" lon="8.146220">
<ele>1.729048</ele>
<time>2026-06-18T06:32:24.127Z</time>
</trkpt>
<trkpt lat="56.160759" lon="8.148290">
<ele>2.592055</ele>
<time>2026-06-18T06:32:54.022Z</time>
</trkpt>
<trkpt lat="56.160667" lon="8.149590">
<ele>2.584476</ele>
<time>2026-06-18T06:33:09.821Z</time>
</trkpt>
<trkpt lat="56.160656" lon="8.150034">
<ele>2.581906</ele>
<time>2026-06-18T06:33:14.977Z</time>
</trkpt>
<trkpt lat="56.161575" lon="8.150382">
<ele>2.066229</ele>
<time>2026-06-18T06:33:34.229Z</time>
</trkpt>
<trkpt lat="56.161901" lon="8.150512">
<ele>1.767999</ele>
<time>2026-06-18T06:33:40.643Z</time>
</trkpt>
<trkpt lat="56.162051" lon="8.150627">
<ele>1.622343</ele>
<time>2026-06-18T06:33:43.730Z</time>
</trkpt>
<trkpt lat="56.162257" lon="8.150870">
<ele>1.402233</ele>
<time>2026-06-18T06:33:48.394Z</time>
</trkpt>
<trkpt lat="56.162378" lon="8.151111">
<ele>1.240863</ele>
<time>2026-06-18T06:33:51.839Z</time>
</trkpt>
<trkpt lat="56.162475" lon="8.151370">
<ele>1.085642</ele>
<time>2026-06-18T06:33:55.164Z</time>
</trkpt>
<trkpt lat="56.162569" lon="8.151750">
<ele>0.897249</ele>
<time>2026-06-18T06:33:59.600Z</time>
</trkpt>
<trkpt lat="56.162735" lon="8.152565">
<ele>0.551061</ele>
<time>2026-06-18T06:34:08.775Z</time>
</trkpt>
<trkpt lat="56.163321" lon="8.155516">
<ele>-0.419358</ele>
<time>2026-06-18T06:34:44.625Z</time>
</trkpt>
<trkpt lat="56.163389" lon="8.156104">
<ele>-0.483705</ele>
<time>2026-06-18T06:34:51.775Z</time>
</trkpt>
<trkpt lat="56.163457" lon="8.156917">
<ele>-0.571792</ele>
<time>2026-06-18T06:35:01.684Z</time>
</trkpt>
<trkpt lat="56.164021" lon="8.164445">
<ele>-0.506415</ele>
<time>2026-06-18T06:36:37.106Z</time>
</trkpt>
<trkpt lat="56.164053" lon="8.164815">
<ele>-0.550805</ele>
<time>2026-06-18T06:36:41.470Z</time>
</trkpt>
<trkpt lat="56.164108" lon="8.165141">
<ele>-0.591189</ele>
<time>2026-06-18T06:36:45.456Z</time>
</trkpt>
<trkpt lat="56.164201" lon="8.165500">
<ele>-0.638130</ele>
<time>2026-06-18T06:36:50.063Z</time>
</trkpt>
<trkpt lat="56.164305" lon="8.165776">
<ele>-0.677638</ele>
<time>2026-06-18T06:36:53.915Z</time>
</trkpt>
<trkpt lat="56.164447" lon="8.166052">
<ele>-0.722188</ele>
<time>2026-06-18T06:36:58.271Z</time>
</trkpt>
<trkpt lat="56.166779" lon="8.169336">
<ele>-1.033152</ele>
<time>2026-06-18T06:38:03.085Z</time>
</trkpt>
<trkpt lat="56.166875" lon="8.169470">
<ele>-1.031518</ele>
<time>2026-06-18T06:38:05.805Z</time>
</trkpt>
<trkpt lat="56.167755" lon="8.170694">
<ele>-1.016562</ele>
<time>2026-06-18T06:38:30.793Z</time>
</trkpt>
<trkpt lat="56.168057" lon="8.170892">
<ele>-1.006582</ele>
<time>2026-06-18T06:38:37.990Z</time>
</trkpt>
<trkpt lat="56.171569" lon="8.171807">
<ele>-0.836587</ele>
<time>2026-06-18T06:39:57.188Z</time>
</trkpt>
<trkpt lat="56.171742" lon="8.171911">
<ele>-0.793616</ele>
<time>2026-06-18T06:40:01.400Z</time>
</trkpt>
<trkpt lat="56.171817" lon="8.172003">
<ele>-0.772224</ele>
<time>2026-06-18T06:40:03.514Z</time>
</trkpt>
<trkpt lat="56.171948" lon="8.172284">
<ele>-0.724164</ele>
<time>2026-06-18T06:40:08.266Z</time>
</trkpt>
<trkpt lat="56.172029" lon="8.172520">
<ele>-0.687810</ele>
<time>2026-06-18T06:40:11.889Z</time>
</trkpt>
<trkpt lat="56.172419" lon="8.172052">
<ele>-0.577336</ele>
<time>2026-06-18T06:40:24.086Z</time>
</trkpt>
<trkpt lat="56.172788" lon="8.171748">
<ele>-0.481715</ele>
<time>2026-06-18T06:40:34.734Z</time>
</trkpt>
<trkpt lat="56.173644" lon="8.170871">
<ele>-0.443286</ele>
<time>2026-06-18T06:40:59.734Z</time>
</trkpt>
<trkpt lat="56.173847" lon="8.170746">
<ele>-0.436915</ele>
<time>2026-06-18T06:41:05.027Z</time>
</trkpt>
<trkpt lat="56.173985" lon="8.170721">
<ele>-0.432798</ele>
<time>2026-06-18T06:41:08.443Z</time>
</trkpt>
<trkpt lat="56.174141" lon="8.170744">
<ele>-0.428151</ele>
<time>2026-06-18T06:41:12.248Z</time>
</trkpt>
<trkpt lat="56.175942" lon="8.171385">
<ele>-0.769882</ele>
<time>2026-06-18T06:41:55.663Z</time>
</trkpt>
<trkpt lat="56.177091" lon="8.171737">
<ele>-0.805302</ele>
<time>2026-06-18T06:42:23.895Z</time>
</trkpt>
<trkpt lat="56.178338" lon="8.172243">
<ele>-0.660147</ele>
<time>2026-06-18T06:42:56.591Z</time>
</trkpt>
<trkpt lat="56.178816" lon="8.172480">
<ele>-0.507363</ele>
<time>2026-06-18T06:43:09.666Z</time>
</trkpt>
<trkpt lat="56.178970" lon="8.172494">
<ele>-0.459853</ele>
<time>2026-06-18T06:43:13.741Z</time>
</trkpt>
<trkpt lat="56.179074" lon="8.172459">
<ele>-0.427252</ele>
<time>2026-06-18T06:43:16.531Z</time>
</trkpt>
<trkpt lat="56.179541" lon="8.172559">
<ele>-0.282344</ele>
<time>2026-06-18T06:43:28.788Z</time>
</trkpt>
<trkpt lat="56.180389" lon="8.172588">
<ele>-0.239147</ele>
<time>2026-06-18T06:43:50.255Z</time>
</trkpt>
<trkpt lat="56.180501" lon="8.172550">
<ele>-0.244756</ele>
<time>2026-06-18T06:43:53.084Z</time>
</trkpt>
<trkpt lat="56.180660" lon="8.172496">
<ele>-0.252718</ele>
<time>2026-06-18T06:43:57.041Z</time>
</trkpt>
<trkpt lat="56.184450" lon="8.172473">
<ele>-0.433362</ele>
<time>2026-06-18T06:45:29.253Z</time>
</trkpt>
<trkpt lat="56.186558" lon="8.173040">
<ele>-0.455818</ele>
<time>2026-06-18T06:46:22.355Z</time>
</trkpt>
<trkpt lat="56.186775" lon="8.173252">
<ele>-0.454235</ele>
<time>2026-06-18T06:46:28.353Z</time>
</trkpt>
<trkpt lat="56.187738" lon="8.174547">
<ele>-0.631236</ele>
<time>2026-06-18T06:46:57.249Z</time>
</trkpt>
<trkpt lat="56.187925" lon="8.174762">
<ele>-0.668390</ele>
<time>2026-06-18T06:47:02.558Z</time>
</trkpt>
<trkpt lat="56.189439" lon="8.175484">
<ele>-0.813483</ele>
<time>2026-06-18T06:47:40.420Z</time>
</trkpt>
<trkpt lat="56.189547" lon="8.175491">
<ele>-0.819553</ele>
<time>2026-06-18T06:47:43.053Z</time>
</trkpt>
<trkpt lat="56.189677" lon="8.175412">
<ele>-0.827260</ele>
<time>2026-06-18T06:47:46.416Z</time>
</trkpt>
<trkpt lat="56.193835" lon="8.170497">
<ele>-0.569844</ele>
<time>2026-06-18T06:49:50.873Z</time>
</trkpt>
<trkpt lat="56.200020" lon="8.165108">
<ele>-0.565617</ele>
<time>2026-06-18T06:52:40.554Z</time>
</trkpt>
<trkpt lat="56.202092" lon="8.161561">
<ele>-0.405977</ele>
<time>2026-06-18T06:53:51.954Z</time>
</trkpt>
<trkpt lat="56.202267" lon="8.161392">
<ele>-0.394089</ele>
<time>2026-06-18T06:53:56.955Z</time>
</trkpt>
<trkpt lat="56.203578" lon="8.160827">
<ele>-0.389336</ele>
<time>2026-06-18T06:54:30.458Z</time>
</trkpt>
<trkpt lat="56.205306" lon="8.160135">
<ele>-0.580965</ele>
<time>2026-06-18T06:55:13.057Z</time>
</trkpt>
<trkpt lat="56.206205" lon="8.160580">
<ele>-0.708326</ele>
<time>2026-06-18T06:55:35.862Z</time>
</trkpt>
<trkpt lat="56.211296" lon="8.163263">
<ele>-1.465360</ele>
<time>2026-06-18T06:57:44.214Z</time>
</trkpt>
<trkpt lat="56.211891" lon="8.163443">
<ele>-1.605294</ele>
<time>2026-06-18T06:57:58.087Z</time>
</trkpt>
<trkpt lat="56.213532" lon="8.164367">
<ele>-1.703229</ele>
<time>2026-06-18T06:58:39.796Z</time>
</trkpt>
<trkpt lat="56.214076" lon="8.164574">
<ele>-1.647812</ele>
<time>2026-06-18T06:58:54.503Z</time>
</trkpt>
<trkpt lat="56.214274" lon="8.164643">
<ele>-1.627711</ele>
<time>2026-06-18T06:58:59.777Z</time>
</trkpt>
<trkpt lat="56.215350" lon="8.164965">
<ele>-1.488613</ele>
<time>2026-06-18T06:59:27.541Z</time>
</trkpt>
<trkpt lat="56.222943" lon="8.166011">
<ele>-1.192981</ele>
<time>2026-06-18T07:02:36.376Z</time>
</trkpt>
<trkpt lat="56.227293" lon="8.167490">
<ele>-0.922405</ele>
<time>2026-06-18T07:04:26.826Z</time>
</trkpt>
<trkpt lat="56.227550" lon="8.167489">
<ele>-0.875958</ele>
<time>2026-06-18T07:04:33.530Z</time>
</trkpt>
<trkpt lat="56.227839" lon="8.167349">
<ele>-0.821867</ele>
<time>2026-06-18T07:04:41.286Z</time>
</trkpt>
<trkpt lat="56.227984" lon="8.167267">
<ele>-0.794397</ele>
<time>2026-06-18T07:04:45.206Z</time>
</trkpt>
<trkpt lat="56.228786" lon="8.166827">
<ele>-0.665057</ele>
<time>2026-06-18T07:05:06.719Z</time>
</trkpt>
<trkpt lat="56.230788" lon="8.165911">
<ele>-0.607041</ele>
<time>2026-06-18T07:05:57.568Z</time>
</trkpt>
<trkpt lat="56.231080" lon="8.165852">
<ele>-0.611748</ele>
<time>2026-06-18T07:06:04.917Z</time>
</trkpt>
<trkpt lat="56.234630" lon="8.167844">
<ele>-0.825960</ele>
<time>2026-06-18T07:07:36.294Z</time>
</trkpt>
<trkpt lat="56.236857" lon="8.168665">
<ele>-1.224214</ele>
<time>2026-06-18T07:08:30.062Z</time>
</trkpt>
<trkpt lat="56.237354" lon="8.168775">
<ele>-1.306809</ele>
<time>2026-06-18T07:08:42.536Z</time>
</trkpt>
<trkpt lat="56.237800" lon="8.168738">
<ele>-1.257083</ele>
<time>2026-06-18T07:08:53.883Z</time>
</trkpt>
<trkpt lat="56.238576" lon="8.168670">
<ele>-1.170553</ele>
<time>2026-06-18T07:09:13.641Z</time>
</trkpt>
<trkpt lat="56.238731" lon="8.168603">
<ele>-1.152799</ele>
<time>2026-06-18T07:09:17.642Z</time>
</trkpt>
<trkpt lat="56.239776" lon="8.167726">
<ele>-1.104814</ele>
<time>2026-06-18T07:09:46.044Z</time>
</trkpt>
<trkpt lat="56.239890" lon="8.167579">
<ele>-1.104168</ele>
<time>2026-06-18T07:09:49.497Z</time>
</trkpt>
<trkpt lat="56.241847" lon="8.162500">
<ele>-1.089663</ele>
<time>2026-06-18T07:11:14.510Z</time>
</trkpt>
<trkpt lat="56.241940" lon="8.162337">
<ele>-1.087827</ele>
<time>2026-06-18T07:11:17.734Z</time>
</trkpt>
<trkpt lat="56.242046" lon="8.162250">
<ele>-1.086179</ele>
<time>2026-06-18T07:11:20.635Z</time>
</trkpt>
<trkpt lat="56.242179" lon="8.162245">
<ele>-1.084298</ele>
<time>2026-06-18T07:11:23.930Z</time>
</trkpt>
<trkpt lat="56.242329" lon="8.162323">
<ele>-1.082089</ele>
<time>2026-06-18T07:11:27.839Z</time>
</trkpt>
<trkpt lat="56.244483" lon="8.163427">
<ele>-1.021793</ele>
<time>2026-06-18T07:12:23.602Z</time>
</trkpt>
<trkpt lat="56.244614" lon="8.163434">
<ele>-1.020418</ele>
<time>2026-06-18T07:12:26.832Z</time>
</trkpt>
<trkpt lat="56.246490" lon="8.163022">
<ele>-1.087353</ele>
<time>2026-06-18T07:13:13.105Z</time>
</trkpt>
<trkpt lat="56.246559" lon="8.162961">
<ele>-1.089094</ele>
<time>2026-06-18T07:13:15.001Z</time>
</trkpt>
<trkpt lat="56.246604" lon="8.162854">
<ele>-1.090783</ele>
<time>2026-06-18T07:13:16.829Z</time>
</trkpt>
<trkpt lat="56.247155" lon="8.160704">
<ele>-1.120583</ele>
<time>2026-06-18T07:13:49.088Z</time>
</trkpt>
<trkpt lat="56.247714" lon="8.158515">
<ele>-1.171747</ele>
<time>2026-06-18T07:14:21.947Z</time>
</trkpt>
<trkpt lat="56.247774" lon="8.158159">
<ele>-1.180215</ele>
<time>2026-06-18T07:14:27.049Z</time>
</trkpt>
<trkpt lat="56.247964" lon="8.155375">
<ele>-1.077369</ele>
<time>2026-06-18T07:15:05.750Z</time>
</trkpt>
<trkpt lat="56.247993" lon="8.154204">
<ele>-1.005749</ele>
<time>2026-06-18T07:15:22.318Z</time>
</trkpt>
<trkpt lat="56.248046" lon="8.153836">
<ele>-0.957266</ele>
<time>2026-06-18T07:15:27.761Z</time>
</trkpt>
<trkpt lat="56.248510" lon="8.152191">
<ele>-0.690632</ele>
<time>2026-06-18T07:15:54.427Z</time>
</trkpt>
<trkpt lat="56.248563" lon="8.152138">
<ele>-0.674860</ele>
<time>2026-06-18T07:15:56.762Z</time>
</trkpt>
<trkpt lat="56.248625" lon="8.152163">
<ele>-0.658332</ele>
<time>2026-06-18T07:15:59.183Z</time>
</trkpt>
<trkpt lat="56.248687" lon="8.152201">
<ele>-0.641294</ele>
<time>2026-06-18T07:16:00.775Z</time>
</trkpt>
<trkpt lat="56.250463" lon="8.153375">
<ele>-0.303730</ele>
<time>2026-06-18T07:16:48.660Z</time>
</trkpt>
<trkpt lat="56.250926" lon="8.153583">
<ele>-0.223207</ele>
<time>2026-06-18T07:17:00.725Z</time>
</trkpt>
<trkpt lat="56.250990" lon="8.153667">
<ele>-0.207641</ele>
<time>2026-06-18T07:17:02.727Z</time>
</trkpt>
<trkpt lat="56.251150" lon="8.154250">
<ele>-0.136644</ele>
<time>2026-06-18T07:17:11.923Z</time>
</trkpt>
<trkpt lat="56.252461" lon="8.156999">
<ele>0.323761</ele>
<time>2026-06-18T07:18:03.535Z</time>
</trkpt>
<trkpt lat="56.252523" lon="8.157252">
<ele>0.366261</ele>
<time>2026-06-18T07:18:07.538Z</time>
</trkpt>
<trkpt lat="56.252524" lon="8.157416">
<ele>0.391468</ele>
<time>2026-06-18T07:18:09.903Z</time>
</trkpt>
<trkpt lat="56.252485" lon="8.157686">
<ele>0.434345</ele>
<time>2026-06-18T07:18:13.924Z</time>
</trkpt>
<trkpt lat="56.252235" lon="8.159188">
<ele>0.663846</ele>
<time>2026-06-18T07:18:36.498Z</time>
</trkpt>
<trkpt lat="56.254909" lon="8.160856">
<ele>1.129192</ele>
<time>2026-06-18T07:19:48.826Z</time>
</trkpt>
<trkpt lat="56.255136" lon="8.160053">
<ele>1.162051</ele>
<time>2026-06-18T07:19:59.855Z</time>
</trkpt>
<trkpt lat="56.256195" lon="8.156299">
<ele>0.173929</ele>
<time>2026-06-18T07:20:47.665Z</time>
</trkpt>
<trkpt lat="56.256381" lon="8.155876">
<ele>0.097248</ele>
<time>2026-06-18T07:20:53.935Z</time>
</trkpt>
<trkpt lat="56.256521" lon="8.155688">
<ele>0.052557</ele>
<time>2026-06-18T07:20:57.632Z</time>
</trkpt>
<trkpt lat="56.256748" lon="8.155500">
<ele>-0.011379</ele>
<time>2026-06-18T07:21:02.994Z</time>
</trkpt>
<trkpt lat="56.256852" lon="8.155452">
<ele>-0.038851</ele>
<time>2026-06-18T07:21:05.321Z</time>
</trkpt>
<trkpt lat="56.257980" lon="8.155308">
<ele>-0.003154</ele>
<time>2026-06-18T07:21:30.756Z</time>
</trkpt>
<trkpt lat="56.258116" lon="8.155264">
<ele>0.024000</ele>
<time>2026-06-18T07:21:33.938Z</time>
</trkpt>
<trkpt lat="56.258255" lon="8.155165">
<ele>0.053374</ele>
<time>2026-06-18T07:21:37.425Z</time>
</trkpt>
<trkpt lat="56.258411" lon="8.154885">
<ele>0.096661</ele>
<time>2026-06-18T07:21:42.624Z</time>
</trkpt>
<trkpt lat="56.258525" lon="8.154374">
<ele>0.156768</ele>
<time>2026-06-18T07:21:49.873Z</time>
</trkpt>
<trkpt lat="56.258563" lon="8.154118">
<ele>0.185691</ele>
<time>2026-06-18T07:21:53.354Z</time>
</trkpt>
<trkpt lat="56.258737" lon="8.153002">
<ele>0.470329</ele>
<time>2026-06-18T07:22:08.533Z</time>
</trkpt>
<trkpt lat="56.258772" lon="8.152783">
<ele>0.533346</ele>
<time>2026-06-18T07:22:11.506Z</time>
</trkpt>
<trkpt lat="56.259003" lon="8.151250">
<ele>0.972583</ele>
<time>2026-06-18T07:22:32.945Z</time>
</trkpt>
<trkpt lat="56.259054" lon="8.150919">
<ele>1.067569</ele>
<time>2026-06-18T07:22:37.670Z</time>
</trkpt>
<trkpt lat="56.259360" lon="8.149184">
<ele>1.658797</ele>
<time>2026-06-18T07:23:03.492Z</time>
</trkpt>
<trkpt lat="56.259399" lon="8.148964">
<ele>1.734684</ele>
<time>2026-06-18T07:23:06.742Z</time>
</trkpt>
<trkpt lat="56.259523" lon="8.148288">
<ele>1.968624</ele>
<time>2026-06-18T07:23:16.475Z</time>
</trkpt>
<trkpt lat="56.259597" lon="8.147882">
<ele>2.109039</ele>
<time>2026-06-18T07:23:21.982Z</time>
</trkpt>
<trkpt lat="56.259679" lon="8.147361">
<ele>2.200829</ele>
<time>2026-06-18T07:23:28.807Z</time>
</trkpt>
<trkpt lat="56.259711" lon="8.147003">
<ele>2.233210</ele>
<time>2026-06-18T07:23:33.315Z</time>
</trkpt>
<trkpt lat="56.259709" lon="8.146768">
<ele>2.254199</ele>
<time>2026-06-18T07:23:36.226Z</time>
</trkpt>
<trkpt lat="56.259691" lon="8.146222">
<ele>2.303043</ele>
<time>2026-06-18T07:23:42.895Z</time>
</trkpt>
<trkpt lat="56.259688" lon="8.146022">
<ele>2.320910</ele>
<time>2026-06-18T07:23:45.327Z</time>
</trkpt>
<trkpt lat="56.259687" lon="8.145956">
<ele>2.326806</ele>
<time>2026-06-18T07:23:46.127Z</time>
</trkpt>
<trkpt lat="56.259682" lon="8.145606">
<ele>2.358072</ele>
<time>2026-06-18T07:23:50.403Z</time>
</trkpt>
<trkpt lat="56.259673" lon="8.145157">
<ele>2.398195</ele>
<time>2026-06-18T07:23:56.050Z</time>
</trkpt>
<trkpt lat="56.259668" lon="8.144917">
<ele>2.419643</ele>
<time>2026-06-18T07:23:59.139Z</time>
</trkpt>
<trkpt lat="56.259644" lon="8.143665">
<ele>2.756067</ele>
<time>2026-06-18T07:24:16.105Z</time>
</trkpt>
<trkpt lat="56.259642" lon="8.143508">
<ele>2.812848</ele>
<time>2026-06-18T07:24:18.329Z</time>
</trkpt>
<trkpt lat="56.259720" lon="8.143514">
<ele>2.863670</ele>
<time>2026-06-18T07:24:20.552Z</time>
</trkpt>
<trkpt lat="56.260022" lon="8.143717">
<ele>3.073519</ele>
<time>2026-06-18T07:24:29.625Z</time>
</trkpt>
<trkpt lat="56.260202" lon="8.143750">
<ele>3.191300</ele>
<time>2026-06-18T07:24:34.710Z</time>
</trkpt>
<trkpt lat="56.260449" lon="8.143727">
<ele>3.352305</ele>
<time>2026-06-18T07:24:41.634Z</time>
</trkpt>
<trkpt lat="56.260782" lon="8.143529">
<ele>3.580594</ele>
<time>2026-06-18T07:24:51.341Z</time>
</trkpt>
<trkpt lat="56.260960" lon="8.143434">
<ele>3.659866</ele>
<time>2026-06-18T07:24:56.289Z</time>
</trkpt>
<trkpt lat="56.261259" lon="8.143361">
<ele>3.743964</ele>
<time>2026-06-18T07:25:04.099Z</time>
</trkpt>
<trkpt lat="56.261382" lon="8.143343">
<ele>3.778359</ele>
<time>2026-06-18T07:25:07.220Z</time>
</trkpt>
<trkpt lat="56.261493" lon="8.143326">
<ele>3.809407</ele>
<time>2026-06-18T07:25:10.025Z</time>
</trkpt>
<trkpt lat="56.261651" lon="8.143341">
<ele>3.853505</ele>
<time>2026-06-18T07:25:14.007Z</time>
</trkpt>
<trkpt lat="56.261832" lon="8.143358">
<ele>3.904021</ele>
<time>2026-06-18T07:25:18.584Z</time>
</trkpt>
<trkpt lat="56.262035" lon="8.143480">
<ele>3.963668</ele>
<time>2026-06-18T07:25:23.997Z</time>
</trkpt>
<trkpt lat="56.262238" lon="8.143601">
<ele>4.023266</ele>
<time>2026-06-18T07:25:29.442Z</time>
</trkpt>
<trkpt lat="56.262405" lon="8.143701">
<ele>4.072318</ele>
<time>2026-06-18T07:25:33.893Z</time>
</trkpt>
<trkpt lat="56.262467" lon="8.143424">
<ele>4.118547</ele>
<time>2026-06-18T07:25:40.203Z</time>
</trkpt>
<trkpt lat="56.262578" lon="8.142565">
<ele>4.258976</ele>
<time>2026-06-18T07:25:59.082Z</time>
</trkpt>
<trkpt lat="56.262530" lon="8.142194">
<ele>4.319786</ele>
<time>2026-06-18T07:26:07.412Z</time>
</trkpt>
<trkpt lat="56.262530" lon="8.141783">
<ele>4.385396</ele>
<time>2026-06-18T07:26:16.460Z</time>
</trkpt>
<trkpt lat="56.262721" lon="8.140668">
<ele>4.571661</ele>
<time>2026-06-18T07:26:41.436Z</time>
</trkpt>
<trkpt lat="56.263029" lon="8.140550">
<ele>4.635123</ele>
<time>2026-06-18T07:26:49.087Z</time>
</trkpt>
<trkpt lat="56.263213" lon="8.140491">
<ele>4.592966</ele>
<time>2026-06-18T07:26:53.563Z</time>
</trkpt>
<trkpt lat="56.263318" lon="8.140464">
<ele>4.569041</ele>
<time>2026-06-18T07:26:56.055Z</time>
</trkpt>
<trkpt lat="56.263886" lon="8.140527">
<ele>4.440676</ele>
<time>2026-06-18T07:27:09.321Z</time>
</trkpt>
<trkpt lat="56.264142" lon="8.140519">
<ele>4.382923</ele>
<time>2026-06-18T07:27:15.243Z</time>
</trkpt>
<trkpt lat="56.264484" lon="8.140376">
<ele>4.303726</ele>
<time>2026-06-18T07:27:23.459Z</time>
</trkpt>
<trkpt lat="56.264773" lon="8.140136">
<ele>4.242586</ele>
<time>2026-06-18T07:27:31.206Z</time>
</trkpt>
<trkpt lat="56.264967" lon="8.139851">
<ele>4.250325</ele>
<time>2026-06-18T07:27:37.431Z</time>
</trkpt>
<trkpt lat="56.265097" lon="8.139599">
<ele>4.256229</ele>
<time>2026-06-18T07:27:42.223Z</time>
</trkpt>
<trkpt lat="56.265161" lon="8.139473">
<ele>4.259160</ele>
<time>2026-06-18T07:27:44.630Z</time>
</trkpt>
<trkpt lat="56.265445" lon="8.139134">
<ele>4.269692</ele>
<time>2026-06-18T07:27:53.311Z</time>
</trkpt>
<trkpt lat="56.266654" lon="8.137626">
<ele>4.289770</ele>
<time>2026-06-18T07:28:29.792Z</time>
</trkpt>
<trkpt lat="56.267362" lon="8.136737">
<ele>4.279351</ele>
<time>2026-06-18T07:28:50.892Z</time>
</trkpt>
<trkpt lat="56.267508" lon="8.136610">
<ele>4.277394</ele>
<time>2026-06-18T07:28:54.954Z</time>
</trkpt>
<trkpt lat="56.267667" lon="8.136543">
<ele>4.275423</ele>
<time>2026-06-18T07:28:59.019Z</time>
</trkpt>
<trkpt lat="56.268248" lon="8.136560">
<ele>4.390221</ele>
<time>2026-06-18T07:29:13.727Z</time>
</trkpt>
<trkpt lat="56.268565" lon="8.136714">
<ele>4.457484</ele>
<time>2026-06-18T07:29:22.167Z</time>
</trkpt>
<trkpt lat="56.269044" lon="8.136906">
<ele>4.558014</ele>
<time>2026-06-18T07:29:35.047Z</time>
</trkpt>
<trkpt lat="56.269270" lon="8.136976">
<ele>4.604992</ele>
<time>2026-06-18T07:29:40.950Z</time>
</trkpt>
<trkpt lat="56.269729" lon="8.136990">
<ele>4.668351</ele>
<time>2026-06-18T07:29:52.521Z</time>
</trkpt>
<trkpt lat="56.269830" lon="8.136951">
<ele>4.677786</ele>
<time>2026-06-18T07:29:55.080Z</time>
</trkpt>
<trkpt lat="56.270047" lon="8.136704">
<ele>4.701236</ele>
<time>2026-06-18T07:30:01.401Z</time>
</trkpt>
<trkpt lat="56.270570" lon="8.135968">
<ele>4.761866</ele>
<time>2026-06-18T07:30:17.987Z</time>
</trkpt>
<trkpt lat="56.270720" lon="8.135742">
<ele>4.779731</ele>
<time>2026-06-18T07:30:22.829Z</time>
</trkpt>
<trkpt lat="56.271087" lon="8.135288">
<ele>4.809902</ele>
<time>2026-06-18T07:30:33.918Z</time>
</trkpt>
<trkpt lat="56.271224" lon="8.135168">
<ele>4.812076</ele>
<time>2026-06-18T07:30:37.724Z</time>
</trkpt>
<trkpt lat="56.271910" lon="8.134799">
<ele>4.822297</ele>
<time>2026-06-18T07:30:55.670Z</time>
</trkpt>
<trkpt lat="56.272029" lon="8.134721">
<ele>4.824105</ele>
<time>2026-06-18T07:30:58.786Z</time>
</trkpt>
<trkpt lat="56.272131" lon="8.134595">
<ele>4.825870</ele>
<time>2026-06-18T07:31:01.816Z</time>
</trkpt>
<trkpt lat="56.272527" lon="8.134004">
<ele>4.833212</ele>
<time>2026-06-18T07:31:14.314Z</time>
</trkpt>
<trkpt lat="56.272847" lon="8.133670">
<ele>4.860667</ele>
<time>2026-06-18T07:31:23.302Z</time>
</trkpt>
<trkpt lat="56.273188" lon="8.132842">
<ele>4.906131</ele>
<time>2026-06-18T07:31:37.445Z</time>
</trkpt>
<trkpt lat="56.273353" lon="8.132651">
<ele>4.921710</ele>
<time>2026-06-18T07:31:42.354Z</time>
</trkpt>
<trkpt lat="56.273475" lon="8.132574">
<ele>4.931978</ele>
<time>2026-06-18T07:31:45.635Z</time>
</trkpt>
<trkpt lat="56.273591" lon="8.132530">
<ele>4.941393</ele>
<time>2026-06-18T07:31:48.683Z</time>
</trkpt>
<trkpt lat="56.273961" lon="8.132496">
<ele>4.970820</ele>
<time>2026-06-18T07:31:58.255Z</time>
</trkpt>
<trkpt lat="56.274321" lon="8.132293">
<ele>5.042860</ele>
<time>2026-06-18T07:32:08.015Z</time>
</trkpt>
<trkpt lat="56.274687" lon="8.132382">
<ele>5.123016</ele>
<time>2026-06-18T07:32:17.660Z</time>
</trkpt>
<trkpt lat="56.275241" lon="8.132327">
<ele>5.243436</ele>
<time>2026-06-18T07:32:31.875Z</time>
</trkpt>
<trkpt lat="56.275601" lon="8.132190">
<ele>5.323294</ele>
<time>2026-06-18T07:32:41.147Z</time>
</trkpt>
<trkpt lat="56.275749" lon="8.132217">
<ele>5.355579</ele>
<time>2026-06-18T07:32:44.853Z</time>
</trkpt>
<trkpt lat="56.276070" lon="8.132510">
<ele>5.415761</ele>
<time>2026-06-18T07:32:53.817Z</time>
</trkpt>
<trkpt lat="56.276457" lon="8.132967">
<ele>5.489258</ele>
<time>2026-06-18T07:33:05.334Z</time>
</trkpt>
<trkpt lat="56.276879" lon="8.133394">
<ele>5.566133</ele>
<time>2026-06-18T07:33:17.572Z</time>
</trkpt>
<trkpt lat="56.277325" lon="8.133878">
<ele>5.648831</ele>
<time>2026-06-18T07:33:31.016Z</time>
</trkpt>
<trkpt lat="56.277436" lon="8.133994">
<ele>5.670496</ele>
<time>2026-06-18T07:33:34.367Z</time>
</trkpt>
<trkpt lat="56.277861" lon="8.134213">
<ele>5.746103</ele>
<time>2026-06-18T07:33:46.032Z</time>
</trkpt>
<trkpt lat="56.278031" lon="8.134349">
<ele>5.777919</ele>
<time>2026-06-18T07:33:50.904Z</time>
</trkpt>
<trkpt lat="56.278107" lon="8.134380">
<ele>5.791247</ele>
<time>2026-06-18T07:33:52.876Z</time>
</trkpt>
<trkpt lat="56.278264" lon="8.134352">
<ele>5.818231</ele>
<time>2026-06-18T07:33:56.877Z</time>
</trkpt>
<trkpt lat="56.278393" lon="8.134340">
<ele>5.840325</ele>
<time>2026-06-18T07:34:00.167Z</time>
</trkpt>
<trkpt lat="56.278942" lon="8.134468">
<ele>5.935008</ele>
<time>2026-06-18T07:34:13.931Z</time>
</trkpt>
<trkpt lat="56.279202" lon="8.134685">
<ele>5.958557</ele>
<time>2026-06-18T07:34:20.894Z</time>
</trkpt>
<trkpt lat="56.279317" lon="8.134836">
<ele>5.956911</ele>
<time>2026-06-18T07:34:24.373Z</time>
</trkpt>
<trkpt lat="56.279429" lon="8.135123">
<ele>5.954658</ele>
<time>2026-06-18T07:34:29.114Z</time>
</trkpt>
<trkpt lat="56.279480" lon="8.135402">
<ele>5.952772</ele>
<time>2026-06-18T07:34:33.038Z</time>
</trkpt>
<trkpt lat="56.279745" lon="8.136255">
<ele>5.946495</ele>
<time>2026-06-18T07:34:46.125Z</time>
</trkpt>
<trkpt lat="56.279889" lon="8.136455">
<ele>5.944392</ele>
<time>2026-06-18T07:34:50.703Z</time>
</trkpt>
<trkpt lat="56.280421" lon="8.136855">
<ele>5.973025</ele>
<time>2026-06-18T07:35:05.546Z</time>
</trkpt>
<trkpt lat="56.280476" lon="8.136891">
<ele>5.986908</ele>
<time>2026-06-18T07:35:07.080Z</time>
</trkpt>
<trkpt lat="56.280672" lon="8.137200">
<ele>6.048700</ele>
<time>2026-06-18T07:35:13.599Z</time>
</trkpt>
<trkpt lat="56.280930" lon="8.138648">
<ele>6.248979</ele>
<time>2026-06-18T07:35:35.381Z</time>
</trkpt>
<trkpt lat="56.280976" lon="8.138906">
<ele>6.284666</ele>
<time>2026-06-18T07:35:39.267Z</time>
</trkpt>
<trkpt lat="56.281306" lon="8.139537">
<ele>6.385118</ele>
<time>2026-06-18T07:35:51.624Z</time>
</trkpt>
<trkpt lat="56.281952" lon="8.141379">
<ele>6.551917</ele>
<time>2026-06-18T07:36:22.220Z</time>
</trkpt>
<trkpt lat="56.282109" lon="8.141632">
<ele>6.580968</ele>
<time>2026-06-18T07:36:27.449Z</time>
</trkpt>
<trkpt lat="56.283262" lon="8.143487">
<ele>6.841616</ele>
<time>2026-06-18T07:37:06.001Z</time>
</trkpt>
<trkpt lat="56.283613" lon="8.144698">
<ele>7.017165</ele>
<time>2026-06-18T07:37:26.109Z</time>
</trkpt>
<trkpt lat="56.283498" lon="8.145651">
<ele>7.200112</ele>
<time>2026-06-18T07:37:47.223Z</time>
</trkpt>
<trkpt lat="56.283514" lon="8.146632">
<ele>7.384216</ele>
<time>2026-06-18T07:38:08.227Z</time>
</trkpt>
<trkpt lat="56.283658" lon="8.147472">
<ele>7.535918</ele>
<time>2026-06-18T07:38:26.787Z</time>
</trkpt>
<trkpt lat="56.283648" lon="8.148119">
<ele>7.540444</ele>
<time>2026-06-18T07:38:40.078Z</time>
</trkpt>
<trkpt lat="56.283688" lon="8.148413">
<ele>7.542561</ele>
<time>2026-06-18T07:38:46.252Z</time>
</trkpt>
<trkpt lat="56.283971" lon="8.149374">
<ele>7.550167</ele>
<time>2026-06-18T07:39:08.283Z</time>
</trkpt>
<trkpt lat="56.283982" lon="8.149545">
<ele>7.551371</ele>
<time>2026-06-18T07:39:11.760Z</time>
</trkpt>
<trkpt lat="56.284008" lon="8.150002">
<ele>7.554583</ele>
<time>2026-06-18T07:39:21.102Z</time>
</trkpt>
<trkpt lat="56.284029" lon="8.150353">
<ele>7.557052</ele>
<time>2026-06-18T07:39:28.409Z</time>
</trkpt>
<trkpt lat="56.284055" lon="8.151481">
<ele>7.763405</ele>
<time>2026-06-18T07:39:44.372Z</time>
</trkpt>
<trkpt lat="56.284176" lon="8.154665">
<ele>8.511087</ele>
<time>2026-06-18T07:40:31.579Z</time>
</trkpt>
<trkpt lat="56.284180" lon="8.156644">
<ele>9.097127</ele>
<time>2026-06-18T07:41:00.760Z</time>
</trkpt>
<trkpt lat="56.284224" lon="8.157199">
<ele>9.300189</ele>
<time>2026-06-18T07:41:09.422Z</time>
</trkpt>
<trkpt lat="56.284305" lon="8.157686">
<ele>9.531021</ele>
<time>2026-06-18T07:41:17.371Z</time>
</trkpt>
<trkpt lat="56.284387" lon="8.158134">
<ele>9.745205</ele>
<time>2026-06-18T07:41:24.873Z</time>
</trkpt>
<trkpt lat="56.284488" lon="8.158523">
<ele>9.940194</ele>
<time>2026-06-18T07:41:31.716Z</time>
</trkpt>
<trkpt lat="56.284613" lon="8.158813">
<ele>10.106903</ele>
<time>2026-06-18T07:41:37.476Z</time>
</trkpt>
<trkpt lat="56.285111" lon="8.159718">
<ele>10.681636</ele>
<time>2026-06-18T07:41:57.478Z</time>
</trkpt>
<trkpt lat="56.285190" lon="8.160047">
<ele>10.813774</ele>
<time>2026-06-18T07:42:02.974Z</time>
</trkpt>
<trkpt lat="56.285191" lon="8.160244">
<ele>10.886395</ele>
<time>2026-06-18T07:42:05.953Z</time>
</trkpt>
<trkpt lat="56.284976" lon="8.161625">
<ele>11.415105</ele>
<time>2026-06-18T07:42:26.742Z</time>
</trkpt>
<trkpt lat="56.284919" lon="8.161934">
<ele>11.535134</ele>
<time>2026-06-18T07:42:31.518Z</time>
</trkpt>
<trkpt lat="56.284737" lon="8.162918">
<ele>11.975473</ele>
<time>2026-06-18T07:42:47.611Z</time>
</trkpt>
<trkpt lat="56.285246" lon="8.163173">
<ele>12.677037</ele>
<time>2026-06-18T07:43:10.289Z</time>
</trkpt>
<trkpt lat="56.285388" lon="8.163244">
<ele>12.872731</ele>
<time>2026-06-18T07:43:14.793Z</time>
</trkpt>
<trkpt lat="56.286182" lon="8.163563">
<ele>13.953009</ele>
<time>2026-06-18T07:43:40.206Z</time>
</trkpt>
<trkpt lat="56.286656" lon="8.163611">
<ele>14.286448</ele>
<time>2026-06-18T07:43:54.215Z</time>
</trkpt>
<trkpt lat="56.287267" lon="8.163531">
<ele>14.379873</ele>
<time>2026-06-18T07:44:10.592Z</time>
</trkpt>
<trkpt lat="56.287485" lon="8.163421">
<ele>14.414398</ele>
<time>2026-06-18T07:44:16.117Z</time>
</trkpt>
<trkpt lat="56.288097" lon="8.162978">
<ele>14.514981</ele>
<time>2026-06-18T07:44:31.259Z</time>
</trkpt>
<trkpt lat="56.288306" lon="8.162875">
<ele>14.354087</ele>
<time>2026-06-18T07:44:36.066Z</time>
</trkpt>
<trkpt lat="56.288418" lon="8.162824">
<ele>14.239329</ele>
<time>2026-06-18T07:44:38.608Z</time>
</trkpt>
<trkpt lat="56.288701" lon="8.162817">
<ele>13.958173</ele>
<time>2026-06-18T07:44:44.783Z</time>
</trkpt>
<trkpt lat="56.289284" lon="8.162994">
<ele>13.370863</ele>
<time>2026-06-18T07:44:57.605Z</time>
</trkpt>
<trkpt lat="56.289502" lon="8.163002">
<ele>13.154259</ele>
<time>2026-06-18T07:45:02.299Z</time>
</trkpt>
<trkpt lat="56.289671" lon="8.162931">
<ele>12.981873</ele>
<time>2026-06-18T07:45:06.006Z</time>
</trkpt>
<trkpt lat="56.290288" lon="8.162347">
<ele>12.136560</ele>
<time>2026-06-18T07:45:20.713Z</time>
</trkpt>
<trkpt lat="56.290517" lon="8.162184">
<ele>11.808062</ele>
<time>2026-06-18T07:45:25.849Z</time>
</trkpt>
<trkpt lat="56.290734" lon="8.162021">
<ele>11.494400</ele>
<time>2026-06-18T07:45:30.737Z</time>
</trkpt>
<trkpt lat="56.291743" lon="8.161180">
<ele>10.090440</ele>
<time>2026-06-18T07:45:54.002Z</time>
</trkpt>
<trkpt lat="56.291868" lon="8.161077">
<ele>9.951833</ele>
<time>2026-06-18T07:45:56.913Z</time>
</trkpt>
<trkpt lat="56.292181" lon="8.160864">
<ele>9.614440</ele>
<time>2026-06-18T07:46:04.048Z</time>
</trkpt>
<trkpt lat="56.292449" lon="8.160806">
<ele>9.342241</ele>
<time>2026-06-18T07:46:09.851Z</time>
</trkpt>
<trkpt lat="56.292568" lon="8.160753">
<ele>9.218628</ele>
<time>2026-06-18T07:46:12.514Z</time>
</trkpt>
<trkpt lat="56.292804" lon="8.160565">
<ele>8.958423</ele>
<time>2026-06-18T07:46:18.165Z</time>
</trkpt>
<trkpt lat="56.292938" lon="8.160396">
<ele>8.793487</ele>
<time>2026-06-18T07:46:21.821Z</time>
</trkpt>
<trkpt lat="56.293206" lon="8.159905">
<ele>8.510123</ele>
<time>2026-06-18T07:46:30.435Z</time>
</trkpt>
<trkpt lat="56.293648" lon="8.159531">
<ele>8.458798</ele>
<time>2026-06-18T07:46:41.495Z</time>
</trkpt>
<trkpt lat="56.293729" lon="8.159456">
<ele>8.449226</ele>
<time>2026-06-18T07:46:43.627Z</time>
</trkpt>
<trkpt lat="56.294078" lon="8.159124">
<ele>8.407745</ele>
<time>2026-06-18T07:46:53.195Z</time>
</trkpt>
<trkpt lat="56.294215" lon="8.158922">
<ele>8.389139</ele>
<time>2026-06-18T07:46:57.724Z</time>
</trkpt>
<trkpt lat="56.294349" lon="8.158637">
<ele>8.367351</ele>
<time>2026-06-18T07:47:03.136Z</time>
</trkpt>
<trkpt lat="56.294655" lon="8.157732">
<ele>8.376935</ele>
<time>2026-06-18T07:47:19.014Z</time>
</trkpt>
<trkpt lat="56.294735" lon="8.157557">
<ele>8.398164</ele>
<time>2026-06-18T07:47:22.416Z</time>
</trkpt>
<trkpt lat="56.294857" lon="8.157423">
<ele>8.422270</ele>
<time>2026-06-18T07:47:26.256Z</time>
</trkpt>
<trkpt lat="56.295389" lon="8.157183">
<ele>8.514802</ele>
<time>2026-06-18T07:47:40.748Z</time>
</trkpt>
<trkpt lat="56.295917" lon="8.157074">
<ele>8.604471</ele>
<time>2026-06-18T07:47:54.102Z</time>
</trkpt>
<trkpt lat="56.297019" lon="8.156729">
<ele>7.705025</ele>
<time>2026-06-18T07:48:19.015Z</time>
</trkpt>
<trkpt lat="56.297317" lon="8.156556">
<ele>7.391190</ele>
<time>2026-06-18T07:48:25.626Z</time>
</trkpt>
<trkpt lat="56.298139" lon="8.155950">
<ele>6.671729</ele>
<time>2026-06-18T07:48:43.889Z</time>
</trkpt>
<trkpt lat="56.298547" lon="8.155648">
<ele>6.456700</ele>
<time>2026-06-18T07:48:53.228Z</time>
</trkpt>
<trkpt lat="56.298620" lon="8.155593">
<ele>6.418126</ele>
<time>2026-06-18T07:48:54.927Z</time>
</trkpt>
<trkpt lat="56.302515" lon="8.152660">
<ele>4.794232</ele>
<time>2026-06-18T07:50:36.164Z</time>
</trkpt>
<trkpt lat="56.303460" lon="8.151999">
<ele>4.445429</ele>
<time>2026-06-18T07:51:00.410Z</time>
</trkpt>
<trkpt lat="56.304208" lon="8.151590">
<ele>4.121443</ele>
<time>2026-06-18T07:51:18.342Z</time>
</trkpt>
<trkpt lat="56.304564" lon="8.151399">
<ele>3.970797</ele>
<time>2026-06-18T07:51:26.682Z</time>
</trkpt>
<trkpt lat="56.305681" lon="8.150806">
<ele>3.573035</ele>
<time>2026-06-18T07:51:53.437Z</time>
</trkpt>
<trkpt lat="56.305745" lon="8.150773">
<ele>3.550296</ele>
<time>2026-06-18T07:51:55.020Z</time>
</trkpt>
<trkpt lat="56.306312" lon="8.150493">
<ele>3.382780</ele>
<time>2026-06-18T07:52:09.375Z</time>
</trkpt>
<trkpt lat="56.306081" lon="8.142910">
<ele>4.220846</ele>
<time>2026-06-18T07:53:57.208Z</time>
</trkpt>
<trkpt lat="56.306052" lon="8.142469">
<ele>4.280094</ele>
<time>2026-06-18T07:54:03.571Z</time>
</trkpt>
<trkpt lat="56.305835" lon="8.141026">
<ele>4.479558</ele>
<time>2026-06-18T07:54:24.870Z</time>
</trkpt>
<trkpt lat="56.305544" lon="8.137646">
<ele>4.849874</ele>
<time>2026-06-18T07:55:13.096Z</time>
</trkpt>
<trkpt lat="56.305524" lon="8.137135">
<ele>4.901480</ele>
<time>2026-06-18T07:55:20.540Z</time>
</trkpt>
<trkpt lat="56.305578" lon="8.136991">
<ele>4.918989</ele>
<time>2026-06-18T07:55:23.049Z</time>
</trkpt>
<trkpt lat="56.306238" lon="8.135757">
<ele>5.091665</ele>
<time>2026-06-18T07:55:47.478Z</time>
</trkpt>
<trkpt lat="56.306329" lon="8.135661">
<ele>5.110811</ele>
<time>2026-06-18T07:55:50.122Z</time>
</trkpt>
<trkpt lat="56.306855" lon="8.135312">
<ele>5.102010</ele>
<time>2026-06-18T07:56:03.900Z</time>
</trkpt>
<trkpt lat="56.307383" lon="8.134870">
<ele>4.956474</ele>
<time>2026-06-18T07:56:17.800Z</time>
</trkpt>
<trkpt lat="56.308135" lon="8.134018">
<ele>4.734432</ele>
<time>2026-06-18T07:56:38.706Z</time>
</trkpt>
<trkpt lat="56.308417" lon="8.133608">
<ele>4.555527</ele>
<time>2026-06-18T07:56:47.072Z</time>
</trkpt>
<trkpt lat="56.308790" lon="8.132977">
<ele>4.271957</ele>
<time>2026-06-18T07:56:58.738Z</time>
</trkpt>
<trkpt lat="56.308951" lon="8.132618">
<ele>4.129991</ele>
<time>2026-06-18T07:57:04.534Z</time>
</trkpt>
<trkpt lat="56.309136" lon="8.131965">
<ele>3.904508</ele>
<time>2026-06-18T07:57:13.711Z</time>
</trkpt>
<trkpt lat="56.309293" lon="8.131654">
<ele>3.775195</ele>
<time>2026-06-18T07:57:18.984Z</time>
</trkpt>
<trkpt lat="56.309424" lon="8.131471">
<ele>3.689553</ele>
<time>2026-06-18T07:57:22.741Z</time>
</trkpt>
<trkpt lat="56.309543" lon="8.131389">
<ele>3.631163</ele>
<time>2026-06-18T07:57:25.660Z</time>
</trkpt>
<trkpt lat="56.309656" lon="8.131380">
<ele>3.579321</ele>
<time>2026-06-18T07:57:28.240Z</time>
</trkpt>
<trkpt lat="56.309798" lon="8.131446">
<ele>3.512110</ele>
<time>2026-06-18T07:57:31.591Z</time>
</trkpt>
<trkpt lat="56.310258" lon="8.131746">
<ele>3.287906</ele>
<time>2026-06-18T07:57:42.909Z</time>
</trkpt>
<trkpt lat="56.310589" lon="8.132072">
<ele>3.115036</ele>
<time>2026-06-18T07:57:51.638Z</time>
</trkpt>
<trkpt lat="56.310707" lon="8.132137">
<ele>3.058484</ele>
<time>2026-06-18T07:57:54.521Z</time>
</trkpt>
<trkpt lat="56.310952" lon="8.132148">
<ele>2.946158</ele>
<time>2026-06-18T07:58:00.229Z</time>
</trkpt>
<trkpt lat="56.311073" lon="8.132218">
<ele>2.891863</ele>
<time>2026-06-18T07:58:03.214Z</time>
</trkpt>
<trkpt lat="56.311285" lon="8.132463">
<ele>2.841461</ele>
<time>2026-06-18T07:58:09.104Z</time>
</trkpt>
<trkpt lat="56.311341" lon="8.132513">
<ele>2.828953</ele>
<time>2026-06-18T07:58:10.567Z</time>
</trkpt>
<trkpt lat="56.311418" lon="8.132575">
<ele>2.812074</ele>
<time>2026-06-18T07:58:12.538Z</time>
</trkpt>
<trkpt lat="56.311542" lon="8.132570">
<ele>2.787249</ele>
<time>2026-06-18T07:58:15.456Z</time>
</trkpt>
<trkpt lat="56.315616" lon="8.132226">
<ele>2.103351</ele>
<time>2026-06-18T07:59:53.516Z</time>
</trkpt>
<trkpt lat="56.316252" lon="8.132243">
<ele>2.058685</ele>
<time>2026-06-18T08:00:09.598Z</time>
</trkpt>
<trkpt lat="56.316611" lon="8.132208">
<ele>2.029331</ele>
<time>2026-06-18T08:00:18.607Z</time>
</trkpt>
<trkpt lat="56.316945" lon="8.132226">
<ele>1.999515</ele>
<time>2026-06-18T08:00:26.943Z</time>
</trkpt>
<trkpt lat="56.317273" lon="8.132160">
<ele>1.970067</ele>
<time>2026-06-18T08:00:35.021Z</time>
</trkpt>
<trkpt lat="56.317461" lon="8.132092">
<ele>1.952957</ele>
<time>2026-06-18T08:00:39.623Z</time>
</trkpt>
<trkpt lat="56.317555" lon="8.132128">
<ele>1.944383</ele>
<time>2026-06-18T08:00:41.943Z</time>
</trkpt>
<trkpt lat="56.317853" lon="8.132049">
<ele>1.917507</ele>
<time>2026-06-18T08:00:49.054Z</time>
</trkpt>
<trkpt lat="56.318463" lon="8.131920">
<ele>1.897370</ele>
<time>2026-06-18T08:01:03.843Z</time>
</trkpt>
<trkpt lat="56.319353" lon="8.131736">
<ele>1.926455</ele>
<time>2026-06-18T08:01:26.124Z</time>
</trkpt>
<trkpt lat="56.319434" lon="8.131720">
<ele>1.929100</ele>
<time>2026-06-18T08:01:28.190Z</time>
</trkpt>
<trkpt lat="56.320478" lon="8.131505">
<ele>1.903948</ele>
<time>2026-06-18T08:01:54.485Z</time>
</trkpt>
<trkpt lat="56.320573" lon="8.131460">
<ele>1.895818</ele>
<time>2026-06-18T08:01:56.886Z</time>
</trkpt>
<trkpt lat="56.320660" lon="8.131294">
<ele>1.885335</ele>
<time>2026-06-18T08:01:59.969Z</time>
</trkpt>
<trkpt lat="56.320849" lon="8.130589">
<ele>1.849393</ele>
<time>2026-06-18T08:02:10.484Z</time>
</trkpt>
<trkpt lat="56.320895" lon="8.130341">
<ele>1.837391</ele>
<time>2026-06-18T08:02:13.978Z</time>
</trkpt>
<trkpt lat="56.320968" lon="8.129473">
<ele>1.797788</ele>
<time>2026-06-18T08:02:25.658Z</time>
</trkpt>
<trkpt lat="56.321005" lon="8.129114">
<ele>1.802096</ele>
<time>2026-06-18T08:02:30.480Z</time>
</trkpt>
<trkpt lat="56.321247" lon="8.127651">
<ele>1.820106</ele>
<time>2026-06-18T08:02:51.138Z</time>
</trkpt>
<trkpt lat="56.321395" lon="8.127119">
<ele>1.827128</ele>
<time>2026-06-18T08:02:59.652Z</time>
</trkpt>
<trkpt lat="56.321527" lon="8.127013">
<ele>1.830202</ele>
<time>2026-06-18T08:03:03.029Z</time>
</trkpt>
<trkpt lat="56.321560" lon="8.126806">
<ele>1.832743</ele>
<time>2026-06-18T08:03:05.839Z</time>
</trkpt>
<trkpt lat="56.321707" lon="8.126258">
<ele>1.790846</ele>
<time>2026-06-18T08:03:13.743Z</time>
</trkpt>
<trkpt lat="56.321727" lon="8.126180">
<ele>1.779465</ele>
<time>2026-06-18T08:03:14.861Z</time>
</trkpt>
<trkpt lat="56.322006" lon="8.125070">
<ele>1.618056</ele>
<time>2026-06-18T08:03:29.965Z</time>
</trkpt>
<trkpt lat="56.322063" lon="8.124855">
<ele>1.586494</ele>
<time>2026-06-18T08:03:32.751Z</time>
</trkpt>
<trkpt lat="56.322168" lon="8.124559">
<ele>1.539956</ele>
<time>2026-06-18T08:03:36.757Z</time>
</trkpt>
<trkpt lat="56.322272" lon="8.124402">
<ele>1.507562</ele>
<time>2026-06-18T08:03:39.504Z</time>
</trkpt>
<trkpt lat="56.322394" lon="8.124294">
<ele>1.475102</ele>
<time>2026-06-18T08:03:42.209Z</time>
</trkpt>
<trkpt lat="56.322526" lon="8.124242">
<ele>1.442832</ele>
<time>2026-06-18T08:03:44.904Z</time>
</trkpt>
<trkpt lat="56.322662" lon="8.124249">
<ele>1.410336</ele>
<time>2026-06-18T08:03:47.585Z</time>
</trkpt>
<trkpt lat="56.322792" lon="8.124314">
<ele>1.370639</ele>
<time>2026-06-18T08:03:50.276Z</time>
</trkpt>
<trkpt lat="56.322910" lon="8.124428">
<ele>1.330192</ele>
<time>2026-06-18T08:03:52.939Z</time>
</trkpt>
<trkpt lat="56.323055" lon="8.124717">
<ele>1.264893</ele>
<time>2026-06-18T08:03:57.293Z</time>
</trkpt>
<trkpt lat="56.323040" lon="8.124815">
<ele>1.247860</ele>
<time>2026-06-18T08:03:58.454Z</time>
</trkpt>
<trkpt lat="56.323070" lon="8.124892">
<ele>1.232093</ele>
<time>2026-06-18T08:03:59.524Z</time>
</trkpt>
<trkpt lat="56.323516" lon="8.124415">
<ele>1.075420</ele>
<time>2026-06-18T08:04:10.206Z</time>
</trkpt>
<trkpt lat="56.323994" lon="8.124057">
<ele>0.919034</ele>
<time>2026-06-18T08:04:21.541Z</time>
</trkpt>
<trkpt lat="56.324504" lon="8.123823">
<ele>0.956492</ele>
<time>2026-06-18T08:04:33.939Z</time>
</trkpt>
<trkpt lat="56.324758" lon="8.123756">
<ele>1.027106</ele>
<time>2026-06-18T08:04:40.137Z</time>
</trkpt>
<trkpt lat="56.325034" lon="8.123680">
<ele>1.103908</ele>
<time>2026-06-18T08:04:46.826Z</time>
</trkpt>
<trkpt lat="56.325424" lon="8.123571">
<ele>1.212470</ele>
<time>2026-06-18T08:04:56.113Z</time>
</trkpt>
<trkpt lat="56.325733" lon="8.123507">
<ele>1.298028</ele>
<time>2026-06-18T08:05:03.398Z</time>
</trkpt>
<trkpt lat="56.326047" lon="8.123427">
<ele>1.342758</ele>
<time>2026-06-18T08:05:10.635Z</time>
</trkpt>
<trkpt lat="56.326588" lon="8.123357">
<ele>1.262387</ele>
<time>2026-06-18T08:05:22.695Z</time>
</trkpt>
<trkpt lat="56.327137" lon="8.123329">
<ele>1.181004</ele>
<time>2026-06-18T08:05:34.431Z</time>
</trkpt>
<trkpt lat="56.327666" lon="8.123314">
<ele>1.102607</ele>
<time>2026-06-18T08:05:45.454Z</time>
</trkpt>
<trkpt lat="56.329430" lon="8.123264">
<ele>0.664017</ele>
<time>2026-06-18T08:06:22.892Z</time>
</trkpt>
<trkpt lat="56.331587" lon="8.123180">
<ele>0.438357</ele>
<time>2026-06-18T08:07:10.428Z</time>
</trkpt>
<trkpt lat="56.334479" lon="8.123066">
<ele>0.035854</ele>
<time>2026-06-18T08:08:12.150Z</time>
</trkpt>
<trkpt lat="56.337138" lon="8.122961">
<ele>0.620831</ele>
<time>2026-06-18T08:09:15.347Z</time>
</trkpt>
<trkpt lat="56.338935" lon="8.122891">
<ele>0.608001</ele>
<time>2026-06-18T08:09:54.487Z</time>
</trkpt>
<trkpt lat="56.340128" lon="8.122844">
<ele>0.510465</ele>
<time>2026-06-18T08:10:20.501Z</time>
</trkpt>
<trkpt lat="56.341550" lon="8.122775">
<ele>0.621300</ele>
<time>2026-06-18T08:10:53.117Z</time>
</trkpt>
<trkpt lat="56.342509" lon="8.122754">
<ele>0.622694</ele>
<time>2026-06-18T08:11:14.410Z</time>
</trkpt>
<trkpt lat="56.343128" lon="8.122744">
<ele>0.526199</ele>
<time>2026-06-18T08:11:27.863Z</time>
</trkpt>
<trkpt lat="56.344141" lon="8.122727">
<ele>0.388069</ele>
<time>2026-06-18T08:11:49.383Z</time>
</trkpt>
<trkpt lat="56.344700" lon="8.122718">
<ele>0.352837</ele>
<time>2026-06-18T08:12:01.714Z</time>
</trkpt>
<trkpt lat="56.345156" lon="8.122711">
<ele>0.324097</ele>
<time>2026-06-18T08:12:11.893Z</time>
</trkpt>
<trkpt lat="56.346100" lon="8.122695">
<ele>0.259823</ele>
<time>2026-06-18T08:12:32.788Z</time>
</trkpt>
<trkpt lat="56.346748" lon="8.122685">
<ele>0.210694</ele>
<time>2026-06-18T08:12:47.096Z</time>
</trkpt>
<trkpt lat="56.347926" lon="8.122666">
<ele>0.208639</ele>
<time>2026-06-18T08:13:12.695Z</time>
</trkpt>
<trkpt lat="56.349117" lon="8.122635">
<ele>0.377570</ele>
<time>2026-06-18T08:13:40.162Z</time>
</trkpt>
<trkpt lat="56.349900" lon="8.122614">
<ele>0.555941</ele>
<time>2026-06-18T08:13:58.687Z</time>
</trkpt>
<trkpt lat="56.350759" lon="8.122596">
<ele>0.778079</ele>
<time>2026-06-18T08:14:19.002Z</time>
</trkpt>
<trkpt lat="56.351980" lon="8.122570">
<ele>0.723814</ele>
<time>2026-06-18T08:14:46.205Z</time>
</trkpt>
<trkpt lat="56.352382" lon="8.122603">
<ele>0.654327</ele>
<time>2026-06-18T08:14:54.603Z</time>
</trkpt>
<trkpt lat="56.353243" lon="8.122593">
<ele>0.511485</ele>
<time>2026-06-18T08:15:12.428Z</time>
</trkpt>
<trkpt lat="56.354024" lon="8.122584">
<ele>0.390738</ele>
<time>2026-06-18T08:15:28.984Z</time>
</trkpt>
<trkpt lat="56.354860" lon="8.122575">
<ele>0.290804</ele>
<time>2026-06-18T08:15:47.999Z</time>
</trkpt>
<trkpt lat="56.355929" lon="8.122558">
<ele>0.347521</ele>
<time>2026-06-18T08:16:12.415Z</time>
</trkpt>
<trkpt lat="56.356376" lon="8.122551">
<ele>0.371237</ele>
<time>2026-06-18T08:16:22.388Z</time>
</trkpt>
<trkpt lat="56.357982" lon="8.122526">
<ele>0.246967</ele>
<time>2026-06-18T08:16:57.634Z</time>
</trkpt>
<trkpt lat="56.358460" lon="8.122550">
<ele>0.199328</ele>
<time>2026-06-18T08:17:07.874Z</time>
</trkpt>
<trkpt lat="56.358919" lon="8.122573">
<ele>0.143310</ele>
<time>2026-06-18T08:17:17.632Z</time>
</trkpt>
<trkpt lat="56.360101" lon="8.122631">
<ele>-0.000941</ele>
<time>2026-06-18T08:17:43.359Z</time>
</trkpt>
<trkpt lat="56.360868" lon="8.122669">
<ele>0.171992</ele>
<time>2026-06-18T08:18:00.986Z</time>
</trkpt>
<trkpt lat="56.362183" lon="8.122724">
<ele>0.410489</ele>
<time>2026-06-18T08:18:32.156Z</time>
</trkpt>
<trkpt lat="56.362361" lon="8.122728">
<ele>0.408508</ele>
<time>2026-06-18T08:18:36.238Z</time>
</trkpt>
<trkpt lat="56.362481" lon="8.122641">
<ele>0.407069</ele>
<time>2026-06-18T08:18:39.178Z</time>
</trkpt>
<trkpt lat="56.362695" lon="8.122642">
<ele>0.404687</ele>
<time>2026-06-18T08:18:43.967Z</time>
</trkpt>
<trkpt lat="56.364155" lon="8.122708">
<ele>0.308797</ele>
<time>2026-06-18T08:19:15.459Z</time>
</trkpt>
<trkpt lat="56.364649" lon="8.122730">
<ele>0.216677</ele>
<time>2026-06-18T08:19:25.996Z</time>
</trkpt>
<trkpt lat="56.365707" lon="8.122779">
<ele>0.058525</ele>
<time>2026-06-18T08:19:48.852Z</time>
</trkpt>
<trkpt lat="56.365914" lon="8.122899">
<ele>0.058881</ele>
<time>2026-06-18T08:19:53.579Z</time>
</trkpt>
<trkpt lat="56.366910" lon="8.122986">
<ele>0.060515</ele>
<time>2026-06-18T08:20:15.347Z</time>
</trkpt>
<trkpt lat="56.366975" lon="8.123038">
<ele>0.060632</ele>
<time>2026-06-18T08:20:17.000Z</time>
</trkpt>
<trkpt lat="56.367014" lon="8.123132">
<ele>0.060739</ele>
<time>2026-06-18T08:20:18.529Z</time>
</trkpt>
<trkpt lat="56.367115" lon="8.123570">
<ele>0.069399</ele>
<time>2026-06-18T08:20:24.768Z</time>
</trkpt>
<trkpt lat="56.367354" lon="8.123586">
<ele>0.155302</ele>
<time>2026-06-18T08:20:30.444Z</time>
</trkpt>
<trkpt lat="56.367721" lon="8.123612">
<ele>0.287222</ele>
<time>2026-06-18T08:20:39.151Z</time>
</trkpt>
<trkpt lat="56.368128" lon="8.123641">
<ele>0.433522</ele>
<time>2026-06-18T08:20:48.682Z</time>
</trkpt>
<trkpt lat="56.368541" lon="8.123629">
<ele>0.581882</ele>
<time>2026-06-18T08:20:58.694Z</time>
</trkpt>
<trkpt lat="56.368691" lon="8.123566">
<ele>0.637198</ele>
<time>2026-06-18T08:21:02.432Z</time>
</trkpt>
<trkpt lat="56.368901" lon="8.123415">
<ele>0.718599</ele>
<time>2026-06-18T08:21:07.832Z</time>
</trkpt>
<trkpt lat="56.369539" lon="8.122586">
<ele>1.006272</ele>
<time>2026-06-18T08:21:25.967Z</time>
</trkpt>
<trkpt lat="56.369776" lon="8.122270">
<ele>1.114096</ele>
<time>2026-06-18T08:21:32.898Z</time>
</trkpt>
<trkpt lat="56.369818" lon="8.122214">
<ele>1.133204</ele>
<time>2026-06-18T08:21:34.191Z</time>
</trkpt>
<trkpt lat="56.369921" lon="8.122102">
<ele>1.177208</ele>
<time>2026-06-18T08:21:37.166Z</time>
</trkpt>
<trkpt lat="56.370065" lon="8.122002">
<ele>1.233672</ele>
<time>2026-06-18T08:21:40.995Z</time>
</trkpt>
<trkpt lat="56.370182" lon="8.121994">
<ele>1.276523</ele>
<time>2026-06-18T08:21:43.864Z</time>
</trkpt>
<trkpt lat="56.370353" lon="8.122063">
<ele>1.340649</ele>
<time>2026-06-18T08:21:48.173Z</time>
</trkpt>
<trkpt lat="56.370522" lon="8.122146">
<ele>1.357760</ele>
<time>2026-06-18T08:21:52.485Z</time>
</trkpt>
<trkpt lat="56.370697" lon="8.122153">
<ele>1.345249</ele>
<time>2026-06-18T08:21:56.697Z</time>
</trkpt>
<trkpt lat="56.370854" lon="8.122051">
<ele>1.333323</ele>
<time>2026-06-18T08:22:00.557Z</time>
</trkpt>
<trkpt lat="56.370974" lon="8.121885">
<ele>1.322518</ele>
<time>2026-06-18T08:22:03.927Z</time>
</trkpt>
<trkpt lat="56.371211" lon="8.121547">
<ele>1.300932</ele>
<time>2026-06-18T08:22:10.524Z</time>
</trkpt>
<trkpt lat="56.371325" lon="8.121430">
<ele>1.291559</ele>
<time>2026-06-18T08:22:13.335Z</time>
</trkpt>
<trkpt lat="56.371454" lon="8.121370">
<ele>1.282038</ele>
<time>2026-06-18T08:22:16.133Z</time>
</trkpt>
<trkpt lat="56.371441" lon="8.120938">
<ele>1.264912</ele>
<time>2026-06-18T08:22:21.006Z</time>
</trkpt>
<trkpt lat="56.371508" lon="8.120941">
<ele>1.260122</ele>
<time>2026-06-18T08:22:22.372Z</time>
</trkpt>
<trkpt lat="56.371754" lon="8.120955">
<ele>1.242530</ele>
<time>2026-06-18T08:22:27.396Z</time>
</trkpt>
<trkpt lat="56.371812" lon="8.120960">
<ele>1.238380</ele>
<time>2026-06-18T08:22:28.641Z</time>
</trkpt>
<trkpt lat="56.372499" lon="8.121000">
<ele>1.165870</ele>
<time>2026-06-18T08:22:43.410Z</time>
</trkpt>
<trkpt lat="56.372658" lon="8.121002">
<ele>1.148926</ele>
<time>2026-06-18T08:22:46.780Z</time>
</trkpt>
<trkpt lat="56.372950" lon="8.121033">
<ele>1.117756</ele>
<time>2026-06-18T08:22:53.063Z</time>
</trkpt>
<trkpt lat="56.373341" lon="8.121056">
<ele>1.076067</ele>
<time>2026-06-18T08:23:01.808Z</time>
</trkpt>
<trkpt lat="56.373463" lon="8.121074">
<ele>1.063023</ele>
<time>2026-06-18T08:23:04.609Z</time>
</trkpt>
<trkpt lat="56.373665" lon="8.121100">
<ele>1.044892</ele>
<time>2026-06-18T08:23:09.415Z</time>
</trkpt>
<trkpt lat="56.373819" lon="8.121104">
<ele>1.043520</ele>
<time>2026-06-18T08:23:13.110Z</time>
</trkpt>
<trkpt lat="56.374123" lon="8.121042">
<ele>1.040793</ele>
<time>2026-06-18T08:23:20.067Z</time>
</trkpt>
<trkpt lat="56.374527" lon="8.120901">
<ele>1.037125</ele>
<time>2026-06-18T08:23:28.900Z</time>
</trkpt>
<trkpt lat="56.374731" lon="8.120828">
<ele>1.035271</ele>
<time>2026-06-18T08:23:33.320Z</time>
</trkpt>
<trkpt lat="56.374794" lon="8.120805">
<ele>1.034698</ele>
<time>2026-06-18T08:23:34.724Z</time>
</trkpt>
<trkpt lat="56.375413" lon="8.120584">
<ele>1.027816</ele>
<time>2026-06-18T08:23:48.805Z</time>
</trkpt>
<trkpt lat="56.375501" lon="8.120553">
<ele>1.017068</ele>
<time>2026-06-18T08:23:50.864Z</time>
</trkpt>
<trkpt lat="56.376257" lon="8.120288">
<ele>0.924749</ele>
<time>2026-06-18T08:24:08.331Z</time>
</trkpt>
<trkpt lat="56.376451" lon="8.120224">
<ele>0.901108</ele>
<time>2026-06-18T08:24:12.575Z</time>
</trkpt>
<trkpt lat="56.376490" lon="8.120212">
<ele>0.896365</ele>
<time>2026-06-18T08:24:13.404Z</time>
</trkpt>
<trkpt lat="56.376633" lon="8.120168">
<ele>0.878975</ele>
<time>2026-06-18T08:24:16.480Z</time>
</trkpt>
<trkpt lat="56.376893" lon="8.120122">
<ele>0.847658</ele>
<time>2026-06-18T08:24:21.932Z</time>
</trkpt>
<trkpt lat="56.377190" lon="8.120094">
<ele>0.809976</ele>
<time>2026-06-18T08:24:28.125Z</time>
</trkpt>
<trkpt lat="56.377585" lon="8.120057">
<ele>0.700550</ele>
<time>2026-06-18T08:24:36.398Z</time>
</trkpt>
<trkpt lat="56.377970" lon="8.120031">
<ele>0.593962</ele>
<time>2026-06-18T08:24:44.413Z</time>
</trkpt>
<trkpt lat="56.378079" lon="8.120029">
<ele>0.563805</ele>
<time>2026-06-18T08:24:46.677Z</time>
</trkpt>
<trkpt lat="56.378197" lon="8.120037">
<ele>0.531136</ele>
<time>2026-06-18T08:24:49.147Z</time>
</trkpt>
<trkpt lat="56.378508" lon="8.120089">
<ele>0.444728</ele>
<time>2026-06-18T08:24:55.794Z</time>
</trkpt>
<trkpt lat="56.379010" lon="8.120241">
<ele>0.313827</ele>
<time>2026-06-18T08:25:07.083Z</time>
</trkpt>
<trkpt lat="56.379415" lon="8.120442">
<ele>0.293353</ele>
<time>2026-06-18T08:25:16.500Z</time>
</trkpt>
<trkpt lat="56.381059" lon="8.121684">
<ele>0.250451</ele>
<time>2026-06-18T08:25:55.526Z</time>
</trkpt>
<trkpt lat="56.381624" lon="8.121985">
<ele>0.279683</ele>
<time>2026-06-18T08:26:08.602Z</time>
</trkpt>
<trkpt lat="56.382053" lon="8.122095">
<ele>0.301186</ele>
<time>2026-06-18T08:26:18.475Z</time>
</trkpt>
<trkpt lat="56.382422" lon="8.122117">
<ele>0.327541</ele>
<time>2026-06-18T08:26:27.037Z</time>
</trkpt>
<trkpt lat="56.384147" lon="8.122004">
<ele>0.761197</ele>
<time>2026-06-18T08:27:07.365Z</time>
</trkpt>
<trkpt lat="56.384468" lon="8.121985">
<ele>0.731836</ele>
<time>2026-06-18T08:27:14.726Z</time>
</trkpt>
<trkpt lat="56.385265" lon="8.121931">
<ele>0.627987</ele>
<time>2026-06-18T08:27:32.228Z</time>
</trkpt>
<trkpt lat="56.386893" lon="8.121823">
<ele>0.330194</ele>
<time>2026-06-18T08:28:06.362Z</time>
</trkpt>
<trkpt lat="56.388136" lon="8.121740">
<ele>0.119409</ele>
<time>2026-06-18T08:28:33.595Z</time>
</trkpt>
<trkpt lat="56.394122" lon="8.121343">
<ele>0.046793</ele>
<time>2026-06-18T08:30:46.148Z</time>
</trkpt>
<trkpt lat="56.394612" lon="8.121327">
<ele>0.105694</ele>
<time>2026-06-18T08:30:57.563Z</time>
</trkpt>
<trkpt lat="56.395692" lon="8.121404">
<ele>0.225865</ele>
<time>2026-06-18T08:31:22.706Z</time>
</trkpt>
<trkpt lat="56.396023" lon="8.121431">
<ele>0.261258</ele>
<time>2026-06-18T08:31:30.208Z</time>
</trkpt>
<trkpt lat="56.396162" lon="8.121442">
<ele>0.276120</ele>
<time>2026-06-18T08:31:33.311Z</time>
</trkpt>
<trkpt lat="56.397171" lon="8.121516">
<ele>0.319943</ele>
<time>2026-06-18T08:31:55.307Z</time>
</trkpt>
<trkpt lat="56.400016" lon="8.121722">
<ele>0.121425</ele>
<time>2026-06-18T08:32:58.292Z</time>
</trkpt>
<trkpt lat="56.404211" lon="8.122031">
<ele>-0.821286</ele>
<time>2026-06-18T08:34:27.906Z</time>
</trkpt>
<trkpt lat="56.413345" lon="8.122710">
<ele>-1.227366</ele>
<time>2026-06-18T08:37:49.441Z</time>
</trkpt>
<trkpt lat="56.424537" lon="8.123538">
<ele>-0.047701</ele>
<time>2026-06-18T08:42:03.786Z</time>
</trkpt>
<trkpt lat="56.437514" lon="8.124499">
<ele>0.575314</ele>
<time>2026-06-18T08:46:55.559Z</time>
</trkpt>
<trkpt lat="56.439929" lon="8.124676">
<ele>0.142308</ele>
<time>2026-06-18T08:47:47.106Z</time>
</trkpt>
<trkpt lat="56.441254" lon="8.124781">
<ele>0.052234</ele>
<time>2026-06-18T08:48:16.155Z</time>
</trkpt>
<trkpt lat="56.449463" lon="8.125393">
<ele>0.210015</ele>
<time>2026-06-18T08:51:19.950Z</time>
</trkpt>
<trkpt lat="56.450996" lon="8.125498">
<ele>0.069018</ele>
<time>2026-06-18T08:51:53.007Z</time>
</trkpt>
<trkpt lat="56.451512" lon="8.125659">
<ele>0.049622</ele>
<time>2026-06-18T08:52:04.412Z</time>
</trkpt>
<trkpt lat="56.451966" lon="8.125918">
<ele>0.031989</ele>
<time>2026-06-18T08:52:14.999Z</time>
</trkpt>
<trkpt lat="56.452186" lon="8.126088">
<ele>0.023127</ele>
<time>2026-06-18T08:52:20.348Z</time>
</trkpt>
<trkpt lat="56.452711" lon="8.126633">
<ele>0.044604</ele>
<time>2026-06-18T08:52:34.000Z</time>
</trkpt>
<trkpt lat="56.453145" lon="8.127257">
<ele>0.090556</ele>
<time>2026-06-18T08:52:46.616Z</time>
</trkpt>
<trkpt lat="56.454110" lon="8.128765">
<ele>0.256489</ele>
<time>2026-06-18T08:53:15.261Z</time>
</trkpt>
<trkpt lat="56.454409" lon="8.129159">
<ele>0.343316</ele>
<time>2026-06-18T08:53:23.648Z</time>
</trkpt>
<trkpt lat="56.454720" lon="8.129486">
<ele>0.427751</ele>
<time>2026-06-18T08:53:31.864Z</time>
</trkpt>
<trkpt lat="56.455086" lon="8.129786">
<ele>0.522072</ele>
<time>2026-06-18T08:53:41.257Z</time>
</trkpt>
<trkpt lat="56.455343" lon="8.129943">
<ele>0.586105</ele>
<time>2026-06-18T08:53:47.789Z</time>
</trkpt>
<trkpt lat="56.455615" lon="8.130069">
<ele>0.807631</ele>
<time>2026-06-18T08:53:54.720Z</time>
</trkpt>
<trkpt lat="56.457899" lon="8.130845">
<ele>2.504122</ele>
<time>2026-06-18T08:54:54.409Z</time>
</trkpt>
<trkpt lat="56.459059" lon="8.131272">
<ele>3.176702</ele>
<time>2026-06-18T08:55:23.020Z</time>
</trkpt>
<trkpt lat="56.459191" lon="8.131321">
<ele>3.217774</ele>
<time>2026-06-18T08:55:26.151Z</time>
</trkpt>
<trkpt lat="56.459969" lon="8.131747">
<ele>3.465528</ele>
<time>2026-06-18T08:55:45.014Z</time>
</trkpt>
<trkpt lat="56.460444" lon="8.132072">
<ele>3.620312</ele>
<time>2026-06-18T08:55:57.057Z</time>
</trkpt>
<trkpt lat="56.461279" lon="8.132787">
<ele>3.690465</ele>
<time>2026-06-18T08:56:18.703Z</time>
</trkpt>
<trkpt lat="56.462448" lon="8.133840">
<ele>3.502457</ele>
<time>2026-06-18T08:56:47.199Z</time>
</trkpt>
<trkpt lat="56.462518" lon="8.133523">
<ele>3.354015</ele>
<time>2026-06-18T08:56:50.943Z</time>
</trkpt>
<trkpt lat="56.462544" lon="8.133321">
<ele>3.263828</ele>
<time>2026-06-18T08:56:53.483Z</time>
</trkpt>
<trkpt lat="56.462645" lon="8.130261">
<ele>2.181261</ele>
<time>2026-06-18T08:57:30.156Z</time>
</trkpt>
<trkpt lat="56.462683" lon="8.129921">
<ele>2.130906</ele>
<time>2026-06-18T08:57:34.510Z</time>
</trkpt>
<trkpt lat="56.462727" lon="8.129793">
<ele>2.109022</ele>
<time>2026-06-18T08:57:36.460Z</time>
</trkpt>
<trkpt lat="56.462851" lon="8.129656">
<ele>2.070851</ele>
<time>2026-06-18T08:57:39.851Z</time>
</trkpt>
<trkpt lat="56.463234" lon="8.129601">
<ele>1.969902</ele>
<time>2026-06-18T08:57:49.078Z</time>
</trkpt>
<trkpt lat="56.463817" lon="8.129442">
<ele>1.884039</ele>
<time>2026-06-18T08:58:04.476Z</time>
</trkpt>
<trkpt lat="56.464218" lon="8.129389">
<ele>2.159267</ele>
<time>2026-06-18T08:58:15.231Z</time>
</trkpt>
<trkpt lat="56.465722" lon="8.129314">
<ele>3.179900</ele>
<time>2026-06-18T08:58:57.409Z</time>
</trkpt>
<trkpt lat="56.466292" lon="8.129108">
<ele>3.547915</ele>
<time>2026-06-18T08:59:13.893Z</time>
</trkpt>
<trkpt lat="56.466495" lon="8.129109">
<ele>3.676444</ele>
<time>2026-06-18T08:59:19.511Z</time>
</trkpt>
<trkpt lat="56.466673" lon="8.129155">
<ele>3.790286</ele>
<time>2026-06-18T08:59:24.427Z</time>
</trkpt>
<trkpt lat="56.467134" lon="8.129491">
<ele>4.104936</ele>
<time>2026-06-18T08:59:37.667Z</time>
</trkpt>
<trkpt lat="56.467701" lon="8.129691">
<ele>4.168522</ele>
<time>2026-06-18T08:59:52.161Z</time>
</trkpt>
<trkpt lat="56.467913" lon="8.129695">
<ele>4.150565</ele>
<time>2026-06-18T08:59:57.261Z</time>
</trkpt>
<trkpt lat="56.467998" lon="8.129682">
<ele>4.143340</ele>
<time>2026-06-18T08:59:59.293Z</time>
</trkpt>
<trkpt lat="56.468507" lon="8.129606">
<ele>4.100082</ele>
<time>2026-06-18T09:00:11.390Z</time>
</trkpt>
<trkpt lat="56.468696" lon="8.129623">
<ele>4.084054</ele>
<time>2026-06-18T09:00:15.887Z</time>
</trkpt>
<trkpt lat="56.468824" lon="8.129692">
<ele>4.072742</ele>
<time>2026-06-18T09:00:19.132Z</time>
</trkpt>
<trkpt lat="56.469309" lon="8.130129">
<ele>4.101959</ele>
<time>2026-06-18T09:00:32.382Z</time>
</trkpt>
<trkpt lat="56.469562" lon="8.130233">
<ele>4.146066</ele>
<time>2026-06-18T09:00:38.780Z</time>
</trkpt>
<trkpt lat="56.470003" lon="8.130337">
<ele>4.221671</ele>
<time>2026-06-18T09:00:49.948Z</time>
</trkpt>
<trkpt lat="56.470860" lon="8.130766">
<ele>4.395038</ele>
<time>2026-06-18T09:01:13.415Z</time>
</trkpt>
<trkpt lat="56.471597" lon="8.131042">
<ele>4.709622</ele>
<time>2026-06-18T09:01:32.866Z</time>
</trkpt>
<trkpt lat="56.471703" lon="8.131106">
<ele>4.756328</ele>
<time>2026-06-18T09:01:35.766Z</time>
</trkpt>
<trkpt lat="56.471972" lon="8.131369">
<ele>4.884117</ele>
<time>2026-06-18T09:01:43.780Z</time>
</trkpt>
<trkpt lat="56.472137" lon="8.131541">
<ele>4.963701</ele>
<time>2026-06-18T09:01:48.820Z</time>
</trkpt>
<trkpt lat="56.472480" lon="8.131806">
<ele>5.125821</ele>
<time>2026-06-18T09:01:58.753Z</time>
</trkpt>
<trkpt lat="56.472822" lon="8.132016">
<ele>5.369556</ele>
<time>2026-06-18T09:02:08.529Z</time>
</trkpt>
<trkpt lat="56.473242" lon="8.132131">
<ele>5.656244</ele>
<time>2026-06-18T09:02:20.196Z</time>
</trkpt>
<trkpt lat="56.473688" lon="8.132180">
<ele>5.957810</ele>
<time>2026-06-18T09:02:32.661Z</time>
</trkpt>
<trkpt lat="56.473961" lon="8.132196">
<ele>6.142159</ele>
<time>2026-06-18T09:02:39.646Z</time>
</trkpt>
<trkpt lat="56.474045" lon="8.132121">
<ele>6.205371</ele>
<time>2026-06-18T09:02:42.041Z</time>
</trkpt>
<trkpt lat="56.474223" lon="8.132047">
<ele>6.328360</ele>
<time>2026-06-18T09:02:46.669Z</time>
</trkpt>
<trkpt lat="56.475872" lon="8.131362">
<ele>7.411385</ele>
<time>2026-06-18T09:03:28.582Z</time>
</trkpt>
<trkpt lat="56.476247" lon="8.131255">
<ele>7.550081</ele>
<time>2026-06-18T09:03:37.970Z</time>
</trkpt>
<trkpt lat="56.476309" lon="8.131580">
<ele>7.601052</ele>
<time>2026-06-18T09:03:42.616Z</time>
</trkpt>
<trkpt lat="56.476453" lon="8.132101">
<ele>7.687415</ele>
<time>2026-06-18T09:03:50.316Z</time>
</trkpt>
<trkpt lat="56.476705" lon="8.133009">
<ele>7.838053</ele>
<time>2026-06-18T09:04:03.414Z</time>
</trkpt>
<trkpt lat="56.477454" lon="8.135665">
<ele>7.692923</ele>
<time>2026-06-18T09:04:38.802Z</time>
</trkpt>
<trkpt lat="56.478048" lon="8.137771">
<ele>7.360138</ele>
<time>2026-06-18T09:05:06.732Z</time>
</trkpt>
<trkpt lat="56.478494" lon="8.139392">
<ele>7.076113</ele>
<time>2026-06-18T09:05:27.450Z</time>
</trkpt>
<trkpt lat="56.478533" lon="8.139636">
<ele>7.071434</ele>
<time>2026-06-18T09:05:30.433Z</time>
</trkpt>
<trkpt lat="56.478545" lon="8.140254">
<ele>7.209982</ele>
<time>2026-06-18T09:05:37.826Z</time>
</trkpt>
<trkpt lat="56.478741" lon="8.140280">
<ele>7.289713</ele>
<time>2026-06-18T09:05:42.209Z</time>
</trkpt>
<trkpt lat="56.479778" lon="8.140211">
<ele>7.710710</ele>
<time>2026-06-18T09:06:07.492Z</time>
</trkpt>
<trkpt lat="56.480101" lon="8.140341">
<ele>7.964105</ele>
<time>2026-06-18T09:06:16.445Z</time>
</trkpt>
<trkpt lat="56.480260" lon="8.140509">
<ele>8.176796</ele>
<time>2026-06-18T09:06:21.421Z</time>
</trkpt>
<trkpt lat="56.480682" lon="8.141179">
<ele>8.825231</ele>
<time>2026-06-18T09:06:36.388Z</time>
</trkpt>
<trkpt lat="56.480871" lon="8.141500">
<ele>9.124613</ele>
<time>2026-06-18T09:06:43.463Z</time>
</trkpt>
<trkpt lat="56.481284" lon="8.142210">
<ele>9.782564</ele>
<time>2026-06-18T09:06:59.229Z</time>
</trkpt>
<trkpt lat="56.481440" lon="8.142412">
<ele>10.034971</ele>
<time>2026-06-18T09:07:04.485Z</time>
</trkpt>
<trkpt lat="56.481713" lon="8.142652">
<ele>10.459866</ele>
<time>2026-06-18T09:07:12.731Z</time>
</trkpt>
<trkpt lat="56.482303" lon="8.142948">
<ele>11.317056</ele>
<time>2026-06-18T09:07:29.755Z</time>
</trkpt>
<trkpt lat="56.482665" lon="8.143060">
<ele>11.831246</ele>
<time>2026-06-18T09:07:40.372Z</time>
</trkpt>
<trkpt lat="56.482818" lon="8.143009">
<ele>12.049065</ele>
<time>2026-06-18T09:07:44.784Z</time>
</trkpt>
<trkpt lat="56.483259" lon="8.142377">
<ele>12.575205</ele>
<time>2026-06-18T09:08:00.265Z</time>
</trkpt>
<trkpt lat="56.483351" lon="8.142288">
<ele>12.638216</ele>
<time>2026-06-18T09:08:03.076Z</time>
</trkpt>
<trkpt lat="56.483641" lon="8.142009">
<ele>12.836596</ele>
<time>2026-06-18T09:08:11.735Z</time>
</trkpt>
<trkpt lat="56.485260" lon="8.140229">
<ele>12.532873</ele>
<time>2026-06-18T09:08:54.950Z</time>
</trkpt>
<trkpt lat="56.485682" lon="8.139880">
<ele>12.028641</ele>
<time>2026-06-18T09:09:03.476Z</time>
</trkpt>
<trkpt lat="56.486064" lon="8.139623">
<ele>11.585722</ele>
<time>2026-06-18T09:09:10.502Z</time>
</trkpt>
<trkpt lat="56.487384" lon="8.138953">
<ele>8.041157</ele>
<time>2026-06-18T09:09:32.703Z</time>
</trkpt>
<trkpt lat="56.487802" lon="8.138741">
<ele>6.883245</ele>
<time>2026-06-18T09:09:40.213Z</time>
</trkpt>
<trkpt lat="56.487883" lon="8.138701">
<ele>6.708911</ele>
<time>2026-06-18T09:09:41.726Z</time>
</trkpt>
<trkpt lat="56.488520" lon="8.138375">
<ele>6.649083</ele>
<time>2026-06-18T09:09:54.839Z</time>
</trkpt>
<trkpt lat="56.488869" lon="8.138151">
<ele>6.615617</ele>
<time>2026-06-18T09:10:03.643Z</time>
</trkpt>
<trkpt lat="56.489190" lon="8.137871">
<ele>6.583415</ele>
<time>2026-06-18T09:10:12.883Z</time>
</trkpt>
<trkpt lat="56.489538" lon="8.137513">
<ele>6.554573</ele>
<time>2026-06-18T09:10:23.122Z</time>
</trkpt>
<trkpt lat="56.490417" lon="8.136445">
<ele>7.292234</ele>
<time>2026-06-18T09:10:48.908Z</time>
</trkpt>
<trkpt lat="56.490808" lon="8.135894">
<ele>7.637489</ele>
<time>2026-06-18T09:11:00.863Z</time>
</trkpt>
<trkpt lat="56.491326" lon="8.134898">
<ele>8.766969</ele>
<time>2026-06-18T09:11:21.074Z</time>
</trkpt>
<trkpt lat="56.491637" lon="8.134346">
<ele>9.575407</ele>
<time>2026-06-18T09:11:33.962Z</time>
</trkpt>
<trkpt lat="56.491943" lon="8.133987">
<ele>10.252315</ele>
<time>2026-06-18T09:11:45.317Z</time>
</trkpt>
<trkpt lat="56.492181" lon="8.133783">
<ele>10.741187</ele>
<time>2026-06-18T09:11:53.838Z</time>
</trkpt>
<trkpt lat="56.493664" lon="8.132907">
<ele>14.165899</ele>
<time>2026-06-18T09:12:44.505Z</time>
</trkpt>
<trkpt lat="56.495146" lon="8.132133">
<ele>16.660243</ele>
<time>2026-06-18T09:13:28.556Z</time>
</trkpt>
<trkpt lat="56.495664" lon="8.131872">
<ele>17.387788</ele>
<time>2026-06-18T09:13:42.872Z</time>
</trkpt>
<trkpt lat="56.495838" lon="8.131840">
<ele>17.622760</ele>
<time>2026-06-18T09:13:47.365Z</time>
</trkpt>
<trkpt lat="56.496015" lon="8.131894">
<ele>17.718471</ele>
<time>2026-06-18T09:13:51.849Z</time>
</trkpt>
<trkpt lat="56.496275" lon="8.132053">
<ele>17.864797</ele>
<time>2026-06-18T09:13:58.582Z</time>
</trkpt>
<trkpt lat="56.496479" lon="8.130200">
<ele>18.420949</ele>
<time>2026-06-18T09:14:23.575Z</time>
</trkpt>
<trkpt lat="56.496534" lon="8.129940">
<ele>18.502904</ele>
<time>2026-06-18T09:14:27.142Z</time>
</trkpt>
<trkpt lat="56.496637" lon="8.129689">
<ele>18.594531</ele>
<time>2026-06-18T09:14:31.174Z</time>
</trkpt>
<trkpt lat="56.498020" lon="8.127574">
<ele>19.506413</ele>
<time>2026-06-18T09:15:15.599Z</time>
</trkpt>
<trkpt lat="56.498158" lon="8.127202">
<ele>19.477736</ele>
<time>2026-06-18T09:15:21.544Z</time>
</trkpt>
<trkpt lat="56.498257" lon="8.126413">
<ele>19.425967</ele>
<time>2026-06-18T09:15:31.908Z</time>
</trkpt>
<trkpt lat="56.498574" lon="8.123688">
<ele>18.866196</ele>
<time>2026-06-18T09:16:03.814Z</time>
</trkpt>
<trkpt lat="56.498702" lon="8.122660">
<ele>18.326862</ele>
<time>2026-06-18T09:16:23.983Z</time>
</trkpt>
<trkpt lat="56.498707" lon="8.122369">
<ele>18.177861</ele>
<time>2026-06-18T09:16:29.466Z</time>
</trkpt>
<trkpt lat="56.498665" lon="8.122183">
<ele>18.075012</ele>
<time>2026-06-18T09:16:33.115Z</time>
</trkpt>
<trkpt lat="56.498539" lon="8.121894">
<ele>17.886531</ele>
<time>2026-06-18T09:16:39.633Z</time>
</trkpt>
<trkpt lat="56.497807" lon="8.121260">
<ele>16.841194</ele>
<time>2026-06-18T09:17:05.766Z</time>
</trkpt>
<trkpt lat="56.497740" lon="8.121158">
<ele>16.712524</ele>
<time>2026-06-18T09:17:08.500Z</time>
</trkpt>
<trkpt lat="56.497676" lon="8.120962">
<ele>16.527713</ele>
<time>2026-06-18T09:17:12.523Z</time>
</trkpt>
<trkpt lat="56.497676" lon="8.120714">
<ele>16.326450</ele>
<time>2026-06-18T09:17:16.988Z</time>
</trkpt>
<trkpt lat="56.498589" lon="8.120501">
<ele>14.973550</ele>
<time>2026-06-18T09:17:34.186Z</time>
</trkpt>
<trkpt lat="56.498657" lon="8.120557">
<ele>14.867198</ele>
<time>2026-06-18T09:17:35.679Z</time>
</trkpt>
<trkpt lat="56.498752" lon="8.120604">
<ele>14.726983</ele>
<time>2026-06-18T09:17:37.547Z</time>
</trkpt>
<trkpt lat="56.499109" lon="8.120655">
<ele>14.217103</ele>
<time>2026-06-18T09:17:44.219Z</time>
</trkpt>
<trkpt lat="56.499445" lon="8.120528">
<ele>13.728402</ele>
<time>2026-06-18T09:17:50.197Z</time>
</trkpt>
<trkpt lat="56.500140" lon="8.120245">
<ele>12.714166</ele>
<time>2026-06-18T09:18:02.778Z</time>
</trkpt>
<trkpt lat="56.500511" lon="8.120014">
<ele>12.650635</ele>
<time>2026-06-18T09:18:10.153Z</time>
</trkpt>
<trkpt lat="56.501938" lon="8.119748">
<ele>14.304373</ele>
<time>2026-06-18T09:18:50.660Z</time>
</trkpt>
<trkpt lat="56.502123" lon="8.119637">
<ele>14.551099</ele>
<time>2026-06-18T09:18:57.251Z</time>
</trkpt>
<trkpt lat="56.502289" lon="8.119532">
<ele>14.923295</ele>
<time>2026-06-18T09:19:03.092Z</time>
</trkpt>
<trkpt lat="56.502632" lon="8.119528">
<ele>15.649396</ele>
<time>2026-06-18T09:19:14.340Z</time>
</trkpt>
<trkpt lat="56.507215" lon="8.118933">
<ele>24.747716</ele>
<time>2026-06-18T09:21:34.405Z</time>
</trkpt>
<trkpt lat="56.509256" lon="8.118337">
<ele>25.719268</ele>
<time>2026-06-18T09:22:23.353Z</time>
</trkpt>
<trkpt lat="56.509386" lon="8.118343">
<ele>25.628784</ele>
<time>2026-06-18T09:22:25.958Z</time>
</trkpt>
<trkpt lat="56.509744" lon="8.118510">
<ele>25.371565</ele>
<time>2026-06-18T09:22:33.172Z</time>
</trkpt>
<trkpt lat="56.510252" lon="8.118172">
<ele>24.995025</ele>
<time>2026-06-18T09:22:43.255Z</time>
</trkpt>
<trkpt lat="56.511757" lon="8.118024">
<ele>25.495595</ele>
<time>2026-06-18T09:23:13.960Z</time>
</trkpt>
<trkpt lat="56.512368" lon="8.118096">
<ele>26.319946</ele>
<time>2026-06-18T09:23:33.634Z</time>
</trkpt>
<trkpt lat="56.512478" lon="8.118241">
<ele>26.503072</ele>
<time>2026-06-18T09:23:40.361Z</time>
</trkpt>
<trkpt lat="56.512605" lon="8.118267">
<ele>26.675144</ele>
<time>2026-06-18T09:23:46.801Z</time>
</trkpt>
<trkpt lat="56.512698" lon="8.118227">
<ele>26.803831</ele>
<time>2026-06-18T09:23:51.554Z</time>
</trkpt>
<trkpt lat="56.512738" lon="8.118107">
<ele>26.908260</ele>
<time>2026-06-18T09:23:55.410Z</time>
</trkpt>
<trkpt lat="56.513275" lon="8.118100">
<ele>27.647982</ele>
<time>2026-06-18T09:24:21.985Z</time>
</trkpt>
<trkpt lat="56.513375" lon="8.118099">
<ele>27.785731</ele>
<time>2026-06-18T09:24:26.714Z</time>
</trkpt>
<trkpt lat="56.513570" lon="8.118102">
<ele>28.054348</ele>
<time>2026-06-18T09:24:35.901Z</time>
</trkpt>
<trkpt lat="56.513740" lon="8.118144">
<ele>28.290684</ele>
<time>2026-06-18T09:24:42.848Z</time>
</trkpt>
<trkpt lat="56.513827" lon="8.118076">
<ele>28.421192</ele>
<time>2026-06-18T09:24:45.076Z</time>
</trkpt>
<trkpt lat="56.514309" lon="8.118084">
<ele>29.085162</ele>
<time>2026-06-18T09:24:56.599Z</time>
</trkpt>
<trkpt lat="56.515437" lon="8.118077">
<ele>27.826589</ele>
<time>2026-06-18T09:25:18.770Z</time>
</trkpt>
<trkpt lat="56.516092" lon="8.118072">
<ele>26.723913</ele>
<time>2026-06-18T09:25:30.072Z</time>
</trkpt>
<trkpt lat="56.518577" lon="8.118056">
<ele>19.419506</ele>
<time>2026-06-18T09:26:09.907Z</time>
</trkpt>
<trkpt lat="56.518931" lon="8.118066">
<ele>18.816278</ele>
<time>2026-06-18T09:26:16.022Z</time>
</trkpt>
<trkpt lat="56.520395" lon="8.118109">
<ele>17.182506</ele>
<time>2026-06-18T09:26:45.447Z</time>
</trkpt>
<trkpt lat="56.521015" lon="8.118127">
<ele>17.235617</ele>
<time>2026-06-18T09:27:00.242Z</time>
</trkpt>
<trkpt lat="56.521434" lon="8.118139">
<ele>17.271509</ele>
<time>2026-06-18T09:27:10.690Z</time>
</trkpt>
<trkpt lat="56.522568" lon="8.118013">
<ele>17.398631</ele>
<time>2026-06-18T09:27:36.751Z</time>
</trkpt>
<trkpt lat="56.522863" lon="8.117980">
<ele>17.434219</ele>
<time>2026-06-18T09:27:42.981Z</time>
</trkpt>
<trkpt lat="56.524057" lon="8.118158">
<ele>18.157275</ele>
<time>2026-06-18T09:28:10.092Z</time>
</trkpt>
<trkpt lat="56.524123" lon="8.118348">
<ele>18.301892</ele>
<time>2026-06-18T09:28:13.816Z</time>
</trkpt>
<trkpt lat="56.524182" lon="8.118438">
<ele>18.391927</ele>
<time>2026-06-18T09:28:16.263Z</time>
</trkpt>
<trkpt lat="56.524281" lon="8.118493">
<ele>18.512831</ele>
<time>2026-06-18T09:28:19.471Z</time>
</trkpt>
<trkpt lat="56.524803" lon="8.118618">
<ele>19.127646</ele>
<time>2026-06-18T09:28:36.458Z</time>
</trkpt>
<trkpt lat="56.524827" lon="8.118750">
<ele>19.217161</ele>
<time>2026-06-18T09:28:39.837Z</time>
</trkpt>
<trkpt lat="56.524810" lon="8.119522">
<ele>19.568811</ele>
<time>2026-06-18T09:28:58.846Z</time>
</trkpt>
<trkpt lat="56.524785" lon="8.119953">
<ele>19.450993</ele>
<time>2026-06-18T09:29:08.782Z</time>
</trkpt>
<trkpt lat="56.524852" lon="8.120438">
<ele>19.315068</ele>
<time>2026-06-18T09:29:20.138Z</time>
</trkpt>
<trkpt lat="56.524905" lon="8.120799">
<ele>19.213509</ele>
<time>2026-06-18T09:29:28.551Z</time>
</trkpt>
<trkpt lat="56.524931" lon="8.120859">
<ele>19.192766</ele>
<time>2026-06-18T09:29:30.215Z</time>
</trkpt>
<trkpt lat="56.524905" lon="8.120799">
<ele>19.172023</ele>
<time>2026-06-18T09:29:31.838Z</time>
</trkpt>
<trkpt lat="56.524852" lon="8.120438">
<ele>19.070464</ele>
<time>2026-06-18T09:29:39.399Z</time>
</trkpt>
<trkpt lat="56.525447" lon="8.119753">
<ele>18.708696</ele>
<time>2026-06-18T09:29:51.429Z</time>
</trkpt>
<trkpt lat="56.525618" lon="8.119532">
<ele>18.021347</ele>
<time>2026-06-18T09:29:54.814Z</time>
</trkpt>
<trkpt lat="56.525683" lon="8.119456">
<ele>17.768190</ele>
<time>2026-06-18T09:29:56.054Z</time>
</trkpt>
<trkpt lat="56.525757" lon="8.119441">
<ele>17.524471</ele>
<time>2026-06-18T09:29:57.258Z</time>
</trkpt>
<trkpt lat="56.525784" lon="8.119326">
<ele>17.298833</ele>
<time>2026-06-18T09:29:59.240Z</time>
</trkpt>
<trkpt lat="56.525844" lon="8.119213">
<ele>17.015665</ele>
<time>2026-06-18T09:30:01.750Z</time>
</trkpt>
<trkpt lat="56.526237" lon="8.118609">
<ele>15.329360</ele>
<time>2026-06-18T09:30:16.467Z</time>
</trkpt>
<trkpt lat="56.526283" lon="8.118575">
<ele>15.166766</ele>
<time>2026-06-18T09:30:17.906Z</time>
</trkpt>
<trkpt lat="56.526325" lon="8.118545">
<ele>15.019012</ele>
<time>2026-06-18T09:30:18.621Z</time>
</trkpt>
<trkpt lat="56.526808" lon="8.118533">
<ele>13.437954</ele>
<time>2026-06-18T09:30:26.338Z</time>
</trkpt>
<trkpt lat="56.527185" lon="8.118513">
<ele>12.432005</ele>
<time>2026-06-18T09:30:37.799Z</time>
</trkpt>
<trkpt lat="56.527312" lon="8.118545">
<ele>12.163368</ele>
<time>2026-06-18T09:30:41.872Z</time>
</trkpt>
<trkpt lat="56.527387" lon="8.118618">
<ele>11.985024</ele>
<time>2026-06-18T09:30:44.641Z</time>
</trkpt>
<trkpt lat="56.527461" lon="8.118797">
<ele>11.726528</ele>
<time>2026-06-18T09:30:48.681Z</time>
</trkpt>
<trkpt lat="56.527520" lon="8.118883">
<ele>11.567923</ele>
<time>2026-06-18T09:30:51.144Z</time>
</trkpt>
<trkpt lat="56.527596" lon="8.118921">
<ele>11.402751</ele>
<time>2026-06-18T09:30:53.709Z</time>
</trkpt>
<trkpt lat="56.528667" lon="8.118977">
<ele>9.157950</ele>
<time>2026-06-18T09:31:27.801Z</time>
</trkpt>
<trkpt lat="56.529109" lon="8.119047">
<ele>8.052258</ele>
<time>2026-06-18T09:31:41.436Z</time>
</trkpt>
<trkpt lat="56.529255" lon="8.119095">
<ele>7.676336</ele>
<time>2026-06-18T09:31:45.945Z</time>
</trkpt>
<trkpt lat="56.529507" lon="8.119270">
<ele>6.992670</ele>
<time>2026-06-18T09:31:54.092Z</time>
</trkpt>
<trkpt lat="56.529586" lon="8.119369">
<ele>6.749374</ele>
<time>2026-06-18T09:31:56.967Z</time>
</trkpt>
<trkpt lat="56.529740" lon="8.119413">
<ele>6.354400</ele>
<time>2026-06-18T09:31:59.884Z</time>
</trkpt>
<trkpt lat="56.531149" lon="8.119112">
<ele>3.405072</ele>
<time>2026-06-18T09:32:26.950Z</time>
</trkpt>
<trkpt lat="56.531303" lon="8.119124">
<ele>3.158236</ele>
<time>2026-06-18T09:32:30.070Z</time>
</trkpt>
<trkpt lat="56.533020" lon="8.119614">
<ele>1.233104</ele>
<time>2026-06-18T09:33:08.445Z</time>
</trkpt>
<trkpt lat="56.533143" lon="8.119699">
<ele>1.166109</ele>
<time>2026-06-18T09:33:11.518Z</time>
</trkpt>
<trkpt lat="56.533476" lon="8.120363">
<ele>0.914200</ele>
<time>2026-06-18T09:33:23.164Z</time>
</trkpt>
<trkpt lat="56.534121" lon="8.121289">
<ele>0.661223</ele>
<time>2026-06-18T09:33:42.708Z</time>
</trkpt>
<trkpt lat="56.534367" lon="8.121595">
<ele>0.622724</ele>
<time>2026-06-18T09:33:50.036Z</time>
</trkpt>
<trkpt lat="56.534492" lon="8.121640">
<ele>0.606277</ele>
<time>2026-06-18T09:33:53.231Z</time>
</trkpt>
<trkpt lat="56.534575" lon="8.122592">
<ele>0.537685</ele>
<time>2026-06-18T09:34:05.001Z</time>
</trkpt>
<trkpt lat="56.534640" lon="8.123075">
<ele>0.502303</ele>
<time>2026-06-18T09:34:10.948Z</time>
</trkpt>
<trkpt lat="56.534758" lon="8.123620">
<ele>0.476191</ele>
<time>2026-06-18T09:34:17.970Z</time>
</trkpt>
<trkpt lat="56.534989" lon="8.124278">
<ele>0.455553</ele>
<time>2026-06-18T09:34:27.418Z</time>
</trkpt>
<trkpt lat="56.535124" lon="8.124585">
<ele>0.445164</ele>
<time>2026-06-18T09:34:32.200Z</time>
</trkpt>
<trkpt lat="56.535278" lon="8.124920">
<ele>0.433625</ele>
<time>2026-06-18T09:34:37.532Z</time>
</trkpt>
<trkpt lat="56.535462" lon="8.125401">
<ele>0.418136</ele>
<time>2026-06-18T09:34:44.659Z</time>
</trkpt>
<trkpt lat="56.535692" lon="8.126210">
<ele>0.392458</ele>
<time>2026-06-18T09:34:55.754Z</time>
</trkpt>
<trkpt lat="56.535759" lon="8.126451">
<ele>0.383056</ele>
<time>2026-06-18T09:34:59.060Z</time>
</trkpt>
<trkpt lat="56.535887" lon="8.126909">
<ele>0.365168</ele>
<time>2026-06-18T09:35:05.329Z</time>
</trkpt>
<trkpt lat="56.535983" lon="8.127254">
<ele>0.351706</ele>
<time>2026-06-18T09:35:10.026Z</time>
</trkpt>
<trkpt lat="56.535991" lon="8.127280">
<ele>0.350668</ele>
<time>2026-06-18T09:35:10.376Z</time>
</trkpt>
<trkpt lat="56.536262" lon="8.128133">
<ele>0.316373</ele>
<time>2026-06-18T09:35:22.335Z</time>
</trkpt>
<trkpt lat="56.536518" lon="8.128754">
<ele>0.289362</ele>
<time>2026-06-18T09:35:31.666Z</time>
</trkpt>
<trkpt lat="56.536654" lon="8.129085">
<ele>0.264130</ele>
<time>2026-06-18T09:35:36.653Z</time>
</trkpt>
<trkpt lat="56.537964" lon="8.131675">
<ele>0.032466</ele>
<time>2026-06-18T09:36:18.860Z</time>
</trkpt>
<trkpt lat="56.538167" lon="8.132028">
<ele>0.012467</ele>
<time>2026-06-18T09:36:24.823Z</time>
</trkpt>
<trkpt lat="56.538700" lon="8.132729">
<ele>-0.034350</ele>
<time>2026-06-18T09:36:38.853Z</time>
</trkpt>
<trkpt lat="56.540401" lon="8.134708">
<ele>0.244023</ele>
<time>2026-06-18T09:37:25.323Z</time>
</trkpt>
<trkpt lat="56.541166" lon="8.135421">
<ele>0.361516</ele>
<time>2026-06-18T09:37:45.630Z</time>
</trkpt>
<trkpt lat="56.542032" lon="8.136227">
<ele>0.445637</ele>
<time>2026-06-18T09:38:07.411Z</time>
</trkpt>
<trkpt lat="56.543275" lon="8.137335">
<ele>0.621404</ele>
<time>2026-06-18T09:38:37.723Z</time>
</trkpt>
<trkpt lat="56.544175" lon="8.138050">
<ele>0.770259</ele>
<time>2026-06-18T09:39:01.297Z</time>
</trkpt>
<trkpt lat="56.544401" lon="8.138183">
<ele>0.814661</ele>
<time>2026-06-18T09:39:07.153Z</time>
</trkpt>
<trkpt lat="56.544691" lon="8.138295">
<ele>0.870071</ele>
<time>2026-06-18T09:39:14.255Z</time>
</trkpt>
<trkpt lat="56.545439" lon="8.138585">
<ele>1.013015</ele>
<time>2026-06-18T09:39:31.407Z</time>
</trkpt>
<trkpt lat="56.546076" lon="8.138833">
<ele>1.433366</ele>
<time>2026-06-18T09:39:45.388Z</time>
</trkpt>
<trkpt lat="56.546270" lon="8.138959">
<ele>1.617002</ele>
<time>2026-06-18T09:39:49.960Z</time>
</trkpt>
<trkpt lat="56.546495" lon="8.139164">
<ele>1.841388</ele>
<time>2026-06-18T09:39:55.826Z</time>
</trkpt>
<trkpt lat="56.546769" lon="8.139499">
<ele>2.135854</ele>
<time>2026-06-18T09:40:04.361Z</time>
</trkpt>
<trkpt lat="56.547218" lon="8.140144">
<ele>2.646261</ele>
<time>2026-06-18T09:40:21.603Z</time>
</trkpt>
<trkpt lat="56.547483" lon="8.140419">
<ele>3.269182</ele>
<time>2026-06-18T09:40:31.466Z</time>
</trkpt>
<trkpt lat="56.547695" lon="8.140659">
<ele>3.792531</ele>
<time>2026-06-18T09:40:39.746Z</time>
</trkpt>
<trkpt lat="56.547740" lon="8.140795">
<ele>3.975651</ele>
<time>2026-06-18T09:40:42.657Z</time>
</trkpt>
<trkpt lat="56.547765" lon="8.141096">
<ele>4.327065</ele>
<time>2026-06-18T09:40:48.216Z</time>
</trkpt>
<trkpt lat="56.547340" lon="8.145105">
<ele>8.266150</ele>
<time>2026-06-18T09:41:54.486Z</time>
</trkpt>
<trkpt lat="56.547166" lon="8.146565">
<ele>9.330397</ele>
<time>2026-06-18T09:42:15.526Z</time>
</trkpt>
<trkpt lat="56.547150" lon="8.146983">
<ele>9.544361</ele>
<time>2026-06-18T09:42:21.344Z</time>
</trkpt>
<trkpt lat="56.547160" lon="8.147423">
<ele>9.769236</ele>
<time>2026-06-18T09:42:27.413Z</time>
</trkpt>
<trkpt lat="56.547263" lon="8.148658">
<ele>10.407059</ele>
<time>2026-06-18T09:42:45.027Z</time>
</trkpt>
<trkpt lat="56.547268" lon="8.149033">
<ele>10.598607</ele>
<time>2026-06-18T09:42:50.531Z</time>
</trkpt>
<trkpt lat="56.547215" lon="8.149996">
<ele>11.294222</ele>
<time>2026-06-18T09:43:05.000Z</time>
</trkpt>
<trkpt lat="56.546521" lon="8.154480">
<ele>15.355417</ele>
<time>2026-06-18T09:44:18.387Z</time>
</trkpt>
<trkpt lat="56.546510" lon="8.154662">
<ele>15.530286</ele>
<time>2026-06-18T09:44:21.433Z</time>
</trkpt>
<trkpt lat="56.546503" lon="8.155310">
<ele>16.149305</ele>
<time>2026-06-18T09:44:32.367Z</time>
</trkpt>
<trkpt lat="56.546542" lon="8.155725">
<ele>16.514441</ele>
<time>2026-06-18T09:44:39.481Z</time>
</trkpt>
<trkpt lat="56.546634" lon="8.156703">
<ele>16.924899</ele>
<time>2026-06-18T09:44:55.507Z</time>
</trkpt>
<trkpt lat="56.546621" lon="8.157400">
<ele>17.213420</ele>
<time>2026-06-18T09:45:06.182Z</time>
</trkpt>
<trkpt lat="56.547910" lon="8.158065">
<ele>16.994517</ele>
<time>2026-06-18T09:45:34.624Z</time>
</trkpt>
<trkpt lat="56.548837" lon="8.158263">
<ele>15.455714</ele>
<time>2026-06-18T09:45:51.096Z</time>
</trkpt>
<trkpt lat="56.549726" lon="8.158195">
<ele>13.122670</ele>
<time>2026-06-18T09:46:05.973Z</time>
</trkpt>
<trkpt lat="56.550070" lon="8.158123">
<ele>11.991188</ele>
<time>2026-06-18T09:46:11.668Z</time>
</trkpt>
<trkpt lat="56.550311" lon="8.157886">
<ele>11.095467</ele>
<time>2026-06-18T09:46:16.045Z</time>
</trkpt>
<trkpt lat="56.550594" lon="8.157443">
<ele>9.874123</ele>
<time>2026-06-18T09:46:21.882Z</time>
</trkpt>
<trkpt lat="56.550848" lon="8.157043">
<ele>8.945808</ele>
<time>2026-06-18T09:46:27.134Z</time>
</trkpt>
<trkpt lat="56.551004" lon="8.156798">
<ele>8.798017</ele>
<time>2026-06-18T09:46:30.416Z</time>
</trkpt>
<trkpt lat="56.551198" lon="8.156574">
<ele>8.633304</ele>
<time>2026-06-18T09:46:34.202Z</time>
</trkpt>
<trkpt lat="56.551384" lon="8.156453">
<ele>8.491770</ele>
<time>2026-06-18T09:46:37.614Z</time>
</trkpt>
<trkpt lat="56.551514" lon="8.156407">
<ele>8.396899</ele>
<time>2026-06-18T09:46:40.026Z</time>
</trkpt>
<trkpt lat="56.551703" lon="8.156411">
<ele>8.261512</ele>
<time>2026-06-18T09:46:43.628Z</time>
</trkpt>
<trkpt lat="56.552002" lon="8.156537">
<ele>8.041643</ele>
<time>2026-06-18T09:46:50.286Z</time>
</trkpt>
<trkpt lat="56.553356" lon="8.157329">
<ele>10.446940</ele>
<time>2026-06-18T09:47:38.289Z</time>
</trkpt>
<trkpt lat="56.553742" lon="8.157639">
<ele>11.661033</ele>
<time>2026-06-18T09:47:53.318Z</time>
</trkpt>
<trkpt lat="56.554130" lon="8.158092">
<ele>12.961496</ele>
<time>2026-06-18T09:48:09.299Z</time>
</trkpt>
<trkpt lat="56.554318" lon="8.158394">
<ele>13.508477</ele>
<time>2026-06-18T09:48:17.781Z</time>
</trkpt>
<trkpt lat="56.555101" lon="8.159935">
<ele>16.024875</ele>
<time>2026-06-18T09:48:54.577Z</time>
</trkpt>
<trkpt lat="56.555353" lon="8.160226">
<ele>16.675573</ele>
<time>2026-06-18T09:49:02.950Z</time>
</trkpt>
<trkpt lat="56.555666" lon="8.160476">
<ele>16.870054</ele>
<time>2026-06-18T09:49:11.737Z</time>
</trkpt>
<trkpt lat="56.555932" lon="8.160564">
<ele>16.939306</ele>
<time>2026-06-18T09:49:18.198Z</time>
</trkpt>
<trkpt lat="56.556471" lon="8.160606">
<ele>17.077483</ele>
<time>2026-06-18T09:49:29.768Z</time>
</trkpt>
<trkpt lat="56.557990" lon="8.160613">
<ele>17.724525</ele>
<time>2026-06-18T09:50:03.054Z</time>
</trkpt>
<trkpt lat="56.559283" lon="8.160620">
<ele>18.250837</ele>
<time>2026-06-18T09:50:37.950Z</time>
</trkpt>
<trkpt lat="56.559756" lon="8.160622">
<ele>18.196914</ele>
<time>2026-06-18T09:50:49.664Z</time>
</trkpt>
<trkpt lat="56.559879" lon="8.160623">
<ele>18.182892</ele>
<time>2026-06-18T09:50:52.489Z</time>
</trkpt>
<trkpt lat="56.561067" lon="8.160629">
<ele>17.607663</ele>
<time>2026-06-18T09:51:15.533Z</time>
</trkpt>
<trkpt lat="56.562745" lon="8.160637">
<ele>14.954243</ele>
<time>2026-06-18T09:51:45.426Z</time>
</trkpt>
<trkpt lat="56.564149" lon="8.160626">
<ele>12.935311</ele>
<time>2026-06-18T09:52:11.706Z</time>
</trkpt>
<trkpt lat="56.565549" lon="8.160421">
<ele>10.235200</ele>
<time>2026-06-18T09:52:37.227Z</time>
</trkpt>
<trkpt lat="56.566228" lon="8.160311">
<ele>8.772659</ele>
<time>2026-06-18T09:52:48.761Z</time>
</trkpt>
<trkpt lat="56.566525" lon="8.160317">
<ele>7.781313</ele>
<time>2026-06-18T09:52:53.579Z</time>
</trkpt>
<trkpt lat="56.566888" lon="8.160428">
<ele>6.552668</ele>
<time>2026-06-18T09:52:59.417Z</time>
</trkpt>
<trkpt lat="56.567209" lon="8.160604">
<ele>5.433461</ele>
<time>2026-06-18T09:53:04.709Z</time>
</trkpt>
<trkpt lat="56.567396" lon="8.160712">
<ele>4.778483</ele>
<time>2026-06-18T09:53:07.816Z</time>
</trkpt>
<trkpt lat="56.568289" lon="8.161241">
<ele>2.278713</ele>
<time>2026-06-18T09:53:23.114Z</time>
</trkpt>
<trkpt lat="56.568533" lon="8.160426">
<ele>1.372759</ele>
<time>2026-06-18T09:53:32.022Z</time>
</trkpt>
<trkpt lat="56.568646" lon="8.159860">
<ele>0.784767</ele>
<time>2026-06-18T09:53:38.192Z</time>
</trkpt>
<trkpt lat="56.568995" lon="8.157708">
<ele>-0.359995</ele>
<time>2026-06-18T09:54:03.339Z</time>
</trkpt>
<trkpt lat="56.569000" lon="8.157674">
<ele>-0.364799</ele>
<time>2026-06-18T09:54:03.758Z</time>
</trkpt>
<trkpt lat="56.569034" lon="8.157471">
<ele>-0.393765</ele>
<time>2026-06-18T09:54:06.262Z</time>
</trkpt>
<trkpt lat="56.569330" lon="8.156186">
<ele>-0.583907</ele>
<time>2026-06-18T09:54:23.287Z</time>
</trkpt>
<trkpt lat="56.569363" lon="8.155929">
<ele>-0.619933</ele>
<time>2026-06-18T09:54:26.569Z</time>
</trkpt>
<trkpt lat="56.569349" lon="8.155448">
<ele>-0.624888</ele>
<time>2026-06-18T09:54:32.619Z</time>
</trkpt>
<trkpt lat="56.569278" lon="8.155016">
<ele>-0.611599</ele>
<time>2026-06-18T09:54:38.322Z</time>
</trkpt>
<trkpt lat="56.569207" lon="8.154590">
<ele>-0.598478</ele>
<time>2026-06-18T09:54:43.937Z</time>
</trkpt>
<trkpt lat="56.569199" lon="8.154295">
<ele>-0.589771</ele>
<time>2026-06-18T09:54:47.695Z</time>
</trkpt>
<trkpt lat="56.569228" lon="8.154018">
<ele>-0.581459</ele>
<time>2026-06-18T09:54:51.298Z</time>
</trkpt>
<trkpt lat="56.569891" lon="8.150593">
<ele>-0.525358</ele>
<time>2026-06-18T09:55:35.208Z</time>
</trkpt>
<trkpt lat="56.569939" lon="8.150447">
<ele>-0.524272</ele>
<time>2026-06-18T09:55:37.277Z</time>
</trkpt>
<trkpt lat="56.569985" lon="8.150375">
<ele>-0.523568</ele>
<time>2026-06-18T09:55:38.592Z</time>
</trkpt>
<trkpt lat="56.570127" lon="8.150351">
<ele>-0.521915</ele>
<time>2026-06-18T09:55:41.731Z</time>
</trkpt>
<trkpt lat="56.571828" lon="8.152100">
<ele>-0.189566</ele>
<time>2026-06-18T09:56:27.011Z</time>
</trkpt>
<trkpt lat="56.571967" lon="8.152242">
<ele>-0.159114</ele>
<time>2026-06-18T09:56:30.743Z</time>
</trkpt>
<trkpt lat="56.572051" lon="8.152271">
<ele>-0.145227</ele>
<time>2026-06-18T09:56:32.735Z</time>
</trkpt>
<trkpt lat="56.572122" lon="8.152242">
<ele>-0.133407</ele>
<time>2026-06-18T09:56:34.438Z</time>
</trkpt>
<trkpt lat="56.572184" lon="8.152123">
<ele>-0.118752</ele>
<time>2026-06-18T09:56:36.531Z</time>
</trkpt>
<trkpt lat="56.573121" lon="8.149123">
<ele>0.143401</ele>
<time>2026-06-18T09:57:19.781Z</time>
</trkpt>
<trkpt lat="56.573236" lon="8.148834">
<ele>0.151229</ele>
<time>2026-06-18T09:57:24.222Z</time>
</trkpt>
<trkpt lat="56.573392" lon="8.148540">
<ele>0.160191</ele>
<time>2026-06-18T09:57:29.288Z</time>
</trkpt>
<trkpt lat="56.573526" lon="8.148366">
<ele>0.166758</ele>
<time>2026-06-18T09:57:32.991Z</time>
</trkpt>
<trkpt lat="56.573654" lon="8.148280">
<ele>0.172198</ele>
<time>2026-06-18T09:57:36.054Z</time>
</trkpt>
<trkpt lat="56.573797" lon="8.148252">
<ele>0.177931</ele>
<time>2026-06-18T09:57:39.263Z</time>
</trkpt>
<trkpt lat="56.575157" lon="8.148132">
<ele>0.261947</ele>
<time>2026-06-18T09:58:09.324Z</time>
</trkpt>
<trkpt lat="56.575837" lon="8.148031">
<ele>0.314261</ele>
<time>2026-06-18T09:58:24.375Z</time>
</trkpt>
<trkpt lat="56.576189" lon="8.147950">
<ele>0.352343</ele>
<time>2026-06-18T09:58:32.672Z</time>
</trkpt>
<trkpt lat="56.576692" lon="8.147726">
<ele>0.513598</ele>
<time>2026-06-18T09:58:45.113Z</time>
</trkpt>
<trkpt lat="56.576902" lon="8.147601">
<ele>0.582408</ele>
<time>2026-06-18T09:58:50.514Z</time>
</trkpt>
<trkpt lat="56.577227" lon="8.147384">
<ele>0.690225</ele>
<time>2026-06-18T09:58:58.898Z</time>
</trkpt>
<trkpt lat="56.577465" lon="8.147225">
<ele>0.769186</ele>
<time>2026-06-18T09:59:04.883Z</time>
</trkpt>
<trkpt lat="56.577945" lon="8.146911">
<ele>0.873274</ele>
<time>2026-06-18T09:59:16.777Z</time>
</trkpt>
<trkpt lat="56.577923" lon="8.146823">
<ele>0.859701</ele>
<time>2026-06-18T09:59:18.010Z</time>
</trkpt>
<trkpt lat="56.578050" lon="8.146720">
<ele>0.824232</ele>
<time>2026-06-18T09:59:21.094Z</time>
</trkpt>
<trkpt lat="56.578395" lon="8.146590">
<ele>0.734385</ele>
<time>2026-06-18T09:59:28.520Z</time>
</trkpt>
<trkpt lat="56.579518" lon="8.146245">
<ele>0.443957</ele>
<time>2026-06-18T09:59:52.114Z</time>
</trkpt>
<trkpt lat="56.579529" lon="8.146364">
<ele>0.424667</ele>
<time>2026-06-18T09:59:53.517Z</time>
</trkpt>
<trkpt lat="56.579878" lon="8.146245">
<ele>0.316840</ele>
<time>2026-06-18T10:00:01.004Z</time>
</trkpt>
<trkpt lat="56.580267" lon="8.146090">
<ele>0.195909</ele>
<time>2026-06-18T10:00:09.529Z</time>
</trkpt>
<trkpt lat="56.580434" lon="8.145966">
<ele>0.141123</ele>
<time>2026-06-18T10:00:13.426Z</time>
</trkpt>
<trkpt lat="56.580610" lon="8.145835">
<ele>0.083365</ele>
<time>2026-06-18T10:00:17.519Z</time>
</trkpt>
<trkpt lat="56.581288" lon="8.145151">
<ele>-0.073787</ele>
<time>2026-06-18T10:00:33.745Z</time>
</trkpt>
<trkpt lat="56.581498" lon="8.144979">
<ele>-0.022691</ele>
<time>2026-06-18T10:00:38.715Z</time>
</trkpt>
<trkpt lat="56.581866" lon="8.144759">
<ele>0.063240</ele>
<time>2026-06-18T10:00:47.160Z</time>
</trkpt>
<trkpt lat="56.581980" lon="8.144692">
<ele>0.089816</ele>
<time>2026-06-18T10:00:49.804Z</time>
</trkpt>
<trkpt lat="56.581921" lon="8.144281">
<ele>0.141698</ele>
<time>2026-06-18T10:00:55.243Z</time>
</trkpt>
<trkpt lat="56.581921" lon="8.144078">
<ele>0.166495</ele>
<time>2026-06-18T10:00:57.891Z</time>
</trkpt>
<trkpt lat="56.581961" lon="8.143873">
<ele>0.193061</ele>
<time>2026-06-18T10:01:00.760Z</time>
</trkpt>
<trkpt lat="56.582333" lon="8.143084">
<ele>0.349953</ele>
<time>2026-06-18T10:01:15.174Z</time>
</trkpt>
<trkpt lat="56.582562" lon="8.142661">
<ele>0.500455</ele>
<time>2026-06-18T10:01:23.907Z</time>
</trkpt>
<trkpt lat="56.582639" lon="8.142499">
<ele>0.554751</ele>
<time>2026-06-18T10:01:26.989Z</time>
</trkpt>
<trkpt lat="56.582854" lon="8.142490">
<ele>0.653831</ele>
<time>2026-06-18T10:01:32.561Z</time>
</trkpt>
<trkpt lat="56.583022" lon="8.142538">
<ele>0.732184</ele>
<time>2026-06-18T10:01:36.877Z</time>
</trkpt>
<trkpt lat="56.583799" lon="8.142750">
<ele>1.094180</ele>
<time>2026-06-18T10:01:55.120Z</time>
</trkpt>
<trkpt lat="56.584600" lon="8.142828">
<ele>0.731921</ele>
<time>2026-06-18T10:02:11.660Z</time>
</trkpt>
<trkpt lat="56.585359" lon="8.142985">
<ele>0.332993</ele>
<time>2026-06-18T10:02:26.732Z</time>
</trkpt>
<trkpt lat="56.585724" lon="8.143071">
<ele>0.166281</ele>
<time>2026-06-18T10:02:34.201Z</time>
</trkpt>
<trkpt lat="56.586332" lon="8.143289">
<ele>0.045600</ele>
<time>2026-06-18T10:02:47.064Z</time>
</trkpt>
<trkpt lat="56.586771" lon="8.143570">
<ele>-0.045041</ele>
<time>2026-06-18T10:02:57.114Z</time>
</trkpt>
<trkpt lat="56.587089" lon="8.143737">
<ele>-0.109502</ele>
<time>2026-06-18T10:03:04.494Z</time>
</trkpt>
<trkpt lat="56.587240" lon="8.143756">
<ele>-0.138977</ele>
<time>2026-06-18T10:03:07.895Z</time>
</trkpt>
<trkpt lat="56.588197" lon="8.143498">
<ele>0.053818</ele>
<time>2026-06-18T10:03:30.684Z</time>
</trkpt>
<trkpt lat="56.588559" lon="8.143569">
<ele>0.153361</ele>
<time>2026-06-18T10:03:39.502Z</time>
</trkpt>
<trkpt lat="56.589260" lon="8.143876">
<ele>0.328154</ele>
<time>2026-06-18T10:03:56.127Z</time>
</trkpt>
<trkpt lat="56.589569" lon="8.143919">
<ele>0.344206</ele>
<time>2026-06-18T10:04:03.049Z</time>
</trkpt>
<trkpt lat="56.590402" lon="8.144095">
<ele>0.387645</ele>
<time>2026-06-18T10:04:21.668Z</time>
</trkpt>
<trkpt lat="56.591119" lon="8.144294">
<ele>0.436067</ele>
<time>2026-06-18T10:04:37.827Z</time>
</trkpt>
<trkpt lat="56.591407" lon="8.144457">
<ele>0.470286</ele>
<time>2026-06-18T10:04:44.736Z</time>
</trkpt>
<trkpt lat="56.591673" lon="8.144709">
<ele>0.504317</ele>
<time>2026-06-18T10:04:51.687Z</time>
</trkpt>
<trkpt lat="56.592024" lon="8.145103">
<ele>0.551123</ele>
<time>2026-06-18T10:05:01.206Z</time>
</trkpt>
<trkpt lat="56.592342" lon="8.145373">
<ele>0.590942</ele>
<time>2026-06-18T10:05:09.184Z</time>
</trkpt>
<trkpt lat="56.592453" lon="8.145429">
<ele>0.604010</ele>
<time>2026-06-18T10:05:11.763Z</time>
</trkpt>
<trkpt lat="56.592629" lon="8.145518">
<ele>0.623172</ele>
<time>2026-06-18T10:05:15.828Z</time>
</trkpt>
<trkpt lat="56.592904" lon="8.145591">
<ele>0.644027</ele>
<time>2026-06-18T10:05:22.014Z</time>
</trkpt>
<trkpt lat="56.593134" lon="8.145651">
<ele>0.661462</ele>
<time>2026-06-18T10:05:27.195Z</time>
</trkpt>
<trkpt lat="56.593442" lon="8.145732">
<ele>0.684814</ele>
<time>2026-06-18T10:05:34.163Z</time>
</trkpt>
<trkpt lat="56.593843" lon="8.145902">
<ele>0.715713</ele>
<time>2026-06-18T10:05:43.399Z</time>
</trkpt>
<trkpt lat="56.594862" lon="8.146476">
<ele>0.827322</ele>
<time>2026-06-18T10:06:07.469Z</time>
</trkpt>
<trkpt lat="56.596682" lon="8.147527">
<ele>1.057068</ele>
<time>2026-06-18T10:06:51.115Z</time>
</trkpt>
<trkpt lat="56.596663" lon="8.147618">
<ele>1.062180</ele>
<time>2026-06-18T10:06:52.320Z</time>
</trkpt>
<trkpt lat="56.596902" lon="8.147774">
<ele>1.086413</ele>
<time>2026-06-18T10:06:58.063Z</time>
</trkpt>
<trkpt lat="56.596956" lon="8.147807">
<ele>1.091849</ele>
<time>2026-06-18T10:06:59.360Z</time>
</trkpt>
<trkpt lat="56.597000" lon="8.147832">
<ele>1.096248</ele>
<time>2026-06-18T10:07:00.396Z</time>
</trkpt>
<trkpt lat="56.597173" lon="8.147929">
<ele>1.113523</ele>
<time>2026-06-18T10:07:04.519Z</time>
</trkpt>
<trkpt lat="56.597267" lon="8.147980">
<ele>1.122884</ele>
<time>2026-06-18T10:07:06.750Z</time>
</trkpt>
<trkpt lat="56.597576" lon="8.148150">
<ele>1.153690</ele>
<time>2026-06-18T10:07:14.110Z</time>
</trkpt>
<trkpt lat="56.597730" lon="8.148234">
<ele>1.165087</ele>
<time>2026-06-18T10:07:17.747Z</time>
</trkpt>
<trkpt lat="56.597882" lon="8.148317">
<ele>1.157921</ele>
<time>2026-06-18T10:07:21.314Z</time>
</trkpt>
<trkpt lat="56.598073" lon="8.148422">
<ele>1.148912</ele>
<time>2026-06-18T10:07:25.791Z</time>
</trkpt>
<trkpt lat="56.598410" lon="8.148606">
<ele>1.133024</ele>
<time>2026-06-18T10:07:33.642Z</time>
</trkpt>
<trkpt lat="56.598682" lon="8.148756">
<ele>1.120191</ele>
<time>2026-06-18T10:07:39.980Z</time>
</trkpt>
<trkpt lat="56.598824" lon="8.148834">
<ele>1.113493</ele>
<time>2026-06-18T10:07:43.282Z</time>
</trkpt>
<trkpt lat="56.598888" lon="8.148863">
<ele>1.110515</ele>
<time>2026-06-18T10:07:44.756Z</time>
</trkpt>
<trkpt lat="56.598990" lon="8.148910">
<ele>1.105764</ele>
<time>2026-06-18T10:07:47.057Z</time>
</trkpt>
<trkpt lat="56.599261" lon="8.149038">
<ele>1.093123</ele>
<time>2026-06-18T10:07:53.097Z</time>
</trkpt>
<trkpt lat="56.599325" lon="8.149068">
<ele>1.090138</ele>
<time>2026-06-18T10:07:54.501Z</time>
</trkpt>
<trkpt lat="56.599508" lon="8.149155">
<ele>1.068157</ele>
<time>2026-06-18T10:07:58.503Z</time>
</trkpt>
<trkpt lat="56.599743" lon="8.149265">
<ele>1.015736</ele>
<time>2026-06-18T10:08:03.592Z</time>
</trkpt>
<trkpt lat="56.599882" lon="8.149331">
<ele>0.984701</ele>
<time>2026-06-18T10:08:06.576Z</time>
</trkpt>
<trkpt lat="56.600069" lon="8.149419">
<ele>0.942974</ele>
<time>2026-06-18T10:08:10.600Z</time>
</trkpt>
<trkpt lat="56.600317" lon="8.149536">
<ele>0.887626</ele>
<time>2026-06-18T10:08:15.976Z</time>
</trkpt>
<trkpt lat="56.600372" lon="8.149561">
<ele>0.875379</ele>
<time>2026-06-18T10:08:17.174Z</time>
</trkpt>
<trkpt lat="56.600463" lon="8.149602">
<ele>0.855126</ele>
<time>2026-06-18T10:08:19.156Z</time>
</trkpt>
<trkpt lat="56.600560" lon="8.149646">
<ele>0.833529</ele>
<time>2026-06-18T10:08:21.303Z</time>
</trkpt>
<trkpt lat="56.600661" lon="8.149692">
<ele>0.811037</ele>
<time>2026-06-18T10:08:23.539Z</time>
</trkpt>
<trkpt lat="56.601100" lon="8.149866">
<ele>0.713977</ele>
<time>2026-06-18T10:08:33.354Z</time>
</trkpt>
<trkpt lat="56.601485" lon="8.149889">
<ele>0.747557</ele>
<time>2026-06-18T10:08:41.981Z</time>
</trkpt>
<trkpt lat="56.601693" lon="8.149940">
<ele>0.782625</ele>
<time>2026-06-18T10:08:46.765Z</time>
</trkpt>
<trkpt lat="56.601958" lon="8.150173">
<ele>0.831815</ele>
<time>2026-06-18T10:08:53.565Z</time>
</trkpt>
<trkpt lat="56.602023" lon="8.150288">
<ele>0.846974</ele>
<time>2026-06-18T10:08:55.671Z</time>
</trkpt>
<trkpt lat="56.602054" lon="8.150355">
<ele>0.855024</ele>
<time>2026-06-18T10:08:56.817Z</time>
</trkpt>
<trkpt lat="56.602291" lon="8.150892">
<ele>0.918327</ele>
<time>2026-06-18T10:09:05.765Z</time>
</trkpt>
<trkpt lat="56.602492" lon="8.151321">
<ele>0.970139</ele>
<time>2026-06-18T10:09:12.965Z</time>
</trkpt>
<trkpt lat="56.602582" lon="8.151483">
<ele>0.991308</ele>
<time>2026-06-18T10:09:15.861Z</time>
</trkpt>
<trkpt lat="56.602601" lon="8.151516">
<ele>0.995699</ele>
<time>2026-06-18T10:09:16.452Z</time>
</trkpt>
<trkpt lat="56.602790" lon="8.151852">
<ele>0.965293</ele>
<time>2026-06-18T10:09:22.498Z</time>
</trkpt>
<trkpt lat="56.602850" lon="8.151954">
<ele>0.955063</ele>
<time>2026-06-18T10:09:24.389Z</time>
</trkpt>
<trkpt lat="56.603000" lon="8.152152">
<ele>0.931980</ele>
<time>2026-06-18T10:09:28.611Z</time>
</trkpt>
<trkpt lat="56.603057" lon="8.152218">
<ele>0.923564</ele>
<time>2026-06-18T10:09:30.147Z</time>
</trkpt>
<trkpt lat="56.603262" lon="8.152455">
<ele>0.893313</ele>
<time>2026-06-18T10:09:35.508Z</time>
</trkpt>
<trkpt lat="56.603547" lon="8.152785">
<ele>0.851238</ele>
<time>2026-06-18T10:09:42.698Z</time>
</trkpt>
<trkpt lat="56.603607" lon="8.152854">
<ele>0.842397</ele>
<time>2026-06-18T10:09:44.191Z</time>
</trkpt>
<trkpt lat="56.603859" lon="8.153128">
<ele>0.805834</ele>
<time>2026-06-18T10:09:50.281Z</time>
</trkpt>
<trkpt lat="56.604000" lon="8.153282">
<ele>0.785352</ele>
<time>2026-06-18T10:09:53.679Z</time>
</trkpt>
<trkpt lat="56.604077" lon="8.153367">
<ele>0.774135</ele>
<time>2026-06-18T10:09:55.543Z</time>
</trkpt>
<trkpt lat="56.604100" lon="8.153392">
<ele>0.769436</ele>
<time>2026-06-18T10:09:56.092Z</time>
</trkpt>
<trkpt lat="56.604321" lon="8.153584">
<ele>0.721748</ele>
<time>2026-06-18T10:10:01.229Z</time>
</trkpt>
<trkpt lat="56.604386" lon="8.153641">
<ele>0.707698</ele>
<time>2026-06-18T10:10:02.767Z</time>
</trkpt>
<trkpt lat="56.604553" lon="8.153787">
<ele>0.671620</ele>
<time>2026-06-18T10:10:06.758Z</time>
</trkpt>
<trkpt lat="56.604704" lon="8.153915">
<ele>0.639183</ele>
<time>2026-06-18T10:10:10.323Z</time>
</trkpt>
<trkpt lat="56.605139" lon="8.154284">
<ele>0.545727</ele>
<time>2026-06-18T10:10:20.547Z</time>
</trkpt>
<trkpt lat="56.605185" lon="8.154334">
<ele>0.535292</ele>
<time>2026-06-18T10:10:21.721Z</time>
</trkpt>
<trkpt lat="56.605603" lon="8.154818">
<ele>0.438800</ele>
<time>2026-06-18T10:10:32.706Z</time>
</trkpt>
<trkpt lat="56.605824" lon="8.155087">
<ele>0.411118</ele>
<time>2026-06-18T10:10:38.710Z</time>
</trkpt>
<trkpt lat="56.606627" lon="8.156062">
<ele>0.348777</ele>
<time>2026-06-18T10:11:00.280Z</time>
</trkpt>
<trkpt lat="56.606668" lon="8.155973">
<ele>0.344653</ele>
<time>2026-06-18T10:11:01.655Z</time>
</trkpt>
<trkpt lat="56.606995" lon="8.156361">
<ele>0.319444</ele>
<time>2026-06-18T10:11:10.068Z</time>
</trkpt>
<trkpt lat="56.607503" lon="8.156867">
<ele>0.250166</ele>
<time>2026-06-18T10:11:22.303Z</time>
</trkpt>
<trkpt lat="56.607882" lon="8.157031">
<ele>0.192850</ele>
<time>2026-06-18T10:11:30.676Z</time>
</trkpt>
<trkpt lat="56.608173" lon="8.157108">
<ele>0.149588</ele>
<time>2026-06-18T10:11:37.004Z</time>
</trkpt>
<trkpt lat="56.608434" lon="8.157255">
<ele>0.109389</ele>
<time>2026-06-18T10:11:42.880Z</time>
</trkpt>
<trkpt lat="56.608599" lon="8.157437">
<ele>0.080992</ele>
<time>2026-06-18T10:11:47.091Z</time>
</trkpt>
<trkpt lat="56.608722" lon="8.157635">
<ele>0.056817</ele>
<time>2026-06-18T10:11:50.696Z</time>
</trkpt>
<trkpt lat="56.609418" lon="8.159168">
<ele>-0.011796</ele>
<time>2026-06-18T10:12:15.411Z</time>
</trkpt>
<trkpt lat="56.609600" lon="8.159658">
<ele>-0.029497</ele>
<time>2026-06-18T10:12:22.564Z</time>
</trkpt>
<trkpt lat="56.609734" lon="8.160155">
<ele>-0.046069</ele>
<time>2026-06-18T10:12:29.151Z</time>
</trkpt>
<trkpt lat="56.609819" lon="8.160370">
<ele>-0.053996</ele>
<time>2026-06-18T10:12:32.257Z</time>
</trkpt>
<trkpt lat="56.609976" lon="8.160604">
<ele>-0.091772</ele>
<time>2026-06-18T10:12:36.567Z</time>
</trkpt>
<trkpt lat="56.610269" lon="8.160911">
<ele>-0.161678</ele>
<time>2026-06-18T10:12:43.718Z</time>
</trkpt>
<trkpt lat="56.610635" lon="8.161186">
<ele>-0.243538</ele>
<time>2026-06-18T10:12:52.086Z</time>
</trkpt>
<trkpt lat="56.610891" lon="8.161328">
<ele>-0.298861</ele>
<time>2026-06-18T10:12:57.789Z</time>
</trkpt>
<trkpt lat="56.611478" lon="8.161575">
<ele>-0.423398</ele>
<time>2026-06-18T10:13:10.936Z</time>
</trkpt>
<trkpt lat="56.611686" lon="8.161713">
<ele>-0.401575</ele>
<time>2026-06-18T10:13:15.858Z</time>
</trkpt>
<trkpt lat="56.611893" lon="8.161939">
<ele>-0.370995</ele>
<time>2026-06-18T10:13:21.302Z</time>
</trkpt>
<trkpt lat="56.612014" lon="8.162119">
<ele>-0.351193</ele>
<time>2026-06-18T10:13:24.857Z</time>
</trkpt>
<trkpt lat="56.612134" lon="8.162391">
<ele>-0.326899</ele>
<time>2026-06-18T10:13:29.217Z</time>
</trkpt>
<trkpt lat="56.612498" lon="8.163364">
<ele>-0.244912</ele>
<time>2026-06-18T10:13:44.105Z</time>
</trkpt>
<trkpt lat="56.612763" lon="8.163811">
<ele>-0.198954</ele>
<time>2026-06-18T10:13:52.418Z</time>
</trkpt>
<trkpt lat="56.613007" lon="8.164097">
<ele>-0.144800</ele>
<time>2026-06-18T10:13:59.083Z</time>
</trkpt>
<trkpt lat="56.613755" lon="8.164993">
<ele>0.022292</ele>
<time>2026-06-18T10:14:19.650Z</time>
</trkpt>
<trkpt lat="56.614187" lon="8.165597">
<ele>0.123952</ele>
<time>2026-06-18T10:14:32.155Z</time>
</trkpt>
<trkpt lat="56.614623" lon="8.166574">
<ele>0.223134</ele>
<time>2026-06-18T10:14:48.291Z</time>
</trkpt>
<trkpt lat="56.614696" lon="8.166649">
<ele>0.234777</ele>
<time>2026-06-18T10:14:50.230Z</time>
</trkpt>
<trkpt lat="56.614808" lon="8.166636">
<ele>0.250360</ele>
<time>2026-06-18T10:14:52.804Z</time>
</trkpt>
<trkpt lat="56.614830" lon="8.166391">
<ele>0.269326</ele>
<time>2026-06-18T10:14:55.946Z</time>
</trkpt>
<trkpt lat="56.614958" lon="8.164857">
<ele>0.383365</ele>
<time>2026-06-18T10:15:15.259Z</time>
</trkpt>
<trkpt lat="56.615005" lon="8.164262">
<ele>0.333231</ele>
<time>2026-06-18T10:15:22.569Z</time>
</trkpt>
<trkpt lat="56.615020" lon="8.164072">
<ele>0.317222</ele>
<time>2026-06-18T10:15:24.824Z</time>
</trkpt>
<trkpt lat="56.615076" lon="8.163337">
<ele>0.255335</ele>
<time>2026-06-18T10:15:33.550Z</time>
</trkpt>
<trkpt lat="56.615111" lon="8.163027">
<ele>0.228942</ele>
<time>2026-06-18T10:15:37.276Z</time>
</trkpt>
<trkpt lat="56.615132" lon="8.162879">
<ele>0.216194</ele>
<time>2026-06-18T10:15:39.084Z</time>
</trkpt>
<trkpt lat="56.615167" lon="8.162687">
<ele>0.199325</ele>
<time>2026-06-18T10:15:41.463Z</time>
</trkpt>
<trkpt lat="56.615229" lon="8.162415">
<ele>0.174770</ele>
<time>2026-06-18T10:15:44.950Z</time>
</trkpt>
<trkpt lat="56.615432" lon="8.161897">
<ele>0.121730</ele>
<time>2026-06-18T10:15:52.502Z</time>
</trkpt>
<trkpt lat="56.615632" lon="8.161569">
<ele>0.101889</ele>
<time>2026-06-18T10:15:58.311Z</time>
</trkpt>
<trkpt lat="56.615764" lon="8.161418">
<ele>0.093661</ele>
<time>2026-06-18T10:16:01.645Z</time>
</trkpt>
<trkpt lat="56.617299" lon="8.160196">
<ele>0.071476</ele>
<time>2026-06-18T10:16:38.549Z</time>
</trkpt>
<trkpt lat="56.617894" lon="8.159710">
<ele>0.212969</ele>
<time>2026-06-18T10:16:53.720Z</time>
</trkpt>
<trkpt lat="56.618148" lon="8.159427">
<ele>0.277591</ele>
<time>2026-06-18T10:17:00.803Z</time>
</trkpt>
<trkpt lat="56.618344" lon="8.159118">
<ele>0.333870</ele>
<time>2026-06-18T10:17:07.023Z</time>
</trkpt>
<trkpt lat="56.618966" lon="8.157965">
<ele>0.466031</ele>
<time>2026-06-18T10:17:27.813Z</time>
</trkpt>
<trkpt lat="56.619310" lon="8.157322">
<ele>0.518251</ele>
<time>2026-06-18T10:17:39.016Z</time>
</trkpt>
<trkpt lat="56.619993" lon="8.156029">
<ele>0.541066</ele>
<time>2026-06-18T10:18:00.801Z</time>
</trkpt>
<trkpt lat="56.620239" lon="8.155660">
<ele>0.459771</ele>
<time>2026-06-18T10:18:07.560Z</time>
</trkpt>
<trkpt lat="56.620329" lon="8.155552">
<ele>0.432284</ele>
<time>2026-06-18T10:18:09.833Z</time>
</trkpt>
<trkpt lat="56.620536" lon="8.155304">
<ele>0.369094</ele>
<time>2026-06-18T10:18:15.036Z</time>
</trkpt>
<trkpt lat="56.620808" lon="8.155090">
<ele>0.293551</ele>
<time>2026-06-18T10:18:21.313Z</time>
</trkpt>
<trkpt lat="56.621029" lon="8.154988">
<ele>0.235435</ele>
<time>2026-06-18T10:18:26.165Z</time>
</trkpt>
<trkpt lat="56.621436" lon="8.154917">
<ele>0.137131</ele>
<time>2026-06-18T10:18:34.708Z</time>
</trkpt>
<trkpt lat="56.621820" lon="8.155017">
<ele>0.102921</ele>
<time>2026-06-18T10:18:42.934Z</time>
</trkpt>
<trkpt lat="56.622330" lon="8.155232">
<ele>0.056752</ele>
<time>2026-06-18T10:18:54.379Z</time>
</trkpt>
<trkpt lat="56.623213" lon="8.155604">
<ele>-0.015411</ele>
<time>2026-06-18T10:19:14.648Z</time>
</trkpt>
<trkpt lat="56.625278" lon="8.156465">
<ele>0.083140</ele>
<time>2026-06-18T10:20:02.131Z</time>
</trkpt>
<trkpt lat="56.626466" lon="8.156959">
<ele>0.097569</ele>
<time>2026-06-18T10:20:29.473Z</time>
</trkpt>
<trkpt lat="56.628423" lon="8.157787">
<ele>0.194870</ele>
<time>2026-06-18T10:21:13.922Z</time>
</trkpt>
<trkpt lat="56.628871" lon="8.157975">
<ele>0.306435</ele>
<time>2026-06-18T10:21:24.988Z</time>
</trkpt>
<trkpt lat="56.629105" lon="8.158081">
<ele>0.364950</ele>
<time>2026-06-18T10:21:30.692Z</time>
</trkpt>
<trkpt lat="56.629546" lon="8.158258">
<ele>0.474535</ele>
<time>2026-06-18T10:21:42.377Z</time>
</trkpt>
<trkpt lat="56.629684" lon="8.158317">
<ele>0.508934</ele>
<time>2026-06-18T10:21:46.037Z</time>
</trkpt>
<trkpt lat="56.630066" lon="8.158391">
<ele>0.602150</ele>
<time>2026-06-18T10:21:56.021Z</time>
</trkpt>
<trkpt lat="56.630406" lon="8.158266">
<ele>0.634241</ele>
<time>2026-06-18T10:22:04.760Z</time>
</trkpt>
<trkpt lat="56.630708" lon="8.158085">
<ele>0.640038</ele>
<time>2026-06-18T10:22:12.497Z</time>
</trkpt>
<trkpt lat="56.630830" lon="8.157989">
<ele>0.642462</ele>
<time>2026-06-18T10:22:15.747Z</time>
</trkpt>
<trkpt lat="56.630914" lon="8.158054">
<ele>0.644127</ele>
<time>2026-06-18T10:22:17.800Z</time>
</trkpt>
<trkpt lat="56.630972" lon="8.158038">
<ele>0.645196</ele>
<time>2026-06-18T10:22:19.097Z</time>
</trkpt>
<trkpt lat="56.631504" lon="8.157683">
<ele>0.655528</ele>
<time>2026-06-18T10:22:31.948Z</time>
</trkpt>
<trkpt lat="56.631634" lon="8.157708">
<ele>0.657912</ele>
<time>2026-06-18T10:22:34.916Z</time>
</trkpt>
<trkpt lat="56.631921" lon="8.158093">
<ele>0.643444</ele>
<time>2026-06-18T10:22:42.791Z</time>
</trkpt>
<trkpt lat="56.632033" lon="8.158298">
<ele>0.608638</ele>
<time>2026-06-18T10:22:46.181Z</time>
</trkpt>
<trkpt lat="56.632205" lon="8.158813">
<ele>0.536061</ele>
<time>2026-06-18T10:22:53.243Z</time>
</trkpt>
<trkpt lat="56.632298" lon="8.159285">
<ele>0.475667</ele>
<time>2026-06-18T10:22:59.122Z</time>
</trkpt>
<trkpt lat="56.632334" lon="8.159626">
<ele>0.433841</ele>
<time>2026-06-18T10:23:03.131Z</time>
</trkpt>
<trkpt lat="56.632354" lon="8.160275">
<ele>0.355542</ele>
<time>2026-06-18T10:23:10.550Z</time>
</trkpt>
<trkpt lat="56.632334" lon="8.161076">
<ele>0.265512</ele>
<time>2026-06-18T10:23:19.807Z</time>
</trkpt>
<trkpt lat="56.632644" lon="8.165957">
<ele>0.054682</ele>
<time>2026-06-18T10:24:19.706Z</time>
</trkpt>
<trkpt lat="56.632674" lon="8.166157">
<ele>0.045019</ele>
<time>2026-06-18T10:24:22.297Z</time>
</trkpt>
<trkpt lat="56.632724" lon="8.166275">
<ele>0.038075</ele>
<time>2026-06-18T10:24:24.360Z</time>
</trkpt>
<trkpt lat="56.632764" lon="8.166607">
<ele>0.022232</ele>
<time>2026-06-18T10:24:28.981Z</time>
</trkpt>
<trkpt lat="56.632799" lon="8.166660">
<ele>0.018372</ele>
<time>2026-06-18T10:24:30.088Z</time>
</trkpt>
<trkpt lat="56.632830" lon="8.166655">
<ele>0.015734</ele>
<time>2026-06-18T10:24:30.859Z</time>
</trkpt>
<trkpt lat="56.632853" lon="8.166515">
<ele>0.008923</ele>
<time>2026-06-18T10:24:32.811Z</time>
</trkpt>
<trkpt lat="56.632929" lon="8.165567">
<ele>-0.113433</ele>
<time>2026-06-18T10:24:44.034Z</time>
</trkpt>
<trkpt lat="56.632943" lon="8.165474">
<ele>-0.136891</ele>
<time>2026-06-18T10:24:45.150Z</time>
</trkpt>
<trkpt lat="56.634013" lon="8.163077">
<ele>-0.807159</ele>
<time>2026-06-18T10:25:19.673Z</time>
</trkpt>
<trkpt lat="56.634607" lon="8.162104">
<ele>-0.779925</ele>
<time>2026-06-18T10:25:37.608Z</time>
</trkpt>
<trkpt lat="56.635002" lon="8.161577">
<ele>-0.763235</ele>
<time>2026-06-18T10:25:49.198Z</time>
</trkpt>
<trkpt lat="56.635826" lon="8.160849">
<ele>-0.766427</ele>
<time>2026-06-18T10:26:10.198Z</time>
</trkpt>
<trkpt lat="56.636616" lon="8.160401">
<ele>-0.787615</ele>
<time>2026-06-18T10:26:28.234Z</time>
</trkpt>
<trkpt lat="56.637430" lon="8.160176">
<ele>-0.821364</ele>
<time>2026-06-18T10:26:45.840Z</time>
</trkpt>
<trkpt lat="56.638183" lon="8.160133">
<ele>-0.862913</ele>
<time>2026-06-18T10:27:02.233Z</time>
</trkpt>
<trkpt lat="56.638792" lon="8.160237">
<ele>-0.896648</ele>
<time>2026-06-18T10:27:16.227Z</time>
</trkpt>
<trkpt lat="56.639469" lon="8.160484">
<ele>-0.828742</ele>
<time>2026-06-18T10:27:32.082Z</time>
</trkpt>
<trkpt lat="56.640152" lon="8.160849">
<ele>-0.757956</ele>
<time>2026-06-18T10:27:48.464Z</time>
</trkpt>
<trkpt lat="56.645467" lon="8.164122">
<ele>-0.808685</ele>
<time>2026-06-18T10:29:52.737Z</time>
</trkpt>
<trkpt lat="56.645970" lon="8.164458">
<ele>-0.833301</ele>
<time>2026-06-18T10:30:04.533Z</time>
</trkpt>
<trkpt lat="56.646464" lon="8.164855">
<ele>-0.864618</ele>
<time>2026-06-18T10:30:16.436Z</time>
</trkpt>
<trkpt lat="56.646623" lon="8.164991">
<ele>-0.874807</ele>
<time>2026-06-18T10:30:20.300Z</time>
</trkpt>
<trkpt lat="56.654029" lon="8.172811">
<ele>-1.059528</ele>
<time>2026-06-18T10:33:29.683Z</time>
</trkpt>
<trkpt lat="56.655015" lon="8.173674">
<ele>-1.019268</ele>
<time>2026-06-18T10:33:54.404Z</time>
</trkpt>
<trkpt lat="56.655792" lon="8.174252">
<ele>-0.933006</ele>
<time>2026-06-18T10:34:13.396Z</time>
</trkpt>
<trkpt lat="56.656863" lon="8.175049">
<ele>-0.797728</ele>
<time>2026-06-18T10:34:39.645Z</time>
</trkpt>
<trkpt lat="56.658935" lon="8.176580">
<ele>-0.439876</ele>
<time>2026-06-18T10:35:31.270Z</time>
</trkpt>
<trkpt lat="56.659076" lon="8.176691">
<ele>-0.425555</ele>
<time>2026-06-18T10:35:34.791Z</time>
</trkpt>
<trkpt lat="56.659125" lon="8.176793">
<ele>-0.418614</ele>
<time>2026-06-18T10:35:36.496Z</time>
</trkpt>
<trkpt lat="56.659067" lon="8.177146">
<ele>-0.399737</ele>
<time>2026-06-18T10:35:41.123Z</time>
</trkpt>
<trkpt lat="56.659077" lon="8.177244">
<ele>-0.394630</ele>
<time>2026-06-18T10:35:42.354Z</time>
</trkpt>
<trkpt lat="56.659115" lon="8.177323">
<ele>-0.389252</ele>
<time>2026-06-18T10:35:43.675Z</time>
</trkpt>
<trkpt lat="56.659513" lon="8.177571">
<ele>-0.350035</ele>
<time>2026-06-18T10:35:53.125Z</time>
</trkpt>
<trkpt lat="56.659695" lon="8.177279">
<ele>-0.327416</ele>
<time>2026-06-18T10:35:58.518Z</time>
</trkpt>
<trkpt lat="56.659816" lon="8.177245">
<ele>-0.337507</ele>
<time>2026-06-18T10:36:01.218Z</time>
</trkpt>
<trkpt lat="56.661789" lon="8.178739">
<ele>-0.681417</ele>
<time>2026-06-18T10:36:47.416Z</time>
</trkpt>
<trkpt lat="56.663190" lon="8.179757">
<ele>-1.089022</ele>
<time>2026-06-18T10:37:19.045Z</time>
</trkpt>
<trkpt lat="56.665653" lon="8.181605">
<ele>-1.155631</ele>
<time>2026-06-18T10:38:18.040Z</time>
</trkpt>
<trkpt lat="56.668429" lon="8.183706">
<ele>-0.918197</ele>
<time>2026-06-18T10:39:26.222Z</time>
</trkpt>
<trkpt lat="56.673280" lon="8.187320">
<ele>-0.620550</ele>
<time>2026-06-18T10:41:24.024Z</time>
</trkpt>
<trkpt lat="56.679888" lon="8.192243">
<ele>-0.614768</ele>
<time>2026-06-18T10:44:02.652Z</time>
</trkpt>
<trkpt lat="56.683936" lon="8.195259">
<ele>-0.765099</ele>
<time>2026-06-18T10:45:39.158Z</time>
</trkpt>
<trkpt lat="56.689633" lon="8.199545">
<ele>-0.594047</ele>
<time>2026-06-18T10:47:57.038Z</time>
</trkpt>
<trkpt lat="56.692868" lon="8.201964">
<ele>-0.315554</ele>
<time>2026-06-18T10:49:15.628Z</time>
</trkpt>
<trkpt lat="56.693595" lon="8.202541">
<ele>-0.090555</ele>
<time>2026-06-18T10:49:34.435Z</time>
</trkpt>
<trkpt lat="56.693615" lon="8.202688">
<ele>-0.063771</ele>
<time>2026-06-18T10:49:36.384Z</time>
</trkpt>
<trkpt lat="56.693661" lon="8.202723">
<ele>-0.047714</ele>
<time>2026-06-18T10:49:37.558Z</time>
</trkpt>
<trkpt lat="56.693695" lon="8.202817">
<ele>-0.027806</ele>
<time>2026-06-18T10:49:39.009Z</time>
</trkpt>
<trkpt lat="56.693752" lon="8.202845">
<ele>-0.008791</ele>
<time>2026-06-18T10:49:40.386Z</time>
</trkpt>
<trkpt lat="56.693805" lon="8.202735">
<ele>0.017090</ele>
<time>2026-06-18T10:49:42.269Z</time>
</trkpt>
<trkpt lat="56.694000" lon="8.202396">
<ele>0.103919</ele>
<time>2026-06-18T10:49:48.662Z</time>
</trkpt>
<trkpt lat="56.694062" lon="8.202361">
<ele>0.124825</ele>
<time>2026-06-18T10:49:50.203Z</time>
</trkpt>
<trkpt lat="56.694150" lon="8.202381">
<ele>0.153389</ele>
<time>2026-06-18T10:49:52.321Z</time>
</trkpt>
<trkpt lat="56.694770" lon="8.202719">
<ele>0.362083</ele>
<time>2026-06-18T10:50:08.214Z</time>
</trkpt>
<trkpt lat="56.694922" lon="8.202792">
<ele>0.412866</ele>
<time>2026-06-18T10:50:11.877Z</time>
</trkpt>
<trkpt lat="56.695336" lon="8.203016">
<ele>0.552386</ele>
<time>2026-06-18T10:50:22.030Z</time>
</trkpt>
<trkpt lat="56.695838" lon="8.203282">
<ele>0.721282</ele>
<time>2026-06-18T10:50:34.477Z</time>
</trkpt>
<trkpt lat="56.696288" lon="8.203525">
<ele>0.861658</ele>
<time>2026-06-18T10:50:45.507Z</time>
</trkpt>
<trkpt lat="56.696580" lon="8.203683">
<ele>0.872983</ele>
<time>2026-06-18T10:50:52.433Z</time>
</trkpt>
<trkpt lat="56.696867" lon="8.203781">
<ele>0.883839</ele>
<time>2026-06-18T10:50:59.063Z</time>
</trkpt>
<trkpt lat="56.697155" lon="8.203817">
<ele>0.894571</ele>
<time>2026-06-18T10:51:05.642Z</time>
</trkpt>
<trkpt lat="56.697289" lon="8.203853">
<ele>0.899607</ele>
<time>2026-06-18T10:51:08.678Z</time>
</trkpt>
<trkpt lat="56.697449" lon="8.203935">
<ele>0.905786</ele>
<time>2026-06-18T10:51:12.415Z</time>
</trkpt>
<trkpt lat="56.697665" lon="8.204116">
<ele>0.914626</ele>
<time>2026-06-18T10:51:17.687Z</time>
</trkpt>
<trkpt lat="56.697871" lon="8.204348">
<ele>0.923630</ele>
<time>2026-06-18T10:51:23.072Z</time>
</trkpt>
<trkpt lat="56.698093" lon="8.204558">
<ele>0.876425</ele>
<time>2026-06-18T10:51:28.523Z</time>
</trkpt>
<trkpt lat="56.698322" lon="8.204658">
<ele>0.800853</ele>
<time>2026-06-18T10:51:33.482Z</time>
</trkpt>
<trkpt lat="56.698153" lon="8.205627">
<ele>0.621712</ele>
<time>2026-06-18T10:51:45.325Z</time>
</trkpt>
<trkpt lat="56.698117" lon="8.205823">
<ele>0.585296</ele>
<time>2026-06-18T10:51:47.753Z</time>
</trkpt>
<trkpt lat="56.698080" lon="8.205887">
<ele>0.568921</ele>
<time>2026-06-18T10:51:48.855Z</time>
</trkpt>
<trkpt lat="56.698069" lon="8.206065">
<ele>0.537360</ele>
<time>2026-06-18T10:51:50.905Z</time>
</trkpt>
<trkpt lat="56.697906" lon="8.207088">
<ele>0.349895</ele>
<time>2026-06-18T10:52:03.318Z</time>
</trkpt>
<trkpt lat="56.697877" lon="8.207244">
<ele>0.355799</ele>
<time>2026-06-18T10:52:05.259Z</time>
</trkpt>
<trkpt lat="56.697730" lon="8.208190">
<ele>0.391042</ele>
<time>2026-06-18T10:52:16.986Z</time>
</trkpt>
<trkpt lat="56.697468" lon="8.210023">
<ele>0.458938</ele>
<time>2026-06-18T10:52:48.379Z</time>
</trkpt>
<trkpt lat="56.697402" lon="8.210554">
<ele>0.486153</ele>
<time>2026-06-18T10:52:57.284Z</time>
</trkpt>
<trkpt lat="56.697361" lon="8.211107">
<ele>0.519946</ele>
<time>2026-06-18T10:53:06.441Z</time>
</trkpt>
<trkpt lat="56.697334" lon="8.211658">
<ele>0.553446</ele>
<time>2026-06-18T10:53:15.537Z</time>
</trkpt>
<trkpt lat="56.697335" lon="8.212226">
<ele>0.587843</ele>
<time>2026-06-18T10:53:24.812Z</time>
</trkpt>
<trkpt lat="56.697407" lon="8.213315">
<ele>0.654267</ele>
<time>2026-06-18T10:53:42.829Z</time>
</trkpt>
<trkpt lat="56.697551" lon="8.214410">
<ele>0.608595</ele>
<time>2026-06-18T10:54:00.916Z</time>
</trkpt>
<trkpt lat="56.696397" lon="8.215038">
<ele>0.475098</ele>
<time>2026-06-18T10:54:26.915Z</time>
</trkpt>
<trkpt lat="56.695694" lon="8.215419">
<ele>0.470186</ele>
<time>2026-06-18T10:54:42.567Z</time>
</trkpt>
<trkpt lat="56.695209" lon="8.215675">
<ele>0.473184</ele>
<time>2026-06-18T10:54:53.877Z</time>
</trkpt>
<trkpt lat="56.695469" lon="8.217248">
<ele>0.510670</ele>
<time>2026-06-18T10:55:14.316Z</time>
</trkpt>
<trkpt lat="56.697074" lon="8.216384">
<ele>0.683013</ele>
<time>2026-06-18T10:55:53.012Z</time>
</trkpt>
<trkpt lat="56.695469" lon="8.217248">
<ele>0.379072</ele>
<time>2026-06-18T10:56:28.836Z</time>
</trkpt>
<trkpt lat="56.695209" lon="8.215675">
<ele>0.129879</ele>
<time>2026-06-18T10:56:47.763Z</time>
</trkpt>
<trkpt lat="56.695053" lon="8.215749">
<ele>0.085343</ele>
<time>2026-06-18T10:56:51.161Z</time>
</trkpt>
<trkpt lat="56.694161" lon="8.216248">
<ele>-0.147676</ele>
<time>2026-06-18T10:57:11.027Z</time>
</trkpt>
<trkpt lat="56.692404" lon="8.217179">
<ele>-0.339301</ele>
<time>2026-06-18T10:57:50.384Z</time>
</trkpt>
<trkpt lat="56.690454" lon="8.218221">
<ele>0.218343</ele>
<time>2026-06-18T10:58:38.479Z</time>
</trkpt>
<trkpt lat="56.689945" lon="8.218493">
<ele>0.409187</ele>
<time>2026-06-18T10:58:51.335Z</time>
</trkpt>
<trkpt lat="56.689835" lon="8.218518">
<ele>0.449068</ele>
<time>2026-06-18T10:58:53.990Z</time>
</trkpt>
<trkpt lat="56.689724" lon="8.218502">
<ele>0.489127</ele>
<time>2026-06-18T10:58:56.627Z</time>
</trkpt>
<trkpt lat="56.689584" lon="8.218407">
<ele>0.542878</ele>
<time>2026-06-18T10:59:00.178Z</time>
</trkpt>
<trkpt lat="56.689518" lon="8.218398">
<ele>0.566689</ele>
<time>2026-06-18T10:59:01.740Z</time>
</trkpt>
<trkpt lat="56.689484" lon="8.218434">
<ele>0.580839</ele>
<time>2026-06-18T10:59:02.672Z</time>
</trkpt>
<trkpt lat="56.689279" lon="8.219113">
<ele>0.700759</ele>
<time>2026-06-18T10:59:12.663Z</time>
</trkpt>
<trkpt lat="56.689106" lon="8.219688">
<ele>0.721138</ele>
<time>2026-06-18T10:59:20.725Z</time>
</trkpt>
<trkpt lat="56.689061" lon="8.219915">
<ele>0.728639</ele>
<time>2026-06-18T10:59:23.650Z</time>
</trkpt>
<trkpt lat="56.689055" lon="8.220134">
<ele>0.735455</ele>
<time>2026-06-18T10:59:26.292Z</time>
</trkpt>
<trkpt lat="56.689117" lon="8.220575">
<ele>0.749604</ele>
<time>2026-06-18T10:59:31.802Z</time>
</trkpt>
<trkpt lat="56.689142" lon="8.220729">
<ele>0.754596</ele>
<time>2026-06-18T10:59:33.768Z</time>
</trkpt>
<trkpt lat="56.689195" lon="8.221058">
<ele>0.765253</ele>
<time>2026-06-18T10:59:37.933Z</time>
</trkpt>
<trkpt lat="56.689107" lon="8.221089">
<ele>0.770326</ele>
<time>2026-06-18T10:59:39.942Z</time>
</trkpt>
<trkpt lat="56.688985" lon="8.220988">
<ele>0.777911</ele>
<time>2026-06-18T10:59:42.941Z</time>
</trkpt>
<trkpt lat="56.688547" lon="8.221220">
<ele>0.791355</ele>
<time>2026-06-18T10:59:53.180Z</time>
</trkpt>
<trkpt lat="56.688295" lon="8.221296">
<ele>0.781514</ele>
<time>2026-06-18T10:59:58.845Z</time>
</trkpt>
<trkpt lat="56.686347" lon="8.222267">
<ele>0.644971</ele>
<time>2026-06-18T11:00:43.438Z</time>
</trkpt>
<trkpt lat="56.684692" lon="8.223162">
<ele>0.359040</ele>
<time>2026-06-18T11:01:20.561Z</time>
</trkpt>
<trkpt lat="56.684739" lon="8.223452">
<ele>0.320325</ele>
<time>2026-06-18T11:01:24.080Z</time>
</trkpt>
<trkpt lat="56.684775" lon="8.223833">
<ele>0.270823</ele>
<time>2026-06-18T11:01:28.564Z</time>
</trkpt>
<trkpt lat="56.684692" lon="8.224565">
<ele>0.175119</ele>
<time>2026-06-18T11:01:37.285Z</time>
</trkpt>
<trkpt lat="56.684654" lon="8.224707">
<ele>0.154893</ele>
<time>2026-06-18T11:01:39.132Z</time>
</trkpt>
<trkpt lat="56.684626" lon="8.224730">
<ele>0.147732</ele>
<time>2026-06-18T11:01:39.789Z</time>
</trkpt>
<trkpt lat="56.684499" lon="8.224742">
<ele>0.118085</ele>
<time>2026-06-18T11:01:42.476Z</time>
</trkpt>
<trkpt lat="56.684478" lon="8.224922">
<ele>0.094523</ele>
<time>2026-06-18T11:01:44.609Z</time>
</trkpt>
<trkpt lat="56.683529" lon="8.232730">
<ele>-0.000000</ele>
<time>2026-06-18T11:02:45.664Z</time>
</trkpt>
<trkpt lat="56.683562" lon="8.233373">
<ele>-0.000000</ele>
<time>2026-06-18T11:02:50.596Z</time>
</trkpt>
<trkpt lat="56.683709" lon="8.233974">
<ele>-0.000000</ele>
<time>2026-06-18T11:02:55.619Z</time>
</trkpt>
<trkpt lat="56.684092" lon="8.234779">
<ele>-0.000000</ele>
<time>2026-06-18T11:03:03.749Z</time>
</trkpt>
<trkpt lat="56.685438" lon="8.236994">
<ele>-0.000000</ele>
<time>2026-06-18T11:03:28.961Z</time>
</trkpt>
<trkpt lat="56.698044" lon="8.247575">
<ele>-0.000000</ele>
<time>2026-06-18T11:06:41.901Z</time>
</trkpt>
<trkpt lat="56.699257" lon="8.248692">
<ele>-0.035653</ele>
<time>2026-06-18T11:07:00.791Z</time>
</trkpt>
<trkpt lat="56.699800" lon="8.248691">
<ele>-0.054371</ele>
<time>2026-06-18T11:07:08.340Z</time>
</trkpt>
<trkpt lat="56.700268" lon="8.248474">
<ele>-0.091049</ele>
<time>2026-06-18T11:07:15.052Z</time>
</trkpt>
<trkpt lat="56.701084" lon="8.247968">
<ele>-0.186786</ele>
<time>2026-06-18T11:07:27.034Z</time>
</trkpt>
<trkpt lat="56.701765" lon="8.247257">
<ele>-0.258179</ele>
<time>2026-06-18T11:07:37.941Z</time>
</trkpt>
<trkpt lat="56.701865" lon="8.247120">
<ele>-0.254088</ele>
<time>2026-06-18T11:07:40.699Z</time>
</trkpt>
<trkpt lat="56.701883" lon="8.247088">
<ele>-0.253266</ele>
<time>2026-06-18T11:07:41.260Z</time>
</trkpt>
<trkpt lat="56.701875" lon="8.247027">
<ele>-0.252140</ele>
<time>2026-06-18T11:07:42.030Z</time>
</trkpt>
<trkpt lat="56.701977" lon="8.246790">
<ele>-0.246735</ele>
<time>2026-06-18T11:07:45.700Z</time>
</trkpt>
<trkpt lat="56.702096" lon="8.246232">
<ele>-0.235991</ele>
<time>2026-06-18T11:07:53.059Z</time>
</trkpt>
<trkpt lat="56.702178" lon="8.246010">
<ele>-0.231188</ele>
<time>2026-06-18T11:07:56.363Z</time>
</trkpt>
<trkpt lat="56.702647" lon="8.245293">
<ele>-0.211170</ele>
<time>2026-06-18T11:08:10.165Z</time>
</trkpt>
<trkpt lat="56.702742" lon="8.245198">
<ele>-0.207626</ele>
<time>2026-06-18T11:08:12.619Z</time>
</trkpt>
<trkpt lat="56.703013" lon="8.245059">
<ele>-0.207482</ele>
<time>2026-06-18T11:08:18.927Z</time>
</trkpt>
<trkpt lat="56.703241" lon="8.245078">
<ele>-0.214902</ele>
<time>2026-06-18T11:08:24.016Z</time>
</trkpt>
<trkpt lat="56.703307" lon="8.245084">
<ele>-0.217051</ele>
<time>2026-06-18T11:08:25.490Z</time>
</trkpt>
<trkpt lat="56.705403" lon="8.246424">
<ele>-0.268452</ele>
<time>2026-06-18T11:09:14.214Z</time>
</trkpt>
<trkpt lat="56.705765" lon="8.246743">
<ele>-0.271745</ele>
<time>2026-06-18T11:09:23.190Z</time>
</trkpt>
<trkpt lat="56.706330" lon="8.247093">
<ele>-0.267381</ele>
<time>2026-06-18T11:09:36.659Z</time>
</trkpt>
<trkpt lat="56.707128" lon="8.247506">
<ele>-0.137645</ele>
<time>2026-06-18T11:09:55.631Z</time>
</trkpt>
<trkpt lat="56.707796" lon="8.247785">
<ele>-0.030468</ele>
<time>2026-06-18T11:10:11.336Z</time>
</trkpt>
<trkpt lat="56.708538" lon="8.248015">
<ele>0.060503</ele>
<time>2026-06-18T11:10:28.511Z</time>
</trkpt>
<trkpt lat="56.709101" lon="8.248136">
<ele>0.120297</ele>
<time>2026-06-18T11:10:41.349Z</time>
</trkpt>
<trkpt lat="56.709906" lon="8.248233">
<ele>0.210309</ele>
<time>2026-06-18T11:10:59.650Z</time>
</trkpt>
<trkpt lat="56.715616" lon="8.248580">
<ele>1.034313</ele>
<time>2026-06-18T11:13:10.317Z</time>
</trkpt>
<trkpt lat="56.723395" lon="8.249094">
<ele>1.184790</ele>
<time>2026-06-18T11:16:03.616Z</time>
</trkpt>
<trkpt lat="56.723472" lon="8.249030">
<ele>1.184598</ele>
<time>2026-06-18T11:16:05.492Z</time>
</trkpt>
<trkpt lat="56.723552" lon="8.249019">
<ele>1.184417</ele>
<time>2026-06-18T11:16:07.291Z</time>
</trkpt>
<trkpt lat="56.723646" lon="8.249045">
<ele>1.184202</ele>
<time>2026-06-18T11:16:09.399Z</time>
</trkpt>
<trkpt lat="56.723717" lon="8.249115">
<ele>1.184020</ele>
<time>2026-06-18T11:16:11.193Z</time>
</trkpt>
<trkpt lat="56.744628" lon="8.250507">
<ele>0.486553</ele>
<time>2026-06-18T11:23:53.850Z</time>
</trkpt>
<trkpt lat="56.745153" lon="8.250499">
<ele>0.458426</ele>
<time>2026-06-18T11:24:05.398Z</time>
</trkpt>
<trkpt lat="56.745497" lon="8.250561">
<ele>0.439907</ele>
<time>2026-06-18T11:24:13.012Z</time>
</trkpt>
<trkpt lat="56.755620" lon="8.251231">
<ele>0.389340</ele>
<time>2026-06-18T11:27:58.009Z</time>
</trkpt>
<trkpt lat="56.762633" lon="8.251695">
<ele>0.304378</ele>
<time>2026-06-18T11:30:33.962Z</time>
</trkpt>
<trkpt lat="56.762917" lon="8.251671">
<ele>0.302005</ele>
<time>2026-06-18T11:30:40.264Z</time>
</trkpt>
<trkpt lat="56.763489" lon="8.251756">
<ele>0.297214</ele>
<time>2026-06-18T11:30:52.997Z</time>
</trkpt>
<trkpt lat="56.771019" lon="8.252259">
<ele>0.232936</ele>
<time>2026-06-18T11:33:40.038Z</time>
</trkpt>
<trkpt lat="56.771376" lon="8.252240">
<ele>0.279734</ele>
<time>2026-06-18T11:33:48.137Z</time>
</trkpt>
<trkpt lat="56.772117" lon="8.252318">
<ele>0.376990</ele>
<time>2026-06-18T11:34:05.157Z</time>
</trkpt>
<trkpt lat="56.772213" lon="8.252289">
<ele>0.389740</ele>
<time>2026-06-18T11:34:07.391Z</time>
</trkpt>
<trkpt lat="56.772421" lon="8.252126">
<ele>0.419401</ele>
<time>2026-06-18T11:34:12.632Z</time>
</trkpt>
<trkpt lat="56.772539" lon="8.252020">
<ele>0.436634</ele>
<time>2026-06-18T11:34:15.653Z</time>
</trkpt>
<trkpt lat="56.772989" lon="8.251634">
<ele>0.440192</ele>
<time>2026-06-18T11:34:26.986Z</time>
</trkpt>
<trkpt lat="56.773421" lon="8.251174">
<ele>0.423255</ele>
<time>2026-06-18T11:34:38.157Z</time>
</trkpt>
<trkpt lat="56.773816" lon="8.250545">
<ele>0.405503</ele>
<time>2026-06-18T11:34:49.642Z</time>
</trkpt>
<trkpt lat="56.774118" lon="8.249953">
<ele>0.380343</ele>
<time>2026-06-18T11:34:59.131Z</time>
</trkpt>
<trkpt lat="56.774387" lon="8.249255">
<ele>0.252799</ele>
<time>2026-06-18T11:35:09.028Z</time>
</trkpt>
<trkpt lat="56.775218" lon="8.246185">
<ele>-0.020141</ele>
<time>2026-06-18T11:35:48.855Z</time>
</trkpt>
<trkpt lat="56.778666" lon="8.233103">
<ele>1.346628</ele>
<time>2026-06-18T11:38:51.340Z</time>
</trkpt>
<trkpt lat="56.778777" lon="8.232770">
<ele>1.423320</ele>
<time>2026-06-18T11:38:56.663Z</time>
</trkpt>
<trkpt lat="56.778970" lon="8.232334">
<ele>1.548845</ele>
<time>2026-06-18T11:39:04.534Z</time>
</trkpt>
<trkpt lat="56.779316" lon="8.231814">
<ele>1.808895</ele>
<time>2026-06-18T11:39:16.082Z</time>
</trkpt>
<trkpt lat="56.779607" lon="8.231522">
<ele>2.001570</ele>
<time>2026-06-18T11:39:24.393Z</time>
</trkpt>
<trkpt lat="56.779650" lon="8.231484">
<ele>2.029290</ele>
<time>2026-06-18T11:39:25.580Z</time>
</trkpt>
<trkpt lat="56.779852" lon="8.231308">
<ele>2.159162</ele>
<time>2026-06-18T11:39:31.103Z</time>
</trkpt>
<trkpt lat="56.779958" lon="8.231215">
<ele>2.227401</ele>
<time>2026-06-18T11:39:33.983Z</time>
</trkpt>
<trkpt lat="56.780074" lon="8.231174">
<ele>2.295956</ele>
<time>2026-06-18T11:39:36.844Z</time>
</trkpt>
<trkpt lat="56.780542" lon="8.231270">
<ele>2.558625</ele>
<time>2026-06-18T11:39:48.044Z</time>
</trkpt>
<trkpt lat="56.781745" lon="8.231526">
<ele>2.817454</ele>
<time>2026-06-18T11:40:15.492Z</time>
</trkpt>
<trkpt lat="56.782343" lon="8.231653">
<ele>2.946687</ele>
<time>2026-06-18T11:40:29.512Z</time>
</trkpt>
<trkpt lat="56.782632" lon="8.231715">
<ele>3.012730</ele>
<time>2026-06-18T11:40:36.372Z</time>
</trkpt>
<trkpt lat="56.782828" lon="8.231763">
<ele>3.057613</ele>
<time>2026-06-18T11:40:41.080Z</time>
</trkpt>
<trkpt lat="56.783113" lon="8.231826">
<ele>3.122769</ele>
<time>2026-06-18T11:40:47.910Z</time>
</trkpt>
<trkpt lat="56.783203" lon="8.231840">
<ele>3.143269</ele>
<time>2026-06-18T11:40:50.005Z</time>
</trkpt>
<trkpt lat="56.784165" lon="8.232033">
<ele>3.342857</ele>
<time>2026-06-18T11:41:12.373Z</time>
</trkpt>
<trkpt lat="56.785328" lon="8.232311">
<ele>3.310116</ele>
<time>2026-06-18T11:41:38.466Z</time>
</trkpt>
<trkpt lat="56.786051" lon="8.232472">
<ele>3.247847</ele>
<time>2026-06-18T11:41:54.100Z</time>
</trkpt>
<trkpt lat="56.786681" lon="8.232579">
<ele>3.083875</ele>
<time>2026-06-18T11:42:07.480Z</time>
</trkpt>
<trkpt lat="56.787288" lon="8.232539">
<ele>2.926466</ele>
<time>2026-06-18T11:42:20.439Z</time>
</trkpt>
<trkpt lat="56.787466" lon="8.232560">
<ele>2.880240</ele>
<time>2026-06-18T11:42:24.244Z</time>
</trkpt>
<trkpt lat="56.787544" lon="8.232590">
<ele>2.859582</ele>
<time>2026-06-18T11:42:25.928Z</time>
</trkpt>
<trkpt lat="56.789462" lon="8.233317">
<ele>2.120430</ele>
<time>2026-06-18T11:43:06.672Z</time>
</trkpt>
<trkpt lat="56.790353" lon="8.233646">
<ele>1.846019</ele>
<time>2026-06-18T11:43:25.785Z</time>
</trkpt>
<trkpt lat="56.790458" lon="8.233685">
<ele>1.813674</ele>
<time>2026-06-18T11:43:28.074Z</time>
</trkpt>
<trkpt lat="56.790553" lon="8.233720">
<ele>1.784418</ele>
<time>2026-06-18T11:43:30.124Z</time>
</trkpt>
<trkpt lat="56.795022" lon="8.235402">
<ele>0.894345</ele>
<time>2026-06-18T11:45:08.673Z</time>
</trkpt>
<trkpt lat="56.797107" lon="8.236247">
<ele>0.534976</ele>
<time>2026-06-18T11:45:54.462Z</time>
</trkpt>
<trkpt lat="56.797160" lon="8.236268">
<ele>0.528431</ele>
<time>2026-06-18T11:45:55.586Z</time>
</trkpt>
<trkpt lat="56.797235" lon="8.236299">
<ele>0.519150</ele>
<time>2026-06-18T11:45:57.193Z</time>
</trkpt>
<trkpt lat="56.797329" lon="8.236337">
<ele>0.507530</ele>
<time>2026-06-18T11:45:59.192Z</time>
</trkpt>
<trkpt lat="56.798546" lon="8.236833">
<ele>0.573826</ele>
<time>2026-06-18T11:46:26.442Z</time>
</trkpt>
<trkpt lat="56.800598" lon="8.237648">
<ele>1.620646</ele>
<time>2026-06-18T11:47:19.458Z</time>
</trkpt>
<trkpt lat="56.800728" lon="8.237700">
<ele>1.677869</ele>
<time>2026-06-18T11:47:22.732Z</time>
</trkpt>
<trkpt lat="56.800838" lon="8.237743">
<ele>1.726238</ele>
<time>2026-06-18T11:47:25.489Z</time>
</trkpt>
<trkpt lat="56.803067" lon="8.238607">
<ele>2.042895</ele>
<time>2026-06-18T11:48:17.599Z</time>
</trkpt>
<trkpt lat="56.803236" lon="8.239246">
<ele>2.020650</ele>
<time>2026-06-18T11:48:26.508Z</time>
</trkpt>
<trkpt lat="56.803304" lon="8.239422">
<ele>1.985756</ele>
<time>2026-06-18T11:48:29.169Z</time>
</trkpt>
<trkpt lat="56.803563" lon="8.239942">
<ele>1.806352</ele>
<time>2026-06-18T11:48:37.792Z</time>
</trkpt>
<trkpt lat="56.803975" lon="8.240919">
<ele>1.491632</ele>
<time>2026-06-18T11:48:52.892Z</time>
</trkpt>
<trkpt lat="56.804439" lon="8.241709">
<ele>1.195957</ele>
<time>2026-06-18T11:49:07.848Z</time>
</trkpt>
<trkpt lat="56.804902" lon="8.242281">
<ele>1.176944</ele>
<time>2026-06-18T11:49:21.796Z</time>
</trkpt>
<trkpt lat="56.805332" lon="8.242757">
<ele>1.174535</ele>
<time>2026-06-18T11:49:34.605Z</time>
</trkpt>
<trkpt lat="56.805817" lon="8.243148">
<ele>1.171996</ele>
<time>2026-06-18T11:49:47.767Z</time>
</trkpt>
<trkpt lat="56.806028" lon="8.243485">
<ele>1.166476</ele>
<time>2026-06-18T11:49:54.628Z</time>
</trkpt>
<trkpt lat="56.806170" lon="8.243841">
<ele>1.138917</ele>
<time>2026-06-18T11:50:00.457Z</time>
</trkpt>
<trkpt lat="56.806348" lon="8.244416">
<ele>1.097588</ele>
<time>2026-06-18T11:50:09.117Z</time>
</trkpt>
<trkpt lat="56.806824" lon="8.245946">
<ele>0.987484</ele>
<time>2026-06-18T11:50:32.235Z</time>
</trkpt>
<trkpt lat="56.807288" lon="8.247292">
<ele>0.981639</ele>
<time>2026-06-18T11:50:53.983Z</time>
</trkpt>
<trkpt lat="56.807388" lon="8.247664">
<ele>0.987125</ele>
<time>2026-06-18T11:50:59.660Z</time>
</trkpt>
<trkpt lat="56.807456" lon="8.248077">
<ele>0.992835</ele>
<time>2026-06-18T11:51:05.564Z</time>
</trkpt>
<trkpt lat="56.807483" lon="8.248846">
<ele>1.003036</ele>
<time>2026-06-18T11:51:16.028Z</time>
</trkpt>
<trkpt lat="56.807554" lon="8.249372">
<ele>1.011589</ele>
<time>2026-06-18T11:51:23.318Z</time>
</trkpt>
<trkpt lat="56.808480" lon="8.253089">
<ele>1.382067</ele>
<time>2026-06-18T11:52:18.866Z</time>
</trkpt>
<trkpt lat="56.808598" lon="8.253553">
<ele>1.544546</ele>
<time>2026-06-18T11:52:26.251Z</time>
</trkpt>
<trkpt lat="56.809075" lon="8.255845">
<ele>2.526914</ele>
<time>2026-06-18T11:53:03.977Z</time>
</trkpt>
<trkpt lat="56.809168" lon="8.256193">
<ele>2.784791</ele>
<time>2026-06-18T11:53:10.338Z</time>
</trkpt>
<trkpt lat="56.809670" lon="8.257696">
<ele>3.957234</ele>
<time>2026-06-18T11:53:39.431Z</time>
</trkpt>
<trkpt lat="56.809780" lon="8.258016">
<ele>4.208852</ele>
<time>2026-06-18T11:53:45.690Z</time>
</trkpt>
<trkpt lat="56.809873" lon="8.257907">
<ele>4.340291</ele>
<time>2026-06-18T11:53:48.994Z</time>
</trkpt>
<trkpt lat="56.810041" lon="8.257839">
<ele>4.514556</ele>
<time>2026-06-18T11:53:54.146Z</time>
</trkpt>
<trkpt lat="56.810678" lon="8.257694">
<ele>5.164653</ele>
<time>2026-06-18T11:54:12.860Z</time>
</trkpt>
<trkpt lat="56.811003" lon="8.257684">
<ele>5.493837</ele>
<time>2026-06-18T11:54:21.972Z</time>
</trkpt>
<trkpt lat="56.812976" lon="8.258278">
<ele>7.358869</ele>
<time>2026-06-18T11:55:18.011Z</time>
</trkpt>
<trkpt lat="56.814022" lon="8.258809">
<ele>8.288687</ele>
<time>2026-06-18T11:55:49.296Z</time>
</trkpt>
<trkpt lat="56.814258" lon="8.258868">
<ele>8.486416</ele>
<time>2026-06-18T11:55:56.134Z</time>
</trkpt>
<trkpt lat="56.814638" lon="8.258826">
<ele>8.802431</ele>
<time>2026-06-18T11:56:06.877Z</time>
</trkpt>
<trkpt lat="56.814894" lon="8.258855">
<ele>9.015344</ele>
<time>2026-06-18T11:56:13.975Z</time>
</trkpt>
<trkpt lat="56.815114" lon="8.258933">
<ele>9.201373</ele>
<time>2026-06-18T11:56:20.110Z</time>
</trkpt>
<trkpt lat="56.815509" lon="8.259170">
<ele>9.413688</ele>
<time>2026-06-18T11:56:31.288Z</time>
</trkpt>
<trkpt lat="56.816322" lon="8.259241">
<ele>9.787562</ele>
<time>2026-06-18T11:56:52.528Z</time>
</trkpt>
<trkpt lat="56.816866" lon="8.259481">
<ele>10.044627</ele>
<time>2026-06-18T11:57:07.190Z</time>
</trkpt>
<trkpt lat="56.817157" lon="8.259624">
<ele>10.219787</ele>
<time>2026-06-18T11:57:15.226Z</time>
</trkpt>
<trkpt lat="56.818080" lon="8.260289">
<ele>10.831007</ele>
<time>2026-06-18T11:57:42.640Z</time>
</trkpt>
<trkpt lat="56.818452" lon="8.260796">
<ele>11.116908</ele>
<time>2026-06-18T11:57:55.305Z</time>
</trkpt>
<trkpt lat="56.818618" lon="8.260952">
<ele>11.223795</ele>
<time>2026-06-18T11:58:00.246Z</time>
</trkpt>
<trkpt lat="56.818820" lon="8.261050">
<ele>11.331024</ele>
<time>2026-06-18T11:58:05.766Z</time>
</trkpt>
<trkpt lat="56.819321" lon="8.261126">
<ele>11.588952</ele>
<time>2026-06-18T11:58:19.083Z</time>
</trkpt>
<trkpt lat="56.819701" lon="8.261392">
<ele>11.797732</ele>
<time>2026-06-18T11:58:29.792Z</time>
</trkpt>
<trkpt lat="56.820516" lon="8.262076">
<ele>12.335476</ele>
<time>2026-06-18T11:58:54.034Z</time>
</trkpt>
<trkpt lat="56.821669" lon="8.263043">
<ele>13.319417</ele>
<time>2026-06-18T11:59:31.338Z</time>
</trkpt>
<trkpt lat="56.821812" lon="8.263231">
<ele>13.456048</ele>
<time>2026-06-18T11:59:35.978Z</time>
</trkpt>
<trkpt lat="56.821838" lon="8.263414">
<ele>13.436788</ele>
<time>2026-06-18T11:59:38.615Z</time>
</trkpt>
<trkpt lat="56.821854" lon="8.263888">
<ele>13.066679</ele>
<time>2026-06-18T11:59:44.797Z</time>
</trkpt>
<trkpt lat="56.821952" lon="8.264157">
<ele>12.814830</ele>
<time>2026-06-18T11:59:48.772Z</time>
</trkpt>
<trkpt lat="56.821893" lon="8.264653">
<ele>12.419251</ele>
<time>2026-06-18T11:59:54.690Z</time>
</trkpt>
<trkpt lat="56.821780" lon="8.265168">
<ele>11.986831</ele>
<time>2026-06-18T12:00:00.841Z</time>
</trkpt>
<trkpt lat="56.821559" lon="8.265735">
<ele>11.444318</ele>
<time>2026-06-18T12:00:08.250Z</time>
</trkpt>
<trkpt lat="56.821180" lon="8.266573">
<ele>10.445298</ele>
<time>2026-06-18T12:00:19.537Z</time>
</trkpt>
<trkpt lat="56.821280" lon="8.266768">
<ele>10.144790</ele>
<time>2026-06-18T12:00:22.327Z</time>
</trkpt>
<trkpt lat="56.821301" lon="8.267009">
<ele>9.870372</ele>
<time>2026-06-18T12:00:24.901Z</time>
</trkpt>
<trkpt lat="56.821360" lon="8.267615">
<ele>9.178226</ele>
<time>2026-06-18T12:00:31.425Z</time>
</trkpt>
<trkpt lat="56.821290" lon="8.267683">
<ele>9.015328</ele>
<time>2026-06-18T12:00:32.978Z</time>
</trkpt>
<trkpt lat="56.821090" lon="8.267628">
<ele>8.599738</ele>
<time>2026-06-18T12:00:36.965Z</time>
</trkpt>
<trkpt lat="56.820951" lon="8.267697">
<ele>8.303768</ele>
<time>2026-06-18T12:00:39.840Z</time>
</trkpt>
<trkpt lat="56.820414" lon="8.268921">
<ele>7.000960</ele>
<time>2026-06-18T12:00:57.591Z</time>
</trkpt>
<trkpt lat="56.820231" lon="8.269234">
<ele>6.823298</ele>
<time>2026-06-18T12:01:02.993Z</time>
</trkpt>
<trkpt lat="56.819437" lon="8.271074">
<ele>5.950938</ele>
<time>2026-06-18T12:01:32.919Z</time>
</trkpt>
<trkpt lat="56.819407" lon="8.271410">
<ele>5.907211</ele>
<time>2026-06-18T12:01:37.405Z</time>
</trkpt>
<trkpt lat="56.819400" lon="8.271436">
<ele>5.903490</ele>
<time>2026-06-18T12:01:37.786Z</time>
</trkpt>
<trkpt lat="56.819373" lon="8.271554">
<ele>5.887062</ele>
<time>2026-06-18T12:01:39.474Z</time>
</trkpt>
<trkpt lat="56.819038" lon="8.272190">
<ele>5.773685</ele>
<time>2026-06-18T12:01:50.990Z</time>
</trkpt>
<trkpt lat="56.818928" lon="8.272642">
<ele>5.710148</ele>
<time>2026-06-18T12:01:57.399Z</time>
</trkpt>
<trkpt lat="56.818859" lon="8.272831">
<ele>5.680967</ele>
<time>2026-06-18T12:02:00.339Z</time>
</trkpt>
<trkpt lat="56.818851" lon="8.272936">
<ele>5.667351</ele>
<time>2026-06-18T12:02:01.707Z</time>
</trkpt>
<trkpt lat="56.818935" lon="8.273495">
<ele>5.592894</ele>
<time>2026-06-18T12:02:09.249Z</time>
</trkpt>
<trkpt lat="56.818929" lon="8.273908">
<ele>5.554993</ele>
<time>2026-06-18T12:02:14.699Z</time>
</trkpt>
<trkpt lat="56.818962" lon="8.274151">
<ele>5.591733</ele>
<time>2026-06-18T12:02:18.038Z</time>
</trkpt>
<trkpt lat="56.818924" lon="8.274832">
<ele>5.692184</ele>
<time>2026-06-18T12:02:27.359Z</time>
</trkpt>
<trkpt lat="56.818903" lon="8.274950">
<ele>5.710392</ele>
<time>2026-06-18T12:02:29.079Z</time>
</trkpt>
<trkpt lat="56.818789" lon="8.275198">
<ele>5.757919</ele>
<time>2026-06-18T12:02:33.586Z</time>
</trkpt>
<trkpt lat="56.820697" lon="8.278108">
<ele>6.804933</ele>
<time>2026-06-18T12:03:39.958Z</time>
</trkpt>
<trkpt lat="56.820777" lon="8.278232">
<ele>6.860158</ele>
<time>2026-06-18T12:03:42.829Z</time>
</trkpt>
<trkpt lat="56.821971" lon="8.280053">
<ele>7.750286</ele>
<time>2026-06-18T12:04:24.911Z</time>
</trkpt>
<trkpt lat="56.821992" lon="8.280112">
<ele>7.772622</ele>
<time>2026-06-18T12:04:25.943Z</time>
</trkpt>
<trkpt lat="56.822040" lon="8.280245">
<ele>7.823183</ele>
<time>2026-06-18T12:04:28.296Z</time>
</trkpt>
<trkpt lat="56.822445" lon="8.282589">
<ele>8.412165</ele>
<time>2026-06-18T12:05:04.584Z</time>
</trkpt>
<trkpt lat="56.822497" lon="8.282765">
<ele>8.454876</ele>
<time>2026-06-18T12:05:07.455Z</time>
</trkpt>
<trkpt lat="56.823727" lon="8.284901">
<ele>8.973234</ele>
<time>2026-06-18T12:05:50.497Z</time>
</trkpt>
<trkpt lat="56.824549" lon="8.285907">
<ele>9.260344</ele>
<time>2026-06-18T12:06:16.246Z</time>
</trkpt>
<trkpt lat="56.824981" lon="8.286578">
<ele>9.514879</ele>
<time>2026-06-18T12:06:31.348Z</time>
</trkpt>
<trkpt lat="56.826372" lon="8.288475">
<ele>10.247336</ele>
<time>2026-06-18T12:07:17.435Z</time>
</trkpt>
<trkpt lat="56.826452" lon="8.288640">
<ele>10.293545</ele>
<time>2026-06-18T12:07:20.603Z</time>
</trkpt>
<trkpt lat="56.826515" lon="8.288866">
<ele>10.346710</ele>
<time>2026-06-18T12:07:24.237Z</time>
</trkpt>
<trkpt lat="56.826761" lon="8.290495">
<ele>10.693056</ele>
<time>2026-06-18T12:07:48.332Z</time>
</trkpt>
<trkpt lat="56.827975" lon="8.298204">
<ele>12.035319</ele>
<time>2026-06-18T12:09:41.962Z</time>
</trkpt>
<trkpt lat="56.826765" lon="8.299046">
<ele>12.495192</ele>
<time>2026-06-18T12:10:15.779Z</time>
</trkpt>
<trkpt lat="56.826373" lon="8.299319">
<ele>12.663354</ele>
<time>2026-06-18T12:10:26.791Z</time>
</trkpt>
<trkpt lat="56.826350" lon="8.299736">
<ele>12.755284</ele>
<time>2026-06-18T12:10:32.775Z</time>
</trkpt>
<trkpt lat="56.826064" lon="8.301979">
<ele>13.179866</ele>
<time>2026-06-18T12:11:06.436Z</time>
</trkpt>
<trkpt lat="56.825985" lon="8.304154">
<ele>13.463215</ele>
<time>2026-06-18T12:11:37.934Z</time>
</trkpt>
<trkpt lat="56.825943" lon="8.304677">
<ele>13.251917</ele>
<time>2026-06-18T12:11:44.602Z</time>
</trkpt>
<trkpt lat="56.825936" lon="8.305444">
<ele>12.686988</ele>
<time>2026-06-18T12:11:53.595Z</time>
</trkpt>
<trkpt lat="56.825975" lon="8.307119">
<ele>11.452334</ele>
<time>2026-06-18T12:12:12.007Z</time>
</trkpt>
<trkpt lat="56.825941" lon="8.307291">
<ele>11.317654</ele>
<time>2026-06-18T12:12:13.988Z</time>
</trkpt>
<trkpt lat="56.825569" lon="8.308201">
<ele>10.765716</ele>
<time>2026-06-18T12:12:26.600Z</time>
</trkpt>
<trkpt lat="56.825385" lon="8.308635">
<ele>10.557067</ele>
<time>2026-06-18T12:12:33.069Z</time>
</trkpt>
<trkpt lat="56.825261" lon="8.308740">
<ele>10.462151</ele>
<time>2026-06-18T12:12:36.142Z</time>
</trkpt>
<trkpt lat="56.824596" lon="8.309025">
<ele>9.987764</ele>
<time>2026-06-18T12:12:52.602Z</time>
</trkpt>
<trkpt lat="56.823839" lon="8.309060">
<ele>9.699743</ele>
<time>2026-06-18T12:13:11.808Z</time>
</trkpt>
<trkpt lat="56.823215" lon="8.309072">
<ele>9.554239</ele>
<time>2026-06-18T12:13:27.456Z</time>
</trkpt>
<trkpt lat="56.823118" lon="8.309107">
<ele>9.531185</ele>
<time>2026-06-18T12:13:29.815Z</time>
</trkpt>
<trkpt lat="56.823046" lon="8.309183">
<ele>9.511798</ele>
<time>2026-06-18T12:13:31.799Z</time>
</trkpt>
<trkpt lat="56.821818" lon="8.311004">
<ele>8.561490</ele>
<time>2026-06-18T12:14:06.365Z</time>
</trkpt>
<trkpt lat="56.821253" lon="8.312048">
<ele>8.075654</ele>
<time>2026-06-18T12:14:24.172Z</time>
</trkpt>
<trkpt lat="56.820608" lon="8.311059">
<ele>8.394855</ele>
<time>2026-06-18T12:14:45.528Z</time>
</trkpt>
<trkpt lat="56.820454" lon="8.310866">
<ele>8.465648</ele>
<time>2026-06-18T12:14:50.750Z</time>
</trkpt>
<trkpt lat="56.820275" lon="8.310786">
<ele>8.535507</ele>
<time>2026-06-18T12:14:56.111Z</time>
</trkpt>
<trkpt lat="56.820115" lon="8.310636">
<ele>8.603680</ele>
<time>2026-06-18T12:15:01.334Z</time>
</trkpt>
<trkpt lat="56.819953" lon="8.310588">
<ele>8.665896</ele>
<time>2026-06-18T12:15:06.008Z</time>
</trkpt>
<trkpt lat="56.819523" lon="8.310556">
<ele>8.783486</ele>
<time>2026-06-18T12:15:18.212Z</time>
</trkpt>
<trkpt lat="56.819386" lon="8.310509">
<ele>8.815026</ele>
<time>2026-06-18T12:15:22.150Z</time>
</trkpt>
<trkpt lat="56.819305" lon="8.310440">
<ele>8.835247</ele>
<time>2026-06-18T12:15:24.700Z</time>
</trkpt>
<trkpt lat="56.819130" lon="8.310200">
<ele>8.884755</ele>
<time>2026-06-18T12:15:30.791Z</time>
</trkpt>
<trkpt lat="56.819064" lon="8.310052">
<ele>8.908396</ele>
<time>2026-06-18T12:15:33.624Z</time>
</trkpt>
<trkpt lat="56.819019" lon="8.309889">
<ele>8.931003</ele>
<time>2026-06-18T12:15:36.310Z</time>
</trkpt>
<trkpt lat="56.818172" lon="8.311075">
<ele>8.777362</ele>
<time>2026-06-18T12:16:01.618Z</time>
</trkpt>
<trkpt lat="56.817818" lon="8.311459">
<ele>8.126171</ele>
<time>2026-06-18T12:16:10.342Z</time>
</trkpt>
<trkpt lat="56.816343" lon="8.312966">
<ele>5.323760</ele>
<time>2026-06-18T12:16:43.663Z</time>
</trkpt>
<trkpt lat="56.816170" lon="8.313080">
<ele>4.987263</ele>
<time>2026-06-18T12:16:47.311Z</time>
</trkpt>
<trkpt lat="56.815573" lon="8.312898">
<ele>3.879827</ele>
<time>2026-06-18T12:16:59.328Z</time>
</trkpt>
<trkpt lat="56.815212" lon="8.312803">
<ele>3.212487</ele>
<time>2026-06-18T12:17:06.809Z</time>
</trkpt>
<trkpt lat="56.814747" lon="8.312760">
<ele>2.758866</ele>
<time>2026-06-18T12:17:16.663Z</time>
</trkpt>
<trkpt lat="56.814350" lon="8.315757">
<ele>1.867335</ele>
<time>2026-06-18T12:17:51.462Z</time>
</trkpt>
<trkpt lat="56.814199" lon="8.316870">
<ele>2.081079</ele>
<time>2026-06-18T12:18:05.921Z</time>
</trkpt>
<trkpt lat="56.814176" lon="8.317600">
<ele>2.217379</ele>
<time>2026-06-18T12:18:15.670Z</time>
</trkpt>
<trkpt lat="56.814248" lon="8.318292">
<ele>2.348679</ele>
<time>2026-06-18T12:18:25.302Z</time>
</trkpt>
<trkpt lat="56.814441" lon="8.319259">
<ele>2.838423</ele>
<time>2026-06-18T12:18:39.655Z</time>
</trkpt>
<trkpt lat="56.814782" lon="8.320931">
<ele>3.881226</ele>
<time>2026-06-18T12:19:05.788Z</time>
</trkpt>
<trkpt lat="56.814820" lon="8.321381">
<ele>4.147331</ele>
<time>2026-06-18T12:19:12.573Z</time>
</trkpt>
<trkpt lat="56.814581" lon="8.323351">
<ele>5.295592</ele>
<time>2026-06-18T12:19:42.740Z</time>
</trkpt>
<trkpt lat="56.814000" lon="8.327577">
<ele>7.180811</ele>
<time>2026-06-18T12:20:43.459Z</time>
</trkpt>
<trkpt lat="56.813924" lon="8.328125">
<ele>7.371104</ele>
<time>2026-06-18T12:20:50.580Z</time>
</trkpt>
<trkpt lat="56.813912" lon="8.328450">
<ele>7.432503</ele>
<time>2026-06-18T12:20:54.609Z</time>
</trkpt>
<trkpt lat="56.813938" lon="8.328744">
<ele>7.488638</ele>
<time>2026-06-18T12:20:58.221Z</time>
</trkpt>
<trkpt lat="56.814012" lon="8.329059">
<ele>7.553251</ele>
<time>2026-06-18T12:21:02.295Z</time>
</trkpt>
<trkpt lat="56.814156" lon="8.329422">
<ele>7.637753</ele>
<time>2026-06-18T12:21:07.610Z</time>
</trkpt>
<trkpt lat="56.814417" lon="8.330077">
<ele>7.790465</ele>
<time>2026-06-18T12:21:17.580Z</time>
</trkpt>
<trkpt lat="56.814601" lon="8.330822">
<ele>7.944524</ele>
<time>2026-06-18T12:21:28.545Z</time>
</trkpt>
<trkpt lat="56.815317" lon="8.333854">
<ele>10.022777</ele>
<time>2026-06-18T12:22:18.053Z</time>
</trkpt>
<trkpt lat="56.815384" lon="8.334135">
<ele>10.201921</ele>
<time>2026-06-18T12:22:22.799Z</time>
</trkpt>
<trkpt lat="56.815939" lon="8.336526">
<ele>11.528944</ele>
<time>2026-06-18T12:23:00.957Z</time>
</trkpt>
<trkpt lat="56.816018" lon="8.336719">
<ele>11.652085</ele>
<time>2026-06-18T12:23:04.185Z</time>
</trkpt>
<trkpt lat="56.816146" lon="8.336843">
<ele>11.787336</ele>
<time>2026-06-18T12:23:07.675Z</time>
</trkpt>
<trkpt lat="56.817972" lon="8.337781">
<ele>10.979367</ele>
<time>2026-06-18T12:23:47.150Z</time>
</trkpt>
<trkpt lat="56.818159" lon="8.337876">
<ele>10.697053</ele>
<time>2026-06-18T12:23:50.713Z</time>
</trkpt>
<trkpt lat="56.819225" lon="8.338412">
<ele>9.088895</ele>
<time>2026-06-18T12:24:10.543Z</time>
</trkpt>
<trkpt lat="56.820297" lon="8.339026">
<ele>7.855436</ele>
<time>2026-06-18T12:24:31.429Z</time>
</trkpt>
<trkpt lat="56.820468" lon="8.339166">
<ele>7.689550</ele>
<time>2026-06-18T12:24:35.168Z</time>
</trkpt>
<trkpt lat="56.821228" lon="8.339978">
<ele>6.910158</ele>
<time>2026-06-18T12:24:52.921Z</time>
</trkpt>
<trkpt lat="56.821933" lon="8.340668">
<ele>6.903024</ele>
<time>2026-06-18T12:25:09.767Z</time>
</trkpt>
<trkpt lat="56.822662" lon="8.341199">
<ele>6.920178</ele>
<time>2026-06-18T12:25:27.645Z</time>
</trkpt>
<trkpt lat="56.823791" lon="8.341950">
<ele>7.519265</ele>
<time>2026-06-18T12:25:57.549Z</time>
</trkpt>
<trkpt lat="56.825196" lon="8.343190">
<ele>8.477285</ele>
<time>2026-06-18T12:26:36.247Z</time>
</trkpt>
<trkpt lat="56.826155" lon="8.343803">
<ele>9.095910</ele>
<time>2026-06-18T12:27:01.756Z</time>
</trkpt>
<trkpt lat="56.826657" lon="8.344274">
<ele>9.151261</ele>
<time>2026-06-18T12:27:15.064Z</time>
</trkpt>
<trkpt lat="56.827171" lon="8.344679">
<ele>9.171625</ele>
<time>2026-06-18T12:27:27.207Z</time>
</trkpt>
<trkpt lat="56.827608" lon="8.344985">
<ele>9.188650</ele>
<time>2026-06-18T12:27:37.064Z</time>
</trkpt>
<trkpt lat="56.827880" lon="8.345170">
<ele>9.204758</ele>
<time>2026-06-18T12:27:43.313Z</time>
</trkpt>
<trkpt lat="56.828093" lon="8.345245">
<ele>9.265532</ele>
<time>2026-06-18T12:27:48.004Z</time>
</trkpt>
<trkpt lat="56.829236" lon="8.345318">
<ele>9.585961</ele>
<time>2026-06-18T12:28:14.836Z</time>
</trkpt>
<trkpt lat="56.830435" lon="8.345399">
<ele>9.831891</ele>
<time>2026-06-18T12:28:44.610Z</time>
</trkpt>
<trkpt lat="56.830675" lon="8.345447">
<ele>9.871769</ele>
<time>2026-06-18T12:28:50.386Z</time>
</trkpt>
<trkpt lat="56.832203" lon="8.346057">
<ele>9.707722</ele>
<time>2026-06-18T12:29:23.172Z</time>
</trkpt>
<trkpt lat="56.832366" lon="8.346158">
<ele>9.644288</ele>
<time>2026-06-18T12:29:26.620Z</time>
</trkpt>
<trkpt lat="56.832483" lon="8.346350">
<ele>9.586338</ele>
<time>2026-06-18T12:29:29.793Z</time>
</trkpt>
<trkpt lat="56.832768" lon="8.346953">
<ele>9.425661</ele>
<time>2026-06-18T12:29:38.751Z</time>
</trkpt>
<trkpt lat="56.833249" lon="8.347980">
<ele>9.479980</ele>
<time>2026-06-18T12:29:54.832Z</time>
</trkpt>
<trkpt lat="56.833823" lon="8.349529">
<ele>9.775132</ele>
<time>2026-06-18T12:30:19.693Z</time>
</trkpt>
<trkpt lat="56.833922" lon="8.349712">
<ele>9.815734</ele>
<time>2026-06-18T12:30:23.164Z</time>
</trkpt>
<trkpt lat="56.834131" lon="8.349953">
<ele>9.902988</ele>
<time>2026-06-18T12:30:29.189Z</time>
</trkpt>
<trkpt lat="56.834233" lon="8.350037">
<ele>9.951455</ele>
<time>2026-06-18T12:30:31.928Z</time>
</trkpt>
<trkpt lat="56.835666" lon="8.351463">
<ele>10.649420</ele>
<time>2026-06-18T12:31:10.996Z</time>
</trkpt>
<trkpt lat="56.836478" lon="8.352255">
<ele>10.900216</ele>
<time>2026-06-18T12:31:32.371Z</time>
</trkpt>
<trkpt lat="56.837230" lon="8.353261">
<ele>11.189063</ele>
<time>2026-06-18T12:31:53.899Z</time>
</trkpt>
<trkpt lat="56.838145" lon="8.354086">
<ele>11.794543</ele>
<time>2026-06-18T12:32:18.333Z</time>
</trkpt>
<trkpt lat="56.839044" lon="8.355013">
<ele>12.514783</ele>
<time>2026-06-18T12:32:44.881Z</time>
</trkpt>
<trkpt lat="56.840396" lon="8.356403">
<ele>13.903814</ele>
<time>2026-06-18T12:33:25.015Z</time>
</trkpt>
<trkpt lat="56.840786" lon="8.356866">
<ele>14.349069</ele>
<time>2026-06-18T12:33:36.966Z</time>
</trkpt>
<trkpt lat="56.841438" lon="8.357644">
<ele>15.094573</ele>
<time>2026-06-18T12:33:57.689Z</time>
</trkpt>
<trkpt lat="56.841721" lon="8.357916">
<ele>15.400712</ele>
<time>2026-06-18T12:34:06.216Z</time>
</trkpt>
<trkpt lat="56.841896" lon="8.358101">
<ele>15.517139</ele>
<time>2026-06-18T12:34:11.707Z</time>
</trkpt>
<trkpt lat="56.842137" lon="8.358413">
<ele>15.521496</ele>
<time>2026-06-18T12:34:19.246Z</time>
</trkpt>
<trkpt lat="56.842604" lon="8.359241">
<ele>15.531093</ele>
<time>2026-06-18T12:34:33.788Z</time>
</trkpt>
<trkpt lat="56.842675" lon="8.359370">
<ele>15.532569</ele>
<time>2026-06-18T12:34:35.898Z</time>
</trkpt>
<trkpt lat="56.842733" lon="8.359475">
<ele>15.533774</ele>
<time>2026-06-18T12:34:37.540Z</time>
</trkpt>
<trkpt lat="56.843156" lon="8.360227">
<ele>15.542568</ele>
<time>2026-06-18T12:34:49.418Z</time>
</trkpt>
<trkpt lat="56.843454" lon="8.360697">
<ele>15.598440</ele>
<time>2026-06-18T12:34:57.318Z</time>
</trkpt>
<trkpt lat="56.844197" lon="8.361755">
<ele>15.732138</ele>
<time>2026-06-18T12:35:18.967Z</time>
</trkpt>
<trkpt lat="56.844566" lon="8.362280">
<ele>15.798548</ele>
<time>2026-06-18T12:35:30.790Z</time>
</trkpt>
<trkpt lat="56.844886" lon="8.362738">
<ele>15.858949</ele>
<time>2026-06-18T12:35:41.206Z</time>
</trkpt>
<trkpt lat="56.845293" lon="8.363137">
<ele>15.927588</ele>
<time>2026-06-18T12:35:52.456Z</time>
</trkpt>
<trkpt lat="56.845398" lon="8.363236">
<ele>15.945147</ele>
<time>2026-06-18T12:35:55.059Z</time>
</trkpt>
<trkpt lat="56.845825" lon="8.363620">
<ele>16.015872</ele>
<time>2026-06-18T12:36:05.146Z</time>
</trkpt>
<trkpt lat="56.846380" lon="8.364071">
<ele>15.921050</ele>
<time>2026-06-18T12:36:17.789Z</time>
</trkpt>
<trkpt lat="56.847121" lon="8.364571">
<ele>15.508329</ele>
<time>2026-06-18T12:36:33.781Z</time>
</trkpt>
<trkpt lat="56.847313" lon="8.364636">
<ele>15.406297</ele>
<time>2026-06-18T12:36:37.728Z</time>
</trkpt>
<trkpt lat="56.847507" lon="8.364621">
<ele>15.304834</ele>
<time>2026-06-18T12:36:41.725Z</time>
</trkpt>
<trkpt lat="56.848399" lon="8.364343">
<ele>15.232530</ele>
<time>2026-06-18T12:37:00.171Z</time>
</trkpt>
<trkpt lat="56.848738" lon="8.364300">
<ele>15.297453</ele>
<time>2026-06-18T12:37:07.726Z</time>
</trkpt>
<trkpt lat="56.849136" lon="8.364338">
<ele>15.373596</ele>
<time>2026-06-18T12:37:16.961Z</time>
</trkpt>
<trkpt lat="56.849743" lon="8.364428">
<ele>15.612525</ele>
<time>2026-06-18T12:37:32.704Z</time>
</trkpt>
<trkpt lat="56.850300" lon="8.364453">
<ele>16.339977</ele>
<time>2026-06-18T12:37:48.543Z</time>
</trkpt>
<trkpt lat="56.850812" lon="8.364410">
<ele>17.009162</ele>
<time>2026-06-18T12:38:02.967Z</time>
</trkpt>
<trkpt lat="56.851251" lon="8.364379">
<ele>17.582758</ele>
<time>2026-06-18T12:38:15.332Z</time>
</trkpt>
<trkpt lat="56.851509" lon="8.364446">
<ele>17.869776</ele>
<time>2026-06-18T12:38:22.544Z</time>
</trkpt>
<trkpt lat="56.851576" lon="8.364499">
<ele>17.917104</ele>
<time>2026-06-18T12:38:24.581Z</time>
</trkpt>
<trkpt lat="56.852172" lon="8.364891">
<ele>18.327745</ele>
<time>2026-06-18T12:38:40.362Z</time>
</trkpt>
<trkpt lat="56.852440" lon="8.365059">
<ele>18.511424</ele>
<time>2026-06-18T12:38:47.125Z</time>
</trkpt>
<trkpt lat="56.852536" lon="8.365114">
<ele>18.576648</ele>
<time>2026-06-18T12:38:49.598Z</time>
</trkpt>
<trkpt lat="56.852686" lon="8.365198">
<ele>18.678356</ele>
<time>2026-06-18T12:38:53.544Z</time>
</trkpt>
<trkpt lat="56.853137" lon="8.365423">
<ele>18.981441</ele>
<time>2026-06-18T12:39:04.857Z</time>
</trkpt>
<trkpt lat="56.853245" lon="8.365331">
<ele>18.953701</ele>
<time>2026-06-18T12:39:07.581Z</time>
</trkpt>
<trkpt lat="56.853309" lon="8.365206">
<ele>18.929731</ele>
<time>2026-06-18T12:39:09.662Z</time>
</trkpt>
<trkpt lat="56.853435" lon="8.364117">
<ele>18.773921</ele>
<time>2026-06-18T12:39:23.070Z</time>
</trkpt>
<trkpt lat="56.853980" lon="8.358930">
<ele>17.739963</ele>
<time>2026-06-18T12:40:21.694Z</time>
</trkpt>
<trkpt lat="56.854120" lon="8.358075">
<ele>18.260833</ele>
<time>2026-06-18T12:40:33.118Z</time>
</trkpt>
<trkpt lat="56.854145" lon="8.357938">
<ele>18.345121</ele>
<time>2026-06-18T12:40:35.121Z</time>
</trkpt>
<trkpt lat="56.854178" lon="8.357759">
<ele>18.455363</ele>
<time>2026-06-18T12:40:37.769Z</time>
</trkpt>
<trkpt lat="56.854327" lon="8.357830">
<ele>18.619707</ele>
<time>2026-06-18T12:40:42.233Z</time>
</trkpt>
<trkpt lat="56.855539" lon="8.358844">
<ele>20.209850</ele>
<time>2026-06-18T12:41:25.716Z</time>
</trkpt>
<trkpt lat="56.855704" lon="8.358964">
<ele>20.463035</ele>
<time>2026-06-18T12:41:31.586Z</time>
</trkpt>
<trkpt lat="56.855838" lon="8.358981">
<ele>20.654559</ele>
<time>2026-06-18T12:41:35.934Z</time>
</trkpt>
<trkpt lat="56.856084" lon="8.358936">
<ele>21.007071</ele>
<time>2026-06-18T12:41:43.806Z</time>
</trkpt>
<trkpt lat="56.856216" lon="8.359058">
<ele>21.217951</ele>
<time>2026-06-18T12:41:48.498Z</time>
</trkpt>
<trkpt lat="56.856904" lon="8.359972">
<ele>21.943537</ele>
<time>2026-06-18T12:42:12.451Z</time>
</trkpt>
<trkpt lat="56.857198" lon="8.360302">
<ele>21.692849</ele>
<time>2026-06-18T12:42:20.295Z</time>
</trkpt>
<trkpt lat="56.857348" lon="8.360428">
<ele>21.572890</ele>
<time>2026-06-18T12:42:23.873Z</time>
</trkpt>
<trkpt lat="56.857727" lon="8.360634">
<ele>21.285549</ele>
<time>2026-06-18T12:42:32.210Z</time>
</trkpt>
<trkpt lat="56.857948" lon="8.360812">
<ele>21.110057</ele>
<time>2026-06-18T12:42:37.295Z</time>
</trkpt>
<trkpt lat="56.858368" lon="8.361349">
<ele>20.771035</ele>
<time>2026-06-18T12:42:47.846Z</time>
</trkpt>
<trkpt lat="56.858544" lon="8.361679">
<ele>20.684782</ele>
<time>2026-06-18T12:42:53.125Z</time>
</trkpt>
<trkpt lat="56.859304" lon="8.363541">
<ele>20.250039</ele>
<time>2026-06-18T12:43:23.916Z</time>
</trkpt>
<trkpt lat="56.859662" lon="8.364407">
<ele>20.339482</ele>
<time>2026-06-18T12:43:39.317Z</time>
</trkpt>
<trkpt lat="56.860586" lon="8.366755">
<ele>20.954604</ele>
<time>2026-06-18T12:44:20.907Z</time>
</trkpt>
<trkpt lat="56.860762" lon="8.367306">
<ele>21.109143</ele>
<time>2026-06-18T12:44:30.832Z</time>
</trkpt>
<trkpt lat="56.861004" lon="8.367898">
<ele>21.288150</ele>
<time>2026-06-18T12:44:42.242Z</time>
</trkpt>
<trkpt lat="56.861120" lon="8.368113">
<ele>21.361301</ele>
<time>2026-06-18T12:44:46.807Z</time>
</trkpt>
<trkpt lat="56.861230" lon="8.368224">
<ele>21.416950</ele>
<time>2026-06-18T12:44:50.225Z</time>
</trkpt>
<trkpt lat="56.861389" lon="8.368260">
<ele>21.487920</ele>
<time>2026-06-18T12:44:54.489Z</time>
</trkpt>
<trkpt lat="56.861757" lon="8.368232">
<ele>21.651075</ele>
<time>2026-06-18T12:45:03.603Z</time>
</trkpt>
<trkpt lat="56.861808" lon="8.368181">
<ele>21.665758</ele>
<time>2026-06-18T12:45:04.986Z</time>
</trkpt>
<trkpt lat="56.861946" lon="8.367776">
<ele>21.628295</ele>
<time>2026-06-18T12:45:11.094Z</time>
</trkpt>
<trkpt lat="56.862170" lon="8.367289">
<ele>21.578334</ele>
<time>2026-06-18T12:45:19.065Z</time>
</trkpt>
<trkpt lat="56.862287" lon="8.367220">
<ele>21.560682</ele>
<time>2026-06-18T12:45:21.846Z</time>
</trkpt>
<trkpt lat="56.862471" lon="8.367216">
<ele>21.534258</ele>
<time>2026-06-18T12:45:26.069Z</time>
</trkpt>
<trkpt lat="56.862566" lon="8.367238">
<ele>21.520507</ele>
<time>2026-06-18T12:45:28.289Z</time>
</trkpt>
<trkpt lat="56.862709" lon="8.367355">
<ele>21.498012</ele>
<time>2026-06-18T12:45:31.977Z</time>
</trkpt>
<trkpt lat="56.862781" lon="8.367481">
<ele>21.483704</ele>
<time>2026-06-18T12:45:34.361Z</time>
</trkpt>
<trkpt lat="56.863031" lon="8.368135">
<ele>21.421060</ele>
<time>2026-06-18T12:45:45.199Z</time>
</trkpt>
<trkpt lat="56.863301" lon="8.368923">
<ele>21.516682</ele>
<time>2026-06-18T12:45:58.813Z</time>
</trkpt>
<trkpt lat="56.863464" lon="8.369695">
<ele>21.628042</ele>
<time>2026-06-18T12:46:10.987Z</time>
</trkpt>
<trkpt lat="56.863482" lon="8.370007">
<ele>21.670258</ele>
<time>2026-06-18T12:46:15.497Z</time>
</trkpt>
<trkpt lat="56.863454" lon="8.370627">
<ele>21.753969</ele>
<time>2026-06-18T12:46:24.208Z</time>
</trkpt>
<trkpt lat="56.863474" lon="8.371094">
<ele>21.817001</ele>
<time>2026-06-18T12:46:30.542Z</time>
</trkpt>
<trkpt lat="56.863524" lon="8.371531">
<ele>21.851528</ele>
<time>2026-06-18T12:46:36.477Z</time>
</trkpt>
<trkpt lat="56.863614" lon="8.371870">
<ele>21.848568</ele>
<time>2026-06-18T12:46:41.443Z</time>
</trkpt>
<trkpt lat="56.863709" lon="8.372087">
<ele>21.846384</ele>
<time>2026-06-18T12:46:45.096Z</time>
</trkpt>
<trkpt lat="56.863868" lon="8.372292">
<ele>21.843589</ele>
<time>2026-06-18T12:46:49.820Z</time>
</trkpt>
<trkpt lat="56.864188" lon="8.372602">
<ele>21.838387</ele>
<time>2026-06-18T12:46:58.742Z</time>
</trkpt>
<trkpt lat="56.864666" lon="8.372868">
<ele>21.831208</ele>
<time>2026-06-18T12:47:11.216Z</time>
</trkpt>
<trkpt lat="56.864831" lon="8.373044">
<ele>21.828464</ele>
<time>2026-06-18T12:47:15.996Z</time>
</trkpt>
<trkpt lat="56.864982" lon="8.373288">
<ele>21.795979</ele>
<time>2026-06-18T12:47:21.019Z</time>
</trkpt>
<trkpt lat="56.865161" lon="8.373101">
<ele>21.735539</ele>
<time>2026-06-18T12:47:26.141Z</time>
</trkpt>
<trkpt lat="56.866052" lon="8.371790">
<ele>21.400279</ele>
<time>2026-06-18T12:47:52.975Z</time>
</trkpt>
<trkpt lat="56.866408" lon="8.371364">
<ele>21.275745</ele>
<time>2026-06-18T12:48:02.676Z</time>
</trkpt>
<trkpt lat="56.866577" lon="8.371065">
<ele>21.207364</ele>
<time>2026-06-18T12:48:08.144Z</time>
</trkpt>
<trkpt lat="56.866932" lon="8.370552">
<ele>21.075784</ele>
<time>2026-06-18T12:48:18.893Z</time>
</trkpt>
<trkpt lat="56.867591" lon="8.369802">
<ele>20.850047</ele>
<time>2026-06-18T12:48:37.795Z</time>
</trkpt>
<trkpt lat="56.867699" lon="8.369744">
<ele>20.817309</ele>
<time>2026-06-18T12:48:40.475Z</time>
</trkpt>
<trkpt lat="56.867826" lon="8.369780">
<ele>20.779929</ele>
<time>2026-06-18T12:48:43.449Z</time>
</trkpt>
<trkpt lat="56.868037" lon="8.370074">
<ele>20.551023</ele>
<time>2026-06-18T12:48:49.507Z</time>
</trkpt>
<trkpt lat="56.868132" lon="8.370133">
<ele>20.461814</ele>
<time>2026-06-18T12:48:51.760Z</time>
</trkpt>
<trkpt lat="56.868441" lon="8.370057">
<ele>20.184574</ele>
<time>2026-06-18T12:48:58.687Z</time>
</trkpt>
<trkpt lat="56.868580" lon="8.369938">
<ele>20.048111</ele>
<time>2026-06-18T12:49:02.061Z</time>
</trkpt>
<trkpt lat="56.868704" lon="8.369767">
<ele>19.910036</ele>
<time>2026-06-18T12:49:05.449Z</time>
</trkpt>
<trkpt lat="56.868770" lon="8.369855">
<ele>19.837417</ele>
<time>2026-06-18T12:49:07.187Z</time>
</trkpt>
<trkpt lat="56.868870" lon="8.370670">
<ele>19.431462</ele>
<time>2026-06-18T12:49:16.890Z</time>
</trkpt>
<trkpt lat="56.868980" lon="8.371117">
<ele>19.193213</ele>
<time>2026-06-18T12:49:22.569Z</time>
</trkpt>
<trkpt lat="56.869207" lon="8.371849">
<ele>18.909810</ele>
<time>2026-06-18T12:49:32.435Z</time>
</trkpt>
<trkpt lat="56.869275" lon="8.371950">
<ele>18.856824</ele>
<time>2026-06-18T12:49:34.348Z</time>
</trkpt>
<trkpt lat="56.869354" lon="8.372009">
<ele>18.805204</ele>
<time>2026-06-18T12:49:36.239Z</time>
</trkpt>
<trkpt lat="56.870066" lon="8.372259">
<ele>18.366611</ele>
<time>2026-06-18T12:49:52.515Z</time>
</trkpt>
<trkpt lat="56.870711" lon="8.372300">
<ele>18.167144</ele>
<time>2026-06-18T12:50:08.537Z</time>
</trkpt>
<trkpt lat="56.871070" lon="8.372399">
<ele>18.319049</ele>
<time>2026-06-18T12:50:17.990Z</time>
</trkpt>
<trkpt lat="56.871363" lon="8.372538">
<ele>18.445697</ele>
<time>2026-06-18T12:50:26.045Z</time>
</trkpt>
<trkpt lat="56.871587" lon="8.372556">
<ele>18.539511</ele>
<time>2026-06-18T12:50:32.127Z</time>
</trkpt>
<trkpt lat="56.871698" lon="8.372487">
<ele>18.588561</ele>
<time>2026-06-18T12:50:35.347Z</time>
</trkpt>
<trkpt lat="56.872429" lon="8.371343">
<ele>19.085376</ele>
<time>2026-06-18T12:51:01.434Z</time>
</trkpt>
<trkpt lat="56.872633" lon="8.371166">
<ele>19.239500</ele>
<time>2026-06-18T12:51:07.313Z</time>
</trkpt>
<trkpt lat="56.873261" lon="8.370910">
<ele>19.678715</ele>
<time>2026-06-18T12:51:24.580Z</time>
</trkpt>
<trkpt lat="56.873711" lon="8.370899">
<ele>19.985937</ele>
<time>2026-06-18T12:51:37.330Z</time>
</trkpt>
<trkpt lat="56.874032" lon="8.371003">
<ele>20.188368</ele>
<time>2026-06-18T12:51:46.865Z</time>
</trkpt>
<trkpt lat="56.874838" lon="8.371732">
<ele>20.713335</ele>
<time>2026-06-18T12:52:12.348Z</time>
</trkpt>
<trkpt lat="56.874965" lon="8.371575">
<ele>20.802825</ele>
<time>2026-06-18T12:52:16.472Z</time>
</trkpt>
<trkpt lat="56.876071" lon="8.371122">
<ele>21.037000</ele>
<time>2026-06-18T12:52:44.396Z</time>
</trkpt>
<trkpt lat="56.877393" lon="8.370529">
<ele>20.842229</ele>
<time>2026-06-18T12:53:16.666Z</time>
</trkpt>
<trkpt lat="56.877651" lon="8.370475">
<ele>20.798757</ele>
<time>2026-06-18T12:53:23.187Z</time>
</trkpt>
<trkpt lat="56.878714" lon="8.370952">
<ele>20.615533</ele>
<time>2026-06-18T12:53:50.410Z</time>
</trkpt>
<trkpt lat="56.879103" lon="8.371013">
<ele>20.468994</ele>
<time>2026-06-18T12:53:59.527Z</time>
</trkpt>
<trkpt lat="56.879451" lon="8.371029">
<ele>20.125597</ele>
<time>2026-06-18T12:54:07.184Z</time>
</trkpt>
<trkpt lat="56.879832" lon="8.371158">
<ele>19.743378</ele>
<time>2026-06-18T12:54:15.393Z</time>
</trkpt>
<trkpt lat="56.880071" lon="8.371441">
<ele>19.462572</ele>
<time>2026-06-18T12:54:21.346Z</time>
</trkpt>
<trkpt lat="56.880240" lon="8.371724">
<ele>19.236607</ele>
<time>2026-06-18T12:54:26.115Z</time>
</trkpt>
<trkpt lat="56.880445" lon="8.372324">
<ele>18.855190</ele>
<time>2026-06-18T12:54:34.358Z</time>
</trkpt>
<trkpt lat="56.880586" lon="8.372127">
<ele>18.728155</ele>
<time>2026-06-18T12:54:38.225Z</time>
</trkpt>
<trkpt lat="56.880833" lon="8.371584">
<ele>18.509989</ele>
<time>2026-06-18T12:54:46.900Z</time>
</trkpt>
<trkpt lat="56.880882" lon="8.371405">
<ele>18.448169</ele>
<time>2026-06-18T12:54:49.452Z</time>
</trkpt>
<trkpt lat="56.880899" lon="8.371228">
<ele>18.392678</ele>
<time>2026-06-18T12:54:52.989Z</time>
</trkpt>
<trkpt lat="56.880907" lon="8.370980">
<ele>18.315968</ele>
<time>2026-06-18T12:54:56.258Z</time>
</trkpt>
<trkpt lat="56.880955" lon="8.370772">
<ele>18.246249</ele>
<time>2026-06-18T12:54:59.233Z</time>
</trkpt>
<trkpt lat="56.881714" lon="8.370197">
<ele>17.782024</ele>
<time>2026-06-18T12:55:18.588Z</time>
</trkpt>
<trkpt lat="56.881821" lon="8.370168">
<ele>17.668193</ele>
<time>2026-06-18T12:55:21.022Z</time>
</trkpt>
<trkpt lat="56.882356" lon="8.370310">
<ele>17.070539</ele>
<time>2026-06-18T12:55:32.638Z</time>
</trkpt>
<trkpt lat="56.882540" lon="8.370516">
<ele>16.832080</ele>
<time>2026-06-18T12:55:37.206Z</time>
</trkpt>
<trkpt lat="56.882665" lon="8.370820">
<ele>16.602266</ele>
<time>2026-06-18T12:55:41.549Z</time>
</trkpt>
<trkpt lat="56.882806" lon="8.370941">
<ele>16.430101</ele>
<time>2026-06-18T12:55:44.805Z</time>
</trkpt>
<trkpt lat="56.882973" lon="8.371026">
<ele>16.238469</ele>
<time>2026-06-18T12:55:48.416Z</time>
</trkpt>
<trkpt lat="56.883095" lon="8.371042">
<ele>16.103246</ele>
<time>2026-06-18T12:55:50.979Z</time>
</trkpt>
<trkpt lat="56.883299" lon="8.371013">
<ele>15.877036</ele>
<time>2026-06-18T12:55:55.278Z</time>
</trkpt>
<trkpt lat="56.883834" lon="8.370716">
<ele>15.335136</ele>
<time>2026-06-18T12:56:07.281Z</time>
</trkpt>
<trkpt lat="56.885443" lon="8.370059">
<ele>13.901299</ele>
<time>2026-06-18T12:56:43.497Z</time>
</trkpt>
<trkpt lat="56.885546" lon="8.370072">
<ele>13.843284</ele>
<time>2026-06-18T12:56:45.778Z</time>
</trkpt>
<trkpt lat="56.886061" lon="8.370609">
<ele>13.510236</ele>
<time>2026-06-18T12:56:59.072Z</time>
</trkpt>
<trkpt lat="56.886154" lon="8.370652">
<ele>13.456336</ele>
<time>2026-06-18T12:57:01.283Z</time>
</trkpt>
<trkpt lat="56.886237" lon="8.370622">
<ele>13.408796</ele>
<time>2026-06-18T12:57:03.247Z</time>
</trkpt>
<trkpt lat="56.886386" lon="8.370474">
<ele>13.313538</ele>
<time>2026-06-18T12:57:07.183Z</time>
</trkpt>
<trkpt lat="56.886582" lon="8.369938">
<ele>13.115540</ele>
<time>2026-06-18T12:57:15.539Z</time>
</trkpt>
<trkpt lat="56.886699" lon="8.369841">
<ele>13.079655</ele>
<time>2026-06-18T12:57:18.633Z</time>
</trkpt>
<trkpt lat="56.887098" lon="8.369355">
<ele>13.120060</ele>
<time>2026-06-18T12:57:30.433Z</time>
</trkpt>
<trkpt lat="56.891835" lon="8.367386">
<ele>13.599353</ele>
<time>2026-06-18T12:59:32.824Z</time>
</trkpt>
<trkpt lat="56.891876" lon="8.367394">
<ele>13.596467</ele>
<time>2026-06-18T12:59:33.938Z</time>
</trkpt>
<trkpt lat="56.891915" lon="8.367468">
<ele>13.591702</ele>
<time>2026-06-18T12:59:35.398Z</time>
</trkpt>
<trkpt lat="56.892481" lon="8.366972">
<ele>13.538472</ele>
<time>2026-06-18T12:59:49.656Z</time>
</trkpt>
<trkpt lat="56.892701" lon="8.366837">
<ele>13.518789</ele>
<time>2026-06-18T12:59:54.789Z</time>
</trkpt>
<trkpt lat="56.893337" lon="8.366685">
<ele>13.464380</ele>
<time>2026-06-18T13:00:08.482Z</time>
</trkpt>
<trkpt lat="56.893507" lon="8.366574">
<ele>13.449069</ele>
<time>2026-06-18T13:00:12.232Z</time>
</trkpt>
<trkpt lat="56.893924" lon="8.366194">
<ele>13.415460</ele>
<time>2026-06-18T13:00:21.954Z</time>
</trkpt>
<trkpt lat="56.895265" lon="8.365235">
<ele>13.326327</ele>
<time>2026-06-18T13:00:53.944Z</time>
</trkpt>
<trkpt lat="56.900628" lon="8.360377">
<ele>14.101320</ele>
<time>2026-06-18T13:03:09.612Z</time>
</trkpt>
<trkpt lat="56.900793" lon="8.360287">
<ele>14.168401</ele>
<time>2026-06-18T13:03:13.846Z</time>
</trkpt>
<trkpt lat="56.901531" lon="8.360264">
<ele>14.455995</ele>
<time>2026-06-18T13:03:32.170Z</time>
</trkpt>
<trkpt lat="56.901916" lon="8.360200">
<ele>14.534171</ele>
<time>2026-06-18T13:03:41.788Z</time>
</trkpt>
<trkpt lat="56.902173" lon="8.360096">
<ele>14.524353</ele>
<time>2026-06-18T13:03:48.004Z</time>
</trkpt>
<trkpt lat="56.902917" lon="8.359618">
<ele>14.494945</ele>
<time>2026-06-18T13:04:05.080Z</time>
</trkpt>
<trkpt lat="56.903000" lon="8.359558">
<ele>14.491616</ele>
<time>2026-06-18T13:04:06.956Z</time>
</trkpt>
<trkpt lat="56.903350" lon="8.359324">
<ele>14.477719</ele>
<time>2026-06-18T13:04:14.661Z</time>
</trkpt>
<trkpt lat="56.905102" lon="8.358787">
<ele>14.061138</ele>
<time>2026-06-18T13:04:52.126Z</time>
</trkpt>
<trkpt lat="56.907151" lon="8.358361">
<ele>14.270355</ele>
<time>2026-06-18T13:05:39.666Z</time>
</trkpt>
<trkpt lat="56.908368" lon="8.358464">
<ele>14.097409</ele>
<time>2026-06-18T13:06:05.641Z</time>
</trkpt>
<trkpt lat="56.909610" lon="8.358580">
<ele>14.071998</ele>
<time>2026-06-18T13:06:32.671Z</time>
</trkpt>
<trkpt lat="56.912790" lon="8.358821">
<ele>14.590211</ele>
<time>2026-06-18T13:07:46.096Z</time>
</trkpt>
<trkpt lat="56.914556" lon="8.358914">
<ele>15.052553</ele>
<time>2026-06-18T13:08:26.944Z</time>
</trkpt>
<trkpt lat="56.914882" lon="8.358844">
<ele>15.217107</ele>
<time>2026-06-18T13:08:35.054Z</time>
</trkpt>
<trkpt lat="56.915880" lon="8.358449">
<ele>15.728985</ele>
<time>2026-06-18T13:09:00.160Z</time>
</trkpt>
<trkpt lat="56.916088" lon="8.358477">
<ele>15.809164</ele>
<time>2026-06-18T13:09:05.258Z</time>
</trkpt>
<trkpt lat="56.916702" lon="8.358913">
<ele>15.981526</ele>
<time>2026-06-18T13:09:21.518Z</time>
</trkpt>
<trkpt lat="56.916811" lon="8.358990">
<ele>16.012104</ele>
<time>2026-06-18T13:09:24.288Z</time>
</trkpt>
<trkpt lat="56.917521" lon="8.359475">
<ele>16.210440</ele>
<time>2026-06-18T13:09:42.270Z</time>
</trkpt>
<trkpt lat="56.918725" lon="8.360315">
<ele>16.570338</ele>
<time>2026-06-18T13:10:13.361Z</time>
</trkpt>
<trkpt lat="56.919585" lon="8.360908">
<ele>17.001574</ele>
<time>2026-06-18T13:10:35.834Z</time>
</trkpt>
<trkpt lat="56.919837" lon="8.359585">
<ele>17.755163</ele>
<time>2026-06-18T13:10:54.845Z</time>
</trkpt>
<trkpt lat="56.919886" lon="8.359334">
<ele>17.898525</ele>
<time>2026-06-18T13:10:58.624Z</time>
</trkpt>
<trkpt lat="56.920037" lon="8.358550">
<ele>18.345638</ele>
<time>2026-06-18T13:11:11.083Z</time>
</trkpt>
<trkpt lat="56.920149" lon="8.358262">
<ele>18.537464</ele>
<time>2026-06-18T13:11:16.724Z</time>
</trkpt>
<trkpt lat="56.920247" lon="8.358185">
<ele>18.696542</ele>
<time>2026-06-18T13:11:19.837Z</time>
</trkpt>
<trkpt lat="56.920363" lon="8.358177">
<ele>18.869718</ele>
<time>2026-06-18T13:11:23.310Z</time>
</trkpt>
<trkpt lat="56.920898" lon="8.358385">
<ele>19.685627</ele>
<time>2026-06-18T13:11:40.199Z</time>
</trkpt>
<trkpt lat="56.921047" lon="8.358436">
<ele>19.911757</ele>
<time>2026-06-18T13:11:44.816Z</time>
</trkpt>
<trkpt lat="56.921156" lon="8.358429">
<ele>20.074468</ele>
<time>2026-06-18T13:11:48.074Z</time>
</trkpt>
<trkpt lat="56.921410" lon="8.358316">
<ele>20.464407</ele>
<time>2026-06-18T13:11:55.653Z</time>
</trkpt>
<trkpt lat="56.921596" lon="8.358169">
<ele>20.766604</ele>
<time>2026-06-18T13:12:01.350Z</time>
</trkpt>
<trkpt lat="56.921891" lon="8.357810">
<ele>21.172802</ele>
<time>2026-06-18T13:12:10.358Z</time>
</trkpt>
<trkpt lat="56.921989" lon="8.357612">
<ele>21.054094</ele>
<time>2026-06-18T13:12:13.729Z</time>
</trkpt>
<trkpt lat="56.922120" lon="8.357242">
<ele>20.858225</ele>
<time>2026-06-18T13:12:18.876Z</time>
</trkpt>
<trkpt lat="56.922281" lon="8.356541">
<ele>20.520461</ele>
<time>2026-06-18T13:12:27.109Z</time>
</trkpt>
<trkpt lat="56.922504" lon="8.355553">
<ele>20.045640</ele>
<time>2026-06-18T13:12:37.775Z</time>
</trkpt>
<trkpt lat="56.923094" lon="8.353540">
<ele>18.774469</ele>
<time>2026-06-18T13:13:00.516Z</time>
</trkpt>
<trkpt lat="56.923414" lon="8.352441">
<ele>18.024652</ele>
<time>2026-06-18T13:13:13.859Z</time>
</trkpt>
<trkpt lat="56.923444" lon="8.352331">
<ele>17.950629</ele>
<time>2026-06-18T13:13:15.213Z</time>
</trkpt>
<trkpt lat="56.924303" lon="8.349068">
<ele>17.216005</ele>
<time>2026-06-18T13:13:57.332Z</time>
</trkpt>
<trkpt lat="56.924586" lon="8.347933">
<ele>16.750628</ele>
<time>2026-06-18T13:14:12.090Z</time>
</trkpt>
<trkpt lat="56.924779" lon="8.347342">
<ele>16.493772</ele>
<time>2026-06-18T13:14:19.875Z</time>
</trkpt>
<trkpt lat="56.924947" lon="8.347003">
<ele>16.322997</ele>
<time>2026-06-18T13:14:24.905Z</time>
</trkpt>
<trkpt lat="56.925004" lon="8.346924">
<ele>16.274158</ele>
<time>2026-06-18T13:14:26.313Z</time>
</trkpt>
<trkpt lat="56.927374" lon="8.343617">
<ele>12.167532</ele>
<time>2026-06-18T13:15:20.295Z</time>
</trkpt>
<trkpt lat="56.927537" lon="8.343458">
<ele>11.934469</ele>
<time>2026-06-18T13:15:23.609Z</time>
</trkpt>
<trkpt lat="56.927826" lon="8.343349">
<ele>11.562061</ele>
<time>2026-06-18T13:15:29.061Z</time>
</trkpt>
<trkpt lat="56.928392" lon="8.343466">
<ele>10.886155</ele>
<time>2026-06-18T13:15:40.239Z</time>
</trkpt>
<trkpt lat="56.928228" lon="8.345068">
<ele>11.367045</ele>
<time>2026-06-18T13:16:00.658Z</time>
</trkpt>
<trkpt lat="56.927241" lon="8.352612">
<ele>15.697628</ele>
<time>2026-06-18T13:17:54.933Z</time>
</trkpt>
<trkpt lat="56.926977" lon="8.354247">
<ele>16.570379</ele>
<time>2026-06-18T13:18:18.702Z</time>
</trkpt>
<trkpt lat="56.926730" lon="8.355576">
<ele>17.239385</ele>
<time>2026-06-18T13:18:38.019Z</time>
</trkpt>
<trkpt lat="56.926484" lon="8.356747">
<ele>17.895434</ele>
<time>2026-06-18T13:18:55.937Z</time>
</trkpt>
<trkpt lat="56.926076" lon="8.358388">
<ele>18.926272</ele>
<time>2026-06-18T13:19:22.429Z</time>
</trkpt>
<trkpt lat="56.926039" lon="8.358527">
<ele>19.014680</ele>
<time>2026-06-18T13:19:24.723Z</time>
</trkpt>
<trkpt lat="56.925838" lon="8.359273">
<ele>19.449308</ele>
<time>2026-06-18T13:19:36.793Z</time>
</trkpt>
<trkpt lat="56.925434" lon="8.360613">
<ele>19.727682</ele>
<time>2026-06-18T13:19:57.453Z</time>
</trkpt>
<trkpt lat="56.924664" lon="8.362792">
<ele>19.951570</ele>
<time>2026-06-18T13:20:28.566Z</time>
</trkpt>
<trkpt lat="56.923867" lon="8.364728">
<ele>19.752573</ele>
<time>2026-06-18T13:20:56.990Z</time>
</trkpt>
<trkpt lat="56.922951" lon="8.366673">
<ele>19.653756</ele>
<time>2026-06-18T13:21:28.043Z</time>
</trkpt>
<trkpt lat="56.923063" lon="8.366810">
<ele>19.644265</ele>
<time>2026-06-18T13:21:31.014Z</time>
</trkpt>
<trkpt lat="56.924435" lon="8.367797">
<ele>19.420934</ele>
<time>2026-06-18T13:22:02.877Z</time>
</trkpt>
<trkpt lat="56.925875" lon="8.368622">
<ele>19.141360</ele>
<time>2026-06-18T13:22:35.413Z</time>
</trkpt>
<trkpt lat="56.927317" lon="8.369382">
<ele>18.815990</ele>
<time>2026-06-18T13:23:07.439Z</time>
</trkpt>
<trkpt lat="56.929456" lon="8.370183">
<ele>18.278867</ele>
<time>2026-06-18T13:23:53.939Z</time>
</trkpt>
<trkpt lat="56.930217" lon="8.370522">
<ele>18.092197</ele>
<time>2026-06-18T13:24:10.602Z</time>
</trkpt>
<trkpt lat="56.931233" lon="8.371134">
<ele>18.143771</ele>
<time>2026-06-18T13:24:34.142Z</time>
</trkpt>
<trkpt lat="56.932751" lon="8.372077">
<ele>18.194672</ele>
<time>2026-06-18T13:25:11.348Z</time>
</trkpt>
<trkpt lat="56.933405" lon="8.372484">
<ele>18.207779</ele>
<time>2026-06-18T13:25:26.496Z</time>
</trkpt>
<trkpt lat="56.934897" lon="8.373413">
<ele>17.885359</ele>
<time>2026-06-18T13:25:59.728Z</time>
</trkpt>
<trkpt lat="56.935320" lon="8.371059">
<ele>17.758172</ele>
<time>2026-06-18T13:26:29.280Z</time>
</trkpt>
<trkpt lat="56.935510" lon="8.370002">
<ele>17.741650</ele>
<time>2026-06-18T13:26:42.935Z</time>
</trkpt>
<trkpt lat="56.935715" lon="8.368862">
<ele>17.715719</ele>
<time>2026-06-18T13:26:57.690Z</time>
</trkpt>
<trkpt lat="56.935927" lon="8.367850">
<ele>17.687234</ele>
<time>2026-06-18T13:27:10.738Z</time>
</trkpt>
<trkpt lat="56.935978" lon="8.367658">
<ele>17.681623</ele>
<time>2026-06-18T13:27:13.260Z</time>
</trkpt>
<trkpt lat="56.936043" lon="8.367547">
<ele>17.677344</ele>
<time>2026-06-18T13:27:15.188Z</time>
</trkpt>
<trkpt lat="56.936127" lon="8.367522">
<ele>17.673246</ele>
<time>2026-06-18T13:27:17.046Z</time>
</trkpt>
<trkpt lat="56.937093" lon="8.368168">
<ele>17.596989</ele>
<time>2026-06-18T13:27:39.552Z</time>
</trkpt>
<trkpt lat="56.937308" lon="8.368306">
<ele>17.573804</ele>
<time>2026-06-18T13:27:44.442Z</time>
</trkpt>
<trkpt lat="56.937773" lon="8.368589">
<ele>17.523938</ele>
<time>2026-06-18T13:27:55.180Z</time>
</trkpt>
<trkpt lat="56.937957" lon="8.368596">
<ele>17.505208</ele>
<time>2026-06-18T13:27:59.266Z</time>
</trkpt>
<trkpt lat="56.938187" lon="8.368492">
<ele>17.481098</ele>
<time>2026-06-18T13:28:04.562Z</time>
</trkpt>
<trkpt lat="56.938195" lon="8.368711">
<ele>17.468911</ele>
<time>2026-06-18T13:28:09.002Z</time>
</trkpt>
<trkpt lat="56.938006" lon="8.369922">
<ele>17.226342</ele>
<time>2026-06-18T13:28:33.897Z</time>
</trkpt>
<trkpt lat="56.938195" lon="8.368711">
<ele>16.972649</ele>
<time>2026-06-18T13:28:58.302Z</time>
</trkpt>
<trkpt lat="56.938187" lon="8.368492">
<ele>16.928442</ele>
<time>2026-06-18T13:29:02.557Z</time>
</trkpt>
<trkpt lat="56.938591" lon="8.368190">
<ele>16.713112</ele>
<time>2026-06-18T13:29:11.466Z</time>
</trkpt>
<trkpt lat="56.938819" lon="8.368090">
<ele>16.485430</ele>
<time>2026-06-18T13:29:16.215Z</time>
</trkpt>
<trkpt lat="56.938904" lon="8.368073">
<ele>16.402389</ele>
<time>2026-06-18T13:29:17.911Z</time>
</trkpt>
<trkpt lat="56.939102" lon="8.368129">
<ele>16.207818</ele>
<time>2026-06-18T13:29:21.871Z</time>
</trkpt>
<trkpt lat="56.939831" lon="8.368597">
<ele>15.457658</ele>
<time>2026-06-18T13:29:36.605Z</time>
</trkpt>
<trkpt lat="56.940418" lon="8.368971">
<ele>14.853489</ele>
<time>2026-06-18T13:29:48.230Z</time>
</trkpt>
<trkpt lat="56.941175" lon="8.369458">
<ele>14.071896</ele>
<time>2026-06-18T13:30:03.330Z</time>
</trkpt>
<trkpt lat="56.941303" lon="8.369541">
<ele>13.939622</ele>
<time>2026-06-18T13:30:05.957Z</time>
</trkpt>
<trkpt lat="56.941860" lon="8.369888">
<ele>13.366494</ele>
<time>2026-06-18T13:30:17.719Z</time>
</trkpt>
<trkpt lat="56.941890" lon="8.369908">
<ele>13.335394</ele>
<time>2026-06-18T13:30:18.378Z</time>
</trkpt>
<trkpt lat="56.942225" lon="8.370127">
<ele>13.313077</ele>
<time>2026-06-18T13:30:25.885Z</time>
</trkpt>
<trkpt lat="56.942583" lon="8.370372">
<ele>13.326858</ele>
<time>2026-06-18T13:30:34.292Z</time>
</trkpt>
<trkpt lat="56.942734" lon="8.370470">
<ele>13.332635</ele>
<time>2026-06-18T13:30:37.816Z</time>
</trkpt>
<trkpt lat="56.943781" lon="8.371147">
<ele>13.339406</ele>
<time>2026-06-18T13:31:03.983Z</time>
</trkpt>
<trkpt lat="56.944551" lon="8.371693">
<ele>13.212020</ele>
<time>2026-06-18T13:31:23.430Z</time>
</trkpt>
<trkpt lat="56.945246" lon="8.372218">
<ele>13.096038</ele>
<time>2026-06-18T13:31:38.374Z</time>
</trkpt>
<trkpt lat="56.945728" lon="8.372582">
<ele>12.988099</ele>
<time>2026-06-18T13:31:48.429Z</time>
</trkpt>
<trkpt lat="56.946715" lon="8.373328">
<ele>12.761514</ele>
<time>2026-06-18T13:32:11.043Z</time>
</trkpt>
<trkpt lat="56.947134" lon="8.373508">
<ele>12.827756</ele>
<time>2026-06-18T13:32:22.290Z</time>
</trkpt>
<trkpt lat="56.947511" lon="8.373487">
<ele>13.089355</ele>
<time>2026-06-18T13:32:32.279Z</time>
</trkpt>
<trkpt lat="56.947710" lon="8.373415">
<ele>13.230038</ele>
<time>2026-06-18T13:32:37.684Z</time>
</trkpt>
<trkpt lat="56.947935" lon="8.373330">
<ele>13.389370</ele>
<time>2026-06-18T13:32:44.024Z</time>
</trkpt>
<trkpt lat="56.948193" lon="8.373223">
<ele>13.572833</ele>
<time>2026-06-18T13:32:51.085Z</time>
</trkpt>
<trkpt lat="56.948259" lon="8.373195">
<ele>13.619818</ele>
<time>2026-06-18T13:32:52.856Z</time>
</trkpt>
<trkpt lat="56.948638" lon="8.373044">
<ele>13.888817</ele>
<time>2026-06-18T13:33:02.528Z</time>
</trkpt>
<trkpt lat="56.948956" lon="8.373029">
<ele>13.741128</ele>
<time>2026-06-18T13:33:10.105Z</time>
</trkpt>
<trkpt lat="56.949112" lon="8.373061">
<ele>13.591048</ele>
<time>2026-06-18T13:33:13.668Z</time>
</trkpt>
<trkpt lat="56.949180" lon="8.373076">
<ele>13.525566</ele>
<time>2026-06-18T13:33:15.160Z</time>
</trkpt>
<trkpt lat="56.949417" lon="8.373180">
<ele>13.292575</ele>
<time>2026-06-18T13:33:20.381Z</time>
</trkpt>
<trkpt lat="56.949699" lon="8.373332">
<ele>13.011552</ele>
<time>2026-06-18T13:33:26.325Z</time>
</trkpt>
<trkpt lat="56.949846" lon="8.373403">
<ele>12.866213</ele>
<time>2026-06-18T13:33:29.311Z</time>
</trkpt>
<trkpt lat="56.950009" lon="8.373564">
<ele>12.689199</ele>
<time>2026-06-18T13:33:32.669Z</time>
</trkpt>
<trkpt lat="56.950121" lon="8.373266">
<ele>12.500492</ele>
<time>2026-06-18T13:33:36.214Z</time>
</trkpt>
<trkpt lat="56.950555" lon="8.372118">
<ele>11.547279</ele>
<time>2026-06-18T13:33:50.282Z</time>
</trkpt>
<trkpt lat="56.950626" lon="8.371931">
<ele>11.370743</ele>
<time>2026-06-18T13:33:52.547Z</time>
</trkpt>
<trkpt lat="56.950718" lon="8.371687">
<ele>11.140917</ele>
<time>2026-06-18T13:33:55.523Z</time>
</trkpt>
<trkpt lat="56.950801" lon="8.371353">
<ele>10.856546</ele>
<time>2026-06-18T13:33:59.271Z</time>
</trkpt>
<trkpt lat="56.950848" lon="8.371104">
<ele>10.652400</ele>
<time>2026-06-18T13:34:02.032Z</time>
</trkpt>
<trkpt lat="56.950883" lon="8.370702">
<ele>10.337000</ele>
<time>2026-06-18T13:34:06.413Z</time>
</trkpt>
<trkpt lat="56.950896" lon="8.370472">
<ele>10.157850</ele>
<time>2026-06-18T13:34:08.962Z</time>
</trkpt>
<trkpt lat="56.950914" lon="8.370149">
<ele>9.906298</ele>
<time>2026-06-18T13:34:12.635Z</time>
</trkpt>
<trkpt lat="56.950944" lon="8.369613">
<ele>9.661502</ele>
<time>2026-06-18T13:34:18.950Z</time>
</trkpt>
<trkpt lat="56.950964" lon="8.369495">
<ele>9.652379</ele>
<time>2026-06-18T13:34:20.436Z</time>
</trkpt>
<trkpt lat="56.951043" lon="8.369168">
<ele>9.625975</ele>
<time>2026-06-18T13:34:24.839Z</time>
</trkpt>
<trkpt lat="56.951102" lon="8.369017">
<ele>9.612261</ele>
<time>2026-06-18T13:34:27.150Z</time>
</trkpt>
<trkpt lat="56.951215" lon="8.368834">
<ele>9.591852</ele>
<time>2026-06-18T13:34:30.656Z</time>
</trkpt>
<trkpt lat="56.952332" lon="8.367937">
<ele>9.401818</ele>
<time>2026-06-18T13:34:59.357Z</time>
</trkpt>
<trkpt lat="56.952645" lon="8.367693">
<ele>9.233839</ele>
<time>2026-06-18T13:35:06.947Z</time>
</trkpt>
<trkpt lat="56.952937" lon="8.367463">
<ele>9.076879</ele>
<time>2026-06-18T13:35:13.819Z</time>
</trkpt>
<trkpt lat="56.953340" lon="8.367151">
<ele>8.860827</ele>
<time>2026-06-18T13:35:22.996Z</time>
</trkpt>
<trkpt lat="56.953422" lon="8.367085">
<ele>8.816598</ele>
<time>2026-06-18T13:35:24.841Z</time>
</trkpt>
<trkpt lat="56.953631" lon="8.366917">
<ele>8.703892</ele>
<time>2026-06-18T13:35:29.337Z</time>
</trkpt>
<trkpt lat="56.953858" lon="8.366796">
<ele>8.587137</ele>
<time>2026-06-18T13:35:34.022Z</time>
</trkpt>
<trkpt lat="56.954198" lon="8.366794">
<ele>8.437735</ele>
<time>2026-06-18T13:35:40.804Z</time>
</trkpt>
<trkpt lat="56.954253" lon="8.366801">
<ele>8.414426</ele>
<time>2026-06-18T13:35:41.899Z</time>
</trkpt>
<trkpt lat="56.954427" lon="8.366823">
<ele>8.340688</ele>
<time>2026-06-18T13:35:45.419Z</time>
</trkpt>
<trkpt lat="56.954995" lon="8.366940">
<ele>8.099040</ele>
<time>2026-06-18T13:35:57.280Z</time>
</trkpt>
<trkpt lat="56.955014" lon="8.366956">
<ele>8.090201</ele>
<time>2026-06-18T13:35:57.737Z</time>
</trkpt>
<trkpt lat="56.955201" lon="8.367126">
<ele>8.001961</ele>
<time>2026-06-18T13:36:02.137Z</time>
</trkpt>
<trkpt lat="56.955362" lon="8.367303">
<ele>7.922599</ele>
<time>2026-06-18T13:36:06.139Z</time>
</trkpt>
<trkpt lat="56.955712" lon="8.367752">
<ele>7.757895</ele>
<time>2026-06-18T13:36:15.387Z</time>
</trkpt>
<trkpt lat="56.956059" lon="8.368162">
<ele>7.644404</ele>
<time>2026-06-18T13:36:24.303Z</time>
</trkpt>
<trkpt lat="56.956173" lon="8.368222">
<ele>7.611796</ele>
<time>2026-06-18T13:36:26.849Z</time>
</trkpt>
<trkpt lat="56.956335" lon="8.368207">
<ele>7.567199</ele>
<time>2026-06-18T13:36:30.301Z</time>
</trkpt>
<trkpt lat="56.956927" lon="8.368002">
<ele>7.401558</ele>
<time>2026-06-18T13:36:43.059Z</time>
</trkpt>
<trkpt lat="56.957020" lon="8.367971">
<ele>7.375570</ele>
<time>2026-06-18T13:36:45.074Z</time>
</trkpt>
<trkpt lat="56.957316" lon="8.367871">
<ele>7.292781</ele>
<time>2026-06-18T13:36:51.486Z</time>
</trkpt>
<trkpt lat="56.957510" lon="8.367812">
<ele>7.216185</ele>
<time>2026-06-18T13:36:55.639Z</time>
</trkpt>
<trkpt lat="56.957586" lon="8.367790">
<ele>7.186216</ele>
<time>2026-06-18T13:36:57.257Z</time>
</trkpt>
<trkpt lat="56.957882" lon="8.367705">
<ele>7.069517</ele>
<time>2026-06-18T13:37:03.542Z</time>
</trkpt>
<trkpt lat="56.958212" lon="8.367616">
<ele>6.939598</ele>
<time>2026-06-18T13:37:10.474Z</time>
</trkpt>
<trkpt lat="56.958235" lon="8.367861">
<ele>6.886800</ele>
<time>2026-06-18T13:37:13.281Z</time>
</trkpt>
<trkpt lat="56.958283" lon="8.368355">
<ele>6.780232</ele>
<time>2026-06-18T13:37:19.015Z</time>
</trkpt>
<trkpt lat="56.958320" lon="8.368340">
<ele>6.765472</ele>
<time>2026-06-18T13:37:19.793Z</time>
</trkpt>
<trkpt lat="56.958416" lon="8.369295">
<ele>6.569051</ele>
<time>2026-06-18T13:37:30.774Z</time>
</trkpt>
<trkpt lat="56.958441" lon="8.369546">
<ele>6.530939</ele>
<time>2026-06-18T13:37:33.623Z</time>
</trkpt>
<trkpt lat="56.958548" lon="8.370559">
<ele>6.376816</ele>
<time>2026-06-18T13:37:45.165Z</time>
</trkpt>
<trkpt lat="56.958837" lon="8.372359">
<ele>6.105049</ele>
<time>2026-06-18T13:38:07.273Z</time>
</trkpt>
<trkpt lat="56.958978" lon="8.373291">
<ele>6.363324</ele>
<time>2026-06-18T13:38:18.931Z</time>
</trkpt>
<trkpt lat="56.959031" lon="8.373858">
<ele>6.516938</ele>
<time>2026-06-18T13:38:26.222Z</time>
</trkpt>
<trkpt lat="56.959051" lon="8.374362">
<ele>6.651877</ele>
<time>2026-06-18T13:38:32.899Z</time>
</trkpt>
<trkpt lat="56.959026" lon="8.375106">
<ele>6.850923</ele>
<time>2026-06-18T13:38:43.128Z</time>
</trkpt>
<trkpt lat="56.958970" lon="8.375668">
<ele>7.043255</ele>
<time>2026-06-18T13:38:51.251Z</time>
</trkpt>
<trkpt lat="56.958697" lon="8.377354">
<ele>8.324878</ele>
<time>2026-06-18T13:39:18.354Z</time>
</trkpt>
<trkpt lat="56.958593" lon="8.377986">
<ele>8.805937</ele>
<time>2026-06-18T13:39:28.492Z</time>
</trkpt>
<trkpt lat="56.958489" lon="8.378620">
<ele>9.288393</ele>
<time>2026-06-18T13:39:38.430Z</time>
</trkpt>
<trkpt lat="56.958208" lon="8.380338">
<ele>10.473277</ele>
<time>2026-06-18T13:40:05.201Z</time>
</trkpt>
<trkpt lat="56.957870" lon="8.382485">
<ele>11.758115</ele>
<time>2026-06-18T13:40:37.725Z</time>
</trkpt>
<trkpt lat="56.957794" lon="8.382976">
<ele>11.939429</ele>
<time>2026-06-18T13:40:45.031Z</time>
</trkpt>
<trkpt lat="56.957607" lon="8.384117">
<ele>12.362672</ele>
<time>2026-06-18T13:41:01.282Z</time>
</trkpt>
<trkpt lat="56.957400" lon="8.385141">
<ele>12.714086</ele>
<time>2026-06-18T13:41:15.186Z</time>
</trkpt>
<trkpt lat="56.956513" lon="8.388582">
<ele>12.494797</ele>
<time>2026-06-18T13:42:00.583Z</time>
</trkpt>
<trkpt lat="56.956524" lon="8.388659">
<ele>12.481440</ele>
<time>2026-06-18T13:42:01.574Z</time>
</trkpt>
<trkpt lat="56.957519" lon="8.389220">
<ele>12.161109</ele>
<time>2026-06-18T13:42:25.342Z</time>
</trkpt>
<trkpt lat="56.958821" lon="8.390299">
<ele>12.637933</ele>
<time>2026-06-18T13:43:00.475Z</time>
</trkpt>
<trkpt lat="56.959163" lon="8.390762">
<ele>12.881000</ele>
<time>2026-06-18T13:43:12.791Z</time>
</trkpt>
<trkpt lat="56.960050" lon="8.392341">
<ele>14.577592</ele>
<time>2026-06-18T13:43:51.993Z</time>
</trkpt>
<trkpt lat="56.960128" lon="8.392531">
<ele>14.793633</ele>
<time>2026-06-18T13:43:56.185Z</time>
</trkpt>
<trkpt lat="56.960207" lon="8.392721">
<ele>15.010680</ele>
<time>2026-06-18T13:44:00.371Z</time>
</trkpt>
<trkpt lat="56.960427" lon="8.393570">
<ele>15.864540</ele>
<time>2026-06-18T13:44:16.598Z</time>
</trkpt>
<trkpt lat="56.960684" lon="8.394291">
<ele>16.309296</ele>
<time>2026-06-18T13:44:31.154Z</time>
</trkpt>
<trkpt lat="56.961301" lon="8.396461">
<ele>17.237563</ele>
<time>2026-06-18T13:45:07.924Z</time>
</trkpt>
<trkpt lat="56.961453" lon="8.396823">
<ele>17.185379</ele>
<time>2026-06-18T13:45:13.641Z</time>
</trkpt>
<trkpt lat="56.961648" lon="8.397138">
<ele>16.925020</ele>
<time>2026-06-18T13:45:19.373Z</time>
</trkpt>
<trkpt lat="56.962009" lon="8.397562">
<ele>16.495501</ele>
<time>2026-06-18T13:45:28.443Z</time>
</trkpt>
<trkpt lat="56.962516" lon="8.398257">
<ele>15.861302</ele>
<time>2026-06-18T13:45:41.488Z</time>
</trkpt>
<trkpt lat="56.962837" lon="8.398727">
<ele>15.468997</ele>
<time>2026-06-18T13:45:50.243Z</time>
</trkpt>
<trkpt lat="56.962978" lon="8.398861">
<ele>15.355913</ele>
<time>2026-06-18T13:45:53.673Z</time>
</trkpt>
<trkpt lat="56.963907" lon="8.399538">
<ele>14.644068</ele>
<time>2026-06-18T13:46:16.092Z</time>
</trkpt>
<trkpt lat="56.964019" lon="8.399686">
<ele>14.545771</ele>
<time>2026-06-18T13:46:19.245Z</time>
</trkpt>
<trkpt lat="56.964770" lon="8.401390">
<ele>13.933284</ele>
<time>2026-06-18T13:46:46.886Z</time>
</trkpt>
<trkpt lat="56.966508" lon="8.405884">
<ele>12.870927</ele>
<time>2026-06-18T13:47:57.364Z</time>
</trkpt>
<trkpt lat="56.966664" lon="8.405936">
<ele>12.852820</ele>
<time>2026-06-18T13:48:01.125Z</time>
</trkpt>
<trkpt lat="56.966881" lon="8.406083">
<ele>12.826403</ele>
<time>2026-06-18T13:48:06.657Z</time>
</trkpt>
<trkpt lat="56.966993" lon="8.406194">
<ele>12.811865</ele>
<time>2026-06-18T13:48:09.725Z</time>
</trkpt>
<trkpt lat="56.967098" lon="8.406358">
<ele>12.796117</ele>
<time>2026-06-18T13:48:13.106Z</time>
</trkpt>
<trkpt lat="56.967155" lon="8.406545">
<ele>12.782779</ele>
<time>2026-06-18T13:48:15.971Z</time>
</trkpt>
<trkpt lat="56.967194" lon="8.406787">
<ele>12.767069</ele>
<time>2026-06-18T13:48:19.319Z</time>
</trkpt>
<trkpt lat="56.967239" lon="8.407385">
<ele>12.729489</ele>
<time>2026-06-18T13:48:27.204Z</time>
</trkpt>
<trkpt lat="56.967292" lon="8.407705">
<ele>12.708668</ele>
<time>2026-06-18T13:48:31.662Z</time>
</trkpt>
<trkpt lat="56.967361" lon="8.407942">
<ele>12.691942</ele>
<time>2026-06-18T13:48:35.335Z</time>
</trkpt>
<trkpt lat="56.967514" lon="8.408239">
<ele>12.753849</ele>
<time>2026-06-18T13:48:40.986Z</time>
</trkpt>
<trkpt lat="56.967587" lon="8.408342">
<ele>12.794698</ele>
<time>2026-06-18T13:48:43.332Z</time>
</trkpt>
<trkpt lat="56.967881" lon="8.408826">
<ele>12.969913</ele>
<time>2026-06-18T13:48:53.481Z</time>
</trkpt>
<trkpt lat="56.967968" lon="8.409028">
<ele>13.032158</ele>
<time>2026-06-18T13:48:57.120Z</time>
</trkpt>
<trkpt lat="56.968156" lon="8.409821">
<ele>13.241242</ele>
<time>2026-06-18T13:49:09.467Z</time>
</trkpt>
<trkpt lat="56.969036" lon="8.415131">
<ele>15.577894</ele>
<time>2026-06-18T13:50:34.845Z</time>
</trkpt>
<trkpt lat="56.969547" lon="8.418207">
<ele>17.161223</ele>
<time>2026-06-18T13:51:23.728Z</time>
</trkpt>
<trkpt lat="56.969567" lon="8.418423">
<ele>17.284780</ele>
<time>2026-06-18T13:51:27.219Z</time>
</trkpt>
<trkpt lat="56.969554" lon="8.418712">
<ele>17.448314</ele>
<time>2026-06-18T13:51:31.859Z</time>
</trkpt>
<trkpt lat="56.969330" lon="8.420346">
<ele>18.363397</ele>
<time>2026-06-18T13:51:59.207Z</time>
</trkpt>
<trkpt lat="56.969325" lon="8.420626">
<ele>18.367740</ele>
<time>2026-06-18T13:52:03.638Z</time>
</trkpt>
<trkpt lat="56.969424" lon="8.421024">
<ele>18.374522</ele>
<time>2026-06-18T13:52:10.342Z</time>
</trkpt>
<trkpt lat="56.969549" lon="8.421320">
<ele>18.380326</ele>
<time>2026-06-18T13:52:15.836Z</time>
</trkpt>
<trkpt lat="56.969815" lon="8.421836">
<ele>18.391335</ele>
<time>2026-06-18T13:52:25.677Z</time>
</trkpt>
<trkpt lat="56.969952" lon="8.422048">
<ele>18.396432</ele>
<time>2026-06-18T13:52:29.976Z</time>
</trkpt>
<trkpt lat="56.971072" lon="8.423507">
<ele>17.697639</ele>
<time>2026-06-18T13:52:59.813Z</time>
</trkpt>
<trkpt lat="56.971139" lon="8.423667">
<ele>17.595585</ele>
<time>2026-06-18T13:53:02.152Z</time>
</trkpt>
<trkpt lat="56.971356" lon="8.424536">
<ele>17.112113</ele>
<time>2026-06-18T13:53:13.377Z</time>
</trkpt>
<trkpt lat="56.971470" lon="8.424841">
<ele>16.925057</ele>
<time>2026-06-18T13:53:17.815Z</time>
</trkpt>
<trkpt lat="56.971919" lon="8.425474">
<ele>16.654822</ele>
<time>2026-06-18T13:53:30.588Z</time>
</trkpt>
<trkpt lat="56.972569" lon="8.426269">
<ele>16.466391</ele>
<time>2026-06-18T13:53:49.410Z</time>
</trkpt>
<trkpt lat="56.973675" lon="8.427338">
<ele>16.472830</ele>
<time>2026-06-18T13:54:20.429Z</time>
</trkpt>
<trkpt lat="56.974486" lon="8.427925">
<ele>16.706870</ele>
<time>2026-06-18T13:54:43.186Z</time>
</trkpt>
<trkpt lat="56.974709" lon="8.427952">
<ele>16.766864</ele>
<time>2026-06-18T13:54:49.179Z</time>
</trkpt>
<trkpt lat="56.975203" lon="8.427777">
<ele>16.806473</ele>
<time>2026-06-18T13:55:02.532Z</time>
</trkpt>
<trkpt lat="56.975515" lon="8.427848">
<ele>16.816600</ele>
<time>2026-06-18T13:55:10.671Z</time>
</trkpt>
<trkpt lat="56.975788" lon="8.427979">
<ele>16.825690</ele>
<time>2026-06-18T13:55:17.822Z</time>
</trkpt>
<trkpt lat="56.975930" lon="8.428097">
<ele>16.830711</ele>
<time>2026-06-18T13:55:21.697Z</time>
</trkpt>
<trkpt lat="56.976273" lon="8.428539">
<ele>16.844212</ele>
<time>2026-06-18T13:55:31.658Z</time>
</trkpt>
<trkpt lat="56.976357" lon="8.428607">
<ele>16.847169</ele>
<time>2026-06-18T13:55:33.783Z</time>
</trkpt>
<trkpt lat="56.976444" lon="8.428625">
<ele>16.849989</ele>
<time>2026-06-18T13:55:35.800Z</time>
</trkpt>
<trkpt lat="56.977040" lon="8.428556">
<ele>16.669020</ele>
<time>2026-06-18T13:55:49.446Z</time>
</trkpt>
<trkpt lat="56.977580" lon="8.428675">
<ele>16.489833</ele>
<time>2026-06-18T13:56:02.129Z</time>
</trkpt>
<trkpt lat="56.977680" lon="8.428601">
<ele>16.454308</ele>
<time>2026-06-18T13:56:04.669Z</time>
</trkpt>
<trkpt lat="56.977742" lon="8.428479">
<ele>16.424357</ele>
<time>2026-06-18T13:56:06.828Z</time>
</trkpt>
<trkpt lat="56.977914" lon="8.428494">
<ele>16.367626</ele>
<time>2026-06-18T13:56:10.933Z</time>
</trkpt>
<trkpt lat="56.977967" lon="8.428543">
<ele>16.348073</ele>
<time>2026-06-18T13:56:12.217Z</time>
</trkpt>
<trkpt lat="56.978130" lon="8.428665">
<ele>16.290076</ele>
<time>2026-06-18T13:56:15.998Z</time>
</trkpt>
<trkpt lat="56.978189" lon="8.428679">
<ele>16.270476</ele>
<time>2026-06-18T13:56:17.262Z</time>
</trkpt>
<trkpt lat="56.978265" lon="8.428741">
<ele>16.245505</ele>
<time>2026-06-18T13:56:19.276Z</time>
</trkpt>
<trkpt lat="56.978474" lon="8.429088">
<ele>16.166994</ele>
<time>2026-06-18T13:56:26.151Z</time>
</trkpt>
<trkpt lat="56.978564" lon="8.429144">
<ele>16.140522</ele>
<time>2026-06-18T13:56:28.479Z</time>
</trkpt>
<trkpt lat="56.979123" lon="8.429274">
<ele>15.983563</ele>
<time>2026-06-18T13:56:42.082Z</time>
</trkpt>
<trkpt lat="56.979235" lon="8.429255">
<ele>15.952232</ele>
<time>2026-06-18T13:56:44.749Z</time>
</trkpt>
<trkpt lat="56.979318" lon="8.429194">
<ele>15.927326</ele>
<time>2026-06-18T13:56:46.852Z</time>
</trkpt>
<trkpt lat="56.979572" lon="8.428888">
<ele>15.842688</ele>
<time>2026-06-18T13:56:53.951Z</time>
</trkpt>
<trkpt lat="56.979726" lon="8.428851">
<ele>15.799425</ele>
<time>2026-06-18T13:56:57.551Z</time>
</trkpt>
<trkpt lat="56.979879" lon="8.428886">
<ele>15.753879</ele>
<time>2026-06-18T13:57:01.130Z</time>
</trkpt>
<trkpt lat="56.980219" lon="8.429009">
<ele>15.466175</ele>
<time>2026-06-18T13:57:09.062Z</time>
</trkpt>
<trkpt lat="56.980397" lon="8.429140">
<ele>15.306956</ele>
<time>2026-06-18T13:57:13.392Z</time>
</trkpt>
<trkpt lat="56.980872" lon="8.429626">
<ele>14.855455</ele>
<time>2026-06-18T13:57:25.251Z</time>
</trkpt>
<trkpt lat="56.981000" lon="8.429757">
<ele>14.733780</ele>
<time>2026-06-18T13:57:28.393Z</time>
</trkpt>
<trkpt lat="56.981127" lon="8.430015">
<ele>14.576490</ele>
<time>2026-06-18T13:57:32.447Z</time>
</trkpt>
<trkpt lat="56.981274" lon="8.430347">
<ele>14.382964</ele>
<time>2026-06-18T13:57:37.458Z</time>
</trkpt>
<trkpt lat="56.981347" lon="8.430417">
<ele>14.314584</ele>
<time>2026-06-18T13:57:39.244Z</time>
</trkpt>
<trkpt lat="56.981760" lon="8.430524">
<ele>14.087802</ele>
<time>2026-06-18T13:57:48.325Z</time>
</trkpt>
<trkpt lat="56.982028" lon="8.430753">
<ele>13.941374</ele>
<time>2026-06-18T13:57:54.820Z</time>
</trkpt>
<trkpt lat="56.983212" lon="8.431869">
<ele>13.366434</ele>
<time>2026-06-18T13:58:26.531Z</time>
</trkpt>
<trkpt lat="56.983603" lon="8.432314">
<ele>13.348489</ele>
<time>2026-06-18T13:58:37.912Z</time>
</trkpt>
<trkpt lat="56.983747" lon="8.432542">
<ele>13.341070</ele>
<time>2026-06-18T13:58:42.581Z</time>
</trkpt>
<trkpt lat="56.983854" lon="8.432777">
<ele>13.334562</ele>
<time>2026-06-18T13:58:46.655Z</time>
</trkpt>
<trkpt lat="56.984596" lon="8.433864">
<ele>13.337089</ele>
<time>2026-06-18T13:59:07.772Z</time>
</trkpt>
<trkpt lat="56.985011" lon="8.434561">
<ele>13.460871</ele>
<time>2026-06-18T13:59:20.508Z</time>
</trkpt>
<trkpt lat="56.985391" lon="8.435266">
<ele>13.579765</ele>
<time>2026-06-18T13:59:33.255Z</time>
</trkpt>
<trkpt lat="56.986298" lon="8.437124">
<ele>13.844457</ele>
<time>2026-06-18T14:00:05.570Z</time>
</trkpt>
<trkpt lat="56.990930" lon="8.446628">
<ele>15.110686</ele>
<time>2026-06-18T14:02:44.084Z</time>
</trkpt>
<trkpt lat="56.992098" lon="8.448770">
<ele>15.612196</ele>
<time>2026-06-18T14:03:23.438Z</time>
</trkpt>
<trkpt lat="56.993104" lon="8.450419">
<ele>15.943900</ele>
<time>2026-06-18T14:03:54.699Z</time>
</trkpt>
<trkpt lat="57.001651" lon="8.463190">
<ele>15.719671</ele>
<time>2026-06-18T14:07:59.241Z</time>
</trkpt>
<trkpt lat="57.001753" lon="8.463210">
<ele>15.655899</ele>
<time>2026-06-18T14:08:01.398Z</time>
</trkpt>
<trkpt lat="57.001999" lon="8.462927">
<ele>15.475427</ele>
<time>2026-06-18T14:08:07.416Z</time>
</trkpt>
<trkpt lat="57.002271" lon="8.462753">
<ele>15.296360</ele>
<time>2026-06-18T14:08:13.253Z</time>
</trkpt>
<trkpt lat="57.002541" lon="8.462368">
<ele>15.083836</ele>
<time>2026-06-18T14:08:20.036Z</time>
</trkpt>
<trkpt lat="57.002572" lon="8.462372">
<ele>15.064516</ele>
<time>2026-06-18T14:08:20.637Z</time>
</trkpt>
<trkpt lat="57.002605" lon="8.462438">
<ele>15.034181</ele>
<time>2026-06-18T14:08:21.603Z</time>
</trkpt>
<trkpt lat="57.002691" lon="8.462278">
<ele>14.958069</ele>
<time>2026-06-18T14:08:23.989Z</time>
</trkpt>
<trkpt lat="57.004143" lon="8.459979">
<ele>13.494872</ele>
<time>2026-06-18T14:09:01.091Z</time>
</trkpt>
<trkpt lat="57.004294" lon="8.459541">
<ele>13.288724</ele>
<time>2026-06-18T14:09:07.109Z</time>
</trkpt>
<trkpt lat="57.004439" lon="8.458786">
<ele>13.251428</ele>
<time>2026-06-18T14:09:16.673Z</time>
</trkpt>
<trkpt lat="57.004574" lon="8.458096">
<ele>13.217273</ele>
<time>2026-06-18T14:09:25.692Z</time>
</trkpt>
<trkpt lat="57.004743" lon="8.457268">
<ele>13.176080</ele>
<time>2026-06-18T14:09:36.725Z</time>
</trkpt>
<trkpt lat="57.005316" lon="8.454361">
<ele>12.749765</ele>
<time>2026-06-18T14:10:12.624Z</time>
</trkpt>
<trkpt lat="57.005388" lon="8.453891">
<ele>12.665918</ele>
<time>2026-06-18T14:10:18.183Z</time>
</trkpt>
<trkpt lat="57.005533" lon="8.454018">
<ele>12.615256</ele>
<time>2026-06-18T14:10:21.497Z</time>
</trkpt>
<trkpt lat="57.005840" lon="8.454538">
<ele>12.533360</ele>
<time>2026-06-18T14:10:30.085Z</time>
</trkpt>
<trkpt lat="57.006135" lon="8.454816">
<ele>12.489097</ele>
<time>2026-06-18T14:10:37.043Z</time>
</trkpt>
<trkpt lat="57.006558" lon="8.455155">
<ele>12.427486</ele>
<time>2026-06-18T14:10:47.148Z</time>
</trkpt>
<trkpt lat="57.007131" lon="8.455626">
<ele>12.343682</ele>
<time>2026-06-18T14:11:01.236Z</time>
</trkpt>
<trkpt lat="57.007436" lon="8.455978">
<ele>12.332247</ele>
<time>2026-06-18T14:11:09.343Z</time>
</trkpt>
<trkpt lat="57.007591" lon="8.456247">
<ele>12.334268</ele>
<time>2026-06-18T14:11:14.248Z</time>
</trkpt>
<trkpt lat="57.007771" lon="8.456627">
<ele>12.336867</ele>
<time>2026-06-18T14:11:20.465Z</time>
</trkpt>
<trkpt lat="57.008065" lon="8.457370">
<ele>12.341606</ele>
<time>2026-06-18T14:11:31.554Z</time>
</trkpt>
<trkpt lat="57.008421" lon="8.458270">
<ele>12.356399</ele>
<time>2026-06-18T14:11:44.714Z</time>
</trkpt>
<trkpt lat="57.008693" lon="8.458975">
<ele>12.444233</ele>
<time>2026-06-18T14:11:56.178Z</time>
</trkpt>
<trkpt lat="57.009539" lon="8.461163">
<ele>12.825548</ele>
<time>2026-06-18T14:12:33.836Z</time>
</trkpt>
<trkpt lat="57.009759" lon="8.461538">
<ele>13.058499</ele>
<time>2026-06-18T14:12:41.945Z</time>
</trkpt>
<trkpt lat="57.010166" lon="8.461978">
<ele>13.425036</ele>
<time>2026-06-18T14:12:55.171Z</time>
</trkpt>
<trkpt lat="57.010423" lon="8.462438">
<ele>13.703550</ele>
<time>2026-06-18T14:13:05.433Z</time>
</trkpt>
<trkpt lat="57.010623" lon="8.462821">
<ele>13.927800</ele>
<time>2026-06-18T14:13:13.844Z</time>
</trkpt>
<trkpt lat="57.010763" lon="8.463086">
<ele>14.081502</ele>
<time>2026-06-18T14:13:19.718Z</time>
</trkpt>
<trkpt lat="57.011003" lon="8.463397">
<ele>14.208200</ele>
<time>2026-06-18T14:13:28.254Z</time>
</trkpt>
<trkpt lat="57.011585" lon="8.463967">
<ele>14.492710</ele>
<time>2026-06-18T14:13:46.685Z</time>
</trkpt>
<trkpt lat="57.011808" lon="8.464284">
<ele>14.614347</ele>
<time>2026-06-18T14:13:54.071Z</time>
</trkpt>
<trkpt lat="57.012846" lon="8.466310">
<ele>14.336196</ele>
<time>2026-06-18T14:14:29.382Z</time>
</trkpt>
<trkpt lat="57.013846" lon="8.468167">
<ele>13.943298</ele>
<time>2026-06-18T14:15:01.150Z</time>
</trkpt>
<trkpt lat="57.014420" lon="8.469224">
<ele>14.029660</ele>
<time>2026-06-18T14:15:20.244Z</time>
</trkpt>
<trkpt lat="57.014615" lon="8.469737">
<ele>14.065852</ele>
<time>2026-06-18T14:15:28.943Z</time>
</trkpt>
<trkpt lat="57.014714" lon="8.470119">
<ele>14.129150</ele>
<time>2026-06-18T14:15:34.923Z</time>
</trkpt>
<trkpt lat="57.014777" lon="8.470565">
<ele>14.214269</ele>
<time>2026-06-18T14:15:41.322Z</time>
</trkpt>
<trkpt lat="57.014801" lon="8.471042">
<ele>14.302762</ele>
<time>2026-06-18T14:15:47.880Z</time>
</trkpt>
<trkpt lat="57.014793" lon="8.471337">
<ele>14.357326</ele>
<time>2026-06-18T14:15:51.854Z</time>
</trkpt>
<trkpt lat="57.014846" lon="8.471386">
<ele>14.377459</ele>
<time>2026-06-18T14:15:53.308Z</time>
</trkpt>
<trkpt lat="57.014888" lon="8.471564">
<ele>14.413297</ele>
<time>2026-06-18T14:15:55.875Z</time>
</trkpt>
<trkpt lat="57.014971" lon="8.471626">
<ele>14.443700</ele>
<time>2026-06-18T14:15:58.034Z</time>
</trkpt>
<trkpt lat="57.017468" lon="8.472033">
<ele>14.263781</ele>
<time>2026-06-18T14:16:52.148Z</time>
</trkpt>
<trkpt lat="57.018377" lon="8.472271">
<ele>13.637263</ele>
<time>2026-06-18T14:17:10.533Z</time>
</trkpt>
<trkpt lat="57.018910" lon="8.472448">
<ele>13.267679</ele>
<time>2026-06-18T14:17:21.087Z</time>
</trkpt>
<trkpt lat="57.019124" lon="8.472445">
<ele>13.121653</ele>
<time>2026-06-18T14:17:25.300Z</time>
</trkpt>
<trkpt lat="57.019307" lon="8.472306">
<ele>13.004887</ele>
<time>2026-06-18T14:17:29.738Z</time>
</trkpt>
<trkpt lat="57.019738" lon="8.471587">
<ele>12.747640</ele>
<time>2026-06-18T14:17:43.026Z</time>
</trkpt>
<trkpt lat="57.019844" lon="8.471468">
<ele>12.692749</ele>
<time>2026-06-18T14:17:45.872Z</time>
</trkpt>
<trkpt lat="57.019958" lon="8.471401">
<ele>12.639863</ele>
<time>2026-06-18T14:17:48.609Z</time>
</trkpt>
<trkpt lat="57.020082" lon="8.471383">
<ele>12.584901</ele>
<time>2026-06-18T14:17:51.484Z</time>
</trkpt>
<trkpt lat="57.020194" lon="8.471421">
<ele>12.534576</ele>
<time>2026-06-18T14:17:54.097Z</time>
</trkpt>
<trkpt lat="57.020746" lon="8.471738">
<ele>12.279030</ele>
<time>2026-06-18T14:18:07.810Z</time>
</trkpt>
<trkpt lat="57.020787" lon="8.471761">
<ele>12.260088</ele>
<time>2026-06-18T14:18:08.842Z</time>
</trkpt>
<trkpt lat="57.021163" lon="8.472041">
<ele>12.145920</ele>
<time>2026-06-18T14:18:18.706Z</time>
</trkpt>
<trkpt lat="57.021502" lon="8.472379">
<ele>12.043541</ele>
<time>2026-06-18T14:18:28.080Z</time>
</trkpt>
<trkpt lat="57.021724" lon="8.472663">
<ele>11.971737</ele>
<time>2026-06-18T14:18:34.576Z</time>
</trkpt>
<trkpt lat="57.022240" lon="8.473485">
<ele>11.790455</ele>
<time>2026-06-18T14:18:50.542Z</time>
</trkpt>
<trkpt lat="57.022362" lon="8.473635">
<ele>11.762393</ele>
<time>2026-06-18T14:18:53.945Z</time>
</trkpt>
<trkpt lat="57.022617" lon="8.473842">
<ele>11.742335</ele>
<time>2026-06-18T14:19:00.432Z</time>
</trkpt>
<trkpt lat="57.022968" lon="8.473961">
<ele>11.716654</ele>
<time>2026-06-18T14:19:08.871Z</time>
</trkpt>
<trkpt lat="57.023206" lon="8.474118">
<ele>11.698460</ele>
<time>2026-06-18T14:19:14.923Z</time>
</trkpt>
<trkpt lat="57.024966" lon="8.475280">
<ele>11.677137</ele>
<time>2026-06-18T14:20:02.277Z</time>
</trkpt>
<trkpt lat="57.025260" lon="8.475527">
<ele>11.689890</ele>
<time>2026-06-18T14:20:10.391Z</time>
</trkpt>
<trkpt lat="57.025829" lon="8.476096">
<ele>11.643562</ele>
<time>2026-06-18T14:20:26.196Z</time>
</trkpt>
<trkpt lat="57.025936" lon="8.476255">
<ele>11.596633</ele>
<time>2026-06-18T14:20:29.473Z</time>
</trkpt>
<trkpt lat="57.026640" lon="8.477751">
<ele>11.229578</ele>
<time>2026-06-18T14:20:54.537Z</time>
</trkpt>
<trkpt lat="57.027881" lon="8.480664">
<ele>10.555105</ele>
<time>2026-06-18T14:21:40.935Z</time>
</trkpt>
<trkpt lat="57.029328" lon="8.484101">
<ele>11.205979</ele>
<time>2026-06-18T14:22:43.014Z</time>
</trkpt>
<trkpt lat="57.029362" lon="8.484227">
<ele>11.232096</ele>
<time>2026-06-18T14:22:45.090Z</time>
</trkpt>
<trkpt lat="57.029360" lon="8.484594">
<ele>11.300252</ele>
<time>2026-06-18T14:22:50.467Z</time>
</trkpt>
<trkpt lat="57.029385" lon="8.484706">
<ele>11.322732</ele>
<time>2026-06-18T14:22:52.247Z</time>
</trkpt>
<trkpt lat="57.029713" lon="8.485205">
<ele>11.468038</ele>
<time>2026-06-18T14:23:03.457Z</time>
</trkpt>
<trkpt lat="57.030501" lon="8.486424">
<ele>11.618485</ele>
<time>2026-06-18T14:23:29.855Z</time>
</trkpt>
<trkpt lat="57.030608" lon="8.486519">
<ele>11.596909</ele>
<time>2026-06-18T14:23:32.654Z</time>
</trkpt>
<trkpt lat="57.030573" lon="8.486943">
<ele>11.554536</ele>
<time>2026-06-18T14:23:37.634Z</time>
</trkpt>
<trkpt lat="57.030887" lon="8.487091">
<ele>11.495679</ele>
<time>2026-06-18T14:23:44.521Z</time>
</trkpt>
<trkpt lat="57.031045" lon="8.487211">
<ele>11.464638</ele>
<time>2026-06-18T14:23:48.146Z</time>
</trkpt>
<trkpt lat="57.031286" lon="8.487472">
<ele>11.413847</ele>
<time>2026-06-18T14:23:54.114Z</time>
</trkpt>
<trkpt lat="57.032730" lon="8.489675">
<ele>10.869609</ele>
<time>2026-06-18T14:24:33.100Z</time>
</trkpt>
<trkpt lat="57.033052" lon="8.489977">
<ele>10.838053</ele>
<time>2026-06-18T14:24:41.185Z</time>
</trkpt>
<trkpt lat="57.034205" lon="8.490996">
<ele>11.115583</ele>
<time>2026-06-18T14:25:11.180Z</time>
</trkpt>
<trkpt lat="57.034547" lon="8.491290">
<ele>11.194856</ele>
<time>2026-06-18T14:25:20.088Z</time>
</trkpt>
<trkpt lat="57.034698" lon="8.491419">
<ele>11.190967</ele>
<time>2026-06-18T14:25:23.949Z</time>
</trkpt>
<trkpt lat="57.034801" lon="8.491505">
<ele>11.188325</ele>
<time>2026-06-18T14:25:26.544Z</time>
</trkpt>
<trkpt lat="57.035122" lon="8.491782">
<ele>11.180043</ele>
<time>2026-06-18T14:25:34.567Z</time>
</trkpt>
<trkpt lat="57.035907" lon="8.492472">
<ele>11.159722</ele>
<time>2026-06-18T14:25:53.647Z</time>
</trkpt>
<trkpt lat="57.036623" lon="8.493157">
<ele>10.911388</ele>
<time>2026-06-18T14:26:10.680Z</time>
</trkpt>
<trkpt lat="57.037034" lon="8.493544">
<ele>10.698336</ele>
<time>2026-06-18T14:26:20.224Z</time>
</trkpt>
<trkpt lat="57.037273" lon="8.493684">
<ele>10.582608</ele>
<time>2026-06-18T14:26:25.418Z</time>
</trkpt>
<trkpt lat="57.037478" lon="8.493697">
<ele>10.487975</ele>
<time>2026-06-18T14:26:29.634Z</time>
</trkpt>
<trkpt lat="57.038293" lon="8.493543">
<ele>9.901185</ele>
<time>2026-06-18T14:26:46.059Z</time>
</trkpt>
<trkpt lat="57.038507" lon="8.493504">
<ele>9.704852</ele>
<time>2026-06-18T14:26:50.330Z</time>
</trkpt>
<trkpt lat="57.038715" lon="8.493462">
<ele>9.513813</ele>
<time>2026-06-18T14:26:54.404Z</time>
</trkpt>
<trkpt lat="57.039049" lon="8.493401">
<ele>9.207381</ele>
<time>2026-06-18T14:27:00.787Z</time>
</trkpt>
<trkpt lat="57.039220" lon="8.493351">
<ele>9.049300</ele>
<time>2026-06-18T14:27:04.102Z</time>
</trkpt>
<trkpt lat="57.039506" lon="8.493269">
<ele>8.785035</ele>
<time>2026-06-18T14:27:09.618Z</time>
</trkpt>
<trkpt lat="57.039835" lon="8.493097">
<ele>8.504466</ele>
<time>2026-06-18T14:27:16.173Z</time>
</trkpt>
<trkpt lat="57.039954" lon="8.493112">
<ele>8.412135</ele>
<time>2026-06-18T14:27:18.492Z</time>
</trkpt>
<trkpt lat="57.040090" lon="8.493161">
<ele>8.304857</ele>
<time>2026-06-18T14:27:22.112Z</time>
</trkpt>
<trkpt lat="57.039954" lon="8.493112">
<ele>8.197580</ele>
<time>2026-06-18T14:27:25.723Z</time>
</trkpt>
<trkpt lat="57.039959" lon="8.493381">
<ele>8.084227</ele>
<time>2026-06-18T14:27:29.522Z</time>
</trkpt>
<trkpt lat="57.039960" lon="8.493444">
<ele>8.057684</ele>
<time>2026-06-18T14:27:30.218Z</time>
</trkpt>
<trkpt lat="57.039961" lon="8.493656">
<ele>7.968399</ele>
<time>2026-06-18T14:27:32.549Z</time>
</trkpt>
<trkpt lat="57.039970" lon="8.494927">
<ele>7.433087</ele>
<time>2026-06-18T14:27:47.016Z</time>
</trkpt>
<trkpt lat="57.039971" lon="8.495054">
<ele>7.379596</ele>
<time>2026-06-18T14:27:48.573Z</time>
</trkpt>
<trkpt lat="57.039971" lon="8.495237">
<ele>7.302528</ele>
<time>2026-06-18T14:27:50.741Z</time>
</trkpt>
<trkpt lat="57.039974" lon="8.496135">
<ele>7.387415</ele>
<time>2026-06-18T14:28:01.778Z</time>
</trkpt>
<trkpt lat="57.039976" lon="8.496285">
<ele>7.404487</ele>
<time>2026-06-18T14:28:03.684Z</time>
</trkpt>
<trkpt lat="57.039977" lon="8.496662">
<ele>7.447382</ele>
<time>2026-06-18T14:28:08.506Z</time>
</trkpt>
<trkpt lat="57.039981" lon="8.497009">
<ele>7.486872</ele>
<time>2026-06-18T14:28:13.046Z</time>
</trkpt>
<trkpt lat="57.039987" lon="8.497541">
<ele>7.547416</ele>
<time>2026-06-18T14:28:20.159Z</time>
</trkpt>
<trkpt lat="57.039986" lon="8.497831">
<ele>7.580412</ele>
<time>2026-06-18T14:28:24.131Z</time>
</trkpt>
<trkpt lat="57.039998" lon="8.498924">
<ele>7.837624</ele>
<time>2026-06-18T14:28:39.407Z</time>
</trkpt>
<trkpt lat="57.040007" lon="8.500295">
<ele>8.515207</ele>
<time>2026-06-18T14:28:58.693Z</time>
</trkpt>
<trkpt lat="57.040010" lon="8.500713">
<ele>8.721797</ele>
<time>2026-06-18T14:29:04.624Z</time>
</trkpt>
<trkpt lat="57.040017" lon="8.501585">
<ele>9.152777</ele>
<time>2026-06-18T14:29:17.118Z</time>
</trkpt>
<trkpt lat="57.040018" lon="8.501645">
<ele>9.182443</ele>
<time>2026-06-18T14:29:17.990Z</time>
</trkpt>
<trkpt lat="57.040031" lon="8.503459">
<ele>9.947171</ele>
<time>2026-06-18T14:29:44.050Z</time>
</trkpt>
<trkpt lat="57.040036" lon="8.504172">
<ele>10.240017</ele>
<time>2026-06-18T14:29:53.939Z</time>
</trkpt>
<trkpt lat="57.040044" lon="8.505483">
<ele>10.651358</ele>
<time>2026-06-18T14:30:11.007Z</time>
</trkpt>
<trkpt lat="57.040046" lon="8.505942">
<ele>10.643231</ele>
<time>2026-06-18T14:30:16.699Z</time>
</trkpt>
<trkpt lat="57.040054" lon="8.506909">
<ele>10.626110</ele>
<time>2026-06-18T14:30:28.416Z</time>
</trkpt>
<trkpt lat="57.040054" lon="8.506931">
<ele>10.625720</ele>
<time>2026-06-18T14:30:28.680Z</time>
</trkpt>
<trkpt lat="57.040078" lon="8.507287">
<ele>10.619369</ele>
<time>2026-06-18T14:30:32.912Z</time>
</trkpt>
<trkpt lat="57.040111" lon="8.507661">
<ele>10.612661</ele>
<time>2026-06-18T14:30:37.306Z</time>
</trkpt>
<trkpt lat="57.040150" lon="8.508114">
<ele>10.604542</ele>
<time>2026-06-18T14:30:42.523Z</time>
</trkpt>
<trkpt lat="57.040263" lon="8.508975">
<ele>10.522245</ele>
<time>2026-06-18T14:30:52.586Z</time>
</trkpt>
<trkpt lat="57.040487" lon="8.509886">
<ele>10.376661</ele>
<time>2026-06-18T14:31:04.021Z</time>
</trkpt>
<trkpt lat="57.040686" lon="8.510438">
<ele>10.280230</ele>
<time>2026-06-18T14:31:11.676Z</time>
</trkpt>
<trkpt lat="57.041033" lon="8.511088">
<ele>10.147617</ele>
<time>2026-06-18T14:31:22.264Z</time>
</trkpt>
<trkpt lat="57.042178" lon="8.512766">
<ele>10.032056</ele>
<time>2026-06-18T14:31:54.635Z</time>
</trkpt>
<trkpt lat="57.042431" lon="8.513132">
<ele>10.011863</ele>
<time>2026-06-18T14:32:01.761Z</time>
</trkpt>
<trkpt lat="57.042517" lon="8.513250">
<ele>10.005132</ele>
<time>2026-06-18T14:32:04.134Z</time>
</trkpt>
<trkpt lat="57.042803" lon="8.513671">
<ele>9.993627</ele>
<time>2026-06-18T14:32:12.253Z</time>
</trkpt>
<trkpt lat="57.042778" lon="8.513724">
<ele>9.992500</ele>
<time>2026-06-18T14:32:13.089Z</time>
</trkpt>
<trkpt lat="57.042795" lon="8.513775">
<ele>9.991539</ele>
<time>2026-06-18T14:32:13.814Z</time>
</trkpt>
<trkpt lat="57.042915" lon="8.513972">
<ele>9.986789</ele>
<time>2026-06-18T14:32:17.345Z</time>
</trkpt>
<trkpt lat="57.042973" lon="8.514145">
<ele>9.983525</ele>
<time>2026-06-18T14:32:19.767Z</time>
</trkpt>
<trkpt lat="57.043005" lon="8.514551">
<ele>9.976936</ele>
<time>2026-06-18T14:32:24.648Z</time>
</trkpt>
<trkpt lat="57.043048" lon="8.514552">
<ele>9.975666</ele>
<time>2026-06-18T14:32:25.593Z</time>
</trkpt>
<trkpt lat="57.043165" lon="8.514538">
<ele>9.972204</ele>
<time>2026-06-18T14:32:28.165Z</time>
</trkpt>
<trkpt lat="57.043225" lon="8.514527">
<ele>9.970424</ele>
<time>2026-06-18T14:32:29.477Z</time>
</trkpt>
<trkpt lat="57.043282" lon="8.514684">
<ele>9.967392</ele>
<time>2026-06-18T14:32:31.749Z</time>
</trkpt>
<trkpt lat="57.043360" lon="8.514719">
<ele>9.965022</ele>
<time>2026-06-18T14:32:33.530Z</time>
</trkpt>
<trkpt lat="57.044056" lon="8.514587">
<ele>9.884412</ele>
<time>2026-06-18T14:32:49.220Z</time>
</trkpt>
<trkpt lat="57.044063" lon="8.514780">
<ele>9.852041</ele>
<time>2026-06-18T14:32:51.532Z</time>
</trkpt>
<trkpt lat="57.044058" lon="8.514911">
<ele>9.830063</ele>
<time>2026-06-18T14:32:53.102Z</time>
</trkpt>
<trkpt lat="57.044852" lon="8.514822">
<ele>9.585344</ele>
<time>2026-06-18T14:33:10.086Z</time>
</trkpt>
<trkpt lat="57.046249" lon="8.514916">
<ele>8.874780</ele>
<time>2026-06-18T14:33:38.435Z</time>
</trkpt>
<trkpt lat="57.047518" lon="8.515233">
<ele>8.055709</ele>
<time>2026-06-18T14:34:03.862Z</time>
</trkpt>
<trkpt lat="57.048704" lon="8.515709">
<ele>7.391136</ele>
<time>2026-06-18T14:34:28.565Z</time>
</trkpt>
<trkpt lat="57.049848" lon="8.516401">
<ele>7.033149</ele>
<time>2026-06-18T14:34:54.078Z</time>
</trkpt>
<trkpt lat="57.051299" lon="8.517585">
<ele>6.868399</ele>
<time>2026-06-18T14:35:28.742Z</time>
</trkpt>
<trkpt lat="57.051951" lon="8.518242">
<ele>6.895683</ele>
<time>2026-06-18T14:35:45.611Z</time>
</trkpt>
<trkpt lat="57.052571" lon="8.518948">
<ele>6.926502</ele>
<time>2026-06-18T14:36:02.412Z</time>
</trkpt>
<trkpt lat="57.053410" lon="8.520048">
<ele>6.976205</ele>
<time>2026-06-18T14:36:25.770Z</time>
</trkpt>
<trkpt lat="57.058610" lon="8.526984">
<ele>5.896190</ele>
<time>2026-06-18T14:38:43.951Z</time>
</trkpt>
<trkpt lat="57.061556" lon="8.530980">
<ele>6.226471</ele>
<time>2026-06-18T14:40:05.520Z</time>
</trkpt>
<trkpt lat="57.062783" lon="8.532706">
<ele>7.131052</ele>
<time>2026-06-18T14:40:44.732Z</time>
</trkpt>
<trkpt lat="57.063919" lon="8.534478">
<ele>8.289959</ele>
<time>2026-06-18T14:41:23.419Z</time>
</trkpt>
<trkpt lat="57.064630" lon="8.535650">
<ele>8.469013</ele>
<time>2026-06-18T14:41:45.381Z</time>
</trkpt>
<trkpt lat="57.066348" lon="8.538761">
<ele>8.350403</ele>
<time>2026-06-18T14:42:37.989Z</time>
</trkpt>
<trkpt lat="57.066856" lon="8.539566">
<ele>8.195307</ele>
<time>2026-06-18T14:42:52.202Z</time>
</trkpt>
<trkpt lat="57.067271" lon="8.540162">
<ele>8.064484</ele>
<time>2026-06-18T14:43:03.232Z</time>
</trkpt>
<trkpt lat="57.068175" lon="8.541369">
<ele>7.895684</ele>
<time>2026-06-18T14:43:27.260Z</time>
</trkpt>
<trkpt lat="57.068821" lon="8.542063">
<ele>7.915467</ele>
<time>2026-06-18T14:43:43.710Z</time>
</trkpt>
<trkpt lat="57.069539" lon="8.542766">
<ele>7.964444</ele>
<time>2026-06-18T14:44:02.527Z</time>
</trkpt>
<trkpt lat="57.070149" lon="8.543219">
<ele>8.095901</ele>
<time>2026-06-18T14:44:18.105Z</time>
</trkpt>
<trkpt lat="57.071508" lon="8.544051">
<ele>8.103683</ele>
<time>2026-06-18T14:44:50.887Z</time>
</trkpt>
<trkpt lat="57.073108" lon="8.544890">
<ele>7.513500</ele>
<time>2026-06-18T14:45:24.352Z</time>
</trkpt>
<trkpt lat="57.073659" lon="8.545244">
<ele>7.467203</ele>
<time>2026-06-18T14:45:36.626Z</time>
</trkpt>
<trkpt lat="57.075067" lon="8.546339">
<ele>7.585995</ele>
<time>2026-06-18T14:46:12.570Z</time>
</trkpt>
<trkpt lat="57.075955" lon="8.547218">
<ele>7.891083</ele>
<time>2026-06-18T14:46:36.621Z</time>
</trkpt>
<trkpt lat="57.076997" lon="8.548484">
<ele>7.925293</ele>
<time>2026-06-18T14:47:04.357Z</time>
</trkpt>
<trkpt lat="57.080340" lon="8.553393">
<ele>7.602161</ele>
<time>2026-06-18T14:48:37.625Z</time>
</trkpt>
<trkpt lat="57.080556" lon="8.553806">
<ele>7.614741</ele>
<time>2026-06-18T14:48:44.924Z</time>
</trkpt>
<trkpt lat="57.081061" lon="8.554566">
<ele>7.648461</ele>
<time>2026-06-18T14:49:00.085Z</time>
</trkpt>
<trkpt lat="57.081295" lon="8.554758">
<ele>7.661704</ele>
<time>2026-06-18T14:49:05.973Z</time>
</trkpt>
<trkpt lat="57.082770" lon="8.556598">
<ele>7.571405</ele>
<time>2026-06-18T14:49:44.221Z</time>
</trkpt>
<trkpt lat="57.083065" lon="8.556845">
<ele>7.537701</ele>
<time>2026-06-18T14:49:51.249Z</time>
</trkpt>
<trkpt lat="57.083395" lon="8.557247">
<ele>7.531062</ele>
<time>2026-06-18T14:50:00.187Z</time>
</trkpt>
<trkpt lat="57.084440" lon="8.558132">
<ele>7.838969</ele>
<time>2026-06-18T14:50:27.672Z</time>
</trkpt>
<trkpt lat="57.086579" lon="8.559731">
<ele>8.225569</ele>
<time>2026-06-18T14:51:20.739Z</time>
</trkpt>
<trkpt lat="57.086894" lon="8.560039">
<ele>8.131021</ele>
<time>2026-06-18T14:51:28.429Z</time>
</trkpt>
<trkpt lat="57.087215" lon="8.560222">
<ele>8.022340</ele>
<time>2026-06-18T14:51:35.536Z</time>
</trkpt>
<trkpt lat="57.087711" lon="8.560613">
<ele>7.847834</ele>
<time>2026-06-18T14:51:46.723Z</time>
</trkpt>
<trkpt lat="57.087740" lon="8.560488">
<ele>7.823950</ele>
<time>2026-06-18T14:51:49.318Z</time>
</trkpt>
<trkpt lat="57.089321" lon="8.561860">
<ele>7.242448</ele>
<time>2026-06-18T14:52:25.335Z</time>
</trkpt>
<trkpt lat="57.090914" lon="8.563436">
<ele>6.856456</ele>
<time>2026-06-18T14:53:04.953Z</time>
</trkpt>
<trkpt lat="57.092844" lon="8.565515">
<ele>6.492341</ele>
<time>2026-06-18T14:53:52.723Z</time>
</trkpt>
<trkpt lat="57.097511" lon="8.570650">
<ele>7.033351</ele>
<time>2026-06-18T14:55:56.136Z</time>
</trkpt>
<trkpt lat="57.097543" lon="8.570685">
<ele>7.038189</ele>
<time>2026-06-18T14:55:56.999Z</time>
</trkpt>
<trkpt lat="57.099887" lon="8.573264">
<ele>7.372202</ele>
<time>2026-06-18T14:57:00.321Z</time>
</trkpt>
<trkpt lat="57.106859" lon="8.580938">
<ele>6.234819</ele>
<time>2026-06-18T14:59:55.747Z</time>
</trkpt>
<trkpt lat="57.107383" lon="8.581484">
<ele>6.096312</ele>
<time>2026-06-18T15:00:08.291Z</time>
</trkpt>
<trkpt lat="57.107907" lon="8.582030">
<ele>5.957786</ele>
<time>2026-06-18T15:00:21.040Z</time>
</trkpt>
<trkpt lat="57.108588" lon="8.582891">
<ele>5.712412</ele>
<time>2026-06-18T15:00:39.268Z</time>
</trkpt>
<trkpt lat="57.109018" lon="8.583639">
<ele>5.434492</ele>
<time>2026-06-18T15:00:51.825Z</time>
</trkpt>
<trkpt lat="57.109063" lon="8.583718">
<ele>5.405281</ele>
<time>2026-06-18T15:00:53.088Z</time>
</trkpt>
<trkpt lat="57.109297" lon="8.584205">
<ele>5.239371</ele>
<time>2026-06-18T15:01:00.153Z</time>
</trkpt>
<trkpt lat="57.109473" lon="8.584655">
<ele>5.097879</ele>
<time>2026-06-18T15:01:06.138Z</time>
</trkpt>
<trkpt lat="57.109426" lon="8.584757">
<ele>5.063749</ele>
<time>2026-06-18T15:01:08.661Z</time>
</trkpt>
<trkpt lat="57.109376" lon="8.584915">
<ele>5.017091</ele>
<time>2026-06-18T15:01:10.618Z</time>
</trkpt>
<trkpt lat="57.109333" lon="8.585229">
<ele>4.949378</ele>
<time>2026-06-18T15:01:14.129Z</time>
</trkpt>
<trkpt lat="57.109219" lon="8.586334">
<ele>4.766091</ele>
<time>2026-06-18T15:01:26.343Z</time>
</trkpt>
<trkpt lat="57.109395" lon="8.587437">
<ele>4.578752</ele>
<time>2026-06-18T15:01:39.575Z</time>
</trkpt>
<trkpt lat="57.109420" lon="8.587431">
<ele>4.571187</ele>
<time>2026-06-18T15:01:40.131Z</time>
</trkpt>
<trkpt lat="57.109546" lon="8.587593">
<ele>4.525073</ele>
<time>2026-06-18T15:01:43.646Z</time>
</trkpt>
<trkpt lat="57.109898" lon="8.587679">
<ele>4.462329</ele>
<time>2026-06-18T15:01:51.894Z</time>
</trkpt>
<trkpt lat="57.109947" lon="8.587713">
<ele>4.486007</ele>
<time>2026-06-18T15:01:53.892Z</time>
</trkpt>
<trkpt lat="57.110081" lon="8.589200">
<ele>4.856146</ele>
<time>2026-06-18T15:02:13.439Z</time>
</trkpt>
<trkpt lat="57.110108" lon="8.589258">
<ele>4.874906</ele>
<time>2026-06-18T15:02:14.452Z</time>
</trkpt>
<trkpt lat="57.110229" lon="8.589229">
<ele>4.930084</ele>
<time>2026-06-18T15:02:17.418Z</time>
</trkpt>
<trkpt lat="57.110292" lon="8.589284">
<ele>4.961612</ele>
<time>2026-06-18T15:02:19.142Z</time>
</trkpt>
<trkpt lat="57.110352" lon="8.589287">
<ele>4.988754</ele>
<time>2026-06-18T15:02:20.620Z</time>
</trkpt>
<trkpt lat="57.110369" lon="8.589078">
<ele>5.040648</ele>
<time>2026-06-18T15:02:23.456Z</time>
</trkpt>
<trkpt lat="57.110397" lon="8.589002">
<ele>5.063200</ele>
<time>2026-06-18T15:02:24.689Z</time>
</trkpt>
<trkpt lat="57.110537" lon="8.588873">
<ele>5.133991</ele>
<time>2026-06-18T15:02:28.561Z</time>
</trkpt>
<trkpt lat="57.111359" lon="8.588792">
<ele>5.518447</ele>
<time>2026-06-18T15:02:48.710Z</time>
</trkpt>
<trkpt lat="57.111911" lon="8.588795">
<ele>5.779932</ele>
<time>2026-06-18T15:03:01.810Z</time>
</trkpt>
<trkpt lat="57.112420" lon="8.588874">
<ele>6.021902</ele>
<time>2026-06-18T15:03:13.876Z</time>
</trkpt>
<trkpt lat="57.113234" lon="8.589105">
<ele>6.570719</ele>
<time>2026-06-18T15:03:34.018Z</time>
</trkpt>
<trkpt lat="57.114420" lon="8.589638">
<ele>7.478505</ele>
<time>2026-06-18T15:04:05.276Z</time>
</trkpt>
<trkpt lat="57.115476" lon="8.590151">
<ele>8.738021</ele>
<time>2026-06-18T15:04:34.264Z</time>
</trkpt>
<trkpt lat="57.115703" lon="8.590319">
<ele>9.020160</ele>
<time>2026-06-18T15:04:40.954Z</time>
</trkpt>
<trkpt lat="57.116123" lon="8.590752">
<ele>9.474914</ele>
<time>2026-06-18T15:04:54.504Z</time>
</trkpt>
<trkpt lat="57.116371" lon="8.591088">
<ele>9.512942</ele>
<time>2026-06-18T15:05:03.206Z</time>
</trkpt>
<trkpt lat="57.116569" lon="8.591425">
<ele>9.546241</ele>
<time>2026-06-18T15:05:10.351Z</time>
</trkpt>
<trkpt lat="57.116747" lon="8.591813">
<ele>9.580307</ele>
<time>2026-06-18T15:05:17.020Z</time>
</trkpt>
<trkpt lat="57.116953" lon="8.592374">
<ele>9.625725</ele>
<time>2026-06-18T15:05:24.854Z</time>
</trkpt>
<trkpt lat="57.117697" lon="8.595132">
<ele>7.831608</ele>
<time>2026-06-18T15:05:55.874Z</time>
</trkpt>
<trkpt lat="57.117887" lon="8.595839">
<ele>7.165539</ele>
<time>2026-06-18T15:06:03.347Z</time>
</trkpt>
<trkpt lat="57.117872" lon="8.596089">
<ele>6.953172</ele>
<time>2026-06-18T15:06:05.747Z</time>
</trkpt>
<trkpt lat="57.117901" lon="8.596231">
<ele>6.835421</ele>
<time>2026-06-18T15:06:07.156Z</time>
</trkpt>
<trkpt lat="57.118048" lon="8.596067">
<ele>6.612201</ele>
<time>2026-06-18T15:06:10.220Z</time>
</trkpt>
<trkpt lat="57.118144" lon="8.596355">
<ele>6.373896</ele>
<time>2026-06-18T15:06:13.573Z</time>
</trkpt>
<trkpt lat="57.118193" lon="8.596503">
<ele>6.251660</ele>
<time>2026-06-18T15:06:15.298Z</time>
</trkpt>
<trkpt lat="57.118324" lon="8.596898">
<ele>5.925271</ele>
<time>2026-06-18T15:06:19.945Z</time>
</trkpt>
<trkpt lat="57.118624" lon="8.597819">
<ele>5.167914</ele>
<time>2026-06-18T15:06:30.206Z</time>
</trkpt>
<trkpt lat="57.118730" lon="8.598135">
<ele>4.905990</ele>
<time>2026-06-18T15:06:34.278Z</time>
</trkpt>
<trkpt lat="57.118974" lon="8.598870">
<ele>4.622088</ele>
<time>2026-06-18T15:06:44.623Z</time>
</trkpt>
<trkpt lat="57.119686" lon="8.601047">
<ele>5.120255</ele>
<time>2026-06-18T15:07:18.364Z</time>
</trkpt>
<trkpt lat="57.120198" lon="8.602651">
<ele>5.721816</ele>
<time>2026-06-18T15:07:42.626Z</time>
</trkpt>
<trkpt lat="57.121322" lon="8.606075">
<ele>7.387675</ele>
<time>2026-06-18T15:08:38.018Z</time>
</trkpt>
<trkpt lat="57.121516" lon="8.606679">
<ele>7.714637</ele>
<time>2026-06-18T15:08:47.600Z</time>
</trkpt>
<trkpt lat="57.122008" lon="8.608213">
<ele>8.812027</ele>
<time>2026-06-18T15:09:13.399Z</time>
</trkpt>
<trkpt lat="57.122132" lon="8.608690">
<ele>9.166609</ele>
<time>2026-06-18T15:09:21.399Z</time>
</trkpt>
<trkpt lat="57.122403" lon="8.609806">
<ele>9.986273</ele>
<time>2026-06-18T15:09:41.288Z</time>
</trkpt>
<trkpt lat="57.122553" lon="8.610574">
<ele>9.839929</ele>
<time>2026-06-18T15:09:52.864Z</time>
</trkpt>
<trkpt lat="57.122703" lon="8.611688">
<ele>9.190500</ele>
<time>2026-06-18T15:10:04.721Z</time>
</trkpt>
<trkpt lat="57.122969" lon="8.611545">
<ele>8.901674</ele>
<time>2026-06-18T15:10:09.663Z</time>
</trkpt>
<trkpt lat="57.123069" lon="8.611443">
<ele>8.782529</ele>
<time>2026-06-18T15:10:11.640Z</time>
</trkpt>
<trkpt lat="57.123402" lon="8.612103">
<ele>8.272377</ele>
<time>2026-06-18T15:10:20.015Z</time>
</trkpt>
<trkpt lat="57.123564" lon="8.612575">
<ele>7.946268</ele>
<time>2026-06-18T15:10:25.007Z</time>
</trkpt>
<trkpt lat="57.124729" lon="8.618217">
<ele>5.248766</ele>
<time>2026-06-18T15:11:31.232Z</time>
</trkpt>
<trkpt lat="57.124859" lon="8.618848">
<ele>5.199472</ele>
<time>2026-06-18T15:11:38.780Z</time>
</trkpt>
<trkpt lat="57.124871" lon="8.618903">
<ele>5.195486</ele>
<time>2026-06-18T15:11:39.444Z</time>
</trkpt>
<trkpt lat="57.124997" lon="8.619603">
<ele>5.145894</ele>
<time>2026-06-18T15:11:47.960Z</time>
</trkpt>
<trkpt lat="57.125047" lon="8.620101">
<ele>5.111838</ele>
<time>2026-06-18T15:11:53.960Z</time>
</trkpt>
<trkpt lat="57.125048" lon="8.620158">
<ele>5.108003</ele>
<time>2026-06-18T15:11:54.640Z</time>
</trkpt>
<trkpt lat="57.125043" lon="8.620654">
<ele>5.074644</ele>
<time>2026-06-18T15:12:00.628Z</time>
</trkpt>
<trkpt lat="57.125028" lon="8.620881">
<ele>5.059267</ele>
<time>2026-06-18T15:12:03.423Z</time>
</trkpt>
<trkpt lat="57.124953" lon="8.621272">
<ele>5.031381</ele>
<time>2026-06-18T15:12:08.567Z</time>
</trkpt>
<trkpt lat="57.124839" lon="8.621688">
<ele>5.046594</ele>
<time>2026-06-18T15:12:14.527Z</time>
</trkpt>
<trkpt lat="57.124749" lon="8.621911">
<ele>5.069324</ele>
<time>2026-06-18T15:12:18.129Z</time>
</trkpt>
<trkpt lat="57.124631" lon="8.622145">
<ele>5.095449</ele>
<time>2026-06-18T15:12:22.273Z</time>
</trkpt>
<trkpt lat="57.123968" lon="8.623382">
<ele>5.237644</ele>
<time>2026-06-18T15:12:44.163Z</time>
</trkpt>
<trkpt lat="57.123783" lon="8.623722">
<ele>5.277021</ele>
<time>2026-06-18T15:12:49.912Z</time>
</trkpt>
<trkpt lat="57.123456" lon="8.624329">
<ele>5.188076</ele>
<time>2026-06-18T15:12:59.822Z</time>
</trkpt>
<trkpt lat="57.123265" lon="8.624685">
<ele>5.110498</ele>
<time>2026-06-18T15:13:05.489Z</time>
</trkpt>
<trkpt lat="57.122958" lon="8.625423">
<ele>4.966392</ele>
<time>2026-06-18T15:13:16.053Z</time>
</trkpt>
<trkpt lat="57.122742" lon="8.626071">
<ele>4.848534</ele>
<time>2026-06-18T15:13:24.800Z</time>
</trkpt>
<trkpt lat="57.122667" lon="8.626341">
<ele>4.801525</ele>
<time>2026-06-18T15:13:28.285Z</time>
</trkpt>
<trkpt lat="57.122532" lon="8.626829">
<ele>4.721457</ele>
<time>2026-06-18T15:13:34.582Z</time>
</trkpt>
<trkpt lat="57.122378" lon="8.627592">
<ele>4.605120</ele>
<time>2026-06-18T15:13:44.065Z</time>
</trkpt>
<trkpt lat="57.122211" lon="8.628695">
<ele>4.441467</ele>
<time>2026-06-18T15:13:57.617Z</time>
</trkpt>
<trkpt lat="57.122112" lon="8.629947">
<ele>4.235807</ele>
<time>2026-06-18T15:14:12.062Z</time>
</trkpt>
<trkpt lat="57.122035" lon="8.630919">
<ele>4.016804</ele>
<time>2026-06-18T15:14:23.010Z</time>
</trkpt>
<trkpt lat="57.121902" lon="8.632637">
<ele>3.629899</ele>
<time>2026-06-18T15:14:42.493Z</time>
</trkpt>
<trkpt lat="57.121863" lon="8.633099">
<ele>3.568995</ele>
<time>2026-06-18T15:14:51.522Z</time>
</trkpt>
<trkpt lat="57.121947" lon="8.634463">
<ele>3.589313</ele>
<time>2026-06-18T15:15:18.385Z</time>
</trkpt>
<trkpt lat="57.121934" lon="8.634739">
<ele>3.593413</ele>
<time>2026-06-18T15:15:23.960Z</time>
</trkpt>
<trkpt lat="57.121912" lon="8.634973">
<ele>3.596928</ele>
<time>2026-06-18T15:15:28.742Z</time>
</trkpt>
<trkpt lat="57.121727" lon="8.635715">
<ele>3.609013</ele>
<time>2026-06-18T15:15:45.482Z</time>
</trkpt>
<trkpt lat="57.121685" lon="8.636890">
<ele>3.890775</ele>
<time>2026-06-18T15:16:10.702Z</time>
</trkpt>
<trkpt lat="57.121538" lon="8.638320">
<ele>4.425060</ele>
<time>2026-06-18T15:16:42.980Z</time>
</trkpt>
<trkpt lat="57.121220" lon="8.639788">
<ele>4.861925</ele>
<time>2026-06-18T15:17:17.195Z</time>
</trkpt>
<trkpt lat="57.121211" lon="8.639833">
<ele>4.864994</ele>
<time>2026-06-18T15:17:18.207Z</time>
</trkpt>
<trkpt lat="57.120222" lon="8.644447">
<ele>5.015625</ele>
<time>2026-06-18T15:18:24.029Z</time>
</trkpt>
<trkpt lat="57.119931" lon="8.645551">
<ele>5.003532</ele>
<time>2026-06-18T15:18:40.644Z</time>
</trkpt>
<trkpt lat="57.119233" lon="8.648237">
<ele>5.102335</ele>
<time>2026-06-18T15:19:20.480Z</time>
</trkpt>
<trkpt lat="57.119055" lon="8.649372">
<ele>5.725018</ele>
<time>2026-06-18T15:19:37.171Z</time>
</trkpt>
<trkpt lat="57.118931" lon="8.649890">
<ele>6.099521</ele>
<time>2026-06-18T15:19:45.703Z</time>
</trkpt>
<trkpt lat="57.118434" lon="8.651393">
<ele>7.263715</ele>
<time>2026-06-18T15:20:16.879Z</time>
</trkpt>
<trkpt lat="57.117872" lon="8.653122">
<ele>7.497007</ele>
<time>2026-06-18T15:20:51.422Z</time>
</trkpt>
<trkpt lat="57.117723" lon="8.653526">
<ele>7.545584</ele>
<time>2026-06-18T15:20:57.212Z</time>
</trkpt>
<trkpt lat="57.117755" lon="8.653841">
<ele>7.577458</ele>
<time>2026-06-18T15:21:00.732Z</time>
</trkpt>
<trkpt lat="57.117983" lon="8.655048">
<ele>6.836091</ele>
<time>2026-06-18T15:21:13.914Z</time>
</trkpt>
<trkpt lat="57.118032" lon="8.655492">
<ele>6.342578</ele>
<time>2026-06-18T15:21:18.377Z</time>
</trkpt>
<trkpt lat="57.118000" lon="8.655651">
<ele>6.157872</ele>
<time>2026-06-18T15:21:20.023Z</time>
</trkpt>
<trkpt lat="57.117475" lon="8.657205">
<ele>4.164219</ele>
<time>2026-06-18T15:21:39.781Z</time>
</trkpt>
<trkpt lat="57.117336" lon="8.657957">
<ele>4.076989</ele>
<time>2026-06-18T15:21:50.344Z</time>
</trkpt>
<trkpt lat="57.116389" lon="8.662213">
<ele>5.213160</ele>
<time>2026-06-18T15:22:57.046Z</time>
</trkpt>
<trkpt lat="57.115634" lon="8.665426">
<ele>7.070006</ele>
<time>2026-06-18T15:23:54.843Z</time>
</trkpt>
<trkpt lat="57.115504" lon="8.666223">
<ele>7.541966</ele>
<time>2026-06-18T15:24:07.707Z</time>
</trkpt>
<trkpt lat="57.114740" lon="8.670132">
<ele>7.570835</ele>
<time>2026-06-18T15:25:02.674Z</time>
</trkpt>
<trkpt lat="57.114677" lon="8.670324">
<ele>7.514595</ele>
<time>2026-06-18T15:25:05.448Z</time>
</trkpt>
<trkpt lat="57.114534" lon="8.670570">
<ele>7.424248</ele>
<time>2026-06-18T15:25:09.959Z</time>
</trkpt>
<trkpt lat="57.114479" lon="8.670716">
<ele>7.379700</ele>
<time>2026-06-18T15:25:12.205Z</time>
</trkpt>
<trkpt lat="57.114444" lon="8.670869">
<ele>7.338078</ele>
<time>2026-06-18T15:25:14.263Z</time>
</trkpt>
<trkpt lat="57.114438" lon="8.671031">
<ele>7.297371</ele>
<time>2026-06-18T15:25:16.361Z</time>
</trkpt>
<trkpt lat="57.114543" lon="8.671380">
<ele>7.197345</ele>
<time>2026-06-18T15:25:21.341Z</time>
</trkpt>
<trkpt lat="57.114545" lon="8.671651">
<ele>7.129401</ele>
<time>2026-06-18T15:25:24.692Z</time>
</trkpt>
<trkpt lat="57.114455" lon="8.672363">
<ele>6.946133</ele>
<time>2026-06-18T15:25:33.553Z</time>
</trkpt>
<trkpt lat="57.114312" lon="8.673024">
<ele>6.772235</ele>
<time>2026-06-18T15:25:42.081Z</time>
</trkpt>
<trkpt lat="57.114102" lon="8.673695">
<ele>6.586928</ele>
<time>2026-06-18T15:25:51.566Z</time>
</trkpt>
<trkpt lat="57.113978" lon="8.675465">
<ele>6.159919</ele>
<time>2026-06-18T15:26:13.356Z</time>
</trkpt>
<trkpt lat="57.113856" lon="8.676217">
<ele>6.305481</ele>
<time>2026-06-18T15:26:24.638Z</time>
</trkpt>
<trkpt lat="57.113775" lon="8.676486">
<ele>6.474121</ele>
<time>2026-06-18T15:26:29.513Z</time>
</trkpt>
<trkpt lat="57.113479" lon="8.677093">
<ele>6.921422</ele>
<time>2026-06-18T15:26:43.396Z</time>
</trkpt>
<trkpt lat="57.113317" lon="8.677608">
<ele>7.247735</ele>
<time>2026-06-18T15:26:53.325Z</time>
</trkpt>
<trkpt lat="57.113146" lon="8.678006">
<ele>7.525993</ele>
<time>2026-06-18T15:27:01.580Z</time>
</trkpt>
<trkpt lat="57.113031" lon="8.678528">
<ele>7.834846</ele>
<time>2026-06-18T15:27:10.546Z</time>
</trkpt>
<trkpt lat="57.112996" lon="8.678933">
<ele>7.796298</ele>
<time>2026-06-18T15:27:16.798Z</time>
</trkpt>
<trkpt lat="57.112977" lon="8.679456">
<ele>7.638794</ele>
<time>2026-06-18T15:27:24.308Z</time>
</trkpt>
<trkpt lat="57.112926" lon="8.679600">
<ele>7.587134</ele>
<time>2026-06-18T15:27:26.677Z</time>
</trkpt>
<trkpt lat="57.112477" lon="8.680240">
<ele>7.272933</ele>
<time>2026-06-18T15:27:39.411Z</time>
</trkpt>
<trkpt lat="57.112413" lon="8.680385">
<ele>7.216784</ele>
<time>2026-06-18T15:27:41.528Z</time>
</trkpt>
<trkpt lat="57.112201" lon="8.681092">
<ele>6.974097</ele>
<time>2026-06-18T15:27:50.687Z</time>
</trkpt>
<trkpt lat="57.112093" lon="8.681582">
<ele>6.680864</ele>
<time>2026-06-18T15:27:56.580Z</time>
</trkpt>
<trkpt lat="57.112094" lon="8.681725">
<ele>6.564823</ele>
<time>2026-06-18T15:27:58.145Z</time>
</trkpt>
<trkpt lat="57.112156" lon="8.681978">
<ele>6.339600</ele>
<time>2026-06-18T15:28:01.170Z</time>
</trkpt>
<trkpt lat="57.112153" lon="8.682072">
<ele>6.263196</ele>
<time>2026-06-18T15:28:02.196Z</time>
</trkpt>
<trkpt lat="57.112089" lon="8.682412">
<ele>5.971212</ele>
<time>2026-06-18T15:28:06.080Z</time>
</trkpt>
<trkpt lat="57.112016" lon="8.682593">
<ele>5.788268</ele>
<time>2026-06-18T15:28:08.513Z</time>
</trkpt>
<trkpt lat="57.111929" lon="8.683013">
<ele>5.423521</ele>
<time>2026-06-18T15:28:13.381Z</time>
</trkpt>
<trkpt lat="57.111757" lon="8.683501">
<ele>4.951450</ele>
<time>2026-06-18T15:28:19.797Z</time>
</trkpt>
<trkpt lat="57.111695" lon="8.684328">
<ele>4.274045</ele>
<time>2026-06-18T15:28:29.392Z</time>
</trkpt>
<trkpt lat="57.111660" lon="8.684562">
<ele>4.200499</ele>
<time>2026-06-18T15:28:32.320Z</time>
</trkpt>
<trkpt lat="57.111347" lon="8.685631">
<ele>4.155062</ele>
<time>2026-06-18T15:28:48.029Z</time>
</trkpt>
<trkpt lat="57.111020" lon="8.686366">
<ele>4.119513</ele>
<time>2026-06-18T15:29:01.342Z</time>
</trkpt>
<trkpt lat="57.110932" lon="8.686796">
<ele>4.102321</ele>
<time>2026-06-18T15:29:07.833Z</time>
</trkpt>
<trkpt lat="57.110711" lon="8.687274">
<ele>4.089555</ele>
<time>2026-06-18T15:29:16.711Z</time>
</trkpt>
<trkpt lat="57.110442" lon="8.688291">
<ele>4.169644</ele>
<time>2026-06-18T15:29:32.598Z</time>
</trkpt>
<trkpt lat="57.110320" lon="8.688550">
<ele>4.193919</ele>
<time>2026-06-18T15:29:37.373Z</time>
</trkpt>
<trkpt lat="57.110183" lon="8.688657">
<ele>4.213321</ele>
<time>2026-06-18T15:29:41.180Z</time>
</trkpt>
<trkpt lat="57.110134" lon="8.688743">
<ele>4.222146</ele>
<time>2026-06-18T15:29:42.913Z</time>
</trkpt>
<trkpt lat="57.110069" lon="8.688987">
<ele>4.241388</ele>
<time>2026-06-18T15:29:46.637Z</time>
</trkpt>
<trkpt lat="57.110031" lon="8.689377">
<ele>4.269441</ele>
<time>2026-06-18T15:29:51.998Z</time>
</trkpt>
<trkpt lat="57.109890" lon="8.689896">
<ele>4.310528</ele>
<time>2026-06-18T15:29:59.712Z</time>
</trkpt>
<trkpt lat="57.109901" lon="8.690704">
<ele>4.117542</ele>
<time>2026-06-18T15:30:10.146Z</time>
</trkpt>
<trkpt lat="57.109948" lon="8.691070">
<ele>4.012777</ele>
<time>2026-06-18T15:30:14.876Z</time>
</trkpt>
<trkpt lat="57.109831" lon="8.691856">
<ele>3.785750</ele>
<time>2026-06-18T15:30:24.880Z</time>
</trkpt>
<trkpt lat="57.109510" lon="8.692870">
<ele>3.458795</ele>
<time>2026-06-18T15:30:39.148Z</time>
</trkpt>
<trkpt lat="57.109319" lon="8.693467">
<ele>3.342274</ele>
<time>2026-06-18T15:30:47.699Z</time>
</trkpt>
<trkpt lat="57.109096" lon="8.694355">
<ele>3.231847</ele>
<time>2026-06-18T15:31:00.044Z</time>
</trkpt>
<trkpt lat="57.108580" lon="8.695896">
<ele>3.027505</ele>
<time>2026-06-18T15:31:24.159Z</time>
</trkpt>
<trkpt lat="57.108021" lon="8.697805">
<ele>3.091928</ele>
<time>2026-06-18T15:31:53.938Z</time>
</trkpt>
<trkpt lat="57.107741" lon="8.698667">
<ele>3.125959</ele>
<time>2026-06-18T15:32:07.544Z</time>
</trkpt>
<trkpt lat="57.107683" lon="8.698921">
<ele>3.130261</ele>
<time>2026-06-18T15:32:11.234Z</time>
</trkpt>
<trkpt lat="57.107582" lon="8.699604">
<ele>3.106753</ele>
<time>2026-06-18T15:32:20.681Z</time>
</trkpt>
<trkpt lat="57.107565" lon="8.699854">
<ele>3.098386</ele>
<time>2026-06-18T15:32:24.034Z</time>
</trkpt>
<trkpt lat="57.107414" lon="8.700948">
<ele>3.060899</ele>
<time>2026-06-18T15:32:39.007Z</time>
</trkpt>
<trkpt lat="57.107271" lon="8.701652">
<ele>3.035937</ele>
<time>2026-06-18T15:32:48.907Z</time>
</trkpt>
<trkpt lat="57.107124" lon="8.702166">
<ele>3.012228</ele>
<time>2026-06-18T15:32:56.568Z</time>
</trkpt>
<trkpt lat="57.107052" lon="8.702417">
<ele>2.995993</ele>
<time>2026-06-18T15:33:00.314Z</time>
</trkpt>
<trkpt lat="57.106918" lon="8.703114">
<ele>2.953705</ele>
<time>2026-06-18T15:33:10.103Z</time>
</trkpt>
<trkpt lat="57.106811" lon="8.703865">
<ele>2.909299</ele>
<time>2026-06-18T15:33:20.398Z</time>
</trkpt>
<trkpt lat="57.106653" lon="8.704465">
<ele>2.871161</ele>
<time>2026-06-18T15:33:29.174Z</time>
</trkpt>
<trkpt lat="57.106511" lon="8.704836">
<ele>2.845201</ele>
<time>2026-06-18T15:33:35.164Z</time>
</trkpt>
<trkpt lat="57.106447" lon="8.705086">
<ele>2.829952</ele>
<time>2026-06-18T15:33:38.821Z</time>
</trkpt>
<trkpt lat="57.106044" lon="8.707244">
<ele>2.717929</ele>
<time>2026-06-18T15:34:09.002Z</time>
</trkpt>
<trkpt lat="57.105996" lon="8.708374">
<ele>2.667070</ele>
<time>2026-06-18T15:34:23.981Z</time>
</trkpt>
<trkpt lat="57.105869" lon="8.709158">
<ele>2.649591</ele>
<time>2026-06-18T15:34:34.815Z</time>
</trkpt>
<trkpt lat="57.105521" lon="8.710679">
<ele>2.614331</ele>
<time>2026-06-18T15:34:56.887Z</time>
</trkpt>
<trkpt lat="57.105458" lon="8.710954">
<ele>2.607954</ele>
<time>2026-06-18T15:35:00.898Z</time>
</trkpt>
<trkpt lat="57.105374" lon="8.711242">
<ele>2.600970</ele>
<time>2026-06-18T15:35:05.318Z</time>
</trkpt>
<trkpt lat="57.105160" lon="8.711775">
<ele>2.598089</ele>
<time>2026-06-18T15:35:14.229Z</time>
</trkpt>
<trkpt lat="57.104762" lon="8.712925">
<ele>2.593869</ele>
<time>2026-06-18T15:35:32.509Z</time>
</trkpt>
<trkpt lat="57.104474" lon="8.713460">
<ele>2.591537</ele>
<time>2026-06-18T15:35:42.713Z</time>
</trkpt>
<trkpt lat="57.104346" lon="8.713877">
<ele>2.590055</ele>
<time>2026-06-18T15:35:49.160Z</time>
</trkpt>
<trkpt lat="57.104095" lon="8.714368">
<ele>2.555744</ele>
<time>2026-06-18T15:35:58.128Z</time>
</trkpt>
<trkpt lat="57.104014" lon="8.714678">
<ele>2.535429</ele>
<time>2026-06-18T15:36:02.682Z</time>
</trkpt>
<trkpt lat="57.103882" lon="8.715438">
<ele>2.488309</ele>
<time>2026-06-18T15:36:13.130Z</time>
</trkpt>
<trkpt lat="57.103828" lon="8.715634">
<ele>2.475330</ele>
<time>2026-06-18T15:36:16.011Z</time>
</trkpt>
<trkpt lat="57.103533" lon="8.716236">
<ele>2.427447</ele>
<time>2026-06-18T15:36:26.605Z</time>
</trkpt>
<trkpt lat="57.103437" lon="8.716810">
<ele>2.397033</ele>
<time>2026-06-18T15:36:34.402Z</time>
</trkpt>
<trkpt lat="57.103402" lon="8.716906">
<ele>2.405886</ele>
<time>2026-06-18T15:36:35.900Z</time>
</trkpt>
<trkpt lat="57.103184" lon="8.717289">
<ele>2.448366</ele>
<time>2026-06-18T15:36:43.232Z</time>
</trkpt>
<trkpt lat="57.103144" lon="8.717695">
<ele>2.479961</ele>
<time>2026-06-18T15:36:48.796Z</time>
</trkpt>
<trkpt lat="57.103053" lon="8.718041">
<ele>2.509397</ele>
<time>2026-06-18T15:36:54.027Z</time>
</trkpt>
<trkpt lat="57.103038" lon="8.718180">
<ele>2.520248</ele>
<time>2026-06-18T15:36:55.947Z</time>
</trkpt>
<trkpt lat="57.103065" lon="8.718495">
<ele>2.544666</ele>
<time>2026-06-18T15:37:00.313Z</time>
</trkpt>
<trkpt lat="57.103056" lon="8.718662">
<ele>2.557516</ele>
<time>2026-06-18T15:37:02.643Z</time>
</trkpt>
<trkpt lat="57.102760" lon="8.719589">
<ele>2.639854</ele>
<time>2026-06-18T15:37:17.848Z</time>
</trkpt>
<trkpt lat="57.102681" lon="8.720015">
<ele>2.710609</ele>
<time>2026-06-18T15:37:24.297Z</time>
</trkpt>
<trkpt lat="57.102635" lon="8.720151">
<ele>2.739629</ele>
<time>2026-06-18T15:37:26.617Z</time>
</trkpt>
<trkpt lat="57.102501" lon="8.720370">
<ele>2.799384</ele>
<time>2026-06-18T15:37:31.356Z</time>
</trkpt>
<trkpt lat="57.102456" lon="8.720512">
<ele>2.829164</ele>
<time>2026-06-18T15:37:33.723Z</time>
</trkpt>
<trkpt lat="57.102375" lon="8.721091">
<ele>2.937465</ele>
<time>2026-06-18T15:37:42.272Z</time>
</trkpt>
<trkpt lat="57.102136" lon="8.721706">
<ele>3.074442</ele>
<time>2026-06-18T15:37:52.954Z</time>
</trkpt>
<trkpt lat="57.102082" lon="8.722085">
<ele>3.145416</ele>
<time>2026-06-18T15:37:58.501Z</time>
</trkpt>
<trkpt lat="57.102023" lon="8.722247">
<ele>3.180747</ele>
<time>2026-06-18T15:38:01.232Z</time>
</trkpt>
<trkpt lat="57.101946" lon="8.722369">
<ele>3.214626</ele>
<time>2026-06-18T15:38:03.845Z</time>
</trkpt>
<trkpt lat="57.101755" lon="8.722556">
<ele>3.277175</ele>
<time>2026-06-18T15:38:09.381Z</time>
</trkpt>
<trkpt lat="57.101723" lon="8.722629">
<ele>3.290006</ele>
<time>2026-06-18T15:38:10.678Z</time>
</trkpt>
<trkpt lat="57.101717" lon="8.722887">
<ele>3.325326</ele>
<time>2026-06-18T15:38:14.239Z</time>
</trkpt>
<trkpt lat="57.101797" lon="8.723308">
<ele>3.386330</ele>
<time>2026-06-18T15:38:20.362Z</time>
</trkpt>
<trkpt lat="57.101784" lon="8.723999">
<ele>3.480898</ele>
<time>2026-06-18T15:38:29.821Z</time>
</trkpt>
<trkpt lat="57.101709" lon="8.724319">
<ele>3.528566</ele>
<time>2026-06-18T15:38:34.620Z</time>
</trkpt>
<trkpt lat="57.101521" lon="8.724720">
<ele>3.601019</ele>
<time>2026-06-18T15:38:41.958Z</time>
</trkpt>
<trkpt lat="57.101512" lon="8.724976">
<ele>3.636106</ele>
<time>2026-06-18T15:38:45.578Z</time>
</trkpt>
<trkpt lat="57.101555" lon="8.725277">
<ele>3.678676</ele>
<time>2026-06-18T15:38:50.024Z</time>
</trkpt>
<trkpt lat="57.101540" lon="8.725503">
<ele>3.706387</ele>
<time>2026-06-18T15:38:53.308Z</time>
</trkpt>
<trkpt lat="57.101384" lon="8.726066">
<ele>3.760933</ele>
<time>2026-06-18T15:39:02.583Z</time>
</trkpt>
<trkpt lat="57.101299" lon="8.726273">
<ele>3.783329</ele>
<time>2026-06-18T15:39:06.412Z</time>
</trkpt>
<trkpt lat="57.100820" lon="8.726560">
<ele>3.863367</ele>
<time>2026-06-18T15:39:19.518Z</time>
</trkpt>
<trkpt lat="57.100718" lon="8.726656">
<ele>3.881569</ele>
<time>2026-06-18T15:39:22.401Z</time>
</trkpt>
<trkpt lat="57.100559" lon="8.726955">
<ele>3.917682</ele>
<time>2026-06-18T15:39:28.109Z</time>
</trkpt>
<trkpt lat="57.100542" lon="8.727004">
<ele>3.922700</ele>
<time>2026-06-18T15:39:28.885Z</time>
</trkpt>
<trkpt lat="57.100449" lon="8.727264">
<ele>3.949568</ele>
<time>2026-06-18T15:39:33.041Z</time>
</trkpt>
<trkpt lat="57.100390" lon="8.727501">
<ele>3.972068</ele>
<time>2026-06-18T15:39:36.476Z</time>
</trkpt>
<trkpt lat="57.100351" lon="8.727765">
<ele>3.966067</ele>
<time>2026-06-18T15:39:39.996Z</time>
</trkpt>
<trkpt lat="57.100121" lon="8.729439">
<ele>3.643947</ele>
<time>2026-06-18T15:40:01.341Z</time>
</trkpt>
<trkpt lat="57.100033" lon="8.729714">
<ele>3.584405</ele>
<time>2026-06-18T15:40:05.257Z</time>
</trkpt>
<trkpt lat="57.098960" lon="8.727809">
<ele>3.659130</ele>
<time>2026-06-18T15:40:37.938Z</time>
</trkpt>
<trkpt lat="57.098752" lon="8.727499">
<ele>3.749310</ele>
<time>2026-06-18T15:40:44.350Z</time>
</trkpt>
<trkpt lat="57.097147" lon="8.725679">
<ele>5.164523</ele>
<time>2026-06-18T15:41:32.435Z</time>
</trkpt>
<trkpt lat="57.097006" lon="8.725517">
<ele>5.327122</ele>
<time>2026-06-18T15:41:36.869Z</time>
</trkpt>
<trkpt lat="57.096522" lon="8.724800">
<ele>5.920647</ele>
<time>2026-06-18T15:41:53.888Z</time>
</trkpt>
<trkpt lat="57.096334" lon="8.724431">
<ele>6.170416</ele>
<time>2026-06-18T15:42:01.409Z</time>
</trkpt>
<trkpt lat="57.096295" lon="8.724189">
<ele>6.295042</ele>
<time>2026-06-18T15:42:05.109Z</time>
</trkpt>
<trkpt lat="57.096301" lon="8.724031">
<ele>6.373239</ele>
<time>2026-06-18T15:42:07.409Z</time>
</trkpt>
<trkpt lat="57.096433" lon="8.723106">
<ele>6.845421</ele>
<time>2026-06-18T15:42:21.167Z</time>
</trkpt>
<trkpt lat="57.096551" lon="8.721323">
<ele>7.488484</ele>
<time>2026-06-18T15:42:44.696Z</time>
</trkpt>
<trkpt lat="57.096575" lon="8.720968">
<ele>7.546597</ele>
<time>2026-06-18T15:42:49.309Z</time>
</trkpt>
<trkpt lat="57.096600" lon="8.720444">
<ele>7.632046</ele>
<time>2026-06-18T15:42:55.967Z</time>
</trkpt>
<trkpt lat="57.096599" lon="8.719841">
<ele>7.730001</ele>
<time>2026-06-18T15:43:03.355Z</time>
</trkpt>
<trkpt lat="57.096550" lon="8.719261">
<ele>7.825352</ele>
<time>2026-06-18T15:43:10.323Z</time>
</trkpt>
<trkpt lat="57.096509" lon="8.718854">
<ele>7.892595</ele>
<time>2026-06-18T15:43:15.297Z</time>
</trkpt>
<trkpt lat="57.096510" lon="8.717153">
<ele>8.624046</ele>
<time>2026-06-18T15:43:38.566Z</time>
</trkpt>
<trkpt lat="57.096411" lon="8.716908">
<ele>8.759786</ele>
<time>2026-06-18T15:43:42.891Z</time>
</trkpt>
<trkpt lat="57.096155" lon="8.716503">
<ele>9.036014</ele>
<time>2026-06-18T15:43:51.922Z</time>
</trkpt>
<trkpt lat="57.096042" lon="8.716350">
<ele>9.150806</ele>
<time>2026-06-18T15:43:55.714Z</time>
</trkpt>
<trkpt lat="57.095917" lon="8.716131">
<ele>9.292021</ele>
<time>2026-06-18T15:44:00.373Z</time>
</trkpt>
<trkpt lat="57.095889" lon="8.716182">
<ele>9.324255</ele>
<time>2026-06-18T15:44:01.473Z</time>
</trkpt>
<trkpt lat="57.095794" lon="8.716386">
<ele>9.405952</ele>
<time>2026-06-18T15:44:05.540Z</time>
</trkpt>
<trkpt lat="57.095652" lon="8.716786">
<ele>9.494972</ele>
<time>2026-06-18T15:44:12.739Z</time>
</trkpt>
<trkpt lat="57.095608" lon="8.717015">
<ele>9.540224</ele>
<time>2026-06-18T15:44:16.286Z</time>
</trkpt>
<trkpt lat="57.095574" lon="8.717598">
<ele>9.649461</ele>
<time>2026-06-18T15:44:24.479Z</time>
</trkpt>
<trkpt lat="57.095571" lon="8.718896">
<ele>9.891279</ele>
<time>2026-06-18T15:44:40.828Z</time>
</trkpt>
<trkpt lat="57.095345" lon="8.720780">
<ele>9.457546</ele>
<time>2026-06-18T15:45:03.524Z</time>
</trkpt>
<trkpt lat="57.095217" lon="8.721491">
<ele>9.163339</ele>
<time>2026-06-18T15:45:12.527Z</time>
</trkpt>
<trkpt lat="57.095154" lon="8.721858">
<ele>9.012160</ele>
<time>2026-06-18T15:45:16.869Z</time>
</trkpt>
<trkpt lat="57.095134" lon="8.721978">
<ele>8.962857</ele>
<time>2026-06-18T15:45:18.238Z</time>
</trkpt>
<trkpt lat="57.095050" lon="8.722464">
<ele>8.762533</ele>
<time>2026-06-18T15:45:23.653Z</time>
</trkpt>
<trkpt lat="57.094875" lon="8.723314">
<ele>8.168036</ele>
<time>2026-06-18T15:45:32.918Z</time>
</trkpt>
<trkpt lat="57.094783" lon="8.723581">
<ele>7.942003</ele>
<time>2026-06-18T15:45:36.151Z</time>
</trkpt>
<trkpt lat="57.094561" lon="8.724019">
<ele>7.513760</ele>
<time>2026-06-18T15:45:42.303Z</time>
</trkpt>
<trkpt lat="57.094401" lon="8.724481">
<ele>7.122073</ele>
<time>2026-06-18T15:45:51.762Z</time>
</trkpt>
<trkpt lat="57.094322" lon="8.724903">
<ele>6.802976</ele>
<time>2026-06-18T15:45:59.544Z</time>
</trkpt>
<trkpt lat="57.092749" lon="8.735219">
<ele>4.876273</ele>
<time>2026-06-18T15:49:29.623Z</time>
</trkpt>
<trkpt lat="57.092287" lon="8.738402">
<ele>4.836727</ele>
<time>2026-06-18T15:50:36.244Z</time>
</trkpt>
<trkpt lat="57.092083" lon="8.740273">
<ele>4.632407</ele>
<time>2026-06-18T15:51:13.894Z</time>
</trkpt>
<trkpt lat="57.091858" lon="8.741913">
<ele>4.450705</ele>
<time>2026-06-18T15:51:47.066Z</time>
</trkpt>
<trkpt lat="57.091386" lon="8.744511">
<ele>4.153222</ele>
<time>2026-06-18T15:52:41.207Z</time>
</trkpt>
<trkpt lat="57.091001" lon="8.746031">
<ele>3.945724</ele>
<time>2026-06-18T15:53:13.918Z</time>
</trkpt>
<trkpt lat="57.090984" lon="8.746245">
<ele>3.918571</ele>
<time>2026-06-18T15:53:18.171Z</time>
</trkpt>
<trkpt lat="57.090995" lon="8.746432">
<ele>3.894957</ele>
<time>2026-06-18T15:53:21.903Z</time>
</trkpt>
<trkpt lat="57.091105" lon="8.746718">
<ele>3.850964</ele>
<time>2026-06-18T15:53:28.819Z</time>
</trkpt>
<trkpt lat="57.091141" lon="8.746980">
<ele>3.817035</ele>
<time>2026-06-18T15:53:34.183Z</time>
</trkpt>
<trkpt lat="57.091131" lon="8.747100">
<ele>3.801794</ele>
<time>2026-06-18T15:53:36.590Z</time>
</trkpt>
<trkpt lat="57.090982" lon="8.747621">
<ele>3.727875</ele>
<time>2026-06-18T15:53:48.217Z</time>
</trkpt>
<trkpt lat="57.090851" lon="8.748223">
<ele>3.684084</ele>
<time>2026-06-18T15:54:01.041Z</time>
</trkpt>
<trkpt lat="57.090784" lon="8.748703">
<ele>3.654566</ele>
<time>2026-06-18T15:54:07.649Z</time>
</trkpt>
<trkpt lat="57.090556" lon="8.749457">
<ele>3.603170</ele>
<time>2026-06-18T15:54:19.232Z</time>
</trkpt>
<trkpt lat="57.090519" lon="8.749649">
<ele>3.591036</ele>
<time>2026-06-18T15:54:21.955Z</time>
</trkpt>
<trkpt lat="57.090507" lon="8.749814">
<ele>3.581121</ele>
<time>2026-06-18T15:54:24.156Z</time>
</trkpt>
<trkpt lat="57.090526" lon="8.749977">
<ele>3.571191</ele>
<time>2026-06-18T15:54:26.352Z</time>
</trkpt>
<trkpt lat="57.090002" lon="8.752159">
<ele>3.401303</ele>
<time>2026-06-18T15:54:57.462Z</time>
</trkpt>
<trkpt lat="57.089010" lon="8.757032">
<ele>3.035366</ele>
<time>2026-06-18T15:56:05.715Z</time>
</trkpt>
<trkpt lat="57.088508" lon="8.760350">
<ele>2.985451</ele>
<time>2026-06-18T15:56:52.130Z</time>
</trkpt>
<trkpt lat="57.088362" lon="8.761134">
<ele>2.938631</ele>
<time>2026-06-18T15:57:03.326Z</time>
</trkpt>
<trkpt lat="57.088365" lon="8.761790">
<ele>2.901571</ele>
<time>2026-06-18T15:57:12.085Z</time>
</trkpt>
<trkpt lat="57.088329" lon="8.762015">
<ele>2.888320</ele>
<time>2026-06-18T15:57:15.186Z</time>
</trkpt>
<trkpt lat="57.088143" lon="8.762721">
<ele>2.843995</ele>
<time>2026-06-18T15:57:25.430Z</time>
</trkpt>
<trkpt lat="57.088037" lon="8.763576">
<ele>2.784893</ele>
<time>2026-06-18T15:57:36.654Z</time>
</trkpt>
<trkpt lat="57.088003" lon="8.764093">
<ele>2.740304</ele>
<time>2026-06-18T15:57:43.256Z</time>
</trkpt>
<trkpt lat="57.088029" lon="8.764603">
<ele>2.696444</ele>
<time>2026-06-18T15:57:49.779Z</time>
</trkpt>
<trkpt lat="57.088013" lon="8.764764">
<ele>2.682431</ele>
<time>2026-06-18T15:57:51.875Z</time>
</trkpt>
<trkpt lat="57.087877" lon="8.765116">
<ele>2.645449</ele>
<time>2026-06-18T15:57:57.462Z</time>
</trkpt>
<trkpt lat="57.087768" lon="8.765577">
<ele>2.602402</ele>
<time>2026-06-18T15:58:04.077Z</time>
</trkpt>
<trkpt lat="57.087726" lon="8.766113">
<ele>2.556033</ele>
<time>2026-06-18T15:58:11.403Z</time>
</trkpt>
<trkpt lat="57.087739" lon="8.766444">
<ele>2.533112</ele>
<time>2026-06-18T15:58:15.974Z</time>
</trkpt>
<trkpt lat="57.087680" lon="8.767150">
<ele>2.645143</ele>
<time>2026-06-18T15:58:26.046Z</time>
</trkpt>
<trkpt lat="57.087550" lon="8.767769">
<ele>2.749227</ele>
<time>2026-06-18T15:58:35.499Z</time>
</trkpt>
<trkpt lat="57.087517" lon="8.768193">
<ele>2.816406</ele>
<time>2026-06-18T15:58:41.617Z</time>
</trkpt>
<trkpt lat="57.087330" lon="8.769162">
<ele>2.977685</ele>
<time>2026-06-18T15:58:56.154Z</time>
</trkpt>
<trkpt lat="57.087262" lon="8.770067">
<ele>3.117159</ele>
<time>2026-06-18T15:59:08.927Z</time>
</trkpt>
<trkpt lat="57.087143" lon="8.771059">
<ele>3.268070</ele>
<time>2026-06-18T15:59:23.085Z</time>
</trkpt>
<trkpt lat="57.087148" lon="8.771367">
<ele>3.313844</ele>
<time>2026-06-18T15:59:27.383Z</time>
</trkpt>
<trkpt lat="57.087243" lon="8.771681">
<ele>3.367232</ele>
<time>2026-06-18T15:59:32.398Z</time>
</trkpt>
<trkpt lat="57.087262" lon="8.772105">
<ele>3.430431</ele>
<time>2026-06-18T15:59:38.343Z</time>
</trkpt>
<trkpt lat="57.087165" lon="8.773043">
<ele>3.570623</ele>
<time>2026-06-18T15:59:51.745Z</time>
</trkpt>
<trkpt lat="57.086933" lon="8.773928">
<ele>3.709019</ele>
<time>2026-06-18T16:00:05.628Z</time>
</trkpt>
<trkpt lat="57.086927" lon="8.774537">
<ele>3.794808</ele>
<time>2026-06-18T16:00:14.239Z</time>
</trkpt>
<trkpt lat="57.086887" lon="8.774975">
<ele>3.857363</ele>
<time>2026-06-18T16:00:20.485Z</time>
</trkpt>
<trkpt lat="57.086850" lon="8.775888">
<ele>3.986313</ele>
<time>2026-06-18T16:00:33.235Z</time>
</trkpt>
<trkpt lat="57.086814" lon="8.776148">
<ele>4.011013</ele>
<time>2026-06-18T16:00:36.956Z</time>
</trkpt>
<trkpt lat="57.086822" lon="8.776519">
<ele>4.023982</ele>
<time>2026-06-18T16:00:42.070Z</time>
</trkpt>
<trkpt lat="57.086803" lon="8.776734">
<ele>4.031590</ele>
<time>2026-06-18T16:00:45.053Z</time>
</trkpt>
<trkpt lat="57.086689" lon="8.777414">
<ele>4.056446</ele>
<time>2026-06-18T16:00:54.699Z</time>
</trkpt>
<trkpt lat="57.086444" lon="8.778655">
<ele>4.102565</ele>
<time>2026-06-18T16:01:12.416Z</time>
</trkpt>
<trkpt lat="57.086361" lon="8.778975">
<ele>4.114951</ele>
<time>2026-06-18T16:01:17.145Z</time>
</trkpt>
<trkpt lat="57.086372" lon="8.779349">
<ele>4.137006</ele>
<time>2026-06-18T16:01:22.176Z</time>
</trkpt>
<trkpt lat="57.086166" lon="8.780806">
<ele>4.272124</ele>
<time>2026-06-18T16:01:42.830Z</time>
</trkpt>
<trkpt lat="57.086093" lon="8.781529">
<ele>4.338124</ele>
<time>2026-06-18T16:01:53.152Z</time>
</trkpt>
<trkpt lat="57.085948" lon="8.783765">
<ele>4.546635</ele>
<time>2026-06-18T16:02:24.550Z</time>
</trkpt>
<trkpt lat="57.085773" lon="8.785320">
<ele>4.696717</ele>
<time>2026-06-18T16:02:46.264Z</time>
</trkpt>
<trkpt lat="57.085721" lon="8.785729">
<ele>4.734020</ele>
<time>2026-06-18T16:02:51.980Z</time>
</trkpt>
<trkpt lat="57.085531" lon="8.786343">
<ele>4.762572</ele>
<time>2026-06-18T16:03:01.648Z</time>
</trkpt>
<trkpt lat="57.085493" lon="8.786560">
<ele>4.771784</ele>
<time>2026-06-18T16:03:04.800Z</time>
</trkpt>
<trkpt lat="57.085435" lon="8.787256">
<ele>4.800237</ele>
<time>2026-06-18T16:03:14.456Z</time>
</trkpt>
<trkpt lat="57.085303" lon="8.787909">
<ele>4.828390</ele>
<time>2026-06-18T16:03:23.930Z</time>
</trkpt>
<trkpt lat="57.085290" lon="8.788266">
<ele>4.842848</ele>
<time>2026-06-18T16:03:28.762Z</time>
</trkpt>
<trkpt lat="57.085281" lon="8.788472">
<ele>4.851199</ele>
<time>2026-06-18T16:03:31.538Z</time>
</trkpt>
<trkpt lat="57.084833" lon="8.790062">
<ele>4.690856</ele>
<time>2026-06-18T16:03:55.238Z</time>
</trkpt>
<trkpt lat="57.084784" lon="8.790320">
<ele>4.657271</ele>
<time>2026-06-18T16:03:58.768Z</time>
</trkpt>
<trkpt lat="57.084703" lon="8.791063">
<ele>4.564148</ele>
<time>2026-06-18T16:04:08.463Z</time>
</trkpt>
<trkpt lat="57.084599" lon="8.791666">
<ele>4.486405</ele>
<time>2026-06-18T16:04:16.544Z</time>
</trkpt>
<trkpt lat="57.084545" lon="8.792739">
<ele>4.319556</ele>
<time>2026-06-18T16:04:30.290Z</time>
</trkpt>
<trkpt lat="57.084612" lon="8.793251">
<ele>4.233671</ele>
<time>2026-06-18T16:04:36.942Z</time>
</trkpt>
<trkpt lat="57.084612" lon="8.793614">
<ele>4.174473</ele>
<time>2026-06-18T16:04:41.524Z</time>
</trkpt>
<trkpt lat="57.084542" lon="8.794416">
<ele>4.042004</ele>
<time>2026-06-18T16:04:51.836Z</time>
</trkpt>
<trkpt lat="57.084563" lon="8.795390">
<ele>3.891136</ele>
<time>2026-06-18T16:05:04.487Z</time>
</trkpt>
<trkpt lat="57.084541" lon="8.795950">
<ele>3.819946</ele>
<time>2026-06-18T16:05:12.013Z</time>
</trkpt>
<trkpt lat="57.084511" lon="8.796361">
<ele>3.767366</ele>
<time>2026-06-18T16:05:17.674Z</time>
</trkpt>
<trkpt lat="57.084430" lon="8.796905">
<ele>3.695847</ele>
<time>2026-06-18T16:05:25.475Z</time>
</trkpt>
<trkpt lat="57.084390" lon="8.797855">
<ele>3.575031</ele>
<time>2026-06-18T16:05:38.352Z</time>
</trkpt>
<trkpt lat="57.084294" lon="8.798850">
<ele>3.231555</ele>
<time>2026-06-18T16:05:50.651Z</time>
</trkpt>
<trkpt lat="57.084295" lon="8.799138">
<ele>3.046251</ele>
<time>2026-06-18T16:05:53.922Z</time>
</trkpt>
<trkpt lat="57.084365" lon="8.799902">
<ele>2.547754</ele>
<time>2026-06-18T16:06:02.416Z</time>
</trkpt>
<trkpt lat="57.084191" lon="8.801331">
<ele>1.605532</ele>
<time>2026-06-18T16:06:18.505Z</time>
</trkpt>
<trkpt lat="57.084128" lon="8.802222">
<ele>1.523995</ele>
<time>2026-06-18T16:06:29.723Z</time>
</trkpt>
<trkpt lat="57.084041" lon="8.802639">
<ele>1.653041</ele>
<time>2026-06-18T16:06:36.074Z</time>
</trkpt>
<trkpt lat="57.083459" lon="8.803715">
<ele>2.091647</ele>
<time>2026-06-18T16:07:00.429Z</time>
</trkpt>
<trkpt lat="57.083450" lon="8.803793">
<ele>2.114684</ele>
<time>2026-06-18T16:07:02.311Z</time>
</trkpt>
<trkpt lat="57.083423" lon="8.803915">
<ele>2.152741</ele>
<time>2026-06-18T16:07:04.551Z</time>
</trkpt>
<trkpt lat="57.083362" lon="8.804182">
<ele>2.236419</ele>
<time>2026-06-18T16:07:11.323Z</time>
</trkpt>
<trkpt lat="57.082569" lon="8.809552">
<ele>3.586069</ele>
<time>2026-06-18T16:09:08.016Z</time>
</trkpt>
<trkpt lat="57.082414" lon="8.811036">
<ele>3.899444</ele>
<time>2026-06-18T16:09:39.657Z</time>
</trkpt>
<trkpt lat="57.082096" lon="8.813490">
<ele>4.396347</ele>
<time>2026-06-18T16:10:32.525Z</time>
</trkpt>
<trkpt lat="57.081603" lon="8.817009">
<ele>4.980263</ele>
<time>2026-06-18T16:11:48.390Z</time>
</trkpt>
<trkpt lat="57.081549" lon="8.817536">
<ele>4.969560</ele>
<time>2026-06-18T16:11:56.039Z</time>
</trkpt>
<trkpt lat="57.081464" lon="8.819294">
<ele>4.490897</ele>
<time>2026-06-18T16:12:18.389Z</time>
</trkpt>
<trkpt lat="57.081477" lon="8.819355">
<ele>4.473127</ele>
<time>2026-06-18T16:12:19.165Z</time>
</trkpt>
<trkpt lat="57.081352" lon="8.821385">
<ele>4.079815</ele>
<time>2026-06-18T16:12:43.243Z</time>
</trkpt>
<trkpt lat="57.081150" lon="8.825405">
<ele>4.283423</ele>
<time>2026-06-18T16:13:39.407Z</time>
</trkpt>
<trkpt lat="57.080948" lon="8.829425">
<ele>5.424545</ele>
<time>2026-06-18T16:14:39.109Z</time>
</trkpt>
<trkpt lat="57.080919" lon="8.831408">
<ele>5.950901</ele>
<time>2026-06-18T16:15:07.646Z</time>
</trkpt>
<trkpt lat="57.080936" lon="8.835092">
<ele>6.687556</ele>
<time>2026-06-18T16:15:59.921Z</time>
</trkpt>
<trkpt lat="57.080964" lon="8.835200">
<ele>6.709422</ele>
<time>2026-06-18T16:16:01.633Z</time>
</trkpt>
<trkpt lat="57.081009" lon="8.835239">
<ele>6.726146</ele>
<time>2026-06-18T16:16:02.952Z</time>
</trkpt>
<trkpt lat="57.082004" lon="8.835327">
<ele>7.060129</ele>
<time>2026-06-18T16:16:29.049Z</time>
</trkpt>
<trkpt lat="57.081285" lon="8.842488">
<ele>7.988459</ele>
<time>2026-06-18T16:18:10.591Z</time>
</trkpt>
<trkpt lat="57.081293" lon="8.842830">
<ele>8.017914</ele>
<time>2026-06-18T16:18:15.362Z</time>
</trkpt>
<trkpt lat="57.081358" lon="8.843614">
<ele>8.086154</ele>
<time>2026-06-18T16:18:26.427Z</time>
</trkpt>
<trkpt lat="57.081366" lon="8.844877">
<ele>8.194837</ele>
<time>2026-06-18T16:18:43.778Z</time>
</trkpt>
<trkpt lat="57.081331" lon="8.845194">
<ele>8.199465</ele>
<time>2026-06-18T16:18:48.090Z</time>
</trkpt>
<trkpt lat="57.081391" lon="8.845331">
<ele>8.171789</ele>
<time>2026-06-18T16:18:50.194Z</time>
</trkpt>
<trkpt lat="57.081423" lon="8.845519">
<ele>8.140801</ele>
<time>2026-06-18T16:18:52.499Z</time>
</trkpt>
<trkpt lat="57.081424" lon="8.845818">
<ele>8.093769</ele>
<time>2026-06-18T16:18:55.939Z</time>
</trkpt>
<trkpt lat="57.081339" lon="8.846372">
<ele>8.003221</ele>
<time>2026-06-18T16:19:02.464Z</time>
</trkpt>
<trkpt lat="57.081050" lon="8.848105">
<ele>7.718082</ele>
<time>2026-06-18T16:19:22.878Z</time>
</trkpt>
<trkpt lat="57.081037" lon="8.848634">
<ele>7.714182</ele>
<time>2026-06-18T16:19:29.038Z</time>
</trkpt>
<trkpt lat="57.081062" lon="8.849265">
<ele>7.748400</ele>
<time>2026-06-18T16:19:36.692Z</time>
</trkpt>
<trkpt lat="57.081136" lon="8.849897">
<ele>7.783367</ele>
<time>2026-06-18T16:19:44.748Z</time>
</trkpt>
<trkpt lat="57.081430" lon="8.851164">
<ele>7.857878</ele>
<time>2026-06-18T16:20:02.263Z</time>
</trkpt>
<trkpt lat="57.081775" lon="8.852553">
<ele>7.977771</ele>
<time>2026-06-18T16:20:21.410Z</time>
</trkpt>
<trkpt lat="57.081858" lon="8.853048">
<ele>8.021245</ele>
<time>2026-06-18T16:20:27.726Z</time>
</trkpt>
<trkpt lat="57.081937" lon="8.854243">
<ele>8.122269</ele>
<time>2026-06-18T16:20:42.333Z</time>
</trkpt>
<trkpt lat="57.082146" lon="8.855921">
<ele>8.576235</ele>
<time>2026-06-18T16:21:04.202Z</time>
</trkpt>
<trkpt lat="57.082245" lon="8.856473">
<ele>8.755044</ele>
<time>2026-06-18T16:21:11.902Z</time>
</trkpt>
<trkpt lat="57.082378" lon="8.857005">
<ele>8.935179</ele>
<time>2026-06-18T16:21:19.847Z</time>
</trkpt>
<trkpt lat="57.082921" lon="8.858589">
<ele>9.602782</ele>
<time>2026-06-18T16:21:46.847Z</time>
</trkpt>
<trkpt lat="57.083429" lon="8.860199">
<ele>10.328444</ele>
<time>2026-06-18T16:22:12.417Z</time>
</trkpt>
<trkpt lat="57.083682" lon="8.860738">
<ele>10.442919</ele>
<time>2026-06-18T16:22:21.185Z</time>
</trkpt>
<trkpt lat="57.083984" lon="8.861213">
<ele>10.412044</ele>
<time>2026-06-18T16:22:29.804Z</time>
</trkpt>
<trkpt lat="57.084180" lon="8.861459">
<ele>10.393607</ele>
<time>2026-06-18T16:22:34.766Z</time>
</trkpt>
<trkpt lat="57.084576" lon="8.861906">
<ele>10.357503</ele>
<time>2026-06-18T16:22:44.454Z</time>
</trkpt>
<trkpt lat="57.085160" lon="8.862482">
<ele>10.338247</ele>
<time>2026-06-18T16:22:58.895Z</time>
</trkpt>
<trkpt lat="57.085620" lon="8.862841">
<ele>10.395160</ele>
<time>2026-06-18T16:23:10.630Z</time>
</trkpt>
<trkpt lat="57.085910" lon="8.862961">
<ele>10.429017</ele>
<time>2026-06-18T16:23:17.735Z</time>
</trkpt>
<trkpt lat="57.086763" lon="8.863066">
<ele>10.523453</ele>
<time>2026-06-18T16:23:37.091Z</time>
</trkpt>
<trkpt lat="57.087070" lon="8.863310">
<ele>10.515573</ele>
<time>2026-06-18T16:23:44.325Z</time>
</trkpt>
<trkpt lat="57.087182" lon="8.863482">
<ele>10.512135</ele>
<time>2026-06-18T16:23:47.455Z</time>
</trkpt>
<trkpt lat="57.087474" lon="8.864241">
<ele>10.500227</ele>
<time>2026-06-18T16:23:58.377Z</time>
</trkpt>
<trkpt lat="57.087561" lon="8.864412">
<ele>10.497227</ele>
<time>2026-06-18T16:24:01.151Z</time>
</trkpt>
<trkpt lat="57.087838" lon="8.864787">
<ele>10.489124</ele>
<time>2026-06-18T16:24:08.642Z</time>
</trkpt>
<trkpt lat="57.088350" lon="8.865209">
<ele>10.579111</ele>
<time>2026-06-18T16:24:21.577Z</time>
</trkpt>
<trkpt lat="57.089610" lon="8.866070">
<ele>11.124210</ele>
<time>2026-06-18T16:24:54.264Z</time>
</trkpt>
<trkpt lat="57.089784" lon="8.866278">
<ele>11.208357</ele>
<time>2026-06-18T16:24:59.247Z</time>
</trkpt>
<trkpt lat="57.089917" lon="8.866520">
<ele>11.289079</ele>
<time>2026-06-18T16:25:03.749Z</time>
</trkpt>
<trkpt lat="57.090018" lon="8.866773">
<ele>11.362865</ele>
<time>2026-06-18T16:25:07.853Z</time>
</trkpt>
<trkpt lat="57.090154" lon="8.867273">
<ele>11.494281</ele>
<time>2026-06-18T16:25:15.184Z</time>
</trkpt>
<trkpt lat="57.090268" lon="8.867803">
<ele>11.628250</ele>
<time>2026-06-18T16:25:22.676Z</time>
</trkpt>
<trkpt lat="57.090457" lon="8.868934">
<ele>11.906350</ele>
<time>2026-06-18T16:25:38.158Z</time>
</trkpt>
<trkpt lat="57.090564" lon="8.869302">
<ele>11.980999</ele>
<time>2026-06-18T16:25:43.572Z</time>
</trkpt>
<trkpt lat="57.090667" lon="8.869555">
<ele>11.941892</ele>
<time>2026-06-18T16:25:47.603Z</time>
</trkpt>
<trkpt lat="57.091146" lon="8.870199">
<ele>11.806837</ele>
<time>2026-06-18T16:26:00.762Z</time>
</trkpt>
<trkpt lat="57.091291" lon="8.870450">
<ele>11.761517</ele>
<time>2026-06-18T16:26:04.949Z</time>
</trkpt>
<trkpt lat="57.091600" lon="8.871149">
<ele>11.650047</ele>
<time>2026-06-18T16:26:14.902Z</time>
</trkpt>
<trkpt lat="57.091756" lon="8.871508">
<ele>11.593183</ele>
<time>2026-06-18T16:26:19.896Z</time>
</trkpt>
<trkpt lat="57.092230" lon="8.872391">
<ele>11.269931</ele>
<time>2026-06-18T16:26:33.445Z</time>
</trkpt>
<trkpt lat="57.092362" lon="8.872741">
<ele>11.153314</ele>
<time>2026-06-18T16:26:38.184Z</time>
</trkpt>
<trkpt lat="57.092468" lon="8.873118">
<ele>11.037127</ele>
<time>2026-06-18T16:26:42.991Z</time>
</trkpt>
<trkpt lat="57.092562" lon="8.873778">
<ele>10.850378</ele>
<time>2026-06-18T16:26:50.821Z</time>
</trkpt>
<trkpt lat="57.092536" lon="8.874658">
<ele>10.658533</ele>
<time>2026-06-18T16:27:00.846Z</time>
</trkpt>
<trkpt lat="57.092572" lon="8.875148">
<ele>10.627178</ele>
<time>2026-06-18T16:27:06.396Z</time>
</trkpt>
<trkpt lat="57.092681" lon="8.875567">
<ele>10.597719</ele>
<time>2026-06-18T16:27:11.628Z</time>
</trkpt>
<trkpt lat="57.093106" lon="8.876601">
<ele>10.515499</ele>
<time>2026-06-18T16:27:26.674Z</time>
</trkpt>
<trkpt lat="57.093228" lon="8.876870">
<ele>10.493279</ele>
<time>2026-06-18T16:27:30.914Z</time>
</trkpt>
<trkpt lat="57.094055" lon="8.878452">
<ele>10.959450</ele>
<time>2026-06-18T16:27:59.716Z</time>
</trkpt>
<trkpt lat="57.094268" lon="8.878801">
<ele>11.110322</ele>
<time>2026-06-18T16:28:06.959Z</time>
</trkpt>
<trkpt lat="57.094920" lon="8.879699">
<ele>11.442316</ele>
<time>2026-06-18T16:28:27.326Z</time>
</trkpt>
<trkpt lat="57.094963" lon="8.879763">
<ele>11.448632</ele>
<time>2026-06-18T16:28:28.691Z</time>
</trkpt>
<trkpt lat="57.095273" lon="8.880226">
<ele>11.494232</ele>
<time>2026-06-18T16:28:38.218Z</time>
</trkpt>
<trkpt lat="57.095285" lon="8.880245">
<ele>11.496040</ele>
<time>2026-06-18T16:28:38.589Z</time>
</trkpt>
<trkpt lat="57.095528" lon="8.880592">
<ele>11.531170</ele>
<time>2026-06-18T16:28:45.647Z</time>
</trkpt>
<trkpt lat="57.095857" lon="8.881065">
<ele>11.578854</ele>
<time>2026-06-18T16:28:54.869Z</time>
</trkpt>
<trkpt lat="57.096162" lon="8.881528">
<ele>11.599893</ele>
<time>2026-06-18T16:29:03.219Z</time>
</trkpt>
<trkpt lat="57.097485" lon="8.883523">
<ele>10.432030</ele>
<time>2026-06-18T16:29:37.182Z</time>
</trkpt>
<trkpt lat="57.097617" lon="8.883833">
<ele>10.299254</ele>
<time>2026-06-18T16:29:41.427Z</time>
</trkpt>
<trkpt lat="57.097895" lon="8.884691">
<ele>9.975123</ele>
<time>2026-06-18T16:29:52.299Z</time>
</trkpt>
<trkpt lat="57.098036" lon="8.885022">
<ele>9.838651</ele>
<time>2026-06-18T16:29:56.947Z</time>
</trkpt>
<trkpt lat="57.098406" lon="8.885689">
<ele>9.529351</ele>
<time>2026-06-18T16:30:07.518Z</time>
</trkpt>
<trkpt lat="57.098973" lon="8.886464">
<ele>9.141035</ele>
<time>2026-06-18T16:30:22.039Z</time>
</trkpt>
<trkpt lat="57.099204" lon="8.886868">
<ele>8.980999</ele>
<time>2026-06-18T16:30:28.582Z</time>
</trkpt>
<trkpt lat="57.100130" lon="8.888854">
<ele>8.395889</ele>
<time>2026-06-18T16:30:57.713Z</time>
</trkpt>
<trkpt lat="57.100851" lon="8.890729">
<ele>8.316478</ele>
<time>2026-06-18T16:31:24.933Z</time>
</trkpt>
<trkpt lat="57.101208" lon="8.891776">
<ele>8.587156</ele>
<time>2026-06-18T16:31:40.908Z</time>
</trkpt>
<trkpt lat="57.102104" lon="8.893871">
<ele>9.571040</ele>
<time>2026-06-18T16:32:18.101Z</time>
</trkpt>
<trkpt lat="57.102460" lon="8.894681">
<ele>9.798941</ele>
<time>2026-06-18T16:32:32.473Z</time>
</trkpt>
<trkpt lat="57.102675" lon="8.895216">
<ele>9.944504</ele>
<time>2026-06-18T16:32:41.255Z</time>
</trkpt>
<trkpt lat="57.102785" lon="8.895787">
<ele>10.077015</ele>
<time>2026-06-18T16:32:48.949Z</time>
</trkpt>
<trkpt lat="57.102924" lon="8.897220">
<ele>10.238334</ele>
<time>2026-06-18T16:33:06.446Z</time>
</trkpt>
<trkpt lat="57.103086" lon="8.900589">
<ele>10.139144</ele>
<time>2026-06-18T16:33:46.170Z</time>
</trkpt>
<trkpt lat="57.103373" lon="8.906849">
<ele>10.699539</ele>
<time>2026-06-18T16:35:05.017Z</time>
</trkpt>
<trkpt lat="57.103589" lon="8.911578">
<ele>10.476996</ele>
<time>2026-06-18T16:36:01.168Z</time>
</trkpt>
<trkpt lat="57.103587" lon="8.912669">
<ele>10.393600</ele>
<time>2026-06-18T16:36:14.001Z</time>
</trkpt>
<trkpt lat="57.103533" lon="8.913142">
<ele>10.356738</ele>
<time>2026-06-18T16:36:19.715Z</time>
</trkpt>
<trkpt lat="57.103454" lon="8.913573">
<ele>10.339889</ele>
<time>2026-06-18T16:36:25.098Z</time>
</trkpt>
<trkpt lat="57.102544" lon="8.917563">
<ele>10.142556</ele>
<time>2026-06-18T16:37:17.095Z</time>
</trkpt>
<trkpt lat="57.102462" lon="8.918044">
<ele>10.111204</ele>
<time>2026-06-18T16:37:23.057Z</time>
</trkpt>
<trkpt lat="57.102392" lon="8.918544">
<ele>10.079093</ele>
<time>2026-06-18T16:37:29.115Z</time>
</trkpt>
<trkpt lat="57.102256" lon="8.919924">
<ele>9.932562</ele>
<time>2026-06-18T16:37:45.405Z</time>
</trkpt>
<trkpt lat="57.101960" lon="8.921785">
<ele>9.615138</ele>
<time>2026-06-18T16:38:07.492Z</time>
</trkpt>
<trkpt lat="57.101293" lon="8.925529">
<ele>9.104853</ele>
<time>2026-06-18T16:38:53.025Z</time>
</trkpt>
<trkpt lat="57.100831" lon="8.928320">
<ele>9.169345</ele>
<time>2026-06-18T16:39:29.021Z</time>
</trkpt>
<trkpt lat="57.100802" lon="8.928734">
<ele>9.182021</ele>
<time>2026-06-18T16:39:34.116Z</time>
</trkpt>
<trkpt lat="57.100800" lon="8.929583">
<ele>9.133174</ele>
<time>2026-06-18T16:39:44.310Z</time>
</trkpt>
<trkpt lat="57.100742" lon="8.930278">
<ele>9.080971</ele>
<time>2026-06-18T16:39:52.601Z</time>
</trkpt>
<trkpt lat="57.100402" lon="8.932209">
<ele>8.921036</ele>
<time>2026-06-18T16:40:16.257Z</time>
</trkpt>
<trkpt lat="57.099969" lon="8.934295">
<ele>8.602663</ele>
<time>2026-06-18T16:40:42.234Z</time>
</trkpt>
<trkpt lat="57.099918" lon="8.934836">
<ele>8.524380</ele>
<time>2026-06-18T16:40:48.507Z</time>
</trkpt>
<trkpt lat="57.100361" lon="8.936943">
<ele>8.107964</ele>
<time>2026-06-18T16:41:14.013Z</time>
</trkpt>
<trkpt lat="57.100493" lon="8.937413">
<ele>8.005779</ele>
<time>2026-06-18T16:41:20.060Z</time>
</trkpt>
<trkpt lat="57.100660" lon="8.937875">
<ele>7.898604</ele>
<time>2026-06-18T16:41:26.452Z</time>
</trkpt>
<trkpt lat="57.101062" lon="8.938795">
<ele>7.717984</ele>
<time>2026-06-18T16:41:40.188Z</time>
</trkpt>
<trkpt lat="57.101229" lon="8.939313">
<ele>7.636535</ele>
<time>2026-06-18T16:41:47.224Z</time>
</trkpt>
<trkpt lat="57.101548" lon="8.940584">
<ele>7.447221</ele>
<time>2026-06-18T16:42:03.479Z</time>
</trkpt>
<trkpt lat="57.101621" lon="8.940994">
<ele>7.388882</ele>
<time>2026-06-18T16:42:08.431Z</time>
</trkpt>
<trkpt lat="57.101662" lon="8.941388">
<ele>7.337433</ele>
<time>2026-06-18T16:42:13.026Z</time>
</trkpt>
<trkpt lat="57.101664" lon="8.942043">
<ele>7.254210</ele>
<time>2026-06-18T16:42:20.520Z</time>
</trkpt>
<trkpt lat="57.101633" lon="8.942448">
<ele>7.202244</ele>
<time>2026-06-18T16:42:25.194Z</time>
</trkpt>
<trkpt lat="57.101339" lon="8.944517">
<ele>6.974026</ele>
<time>2026-06-18T16:42:50.010Z</time>
</trkpt>
<trkpt lat="57.101371" lon="8.944833">
<ele>6.993077</ele>
<time>2026-06-18T16:42:53.852Z</time>
</trkpt>
<trkpt lat="57.101490" lon="8.945067">
<ele>7.012075</ele>
<time>2026-06-18T16:42:57.732Z</time>
</trkpt>
<trkpt lat="57.102870" lon="8.946284">
<ele>7.203019</ele>
<time>2026-06-18T16:43:33.112Z</time>
</trkpt>
<trkpt lat="57.102998" lon="8.946393">
<ele>7.234747</ele>
<time>2026-06-18T16:43:36.415Z</time>
</trkpt>
<trkpt lat="57.103980" lon="8.947283">
<ele>7.480984</ele>
<time>2026-06-18T16:44:01.852Z</time>
</trkpt>
<trkpt lat="57.104248" lon="8.947406">
<ele>7.543122</ele>
<time>2026-06-18T16:44:08.202Z</time>
</trkpt>
<trkpt lat="57.104522" lon="8.947336">
<ele>7.594029</ele>
<time>2026-06-18T16:44:14.548Z</time>
</trkpt>
<trkpt lat="57.105129" lon="8.946962">
<ele>7.701186</ele>
<time>2026-06-18T16:44:29.239Z</time>
</trkpt>
<trkpt lat="57.106205" lon="8.946282">
<ele>7.891751</ele>
<time>2026-06-18T16:44:55.178Z</time>
</trkpt>
<trkpt lat="57.106960" lon="8.945933">
<ele>8.022583</ele>
<time>2026-06-18T16:45:12.928Z</time>
</trkpt>
<trkpt lat="57.107405" lon="8.945893">
<ele>8.097464</ele>
<time>2026-06-18T16:45:23.325Z</time>
</trkpt>
<trkpt lat="57.107629" lon="8.945953">
<ele>8.135509</ele>
<time>2026-06-18T16:45:28.574Z</time>
</trkpt>
<trkpt lat="57.107944" lon="8.946080">
<ele>8.175872</ele>
<time>2026-06-18T16:45:35.891Z</time>
</trkpt>
<trkpt lat="57.108326" lon="8.946313">
<ele>8.206384</ele>
<time>2026-06-18T16:45:44.966Z</time>
</trkpt>
<trkpt lat="57.108490" lon="8.946468">
<ele>8.220361</ele>
<time>2026-06-18T16:45:49.194Z</time>
</trkpt>
<trkpt lat="57.108955" lon="8.946997">
<ele>8.261804</ele>
<time>2026-06-18T16:46:01.561Z</time>
</trkpt>
<trkpt lat="57.109240" lon="8.947367">
<ele>8.288244</ele>
<time>2026-06-18T16:46:09.277Z</time>
</trkpt>
<trkpt lat="57.109418" lon="8.947717">
<ele>8.313266</ele>
<time>2026-06-18T16:46:14.943Z</time>
</trkpt>
<trkpt lat="57.109549" lon="8.948209">
<ele>8.352577</ele>
<time>2026-06-18T16:46:21.539Z</time>
</trkpt>
<trkpt lat="57.109609" lon="8.948628">
<ele>8.383665</ele>
<time>2026-06-18T16:46:26.865Z</time>
</trkpt>
<trkpt lat="57.109622" lon="8.948920">
<ele>8.404683</ele>
<time>2026-06-18T16:46:30.490Z</time>
</trkpt>
<trkpt lat="57.109581" lon="8.951170">
<ele>8.576558</ele>
<time>2026-06-18T16:46:58.630Z</time>
</trkpt>
<trkpt lat="57.109599" lon="8.951533">
<ele>8.612498</ele>
<time>2026-06-18T16:47:03.258Z</time>
</trkpt>
<trkpt lat="57.109643" lon="8.951851">
<ele>8.644854</ele>
<time>2026-06-18T16:47:07.407Z</time>
</trkpt>
<trkpt lat="57.109714" lon="8.952153">
<ele>8.677301</ele>
<time>2026-06-18T16:47:11.512Z</time>
</trkpt>
<trkpt lat="57.109809" lon="8.952431">
<ele>8.709686</ele>
<time>2026-06-18T16:47:15.601Z</time>
</trkpt>
<trkpt lat="57.109926" lon="8.952679">
<ele>8.742077</ele>
<time>2026-06-18T16:47:19.697Z</time>
</trkpt>
<trkpt lat="57.110062" lon="8.952891">
<ele>8.774430</ele>
<time>2026-06-18T16:47:23.788Z</time>
</trkpt>
<trkpt lat="57.110180" lon="8.953015">
<ele>8.799098</ele>
<time>2026-06-18T16:47:26.911Z</time>
</trkpt>
<trkpt lat="57.110619" lon="8.953365">
<ele>8.881493</ele>
<time>2026-06-18T16:47:37.866Z</time>
</trkpt>
<trkpt lat="57.111627" lon="8.954175">
<ele>9.038498</ele>
<time>2026-06-18T16:48:02.898Z</time>
</trkpt>
<trkpt lat="57.111765" lon="8.954338">
<ele>9.061902</ele>
<time>2026-06-18T16:48:06.656Z</time>
</trkpt>
<trkpt lat="57.111890" lon="8.954547">
<ele>9.086005</ele>
<time>2026-06-18T16:48:10.524Z</time>
</trkpt>
<trkpt lat="57.112055" lon="8.954956">
<ele>9.123777</ele>
<time>2026-06-18T16:48:16.827Z</time>
</trkpt>
<trkpt lat="57.112277" lon="8.954773">
<ele>9.142080</ele>
<time>2026-06-18T16:48:22.960Z</time>
</trkpt>
<trkpt lat="57.112387" lon="8.954885">
<ele>9.151539</ele>
<time>2026-06-18T16:48:26.116Z</time>
</trkpt>
<trkpt lat="57.116924" lon="8.962397">
<ele>9.540606</ele>
<time>2026-06-18T16:50:58.635Z</time>
</trkpt>
<trkpt lat="57.118999" lon="8.965882">
<ele>9.407229</ele>
<time>2026-06-18T16:52:07.012Z</time>
</trkpt>
<trkpt lat="57.120444" lon="8.968314">
<ele>9.319656</ele>
<time>2026-06-18T16:52:55.301Z</time>
</trkpt>
<trkpt lat="57.121344" lon="8.969812">
<ele>9.301726</ele>
<time>2026-06-18T16:53:25.231Z</time>
</trkpt>
<trkpt lat="57.121721" lon="8.968702">
<ele>9.308776</ele>
<time>2026-06-18T16:53:42.725Z</time>
</trkpt>
<trkpt lat="57.122054" lon="8.967851">
<ele>9.317189</ele>
<time>2026-06-18T16:53:56.752Z</time>
</trkpt>
<trkpt lat="57.122332" lon="8.967215">
<ele>9.323737</ele>
<time>2026-06-18T16:54:07.724Z</time>
</trkpt>
<trkpt lat="57.122526" lon="8.966940">
<ele>9.328485</ele>
<time>2026-06-18T16:54:13.808Z</time>
</trkpt>
<trkpt lat="57.123191" lon="8.966355">
<ele>9.355123</ele>
<time>2026-06-18T16:54:32.200Z</time>
</trkpt>
<trkpt lat="57.123315" lon="8.966182">
<ele>9.360746</ele>
<time>2026-06-18T16:54:36.091Z</time>
</trkpt>
<trkpt lat="57.123367" lon="8.966038">
<ele>9.364139</ele>
<time>2026-06-18T16:54:38.448Z</time>
</trkpt>
<trkpt lat="57.123503" lon="8.965096">
<ele>9.383266</ele>
<time>2026-06-18T16:54:51.670Z</time>
</trkpt>
<trkpt lat="57.123665" lon="8.964392">
<ele>9.382621</ele>
<time>2026-06-18T16:55:02.020Z</time>
</trkpt>
<trkpt lat="57.124573" lon="8.958406">
<ele>9.170248</ele>
<time>2026-06-18T16:56:24.598Z</time>
</trkpt>
<trkpt lat="57.124601" lon="8.958123">
<ele>9.145315</ele>
<time>2026-06-18T16:56:28.304Z</time>
</trkpt>
<trkpt lat="57.124601" lon="8.957849">
<ele>9.117484</ele>
<time>2026-06-18T16:56:31.838Z</time>
</trkpt>
<trkpt lat="57.124661" lon="8.957685">
<ele>9.097396</ele>
<time>2026-06-18T16:56:34.378Z</time>
</trkpt>
<trkpt lat="57.124753" lon="8.957688">
<ele>9.080178</ele>
<time>2026-06-18T16:56:36.551Z</time>
</trkpt>
<trkpt lat="57.125880" lon="8.958624">
<ele>8.848850</ele>
<time>2026-06-18T16:57:05.892Z</time>
</trkpt>
<trkpt lat="57.129850" lon="8.961856">
<ele>8.586264</ele>
<time>2026-06-18T16:58:52.393Z</time>
</trkpt>
<trkpt lat="57.133349" lon="8.964718">
<ele>8.333444</ele>
<time>2026-06-18T17:00:25.701Z</time>
</trkpt>
<trkpt lat="57.133400" lon="8.964792">
<ele>8.330847</ele>
<time>2026-06-18T17:00:27.248Z</time>
</trkpt>
<trkpt lat="57.133503" lon="8.964940">
<ele>8.325621</ele>
<time>2026-06-18T17:00:30.391Z</time>
</trkpt>
<trkpt lat="57.134083" lon="8.966270">
<ele>8.342291</ele>
<time>2026-06-18T17:00:53.423Z</time>
</trkpt>
<trkpt lat="57.134361" lon="8.966823">
<ele>8.435801</ele>
<time>2026-06-18T17:01:03.947Z</time>
</trkpt>
<trkpt lat="57.134423" lon="8.966912">
<ele>8.453766</ele>
<time>2026-06-18T17:01:06.018Z</time>
</trkpt>
<trkpt lat="57.135994" lon="8.968110">
<ele>8.684602</ele>
<time>2026-06-18T17:01:49.941Z</time>
</trkpt>
<trkpt lat="57.136661" lon="8.968610">
<ele>8.656347</ele>
<time>2026-06-18T17:02:06.874Z</time>
</trkpt>
<trkpt lat="57.136868" lon="8.968825">
<ele>8.647024</ele>
<time>2026-06-18T17:02:12.481Z</time>
</trkpt>
<trkpt lat="57.137221" lon="8.969368">
<ele>8.719770</ele>
<time>2026-06-18T17:02:23.477Z</time>
</trkpt>
<trkpt lat="57.137561" lon="8.971775">
<ele>9.255713</ele>
<time>2026-06-18T17:02:59.812Z</time>
</trkpt>
<trkpt lat="57.137588" lon="8.972479">
<ele>9.409280</ele>
<time>2026-06-18T17:03:10.264Z</time>
</trkpt>
<trkpt lat="57.137558" lon="8.972929">
<ele>9.509558</ele>
<time>2026-06-18T17:03:16.838Z</time>
</trkpt>
<trkpt lat="57.137444" lon="8.973550">
<ele>9.654557</ele>
<time>2026-06-18T17:03:26.263Z</time>
</trkpt>
<trkpt lat="57.137136" lon="8.974775">
<ele>9.953175</ele>
<time>2026-06-18T17:03:45.175Z</time>
</trkpt>
<trkpt lat="57.136856" lon="8.977644">
<ele>10.594498</ele>
<time>2026-06-18T17:04:27.392Z</time>
</trkpt>
<trkpt lat="57.136873" lon="8.977839">
<ele>10.637890</ele>
<time>2026-06-18T17:04:30.256Z</time>
</trkpt>
<trkpt lat="57.136903" lon="8.977992">
<ele>10.673632</ele>
<time>2026-06-18T17:04:33.714Z</time>
</trkpt>
<trkpt lat="57.136813" lon="8.978830">
<ele>10.786559</ele>
<time>2026-06-18T17:04:51.509Z</time>
</trkpt>
<trkpt lat="57.136242" lon="8.984053">
<ele>10.041819</ele>
<time>2026-06-18T17:05:59.375Z</time>
</trkpt>
<trkpt lat="57.135511" lon="8.990694">
<ele>9.266248</ele>
<time>2026-06-18T17:07:27.068Z</time>
</trkpt>
<trkpt lat="57.135471" lon="8.991213">
<ele>9.233221</ele>
<time>2026-06-18T17:07:34.193Z</time>
</trkpt>
<trkpt lat="57.135457" lon="8.991824">
<ele>9.208140</ele>
<time>2026-06-18T17:07:42.603Z</time>
</trkpt>
<trkpt lat="57.135471" lon="8.992220">
<ele>9.209493</ele>
<time>2026-06-18T17:07:48.103Z</time>
</trkpt>
<trkpt lat="57.135511" lon="8.992558">
<ele>9.210672</ele>
<time>2026-06-18T17:07:52.877Z</time>
</trkpt>
<trkpt lat="57.135622" lon="8.992925">
<ele>9.212105</ele>
<time>2026-06-18T17:07:58.626Z</time>
</trkpt>
<trkpt lat="57.136012" lon="8.994034">
<ele>9.216609</ele>
<time>2026-06-18T17:08:16.306Z</time>
</trkpt>
<trkpt lat="57.136409" lon="8.994882">
<ele>9.161830</ele>
<time>2026-06-18T17:08:30.860Z</time>
</trkpt>
<trkpt lat="57.136980" lon="8.997480">
<ele>8.837815</ele>
<time>2026-06-18T17:09:07.087Z</time>
</trkpt>
<trkpt lat="57.139672" lon="9.009915">
<ele>8.120601</ele>
<time>2026-06-18T17:12:03.685Z</time>
</trkpt>
<trkpt lat="57.139779" lon="9.010291">
<ele>8.105332</ele>
<time>2026-06-18T17:12:09.416Z</time>
</trkpt>
<trkpt lat="57.140326" lon="9.010469">
<ele>8.068517</ele>
<time>2026-06-18T17:12:21.942Z</time>
</trkpt>
<trkpt lat="57.142251" lon="9.011560">
<ele>7.793292</ele>
<time>2026-06-18T17:13:05.972Z</time>
</trkpt>
<trkpt lat="57.142379" lon="9.011632">
<ele>7.766539</ele>
<time>2026-06-18T17:13:08.745Z</time>
</trkpt>
<trkpt lat="57.142762" lon="9.011961">
<ele>7.682068</ele>
<time>2026-06-18T17:13:17.471Z</time>
</trkpt>
<trkpt lat="57.142951" lon="9.012211">
<ele>7.635197</ele>
<time>2026-06-18T17:13:22.304Z</time>
</trkpt>
<trkpt lat="57.143108" lon="9.012489">
<ele>7.590117</ele>
<time>2026-06-18T17:13:26.817Z</time>
</trkpt>
<trkpt lat="57.144521" lon="9.015113">
<ele>7.234988</ele>
<time>2026-06-18T17:14:10.544Z</time>
</trkpt>
<trkpt lat="57.145109" lon="9.016466">
<ele>7.159200</ele>
<time>2026-06-18T17:14:30.921Z</time>
</trkpt>
<trkpt lat="57.145331" lon="9.016938">
<ele>7.131890</ele>
<time>2026-06-18T17:14:38.290Z</time>
</trkpt>
<trkpt lat="57.145554" lon="9.017336">
<ele>7.177924</ele>
<time>2026-06-18T17:14:45.216Z</time>
</trkpt>
<trkpt lat="57.146001" lon="9.017922">
<ele>7.279617</ele>
<time>2026-06-18T17:14:57.801Z</time>
</trkpt>
<trkpt lat="57.146571" lon="9.018508">
<ele>7.400617</ele>
<time>2026-06-18T17:15:13.138Z</time>
</trkpt>
<trkpt lat="57.147302" lon="9.019198">
<ele>7.486988</ele>
<time>2026-06-18T17:15:32.399Z</time>
</trkpt>
<trkpt lat="57.149807" lon="9.021657">
<ele>7.512233</ele>
<time>2026-06-18T17:16:35.192Z</time>
</trkpt>
<trkpt lat="57.150767" lon="9.022658">
<ele>7.895264</ele>
<time>2026-06-18T17:16:59.459Z</time>
</trkpt>
<trkpt lat="57.152905" lon="9.024638">
<ele>11.475915</ele>
<time>2026-06-18T17:18:01.401Z</time>
</trkpt>
<trkpt lat="57.152999" lon="9.024806">
<ele>11.762744</ele>
<time>2026-06-18T17:18:06.786Z</time>
</trkpt>
<trkpt lat="57.153046" lon="9.025089">
<ele>12.114457</ele>
<time>2026-06-18T17:18:13.800Z</time>
</trkpt>
<trkpt lat="57.152924" lon="9.027074">
<ele>18.102336</ele>
<time>2026-06-18T17:19:08.423Z</time>
</trkpt>
<trkpt lat="57.152984" lon="9.027585">
<ele>19.743542</ele>
<time>2026-06-18T17:19:22.466Z</time>
</trkpt>
<trkpt lat="57.153073" lon="9.027838">
<ele>20.690124</ele>
<time>2026-06-18T17:19:30.029Z</time>
</trkpt>
<trkpt lat="57.153175" lon="9.028016">
<ele>21.502935</ele>
<time>2026-06-18T17:19:36.227Z</time>
</trkpt>
<trkpt lat="57.152871" lon="9.028339">
<ele>23.100892</ele>
<time>2026-06-18T17:19:50.506Z</time>
</trkpt>
<trkpt lat="57.152746" lon="9.028609">
<ele>23.639436</ele>
<time>2026-06-18T17:19:57.615Z</time>
</trkpt>
<trkpt lat="57.152677" lon="9.028993">
<ele>24.253144</ele>
<time>2026-06-18T17:20:05.258Z</time>
</trkpt>
<trkpt lat="57.152445" lon="9.031053">
<ele>27.445072</ele>
<time>2026-06-18T17:20:40.668Z</time>
</trkpt>
<trkpt lat="57.152359" lon="9.031228">
<ele>27.771037</ele>
<time>2026-06-18T17:20:44.456Z</time>
</trkpt>
<trkpt lat="57.152264" lon="9.031320">
<ele>27.944063</ele>
<time>2026-06-18T17:20:47.566Z</time>
</trkpt>
<trkpt lat="57.152229" lon="9.031341">
<ele>28.003411</ele>
<time>2026-06-18T17:20:49.194Z</time>
</trkpt>
<trkpt lat="57.151300" lon="9.031555">
<ele>29.512996</ele>
<time>2026-06-18T17:21:29.404Z</time>
</trkpt>
<trkpt lat="57.151016" lon="9.031621">
<ele>29.974547</ele>
<time>2026-06-18T17:21:41.643Z</time>
</trkpt>
<trkpt lat="57.148903" lon="9.032026">
<ele>33.513741</ele>
<time>2026-06-18T17:23:14.885Z</time>
</trkpt>
<trkpt lat="57.148538" lon="9.032164">
<ele>34.074059</ele>
<time>2026-06-18T17:23:30.955Z</time>
</trkpt>
<trkpt lat="57.148416" lon="9.032261">
<ele>34.267609</ele>
<time>2026-06-18T17:23:36.619Z</time>
</trkpt>
<trkpt lat="57.147394" lon="9.033475">
<ele>36.038738</ele>
<time>2026-06-18T17:24:28.709Z</time>
</trkpt>
<trkpt lat="57.147323" lon="9.033661">
<ele>36.218469</ele>
<time>2026-06-18T17:24:34.088Z</time>
</trkpt>
<trkpt lat="57.147276" lon="9.033968">
<ele>36.326397</ele>
<time>2026-06-18T17:24:41.612Z</time>
</trkpt>
<trkpt lat="57.147081" lon="9.035327">
<ele>36.652076</ele>
<time>2026-06-18T17:25:13.419Z</time>
</trkpt>
<trkpt lat="57.146980" lon="9.036073">
<ele>36.830209</ele>
<time>2026-06-18T17:25:29.529Z</time>
</trkpt>
<trkpt lat="57.146726" lon="9.037935">
<ele>36.162137</ele>
<time>2026-06-18T17:26:04.772Z</time>
</trkpt>
<trkpt lat="57.146598" lon="9.038515">
<ele>35.635283</ele>
<time>2026-06-18T17:26:15.498Z</time>
</trkpt>
<trkpt lat="57.144890" lon="9.044977">
<ele>29.652332</ele>
<time>2026-06-18T17:28:19.417Z</time>
</trkpt>
<trkpt lat="57.144414" lon="9.046838">
<ele>29.659420</ele>
<time>2026-06-18T17:29:02.478Z</time>
</trkpt>
<trkpt lat="57.144330" lon="9.047100">
<ele>29.859960</ele>
<time>2026-06-18T17:29:09.725Z</time>
</trkpt>
<trkpt lat="57.144235" lon="9.047261">
<ele>30.016708</ele>
<time>2026-06-18T17:29:15.445Z</time>
</trkpt>
<trkpt lat="57.143287" lon="9.047468">
<ele>31.176210</ele>
<time>2026-06-18T17:29:44.203Z</time>
</trkpt>
<trkpt lat="57.143012" lon="9.047443">
<ele>30.999502</ele>
<time>2026-06-18T17:29:51.547Z</time>
</trkpt>
<trkpt lat="57.142449" lon="9.047287">
<ele>30.516011</ele>
<time>2026-06-18T17:30:04.337Z</time>
</trkpt>
<trkpt lat="57.142367" lon="9.047736">
<ele>30.297726</ele>
<time>2026-06-18T17:30:09.875Z</time>
</trkpt>
<trkpt lat="57.140984" lon="9.052899">
<ele>23.907287</ele>
<time>2026-06-18T17:31:09.447Z</time>
</trkpt>
<trkpt lat="57.140303" lon="9.055471">
<ele>21.278289</ele>
<time>2026-06-18T17:31:41.684Z</time>
</trkpt>
<trkpt lat="57.139693" lon="9.057501">
<ele>19.729464</ele>
<time>2026-06-18T17:32:08.381Z</time>
</trkpt>
<trkpt lat="57.139340" lon="9.058624">
<ele>19.044351</ele>
<time>2026-06-18T17:32:23.689Z</time>
</trkpt>
<trkpt lat="57.137925" lon="9.063399">
<ele>16.369559</ele>
<time>2026-06-18T17:33:28.826Z</time>
</trkpt>
<trkpt lat="57.137869" lon="9.063586">
<ele>16.262378</ele>
<time>2026-06-18T17:33:31.301Z</time>
</trkpt>
<trkpt lat="57.138070" lon="9.063616">
<ele>15.986045</ele>
<time>2026-06-18T17:33:35.605Z</time>
</trkpt>
<trkpt lat="57.138242" lon="9.063641">
<ele>15.745768</ele>
<time>2026-06-18T17:33:39.245Z</time>
</trkpt>
<trkpt lat="57.138831" lon="9.063731">
<ele>14.922694</ele>
<time>2026-06-18T17:33:51.439Z</time>
</trkpt>
<trkpt lat="57.139971" lon="9.063912">
<ele>13.563024</ele>
<time>2026-06-18T17:34:15.024Z</time>
</trkpt>
<trkpt lat="57.140700" lon="9.064027">
<ele>13.112104</ele>
<time>2026-06-18T17:34:31.138Z</time>
</trkpt>
<trkpt lat="57.140905" lon="9.064059">
<ele>12.985312</ele>
<time>2026-06-18T17:34:35.989Z</time>
</trkpt>
<trkpt lat="57.141126" lon="9.064094">
<ele>12.848610</ele>
<time>2026-06-18T17:34:41.423Z</time>
</trkpt>
<trkpt lat="57.141702" lon="9.064183">
<ele>12.748234</ele>
<time>2026-06-18T17:34:56.146Z</time>
</trkpt>
<trkpt lat="57.141837" lon="9.064204">
<ele>12.809312</ele>
<time>2026-06-18T17:34:59.723Z</time>
</trkpt>
<trkpt lat="57.142653" lon="9.064331">
<ele>13.178498</ele>
<time>2026-06-18T17:35:21.582Z</time>
</trkpt>
<trkpt lat="57.143363" lon="9.064441">
<ele>13.516194</ele>
<time>2026-06-18T17:35:40.659Z</time>
</trkpt>
<trkpt lat="57.145780" lon="9.064830">
<ele>14.474270</ele>
<time>2026-06-18T17:36:46.767Z</time>
</trkpt>
<trkpt lat="57.145830" lon="9.069287">
<ele>12.527324</ele>
<time>2026-06-18T17:37:41.676Z</time>
</trkpt>
<trkpt lat="57.145760" lon="9.069492">
<ele>12.347252</ele>
<time>2026-06-18T17:37:44.161Z</time>
</trkpt>
<trkpt lat="57.145286" lon="9.070192">
<ele>11.144601</ele>
<time>2026-06-18T17:37:55.245Z</time>
</trkpt>
<trkpt lat="57.145165" lon="9.070358">
<ele>10.748854</ele>
<time>2026-06-18T17:37:57.928Z</time>
</trkpt>
<trkpt lat="57.144444" lon="9.071298">
<ele>8.431795</ele>
<time>2026-06-18T17:38:13.993Z</time>
</trkpt>
<trkpt lat="57.144236" lon="9.071689">
<ele>7.652320</ele>
<time>2026-06-18T17:38:19.886Z</time>
</trkpt>
<trkpt lat="57.142298" lon="9.075563">
<ele>6.277658</ele>
<time>2026-06-18T17:39:28.344Z</time>
</trkpt>
<trkpt lat="57.142132" lon="9.075957">
<ele>6.214046</ele>
<time>2026-06-18T17:39:35.110Z</time>
</trkpt>
<trkpt lat="57.141511" lon="9.079365">
<ele>5.501673</ele>
<time>2026-06-18T17:40:20.683Z</time>
</trkpt>
<trkpt lat="57.141172" lon="9.081140">
<ele>4.867829</ele>
<time>2026-06-18T17:40:43.898Z</time>
</trkpt>
<trkpt lat="57.140940" lon="9.082358">
<ele>4.309892</ele>
<time>2026-06-18T17:40:59.443Z</time>
</trkpt>
<trkpt lat="57.140857" lon="9.082849">
<ele>4.087612</ele>
<time>2026-06-18T17:41:05.511Z</time>
</trkpt>
<trkpt lat="57.140843" lon="9.083086">
<ele>3.984572</ele>
<time>2026-06-18T17:41:08.298Z</time>
</trkpt>
<trkpt lat="57.140916" lon="9.085407">
<ele>3.012620</ele>
<time>2026-06-18T17:41:35.726Z</time>
</trkpt>
<trkpt lat="57.140985" lon="9.087700">
<ele>2.427139</ele>
<time>2026-06-18T17:42:04.359Z</time>
</trkpt>
<trkpt lat="57.140974" lon="9.088580">
<ele>2.381021</ele>
<time>2026-06-18T17:42:15.956Z</time>
</trkpt>
<trkpt lat="57.139997" lon="9.092328">
<ele>2.723395</ele>
<time>2026-06-18T17:43:13.993Z</time>
</trkpt>
<trkpt lat="57.139341" lon="9.094806">
<ele>2.941654</ele>
<time>2026-06-18T17:43:53.164Z</time>
</trkpt>
<trkpt lat="57.139201" lon="9.095330">
<ele>2.976697</ele>
<time>2026-06-18T17:44:00.824Z</time>
</trkpt>
<trkpt lat="57.139091" lon="9.095882">
<ele>3.007917</ele>
<time>2026-06-18T17:44:08.312Z</time>
</trkpt>
<trkpt lat="57.139177" lon="9.097088">
<ele>2.958154</ele>
<time>2026-06-18T17:44:23.340Z</time>
</trkpt>
<trkpt lat="57.139171" lon="9.097786">
<ele>2.929595</ele>
<time>2026-06-18T17:44:32.297Z</time>
</trkpt>
<trkpt lat="57.139148" lon="9.097979">
<ele>2.921511</ele>
<time>2026-06-18T17:44:34.948Z</time>
</trkpt>
<trkpt lat="57.139130" lon="9.098112">
<ele>2.915903</ele>
<time>2026-06-18T17:44:36.799Z</time>
</trkpt>
<trkpt lat="57.138972" lon="9.098609">
<ele>2.892338</ele>
<time>2026-06-18T17:44:44.713Z</time>
</trkpt>
<trkpt lat="57.138262" lon="9.100556">
<ele>3.357496</ele>
<time>2026-06-18T17:45:19.093Z</time>
</trkpt>
<trkpt lat="57.138162" lon="9.100931">
<ele>3.464038</ele>
<time>2026-06-18T17:45:25.313Z</time>
</trkpt>
<trkpt lat="57.138031" lon="9.101763">
<ele>3.684937</ele>
<time>2026-06-18T17:45:37.900Z</time>
</trkpt>
<trkpt lat="57.138177" lon="9.102203">
<ele>3.717268</ele>
<time>2026-06-18T17:45:45.168Z</time>
</trkpt>
<trkpt lat="57.138202" lon="9.102348">
<ele>3.716510</ele>
<time>2026-06-18T17:45:47.282Z</time>
</trkpt>
<trkpt lat="57.138183" lon="9.105427">
<ele>3.722766</ele>
<time>2026-06-18T17:46:27.673Z</time>
</trkpt>
<trkpt lat="57.138160" lon="9.105836">
<ele>3.750505</ele>
<time>2026-06-18T17:46:33.047Z</time>
</trkpt>
<trkpt lat="57.138050" lon="9.106481">
<ele>3.796115</ele>
<time>2026-06-18T17:46:42.106Z</time>
</trkpt>
<trkpt lat="57.137992" lon="9.106842">
<ele>3.821512</ele>
<time>2026-06-18T17:46:47.262Z</time>
</trkpt>
<trkpt lat="57.137903" lon="9.107429">
<ele>3.862628</ele>
<time>2026-06-18T17:46:55.784Z</time>
</trkpt>
<trkpt lat="57.137847" lon="9.108318">
<ele>3.923003</ele>
<time>2026-06-18T17:47:08.599Z</time>
</trkpt>
<trkpt lat="57.137780" lon="9.108761">
<ele>3.987710</ele>
<time>2026-06-18T17:47:15.231Z</time>
</trkpt>
<trkpt lat="57.137415" lon="9.109598">
<ele>4.148056</ele>
<time>2026-06-18T17:47:30.654Z</time>
</trkpt>
<trkpt lat="57.137319" lon="9.109693">
<ele>4.178043</ele>
<time>2026-06-18T17:47:33.445Z</time>
</trkpt>
<trkpt lat="57.137257" lon="9.109704">
<ele>4.195183</ele>
<time>2026-06-18T17:47:35.056Z</time>
</trkpt>
<trkpt lat="57.137169" lon="9.109656">
<ele>4.220439</ele>
<time>2026-06-18T17:47:37.412Z</time>
</trkpt>
<trkpt lat="57.137037" lon="9.109564">
<ele>4.259275</ele>
<time>2026-06-18T17:47:40.995Z</time>
</trkpt>
<trkpt lat="57.136617" lon="9.109229">
<ele>4.385218</ele>
<time>2026-06-18T17:47:52.478Z</time>
</trkpt>
<trkpt lat="57.136391" lon="9.109150">
<ele>4.446072</ele>
<time>2026-06-18T17:47:58.196Z</time>
</trkpt>
<trkpt lat="57.136204" lon="9.109162">
<ele>4.492941</ele>
<time>2026-06-18T17:48:02.806Z</time>
</trkpt>
<trkpt lat="57.134730" lon="9.109511">
<ele>4.865194</ele>
<time>2026-06-18T17:48:40.951Z</time>
</trkpt>
<trkpt lat="57.134445" lon="9.109639">
<ele>5.042255</ele>
<time>2026-06-18T17:48:48.819Z</time>
</trkpt>
<trkpt lat="57.133834" lon="9.110047">
<ele>5.457117</ele>
<time>2026-06-18T17:49:06.606Z</time>
</trkpt>
<trkpt lat="57.133623" lon="9.110211">
<ele>5.603304</ele>
<time>2026-06-18T17:49:13.023Z</time>
</trkpt>
<trkpt lat="57.133506" lon="9.110370">
<ele>5.696108</ele>
<time>2026-06-18T17:49:17.130Z</time>
</trkpt>
<trkpt lat="57.133435" lon="9.110521">
<ele>5.765323</ele>
<time>2026-06-18T17:49:20.183Z</time>
</trkpt>
<trkpt lat="57.132737" lon="9.112654">
<ele>6.251029</ele>
<time>2026-06-18T17:49:56.879Z</time>
</trkpt>
<trkpt lat="57.132415" lon="9.113703">
<ele>6.409633</ele>
<time>2026-06-18T17:50:12.688Z</time>
</trkpt>
<trkpt lat="57.132074" lon="9.115477">
<ele>6.487897</ele>
<time>2026-06-18T17:50:37.013Z</time>
</trkpt>
<trkpt lat="57.131878" lon="9.116019">
<ele>6.501426</ele>
<time>2026-06-18T17:50:45.789Z</time>
</trkpt>
<trkpt lat="57.131397" lon="9.117077">
<ele>6.594009</ele>
<time>2026-06-18T17:51:05.123Z</time>
</trkpt>
<trkpt lat="57.131174" lon="9.117542">
<ele>6.768219</ele>
<time>2026-06-18T17:51:14.308Z</time>
</trkpt>
<trkpt lat="57.131103" lon="9.117800">
<ele>6.849431</ele>
<time>2026-06-18T17:51:18.629Z</time>
</trkpt>
<trkpt lat="57.130774" lon="9.119225">
<ele>7.284188</ele>
<time>2026-06-18T17:51:41.504Z</time>
</trkpt>
<trkpt lat="57.130626" lon="9.119632">
<ele>7.421730</ele>
<time>2026-06-18T17:51:48.636Z</time>
</trkpt>
<trkpt lat="57.130522" lon="9.119776">
<ele>7.467064</ele>
<time>2026-06-18T17:51:52.100Z</time>
</trkpt>
<trkpt lat="57.130229" lon="9.120108">
<ele>7.528734</ele>
<time>2026-06-18T17:52:01.024Z</time>
</trkpt>
<trkpt lat="57.130153" lon="9.120250">
<ele>7.548140</ele>
<time>2026-06-18T17:52:03.779Z</time>
</trkpt>
<trkpt lat="57.130079" lon="9.120444">
<ele>7.571213</ele>
<time>2026-06-18T17:52:06.987Z</time>
</trkpt>
<trkpt lat="57.129979" lon="9.120838">
<ele>7.613537</ele>
<time>2026-06-18T17:52:12.788Z</time>
</trkpt>
<trkpt lat="57.129943" lon="9.121497">
<ele>7.677986</ele>
<time>2026-06-18T17:52:21.431Z</time>
</trkpt>
<trkpt lat="57.130005" lon="9.122444">
<ele>7.770803</ele>
<time>2026-06-18T17:52:34.257Z</time>
</trkpt>
<trkpt lat="57.129993" lon="9.122746">
<ele>7.878094</ele>
<time>2026-06-18T17:52:38.548Z</time>
</trkpt>
<trkpt lat="57.129925" lon="9.123008">
<ele>8.004639</ele>
<time>2026-06-18T17:52:42.749Z</time>
</trkpt>
<trkpt lat="57.129812" lon="9.123242">
<ele>8.141120</ele>
<time>2026-06-18T17:52:47.406Z</time>
</trkpt>
<trkpt lat="57.129360" lon="9.123731">
<ele>8.561942</ele>
<time>2026-06-18T17:53:02.288Z</time>
</trkpt>
<trkpt lat="57.129193" lon="9.124016">
<ele>8.744695</ele>
<time>2026-06-18T17:53:08.962Z</time>
</trkpt>
<trkpt lat="57.128787" lon="9.124982">
<ele>9.223238</ele>
<time>2026-06-18T17:53:28.470Z</time>
</trkpt>
<trkpt lat="57.128635" lon="9.125738">
<ele>9.231517</ele>
<time>2026-06-18T17:53:40.524Z</time>
</trkpt>
<trkpt lat="57.128593" lon="9.125804">
<ele>9.232562</ele>
<time>2026-06-18T17:53:42.015Z</time>
</trkpt>
<trkpt lat="57.128506" lon="9.125839">
<ele>9.234247</ele>
<time>2026-06-18T17:53:44.470Z</time>
</trkpt>
<trkpt lat="57.128352" lon="9.125788">
<ele>9.237207</ele>
<time>2026-06-18T17:53:48.633Z</time>
</trkpt>
<trkpt lat="57.128309" lon="9.125816">
<ele>9.238070</ele>
<time>2026-06-18T17:53:49.791Z</time>
</trkpt>
<trkpt lat="57.128245" lon="9.125958">
<ele>9.239966</ele>
<time>2026-06-18T17:53:52.353Z</time>
</trkpt>
<trkpt lat="57.128206" lon="9.126400">
<ele>9.244565</ele>
<time>2026-06-18T17:53:58.240Z</time>
</trkpt>
<trkpt lat="57.128338" lon="9.127019">
<ele>9.251395</ele>
<time>2026-06-18T17:54:10.870Z</time>
</trkpt>
<trkpt lat="57.128378" lon="9.127341">
<ele>9.254787</ele>
<time>2026-06-18T17:54:16.927Z</time>
</trkpt>
<trkpt lat="57.128376" lon="9.127522">
<ele>9.217333</ele>
<time>2026-06-18T17:54:20.181Z</time>
</trkpt>
<trkpt lat="57.128253" lon="9.130117">
<ele>7.686342</ele>
<time>2026-06-18T17:55:06.468Z</time>
</trkpt>
<trkpt lat="57.128158" lon="9.131894">
<ele>7.271599</ele>
<time>2026-06-18T17:55:40.719Z</time>
</trkpt>
<trkpt lat="57.128425" lon="9.132092">
<ele>7.254578</ele>
<time>2026-06-18T17:55:47.469Z</time>
</trkpt>
<trkpt lat="57.129310" lon="9.132733">
<ele>7.179329</ele>
<time>2026-06-18T17:56:10.011Z</time>
</trkpt>
<trkpt lat="57.129793" lon="9.133049">
<ele>6.986922</ele>
<time>2026-06-18T17:56:21.149Z</time>
</trkpt>
<trkpt lat="57.130129" lon="9.133161">
<ele>6.858741</ele>
<time>2026-06-18T17:56:28.234Z</time>
</trkpt>
<trkpt lat="57.130490" lon="9.133175">
<ele>6.723194</ele>
<time>2026-06-18T17:56:35.575Z</time>
</trkpt>
<trkpt lat="57.130663" lon="9.133134">
<ele>6.657715</ele>
<time>2026-06-18T17:56:39.089Z</time>
</trkpt>
<trkpt lat="57.131071" lon="9.132943">
<ele>6.502246</ele>
<time>2026-06-18T17:56:47.468Z</time>
</trkpt>
<trkpt lat="57.131338" lon="9.132722">
<ele>6.402775</ele>
<time>2026-06-18T17:56:53.204Z</time>
</trkpt>
<trkpt lat="57.131495" lon="9.132565">
<ele>6.342069</ele>
<time>2026-06-18T17:56:56.781Z</time>
</trkpt>
<trkpt lat="57.131827" lon="9.132236">
<ele>6.213961</ele>
<time>2026-06-18T17:57:04.681Z</time>
</trkpt>
<trkpt lat="57.132251" lon="9.131815">
<ele>6.050281</ele>
<time>2026-06-18T17:57:15.012Z</time>
</trkpt>
<trkpt lat="57.132674" lon="9.131390">
<ele>5.910865</ele>
<time>2026-06-18T17:57:25.677Z</time>
</trkpt>
<trkpt lat="57.133179" lon="9.130891">
<ele>5.879992</ele>
<time>2026-06-18T17:57:38.611Z</time>
</trkpt>
<trkpt lat="57.133213" lon="9.130985">
<ele>5.876689</ele>
<time>2026-06-18T17:57:40.044Z</time>
</trkpt>
<trkpt lat="57.133244" lon="9.130954">
<ele>5.874789</ele>
<time>2026-06-18T17:57:40.832Z</time>
</trkpt>
<trkpt lat="57.133274" lon="9.131077">
<ele>5.870846</ele>
<time>2026-06-18T17:57:42.515Z</time>
</trkpt>
<trkpt lat="57.133286" lon="9.131380">
<ele>5.861963</ele>
<time>2026-06-18T17:57:46.242Z</time>
</trkpt>
<trkpt lat="57.133266" lon="9.131804">
<ele>5.849520</ele>
<time>2026-06-18T17:57:51.329Z</time>
</trkpt>
<trkpt lat="57.133261" lon="9.131898">
<ele>5.846758</ele>
<time>2026-06-18T17:57:52.465Z</time>
</trkpt>
<trkpt lat="57.133239" lon="9.132361">
<ele>5.833169</ele>
<time>2026-06-18T17:57:57.983Z</time>
</trkpt>
<trkpt lat="57.133169" lon="9.133806">
<ele>5.659242</ele>
<time>2026-06-18T17:58:14.840Z</time>
</trkpt>
<trkpt lat="57.133155" lon="9.134075">
<ele>5.613949</ele>
<time>2026-06-18T17:58:17.885Z</time>
</trkpt>
<trkpt lat="57.133126" lon="9.134627">
<ele>5.520999</ele>
<time>2026-06-18T17:58:24.208Z</time>
</trkpt>
<trkpt lat="57.133089" lon="9.135334">
<ele>5.401952</ele>
<time>2026-06-18T17:58:32.335Z</time>
</trkpt>
<trkpt lat="57.133069" lon="9.135732">
<ele>5.334960</ele>
<time>2026-06-18T17:58:36.831Z</time>
</trkpt>
<trkpt lat="57.133000" lon="9.137053">
<ele>5.122791</ele>
<time>2026-06-18T17:58:51.724Z</time>
</trkpt>
<trkpt lat="57.132952" lon="9.137843">
<ele>4.998638</ele>
<time>2026-06-18T17:59:00.836Z</time>
</trkpt>
<trkpt lat="57.132916" lon="9.138549">
<ele>4.887889</ele>
<time>2026-06-18T17:59:09.023Z</time>
</trkpt>
<trkpt lat="57.132913" lon="9.138618">
<ele>4.877078</ele>
<time>2026-06-18T17:59:09.820Z</time>
</trkpt>
<trkpt lat="57.132881" lon="9.139215">
<ele>4.783385</ele>
<time>2026-06-18T17:59:16.785Z</time>
</trkpt>
<trkpt lat="57.132854" lon="9.139692">
<ele>4.752110</ele>
<time>2026-06-18T17:59:22.460Z</time>
</trkpt>
<trkpt lat="57.132852" lon="9.139731">
<ele>4.753218</ele>
<time>2026-06-18T17:59:22.928Z</time>
</trkpt>
<trkpt lat="57.132755" lon="9.141635">
<ele>4.807336</ele>
<time>2026-06-18T17:59:46.280Z</time>
</trkpt>
<trkpt lat="57.132719" lon="9.142335">
<ele>4.827233</ele>
<time>2026-06-18T17:59:55.058Z</time>
</trkpt>
<trkpt lat="57.132666" lon="9.143357">
<ele>4.875624</ele>
<time>2026-06-18T18:00:07.899Z</time>
</trkpt>
<trkpt lat="57.132619" lon="9.144230">
<ele>4.928559</ele>
<time>2026-06-18T18:00:18.721Z</time>
</trkpt>
<trkpt lat="57.132597" lon="9.144639">
<ele>4.953359</ele>
<time>2026-06-18T18:00:23.840Z</time>
</trkpt>
<trkpt lat="57.132593" lon="9.144721">
<ele>4.958327</ele>
<time>2026-06-18T18:00:24.848Z</time>
</trkpt>
<trkpt lat="57.132563" lon="9.145271">
<ele>4.991681</ele>
<time>2026-06-18T18:00:31.758Z</time>
</trkpt>
<trkpt lat="57.132531" lon="9.145936">
<ele>5.031964</ele>
<time>2026-06-18T18:00:39.979Z</time>
</trkpt>
<trkpt lat="57.132536" lon="9.146308">
<ele>4.987885</ele>
<time>2026-06-18T18:00:44.383Z</time>
</trkpt>
<trkpt lat="57.132617" lon="9.147114">
<ele>4.821256</ele>
<time>2026-06-18T18:00:53.756Z</time>
</trkpt>
<trkpt lat="57.132696" lon="9.147529">
<ele>4.731856</ele>
<time>2026-06-18T18:00:58.710Z</time>
</trkpt>
<trkpt lat="57.132729" lon="9.147688">
<ele>4.697251</ele>
<time>2026-06-18T18:01:00.623Z</time>
</trkpt>
<trkpt lat="57.132807" lon="9.147957">
<ele>4.635253</ele>
<time>2026-06-18T18:01:04.040Z</time>
</trkpt>
<trkpt lat="57.133307" lon="9.149137">
<ele>4.350617</ele>
<time>2026-06-18T18:01:20.654Z</time>
</trkpt>
<trkpt lat="57.133420" lon="9.149499">
<ele>4.314117</ele>
<time>2026-06-18T18:01:25.282Z</time>
</trkpt>
<trkpt lat="57.133523" lon="9.149915">
<ele>4.274154</ele>
<time>2026-06-18T18:01:30.452Z</time>
</trkpt>
<trkpt lat="57.133638" lon="9.150809">
<ele>4.193854</ele>
<time>2026-06-18T18:01:41.260Z</time>
</trkpt>
<trkpt lat="57.133645" lon="9.151221">
<ele>4.157827</ele>
<time>2026-06-18T18:01:46.275Z</time>
</trkpt>
<trkpt lat="57.133591" lon="9.152143">
<ele>4.076777</ele>
<time>2026-06-18T18:01:57.690Z</time>
</trkpt>
<trkpt lat="57.133557" lon="9.152625">
<ele>4.098629</ele>
<time>2026-06-18T18:02:03.700Z</time>
</trkpt>
<trkpt lat="57.133251" lon="9.156839">
<ele>4.432579</ele>
<time>2026-06-18T18:02:55.933Z</time>
</trkpt>
<trkpt lat="57.133058" lon="9.159459">
<ele>4.723061</ele>
<time>2026-06-18T18:03:29.878Z</time>
</trkpt>
<trkpt lat="57.132614" lon="9.165009">
<ele>4.697528</ele>
<time>2026-06-18T18:04:36.927Z</time>
</trkpt>
<trkpt lat="57.132415" lon="9.167455">
<ele>4.630664</ele>
<time>2026-06-18T18:05:06.405Z</time>
</trkpt>
<trkpt lat="57.132133" lon="9.171039">
<ele>4.600434</ele>
<time>2026-06-18T18:05:50.286Z</time>
</trkpt>
<trkpt lat="57.131919" lon="9.173851">
<ele>4.641611</ele>
<time>2026-06-18T18:06:24.600Z</time>
</trkpt>
<trkpt lat="57.131811" lon="9.175216">
<ele>4.666934</ele>
<time>2026-06-18T18:06:41.369Z</time>
</trkpt>
<trkpt lat="57.131812" lon="9.175956">
<ele>4.658783</ele>
<time>2026-06-18T18:06:50.423Z</time>
</trkpt>
<trkpt lat="57.131903" lon="9.176631">
<ele>4.651123</ele>
<time>2026-06-18T18:06:58.864Z</time>
</trkpt>
<trkpt lat="57.132098" lon="9.177451">
<ele>4.641262</ele>
<time>2026-06-18T18:07:09.557Z</time>
</trkpt>
<trkpt lat="57.132214" lon="9.178224">
<ele>4.632429</ele>
<time>2026-06-18T18:07:19.074Z</time>
</trkpt>
<trkpt lat="57.132228" lon="9.178618">
<ele>4.627285</ele>
<time>2026-06-18T18:07:23.727Z</time>
</trkpt>
<trkpt lat="57.132203" lon="9.179251">
<ele>4.618654</ele>
<time>2026-06-18T18:07:31.152Z</time>
</trkpt>
<trkpt lat="57.131932" lon="9.181218">
<ele>4.591057</ele>
<time>2026-06-18T18:07:55.387Z</time>
</trkpt>
<trkpt lat="57.131722" lon="9.183648">
<ele>4.805708</ele>
<time>2026-06-18T18:08:26.138Z</time>
</trkpt>
<trkpt lat="57.131493" lon="9.186373">
<ele>5.049750</ele>
<time>2026-06-18T18:09:00.816Z</time>
</trkpt>
<trkpt lat="57.131470" lon="9.186656">
<ele>5.071778</ele>
<time>2026-06-18T18:09:04.442Z</time>
</trkpt>
<trkpt lat="57.131353" lon="9.188045">
<ele>5.179979</ele>
<time>2026-06-18T18:09:22.017Z</time>
</trkpt>
<trkpt lat="57.131166" lon="9.190193">
<ele>4.859222</ele>
<time>2026-06-18T18:09:47.175Z</time>
</trkpt>
<trkpt lat="57.131091" lon="9.191052">
<ele>4.725298</ele>
<time>2026-06-18T18:09:56.741Z</time>
</trkpt>
<trkpt lat="57.131039" lon="9.191656">
<ele>4.665225</ele>
<time>2026-06-18T18:10:03.627Z</time>
</trkpt>
<trkpt lat="57.130973" lon="9.192413">
<ele>4.639875</ele>
<time>2026-06-18T18:10:12.421Z</time>
</trkpt>
<trkpt lat="57.130962" lon="9.192533">
<ele>4.635851</ele>
<time>2026-06-18T18:10:13.844Z</time>
</trkpt>
<trkpt lat="57.130920" lon="9.193026">
<ele>4.619351</ele>
<time>2026-06-18T18:10:19.766Z</time>
</trkpt>
<trkpt lat="57.130763" lon="9.194868">
<ele>4.582176</ele>
<time>2026-06-18T18:10:42.972Z</time>
</trkpt>
<trkpt lat="57.130525" lon="9.197672">
<ele>4.804471</ele>
<time>2026-06-18T18:11:18.003Z</time>
</trkpt>
<trkpt lat="57.130211" lon="9.201275">
<ele>5.131428</ele>
<time>2026-06-18T18:12:03.471Z</time>
</trkpt>
<trkpt lat="57.130189" lon="9.201511">
<ele>5.153514</ele>
<time>2026-06-18T18:12:06.435Z</time>
</trkpt>
<trkpt lat="57.130169" lon="9.201756">
<ele>5.176365</ele>
<time>2026-06-18T18:12:09.508Z</time>
</trkpt>
<trkpt lat="57.129990" lon="9.203779">
<ele>5.365416</ele>
<time>2026-06-18T18:12:35.163Z</time>
</trkpt>
<trkpt lat="57.129883" lon="9.205053">
<ele>5.411651</ele>
<time>2026-06-18T18:12:51.061Z</time>
</trkpt>
<trkpt lat="57.129703" lon="9.207101">
<ele>5.347833</ele>
<time>2026-06-18T18:13:15.768Z</time>
</trkpt>
<trkpt lat="57.129639" lon="9.207641">
<ele>5.330831</ele>
<time>2026-06-18T18:13:22.161Z</time>
</trkpt>
<trkpt lat="57.129275" lon="9.210086">
<ele>5.356260</ele>
<time>2026-06-18T18:13:52.212Z</time>
</trkpt>
<trkpt lat="57.128429" lon="9.215817">
<ele>6.154493</ele>
<time>2026-06-18T18:15:07.849Z</time>
</trkpt>
<trkpt lat="57.127294" lon="9.223479">
<ele>6.917581</ele>
<time>2026-06-18T18:16:47.426Z</time>
</trkpt>
<trkpt lat="57.126659" lon="9.227782">
<ele>6.354056</ele>
<time>2026-06-18T18:17:37.481Z</time>
</trkpt>
<trkpt lat="57.125667" lon="9.234428">
<ele>7.751377</ele>
<time>2026-06-18T18:19:07.290Z</time>
</trkpt>
<trkpt lat="57.125643" lon="9.234593">
<ele>7.801595</ele>
<time>2026-06-18T18:19:09.565Z</time>
</trkpt>
<trkpt lat="57.125147" lon="9.237946">
<ele>8.872160</ele>
<time>2026-06-18T18:19:56.416Z</time>
</trkpt>
<trkpt lat="57.124725" lon="9.240193">
<ele>9.506185</ele>
<time>2026-06-18T18:20:28.065Z</time>
</trkpt>
<trkpt lat="57.124697" lon="9.240333">
<ele>9.516809</ele>
<time>2026-06-18T18:20:29.955Z</time>
</trkpt>
<trkpt lat="57.124580" lon="9.241164">
<ele>9.577938</ele>
<time>2026-06-18T18:20:40.655Z</time>
</trkpt>
<trkpt lat="57.124098" lon="9.244630">
<ele>9.758217</ele>
<time>2026-06-18T18:21:23.137Z</time>
</trkpt>
<trkpt lat="57.123906" lon="9.245647">
<ele>9.791079</ele>
<time>2026-06-18T18:21:36.718Z</time>
</trkpt>
<trkpt lat="57.122664" lon="9.251385">
<ele>10.724866</ele>
<time>2026-06-18T18:22:55.885Z</time>
</trkpt>
<trkpt lat="57.122504" lon="9.252244">
<ele>10.832633</ele>
<time>2026-06-18T18:23:06.563Z</time>
</trkpt>
<trkpt lat="57.121883" lon="9.255574">
<ele>11.067525</ele>
<time>2026-06-18T18:23:49.488Z</time>
</trkpt>
<trkpt lat="57.121025" lon="9.259145">
<ele>12.119794</ele>
<time>2026-06-18T18:24:42.043Z</time>
</trkpt>
<trkpt lat="57.120962" lon="9.259673">
<ele>12.208649</ele>
<time>2026-06-18T18:24:49.158Z</time>
</trkpt>
<trkpt lat="57.120975" lon="9.259925">
<ele>12.250255</ele>
<time>2026-06-18T18:24:52.435Z</time>
</trkpt>
<trkpt lat="57.121041" lon="9.260298">
<ele>12.314737</ele>
<time>2026-06-18T18:24:57.443Z</time>
</trkpt>
<trkpt lat="57.120344" lon="9.261098">
<ele>12.528244</ele>
<time>2026-06-18T18:25:15.952Z</time>
</trkpt>
<trkpt lat="57.119639" lon="9.261784">
<ele>12.552686</ele>
<time>2026-06-18T18:25:33.091Z</time>
</trkpt>
<trkpt lat="57.116520" lon="9.264298">
<ele>13.258070</ele>
<time>2026-06-18T18:26:51.389Z</time>
</trkpt>
<trkpt lat="57.116325" lon="9.264461">
<ele>13.348691</ele>
<time>2026-06-18T18:26:56.410Z</time>
</trkpt>
<trkpt lat="57.114914" lon="9.265577">
<ele>14.149948</ele>
<time>2026-06-18T18:27:34.657Z</time>
</trkpt>
<trkpt lat="57.114303" lon="9.265937">
<ele>14.563264</ele>
<time>2026-06-18T18:27:50.496Z</time>
</trkpt>
<trkpt lat="57.114313" lon="9.266010">
<ele>14.589602</ele>
<time>2026-06-18T18:27:51.508Z</time>
</trkpt>
<trkpt lat="57.114323" lon="9.266088">
<ele>14.617638</ele>
<time>2026-06-18T18:27:53.231Z</time>
</trkpt>
<trkpt lat="57.114372" lon="9.266506">
<ele>14.767236</ele>
<time>2026-06-18T18:28:02.460Z</time>
</trkpt>
<trkpt lat="57.114375" lon="9.266657">
<ele>14.820095</ele>
<time>2026-06-18T18:28:05.718Z</time>
</trkpt>
<trkpt lat="57.114376" lon="9.266757">
<ele>14.855083</ele>
<time>2026-06-18T18:28:07.884Z</time>
</trkpt>
<trkpt lat="57.114389" lon="9.267045">
<ele>14.941367</ele>
<time>2026-06-18T18:28:12.200Z</time>
</trkpt>
<trkpt lat="57.114495" lon="9.269169">
<ele>15.562780</ele>
<time>2026-06-18T18:28:42.986Z</time>
</trkpt>
<trkpt lat="57.114598" lon="9.270160">
<ele>15.868221</ele>
<time>2026-06-18T18:28:57.830Z</time>
</trkpt>
<trkpt lat="57.114624" lon="9.270666">
<ele>16.086976</ele>
<time>2026-06-18T18:29:05.271Z</time>
</trkpt>
<trkpt lat="57.114609" lon="9.271260">
<ele>16.342909</ele>
<time>2026-06-18T18:29:14.352Z</time>
</trkpt>
<trkpt lat="57.114618" lon="9.272448">
<ele>16.854272</ele>
<time>2026-06-18T18:29:32.526Z</time>
</trkpt>
<trkpt lat="57.114632" lon="9.273150">
<ele>17.156615</ele>
<time>2026-06-18T18:29:43.292Z</time>
</trkpt>
<trkpt lat="57.114713" lon="9.275356">
<ele>18.087258</ele>
<time>2026-06-18T18:30:16.574Z</time>
</trkpt>
<trkpt lat="57.114855" lon="9.275467">
<ele>18.206520</ele>
<time>2026-06-18T18:30:20.855Z</time>
</trkpt>
<trkpt lat="57.114960" lon="9.275625">
<ele>18.311346</ele>
<time>2026-06-18T18:30:24.671Z</time>
</trkpt>
<trkpt lat="57.115106" lon="9.275967">
<ele>18.493966</ele>
<time>2026-06-18T18:30:31.341Z</time>
</trkpt>
<trkpt lat="57.115575" lon="9.277437">
<ele>19.504306</ele>
<time>2026-06-18T18:30:57.119Z</time>
</trkpt>
<trkpt lat="57.115813" lon="9.277851">
<ele>19.890405</ele>
<time>2026-06-18T18:31:06.228Z</time>
</trkpt>
<trkpt lat="57.115993" lon="9.278072">
<ele>20.145543</ele>
<time>2026-06-18T18:31:12.424Z</time>
</trkpt>
<trkpt lat="57.116193" lon="9.278281">
<ele>20.416746</ele>
<time>2026-06-18T18:31:19.256Z</time>
</trkpt>
<trkpt lat="57.116707" lon="9.278845">
<ele>21.159573</ele>
<time>2026-06-18T18:31:39.429Z</time>
</trkpt>
<trkpt lat="57.116772" lon="9.279117">
<ele>21.369971</ele>
<time>2026-06-18T18:31:44.998Z</time>
</trkpt>
<trkpt lat="57.116765" lon="9.279856">
<ele>21.893243</ele>
<time>2026-06-18T18:31:58.394Z</time>
</trkpt>
<trkpt lat="57.116794" lon="9.279981">
<ele>21.989481</ele>
<time>2026-06-18T18:32:00.832Z</time>
</trkpt>
<trkpt lat="57.116863" lon="9.280099">
<ele>22.112260</ele>
<time>2026-06-18T18:32:03.858Z</time>
</trkpt>
<trkpt lat="57.117083" lon="9.280227">
<ele>22.413110</ele>
<time>2026-06-18T18:32:13.857Z</time>
</trkpt>
<trkpt lat="57.117231" lon="9.280360">
<ele>22.627846</ele>
<time>2026-06-18T18:32:20.733Z</time>
</trkpt>
<trkpt lat="57.117443" lon="9.280712">
<ele>23.000035</ele>
<time>2026-06-18T18:32:32.085Z</time>
</trkpt>
<trkpt lat="57.117643" lon="9.281019">
<ele>22.834236</ele>
<time>2026-06-18T18:32:38.073Z</time>
</trkpt>
<trkpt lat="57.117888" lon="9.281251">
<ele>22.382329</ele>
<time>2026-06-18T18:32:43.626Z</time>
</trkpt>
<trkpt lat="57.117986" lon="9.281272">
<ele>22.220483</ele>
<time>2026-06-18T18:32:45.506Z</time>
</trkpt>
<trkpt lat="57.118206" lon="9.281173">
<ele>21.848974</ele>
<time>2026-06-18T18:32:49.792Z</time>
</trkpt>
<trkpt lat="57.118427" lon="9.281170">
<ele>21.486430</ele>
<time>2026-06-18T18:32:53.998Z</time>
</trkpt>
<trkpt lat="57.118496" lon="9.281208">
<ele>21.368289</ele>
<time>2026-06-18T18:32:55.385Z</time>
</trkpt>
<trkpt lat="57.118614" lon="9.281414">
<ele>21.101591</ele>
<time>2026-06-18T18:32:58.497Z</time>
</trkpt>
<trkpt lat="57.118881" lon="9.282257">
<ele>20.232403</ele>
<time>2026-06-18T18:33:09.042Z</time>
</trkpt>
<trkpt lat="57.119095" lon="9.282843">
<ele>19.973129</ele>
<time>2026-06-18T18:33:17.276Z</time>
</trkpt>
<trkpt lat="57.119472" lon="9.283517">
<ele>19.678455</ele>
<time>2026-06-18T18:33:29.443Z</time>
</trkpt>
<trkpt lat="57.119592" lon="9.283607">
<ele>19.605784</ele>
<time>2026-06-18T18:33:32.533Z</time>
</trkpt>
<trkpt lat="57.119922" lon="9.283715">
<ele>19.417794</ele>
<time>2026-06-18T18:33:40.660Z</time>
</trkpt>
<trkpt lat="57.120027" lon="9.283789">
<ele>19.354737</ele>
<time>2026-06-18T18:33:43.360Z</time>
</trkpt>
<trkpt lat="57.121958" lon="9.285888">
<ele>19.186131</ele>
<time>2026-06-18T18:34:37.433Z</time>
</trkpt>
<trkpt lat="57.122002" lon="9.286025">
<ele>19.279964</ele>
<time>2026-06-18T18:34:39.801Z</time>
</trkpt>
<trkpt lat="57.121992" lon="9.286567">
<ele>19.599640</ele>
<time>2026-06-18T18:34:48.132Z</time>
</trkpt>
<trkpt lat="57.121901" lon="9.286939">
<ele>19.840158</ele>
<time>2026-06-18T18:34:54.644Z</time>
</trkpt>
<trkpt lat="57.121797" lon="9.287189">
<ele>20.025821</ele>
<time>2026-06-18T18:34:59.826Z</time>
</trkpt>
<trkpt lat="57.121613" lon="9.287420">
<ele>20.267610</ele>
<time>2026-06-18T18:35:06.735Z</time>
</trkpt>
<trkpt lat="57.121479" lon="9.287645">
<ele>20.464495</ele>
<time>2026-06-18T18:35:12.500Z</time>
</trkpt>
<trkpt lat="57.120987" lon="9.289229">
<ele>21.356508</ele>
<time>2026-06-18T18:35:42.497Z</time>
</trkpt>
<trkpt lat="57.121111" lon="9.289933">
<ele>21.632000</ele>
<time>2026-06-18T18:35:53.640Z</time>
</trkpt>
<trkpt lat="57.121327" lon="9.290685">
<ele>21.948675</ele>
<time>2026-06-18T18:36:05.954Z</time>
</trkpt>
<trkpt lat="57.121392" lon="9.290829">
<ele>22.018383</ele>
<time>2026-06-18T18:36:08.593Z</time>
</trkpt>
<trkpt lat="57.121608" lon="9.291154">
<ele>22.209611</ele>
<time>2026-06-18T18:36:15.713Z</time>
</trkpt>
<trkpt lat="57.122363" lon="9.292325">
<ele>22.012899</ele>
<time>2026-06-18T18:36:39.554Z</time>
</trkpt>
<trkpt lat="57.122573" lon="9.292717">
<ele>21.925042</ele>
<time>2026-06-18T18:36:46.668Z</time>
</trkpt>
<trkpt lat="57.122938" lon="9.293382">
<ele>21.774180</ele>
<time>2026-06-18T18:36:58.644Z</time>
</trkpt>
<trkpt lat="57.123163" lon="9.293720">
<ele>21.571974</ele>
<time>2026-06-18T18:37:05.193Z</time>
</trkpt>
<trkpt lat="57.123703" lon="9.294375">
<ele>20.995811</ele>
<time>2026-06-18T18:37:19.129Z</time>
</trkpt>
<trkpt lat="57.124226" lon="9.294935">
<ele>20.456736</ele>
<time>2026-06-18T18:37:31.912Z</time>
</trkpt>
<trkpt lat="57.124801" lon="9.295454">
<ele>20.174431</ele>
<time>2026-06-18T18:37:45.876Z</time>
</trkpt>
<trkpt lat="57.126762" lon="9.297921">
<ele>20.896934</ele>
<time>2026-06-18T18:38:48.401Z</time>
</trkpt>
<trkpt lat="57.127032" lon="9.298241">
<ele>21.105180</ele>
<time>2026-06-18T18:38:57.560Z</time>
</trkpt>
<trkpt lat="57.127519" lon="9.298686">
<ele>21.457795</ele>
<time>2026-06-18T18:39:14.256Z</time>
</trkpt>
<trkpt lat="57.127567" lon="9.298729">
<ele>21.492416</ele>
<time>2026-06-18T18:39:15.826Z</time>
</trkpt>
<trkpt lat="57.127620" lon="9.298781">
<ele>21.443771</ele>
<time>2026-06-18T18:39:17.483Z</time>
</trkpt>
<trkpt lat="57.127912" lon="9.299081">
<ele>20.998074</ele>
<time>2026-06-18T18:39:25.776Z</time>
</trkpt>
<trkpt lat="57.128011" lon="9.299177">
<ele>20.848934</ele>
<time>2026-06-18T18:39:28.364Z</time>
</trkpt>
<trkpt lat="57.128060" lon="9.299240">
<ele>20.769279</ele>
<time>2026-06-18T18:39:29.630Z</time>
</trkpt>
<trkpt lat="57.128080" lon="9.299300">
<ele>20.718333</ele>
<time>2026-06-18T18:39:30.485Z</time>
</trkpt>
<trkpt lat="57.128135" lon="9.299573">
<ele>20.507633</ele>
<time>2026-06-18T18:39:33.833Z</time>
</trkpt>
<trkpt lat="57.128165" lon="9.299916">
<ele>20.256252</ele>
<time>2026-06-18T18:39:37.767Z</time>
</trkpt>
<trkpt lat="57.128367" lon="9.299781">
<ele>19.969798</ele>
<time>2026-06-18T18:39:41.549Z</time>
</trkpt>
<trkpt lat="57.128535" lon="9.299728">
<ele>19.742578</ele>
<time>2026-06-18T18:39:44.553Z</time>
</trkpt>
<trkpt lat="57.129048" lon="9.299773">
<ele>19.035601</ele>
<time>2026-06-18T18:39:53.239Z</time>
</trkpt>
<trkpt lat="57.129386" lon="9.299870">
<ele>18.362994</ele>
<time>2026-06-18T18:39:58.694Z</time>
</trkpt>
<trkpt lat="57.129526" lon="9.299871">
<ele>18.087717</ele>
<time>2026-06-18T18:40:00.971Z</time>
</trkpt>
<trkpt lat="57.129665" lon="9.299806">
<ele>17.805743</ele>
<time>2026-06-18T18:40:03.390Z</time>
</trkpt>
<trkpt lat="57.129783" lon="9.299725">
<ele>17.558146</ele>
<time>2026-06-18T18:40:05.549Z</time>
</trkpt>
<trkpt lat="57.129836" lon="9.299674">
<ele>17.440579</ele>
<time>2026-06-18T18:40:06.592Z</time>
</trkpt>
<trkpt lat="57.131553" lon="9.298029">
<ele>14.598749</ele>
<time>2026-06-18T18:40:43.103Z</time>
</trkpt>
<trkpt lat="57.132454" lon="9.297022">
<ele>13.640951</ele>
<time>2026-06-18T18:41:04.116Z</time>
</trkpt>
<trkpt lat="57.132957" lon="9.296385">
<ele>13.247956</ele>
<time>2026-06-18T18:41:16.445Z</time>
</trkpt>
<trkpt lat="57.134121" lon="9.294582">
<ele>12.302212</ele>
<time>2026-06-18T18:41:47.188Z</time>
</trkpt>
<trkpt lat="57.134431" lon="9.293936">
<ele>12.028264</ele>
<time>2026-06-18T18:41:56.693Z</time>
</trkpt>
<trkpt lat="57.134728" lon="9.293039">
<ele>11.694456</ele>
<time>2026-06-18T18:42:08.344Z</time>
</trkpt>
<trkpt lat="57.135613" lon="9.289585">
<ele>10.410173</ele>
<time>2026-06-18T18:42:50.420Z</time>
</trkpt>
<trkpt lat="57.135746" lon="9.289176">
<ele>10.165070</ele>
<time>2026-06-18T18:42:55.501Z</time>
</trkpt>
<trkpt lat="57.137614" lon="9.284670">
<ele>7.171030</ele>
<time>2026-06-18T18:43:54.710Z</time>
</trkpt>
<trkpt lat="57.137819" lon="9.284234">
<ele>6.910483</ele>
<time>2026-06-18T18:44:00.878Z</time>
</trkpt>
<trkpt lat="57.137977" lon="9.283980">
<ele>6.780867</ele>
<time>2026-06-18T18:44:05.019Z</time>
</trkpt>
<trkpt lat="57.137986" lon="9.283966">
<ele>6.773586</ele>
<time>2026-06-18T18:44:05.255Z</time>
</trkpt>
<trkpt lat="57.138188" lon="9.283740">
<ele>6.627498</ele>
<time>2026-06-18T18:44:09.964Z</time>
</trkpt>
<trkpt lat="57.138435" lon="9.283533">
<ele>6.459756</ele>
<time>2026-06-18T18:44:15.373Z</time>
</trkpt>
<trkpt lat="57.138647" lon="9.283411">
<ele>6.322456</ele>
<time>2026-06-18T18:44:19.830Z</time>
</trkpt>
<trkpt lat="57.138825" lon="9.283393">
<ele>6.212251</ele>
<time>2026-06-18T18:44:23.455Z</time>
</trkpt>
<trkpt lat="57.139276" lon="9.283461">
<ele>5.932510</ele>
<time>2026-06-18T18:44:32.818Z</time>
</trkpt>
<trkpt lat="57.139286" lon="9.283622">
<ele>5.883962</ele>
<time>2026-06-18T18:44:34.884Z</time>
</trkpt>
<trkpt lat="57.139364" lon="9.283926">
<ele>5.923419</ele>
<time>2026-06-18T18:44:39.208Z</time>
</trkpt>
<trkpt lat="57.139380" lon="9.284148">
<ele>5.949696</ele>
<time>2026-06-18T18:44:42.115Z</time>
</trkpt>
<trkpt lat="57.139273" lon="9.284760">
<ele>6.025142</ele>
<time>2026-06-18T18:44:50.586Z</time>
</trkpt>
<trkpt lat="57.139223" lon="9.285393">
<ele>6.100198</ele>
<time>2026-06-18T18:44:59.195Z</time>
</trkpt>
<trkpt lat="57.139184" lon="9.285621">
<ele>6.128249</ele>
<time>2026-06-18T18:45:02.481Z</time>
</trkpt>
<trkpt lat="57.139060" lon="9.286034">
<ele>6.183633</ele>
<time>2026-06-18T18:45:09.183Z</time>
</trkpt>
<trkpt lat="57.139030" lon="9.286212">
<ele>6.205503</ele>
<time>2026-06-18T18:45:11.909Z</time>
</trkpt>
<trkpt lat="57.139037" lon="9.287227">
<ele>6.669084</ele>
<time>2026-06-18T18:45:27.437Z</time>
</trkpt>
<trkpt lat="57.138936" lon="9.287879">
<ele>7.263803</ele>
<time>2026-06-18T18:45:38.551Z</time>
</trkpt>
<trkpt lat="57.138961" lon="9.288378">
<ele>7.703339</ele>
<time>2026-06-18T18:45:47.131Z</time>
</trkpt>
<trkpt lat="57.138943" lon="9.288578">
<ele>7.881156</ele>
<time>2026-06-18T18:45:50.685Z</time>
</trkpt>
<trkpt lat="57.138676" lon="9.289682">
<ele>8.941312</ele>
<time>2026-06-18T18:46:12.441Z</time>
</trkpt>
<trkpt lat="57.138617" lon="9.290086">
<ele>9.271031</ele>
<time>2026-06-18T18:46:20.018Z</time>
</trkpt>
<trkpt lat="57.138622" lon="9.290490">
<ele>9.523471</ele>
<time>2026-06-18T18:46:27.193Z</time>
</trkpt>
<trkpt lat="57.138649" lon="9.290739">
<ele>9.682094</ele>
<time>2026-06-18T18:46:31.602Z</time>
</trkpt>
<trkpt lat="57.138603" lon="9.291263">
<ele>10.013688</ele>
<time>2026-06-18T18:46:40.513Z</time>
</trkpt>
<trkpt lat="57.138612" lon="9.291405">
<ele>10.102997</ele>
<time>2026-06-18T18:46:42.839Z</time>
</trkpt>
<trkpt lat="57.138706" lon="9.291776">
<ele>10.358777</ele>
<time>2026-06-18T18:46:49.343Z</time>
</trkpt>
<trkpt lat="57.138712" lon="9.292067">
<ele>10.540693</ele>
<time>2026-06-18T18:46:53.815Z</time>
</trkpt>
<trkpt lat="57.138686" lon="9.292222">
<ele>10.642040</ele>
<time>2026-06-18T18:46:56.265Z</time>
</trkpt>
<trkpt lat="57.138019" lon="9.294269">
<ele>11.578699</ele>
<time>2026-06-18T18:47:29.957Z</time>
</trkpt>
<trkpt lat="57.137981" lon="9.294557">
<ele>11.647628</ele>
<time>2026-06-18T18:47:34.075Z</time>
</trkpt>
<trkpt lat="57.138033" lon="9.294833">
<ele>11.715574</ele>
<time>2026-06-18T18:47:38.163Z</time>
</trkpt>
<trkpt lat="57.138206" lon="9.295247">
<ele>11.837096</ele>
<time>2026-06-18T18:47:45.548Z</time>
</trkpt>
<trkpt lat="57.138272" lon="9.295636">
<ele>11.931881</ele>
<time>2026-06-18T18:47:51.362Z</time>
</trkpt>
<trkpt lat="57.138287" lon="9.295889">
<ele>11.991068</ele>
<time>2026-06-18T18:47:55.039Z</time>
</trkpt>
<trkpt lat="57.138286" lon="9.296244">
<ele>12.283328</ele>
<time>2026-06-18T18:48:00.260Z</time>
</trkpt>
<trkpt lat="57.138196" lon="9.297726">
<ele>13.998243</ele>
<time>2026-06-18T18:48:23.519Z</time>
</trkpt>
<trkpt lat="57.138086" lon="9.298769">
<ele>15.220125</ele>
<time>2026-06-18T18:48:43.014Z</time>
</trkpt>
<trkpt lat="57.137965" lon="9.299538">
<ele>16.893576</ele>
<time>2026-06-18T18:49:00.841Z</time>
</trkpt>
<trkpt lat="57.137837" lon="9.299849">
<ele>18.437697</ele>
<time>2026-06-18T18:49:10.800Z</time>
</trkpt>
<trkpt lat="57.137748" lon="9.300261">
<ele>20.191903</ele>
<time>2026-06-18T18:49:23.235Z</time>
</trkpt>
<trkpt lat="57.137625" lon="9.300679">
<ele>22.072932</ele>
<time>2026-06-18T18:49:37.417Z</time>
</trkpt>
<trkpt lat="57.137467" lon="9.301101">
<ele>24.101128</ele>
<time>2026-06-18T18:49:53.800Z</time>
</trkpt>
<trkpt lat="57.137433" lon="9.301273">
<ele>24.825280</ele>
<time>2026-06-18T18:49:59.960Z</time>
</trkpt>
<trkpt lat="57.137423" lon="9.301850">
<ele>27.108981</ele>
<time>2026-06-18T18:50:19.606Z</time>
</trkpt>
<trkpt lat="57.137054" lon="9.303238">
<ele>32.686204</ele>
<time>2026-06-18T18:51:09.422Z</time>
</trkpt>
<trkpt lat="57.137021" lon="9.303465">
<ele>33.499151</ele>
<time>2026-06-18T18:51:16.639Z</time>
</trkpt>
<trkpt lat="57.137082" lon="9.303897">
<ele>35.043324</ele>
<time>2026-06-18T18:51:32.762Z</time>
</trkpt>
<trkpt lat="57.137074" lon="9.304184">
<ele>36.037443</ele>
<time>2026-06-18T18:51:42.549Z</time>
</trkpt>
<trkpt lat="57.136918" lon="9.304939">
<ele>38.832132</ele>
<time>2026-06-18T18:52:07.582Z</time>
</trkpt>
<trkpt lat="57.136740" lon="9.305488">
<ele>40.627372</ele>
<time>2026-06-18T18:52:24.941Z</time>
</trkpt>
<trkpt lat="57.136662" lon="9.305684">
<ele>40.914324</ele>
<time>2026-06-18T18:52:31.198Z</time>
</trkpt>
<trkpt lat="57.135562" lon="9.306632">
<ele>43.556313</ele>
<time>2026-06-18T18:53:24.198Z</time>
</trkpt>
<trkpt lat="57.135381" lon="9.306915">
<ele>44.072749</ele>
<time>2026-06-18T18:53:34.416Z</time>
</trkpt>
<trkpt lat="57.135205" lon="9.307275">
<ele>44.785074</ele>
<time>2026-06-18T18:53:46.328Z</time>
</trkpt>
<trkpt lat="57.135126" lon="9.307522">
<ele>45.271774</ele>
<time>2026-06-18T18:53:51.704Z</time>
</trkpt>
<trkpt lat="57.135066" lon="9.307838">
<ele>45.840086</ele>
<time>2026-06-18T18:53:58.272Z</time>
</trkpt>
<trkpt lat="57.134504" lon="9.311148">
<ele>50.776959</ele>
<time>2026-06-18T18:55:12.080Z</time>
</trkpt>
<trkpt lat="57.133954" lon="9.314390">
<ele>51.310858</ele>
<time>2026-06-18T18:56:00.627Z</time>
</trkpt>
<trkpt lat="57.133890" lon="9.314890">
<ele>50.739297</ele>
<time>2026-06-18T18:56:05.943Z</time>
</trkpt>
<trkpt lat="57.133848" lon="9.315571">
<ele>49.976745</ele>
<time>2026-06-18T18:56:12.809Z</time>
</trkpt>
<trkpt lat="57.133829" lon="9.316145">
<ele>49.336929</ele>
<time>2026-06-18T18:56:18.406Z</time>
</trkpt>
<trkpt lat="57.133775" lon="9.317647">
<ele>46.992495</ele>
<time>2026-06-18T18:56:32.851Z</time>
</trkpt>
<trkpt lat="57.133844" lon="9.320151">
<ele>43.005042</ele>
<time>2026-06-18T18:56:58.307Z</time>
</trkpt>
<trkpt lat="57.133879" lon="9.320761">
<ele>42.667600</ele>
<time>2026-06-18T18:57:05.006Z</time>
</trkpt>
<trkpt lat="57.133978" lon="9.321538">
<ele>42.228536</ele>
<time>2026-06-18T18:57:14.207Z</time>
</trkpt>
<trkpt lat="57.134262" lon="9.323237">
<ele>41.352727</ele>
<time>2026-06-18T18:57:37.255Z</time>
</trkpt>
<trkpt lat="57.134340" lon="9.323761">
<ele>41.397146</ele>
<time>2026-06-18T18:57:45.026Z</time>
</trkpt>
<trkpt lat="57.134422" lon="9.324631">
<ele>41.469333</ele>
<time>2026-06-18T18:57:57.947Z</time>
</trkpt>
<trkpt lat="57.134482" lon="9.325482">
<ele>41.539486</ele>
<time>2026-06-18T18:58:10.136Z</time>
</trkpt>
<trkpt lat="57.134597" lon="9.326541">
<ele>41.561052</ele>
<time>2026-06-18T18:58:24.550Z</time>
</trkpt>
<trkpt lat="57.135435" lon="9.326107">
<ele>41.186841</ele>
<time>2026-06-18T18:58:42.579Z</time>
</trkpt>
<trkpt lat="57.135613" lon="9.326081">
<ele>41.110080</ele>
<time>2026-06-18T18:58:46.259Z</time>
</trkpt>
<trkpt lat="57.136157" lon="9.326170">
<ele>40.875296</ele>
<time>2026-06-18T18:58:57.400Z</time>
</trkpt>
<trkpt lat="57.136324" lon="9.326209">
<ele>40.765116</ele>
<time>2026-06-18T18:59:00.822Z</time>
</trkpt>
<trkpt lat="57.136707" lon="9.326312">
<ele>40.415287</ele>
<time>2026-06-18T18:59:08.649Z</time>
</trkpt>
<trkpt lat="57.137292" lon="9.326561">
<ele>39.872634</ele>
<time>2026-06-18T18:59:20.490Z</time>
</trkpt>
<trkpt lat="57.137440" lon="9.326569">
<ele>39.738812</ele>
<time>2026-06-18T18:59:23.295Z</time>
</trkpt>
<trkpt lat="57.137753" lon="9.326448">
<ele>39.449760</ele>
<time>2026-06-18T18:59:29.234Z</time>
</trkpt>
<trkpt lat="57.138453" lon="9.325856">
<ele>39.265190</ele>
<time>2026-06-18T18:59:43.639Z</time>
</trkpt>
<trkpt lat="57.139284" lon="9.325188">
<ele>39.361109</ele>
<time>2026-06-18T19:00:04.139Z</time>
</trkpt>
<trkpt lat="57.139497" lon="9.325073">
<ele>39.384592</ele>
<time>2026-06-18T19:00:10.214Z</time>
</trkpt>
<trkpt lat="57.140467" lon="9.324965">
<ele>40.817912</ele>
<time>2026-06-18T19:00:39.620Z</time>
</trkpt>
<trkpt lat="57.141320" lon="9.324906">
<ele>42.313210</ele>
<time>2026-06-18T19:01:05.722Z</time>
</trkpt>
<trkpt lat="57.141768" lon="9.324838">
<ele>42.638850</ele>
<time>2026-06-18T19:01:17.829Z</time>
</trkpt>
<trkpt lat="57.141976" lon="9.324873">
<ele>42.696395</ele>
<time>2026-06-18T19:01:23.043Z</time>
</trkpt>
<trkpt lat="57.142204" lon="9.324975">
<ele>42.761037</ele>
<time>2026-06-18T19:01:28.643Z</time>
</trkpt>
<trkpt lat="57.142471" lon="9.325160">
<ele>42.839626</ele>
<time>2026-06-18T19:01:35.089Z</time>
</trkpt>
<trkpt lat="57.142967" lon="9.325477">
<ele>42.984263</ele>
<time>2026-06-18T19:01:46.219Z</time>
</trkpt>
<trkpt lat="57.143385" lon="9.325872">
<ele>42.792218</ele>
<time>2026-06-18T19:01:55.822Z</time>
</trkpt>
<trkpt lat="57.143582" lon="9.326102">
<ele>42.540982</ele>
<time>2026-06-18T19:02:00.535Z</time>
</trkpt>
<trkpt lat="57.144009" lon="9.326769">
<ele>41.937968</ele>
<time>2026-06-18T19:02:11.587Z</time>
</trkpt>
<trkpt lat="57.144116" lon="9.326875">
<ele>41.807096</ele>
<time>2026-06-18T19:02:13.928Z</time>
</trkpt>
<trkpt lat="57.144395" lon="9.327020">
<ele>41.494791</ele>
<time>2026-06-18T19:02:19.389Z</time>
</trkpt>
<trkpt lat="57.144976" lon="9.326949">
<ele>40.563571</ele>
<time>2026-06-18T19:02:29.708Z</time>
</trkpt>
<trkpt lat="57.145401" lon="9.326867">
<ele>39.527326</ele>
<time>2026-06-18T19:02:37.011Z</time>
</trkpt>
<trkpt lat="57.145542" lon="9.326812">
<ele>39.177832</ele>
<time>2026-06-18T19:02:39.451Z</time>
</trkpt>
<trkpt lat="57.145759" lon="9.326630">
<ele>38.599702</ele>
<time>2026-06-18T19:02:43.467Z</time>
</trkpt>
<trkpt lat="57.147101" lon="9.324899">
<ele>34.569455</ele>
<time>2026-06-18T19:03:10.946Z</time>
</trkpt>
<trkpt lat="57.148100" lon="9.323659">
<ele>31.535555</ele>
<time>2026-06-18T19:03:31.648Z</time>
</trkpt>
<trkpt lat="57.148343" lon="9.323557">
<ele>30.885210</ele>
<time>2026-06-18T19:03:35.982Z</time>
</trkpt>
<trkpt lat="57.148534" lon="9.323637">
<ele>30.374089</ele>
<time>2026-06-18T19:03:39.363Z</time>
</trkpt>
<trkpt lat="57.148721" lon="9.323844">
<ele>29.804891</ele>
<time>2026-06-18T19:03:43.124Z</time>
</trkpt>
<trkpt lat="57.149159" lon="9.324831">
<ele>27.999786</ele>
<time>2026-06-18T19:03:54.952Z</time>
</trkpt>
<trkpt lat="57.150375" lon="9.326297">
<ele>21.844023</ele>
<time>2026-06-18T19:04:17.725Z</time>
</trkpt>
<trkpt lat="57.150776" lon="9.326780">
<ele>19.715888</ele>
<time>2026-06-18T19:04:24.841Z</time>
</trkpt>
<trkpt lat="57.151035" lon="9.327300">
<ele>18.039396</ele>
<time>2026-06-18T19:04:30.401Z</time>
</trkpt>
<trkpt lat="57.151325" lon="9.327633">
<ele>16.545534</ele>
<time>2026-06-18T19:04:35.418Z</time>
</trkpt>
<trkpt lat="57.151789" lon="9.328125">
<ele>14.205077</ele>
<time>2026-06-18T19:04:43.533Z</time>
</trkpt>
<trkpt lat="57.151797" lon="9.328246">
<ele>13.915978</ele>
<time>2026-06-18T19:04:44.583Z</time>
</trkpt>
<trkpt lat="57.151860" lon="9.328825">
<ele>12.515412</ele>
<time>2026-06-18T19:04:49.832Z</time>
</trkpt>
<trkpt lat="57.151872" lon="9.328923">
<ele>12.277138</ele>
<time>2026-06-18T19:04:50.762Z</time>
</trkpt>
<trkpt lat="57.151913" lon="9.329208">
<ele>11.693525</ele>
<time>2026-06-18T19:04:53.536Z</time>
</trkpt>
<trkpt lat="57.151952" lon="9.329644">
<ele>11.510894</ele>
<time>2026-06-18T19:04:57.957Z</time>
</trkpt>
<trkpt lat="57.151900" lon="9.330093">
<ele>11.321141</ele>
<time>2026-06-18T19:05:03.093Z</time>
</trkpt>
<trkpt lat="57.151839" lon="9.330298">
<ele>11.224504</ele>
<time>2026-06-18T19:05:06.067Z</time>
</trkpt>
<trkpt lat="57.151764" lon="9.330435">
<ele>11.144056</ele>
<time>2026-06-18T19:05:08.548Z</time>
</trkpt>
<trkpt lat="57.151581" lon="9.330637">
<ele>10.981536</ele>
<time>2026-06-18T19:05:13.589Z</time>
</trkpt>
<trkpt lat="57.151467" lon="9.330845">
<ele>10.859325</ele>
<time>2026-06-18T19:05:17.337Z</time>
</trkpt>
<trkpt lat="57.151405" lon="9.331079">
<ele>10.751691</ele>
<time>2026-06-18T19:05:20.580Z</time>
</trkpt>
<trkpt lat="57.151310" lon="9.332731">
<ele>9.599113</ele>
<time>2026-06-18T19:05:38.446Z</time>
</trkpt>
<trkpt lat="57.151310" lon="9.333132">
<ele>9.159868</ele>
<time>2026-06-18T19:05:42.256Z</time>
</trkpt>
<trkpt lat="57.151381" lon="9.333903">
<ele>8.303251</ele>
<time>2026-06-18T19:05:49.487Z</time>
</trkpt>
<trkpt lat="57.151410" lon="9.334040">
<ele>8.142163</ele>
<time>2026-06-18T19:05:50.820Z</time>
</trkpt>
<trkpt lat="57.151513" lon="9.334600">
<ele>7.494450</ele>
<time>2026-06-18T19:05:56.174Z</time>
</trkpt>
<trkpt lat="57.151522" lon="9.334843">
<ele>7.227656</ele>
<time>2026-06-18T19:05:58.368Z</time>
</trkpt>
<trkpt lat="57.151289" lon="9.336318">
<ele>5.983888</ele>
<time>2026-06-18T19:06:12.589Z</time>
</trkpt>
<trkpt lat="57.150896" lon="9.338331">
<ele>4.519476</ele>
<time>2026-06-18T19:06:35.330Z</time>
</trkpt>
<trkpt lat="57.150617" lon="9.340745">
<ele>4.595970</ele>
<time>2026-06-18T19:07:06.658Z</time>
</trkpt>
<trkpt lat="57.150613" lon="9.340902">
<ele>4.605989</ele>
<time>2026-06-18T19:07:08.635Z</time>
</trkpt>
<trkpt lat="57.150590" lon="9.341494">
<ele>4.643822</ele>
<time>2026-06-18T19:07:15.930Z</time>
</trkpt>
<trkpt lat="57.150540" lon="9.341762">
<ele>4.668426</ele>
<time>2026-06-18T19:07:19.356Z</time>
</trkpt>
<trkpt lat="57.150413" lon="9.342130">
<ele>4.732622</ele>
<time>2026-06-18T19:07:24.594Z</time>
</trkpt>
<trkpt lat="57.150297" lon="9.342412">
<ele>4.784712</ele>
<time>2026-06-18T19:07:28.914Z</time>
</trkpt>
<trkpt lat="57.150180" lon="9.342579">
<ele>4.824862</ele>
<time>2026-06-18T19:07:32.246Z</time>
</trkpt>
<trkpt lat="57.149680" lon="9.343096">
<ele>4.980413</ele>
<time>2026-06-18T19:07:45.480Z</time>
</trkpt>
<trkpt lat="57.149010" lon="9.343551">
<ele>5.185390</ele>
<time>2026-06-18T19:08:02.780Z</time>
</trkpt>
<trkpt lat="57.148674" lon="9.343980">
<ele>5.338944</ele>
<time>2026-06-18T19:08:12.696Z</time>
</trkpt>
<trkpt lat="57.148363" lon="9.344531">
<ele>5.500998</ele>
<time>2026-06-18T19:08:23.431Z</time>
</trkpt>
<trkpt lat="57.148257" lon="9.344809">
<ele>5.570250</ele>
<time>2026-06-18T19:08:27.907Z</time>
</trkpt>
<trkpt lat="57.148098" lon="9.345268">
<ele>5.681241</ele>
<time>2026-06-18T19:08:34.840Z</time>
</trkpt>
<trkpt lat="57.148077" lon="9.345331">
<ele>5.696311</ele>
<time>2026-06-18T19:08:35.754Z</time>
</trkpt>
<trkpt lat="57.147964" lon="9.345695">
<ele>5.781783</ele>
<time>2026-06-18T19:08:40.825Z</time>
</trkpt>
<trkpt lat="57.147896" lon="9.346062">
<ele>5.822973</ele>
<time>2026-06-18T19:08:45.396Z</time>
</trkpt>
<trkpt lat="57.147855" lon="9.346538">
<ele>5.828608</ele>
<time>2026-06-18T19:08:51.086Z</time>
</trkpt>
<trkpt lat="57.147859" lon="9.346739">
<ele>5.830960</ele>
<time>2026-06-18T19:08:53.540Z</time>
</trkpt>
<trkpt lat="57.148102" lon="9.348153">
<ele>5.848303</ele>
<time>2026-06-18T19:09:11.499Z</time>
</trkpt>
<trkpt lat="57.148145" lon="9.348361">
<ele>5.850906</ele>
<time>2026-06-18T19:09:14.142Z</time>
</trkpt>
<trkpt lat="57.148233" lon="9.348558">
<ele>5.853890</ele>
<time>2026-06-18T19:09:17.186Z</time>
</trkpt>
<trkpt lat="57.148540" lon="9.348910">
<ele>5.893638</ele>
<time>2026-06-18T19:09:25.264Z</time>
</trkpt>
<trkpt lat="57.148666" lon="9.349124">
<ele>5.949899</ele>
<time>2026-06-18T19:09:29.206Z</time>
</trkpt>
<trkpt lat="57.148781" lon="9.349548">
<ele>6.034344</ele>
<time>2026-06-18T19:09:35.282Z</time>
</trkpt>
<trkpt lat="57.149167" lon="9.351490">
<ele>6.402777</ele>
<time>2026-06-18T19:10:02.428Z</time>
</trkpt>
<trkpt lat="57.149195" lon="9.351809">
<ele>6.447527</ele>
<time>2026-06-18T19:10:06.506Z</time>
</trkpt>
<trkpt lat="57.149114" lon="9.352467">
<ele>6.417449</ele>
<time>2026-06-18T19:10:14.814Z</time>
</trkpt>
<trkpt lat="57.149111" lon="9.352820">
<ele>6.401711</ele>
<time>2026-06-18T19:10:19.088Z</time>
</trkpt>
<trkpt lat="57.149429" lon="9.354248">
<ele>6.332899</ele>
<time>2026-06-18T19:10:37.282Z</time>
</trkpt>
<trkpt lat="57.149459" lon="9.354441">
<ele>6.323950</ele>
<time>2026-06-18T19:10:39.575Z</time>
</trkpt>
<trkpt lat="57.149479" lon="9.354719">
<ele>6.311449</ele>
<time>2026-06-18T19:10:42.739Z</time>
</trkpt>
<trkpt lat="57.149492" lon="9.355815">
<ele>6.098146</ele>
<time>2026-06-18T19:10:55.037Z</time>
</trkpt>
<trkpt lat="57.149523" lon="9.356046">
<ele>6.043605</ele>
<time>2026-06-18T19:10:57.712Z</time>
</trkpt>
<trkpt lat="57.149616" lon="9.356402">
<ele>5.953041</ele>
<time>2026-06-18T19:11:02.178Z</time>
</trkpt>
<trkpt lat="57.149905" lon="9.356992">
<ele>5.770840</ele>
<time>2026-06-18T19:11:11.190Z</time>
</trkpt>
<trkpt lat="57.150056" lon="9.357406">
<ele>5.656498</ele>
<time>2026-06-18T19:11:16.759Z</time>
</trkpt>
<trkpt lat="57.150108" lon="9.357973">
<ele>5.519337</ele>
<time>2026-06-18T19:11:23.154Z</time>
</trkpt>
<trkpt lat="57.150144" lon="9.358311">
<ele>5.416348</ele>
<time>2026-06-18T19:11:27.025Z</time>
</trkpt>
<trkpt lat="57.150213" lon="9.358605">
<ele>5.320569</ele>
<time>2026-06-18T19:11:30.637Z</time>
</trkpt>
<trkpt lat="57.150238" lon="9.358737">
<ele>5.278766</ele>
<time>2026-06-18T19:11:32.205Z</time>
</trkpt>
<trkpt lat="57.150257" lon="9.358989">
<ele>5.202696</ele>
<time>2026-06-18T19:11:35.117Z</time>
</trkpt>
<trkpt lat="57.150247" lon="9.361622">
<ele>4.478384</ele>
<time>2026-06-18T19:12:04.059Z</time>
</trkpt>
<trkpt lat="57.150239" lon="9.361771">
<ele>4.454419</ele>
<time>2026-06-18T19:12:05.671Z</time>
</trkpt>
<trkpt lat="57.150391" lon="9.361972">
<ele>4.399226</ele>
<time>2026-06-18T19:12:09.454Z</time>
</trkpt>
<trkpt lat="57.150538" lon="9.362179">
<ele>4.344647</ele>
<time>2026-06-18T19:12:13.265Z</time>
</trkpt>
<trkpt lat="57.151060" lon="9.362783">
<ele>4.162802</ele>
<time>2026-06-18T19:12:26.311Z</time>
</trkpt>
<trkpt lat="57.151323" lon="9.363022">
<ele>4.076287</ele>
<time>2026-06-18T19:12:32.748Z</time>
</trkpt>
<trkpt lat="57.151519" lon="9.363179">
<ele>4.015171</ele>
<time>2026-06-18T19:12:37.647Z</time>
</trkpt>
<trkpt lat="57.152163" lon="9.363589">
<ele>3.870115</ele>
<time>2026-06-18T19:12:53.158Z</time>
</trkpt>
<trkpt lat="57.152798" lon="9.363774">
<ele>3.733242</ele>
<time>2026-06-18T19:13:06.873Z</time>
</trkpt>
<trkpt lat="57.153122" lon="9.363885">
<ele>3.663080</ele>
<time>2026-06-18T19:13:13.569Z</time>
</trkpt>
<trkpt lat="57.153107" lon="9.364008">
<ele>3.648522</ele>
<time>2026-06-18T19:13:15.130Z</time>
</trkpt>
<trkpt lat="57.153071" lon="9.364583">
<ele>3.541663</ele>
<time>2026-06-18T19:13:22.192Z</time>
</trkpt>
<trkpt lat="57.153101" lon="9.364727">
<ele>3.511022</ele>
<time>2026-06-18T19:13:24.097Z</time>
</trkpt>
<trkpt lat="57.153124" lon="9.364781">
<ele>3.497384</ele>
<time>2026-06-18T19:13:24.971Z</time>
</trkpt>
<trkpt lat="57.153299" lon="9.365052">
<ele>3.413689</ele>
<time>2026-06-18T19:13:30.290Z</time>
</trkpt>
<trkpt lat="57.153327" lon="9.365200">
<ele>3.382554</ele>
<time>2026-06-18T19:13:32.277Z</time>
</trkpt>
<trkpt lat="57.153353" lon="9.365690">
<ele>3.284760</ele>
<time>2026-06-18T19:13:38.551Z</time>
</trkpt>
<trkpt lat="57.153465" lon="9.366287">
<ele>3.159283</ele>
<time>2026-06-18T19:13:46.556Z</time>
</trkpt>
<trkpt lat="57.153521" lon="9.366535">
<ele>3.105924</ele>
<time>2026-06-18T19:13:49.993Z</time>
</trkpt>
<trkpt lat="57.153555" lon="9.366656">
<ele>3.078856</ele>
<time>2026-06-18T19:13:51.779Z</time>
</trkpt>
<trkpt lat="57.153708" lon="9.367239">
<ele>2.971468</ele>
<time>2026-06-18T19:14:00.233Z</time>
</trkpt>
<trkpt lat="57.153742" lon="9.367704">
<ele>2.948144</ele>
<time>2026-06-18T19:14:06.389Z</time>
</trkpt>
<trkpt lat="57.153746" lon="9.367829">
<ele>2.941920</ele>
<time>2026-06-18T19:14:08.014Z</time>
</trkpt>
<trkpt lat="57.153782" lon="9.368109">
<ele>2.927616</ele>
<time>2026-06-18T19:14:11.784Z</time>
</trkpt>
<trkpt lat="57.153977" lon="9.369042">
<ele>2.877915</ele>
<time>2026-06-18T19:14:24.795Z</time>
</trkpt>
<trkpt lat="57.154068" lon="9.369322">
<ele>2.861690</ele>
<time>2026-06-18T19:14:29.080Z</time>
</trkpt>
<trkpt lat="57.154182" lon="9.369487">
<ele>2.848408</ele>
<time>2026-06-18T19:14:32.644Z</time>
</trkpt>
<trkpt lat="57.154405" lon="9.369714">
<ele>2.825063</ele>
<time>2026-06-18T19:14:39.002Z</time>
</trkpt>
<trkpt lat="57.154461" lon="9.369778">
<ele>2.819024</ele>
<time>2026-06-18T19:14:40.678Z</time>
</trkpt>
<trkpt lat="57.154548" lon="9.369965">
<ele>2.824277</ele>
<time>2026-06-18T19:14:44.055Z</time>
</trkpt>
<trkpt lat="57.154573" lon="9.370109">
<ele>2.835695</ele>
<time>2026-06-18T19:14:46.114Z</time>
</trkpt>
<trkpt lat="57.154569" lon="9.370866">
<ele>2.892862</ele>
<time>2026-06-18T19:14:56.563Z</time>
</trkpt>
<trkpt lat="57.154519" lon="9.371138">
<ele>2.914550</ele>
<time>2026-06-18T19:15:00.555Z</time>
</trkpt>
<trkpt lat="57.154304" lon="9.371843">
<ele>2.975628</ele>
<time>2026-06-18T19:15:11.891Z</time>
</trkpt>
<trkpt lat="57.154264" lon="9.372077">
<ele>2.994155</ele>
<time>2026-06-18T19:15:15.334Z</time>
</trkpt>
<trkpt lat="57.154250" lon="9.372150">
<ele>3.000002</ele>
<time>2026-06-18T19:15:16.921Z</time>
</trkpt>
<trkpt lat="57.154168" lon="9.373101">
<ele>3.051359</ele>
<time>2026-06-18T19:15:30.026Z</time>
</trkpt>
<trkpt lat="57.154161" lon="9.373218">
<ele>3.038089</ele>
<time>2026-06-18T19:15:31.599Z</time>
</trkpt>
<trkpt lat="57.154212" lon="9.373826">
<ele>2.968730</ele>
<time>2026-06-18T19:15:39.653Z</time>
</trkpt>
<trkpt lat="57.154300" lon="9.374572">
<ele>2.882663</ele>
<time>2026-06-18T19:15:49.547Z</time>
</trkpt>
<trkpt lat="57.154347" lon="9.374823">
<ele>2.852727</ele>
<time>2026-06-18T19:15:52.974Z</time>
</trkpt>
<trkpt lat="57.154364" lon="9.374904">
<ele>2.842936</ele>
<time>2026-06-18T19:15:54.087Z</time>
</trkpt>
<trkpt lat="57.154632" lon="9.375855">
<ele>2.722117</ele>
<time>2026-06-18T19:16:07.747Z</time>
</trkpt>
<trkpt lat="57.154945" lon="9.377555">
<ele>2.569154</ele>
<time>2026-06-18T19:16:30.834Z</time>
</trkpt>
<trkpt lat="57.154975" lon="9.377614">
<ele>2.562679</ele>
<time>2026-06-18T19:16:31.914Z</time>
</trkpt>
<trkpt lat="57.155161" lon="9.377810">
<ele>2.531053</ele>
<time>2026-06-18T19:16:37.095Z</time>
</trkpt>
<trkpt lat="57.155209" lon="9.377901">
<ele>2.520890</ele>
<time>2026-06-18T19:16:38.776Z</time>
</trkpt>
<trkpt lat="57.155554" lon="9.378966">
<ele>2.426648</ele>
<time>2026-06-18T19:16:55.345Z</time>
</trkpt>
<trkpt lat="57.155679" lon="9.379485">
<ele>2.453210</ele>
<time>2026-06-18T19:17:02.980Z</time>
</trkpt>
<trkpt lat="57.155932" lon="9.380052">
<ele>2.487553</ele>
<time>2026-06-18T19:17:13.068Z</time>
</trkpt>
<trkpt lat="57.156047" lon="9.380444">
<ele>2.508399</ele>
<time>2026-06-18T19:17:19.178Z</time>
</trkpt>
<trkpt lat="57.156090" lon="9.380723">
<ele>2.521966</ele>
<time>2026-06-18T19:17:23.131Z</time>
</trkpt>
<trkpt lat="57.156113" lon="9.381104">
<ele>2.539897</ele>
<time>2026-06-18T19:17:28.307Z</time>
</trkpt>
<trkpt lat="57.156122" lon="9.381283">
<ele>2.548306</ele>
<time>2026-06-18T19:17:30.736Z</time>
</trkpt>
<trkpt lat="57.156234" lon="9.381836">
<ele>2.575916</ele>
<time>2026-06-18T19:17:38.692Z</time>
</trkpt>
<trkpt lat="57.156391" lon="9.382646">
<ele>2.562916</ele>
<time>2026-06-18T19:17:50.238Z</time>
</trkpt>
<trkpt lat="57.156493" lon="9.383154">
<ele>2.551049</ele>
<time>2026-06-18T19:17:57.474Z</time>
</trkpt>
<trkpt lat="57.156661" lon="9.384160">
<ele>2.527990</ele>
<time>2026-06-18T19:18:18.346Z</time>
</trkpt>
<trkpt lat="57.156998" lon="9.385610">
<ele>2.510804</ele>
<time>2026-06-18T19:18:50.065Z</time>
</trkpt>
<trkpt lat="57.157159" lon="9.385853">
<ele>2.512969</ele>
<time>2026-06-18T19:18:57.793Z</time>
</trkpt>
<trkpt lat="57.157417" lon="9.386432">
<ele>2.517199</ele>
<time>2026-06-18T19:19:12.792Z</time>
</trkpt>
<trkpt lat="57.157796" lon="9.387553">
<ele>2.524656</ele>
<time>2026-06-18T19:19:39.360Z</time>
</trkpt>
<trkpt lat="57.157992" lon="9.388242">
<ele>2.556849</ele>
<time>2026-06-18T19:19:55.193Z</time>
</trkpt>
<trkpt lat="57.158152" lon="9.388685">
<ele>2.586952</ele>
<time>2026-06-18T19:20:06.088Z</time>
</trkpt>
<trkpt lat="57.158259" lon="9.389010">
<ele>2.608455</ele>
<time>2026-06-18T19:20:13.870Z</time>
</trkpt>
<trkpt lat="57.158557" lon="9.390215">
<ele>2.683357</ele>
<time>2026-06-18T19:20:40.932Z</time>
</trkpt>
<trkpt lat="57.158799" lon="9.390788">
<ele>2.715521</ele>
<time>2026-06-18T19:20:55.674Z</time>
</trkpt>
<trkpt lat="57.158899" lon="9.391105">
<ele>2.719294</ele>
<time>2026-06-18T19:21:03.022Z</time>
</trkpt>
<trkpt lat="57.158950" lon="9.391487">
<ele>2.723342</ele>
<time>2026-06-18T19:21:10.872Z</time>
</trkpt>
<trkpt lat="57.158924" lon="9.391854">
<ele>2.727150</ele>
<time>2026-06-18T19:21:18.253Z</time>
</trkpt>
<trkpt lat="57.159028" lon="9.392520">
<ele>2.734281</ele>
<time>2026-06-18T19:21:32.053Z</time>
</trkpt>
<trkpt lat="57.159100" lon="9.392674">
<ele>2.736373</ele>
<time>2026-06-18T19:21:36.116Z</time>
</trkpt>
<trkpt lat="57.159255" lon="9.392815">
<ele>2.739652</ele>
<time>2026-06-18T19:21:42.469Z</time>
</trkpt>
<trkpt lat="57.159407" lon="9.393014">
<ele>2.743188</ele>
<time>2026-06-18T19:21:49.368Z</time>
</trkpt>
<trkpt lat="57.159845" lon="9.394292">
<ele>2.811901</ele>
<time>2026-06-18T19:22:20.126Z</time>
</trkpt>
<trkpt lat="57.159986" lon="9.394936">
<ele>2.853330</ele>
<time>2026-06-18T19:22:34.462Z</time>
</trkpt>
<trkpt lat="57.160404" lon="9.396124">
<ele>2.937806</ele>
<time>2026-06-18T19:23:03.336Z</time>
</trkpt>
<trkpt lat="57.160472" lon="9.396431">
<ele>2.927699</ele>
<time>2026-06-18T19:23:10.040Z</time>
</trkpt>
<trkpt lat="57.160747" lon="9.397244">
<ele>2.843367</ele>
<time>2026-06-18T19:23:29.115Z</time>
</trkpt>
<trkpt lat="57.160820" lon="9.397720">
<ele>2.799831</ele>
<time>2026-06-18T19:23:38.876Z</time>
</trkpt>
<trkpt lat="57.160904" lon="9.397910">
<ele>2.778256</ele>
<time>2026-06-18T19:23:43.718Z</time>
</trkpt>
<trkpt lat="57.161023" lon="9.398424">
<ele>2.729068</ele>
<time>2026-06-18T19:23:50.917Z</time>
</trkpt>
<trkpt lat="57.161152" lon="9.398777">
<ele>2.691604</ele>
<time>2026-06-18T19:23:56.365Z</time>
</trkpt>
<trkpt lat="57.161651" lon="9.399972">
<ele>2.603752</ele>
<time>2026-06-18T19:24:15.882Z</time>
</trkpt>
<trkpt lat="57.161821" lon="9.400578">
<ele>2.572156</ele>
<time>2026-06-18T19:24:24.827Z</time>
</trkpt>
<trkpt lat="57.162411" lon="9.402334">
<ele>2.508818</ele>
<time>2026-06-18T19:24:52.497Z</time>
</trkpt>
<trkpt lat="57.162473" lon="9.402804">
<ele>2.517221</ele>
<time>2026-06-18T19:24:59.054Z</time>
</trkpt>
<trkpt lat="57.162463" lon="9.403019">
<ele>2.520970</ele>
<time>2026-06-18T19:25:01.984Z</time>
</trkpt>
<trkpt lat="57.162424" lon="9.403214">
<ele>2.524580</ele>
<time>2026-06-18T19:25:04.800Z</time>
</trkpt>
<trkpt lat="57.162353" lon="9.403405">
<ele>2.528603</ele>
<time>2026-06-18T19:25:07.916Z</time>
</trkpt>
<trkpt lat="57.162333" lon="9.403800">
<ele>2.535495</ele>
<time>2026-06-18T19:25:13.294Z</time>
</trkpt>
<trkpt lat="57.162285" lon="9.404055">
<ele>2.540184</ele>
<time>2026-06-18T19:25:16.934Z</time>
</trkpt>
<trkpt lat="57.162199" lon="9.404335">
<ele>2.545775</ele>
<time>2026-06-18T19:25:21.298Z</time>
</trkpt>
<trkpt lat="57.162192" lon="9.404471">
<ele>2.548148</ele>
<time>2026-06-18T19:25:23.149Z</time>
</trkpt>
<trkpt lat="57.162318" lon="9.405008">
<ele>2.558450</ele>
<time>2026-06-18T19:25:31.059Z</time>
</trkpt>
<trkpt lat="57.162354" lon="9.405258">
<ele>2.563833</ele>
<time>2026-06-18T19:25:34.561Z</time>
</trkpt>
<trkpt lat="57.162389" lon="9.405842">
<ele>2.576062</ele>
<time>2026-06-18T19:25:42.508Z</time>
</trkpt>
<trkpt lat="57.162542" lon="9.406786">
<ele>2.596569</ele>
<time>2026-06-18T19:25:55.793Z</time>
</trkpt>
<trkpt lat="57.162586" lon="9.407464">
<ele>2.610781</ele>
<time>2026-06-18T19:26:04.986Z</time>
</trkpt>
<trkpt lat="57.162635" lon="9.407756">
<ele>2.617143</ele>
<time>2026-06-18T19:26:09.094Z</time>
</trkpt>
<trkpt lat="57.162718" lon="9.408145">
<ele>2.625844</ele>
<time>2026-06-18T19:26:14.725Z</time>
</trkpt>
<trkpt lat="57.163226" lon="9.409475">
<ele>2.627473</ele>
<time>2026-06-18T19:26:36.642Z</time>
</trkpt>
<trkpt lat="57.163311" lon="9.409765">
<ele>2.627642</ele>
<time>2026-06-18T19:26:41.033Z</time>
</trkpt>
<trkpt lat="57.163815" lon="9.410763">
<ele>2.628340</ele>
<time>2026-06-18T19:26:59.259Z</time>
</trkpt>
<trkpt lat="57.163875" lon="9.410941">
<ele>2.636054</ele>
<time>2026-06-18T19:27:02.090Z</time>
</trkpt>
<trkpt lat="57.163921" lon="9.411327">
<ele>2.653572</ele>
<time>2026-06-18T19:27:07.378Z</time>
</trkpt>
<trkpt lat="57.163817" lon="9.412009">
<ele>2.684975</ele>
<time>2026-06-18T19:27:16.780Z</time>
</trkpt>
<trkpt lat="57.163998" lon="9.412119">
<ele>2.700553</ele>
<time>2026-06-18T19:27:21.501Z</time>
</trkpt>
<trkpt lat="57.164067" lon="9.412521">
<ele>2.719244</ele>
<time>2026-06-18T19:27:27.207Z</time>
</trkpt>
<trkpt lat="57.164159" lon="9.412734">
<ele>2.731314</ele>
<time>2026-06-18T19:27:30.915Z</time>
</trkpt>
<trkpt lat="57.164389" lon="9.413040">
<ele>2.754498</ele>
<time>2026-06-18T19:27:38.097Z</time>
</trkpt>
<trkpt lat="57.165059" lon="9.413917">
<ele>2.926478</ele>
<time>2026-06-18T19:27:59.259Z</time>
</trkpt>
<trkpt lat="57.165337" lon="9.414340">
<ele>3.022680</ele>
<time>2026-06-18T19:28:08.604Z</time>
</trkpt>
<trkpt lat="57.165659" lon="9.414916">
<ele>3.142419</ele>
<time>2026-06-18T19:28:20.190Z</time>
</trkpt>
<trkpt lat="57.165756" lon="9.415096">
<ele>3.179149</ele>
<time>2026-06-18T19:28:23.766Z</time>
</trkpt>
<trkpt lat="57.166138" lon="9.415610">
<ele>3.308505</ele>
<time>2026-06-18T19:28:36.002Z</time>
</trkpt>
<trkpt lat="57.166302" lon="9.416040">
<ele>3.389379</ele>
<time>2026-06-18T19:28:43.308Z</time>
</trkpt>
<trkpt lat="57.166325" lon="9.416107">
<ele>3.401578</ele>
<time>2026-06-18T19:28:44.413Z</time>
</trkpt>
<trkpt lat="57.166611" lon="9.416941">
<ele>3.553381</ele>
<time>2026-06-18T19:28:58.347Z</time>
</trkpt>
<trkpt lat="57.166750" lon="9.417356">
<ele>3.628420</ele>
<time>2026-06-18T19:29:05.274Z</time>
</trkpt>
<trkpt lat="57.166844" lon="9.417630">
<ele>3.678298</ele>
<time>2026-06-18T19:29:09.877Z</time>
</trkpt>
<trkpt lat="57.167026" lon="9.418305">
<ele>3.747285</ele>
<time>2026-06-18T19:29:20.461Z</time>
</trkpt>
<trkpt lat="57.167166" lon="9.418644">
<ele>3.704615</ele>
<time>2026-06-18T19:29:26.218Z</time>
</trkpt>
<trkpt lat="57.167361" lon="9.418766">
<ele>3.666588</ele>
<time>2026-06-18T19:29:31.200Z</time>
</trkpt>
<trkpt lat="57.167541" lon="9.418980">
<ele>3.627039</ele>
<time>2026-06-18T19:29:36.322Z</time>
</trkpt>
<trkpt lat="57.167771" lon="9.419423">
<ele>3.565624</ele>
<time>2026-06-18T19:29:44.212Z</time>
</trkpt>
<trkpt lat="57.167904" lon="9.419785">
<ele>3.521840</ele>
<time>2026-06-18T19:29:49.736Z</time>
</trkpt>
<trkpt lat="57.167747" lon="9.419928">
<ele>3.489503</ele>
<time>2026-06-18T19:29:53.392Z</time>
</trkpt>
<trkpt lat="57.167794" lon="9.420129">
<ele>3.467585</ele>
<time>2026-06-18T19:29:56.131Z</time>
</trkpt>
<trkpt lat="57.167970" lon="9.420498">
<ele>3.418645</ele>
<time>2026-06-18T19:30:02.330Z</time>
</trkpt>
<trkpt lat="57.168204" lon="9.420844">
<ele>3.364235</ele>
<time>2026-06-18T19:30:09.357Z</time>
</trkpt>
<trkpt lat="57.168380" lon="9.421179">
<ele>3.318352</ele>
<time>2026-06-18T19:30:15.342Z</time>
</trkpt>
<trkpt lat="57.168790" lon="9.422204">
<ele>3.193063</ele>
<time>2026-06-18T19:30:32.152Z</time>
</trkpt>
<trkpt lat="57.169793" lon="9.424830">
<ele>3.059732</ele>
<time>2026-06-18T19:31:14.847Z</time>
</trkpt>
<trkpt lat="57.170192" lon="9.425879">
<ele>3.043762</ele>
<time>2026-06-18T19:31:31.873Z</time>
</trkpt>
<trkpt lat="57.170697" lon="9.427080">
<ele>3.063219</ele>
<time>2026-06-18T19:31:52.008Z</time>
</trkpt>
<trkpt lat="57.171352" lon="9.428635">
<ele>3.092717</ele>
<time>2026-06-18T19:32:19.024Z</time>
</trkpt>
<trkpt lat="57.171765" lon="9.429614">
<ele>3.119777</ele>
<time>2026-06-18T19:32:36.083Z</time>
</trkpt>
<trkpt lat="57.171949" lon="9.430031">
<ele>3.131505</ele>
<time>2026-06-18T19:32:43.358Z</time>
</trkpt>
<trkpt lat="57.172146" lon="9.430473">
<ele>3.143987</ele>
<time>2026-06-18T19:32:51.037Z</time>
</trkpt>
<trkpt lat="57.172231" lon="9.430665">
<ele>3.149394</ele>
<time>2026-06-18T19:32:54.307Z</time>
</trkpt>
<trkpt lat="57.172362" lon="9.430960">
<ele>3.148442</ele>
<time>2026-06-18T19:32:59.290Z</time>
</trkpt>
<trkpt lat="57.172764" lon="9.431866">
<ele>3.095136</ele>
<time>2026-06-18T19:33:14.265Z</time>
</trkpt>
<trkpt lat="57.173287" lon="9.433079">
<ele>3.024571</ele>
<time>2026-06-18T19:33:34.774Z</time>
</trkpt>
<trkpt lat="57.173451" lon="9.433461">
<ele>3.004837</ele>
<time>2026-06-18T19:33:41.444Z</time>
</trkpt>
<trkpt lat="57.173851" lon="9.434470">
<ele>3.058478</ele>
<time>2026-06-18T19:33:58.791Z</time>
</trkpt>
<trkpt lat="57.174099" lon="9.435096">
<ele>3.091749</ele>
<time>2026-06-18T19:34:09.406Z</time>
</trkpt>
<trkpt lat="57.174202" lon="9.435292">
<ele>3.103463</ele>
<time>2026-06-18T19:34:13.101Z</time>
</trkpt>
<trkpt lat="57.174437" lon="9.435739">
<ele>3.130184</ele>
<time>2026-06-18T19:34:21.401Z</time>
</trkpt>
<trkpt lat="57.174924" lon="9.436666">
<ele>3.062073</ele>
<time>2026-06-18T19:34:38.287Z</time>
</trkpt>
<trkpt lat="57.175228" lon="9.437348">
<ele>2.981646</ele>
<time>2026-06-18T19:34:49.656Z</time>
</trkpt>
<trkpt lat="57.175555" lon="9.437898">
<ele>2.907289</ele>
<time>2026-06-18T19:35:00.257Z</time>
</trkpt>
<trkpt lat="57.176353" lon="9.439641">
<ele>2.830200</ele>
<time>2026-06-18T19:35:30.198Z</time>
</trkpt>
<trkpt lat="57.176504" lon="9.439873">
<ele>2.827091</ele>
<time>2026-06-18T19:35:35.042Z</time>
</trkpt>
<trkpt lat="57.176562" lon="9.439937">
<ele>2.826021</ele>
<time>2026-06-18T19:35:36.555Z</time>
</trkpt>
<trkpt lat="57.176431" lon="9.440642">
<ele>2.819628</ele>
<time>2026-06-18T19:35:45.675Z</time>
</trkpt>
<trkpt lat="57.176327" lon="9.441451">
<ele>2.883900</ele>
<time>2026-06-18T19:35:56.078Z</time>
</trkpt>
<trkpt lat="57.175668" lon="9.448127">
<ele>4.341883</ele>
<time>2026-06-18T19:37:24.184Z</time>
</trkpt>
<trkpt lat="57.175552" lon="9.448773">
<ele>4.446679</ele>
<time>2026-06-18T19:37:32.792Z</time>
</trkpt>
<trkpt lat="57.175402" lon="9.449432">
<ele>4.556745</ele>
<time>2026-06-18T19:37:41.735Z</time>
</trkpt>
<trkpt lat="57.174957" lon="9.450894">
<ele>4.811319</ele>
<time>2026-06-18T19:38:02.633Z</time>
</trkpt>
<trkpt lat="57.173184" lon="9.456317">
<ele>5.731894</ele>
<time>2026-06-18T19:39:22.795Z</time>
</trkpt>
<trkpt lat="57.170969" lon="9.463109">
<ele>7.209441</ele>
<time>2026-06-18T19:41:04.990Z</time>
</trkpt>
<trkpt lat="57.168949" lon="9.469310">
<ele>7.746243</ele>
<time>2026-06-18T19:42:33.129Z</time>
</trkpt>
<trkpt lat="57.168728" lon="9.469979">
<ele>7.830852</ele>
<time>2026-06-18T19:42:43.158Z</time>
</trkpt>
<trkpt lat="57.167728" lon="9.473071">
<ele>8.277240</ele>
<time>2026-06-18T19:43:29.234Z</time>
</trkpt>
<trkpt lat="57.167613" lon="9.473419">
<ele>8.329382</ele>
<time>2026-06-18T19:43:34.066Z</time>
</trkpt>
<trkpt lat="57.166821" lon="9.475888">
<ele>8.327665</ele>
<time>2026-06-18T19:44:07.798Z</time>
</trkpt>
<trkpt lat="57.166888" lon="9.475976">
<ele>8.327412</ele>
<time>2026-06-18T19:44:09.922Z</time>
</trkpt>
<trkpt lat="57.167627" lon="9.477583">
<ele>8.462842</ele>
<time>2026-06-18T19:44:39.608Z</time>
</trkpt>
<trkpt lat="57.170319" lon="9.483330">
<ele>8.460780</ele>
<time>2026-06-18T19:46:20.953Z</time>
</trkpt>
<trkpt lat="57.171411" lon="9.485003">
<ele>8.339569</ele>
<time>2026-06-18T19:46:55.549Z</time>
</trkpt>
<trkpt lat="57.171680" lon="9.485711">
<ele>8.295002</ele>
<time>2026-06-18T19:47:06.988Z</time>
</trkpt>
<trkpt lat="57.172009" lon="9.486181">
<ele>8.225620</ele>
<time>2026-06-18T19:47:17.206Z</time>
</trkpt>
<trkpt lat="57.172880" lon="9.487065">
<ele>7.979962</ele>
<time>2026-06-18T19:47:41.144Z</time>
</trkpt>
<trkpt lat="57.173378" lon="9.487320">
<ele>7.852249</ele>
<time>2026-06-18T19:47:53.065Z</time>
</trkpt>
<trkpt lat="57.173905" lon="9.487610">
<ele>7.780768</ele>
<time>2026-06-18T19:48:05.802Z</time>
</trkpt>
<trkpt lat="57.174100" lon="9.487781">
<ele>7.757756</ele>
<time>2026-06-18T19:48:10.815Z</time>
</trkpt>
<trkpt lat="57.176116" lon="9.490335">
<ele>7.684015</ele>
<time>2026-06-18T19:49:12.162Z</time>
</trkpt>
<trkpt lat="57.176265" lon="9.490549">
<ele>7.690603</ele>
<time>2026-06-18T19:49:16.837Z</time>
</trkpt>
<trkpt lat="57.180387" lon="9.497177">
<ele>6.540498</ele>
<time>2026-06-18T19:51:27.328Z</time>
</trkpt>
<trkpt lat="57.180492" lon="9.497385">
<ele>6.507814</ele>
<time>2026-06-18T19:51:31.030Z</time>
</trkpt>
<trkpt lat="57.180546" lon="9.497599">
<ele>6.492718</ele>
<time>2026-06-18T19:51:34.106Z</time>
</trkpt>
<trkpt lat="57.180525" lon="9.498087">
<ele>6.485336</ele>
<time>2026-06-18T19:51:40.516Z</time>
</trkpt>
<trkpt lat="57.179809" lon="9.504029">
<ele>6.475981</ele>
<time>2026-06-18T19:53:02.200Z</time>
</trkpt>
<trkpt lat="57.179522" lon="9.506442">
<ele>6.430556</ele>
<time>2026-06-18T19:53:34.995Z</time>
</trkpt>
<trkpt lat="57.178600" lon="9.514146">
<ele>6.740872</ele>
<time>2026-06-18T19:55:20.922Z</time>
</trkpt>
<trkpt lat="57.178447" lon="9.515488">
<ele>7.199525</ele>
<time>2026-06-18T19:55:41.686Z</time>
</trkpt>
<trkpt lat="57.178437" lon="9.516417">
<ele>7.510291</ele>
<time>2026-06-18T19:55:56.064Z</time>
</trkpt>
<trkpt lat="57.178466" lon="9.522879">
<ele>9.005553</ele>
<time>2026-06-18T19:57:29.680Z</time>
</trkpt>
<trkpt lat="57.178451" lon="9.523044">
<ele>9.030551</ele>
<time>2026-06-18T19:57:31.898Z</time>
</trkpt>
<trkpt lat="57.180802" lon="9.523865">
<ele>8.610794</ele>
<time>2026-06-18T19:58:27.812Z</time>
</trkpt>
<trkpt lat="57.181130" lon="9.524041">
<ele>8.650415</ele>
<time>2026-06-18T19:58:36.438Z</time>
</trkpt>
<trkpt lat="57.181499" lon="9.524403">
<ele>8.698890</ele>
<time>2026-06-18T19:58:47.283Z</time>
</trkpt>
<trkpt lat="57.186060" lon="9.529171">
<ele>9.900243</ele>
<time>2026-06-18T20:01:02.168Z</time>
</trkpt>
<trkpt lat="57.186798" lon="9.529843">
<ele>10.104554</ele>
<time>2026-06-18T20:01:22.845Z</time>
</trkpt>
<trkpt lat="57.187321" lon="9.530238">
<ele>10.370776</ele>
<time>2026-06-18T20:01:37.976Z</time>
</trkpt>
<trkpt lat="57.188323" lon="9.530980">
<ele>10.918855</ele>
<time>2026-06-18T20:02:07.394Z</time>
</trkpt>
<trkpt lat="57.189115" lon="9.531595">
<ele>11.281107</ele>
<time>2026-06-18T20:02:29.809Z</time>
</trkpt>
<trkpt lat="57.189281" lon="9.531835">
<ele>11.363239</ele>
<time>2026-06-18T20:02:35.144Z</time>
</trkpt>
<trkpt lat="57.189368" lon="9.532017">
<ele>11.414460</ele>
<time>2026-06-18T20:02:38.455Z</time>
</trkpt>
<trkpt lat="57.190776" lon="9.535325">
<ele>12.283235</ele>
<time>2026-06-18T20:03:39.628Z</time>
</trkpt>
<trkpt lat="57.190905" lon="9.535547">
<ele>12.349621</ele>
<time>2026-06-18T20:03:44.095Z</time>
</trkpt>
<trkpt lat="57.193083" lon="9.537522">
<ele>11.830156</ele>
<time>2026-06-18T20:04:41.372Z</time>
</trkpt>
<trkpt lat="57.193365" lon="9.537701">
<ele>11.741323</ele>
<time>2026-06-18T20:04:48.428Z</time>
</trkpt>
<trkpt lat="57.193849" lon="9.537885">
<ele>11.594119</ele>
<time>2026-06-18T20:05:00.259Z</time>
</trkpt>
<trkpt lat="57.194784" lon="9.538270">
<ele>11.328035</ele>
<time>2026-06-18T20:05:22.731Z</time>
</trkpt>
<trkpt lat="57.195392" lon="9.538520">
<ele>11.172046</ele>
<time>2026-06-18T20:05:37.359Z</time>
</trkpt>
<trkpt lat="57.196080" lon="9.538790">
<ele>10.995906</ele>
<time>2026-06-18T20:05:53.989Z</time>
</trkpt>
<trkpt lat="57.196149" lon="9.538817">
<ele>10.979557</ele>
<time>2026-06-18T20:05:55.697Z</time>
</trkpt>
<trkpt lat="57.197939" lon="9.539527">
<ele>11.048128</ele>
<time>2026-06-18T20:06:41.714Z</time>
</trkpt>
<trkpt lat="57.198042" lon="9.539537">
<ele>11.036879</ele>
<time>2026-06-18T20:06:44.249Z</time>
</trkpt>
<trkpt lat="57.198175" lon="9.539512">
<ele>11.022298</ele>
<time>2026-06-18T20:06:47.530Z</time>
</trkpt>
<trkpt lat="57.198668" lon="9.539264">
<ele>10.966570</ele>
<time>2026-06-18T20:06:59.878Z</time>
</trkpt>
<trkpt lat="57.199195" lon="9.539011">
<ele>10.907182</ele>
<time>2026-06-18T20:07:13.052Z</time>
</trkpt>
<trkpt lat="57.199424" lon="9.539024">
<ele>10.882195</ele>
<time>2026-06-18T20:07:18.611Z</time>
</trkpt>
<trkpt lat="57.199716" lon="9.539205">
<ele>10.837481</ele>
<time>2026-06-18T20:07:26.095Z</time>
</trkpt>
<trkpt lat="57.199794" lon="9.539295">
<ele>10.812309</ele>
<time>2026-06-18T20:07:28.319Z</time>
</trkpt>
<trkpt lat="57.200150" lon="9.539577">
<ele>10.706297</ele>
<time>2026-06-18T20:07:37.787Z</time>
</trkpt>
<trkpt lat="57.201124" lon="9.540348">
<ele>10.416285</ele>
<time>2026-06-18T20:08:02.856Z</time>
</trkpt>
<trkpt lat="57.201490" lon="9.540632">
<ele>10.292387</ele>
<time>2026-06-18T20:08:11.865Z</time>
</trkpt>
<trkpt lat="57.202136" lon="9.541139">
<ele>10.048091</ele>
<time>2026-06-18T20:08:28.026Z</time>
</trkpt>
<trkpt lat="57.202243" lon="9.539929">
<ele>9.816967</ele>
<time>2026-06-18T20:08:41.988Z</time>
</trkpt>
<trkpt lat="57.202359" lon="9.537744">
<ele>9.674706</ele>
<time>2026-06-18T20:09:08.231Z</time>
</trkpt>
<trkpt lat="57.202398" lon="9.537324">
<ele>9.659566</ele>
<time>2026-06-18T20:09:13.296Z</time>
</trkpt>
<trkpt lat="57.202537" lon="9.536830">
<ele>9.639787</ele>
<time>2026-06-18T20:09:19.928Z</time>
</trkpt>
<trkpt lat="57.202677" lon="9.536554">
<ele>9.626352</ele>
<time>2026-06-18T20:09:24.431Z</time>
</trkpt>
<trkpt lat="57.206786" lon="9.543557">
<ele>9.783089</ele>
<time>2026-06-18T20:11:29.666Z</time>
</trkpt>
<trkpt lat="57.207076" lon="9.544064">
<ele>9.767865</ele>
<time>2026-06-18T20:11:38.436Z</time>
</trkpt>
<trkpt lat="57.208066" lon="9.545732">
<ele>9.713423</ele>
<time>2026-06-18T20:12:07.964Z</time>
</trkpt>
<trkpt lat="57.208776" lon="9.546822">
<ele>9.595429</ele>
<time>2026-06-18T20:12:28.366Z</time>
</trkpt>
<trkpt lat="57.212272" lon="9.551634">
<ele>8.699084</ele>
<time>2026-06-18T20:14:01.300Z</time>
</trkpt>
<trkpt lat="57.212769" lon="9.552328">
<ele>8.669697</ele>
<time>2026-06-18T20:14:15.430Z</time>
</trkpt>
<trkpt lat="57.213152" lon="9.552923">
<ele>8.656172</ele>
<time>2026-06-18T20:14:26.788Z</time>
</trkpt>
<trkpt lat="57.213467" lon="9.553463">
<ele>8.644558</ele>
<time>2026-06-18T20:14:36.390Z</time>
</trkpt>
<trkpt lat="57.213973" lon="9.554465">
<ele>8.573721</ele>
<time>2026-06-18T20:14:52.411Z</time>
</trkpt>
<trkpt lat="57.214443" lon="9.555542">
<ele>8.463307</ele>
<time>2026-06-18T20:15:08.280Z</time>
</trkpt>
<trkpt lat="57.214773" lon="9.556455">
<ele>8.375685</ele>
<time>2026-06-18T20:15:21.157Z</time>
</trkpt>
<trkpt lat="57.215164" lon="9.557689">
<ele>8.591128</ele>
<time>2026-06-18T20:15:38.841Z</time>
</trkpt>
<trkpt lat="57.216185" lon="9.561060">
<ele>9.329968</ele>
<time>2026-06-18T20:16:29.468Z</time>
</trkpt>
<trkpt lat="57.216366" lon="9.561667">
<ele>9.483949</ele>
<time>2026-06-18T20:16:38.675Z</time>
</trkpt>
<trkpt lat="57.216388" lon="9.561737">
<ele>9.501934</ele>
<time>2026-06-18T20:16:39.763Z</time>
</trkpt>
<trkpt lat="57.217121" lon="9.564232">
<ele>9.635006</ele>
<time>2026-06-18T20:17:14.064Z</time>
</trkpt>
<trkpt lat="57.217365" lon="9.565170">
<ele>9.630796</ele>
<time>2026-06-18T20:17:26.198Z</time>
</trkpt>
<trkpt lat="57.217562" lon="9.565106">
<ele>9.692517</ele>
<time>2026-06-18T20:17:31.081Z</time>
</trkpt>
<trkpt lat="57.217739" lon="9.565155">
<ele>9.763760</ele>
<time>2026-06-18T20:17:35.346Z</time>
</trkpt>
<trkpt lat="57.217877" lon="9.565332">
<ele>9.830638</ele>
<time>2026-06-18T20:17:39.351Z</time>
</trkpt>
<trkpt lat="57.218647" lon="9.566613">
<ele>10.243150</ele>
<time>2026-06-18T20:18:07.331Z</time>
</trkpt>
<trkpt lat="57.218702" lon="9.566821">
<ele>10.293039</ele>
<time>2026-06-18T20:18:10.777Z</time>
</trkpt>
<trkpt lat="57.218758" lon="9.567030">
<ele>10.343296</ele>
<time>2026-06-18T20:18:14.263Z</time>
</trkpt>
<trkpt lat="57.219192" lon="9.569917">
<ele>11.557485</ele>
<time>2026-06-18T20:19:00.154Z</time>
</trkpt>
<trkpt lat="57.219635" lon="9.572861">
<ele>11.906119</ele>
<time>2026-06-18T20:19:43.129Z</time>
</trkpt>
<trkpt lat="57.219731" lon="9.573420">
<ele>11.951563</ele>
<time>2026-06-18T20:19:50.317Z</time>
</trkpt>
<trkpt lat="57.219834" lon="9.574411">
<ele>11.560031</ele>
<time>2026-06-18T20:20:02.486Z</time>
</trkpt>
<trkpt lat="57.219827" lon="9.574602">
<ele>11.483918</ele>
<time>2026-06-18T20:20:04.776Z</time>
</trkpt>
<trkpt lat="57.219731" lon="9.574955">
<ele>11.326858</ele>
<time>2026-06-18T20:20:09.435Z</time>
</trkpt>
<trkpt lat="57.219652" lon="9.575138">
<ele>11.233802</ele>
<time>2026-06-18T20:20:12.129Z</time>
</trkpt>
<trkpt lat="57.219818" lon="9.575762">
<ele>10.957375</ele>
<time>2026-06-18T20:20:19.378Z</time>
</trkpt>
<trkpt lat="57.219963" lon="9.576462">
<ele>10.659389</ele>
<time>2026-06-18T20:20:27.430Z</time>
</trkpt>
<trkpt lat="57.220071" lon="9.577248">
<ele>10.569601</ele>
<time>2026-06-18T20:20:36.766Z</time>
</trkpt>
<trkpt lat="57.220215" lon="9.577167">
<ele>10.546129</ele>
<time>2026-06-18T20:20:40.117Z</time>
</trkpt>
<trkpt lat="57.220445" lon="9.576868">
<ele>10.502273</ele>
<time>2026-06-18T20:20:46.267Z</time>
</trkpt>
<trkpt lat="57.220690" lon="9.576508">
<ele>10.453457</ele>
<time>2026-06-18T20:20:53.106Z</time>
</trkpt>
<trkpt lat="57.221355" lon="9.575489">
<ele>10.334962</ele>
<time>2026-06-18T20:21:12.454Z</time>
</trkpt>
<trkpt lat="57.224534" lon="9.570564">
<ele>9.835048</ele>
<time>2026-06-18T20:22:42.958Z</time>
</trkpt>
<trkpt lat="57.224818" lon="9.569966">
<ele>9.746871</ele>
<time>2026-06-18T20:22:52.238Z</time>
</trkpt>
<trkpt lat="57.224926" lon="9.569832">
<ele>9.720232</ele>
<time>2026-06-18T20:22:55.010Z</time>
</trkpt>
<trkpt lat="57.225138" lon="9.569679">
<ele>9.673628</ele>
<time>2026-06-18T20:22:59.856Z</time>
</trkpt>
<trkpt lat="57.226409" lon="9.567816">
<ele>9.247192</ele>
<time>2026-06-18T20:23:34.042Z</time>
</trkpt>
<trkpt lat="57.227660" lon="9.569836">
<ele>9.052952</ele>
<time>2026-06-18T20:24:13.972Z</time>
</trkpt>
<trkpt lat="57.227810" lon="9.570034">
<ele>9.041216</ele>
<time>2026-06-18T20:24:18.531Z</time>
</trkpt>
<trkpt lat="57.228590" lon="9.570941">
<ele>9.277854</ele>
<time>2026-06-18T20:24:42.197Z</time>
</trkpt>
<trkpt lat="57.228989" lon="9.571472">
<ele>9.512186</ele>
<time>2026-06-18T20:24:55.397Z</time>
</trkpt>
<trkpt lat="57.229373" lon="9.572433">
<ele>9.820290</ele>
<time>2026-06-18T20:25:13.020Z</time>
</trkpt>
<trkpt lat="57.229668" lon="9.573171">
<ele>10.151272</ele>
<time>2026-06-18T20:25:26.615Z</time>
</trkpt>
<trkpt lat="57.230603" lon="9.574727">
<ele>11.060985</ele>
<time>2026-06-18T20:26:01.292Z</time>
</trkpt>
<trkpt lat="57.231046" lon="9.575450">
<ele>11.374742</ele>
<time>2026-06-18T20:26:25.416Z</time>
</trkpt>
<trkpt lat="57.231657" lon="9.576392">
<ele>11.741701</ele>
<time>2026-06-18T20:26:56.488Z</time>
</trkpt>
<trkpt lat="57.231759" lon="9.576484">
<ele>11.794041</ele>
<time>2026-06-18T20:27:00.824Z</time>
</trkpt>
<trkpt lat="57.231958" lon="9.576586">
<ele>11.889272</ele>
<time>2026-06-18T20:27:08.635Z</time>
</trkpt>
<trkpt lat="57.232697" lon="9.576704">
<ele>11.943896</ele>
<time>2026-06-18T20:27:36.065Z</time>
</trkpt>
<trkpt lat="57.232925" lon="9.576739">
<ele>11.915924</ele>
<time>2026-06-18T20:27:44.209Z</time>
</trkpt>
<trkpt lat="57.233167" lon="9.576866">
<ele>11.885165</ele>
<time>2026-06-18T20:27:53.133Z</time>
</trkpt>
<trkpt lat="57.233458" lon="9.577059">
<ele>11.847363</ele>
<time>2026-06-18T20:28:04.147Z</time>
</trkpt>
<trkpt lat="57.233653" lon="9.577243">
<ele>11.820592</ele>
<time>2026-06-18T20:28:12.143Z</time>
</trkpt>
<trkpt lat="57.234327" lon="9.578128">
<ele>12.055403</ele>
<time>2026-06-18T20:28:43.023Z</time>
</trkpt>
<trkpt lat="57.235622" lon="9.580178">
<ele>12.886410</ele>
<time>2026-06-18T20:29:51.319Z</time>
</trkpt>
<trkpt lat="57.235888" lon="9.580457">
<ele>13.013245</ele>
<time>2026-06-18T20:30:03.898Z</time>
</trkpt>
<trkpt lat="57.236592" lon="9.581083">
<ele>13.337219</ele>
<time>2026-06-18T20:30:33.965Z</time>
</trkpt>
<trkpt lat="57.236821" lon="9.581331">
<ele>13.447286</ele>
<time>2026-06-18T20:30:43.560Z</time>
</trkpt>
<trkpt lat="57.237629" lon="9.582209">
<ele>13.339703</ele>
<time>2026-06-18T20:31:17.320Z</time>
</trkpt>
<trkpt lat="57.238413" lon="9.583060">
<ele>13.245741</ele>
<time>2026-06-18T20:31:50.495Z</time>
</trkpt>
<trkpt lat="57.240270" lon="9.584613">
<ele>13.813993</ele>
<time>2026-06-18T20:33:08.981Z</time>
</trkpt>
<trkpt lat="57.240548" lon="9.584823">
<ele>13.871943</ele>
<time>2026-06-18T20:33:20.324Z</time>
</trkpt>
<trkpt lat="57.240751" lon="9.585056">
<ele>13.918053</ele>
<time>2026-06-18T20:33:29.354Z</time>
</trkpt>
<trkpt lat="57.241208" lon="9.585745">
<ele>14.031855</ele>
<time>2026-06-18T20:33:51.512Z</time>
</trkpt>
<trkpt lat="57.241883" lon="9.586767">
<ele>14.132071</ele>
<time>2026-06-18T20:34:24.194Z</time>
</trkpt>
<trkpt lat="57.241999" lon="9.586881">
<ele>14.138789</ele>
<time>2026-06-18T20:34:29.167Z</time>
</trkpt>
<trkpt lat="57.242169" lon="9.587024">
<ele>14.148339</ele>
<time>2026-06-18T20:34:36.205Z</time>
</trkpt>
<trkpt lat="57.242091" lon="9.590376">
<ele>14.087967</ele>
<time>2026-06-18T20:35:43.679Z</time>
</trkpt>
<trkpt lat="57.242211" lon="9.591703">
<ele>13.988436</ele>
<time>2026-06-18T20:36:09.597Z</time>
</trkpt>
<trkpt lat="57.242186" lon="9.593231">
<ele>13.972670</ele>
<time>2026-06-18T20:36:39.632Z</time>
</trkpt>
<trkpt lat="57.242386" lon="9.594474">
<ele>13.996126</ele>
<time>2026-06-18T20:37:06.199Z</time>
</trkpt>
<trkpt lat="57.242532" lon="9.595747">
<ele>14.020895</ele>
<time>2026-06-18T20:37:32.933Z</time>
</trkpt>
<trkpt lat="57.242582" lon="9.595992">
<ele>14.026606</ele>
<time>2026-06-18T20:37:38.217Z</time>
</trkpt>
<trkpt lat="57.242905" lon="9.597042">
<ele>14.052947</ele>
<time>2026-06-18T20:38:02.522Z</time>
</trkpt>
<trkpt lat="57.242955" lon="9.597180">
<ele>14.056569</ele>
<time>2026-06-18T20:38:05.885Z</time>
</trkpt>
<trkpt lat="57.243069" lon="9.597408">
<ele>14.063339</ele>
<time>2026-06-18T20:38:12.106Z</time>
</trkpt>
<trkpt lat="57.243218" lon="9.597621">
<ele>14.070931</ele>
<time>2026-06-18T20:38:19.007Z</time>
</trkpt>
<trkpt lat="57.243840" lon="9.598260">
<ele>14.066105</ele>
<time>2026-06-18T20:38:45.202Z</time>
</trkpt>
<trkpt lat="57.244960" lon="9.599431">
<ele>13.988698</ele>
<time>2026-06-18T20:39:32.248Z</time>
</trkpt>
<trkpt lat="57.245173" lon="9.599563">
<ele>13.991887</ele>
<time>2026-06-18T20:39:40.488Z</time>
</trkpt>
<trkpt lat="57.245877" lon="9.599701">
<ele>14.204422</ele>
<time>2026-06-18T20:40:07.543Z</time>
</trkpt>
<trkpt lat="57.246005" lon="9.599782">
<ele>14.245040</ele>
<time>2026-06-18T20:40:12.781Z</time>
</trkpt>
<trkpt lat="57.246089" lon="9.599904">
<ele>14.277112</ele>
<time>2026-06-18T20:40:16.905Z</time>
</trkpt>
<trkpt lat="57.246213" lon="9.600071">
<ele>14.323172</ele>
<time>2026-06-18T20:40:22.849Z</time>
</trkpt>
<trkpt lat="57.246532" lon="9.600181">
<ele>14.420593</ele>
<time>2026-06-18T20:40:35.392Z</time>
</trkpt>
<trkpt lat="57.246814" lon="9.600061">
<ele>14.507468</ele>
<time>2026-06-18T20:40:46.584Z</time>
</trkpt>
<trkpt lat="57.246919" lon="9.600083">
<ele>14.543362</ele>
<time>2026-06-18T20:40:50.726Z</time>
</trkpt>
<trkpt lat="57.247336" lon="9.600305">
<ele>14.699212</ele>
<time>2026-06-18T20:41:07.811Z</time>
</trkpt>
<trkpt lat="57.247458" lon="9.600464">
<ele>14.752824</ele>
<time>2026-06-18T20:41:13.567Z</time>
</trkpt>
<trkpt lat="57.247486" lon="9.601180">
<ele>14.892305</ele>
<time>2026-06-18T20:41:28.382Z</time>
</trkpt>
<trkpt lat="57.247487" lon="9.601591">
<ele>14.972163</ele>
<time>2026-06-18T20:41:36.876Z</time>
</trkpt>
<trkpt lat="57.247401" lon="9.602901">
<ele>15.155535</ele>
<time>2026-06-18T20:42:04.376Z</time>
</trkpt>
<trkpt lat="57.247327" lon="9.604451">
<ele>15.116331</ele>
<time>2026-06-18T20:42:35.534Z</time>
</trkpt>
<trkpt lat="57.247334" lon="9.604691">
<ele>15.110276</ele>
<time>2026-06-18T20:42:40.058Z</time>
</trkpt>
<trkpt lat="57.247474" lon="9.604953">
<ele>15.100998</ele>
<time>2026-06-18T20:42:47.000Z</time>
</trkpt>
<trkpt lat="57.247569" lon="9.605064">
<ele>15.095764</ele>
<time>2026-06-18T20:42:50.973Z</time>
</trkpt>
<trkpt lat="57.247974" lon="9.605268">
<ele>15.126296</ele>
<time>2026-06-18T20:43:06.180Z</time>
</trkpt>
<trkpt lat="57.248085" lon="9.605379">
<ele>15.195125</ele>
<time>2026-06-18T20:43:10.917Z</time>
</trkpt>
<trkpt lat="57.248188" lon="9.605662">
<ele>15.295763</ele>
<time>2026-06-18T20:43:17.904Z</time>
</trkpt>
<trkpt lat="57.248256" lon="9.606041">
<ele>15.413577</ele>
<time>2026-06-18T20:43:26.313Z</time>
</trkpt>
<trkpt lat="57.248672" lon="9.608056">
<ele>16.049926</ele>
<time>2026-06-18T20:44:14.392Z</time>
</trkpt>
<trkpt lat="57.249137" lon="9.610301">
<ele>15.607003</ele>
<time>2026-06-18T20:45:02.488Z</time>
</trkpt>
<trkpt lat="57.249123" lon="9.610480">
<ele>15.572291</ele>
<time>2026-06-18T20:45:04.387Z</time>
</trkpt>
<trkpt lat="57.248935" lon="9.612618">
<ele>14.484739</ele>
<time>2026-06-18T20:45:26.937Z</time>
</trkpt>
<trkpt lat="57.248903" lon="9.613065">
<ele>14.179987</ele>
<time>2026-06-18T20:45:31.698Z</time>
</trkpt>
<trkpt lat="57.248865" lon="9.613541">
<ele>13.854784</ele>
<time>2026-06-18T20:45:36.754Z</time>
</trkpt>
<trkpt lat="57.248824" lon="9.613936">
<ele>13.582941</ele>
<time>2026-06-18T20:45:41.065Z</time>
</trkpt>
<trkpt lat="57.248750" lon="9.614636">
<ele>13.143981</ele>
<time>2026-06-18T20:45:48.882Z</time>
</trkpt>
<trkpt lat="57.248728" lon="9.614868">
<ele>13.076266</ele>
<time>2026-06-18T20:45:51.533Z</time>
</trkpt>
<trkpt lat="57.248708" lon="9.615068">
<ele>13.017793</ele>
<time>2026-06-18T20:45:53.827Z</time>
</trkpt>
<trkpt lat="57.248697" lon="9.615183">
<ele>12.984219</ele>
<time>2026-06-18T20:45:55.122Z</time>
</trkpt>
<trkpt lat="57.248631" lon="9.615817">
<ele>12.798604</ele>
<time>2026-06-18T20:46:02.478Z</time>
</trkpt>
<trkpt lat="57.248597" lon="9.616166">
<ele>12.696655</ele>
<time>2026-06-18T20:46:06.629Z</time>
</trkpt>
<trkpt lat="57.248548" lon="9.616705">
<ele>12.539523</ele>
<time>2026-06-18T20:46:12.984Z</time>
</trkpt>
<trkpt lat="57.248385" lon="9.618481">
<ele>12.132998</ele>
<time>2026-06-18T20:46:34.608Z</time>
</trkpt>
<trkpt lat="57.248240" lon="9.619929">
<ele>11.947238</ele>
<time>2026-06-18T20:46:52.442Z</time>
</trkpt>
<trkpt lat="57.248068" lon="9.621596">
<ele>11.957479</ele>
<time>2026-06-18T20:47:12.770Z</time>
</trkpt>
<trkpt lat="57.248035" lon="9.621908">
<ele>12.050630</ele>
<time>2026-06-18T20:47:16.740Z</time>
</trkpt>
<trkpt lat="57.247927" lon="9.622589">
<ele>12.258570</ele>
<time>2026-06-18T20:47:26.146Z</time>
</trkpt>
<trkpt lat="57.247890" lon="9.622779">
<ele>12.317740</ele>
<time>2026-06-18T20:47:28.923Z</time>
</trkpt>
<trkpt lat="57.247852" lon="9.622811">
<ele>12.340356</ele>
<time>2026-06-18T20:47:29.959Z</time>
</trkpt>
<trkpt lat="57.247805" lon="9.622947">
<ele>12.387643</ele>
<time>2026-06-18T20:47:32.111Z</time>
</trkpt>
<trkpt lat="57.247809" lon="9.623055">
<ele>12.419363</ele>
<time>2026-06-18T20:47:33.584Z</time>
</trkpt>
<trkpt lat="57.247856" lon="9.623164">
<ele>12.460205</ele>
<time>2026-06-18T20:47:35.494Z</time>
</trkpt>
<trkpt lat="57.247944" lon="9.623193">
<ele>12.508618</ele>
<time>2026-06-18T20:47:37.827Z</time>
</trkpt>
<trkpt lat="57.248006" lon="9.623124">
<ele>12.547815</ele>
<time>2026-06-18T20:47:39.713Z</time>
</trkpt>
<trkpt lat="57.248064" lon="9.623103">
<ele>12.579826</ele>
<time>2026-06-18T20:47:41.344Z</time>
</trkpt>
<trkpt lat="57.248341" lon="9.623092">
<ele>12.729887</ele>
<time>2026-06-18T20:47:49.016Z</time>
</trkpt>
<trkpt lat="57.248374" lon="9.623103">
<ele>12.748048</ele>
<time>2026-06-18T20:47:49.956Z</time>
</trkpt>
<trkpt lat="57.248398" lon="9.623111">
<ele>12.761257</ele>
<time>2026-06-18T20:47:50.641Z</time>
</trkpt>
<trkpt lat="57.248816" lon="9.623224">
<ele>13.205325</ele>
<time>2026-06-18T20:48:02.862Z</time>
</trkpt>
<trkpt lat="57.249246" lon="9.623341">
<ele>13.676181</ele>
<time>2026-06-18T20:48:15.676Z</time>
</trkpt>
<trkpt lat="57.250046" lon="9.623476">
<ele>14.546458</ele>
<time>2026-06-18T20:48:37.400Z</time>
</trkpt>
<trkpt lat="57.250365" lon="9.623510">
<ele>14.852925</ele>
<time>2026-06-18T20:48:45.572Z</time>
</trkpt>
<trkpt lat="57.251417" lon="9.623484">
<ele>15.725375</ele>
<time>2026-06-18T20:49:11.785Z</time>
</trkpt>
<trkpt lat="57.253653" lon="9.623412">
<ele>18.838514</ele>
<time>2026-06-18T20:50:15.710Z</time>
</trkpt>
<trkpt lat="57.253958" lon="9.623435">
<ele>19.397229</ele>
<time>2026-06-18T20:50:26.303Z</time>
</trkpt>
<trkpt lat="57.254097" lon="9.623442">
<ele>19.684618</ele>
<time>2026-06-18T20:50:31.153Z</time>
</trkpt>
<trkpt lat="57.254728" lon="9.623629">
<ele>21.005405</ele>
<time>2026-06-18T20:50:53.281Z</time>
</trkpt>
<trkpt lat="57.255106" lon="9.623816">
<ele>21.814134</ele>
<time>2026-06-18T20:51:06.113Z</time>
</trkpt>
<trkpt lat="57.255735" lon="9.624247">
<ele>22.859364</ele>
<time>2026-06-18T20:51:24.798Z</time>
</trkpt>
<trkpt lat="57.256313" lon="9.624787">
<ele>23.059989</ele>
<time>2026-06-18T20:51:39.931Z</time>
</trkpt>
<trkpt lat="57.257836" lon="9.626411">
<ele>23.732311</ele>
<time>2026-06-18T20:52:21.091Z</time>
</trkpt>
<trkpt lat="57.259459" lon="9.628127">
<ele>24.820134</ele>
<time>2026-06-18T20:53:10.615Z</time>
</trkpt>
<trkpt lat="57.259903" lon="9.628508">
<ele>25.168028</ele>
<time>2026-06-18T20:53:23.203Z</time>
</trkpt>
<trkpt lat="57.260271" lon="9.628752">
<ele>25.445887</ele>
<time>2026-06-18T20:53:33.015Z</time>
</trkpt>
<trkpt lat="57.260770" lon="9.629016">
<ele>25.790321</ele>
<time>2026-06-18T20:53:46.210Z</time>
</trkpt>
<trkpt lat="57.261274" lon="9.629183">
<ele>26.127770</ele>
<time>2026-06-18T20:53:59.996Z</time>
</trkpt>
<trkpt lat="57.262292" lon="9.629326">
<ele>26.594433</ele>
<time>2026-06-18T20:54:26.384Z</time>
</trkpt>
<trkpt lat="57.262423" lon="9.629339">
<ele>26.550481</ele>
<time>2026-06-18T20:54:29.554Z</time>
</trkpt>
<trkpt lat="57.262868" lon="9.629382">
<ele>26.401189</ele>
<time>2026-06-18T20:54:39.839Z</time>
</trkpt>
<trkpt lat="57.263231" lon="9.629415">
<ele>26.279426</ele>
<time>2026-06-18T20:54:47.571Z</time>
</trkpt>
<trkpt lat="57.263660" lon="9.629483">
<ele>26.135171</ele>
<time>2026-06-18T20:54:56.290Z</time>
</trkpt>
<trkpt lat="57.263840" lon="9.629550">
<ele>26.073656</ele>
<time>2026-06-18T20:54:59.951Z</time>
</trkpt>
<trkpt lat="57.263979" lon="9.629641">
<ele>25.908789</ele>
<time>2026-06-18T20:55:02.938Z</time>
</trkpt>
<trkpt lat="57.264256" lon="9.629951">
<ele>25.462399</ele>
<time>2026-06-18T20:55:09.550Z</time>
</trkpt>
<trkpt lat="57.264460" lon="9.630437">
<ele>25.003713</ele>
<time>2026-06-18T20:55:16.279Z</time>
</trkpt>
<trkpt lat="57.264548" lon="9.630764">
<ele>24.731398</ele>
<time>2026-06-18T20:55:20.174Z</time>
</trkpt>
<trkpt lat="57.264601" lon="9.631172">
<ele>24.418562</ele>
<time>2026-06-18T20:55:24.578Z</time>
</trkpt>
<trkpt lat="57.264615" lon="9.631576">
<ele>24.116744</ele>
<time>2026-06-18T20:55:28.773Z</time>
</trkpt>
<trkpt lat="57.264562" lon="9.633497">
<ele>22.071750</ele>
<time>2026-06-18T20:55:47.905Z</time>
</trkpt>
<trkpt lat="57.264408" lon="9.638931">
<ele>15.174016</ele>
<time>2026-06-18T20:56:40.191Z</time>
</trkpt>
<trkpt lat="57.264226" lon="9.645457">
<ele>10.290422</ele>
<time>2026-06-18T20:57:49.446Z</time>
</trkpt>
<trkpt lat="57.264277" lon="9.645454">
<ele>10.223717</ele>
<time>2026-06-18T20:57:50.404Z</time>
</trkpt>
<trkpt lat="57.264266" lon="9.646050">
<ele>9.797007</ele>
<time>2026-06-18T20:57:56.377Z</time>
</trkpt>
<trkpt lat="57.264258" lon="9.646425">
<ele>9.528310</ele>
<time>2026-06-18T20:58:00.125Z</time>
</trkpt>
<trkpt lat="57.264256" lon="9.646549">
<ele>9.439490</ele>
<time>2026-06-18T20:58:01.373Z</time>
</trkpt>
<trkpt lat="57.264291" lon="9.646614">
<ele>9.373815</ele>
<time>2026-06-18T20:58:02.277Z</time>
</trkpt>
<trkpt lat="57.264323" lon="9.646670">
<ele>9.315484</ele>
<time>2026-06-18T20:58:03.084Z</time>
</trkpt>
<trkpt lat="57.264274" lon="9.646880">
<ele>9.151731</ele>
<time>2026-06-18T20:58:05.364Z</time>
</trkpt>
<trkpt lat="57.264142" lon="9.651524">
<ele>6.066780</ele>
<time>2026-06-18T20:58:52.509Z</time>
</trkpt>
<trkpt lat="57.264107" lon="9.652090">
<ele>5.726778</ele>
<time>2026-06-18T20:58:58.509Z</time>
</trkpt>
<trkpt lat="57.264039" lon="9.652576">
<ele>5.654673</ele>
<time>2026-06-18T20:59:03.896Z</time>
</trkpt>
<trkpt lat="57.264042" lon="9.652724">
<ele>5.633400</ele>
<time>2026-06-18T20:59:05.533Z</time>
</trkpt>
<trkpt lat="57.264001" lon="9.652735">
<ele>5.622396</ele>
<time>2026-06-18T20:59:06.352Z</time>
</trkpt>
<trkpt lat="57.263924" lon="9.652735">
<ele>5.601944</ele>
<time>2026-06-18T20:59:07.996Z</time>
</trkpt>
<trkpt lat="57.263889" lon="9.652602">
<ele>5.580698</ele>
<time>2026-06-18T20:59:09.643Z</time>
</trkpt>
<trkpt lat="57.263811" lon="9.652556">
<ele>5.558953</ele>
<time>2026-06-18T20:59:11.342Z</time>
</trkpt>
<trkpt lat="57.263739" lon="9.652629">
<ele>5.537143</ele>
<time>2026-06-18T20:59:13.043Z</time>
</trkpt>
<trkpt lat="57.263728" lon="9.652698">
<ele>5.526810</ele>
<time>2026-06-18T20:59:13.861Z</time>
</trkpt>
<trkpt lat="57.263718" lon="9.652767">
<ele>5.516549</ele>
<time>2026-06-18T20:59:14.692Z</time>
</trkpt>
<trkpt lat="57.263729" lon="9.652836">
<ele>5.506217</ele>
<time>2026-06-18T20:59:15.531Z</time>
</trkpt>
<trkpt lat="57.263789" lon="9.652928">
<ele>5.485514</ele>
<time>2026-06-18T20:59:17.182Z</time>
</trkpt>
<trkpt lat="57.263828" lon="9.652937">
<ele>5.475075</ele>
<time>2026-06-18T20:59:18.057Z</time>
</trkpt>
<trkpt lat="57.263857" lon="9.653058">
<ele>5.456064</ele>
<time>2026-06-18T20:59:19.601Z</time>
</trkpt>
<trkpt lat="57.264466" lon="9.654002">
<ele>5.266652</ele>
<time>2026-06-18T20:59:37.734Z</time>
</trkpt>
<trkpt lat="57.265023" lon="9.654880">
<ele>5.521395</ele>
<time>2026-06-18T20:59:54.894Z</time>
</trkpt>
<trkpt lat="57.265449" lon="9.655561">
<ele>5.717389</ele>
<time>2026-06-18T21:00:08.080Z</time>
</trkpt>
<trkpt lat="57.265661" lon="9.655977">
<ele>5.824976</ele>
<time>2026-06-18T21:00:15.227Z</time>
</trkpt>
<trkpt lat="57.265800" lon="9.656315">
<ele>5.982439</ele>
<time>2026-06-18T21:00:20.586Z</time>
</trkpt>
<trkpt lat="57.266215" lon="9.657559">
<ele>7.128413</ele>
<time>2026-06-18T21:00:41.165Z</time>
</trkpt>
<trkpt lat="57.266488" lon="9.658193">
<ele>7.763814</ele>
<time>2026-06-18T21:00:54.455Z</time>
</trkpt>
<trkpt lat="57.267194" lon="9.659356">
<ele>9.035572</ele>
<time>2026-06-18T21:01:23.870Z</time>
</trkpt>
<trkpt lat="57.267248" lon="9.659260">
<ele>9.127532</ele>
<time>2026-06-18T21:01:26.111Z</time>
</trkpt>
<trkpt lat="57.267595" lon="9.659010">
<ele>9.584731</ele>
<time>2026-06-18T21:01:37.111Z</time>
</trkpt>
<trkpt lat="57.267759" lon="9.658993">
<ele>9.786391</ele>
<time>2026-06-18T21:01:41.681Z</time>
</trkpt>
<trkpt lat="57.270269" lon="9.659889">
<ele>11.245451</ele>
<time>2026-06-18T21:02:41.247Z</time>
</trkpt>
<trkpt lat="57.271052" lon="9.660177">
<ele>11.341216</ele>
<time>2026-06-18T21:03:00.369Z</time>
</trkpt>
<trkpt lat="57.271804" lon="9.660505">
<ele>11.433898</ele>
<time>2026-06-18T21:03:17.487Z</time>
</trkpt>
<trkpt lat="57.272075" lon="9.660622">
<ele>11.442861</ele>
<time>2026-06-18T21:03:23.430Z</time>
</trkpt>
<trkpt lat="57.272529" lon="9.660818">
<ele>11.328978</ele>
<time>2026-06-18T21:03:33.354Z</time>
</trkpt>
<trkpt lat="57.272965" lon="9.661068">
<ele>11.217473</ele>
<time>2026-06-18T21:03:42.737Z</time>
</trkpt>
<trkpt lat="57.274865" lon="9.662148">
<ele>11.128324</ele>
<time>2026-06-18T21:04:26.201Z</time>
</trkpt>
<trkpt lat="57.275345" lon="9.662449">
<ele>11.174956</ele>
<time>2026-06-18T21:04:38.179Z</time>
</trkpt>
<trkpt lat="57.275573" lon="9.662679">
<ele>11.233973</ele>
<time>2026-06-18T21:04:44.489Z</time>
</trkpt>
<trkpt lat="57.275872" lon="9.663325">
<ele>11.386379</ele>
<time>2026-06-18T21:04:55.392Z</time>
</trkpt>
<trkpt lat="57.275980" lon="9.663187">
<ele>11.429893</ele>
<time>2026-06-18T21:04:58.497Z</time>
</trkpt>
<trkpt lat="57.276135" lon="9.662754">
<ele>11.522961</ele>
<time>2026-06-18T21:05:05.255Z</time>
</trkpt>
<trkpt lat="57.276214" lon="9.662255">
<ele>11.616143</ele>
<time>2026-06-18T21:05:12.088Z</time>
</trkpt>
<trkpt lat="57.276311" lon="9.661165">
<ele>11.792942</ele>
<time>2026-06-18T21:05:25.913Z</time>
</trkpt>
<trkpt lat="57.276365" lon="9.660728">
<ele>11.820936</ele>
<time>2026-06-18T21:05:31.208Z</time>
</trkpt>
<trkpt lat="57.276441" lon="9.660362">
<ele>11.845421</ele>
<time>2026-06-18T21:05:35.780Z</time>
</trkpt>
<trkpt lat="57.276596" lon="9.659975">
<ele>11.875499</ele>
<time>2026-06-18T21:05:41.446Z</time>
</trkpt>
<trkpt lat="57.277546" lon="9.658542">
<ele>12.098069</ele>
<time>2026-06-18T21:06:09.636Z</time>
</trkpt>
<trkpt lat="57.277730" lon="9.658305">
<ele>12.199668</ele>
<time>2026-06-18T21:06:14.885Z</time>
</trkpt>
<trkpt lat="57.277814" lon="9.658281">
<ele>12.238184</ele>
<time>2026-06-18T21:06:16.881Z</time>
</trkpt>
<trkpt lat="57.277998" lon="9.658340">
<ele>12.322806</ele>
<time>2026-06-18T21:06:21.313Z</time>
</trkpt>
<trkpt lat="57.278387" lon="9.658636">
<ele>12.513410</ele>
<time>2026-06-18T21:06:31.468Z</time>
</trkpt>
<trkpt lat="57.278631" lon="9.658931">
<ele>12.645496</ele>
<time>2026-06-18T21:06:38.622Z</time>
</trkpt>
<trkpt lat="57.279711" lon="9.660648">
<ele>13.465551</ele>
<time>2026-06-18T21:07:14.461Z</time>
</trkpt>
<trkpt lat="57.280332" lon="9.660834">
<ele>13.853062</ele>
<time>2026-06-18T21:07:29.682Z</time>
</trkpt>
<trkpt lat="57.280589" lon="9.660910">
<ele>13.987563</ele>
<time>2026-06-18T21:07:35.797Z</time>
</trkpt>
<trkpt lat="57.281445" lon="9.661117">
<ele>14.383379</ele>
<time>2026-06-18T21:07:56.472Z</time>
</trkpt>
<trkpt lat="57.281487" lon="9.661127">
<ele>14.402795</ele>
<time>2026-06-18T21:07:57.505Z</time>
</trkpt>
<trkpt lat="57.281690" lon="9.661159">
<ele>14.496208</ele>
<time>2026-06-18T21:08:02.462Z</time>
</trkpt>
<trkpt lat="57.282311" lon="9.661275">
<ele>14.758649</ele>
<time>2026-06-18T21:08:17.744Z</time>
</trkpt>
<trkpt lat="57.283233" lon="9.661519">
<ele>14.961964</ele>
<time>2026-06-18T21:08:39.908Z</time>
</trkpt>
<trkpt lat="57.284121" lon="9.661758">
<ele>15.089647</ele>
<time>2026-06-18T21:08:59.786Z</time>
</trkpt>
<trkpt lat="57.284264" lon="9.661805">
<ele>15.044506</ele>
<time>2026-06-18T21:09:02.896Z</time>
</trkpt>
<trkpt lat="57.284607" lon="9.661918">
<ele>14.936222</ele>
<time>2026-06-18T21:09:10.262Z</time>
</trkpt>
<trkpt lat="57.284680" lon="9.661946">
<ele>14.913050</ele>
<time>2026-06-18T21:09:11.827Z</time>
</trkpt>
<trkpt lat="57.285699" lon="9.662326">
<ele>14.589968</ele>
<time>2026-06-18T21:09:33.622Z</time>
</trkpt>
<trkpt lat="57.285788" lon="9.662334">
<ele>14.583880</ele>
<time>2026-06-18T21:09:35.464Z</time>
</trkpt>
<trkpt lat="57.285973" lon="9.662167">
<ele>14.684401</ele>
<time>2026-06-18T21:09:39.713Z</time>
</trkpt>
<trkpt lat="57.286240" lon="9.661654">
<ele>14.872369</ele>
<time>2026-06-18T21:09:47.542Z</time>
</trkpt>
<trkpt lat="57.286299" lon="9.661312">
<ele>14.967117</ele>
<time>2026-06-18T21:09:51.688Z</time>
</trkpt>
<trkpt lat="57.286395" lon="9.660224">
<ele>15.258064</ele>
<time>2026-06-18T21:10:06.403Z</time>
</trkpt>
<trkpt lat="57.286502" lon="9.659894">
<ele>15.359629</ele>
<time>2026-06-18T21:10:12.157Z</time>
</trkpt>
<trkpt lat="57.286574" lon="9.659834">
<ele>15.398191</ele>
<time>2026-06-18T21:10:14.446Z</time>
</trkpt>
<trkpt lat="57.286651" lon="9.659834">
<ele>15.435793</ele>
<time>2026-06-18T21:10:16.688Z</time>
</trkpt>
<trkpt lat="57.287348" lon="9.659957">
<ele>17.199247</ele>
<time>2026-06-18T21:10:39.083Z</time>
</trkpt>
<trkpt lat="57.288595" lon="9.660260">
<ele>20.477840</ele>
<time>2026-06-18T21:11:22.155Z</time>
</trkpt>
<trkpt lat="57.289290" lon="9.660429">
<ele>22.343429</ele>
<time>2026-06-18T21:11:44.708Z</time>
</trkpt>
<trkpt lat="57.289511" lon="9.660483">
<ele>22.936708</ele>
<time>2026-06-18T21:11:51.920Z</time>
</trkpt>
<trkpt lat="57.290029" lon="9.660609">
<ele>24.327183</ele>
<time>2026-06-18T21:12:08.688Z</time>
</trkpt>
<trkpt lat="57.290432" lon="9.660641">
<ele>25.355185</ele>
<time>2026-06-18T21:12:22.556Z</time>
</trkpt>
<trkpt lat="57.290588" lon="9.660611">
<ele>25.733617</ele>
<time>2026-06-18T21:12:28.025Z</time>
</trkpt>
<trkpt lat="57.290686" lon="9.660591">
<ele>25.971510</ele>
<time>2026-06-18T21:12:31.371Z</time>
</trkpt>
<trkpt lat="57.290793" lon="9.660598">
<ele>26.229847</ele>
<time>2026-06-18T21:12:34.968Z</time>
</trkpt>
<trkpt lat="57.291175" lon="9.660786">
<ele>27.183594</ele>
<time>2026-06-18T21:12:47.720Z</time>
</trkpt>
<trkpt lat="57.291709" lon="9.660809">
<ele>28.472406</ele>
<time>2026-06-18T21:13:04.071Z</time>
</trkpt>
<trkpt lat="57.291818" lon="9.660783">
<ele>28.737582</ele>
<time>2026-06-18T21:13:07.446Z</time>
</trkpt>
<trkpt lat="57.291908" lon="9.660715">
<ele>28.972140</ele>
<time>2026-06-18T21:13:10.441Z</time>
</trkpt>
<trkpt lat="57.292067" lon="9.660336">
<ele>29.359814</ele>
<time>2026-06-18T21:13:18.526Z</time>
</trkpt>
<trkpt lat="57.292179" lon="9.660208">
<ele>29.458216</ele>
<time>2026-06-18T21:13:22.600Z</time>
</trkpt>
<trkpt lat="57.292310" lon="9.660178">
<ele>29.556890</ele>
<time>2026-06-18T21:13:26.505Z</time>
</trkpt>
<trkpt lat="57.292571" lon="9.660242">
<ele>29.753701</ele>
<time>2026-06-18T21:13:33.806Z</time>
</trkpt>
<trkpt lat="57.292746" lon="9.660381">
<ele>29.896059</ele>
<time>2026-06-18T21:13:38.628Z</time>
</trkpt>
<trkpt lat="57.292817" lon="9.660501">
<ele>29.967936</ele>
<time>2026-06-18T21:13:40.930Z</time>
</trkpt>
<trkpt lat="57.292871" lon="9.660646">
<ele>30.039069</ele>
<time>2026-06-18T21:13:43.169Z</time>
</trkpt>
<trkpt lat="57.292898" lon="9.660806">
<ele>30.106775</ele>
<time>2026-06-18T21:13:45.275Z</time>
</trkpt>
<trkpt lat="57.292893" lon="9.661096">
<ele>30.223973</ele>
<time>2026-06-18T21:13:48.925Z</time>
</trkpt>
<trkpt lat="57.292890" lon="9.661266">
<ele>30.292677</ele>
<time>2026-06-18T21:13:51.040Z</time>
</trkpt>
<trkpt lat="57.292997" lon="9.662905">
<ele>30.244793</ele>
<time>2026-06-18T21:14:09.749Z</time>
</trkpt>
<trkpt lat="57.293066" lon="9.663559">
<ele>29.982471</ele>
<time>2026-06-18T21:14:16.573Z</time>
</trkpt>
<trkpt lat="57.293186" lon="9.664184">
<ele>29.721357</ele>
<time>2026-06-18T21:14:23.540Z</time>
</trkpt>
<trkpt lat="57.293257" lon="9.664438">
<ele>29.608778</ele>
<time>2026-06-18T21:14:26.614Z</time>
</trkpt>
<trkpt lat="57.293370" lon="9.664670">
<ele>29.485818</ele>
<time>2026-06-18T21:14:30.010Z</time>
</trkpt>
<trkpt lat="57.293678" lon="9.665085">
<ele>29.241427</ele>
<time>2026-06-18T21:14:37.420Z</time>
</trkpt>
<trkpt lat="57.293760" lon="9.665262">
<ele>29.188236</ele>
<time>2026-06-18T21:14:39.874Z</time>
</trkpt>
<trkpt lat="57.293822" lon="9.665477">
<ele>29.132638</ele>
<time>2026-06-18T21:14:42.459Z</time>
</trkpt>
<trkpt lat="57.293952" lon="9.666263">
<ele>28.945109</ele>
<time>2026-06-18T21:14:51.336Z</time>
</trkpt>
<trkpt lat="57.293979" lon="9.666508">
<ele>28.888065</ele>
<time>2026-06-18T21:14:54.068Z</time>
</trkpt>
<trkpt lat="57.293982" lon="9.666800">
<ele>28.821437</ele>
<time>2026-06-18T21:14:57.266Z</time>
</trkpt>
<trkpt lat="57.293942" lon="9.667895">
<ele>28.571056</ele>
<time>2026-06-18T21:15:09.755Z</time>
</trkpt>
<trkpt lat="57.293901" lon="9.669052">
<ele>29.001187</ele>
<time>2026-06-18T21:15:24.931Z</time>
</trkpt>
<trkpt lat="57.293911" lon="9.669475">
<ele>29.207941</ele>
<time>2026-06-18T21:15:31.123Z</time>
</trkpt>
<trkpt lat="57.294169" lon="9.669362">
<ele>29.447544</ele>
<time>2026-06-18T21:15:38.275Z</time>
</trkpt>
<trkpt lat="57.294331" lon="9.669240">
<ele>29.605605</ele>
<time>2026-06-18T21:15:43.013Z</time>
</trkpt>
<trkpt lat="57.294620" lon="9.668950">
<ele>29.902703</ele>
<time>2026-06-18T21:15:52.021Z</time>
</trkpt>
<trkpt lat="57.294786" lon="9.668602">
<ele>30.129379</ele>
<time>2026-06-18T21:15:59.029Z</time>
</trkpt>
<trkpt lat="57.294961" lon="9.667772">
<ele>30.590482</ele>
<time>2026-06-18T21:16:12.063Z</time>
</trkpt>
<trkpt lat="57.295037" lon="9.667513">
<ele>30.743515</ele>
<time>2026-06-18T21:16:16.244Z</time>
</trkpt>
<trkpt lat="57.295121" lon="9.667332">
<ele>30.867404</ele>
<time>2026-06-18T21:16:19.589Z</time>
</trkpt>
<trkpt lat="57.295224" lon="9.667190">
<ele>30.990828</ele>
<time>2026-06-18T21:16:22.873Z</time>
</trkpt>
<trkpt lat="57.295300" lon="9.667085">
<ele>31.081967</ele>
<time>2026-06-18T21:16:25.307Z</time>
</trkpt>
<trkpt lat="57.295463" lon="9.666750">
<ele>31.316043</ele>
<time>2026-06-18T21:16:31.515Z</time>
</trkpt>
<trkpt lat="57.295606" lon="9.666345">
<ele>31.567249</ele>
<time>2026-06-18T21:16:38.214Z</time>
</trkpt>
<trkpt lat="57.295732" lon="9.665889">
<ele>31.833179</ele>
<time>2026-06-18T21:16:45.631Z</time>
</trkpt>
<trkpt lat="57.295967" lon="9.664656">
<ele>31.889292</ele>
<time>2026-06-18T21:17:03.367Z</time>
</trkpt>
<trkpt lat="57.296115" lon="9.664203">
<ele>31.892609</ele>
<time>2026-06-18T21:17:10.106Z</time>
</trkpt>
<trkpt lat="57.296135" lon="9.664167">
<ele>31.892933</ele>
<time>2026-06-18T21:17:10.761Z</time>
</trkpt>
<trkpt lat="57.296172" lon="9.664100">
<ele>31.893533</ele>
<time>2026-06-18T21:17:11.997Z</time>
</trkpt>
<trkpt lat="57.296954" lon="9.662830">
<ele>31.405266</ele>
<time>2026-06-18T21:17:32.878Z</time>
</trkpt>
<trkpt lat="57.297052" lon="9.662780">
<ele>31.213315</ele>
<time>2026-06-18T21:17:34.686Z</time>
</trkpt>
<trkpt lat="57.297147" lon="9.662783">
<ele>31.033905</ele>
<time>2026-06-18T21:17:36.356Z</time>
</trkpt>
<trkpt lat="57.297607" lon="9.662980">
<ele>30.142361</ele>
<time>2026-06-18T21:17:44.526Z</time>
</trkpt>
<trkpt lat="57.298964" lon="9.663500">
<ele>27.870251</ele>
<time>2026-06-18T21:18:08.406Z</time>
</trkpt>
<trkpt lat="57.299833" lon="9.663825">
<ele>26.784477</ele>
<time>2026-06-18T21:18:25.231Z</time>
</trkpt>
<trkpt lat="57.299942" lon="9.663789">
<ele>26.648876</ele>
<time>2026-06-18T21:18:27.485Z</time>
</trkpt>
<trkpt lat="57.299993" lon="9.663666">
<ele>26.546289</ele>
<time>2026-06-18T21:18:29.211Z</time>
</trkpt>
<trkpt lat="57.300155" lon="9.662394">
<ele>26.589173</ele>
<time>2026-06-18T21:18:44.567Z</time>
</trkpt>
<trkpt lat="57.300359" lon="9.660771">
<ele>27.095777</ele>
<time>2026-06-18T21:19:07.608Z</time>
</trkpt>
<trkpt lat="57.300489" lon="9.659613">
<ele>27.553924</ele>
<time>2026-06-18T21:19:24.899Z</time>
</trkpt>
<trkpt lat="57.300603" lon="9.659162">
<ele>27.812105</ele>
<time>2026-06-18T21:19:36.198Z</time>
</trkpt>
<trkpt lat="57.300728" lon="9.658821">
<ele>28.025779</ele>
<time>2026-06-18T21:19:45.561Z</time>
</trkpt>
<trkpt lat="57.300866" lon="9.658654">
<ele>28.184024</ele>
<time>2026-06-18T21:19:52.435Z</time>
</trkpt>
<trkpt lat="57.301074" lon="9.658542">
<ele>28.391936</ele>
<time>2026-06-18T21:20:01.378Z</time>
</trkpt>
<trkpt lat="57.301200" lon="9.658464">
<ele>28.519454</ele>
<time>2026-06-18T21:20:06.773Z</time>
</trkpt>
<trkpt lat="57.301392" lon="9.658281">
<ele>28.726728</ele>
<time>2026-06-18T21:20:15.393Z</time>
</trkpt>
<trkpt lat="57.301664" lon="9.657789">
<ele>29.063720</ele>
<time>2026-06-18T21:20:30.344Z</time>
</trkpt>
<trkpt lat="57.301827" lon="9.657309">
<ele>29.192203</ele>
<time>2026-06-18T21:20:42.292Z</time>
</trkpt>
<trkpt lat="57.301936" lon="9.656876">
<ele>29.300460</ele>
<time>2026-06-18T21:20:52.258Z</time>
</trkpt>
<trkpt lat="57.302078" lon="9.656313">
<ele>29.441267</ele>
<time>2026-06-18T21:21:05.164Z</time>
</trkpt>
<trkpt lat="57.302248" lon="9.655827">
<ele>29.572475</ele>
<time>2026-06-18T21:21:17.221Z</time>
</trkpt>
<trkpt lat="57.302372" lon="9.655555">
<ele>29.653130</ele>
<time>2026-06-18T21:21:24.642Z</time>
</trkpt>
<trkpt lat="57.302576" lon="9.655304">
<ele>29.755887</ele>
<time>2026-06-18T21:21:34.120Z</time>
</trkpt>
<trkpt lat="57.303022" lon="9.654834">
<ele>29.928716</ele>
<time>2026-06-18T21:21:53.868Z</time>
</trkpt>
<trkpt lat="57.303096" lon="9.654723">
<ele>29.958959</ele>
<time>2026-06-18T21:21:57.499Z</time>
</trkpt>
<trkpt lat="57.303189" lon="9.654464">
<ele>30.012304</ele>
<time>2026-06-18T21:22:03.918Z</time>
</trkpt>
<trkpt lat="57.303237" lon="9.654093">
<ele>30.077741</ele>
<time>2026-06-18T21:22:11.752Z</time>
</trkpt>
<trkpt lat="57.303240" lon="9.653730">
<ele>30.140013</ele>
<time>2026-06-18T21:22:19.205Z</time>
</trkpt>
<trkpt lat="57.303346" lon="9.652612">
<ele>30.334713</ele>
<time>2026-06-18T21:22:42.706Z</time>
</trkpt>
<trkpt lat="57.303430" lon="9.651791">
<ele>30.632366</ele>
<time>2026-06-18T21:23:00.060Z</time>
</trkpt>
<trkpt lat="57.303483" lon="9.651210">
<ele>30.874689</ele>
<time>2026-06-18T21:23:12.557Z</time>
</trkpt>
<trkpt lat="57.303557" lon="9.650615">
<ele>31.125788</ele>
<time>2026-06-18T21:23:26.009Z</time>
</trkpt>
<trkpt lat="57.303614" lon="9.650468">
<ele>31.200205</ele>
<time>2026-06-18T21:23:30.088Z</time>
</trkpt>
<trkpt lat="57.303679" lon="9.650414">
<ele>31.254446</ele>
<time>2026-06-18T21:23:33.091Z</time>
</trkpt>
<trkpt lat="57.303797" lon="9.650184">
<ele>31.384897</ele>
<time>2026-06-18T21:23:40.317Z</time>
</trkpt>
<trkpt lat="57.303854" lon="9.649775">
<ele>31.558607</ele>
<time>2026-06-18T21:23:49.973Z</time>
</trkpt>
<trkpt lat="57.303984" lon="9.648592">
<ele>31.681933</ele>
<time>2026-06-18T21:24:16.331Z</time>
</trkpt>
<trkpt lat="57.304102" lon="9.648088">
<ele>31.642855</ele>
<time>2026-06-18T21:24:27.036Z</time>
</trkpt>
<trkpt lat="57.304169" lon="9.647851">
<ele>31.623825</ele>
<time>2026-06-18T21:24:32.358Z</time>
</trkpt>
<trkpt lat="57.304450" lon="9.647753">
<ele>31.586166</ele>
<time>2026-06-18T21:24:42.991Z</time>
</trkpt>
<trkpt lat="57.304521" lon="9.647678">
<ele>31.575400</ele>
<time>2026-06-18T21:24:46.065Z</time>
</trkpt>
<trkpt lat="57.304620" lon="9.646974">
<ele>31.523648</ele>
<time>2026-06-18T21:24:59.561Z</time>
</trkpt>
<trkpt lat="57.304660" lon="9.646993">
<ele>31.518209</ele>
<time>2026-06-18T21:25:00.396Z</time>
</trkpt>
<trkpt lat="57.305133" lon="9.647186">
<ele>31.349403</ele>
<time>2026-06-18T21:25:09.368Z</time>
</trkpt>
<trkpt lat="57.305294" lon="9.647263">
<ele>31.277137</ele>
<time>2026-06-18T21:25:12.446Z</time>
</trkpt>
<trkpt lat="57.305903" lon="9.647648">
<ele>30.997467</ele>
<time>2026-06-18T21:25:25.471Z</time>
</trkpt>
<trkpt lat="57.306004" lon="9.647708">
<ele>30.951370</ele>
<time>2026-06-18T21:25:27.775Z</time>
</trkpt>
<trkpt lat="57.306394" lon="9.647997">
<ele>30.768808</ele>
<time>2026-06-18T21:25:36.921Z</time>
</trkpt>
<trkpt lat="57.306664" lon="9.648218">
<ele>30.896116</ele>
<time>2026-06-18T21:25:44.131Z</time>
</trkpt>
<trkpt lat="57.306888" lon="9.648472">
<ele>31.156513</ele>
<time>2026-06-18T21:25:51.062Z</time>
</trkpt>
<trkpt lat="57.307023" lon="9.648786">
<ele>31.371406</ele>
<time>2026-06-18T21:25:57.023Z</time>
</trkpt>
<trkpt lat="57.307192" lon="9.649379">
<ele>31.730415</ele>
<time>2026-06-18T21:26:07.235Z</time>
</trkpt>
<trkpt lat="57.307434" lon="9.649605">
<ele>31.999109</ele>
<time>2026-06-18T21:26:14.841Z</time>
</trkpt>
<trkpt lat="57.307631" lon="9.649783">
<ele>32.216416</ele>
<time>2026-06-18T21:26:20.939Z</time>
</trkpt>
<trkpt lat="57.307991" lon="9.650104">
<ele>32.457999</ele>
<time>2026-06-18T21:26:31.463Z</time>
</trkpt>
<trkpt lat="57.308150" lon="9.650303">
<ele>32.383557</ele>
<time>2026-06-18T21:26:36.093Z</time>
</trkpt>
<trkpt lat="57.308445" lon="9.650718">
<ele>32.239850</ele>
<time>2026-06-18T21:26:44.214Z</time>
</trkpt>
<trkpt lat="57.308552" lon="9.650868">
<ele>32.187793</ele>
<time>2026-06-18T21:26:47.036Z</time>
</trkpt>
<trkpt lat="57.308716" lon="9.651089">
<ele>32.109116</ele>
<time>2026-06-18T21:26:51.180Z</time>
</trkpt>
<trkpt lat="57.308921" lon="9.651391">
<ele>32.007503</ele>
<time>2026-06-18T21:26:56.340Z</time>
</trkpt>
<trkpt lat="57.309098" lon="9.651637">
<ele>31.921658</ele>
<time>2026-06-18T21:27:00.610Z</time>
</trkpt>
<trkpt lat="57.309344" lon="9.652006">
<ele>31.776504</ele>
<time>2026-06-18T21:27:06.584Z</time>
</trkpt>
<trkpt lat="57.309423" lon="9.652125">
<ele>31.558652</ele>
<time>2026-06-18T21:27:08.494Z</time>
</trkpt>
<trkpt lat="57.309675" lon="9.652583">
<ele>30.803288</ele>
<time>2026-06-18T21:27:14.969Z</time>
</trkpt>
<trkpt lat="57.309751" lon="9.653262">
<ele>30.002151</ele>
<time>2026-06-18T21:27:21.528Z</time>
</trkpt>
<trkpt lat="57.309767" lon="9.653502">
<ele>29.722768</ele>
<time>2026-06-18T21:27:23.765Z</time>
</trkpt>
<trkpt lat="57.309832" lon="9.653933">
<ele>29.205774</ele>
<time>2026-06-18T21:27:27.870Z</time>
</trkpt>
<trkpt lat="57.309889" lon="9.654129">
<ele>28.948590</ele>
<time>2026-06-18T21:27:29.924Z</time>
</trkpt>
<trkpt lat="57.309988" lon="9.654308">
<ele>28.652592</ele>
<time>2026-06-18T21:27:32.285Z</time>
</trkpt>
<trkpt lat="57.310208" lon="9.654656">
<ele>28.033631</ele>
<time>2026-06-18T21:27:37.174Z</time>
</trkpt>
<trkpt lat="57.310265" lon="9.654735">
<ele>27.860106</ele>
<time>2026-06-18T21:27:38.368Z</time>
</trkpt>
<trkpt lat="57.310420" lon="9.654889">
<ele>27.377343</ele>
<time>2026-06-18T21:27:41.272Z</time>
</trkpt>
<trkpt lat="57.310599" lon="9.655003">
<ele>26.857838</ele>
<time>2026-06-18T21:27:44.319Z</time>
</trkpt>
<trkpt lat="57.310951" lon="9.655269">
<ele>25.814434</ele>
<time>2026-06-18T21:27:50.478Z</time>
</trkpt>
<trkpt lat="57.311067" lon="9.655436">
<ele>25.411170</ele>
<time>2026-06-18T21:27:52.899Z</time>
</trkpt>
<trkpt lat="57.311145" lon="9.655616">
<ele>25.069109</ele>
<time>2026-06-18T21:27:54.964Z</time>
</trkpt>
<trkpt lat="57.311207" lon="9.655892">
<ele>24.626043</ele>
<time>2026-06-18T21:27:57.704Z</time>
</trkpt>
<trkpt lat="57.311208" lon="9.656027">
<ele>24.425926</ele>
<time>2026-06-18T21:27:58.943Z</time>
</trkpt>
<trkpt lat="57.311190" lon="9.656407">
<ele>23.860525</ele>
<time>2026-06-18T21:28:02.465Z</time>
</trkpt>
<trkpt lat="57.311177" lon="9.656585">
<ele>23.594290</ele>
<time>2026-06-18T21:28:04.137Z</time>
</trkpt>
<trkpt lat="57.311159" lon="9.656856">
<ele>23.189585</ele>
<time>2026-06-18T21:28:06.679Z</time>
</trkpt>
<trkpt lat="57.311143" lon="9.657100">
<ele>22.887342</ele>
<time>2026-06-18T21:28:08.959Z</time>
</trkpt>
<trkpt lat="57.311109" lon="9.657640">
<ele>22.338350</ele>
<time>2026-06-18T21:28:14.006Z</time>
</trkpt>
<trkpt lat="57.311101" lon="9.657762">
<ele>22.214249</ele>
<time>2026-06-18T21:28:15.145Z</time>
</trkpt>
<trkpt lat="57.311050" lon="9.658591">
<ele>21.371699</ele>
<time>2026-06-18T21:28:23.148Z</time>
</trkpt>
<trkpt lat="57.311088" lon="9.659590">
<ele>20.360396</ele>
<time>2026-06-18T21:28:33.027Z</time>
</trkpt>
<trkpt lat="57.311130" lon="9.660573">
<ele>19.433118</ele>
<time>2026-06-18T21:28:42.646Z</time>
</trkpt>
<trkpt lat="57.311225" lon="9.661462">
<ele>18.732315</ele>
<time>2026-06-18T21:28:51.484Z</time>
</trkpt>
<trkpt lat="57.311245" lon="9.661594">
<ele>18.626297</ele>
<time>2026-06-18T21:28:52.827Z</time>
</trkpt>
<trkpt lat="57.311315" lon="9.662068">
<ele>18.246291</ele>
<time>2026-06-18T21:28:57.635Z</time>
</trkpt>
<trkpt lat="57.311398" lon="9.662662">
<ele>17.771820</ele>
<time>2026-06-18T21:29:03.716Z</time>
</trkpt>
<trkpt lat="57.311391" lon="9.663355">
<ele>17.235824</ele>
<time>2026-06-18T21:29:10.876Z</time>
</trkpt>
<trkpt lat="57.311341" lon="9.664354">
<ele>16.826559</ele>
<time>2026-06-18T21:29:21.492Z</time>
</trkpt>
<trkpt lat="57.311343" lon="9.664660">
<ele>16.729466</ele>
<time>2026-06-18T21:29:24.724Z</time>
</trkpt>
<trkpt lat="57.311373" lon="9.665114">
<ele>16.584348</ele>
<time>2026-06-18T21:29:29.491Z</time>
</trkpt>
<trkpt lat="57.311441" lon="9.665465">
<ele>16.466037</ele>
<time>2026-06-18T21:29:33.444Z</time>
</trkpt>
<trkpt lat="57.311684" lon="9.666450">
<ele>16.122460</ele>
<time>2026-06-18T21:29:45.794Z</time>
</trkpt>
<trkpt lat="57.311815" lon="9.666948">
<ele>16.066235</ele>
<time>2026-06-18T21:29:52.639Z</time>
</trkpt>
<trkpt lat="57.311992" lon="9.666896">
<ele>16.121780</ele>
<time>2026-06-18T21:29:56.752Z</time>
</trkpt>
<trkpt lat="57.312479" lon="9.666753">
<ele>16.274606</ele>
<time>2026-06-18T21:30:08.019Z</time>
</trkpt>
<trkpt lat="57.312567" lon="9.666727">
<ele>16.302225</ele>
<time>2026-06-18T21:30:10.101Z</time>
</trkpt>
<trkpt lat="57.312963" lon="9.666611">
<ele>16.426487</ele>
<time>2026-06-18T21:30:19.988Z</time>
</trkpt>
<trkpt lat="57.312982" lon="9.666605">
<ele>16.432461</ele>
<time>2026-06-18T21:30:20.495Z</time>
</trkpt>
<trkpt lat="57.314377" lon="9.666262">
<ele>16.739297</ele>
<time>2026-06-18T21:30:54.307Z</time>
</trkpt>
<trkpt lat="57.314609" lon="9.666094">
<ele>16.781617</ele>
<time>2026-06-18T21:30:59.885Z</time>
</trkpt>
<trkpt lat="57.314736" lon="9.665927">
<ele>16.808080</ele>
<time>2026-06-18T21:31:03.387Z</time>
</trkpt>
<trkpt lat="57.315397" lon="9.665059">
<ele>16.540973</ele>
<time>2026-06-18T21:31:20.992Z</time>
</trkpt>
<trkpt lat="57.315603" lon="9.664894">
<ele>16.311868</ele>
<time>2026-06-18T21:31:25.555Z</time>
</trkpt>
<trkpt lat="57.315881" lon="9.664861">
<ele>16.027512</ele>
<time>2026-06-18T21:31:31.074Z</time>
</trkpt>
<trkpt lat="57.316094" lon="9.664897">
<ele>15.809185</ele>
<time>2026-06-18T21:31:35.202Z</time>
</trkpt>
<trkpt lat="57.316608" lon="9.665058">
<ele>15.277058</ele>
<time>2026-06-18T21:31:44.852Z</time>
</trkpt>
<trkpt lat="57.317097" lon="9.665136">
<ele>14.577248</ele>
<time>2026-06-18T21:31:53.450Z</time>
</trkpt>
<trkpt lat="57.317286" lon="9.665193">
<ele>14.240954</ele>
<time>2026-06-18T21:31:56.747Z</time>
</trkpt>
<trkpt lat="57.318179" lon="9.665383">
<ele>12.662350</ele>
<time>2026-06-18T21:32:12.546Z</time>
</trkpt>
<trkpt lat="57.318497" lon="9.665450">
<ele>12.100276</ele>
<time>2026-06-18T21:32:18.376Z</time>
</trkpt>
<trkpt lat="57.319056" lon="9.665565">
<ele>11.816707</ele>
<time>2026-06-18T21:32:29.337Z</time>
</trkpt>
<trkpt lat="57.319634" lon="9.665689">
<ele>11.716562</ele>
<time>2026-06-18T21:32:42.050Z</time>
</trkpt>
<trkpt lat="57.320511" lon="9.665876">
<ele>11.624756</ele>
<time>2026-06-18T21:33:02.975Z</time>
</trkpt>
<trkpt lat="57.321384" lon="9.666104">
<ele>11.952565</ele>
<time>2026-06-18T21:33:24.251Z</time>
</trkpt>
<trkpt lat="57.321443" lon="9.666120">
<ele>11.974736</ele>
<time>2026-06-18T21:33:25.659Z</time>
</trkpt>
<trkpt lat="57.321917" lon="9.666217">
<ele>12.152050</ele>
<time>2026-06-18T21:33:36.891Z</time>
</trkpt>
<trkpt lat="57.322024" lon="9.666241">
<ele>12.192126</ele>
<time>2026-06-18T21:33:39.429Z</time>
</trkpt>
<trkpt lat="57.322977" lon="9.666457">
<ele>12.062757</ele>
<time>2026-06-18T21:34:01.832Z</time>
</trkpt>
<trkpt lat="57.323143" lon="9.666494">
<ele>12.023016</ele>
<time>2026-06-18T21:34:05.584Z</time>
</trkpt>
<trkpt lat="57.323316" lon="9.666530">
<ele>11.981638</ele>
<time>2026-06-18T21:34:09.362Z</time>
</trkpt>
<trkpt lat="57.323432" lon="9.666554">
<ele>11.953895</ele>
<time>2026-06-18T21:34:11.856Z</time>
</trkpt>
<trkpt lat="57.323713" lon="9.666612">
<ele>11.886691</ele>
<time>2026-06-18T21:34:17.704Z</time>
</trkpt>
<trkpt lat="57.323762" lon="9.666622">
<ele>11.874974</ele>
<time>2026-06-18T21:34:18.679Z</time>
</trkpt>
<trkpt lat="57.323825" lon="9.666196">
<ele>11.752822</ele>
<time>2026-06-18T21:34:23.345Z</time>
</trkpt>
<trkpt lat="57.323864" lon="9.666014">
<ele>11.478861</ele>
<time>2026-06-18T21:34:25.334Z</time>
</trkpt>
<trkpt lat="57.324197" lon="9.665036">
<ele>9.861152</ele>
<time>2026-06-18T21:34:36.336Z</time>
</trkpt>
<trkpt lat="57.324181" lon="9.664956">
<ele>9.741792</ele>
<time>2026-06-18T21:34:37.085Z</time>
</trkpt>
<trkpt lat="57.324593" lon="9.663512">
<ele>7.456742</ele>
<time>2026-06-18T21:34:51.297Z</time>
</trkpt>
<trkpt lat="57.324723" lon="9.663223">
<ele>6.909851</ele>
<time>2026-06-18T21:34:54.578Z</time>
</trkpt>
<trkpt lat="57.325029" lon="9.662614">
<ele>5.643127</ele>
<time>2026-06-18T21:35:01.838Z</time>
</trkpt>
<trkpt lat="57.325134" lon="9.662404">
<ele>5.207320</ele>
<time>2026-06-18T21:35:04.349Z</time>
</trkpt>
<trkpt lat="57.325281" lon="9.662107">
<ele>4.593832</ele>
<time>2026-06-18T21:35:07.891Z</time>
</trkpt>
<trkpt lat="57.325405" lon="9.661850">
<ele>4.069030</ele>
<time>2026-06-18T21:35:10.931Z</time>
</trkpt>
<trkpt lat="57.325612" lon="9.661346">
<ele>3.104829</ele>
<time>2026-06-18T21:35:17.440Z</time>
</trkpt>
<trkpt lat="57.326016" lon="9.659689">
<ele>1.443169</ele>
<time>2026-06-18T21:35:37.047Z</time>
</trkpt>
<trkpt lat="57.327286" lon="9.661103">
<ele>0.180810</ele>
<time>2026-06-18T21:36:29.123Z</time>
</trkpt>
<trkpt lat="57.330712" lon="9.664916">
<ele>-0.000000</ele>
<time>2026-06-18T21:38:57.326Z</time>
</trkpt>
<trkpt lat="57.333412" lon="9.667922">
<ele>0.008957</ele>
<time>2026-06-18T21:40:54.048Z</time>
</trkpt>
<trkpt lat="57.336465" lon="9.671309">
<ele>0.081953</ele>
<time>2026-06-18T21:43:06.391Z</time>
</trkpt>
<trkpt lat="57.339251" lon="9.674310">
<ele>0.017870</ele>
<time>2026-06-18T21:45:05.517Z</time>
</trkpt>
<trkpt lat="57.339399" lon="9.674470">
<ele>0.015232</ele>
<time>2026-06-18T21:45:11.879Z</time>
</trkpt>
<trkpt lat="57.341285" lon="9.676502">
<ele>0.064725</ele>
<time>2026-06-18T21:46:32.933Z</time>
</trkpt>
<trkpt lat="57.342869" lon="9.678209">
<ele>0.036595</ele>
<time>2026-06-18T21:47:40.658Z</time>
</trkpt>
<trkpt lat="57.344881" lon="9.680334">
<ele>0.083322</ele>
<time>2026-06-18T21:49:06.757Z</time>
</trkpt>
<trkpt lat="57.345899" lon="9.681410">
<ele>0.120823</ele>
<time>2026-06-18T21:49:50.415Z</time>
</trkpt>
<trkpt lat="57.350685" lon="9.686183">
<ele>0.360936</ele>
<time>2026-06-18T21:53:12.792Z</time>
</trkpt>
<trkpt lat="57.351692" lon="9.687188">
<ele>0.336736</ele>
<time>2026-06-18T21:53:55.030Z</time>
</trkpt>
<trkpt lat="57.353300" lon="9.688812">
<ele>0.375304</ele>
<time>2026-06-18T21:55:03.320Z</time>
</trkpt>
<trkpt lat="57.353996" lon="9.689515">
<ele>0.296639</ele>
<time>2026-06-18T21:55:32.539Z</time>
</trkpt>
<trkpt lat="57.354928" lon="9.690349">
<ele>0.128633</ele>
<time>2026-06-18T21:56:09.806Z</time>
</trkpt>
<trkpt lat="57.355199" lon="9.690631">
<ele>0.100077</ele>
<time>2026-06-18T21:56:21.027Z</time>
</trkpt>
<trkpt lat="57.355358" lon="9.690727">
<ele>0.119584</ele>
<time>2026-06-18T21:56:27.104Z</time>
</trkpt>
<trkpt lat="57.355413" lon="9.690777">
<ele>0.126730</ele>
<time>2026-06-18T21:56:29.359Z</time>
</trkpt>
<trkpt lat="57.355483" lon="9.690847">
<ele>0.136008</ele>
<time>2026-06-18T21:56:32.249Z</time>
</trkpt>
<trkpt lat="57.356172" lon="9.691534">
<ele>0.227272</ele>
<time>2026-06-18T21:57:01.538Z</time>
</trkpt>
<trkpt lat="57.357862" lon="9.693216">
<ele>0.605927</ele>
<time>2026-06-18T21:58:15.043Z</time>
</trkpt>
<trkpt lat="57.358518" lon="9.693778">
<ele>0.796708</ele>
<time>2026-06-18T21:58:42.099Z</time>
</trkpt>
<trkpt lat="57.359120" lon="9.694266">
<ele>1.012984</ele>
<time>2026-06-18T21:59:06.976Z</time>
</trkpt>
<trkpt lat="57.360914" lon="9.695891">
<ele>1.527332</ele>
<time>2026-06-18T22:00:24.567Z</time>
</trkpt>
<trkpt lat="57.361933" lon="9.696564">
<ele>2.098662</ele>
<time>2026-06-18T22:01:03.232Z</time>
</trkpt>
<trkpt lat="57.362953" lon="9.697237">
<ele>3.422530</ele>
<time>2026-06-18T22:01:49.294Z</time>
</trkpt>
<trkpt lat="57.362809" lon="9.698146">
<ele>4.015433</ele>
<time>2026-06-18T22:02:05.867Z</time>
</trkpt>
<trkpt lat="57.362716" lon="9.698762">
<ele>4.361635</ele>
<time>2026-06-18T22:02:16.839Z</time>
</trkpt>
<trkpt lat="57.362606" lon="9.699686">
<ele>4.873753</ele>
<time>2026-06-18T22:02:32.153Z</time>
</trkpt>
<trkpt lat="57.362556" lon="9.700302">
<ele>5.210895</ele>
<time>2026-06-18T22:02:40.145Z</time>
</trkpt>
<trkpt lat="57.362517" lon="9.700999">
<ele>5.590146</ele>
<time>2026-06-18T22:02:47.742Z</time>
</trkpt>
<trkpt lat="57.362529" lon="9.701943">
<ele>5.495842</ele>
<time>2026-06-18T22:02:57.517Z</time>
</trkpt>
<trkpt lat="57.362532" lon="9.702147">
<ele>5.449605</ele>
<time>2026-06-18T22:02:59.636Z</time>
</trkpt>
<trkpt lat="57.362659" lon="9.707975">
<ele>4.554080</ele>
<time>2026-06-18T22:04:06.945Z</time>
</trkpt>
<trkpt lat="57.362676" lon="9.708477">
<ele>4.535615</ele>
<time>2026-06-18T22:04:13.019Z</time>
</trkpt>
<trkpt lat="57.362679" lon="9.708555">
<ele>4.532744</ele>
<time>2026-06-18T22:04:13.978Z</time>
</trkpt>
<trkpt lat="57.362682" lon="9.708655">
<ele>4.529068</ele>
<time>2026-06-18T22:04:15.215Z</time>
</trkpt>
<trkpt lat="57.362745" lon="9.708668">
<ele>4.524753</ele>
<time>2026-06-18T22:04:16.609Z</time>
</trkpt>
<trkpt lat="57.363053" lon="9.708736">
<ele>4.503639</ele>
<time>2026-06-18T22:04:23.473Z</time>
</trkpt>
<trkpt lat="57.363326" lon="9.708840">
<ele>4.484669</ele>
<time>2026-06-18T22:04:29.525Z</time>
</trkpt>
<trkpt lat="57.363364" lon="9.708854">
<ele>4.482031</ele>
<time>2026-06-18T22:04:30.344Z</time>
</trkpt>
<trkpt lat="57.363701" lon="9.708982">
<ele>4.458616</ele>
<time>2026-06-18T22:04:37.824Z</time>
</trkpt>
<trkpt lat="57.363751" lon="9.709001">
<ele>4.455142</ele>
<time>2026-06-18T22:04:38.952Z</time>
</trkpt>
<trkpt lat="57.364468" lon="9.709275">
<ele>4.583747</ele>
<time>2026-06-18T22:04:55.288Z</time>
</trkpt>
<trkpt lat="57.364818" lon="9.709406">
<ele>4.694811</ele>
<time>2026-06-18T22:05:03.457Z</time>
</trkpt>
<trkpt lat="57.365190" lon="9.709550">
<ele>4.813017</ele>
<time>2026-06-18T22:05:12.399Z</time>
</trkpt>
<trkpt lat="57.365625" lon="9.709715">
<ele>4.951126</ele>
<time>2026-06-18T22:05:23.405Z</time>
</trkpt>
<trkpt lat="57.366358" lon="9.709995">
<ele>5.209697</ele>
<time>2026-06-18T22:05:42.027Z</time>
</trkpt>
<trkpt lat="57.366448" lon="9.710029">
<ele>5.242204</ele>
<time>2026-06-18T22:05:44.288Z</time>
</trkpt>
<trkpt lat="57.367086" lon="9.710272">
<ele>5.472717</ele>
<time>2026-06-18T22:06:00.049Z</time>
</trkpt>
<trkpt lat="57.367166" lon="9.710302">
<ele>5.501603</ele>
<time>2026-06-18T22:06:01.958Z</time>
</trkpt>
<trkpt lat="57.367714" lon="9.710511">
<ele>5.572131</ele>
<time>2026-06-18T22:06:14.186Z</time>
</trkpt>
<trkpt lat="57.368191" lon="9.710694">
<ele>5.412651</ele>
<time>2026-06-18T22:06:24.253Z</time>
</trkpt>
<trkpt lat="57.368134" lon="9.711061">
<ele>5.345224</ele>
<time>2026-06-18T22:06:28.462Z</time>
</trkpt>
<trkpt lat="57.368116" lon="9.711199">
<ele>5.320157</ele>
<time>2026-06-18T22:06:30.039Z</time>
</trkpt>
<trkpt lat="57.368100" lon="9.711330">
<ele>5.296443</ele>
<time>2026-06-18T22:06:31.505Z</time>
</trkpt>
<trkpt lat="57.368428" lon="9.711675">
<ele>5.172983</ele>
<time>2026-06-18T22:06:39.304Z</time>
</trkpt>
<trkpt lat="57.368500" lon="9.711752">
<ele>5.145771</ele>
<time>2026-06-18T22:06:41.020Z</time>
</trkpt>
<trkpt lat="57.368781" lon="9.712162">
<ele>5.054973</ele>
<time>2026-06-18T22:06:48.454Z</time>
</trkpt>
<trkpt lat="57.368834" lon="9.712271">
<ele>5.072146</ele>
<time>2026-06-18T22:06:50.139Z</time>
</trkpt>
<trkpt lat="57.368886" lon="9.712385">
<ele>5.089617</ele>
<time>2026-06-18T22:06:51.851Z</time>
</trkpt>
<trkpt lat="57.368962" lon="9.712603">
<ele>5.119991</ele>
<time>2026-06-18T22:06:54.913Z</time>
</trkpt>
<trkpt lat="57.369140" lon="9.713182">
<ele>5.197975</ele>
<time>2026-06-18T22:07:03.609Z</time>
</trkpt>
<trkpt lat="57.369161" lon="9.713252">
<ele>5.207348</ele>
<time>2026-06-18T22:07:04.681Z</time>
</trkpt>
<trkpt lat="57.369342" lon="9.713810">
<ele>5.283540</ele>
<time>2026-06-18T22:07:13.386Z</time>
</trkpt>
<trkpt lat="57.369550" lon="9.714270">
<ele>5.353781</ele>
<time>2026-06-18T22:07:21.246Z</time>
</trkpt>
<trkpt lat="57.369699" lon="9.714575">
<ele>5.401936</ele>
<time>2026-06-18T22:07:26.839Z</time>
</trkpt>
<trkpt lat="57.369795" lon="9.714996">
<ele>5.463590</ele>
<time>2026-06-18T22:07:32.804Z</time>
</trkpt>
<trkpt lat="57.369794" lon="9.715106">
<ele>5.481562</ele>
<time>2026-06-18T22:07:34.258Z</time>
</trkpt>
<trkpt lat="57.369823" lon="9.715179">
<ele>5.496374</ele>
<time>2026-06-18T22:07:35.469Z</time>
</trkpt>
<trkpt lat="57.369869" lon="9.715212">
<ele>5.511316</ele>
<time>2026-06-18T22:07:36.671Z</time>
</trkpt>
<trkpt lat="57.369905" lon="9.715202">
<ele>5.522344</ele>
<time>2026-06-18T22:07:37.559Z</time>
</trkpt>
<trkpt lat="57.370158" lon="9.715533">
<ele>5.616145</ele>
<time>2026-06-18T22:07:45.185Z</time>
</trkpt>
<trkpt lat="57.370256" lon="9.715730">
<ele>5.659929</ele>
<time>2026-06-18T22:07:48.675Z</time>
</trkpt>
<trkpt lat="57.370615" lon="9.716444">
<ele>5.819406</ele>
<time>2026-06-18T22:08:01.091Z</time>
</trkpt>
<trkpt lat="57.370726" lon="9.716665">
<ele>5.868743</ele>
<time>2026-06-18T22:08:04.815Z</time>
</trkpt>
<trkpt lat="57.370861" lon="9.716823">
<ele>5.917105</ele>
<time>2026-06-18T22:08:08.468Z</time>
</trkpt>
<trkpt lat="57.370846" lon="9.717014">
<ele>5.948634</ele>
<time>2026-06-18T22:08:11.568Z</time>
</trkpt>
<trkpt lat="57.370923" lon="9.717175">
<ele>5.976793</ele>
<time>2026-06-18T22:08:15.030Z</time>
</trkpt>
<trkpt lat="57.371122" lon="9.717594">
<ele>5.911996</ele>
<time>2026-06-18T22:08:21.534Z</time>
</trkpt>
<trkpt lat="57.371164" lon="9.717682">
<ele>5.898358</ele>
<time>2026-06-18T22:08:22.859Z</time>
</trkpt>
<trkpt lat="57.371171" lon="9.717791">
<ele>5.885620</ele>
<time>2026-06-18T22:08:24.096Z</time>
</trkpt>
<trkpt lat="57.371165" lon="9.717878">
<ele>5.875441</ele>
<time>2026-06-18T22:08:25.073Z</time>
</trkpt>
<trkpt lat="57.371108" lon="9.718000">
<ele>5.856708</ele>
<time>2026-06-18T22:08:26.870Z</time>
</trkpt>
<trkpt lat="57.371158" lon="9.718037">
<ele>5.845122</ele>
<time>2026-06-18T22:08:27.954Z</time>
</trkpt>
<trkpt lat="57.371362" lon="9.718055">
<ele>5.801166</ele>
<time>2026-06-18T22:08:32.096Z</time>
</trkpt>
<trkpt lat="57.371566" lon="9.718074">
<ele>5.757205</ele>
<time>2026-06-18T22:08:36.283Z</time>
</trkpt>
<trkpt lat="57.372031" lon="9.718027">
<ele>5.656978</ele>
<time>2026-06-18T22:08:46.193Z</time>
</trkpt>
<trkpt lat="57.372092" lon="9.718071">
<ele>5.642891</ele>
<time>2026-06-18T22:08:47.600Z</time>
</trkpt>
<trkpt lat="57.372222" lon="9.718533">
<ele>5.598166</ele>
<time>2026-06-18T22:08:53.764Z</time>
</trkpt>
<trkpt lat="57.372314" lon="9.718522">
<ele>5.609046</ele>
<time>2026-06-18T22:08:55.863Z</time>
</trkpt>
<trkpt lat="57.372581" lon="9.718484">
<ele>5.640649</ele>
<time>2026-06-18T22:09:02.073Z</time>
</trkpt>
<trkpt lat="57.372596" lon="9.718568">
<ele>5.646279</ele>
<time>2026-06-18T22:09:03.167Z</time>
</trkpt>
<trkpt lat="57.372679" lon="9.718679">
<ele>5.658355</ele>
<time>2026-06-18T22:09:05.562Z</time>
</trkpt>
<trkpt lat="57.372666" lon="9.718793">
<ele>5.665770</ele>
<time>2026-06-18T22:09:07.005Z</time>
</trkpt>
<trkpt lat="57.372709" lon="9.718877">
<ele>5.673140</ele>
<time>2026-06-18T22:09:08.467Z</time>
</trkpt>
<trkpt lat="57.372752" lon="9.718877">
<ele>5.678215</ele>
<time>2026-06-18T22:09:09.442Z</time>
</trkpt>
<trkpt lat="57.372796" lon="9.718794">
<ele>5.685622</ele>
<time>2026-06-18T22:09:10.876Z</time>
</trkpt>
<trkpt lat="57.373289" lon="9.718773">
<ele>5.743819</ele>
<time>2026-06-18T22:09:29.685Z</time>
</trkpt>
<trkpt lat="57.373295" lon="9.718991">
<ele>5.757708</ele>
<time>2026-06-18T22:09:32.450Z</time>
</trkpt>
<trkpt lat="57.373312" lon="9.719628">
<ele>5.798290</ele>
<time>2026-06-18T22:09:40.284Z</time>
</trkpt>
<trkpt lat="57.373317" lon="9.719828">
<ele>5.794836</ele>
<time>2026-06-18T22:09:42.680Z</time>
</trkpt>
<trkpt lat="57.373322" lon="9.720063">
<ele>5.770540</ele>
<time>2026-06-18T22:09:45.468Z</time>
</trkpt>
<trkpt lat="57.373325" lon="9.720193">
<ele>5.757098</ele>
<time>2026-06-18T22:09:47.019Z</time>
</trkpt>
<trkpt lat="57.373327" lon="9.720249">
<ele>5.751300</ele>
<time>2026-06-18T22:09:47.665Z</time>
</trkpt>
<trkpt lat="57.373337" lon="9.720591">
<ele>5.715917</ele>
<time>2026-06-18T22:09:51.492Z</time>
</trkpt>
<trkpt lat="57.373339" lon="9.720645">
<ele>5.710326</ele>
<time>2026-06-18T22:09:52.092Z</time>
</trkpt>
<trkpt lat="57.373351" lon="9.721060">
<ele>5.667392</ele>
<time>2026-06-18T22:09:56.722Z</time>
</trkpt>
<trkpt lat="57.373364" lon="9.721497">
<ele>5.622178</ele>
<time>2026-06-18T22:10:01.645Z</time>
</trkpt>
<trkpt lat="57.373434" lon="9.722252">
<ele>5.543037</ele>
<time>2026-06-18T22:10:10.571Z</time>
</trkpt>
<trkpt lat="57.373467" lon="9.722525">
<ele>5.514134</ele>
<time>2026-06-18T22:10:13.920Z</time>
</trkpt>
<trkpt lat="57.373555" lon="9.723263">
<ele>5.417934</ele>
<time>2026-06-18T22:10:22.848Z</time>
</trkpt>
<trkpt lat="57.373588" lon="9.723541">
<ele>5.366489</ele>
<time>2026-06-18T22:10:26.159Z</time>
</trkpt>
<trkpt lat="57.373628" lon="9.723873">
<ele>5.305008</ele>
<time>2026-06-18T22:10:30.102Z</time>
</trkpt>
<trkpt lat="57.373700" lon="9.724415">
<ele>5.204125</ele>
<time>2026-06-18T22:10:36.488Z</time>
</trkpt>
<trkpt lat="57.373809" lon="9.724928">
<ele>5.104473</ele>
<time>2026-06-18T22:10:42.977Z</time>
</trkpt>
<trkpt lat="57.374074" lon="9.725820">
<ele>4.920414</ele>
<time>2026-06-18T22:10:54.356Z</time>
</trkpt>
<trkpt lat="57.374161" lon="9.726232">
<ele>4.843312</ele>
<time>2026-06-18T22:10:59.041Z</time>
</trkpt>
<trkpt lat="57.374171" lon="9.726359">
<ele>4.824055</ele>
<time>2026-06-18T22:11:00.374Z</time>
</trkpt>
<trkpt lat="57.374174" lon="9.726569">
<ele>4.792535</ele>
<time>2026-06-18T22:11:02.556Z</time>
</trkpt>
<trkpt lat="57.374140" lon="9.726835">
<ele>4.751517</ele>
<time>2026-06-18T22:11:05.426Z</time>
</trkpt>
<trkpt lat="57.374206" lon="9.726845">
<ele>4.733088</ele>
<time>2026-06-18T22:11:06.725Z</time>
</trkpt>
<trkpt lat="57.374737" lon="9.726908">
<ele>4.585011</ele>
<time>2026-06-18T22:11:17.489Z</time>
</trkpt>
<trkpt lat="57.375012" lon="9.726884">
<ele>4.508395</ele>
<time>2026-06-18T22:11:23.375Z</time>
</trkpt>
<trkpt lat="57.375771" lon="9.726773">
<ele>4.509604</ele>
<time>2026-06-18T22:11:41.048Z</time>
</trkpt>
<trkpt lat="57.376904" lon="9.726614">
<ele>5.311701</ele>
<time>2026-06-18T22:12:10.891Z</time>
</trkpt>
<trkpt lat="57.379040" lon="9.726313">
<ele>6.517925</ele>
<time>2026-06-18T22:13:03.244Z</time>
</trkpt>
<trkpt lat="57.379189" lon="9.726284">
<ele>6.613780</ele>
<time>2026-06-18T22:13:06.758Z</time>
</trkpt>
<trkpt lat="57.379493" lon="9.726210">
<ele>6.885577</ele>
<time>2026-06-18T22:13:13.951Z</time>
</trkpt>
<trkpt lat="57.380007" lon="9.726043">
<ele>7.348157</ele>
<time>2026-06-18T22:13:26.198Z</time>
</trkpt>
<trkpt lat="57.380947" lon="9.725651">
<ele>8.257448</ele>
<time>2026-06-18T22:13:51.882Z</time>
</trkpt>
<trkpt lat="57.380990" lon="9.725634">
<ele>8.356102</ele>
<time>2026-06-18T22:13:53.180Z</time>
</trkpt>
<trkpt lat="57.381238" lon="9.725533">
<ele>8.925837</ele>
<time>2026-06-18T22:14:01.047Z</time>
</trkpt>
<trkpt lat="57.381677" lon="9.725397">
<ele>9.924543</ele>
<time>2026-06-18T22:14:15.353Z</time>
</trkpt>
<trkpt lat="57.382179" lon="9.725322">
<ele>11.054619</ele>
<time>2026-06-18T22:14:32.364Z</time>
</trkpt>
<trkpt lat="57.382228" lon="9.725317">
<ele>11.164736</ele>
<time>2026-06-18T22:14:34.066Z</time>
</trkpt>
<trkpt lat="57.383311" lon="9.725388">
<ele>12.864812</ele>
<time>2026-06-18T22:15:07.216Z</time>
</trkpt>
<trkpt lat="57.383714" lon="9.725428">
<ele>13.295234</ele>
<time>2026-06-18T22:15:17.593Z</time>
</trkpt>
<trkpt lat="57.384650" lon="9.725518">
<ele>14.075937</ele>
<time>2026-06-18T22:15:39.650Z</time>
</trkpt>
<trkpt lat="57.385297" lon="9.725667">
<ele>13.898661</ele>
<time>2026-06-18T22:15:54.523Z</time>
</trkpt>
<trkpt lat="57.385626" lon="9.725819">
<ele>13.806471</ele>
<time>2026-06-18T22:16:02.087Z</time>
</trkpt>
<trkpt lat="57.386257" lon="9.726231">
<ele>13.599452</ele>
<time>2026-06-18T22:16:15.433Z</time>
</trkpt>
<trkpt lat="57.386285" lon="9.726257">
<ele>13.559277</ele>
<time>2026-06-18T22:16:16.034Z</time>
</trkpt>
<trkpt lat="57.386571" lon="9.726518">
<ele>13.150317</ele>
<time>2026-06-18T22:16:21.900Z</time>
</trkpt>
<trkpt lat="57.386907" lon="9.726814">
<ele>12.673061</ele>
<time>2026-06-18T22:16:28.526Z</time>
</trkpt>
<trkpt lat="57.387010" lon="9.726917">
<ele>12.522927</ele>
<time>2026-06-18T22:16:30.615Z</time>
</trkpt>
<trkpt lat="57.387103" lon="9.727010">
<ele>12.387369</ele>
<time>2026-06-18T22:16:32.534Z</time>
</trkpt>
<trkpt lat="57.387347" lon="9.727254">
<ele>12.031713</ele>
<time>2026-06-18T22:16:37.537Z</time>
</trkpt>
<trkpt lat="57.387367" lon="9.727274">
<ele>12.002560</ele>
<time>2026-06-18T22:16:37.936Z</time>
</trkpt>
<trkpt lat="57.387679" lon="9.727599">
<ele>11.543453</ele>
<time>2026-06-18T22:16:44.462Z</time>
</trkpt>
<trkpt lat="57.387852" lon="9.727780">
<ele>11.345476</ele>
<time>2026-06-18T22:16:48.295Z</time>
</trkpt>
<trkpt lat="57.388250" lon="9.728121">
<ele>11.700691</ele>
<time>2026-06-18T22:16:57.571Z</time>
</trkpt>
<trkpt lat="57.387913" lon="9.728637">
<ele>12.054728</ele>
<time>2026-06-18T22:17:15.130Z</time>
</trkpt>
<trkpt lat="57.387381" lon="9.729484">
<ele>12.622742</ele>
<time>2026-06-18T22:17:45.881Z</time>
</trkpt>
<trkpt lat="57.387310" lon="9.729722">
<ele>12.741539</ele>
<time>2026-06-18T22:17:52.488Z</time>
</trkpt>
<trkpt lat="57.387265" lon="9.730138">
<ele>12.997498</ele>
<time>2026-06-18T22:18:02.848Z</time>
</trkpt>
<trkpt lat="57.387270" lon="9.730216">
<ele>13.048410</ele>
<time>2026-06-18T22:18:04.730Z</time>
</trkpt>
<trkpt lat="57.387462" lon="9.731770">
<ele>14.081761</ele>
<time>2026-06-18T22:18:42.309Z</time>
</trkpt>
<trkpt lat="57.387561" lon="9.732564">
<ele>14.609981</ele>
<time>2026-06-18T22:19:00.010Z</time>
</trkpt>
<trkpt lat="57.387669" lon="9.733966">
<ele>14.855027</ele>
<time>2026-06-18T22:19:28.622Z</time>
</trkpt>
<trkpt lat="57.387747" lon="9.736027">
<ele>14.651171</ele>
<time>2026-06-18T22:20:08.367Z</time>
</trkpt>
<trkpt lat="57.387713" lon="9.736319">
<ele>14.621695</ele>
<time>2026-06-18T22:20:14.092Z</time>
</trkpt>
<trkpt lat="57.387652" lon="9.736401">
<ele>14.601902</ele>
<time>2026-06-18T22:20:15.821Z</time>
</trkpt>
<trkpt lat="57.387570" lon="9.736426">
<ele>14.573136</ele>
<time>2026-06-18T22:20:17.760Z</time>
</trkpt>
<trkpt lat="57.387391" lon="9.736418">
<ele>14.511155</ele>
<time>2026-06-18T22:20:21.917Z</time>
</trkpt>
<trkpt lat="57.385516" lon="9.736638">
<ele>13.543401</ele>
<time>2026-06-18T22:21:06.207Z</time>
</trkpt>
<trkpt lat="57.385419" lon="9.736699">
<ele>13.422185</ele>
<time>2026-06-18T22:21:08.588Z</time>
</trkpt>
<trkpt lat="57.385385" lon="9.736886">
<ele>13.296294</ele>
<time>2026-06-18T22:21:11.049Z</time>
</trkpt>
<trkpt lat="57.385446" lon="9.737619">
<ele>12.823175</ele>
<time>2026-06-18T22:21:19.846Z</time>
</trkpt>
<trkpt lat="57.385481" lon="9.738282">
<ele>12.398225</ele>
<time>2026-06-18T22:21:27.343Z</time>
</trkpt>
<trkpt lat="57.385401" lon="9.738516">
<ele>12.221462</ele>
<time>2026-06-18T22:21:30.372Z</time>
</trkpt>
<trkpt lat="57.384664" lon="9.739970">
<ele>10.543685</ele>
<time>2026-06-18T22:21:51.131Z</time>
</trkpt>
<trkpt lat="57.384583" lon="9.740295">
<ele>10.214291</ele>
<time>2026-06-18T22:21:54.837Z</time>
</trkpt>
<trkpt lat="57.384509" lon="9.741927">
<ele>8.794020</ele>
<time>2026-06-18T22:22:13.291Z</time>
</trkpt>
<trkpt lat="57.385682" lon="9.742045">
<ele>8.806948</ele>
<time>2026-06-18T22:22:40.800Z</time>
</trkpt>
<trkpt lat="57.387177" lon="9.742219">
<ele>9.192111</ele>
<time>2026-06-18T22:23:15.084Z</time>
</trkpt>
<trkpt lat="57.387771" lon="9.742379">
<ele>9.438131</ele>
<time>2026-06-18T22:23:29.057Z</time>
</trkpt>
<trkpt lat="57.388985" lon="9.742687">
<ele>10.902018</ele>
<time>2026-06-18T22:24:02.197Z</time>
</trkpt>
<trkpt lat="57.389261" lon="9.742706">
<ele>11.294458</ele>
<time>2026-06-18T22:24:10.608Z</time>
</trkpt>
<trkpt lat="57.389536" lon="9.742624">
<ele>11.690221</ele>
<time>2026-06-18T22:24:18.962Z</time>
</trkpt>
<trkpt lat="57.390329" lon="9.742188">
<ele>12.751628</ele>
<time>2026-06-18T22:24:42.610Z</time>
</trkpt>
<trkpt lat="57.392221" lon="9.741198">
<ele>14.726145</ele>
<time>2026-06-18T22:25:34.095Z</time>
</trkpt>
<trkpt lat="57.392237" lon="9.741189">
<ele>14.736806</ele>
<time>2026-06-18T22:25:34.506Z</time>
</trkpt>
<trkpt lat="57.394919" lon="9.739753">
<ele>15.998483</ele>
<time>2026-06-18T22:26:41.050Z</time>
</trkpt>
<trkpt lat="57.395148" lon="9.739657">
<ele>16.039355</ele>
<time>2026-06-18T22:26:46.340Z</time>
</trkpt>
<trkpt lat="57.395452" lon="9.739619">
<ele>16.063212</ele>
<time>2026-06-18T22:26:53.109Z</time>
</trkpt>
<trkpt lat="57.395917" lon="9.739743">
<ele>16.099996</ele>
<time>2026-06-18T22:27:03.513Z</time>
</trkpt>
<trkpt lat="57.396655" lon="9.740051">
<ele>16.159225</ele>
<time>2026-06-18T22:27:20.389Z</time>
</trkpt>
<trkpt lat="57.397856" lon="9.740779">
<ele>16.415071</ele>
<time>2026-06-18T22:27:49.606Z</time>
</trkpt>
<trkpt lat="57.398588" lon="9.741274">
<ele>16.594879</ele>
<time>2026-06-18T22:28:07.619Z</time>
</trkpt>
<trkpt lat="57.399585" lon="9.742082">
<ele>16.933904</ele>
<time>2026-06-18T22:28:32.681Z</time>
</trkpt>
<trkpt lat="57.400697" lon="9.742607">
<ele>17.376001</ele>
<time>2026-06-18T22:29:00.467Z</time>
</trkpt>
<trkpt lat="57.401426" lon="9.742826">
<ele>17.717635</ele>
<time>2026-06-18T22:29:18.609Z</time>
</trkpt>
<trkpt lat="57.401838" lon="9.742854">
<ele>17.908360</ele>
<time>2026-06-18T22:29:28.464Z</time>
</trkpt>
<trkpt lat="57.401888" lon="9.742858">
<ele>17.931512</ele>
<time>2026-06-18T22:29:29.642Z</time>
</trkpt>
<trkpt lat="57.402311" lon="9.742833">
<ele>18.043282</ele>
<time>2026-06-18T22:29:39.465Z</time>
</trkpt>
<trkpt lat="57.402847" lon="9.742828">
<ele>18.174348</ele>
<time>2026-06-18T22:29:51.374Z</time>
</trkpt>
<trkpt lat="57.403243" lon="9.742888">
<ele>18.271501</ele>
<time>2026-06-18T22:30:00.333Z</time>
</trkpt>
<trkpt lat="57.403405" lon="9.742929">
<ele>18.311480</ele>
<time>2026-06-18T22:30:04.150Z</time>
</trkpt>
<trkpt lat="57.403505" lon="9.742968">
<ele>18.336467</ele>
<time>2026-06-18T22:30:06.598Z</time>
</trkpt>
<trkpt lat="57.404906" lon="9.743516">
<ele>18.814438</ele>
<time>2026-06-18T22:30:42.145Z</time>
</trkpt>
<trkpt lat="57.405654" lon="9.743828">
<ele>18.884062</ele>
<time>2026-06-18T22:30:59.373Z</time>
</trkpt>
<trkpt lat="57.406980" lon="9.744325">
<ele>17.909293</ele>
<time>2026-06-18T22:31:25.900Z</time>
</trkpt>
<trkpt lat="57.408039" lon="9.744747">
<ele>17.127067</ele>
<time>2026-06-18T22:31:46.843Z</time>
</trkpt>
<trkpt lat="57.408381" lon="9.744879">
<ele>16.874616</ele>
<time>2026-06-18T22:31:53.804Z</time>
</trkpt>
<trkpt lat="57.408777" lon="9.745031">
<ele>16.582372</ele>
<time>2026-06-18T22:32:02.058Z</time>
</trkpt>
<trkpt lat="57.409751" lon="9.745407">
<ele>15.847983</ele>
<time>2026-06-18T22:32:22.890Z</time>
</trkpt>
<trkpt lat="57.409954" lon="9.745551">
<ele>15.686592</ele>
<time>2026-06-18T22:32:27.176Z</time>
</trkpt>
<trkpt lat="57.410064" lon="9.745730">
<ele>15.577961</ele>
<time>2026-06-18T22:32:29.958Z</time>
</trkpt>
<trkpt lat="57.410157" lon="9.746005">
<ele>15.448072</ele>
<time>2026-06-18T22:32:33.241Z</time>
</trkpt>
<trkpt lat="57.410609" lon="9.745848">
<ele>15.106564</ele>
<time>2026-06-18T22:32:41.902Z</time>
</trkpt>
<trkpt lat="57.410819" lon="9.745854">
<ele>15.132063</ele>
<time>2026-06-18T22:32:46.001Z</time>
</trkpt>
<trkpt lat="57.410837" lon="9.745855">
<ele>15.136627</ele>
<time>2026-06-18T22:32:46.370Z</time>
</trkpt>
<trkpt lat="57.410942" lon="9.745871">
<ele>15.163328</ele>
<time>2026-06-18T22:32:48.463Z</time>
</trkpt>
<trkpt lat="57.411037" lon="9.745887">
<ele>15.187504</ele>
<time>2026-06-18T22:32:50.426Z</time>
</trkpt>
<trkpt lat="57.411265" lon="9.746019">
<ele>15.248034</ele>
<time>2026-06-18T22:32:55.437Z</time>
</trkpt>
<trkpt lat="57.411294" lon="9.746040">
<ele>15.255923</ele>
<time>2026-06-18T22:32:56.128Z</time>
</trkpt>
<trkpt lat="57.411470" lon="9.746200">
<ele>15.305590</ele>
<time>2026-06-18T22:33:00.570Z</time>
</trkpt>
<trkpt lat="57.411516" lon="9.746244">
<ele>15.318705</ele>
<time>2026-06-18T22:33:01.783Z</time>
</trkpt>
<trkpt lat="57.411970" lon="9.746851">
<ele>15.460498</ele>
<time>2026-06-18T22:33:16.021Z</time>
</trkpt>
<trkpt lat="57.412142" lon="9.747177">
<ele>15.522793</ele>
<time>2026-06-18T22:33:22.914Z</time>
</trkpt>
<trkpt lat="57.412231" lon="9.747625">
<ele>15.683524</ele>
<time>2026-06-18T22:33:30.300Z</time>
</trkpt>
<trkpt lat="57.412259" lon="9.748502">
<ele>16.051329</ele>
<time>2026-06-18T22:33:43.336Z</time>
</trkpt>
<trkpt lat="57.412281" lon="9.748880">
<ele>16.210502</ele>
<time>2026-06-18T22:33:48.636Z</time>
</trkpt>
<trkpt lat="57.412315" lon="9.749412">
<ele>16.434789</ele>
<time>2026-06-18T22:33:55.833Z</time>
</trkpt>
<trkpt lat="57.412342" lon="9.749600">
<ele>16.516246</ele>
<time>2026-06-18T22:33:58.360Z</time>
</trkpt>
<trkpt lat="57.412400" lon="9.750005">
<ele>16.691693</ele>
<time>2026-06-18T22:34:03.564Z</time>
</trkpt>
<trkpt lat="57.412557" lon="9.750891">
<ele>16.965062</ele>
<time>2026-06-18T22:34:14.946Z</time>
</trkpt>
<trkpt lat="57.412704" lon="9.751388">
<ele>17.007094</ele>
<time>2026-06-18T22:34:21.846Z</time>
</trkpt>
<trkpt lat="57.412901" lon="9.751838">
<ele>17.050082</ele>
<time>2026-06-18T22:34:29.023Z</time>
</trkpt>
<trkpt lat="57.413179" lon="9.752327">
<ele>17.102789</ele>
<time>2026-06-18T22:34:38.040Z</time>
</trkpt>
<trkpt lat="57.413364" lon="9.752533">
<ele>17.132480</ele>
<time>2026-06-18T22:34:43.147Z</time>
</trkpt>
<trkpt lat="57.413718" lon="9.752840">
<ele>17.186256</ele>
<time>2026-06-18T22:34:52.148Z</time>
</trkpt>
<trkpt lat="57.414099" lon="9.752982">
<ele>16.885485</ele>
<time>2026-06-18T22:35:00.417Z</time>
</trkpt>
<trkpt lat="57.414590" lon="9.753137">
<ele>16.489885</ele>
<time>2026-06-18T22:35:10.295Z</time>
</trkpt>
<trkpt lat="57.415637" lon="9.753422">
<ele>15.702201</ele>
<time>2026-06-18T22:35:30.123Z</time>
</trkpt>
<trkpt lat="57.416573" lon="9.753636">
<ele>15.314969</ele>
<time>2026-06-18T22:35:48.750Z</time>
</trkpt>
<trkpt lat="57.416774" lon="9.753754">
<ele>15.228410</ele>
<time>2026-06-18T22:35:53.486Z</time>
</trkpt>
<trkpt lat="57.416902" lon="9.753884">
<ele>15.168504</ele>
<time>2026-06-18T22:35:56.901Z</time>
</trkpt>
<trkpt lat="57.417033" lon="9.754146">
<ele>15.089450</ele>
<time>2026-06-18T22:36:01.472Z</time>
</trkpt>
<trkpt lat="57.417108" lon="9.754385">
<ele>15.028284</ele>
<time>2026-06-18T22:36:05.107Z</time>
</trkpt>
<trkpt lat="57.417178" lon="9.754753">
<ele>15.078800</ele>
<time>2026-06-18T22:36:10.329Z</time>
</trkpt>
<trkpt lat="57.417242" lon="9.755425">
<ele>15.191817</ele>
<time>2026-06-18T22:36:19.377Z</time>
</trkpt>
<trkpt lat="57.417407" lon="9.756640">
<ele>15.399333</ele>
<time>2026-06-18T22:36:34.780Z</time>
</trkpt>
<trkpt lat="57.417749" lon="9.758304">
<ele>16.096985</ele>
<time>2026-06-18T22:36:56.688Z</time>
</trkpt>
<trkpt lat="57.417809" lon="9.758755">
<ele>16.430073</ele>
<time>2026-06-18T22:37:03.160Z</time>
</trkpt>
<trkpt lat="57.417833" lon="9.759404">
<ele>16.896501</ele>
<time>2026-06-18T22:37:12.878Z</time>
</trkpt>
<trkpt lat="57.417841" lon="9.760868">
<ele>17.946240</ele>
<time>2026-06-18T22:37:37.144Z</time>
</trkpt>
<trkpt lat="57.417816" lon="9.762104">
<ele>18.909046</ele>
<time>2026-06-18T22:37:57.942Z</time>
</trkpt>
<trkpt lat="57.417743" lon="9.764310">
<ele>20.589323</ele>
<time>2026-06-18T22:38:29.733Z</time>
</trkpt>
<trkpt lat="57.417654" lon="9.766736">
<ele>21.098662</ele>
<time>2026-06-18T22:39:00.741Z</time>
</trkpt>
<trkpt lat="57.417661" lon="9.767305">
<ele>21.217878</ele>
<time>2026-06-18T22:39:07.759Z</time>
</trkpt>
<trkpt lat="57.417690" lon="9.767998">
<ele>21.287249</ele>
<time>2026-06-18T22:39:16.314Z</time>
</trkpt>
<trkpt lat="57.417820" lon="9.769907">
<ele>21.350977</ele>
<time>2026-06-18T22:39:39.855Z</time>
</trkpt>
<trkpt lat="57.417857" lon="9.770477">
<ele>21.369992</ele>
<time>2026-06-18T22:39:46.837Z</time>
</trkpt>
<trkpt lat="57.418048" lon="9.773422">
<ele>20.937326</ele>
<time>2026-06-18T22:40:20.717Z</time>
</trkpt>
<trkpt lat="57.418050" lon="9.773455">
<ele>20.931530</ele>
<time>2026-06-18T22:40:21.083Z</time>
</trkpt>
<trkpt lat="57.418148" lon="9.774992">
<ele>20.666730</ele>
<time>2026-06-18T22:40:38.260Z</time>
</trkpt>
<trkpt lat="57.418246" lon="9.776530">
<ele>20.406761</ele>
<time>2026-06-18T22:40:55.528Z</time>
</trkpt>
<trkpt lat="57.418246" lon="9.776961">
<ele>20.334414</ele>
<time>2026-06-18T22:41:00.577Z</time>
</trkpt>
<trkpt lat="57.417985" lon="9.780947">
<ele>20.315900</ele>
<time>2026-06-18T22:41:48.702Z</time>
</trkpt>
<trkpt lat="57.417993" lon="9.781275">
<ele>20.400385</ele>
<time>2026-06-18T22:41:52.752Z</time>
</trkpt>
<trkpt lat="57.418096" lon="9.781862">
<ele>20.559243</ele>
<time>2026-06-18T22:42:00.614Z</time>
</trkpt>
<trkpt lat="57.418716" lon="9.781327">
<ele>20.885918</ele>
<time>2026-06-18T22:42:17.433Z</time>
</trkpt>
<trkpt lat="57.419304" lon="9.780819">
<ele>21.205925</ele>
<time>2026-06-18T22:42:33.556Z</time>
</trkpt>
<trkpt lat="57.420369" lon="9.779804">
<ele>21.895073</ele>
<time>2026-06-18T22:43:03.334Z</time>
</trkpt>
<trkpt lat="57.421050" lon="9.779047">
<ele>22.188596</ele>
<time>2026-06-18T22:43:22.390Z</time>
</trkpt>
<trkpt lat="57.421835" lon="9.778087">
<ele>22.210094</ele>
<time>2026-06-18T22:43:43.038Z</time>
</trkpt>
<trkpt lat="57.422768" lon="9.776920">
<ele>22.488743</ele>
<time>2026-06-18T22:44:07.360Z</time>
</trkpt>
<trkpt lat="57.423442" lon="9.776107">
<ele>22.869007</ele>
<time>2026-06-18T22:44:27.353Z</time>
</trkpt>
<trkpt lat="57.424158" lon="9.775348">
<ele>23.340843</ele>
<time>2026-06-18T22:44:49.005Z</time>
</trkpt>
<trkpt lat="57.424941" lon="9.774763">
<ele>23.916588</ele>
<time>2026-06-18T22:45:10.366Z</time>
</trkpt>
<trkpt lat="57.425314" lon="9.774515">
<ele>24.186854</ele>
<time>2026-06-18T22:45:19.740Z</time>
</trkpt>
<trkpt lat="57.425776" lon="9.774340">
<ele>24.413640</ele>
<time>2026-06-18T22:45:30.744Z</time>
</trkpt>
<trkpt lat="57.426577" lon="9.774116">
<ele>24.713575</ele>
<time>2026-06-18T22:45:49.908Z</time>
</trkpt>
<trkpt lat="57.427515" lon="9.773940">
<ele>25.138759</ele>
<time>2026-06-18T22:46:12.147Z</time>
</trkpt>
<trkpt lat="57.430284" lon="9.773447">
<ele>27.294557</ele>
<time>2026-06-18T22:47:22.345Z</time>
</trkpt>
<trkpt lat="57.432705" lon="9.772993">
<ele>30.120506</ele>
<time>2026-06-18T22:48:28.484Z</time>
</trkpt>
<trkpt lat="57.432780" lon="9.772984">
<ele>30.221977</ele>
<time>2026-06-18T22:48:30.535Z</time>
</trkpt>
<trkpt lat="57.432888" lon="9.772969">
<ele>30.368199</ele>
<time>2026-06-18T22:48:33.510Z</time>
</trkpt>
<trkpt lat="57.433238" lon="9.772919">
<ele>30.842141</ele>
<time>2026-06-18T22:48:43.159Z</time>
</trkpt>
<trkpt lat="57.434591" lon="9.772725">
<ele>32.625124</ele>
<time>2026-06-18T22:49:21.026Z</time>
</trkpt>
<trkpt lat="57.434875" lon="9.772633">
<ele>32.931071</ele>
<time>2026-06-18T22:49:28.886Z</time>
</trkpt>
<trkpt lat="57.435301" lon="9.772347">
<ele>33.411784</ele>
<time>2026-06-18T22:49:41.071Z</time>
</trkpt>
<trkpt lat="57.435410" lon="9.772443">
<ele>33.539802</ele>
<time>2026-06-18T22:49:44.287Z</time>
</trkpt>
<trkpt lat="57.435641" lon="9.772907">
<ele>33.900843</ele>
<time>2026-06-18T22:49:53.218Z</time>
</trkpt>
<trkpt lat="57.436439" lon="9.774550">
<ele>34.668249</ele>
<time>2026-06-18T22:50:22.849Z</time>
</trkpt>
<trkpt lat="57.436539" lon="9.774763">
<ele>34.730898</ele>
<time>2026-06-18T22:50:26.551Z</time>
</trkpt>
<trkpt lat="57.436611" lon="9.774911">
<ele>34.775118</ele>
<time>2026-06-18T22:50:29.141Z</time>
</trkpt>
<trkpt lat="57.437662" lon="9.777073">
<ele>34.989466</ele>
<time>2026-06-18T22:51:04.896Z</time>
</trkpt>
<trkpt lat="57.438092" lon="9.777957">
<ele>34.905015</ele>
<time>2026-06-18T22:51:18.305Z</time>
</trkpt>
<trkpt lat="57.438437" lon="9.778666">
<ele>34.851670</ele>
<time>2026-06-18T22:51:28.934Z</time>
</trkpt>
<trkpt lat="57.439453" lon="9.780749">
<ele>34.796895</ele>
<time>2026-06-18T22:52:02.330Z</time>
</trkpt>
<trkpt lat="57.440319" lon="9.782532">
<ele>34.918246</ele>
<time>2026-06-18T22:52:32.749Z</time>
</trkpt>
<trkpt lat="57.440909" lon="9.783744">
<ele>34.995641</ele>
<time>2026-06-18T22:52:51.926Z</time>
</trkpt>
<trkpt lat="57.441231" lon="9.784411">
<ele>35.010812</ele>
<time>2026-06-18T22:53:02.127Z</time>
</trkpt>
<trkpt lat="57.442270" lon="9.786522">
<ele>35.419071</ele>
<time>2026-06-18T22:53:37.450Z</time>
</trkpt>
<trkpt lat="57.442705" lon="9.787265">
<ele>35.898172</ele>
<time>2026-06-18T22:53:52.674Z</time>
</trkpt>
<trkpt lat="57.443122" lon="9.787899">
<ele>36.335060</ele>
<time>2026-06-18T22:54:07.240Z</time>
</trkpt>
<trkpt lat="57.443763" lon="9.788722">
<ele>36.903308</ele>
<time>2026-06-18T22:54:28.177Z</time>
</trkpt>
<trkpt lat="57.444986" lon="9.790187">
<ele>37.785841</ele>
<time>2026-06-18T22:55:03.608Z</time>
</trkpt>
<trkpt lat="57.445054" lon="9.790270">
<ele>37.794394</ele>
<time>2026-06-18T22:55:05.471Z</time>
</trkpt>
<trkpt lat="57.447605" lon="9.793327">
<ele>37.731877</ele>
<time>2026-06-18T22:56:12.800Z</time>
</trkpt>
<trkpt lat="57.448045" lon="9.793738">
<ele>37.474010</ele>
<time>2026-06-18T22:56:23.019Z</time>
</trkpt>
<trkpt lat="57.448380" lon="9.793995">
<ele>37.138706</ele>
<time>2026-06-18T22:56:30.217Z</time>
</trkpt>
<trkpt lat="57.448895" lon="9.794287">
<ele>36.640556</ele>
<time>2026-06-18T22:56:40.515Z</time>
</trkpt>
<trkpt lat="57.449805" lon="9.794776">
<ele>35.701766</ele>
<time>2026-06-18T22:56:58.352Z</time>
</trkpt>
<trkpt lat="57.450931" lon="9.795381">
<ele>34.364802</ele>
<time>2026-06-18T22:57:20.613Z</time>
</trkpt>
<trkpt lat="57.450993" lon="9.795418">
<ele>34.290526</ele>
<time>2026-06-18T22:57:21.884Z</time>
</trkpt>
<trkpt lat="57.451046" lon="9.795448">
<ele>34.227330</ele>
<time>2026-06-18T22:57:22.955Z</time>
</trkpt>
<trkpt lat="57.451553" lon="9.795720">
<ele>33.563358</ele>
<time>2026-06-18T22:57:33.163Z</time>
</trkpt>
<trkpt lat="57.452595" lon="9.796275">
<ele>32.110850</ele>
<time>2026-06-18T22:57:53.345Z</time>
</trkpt>
<trkpt lat="57.453336" lon="9.796614">
<ele>31.013036</ele>
<time>2026-06-18T22:58:07.104Z</time>
</trkpt>
<trkpt lat="57.453965" lon="9.796814">
<ele>30.024449</ele>
<time>2026-06-18T22:58:18.541Z</time>
</trkpt>
<trkpt lat="57.454690" lon="9.796994">
<ele>28.891321</ele>
<time>2026-06-18T22:58:32.076Z</time>
</trkpt>
<trkpt lat="57.455416" lon="9.797097">
<ele>28.234025</ele>
<time>2026-06-18T22:58:46.039Z</time>
</trkpt>
<trkpt lat="57.456034" lon="9.797126">
<ele>27.718075</ele>
<time>2026-06-18T22:58:58.278Z</time>
</trkpt>
<trkpt lat="57.458816" lon="9.797072">
<ele>25.830857</ele>
<time>2026-06-18T22:59:54.827Z</time>
</trkpt>
<trkpt lat="57.459236" lon="9.797068">
<ele>25.516335</ele>
<time>2026-06-18T23:00:03.112Z</time>
</trkpt>
<trkpt lat="57.460398" lon="9.797040">
<ele>24.582156</ele>
<time>2026-06-18T23:00:25.892Z</time>
</trkpt>
<trkpt lat="57.461109" lon="9.797020">
<ele>23.864239</ele>
<time>2026-06-18T23:00:40.027Z</time>
</trkpt>
<trkpt lat="57.461572" lon="9.797014">
<ele>23.396776</ele>
<time>2026-06-18T23:00:49.026Z</time>
</trkpt>
<trkpt lat="57.463479" lon="9.796908">
<ele>20.807708</ele>
<time>2026-06-18T23:01:24.161Z</time>
</trkpt>
<trkpt lat="57.463499" lon="9.796907">
<ele>20.778832</ele>
<time>2026-06-18T23:01:24.532Z</time>
</trkpt>
<trkpt lat="57.464445" lon="9.796906">
<ele>19.425142</ele>
<time>2026-06-18T23:01:41.869Z</time>
</trkpt>
<trkpt lat="57.464646" lon="9.796921">
<ele>19.138178</ele>
<time>2026-06-18T23:01:45.588Z</time>
</trkpt>
<trkpt lat="57.465149" lon="9.796980">
<ele>18.419207</ele>
<time>2026-06-18T23:01:54.762Z</time>
</trkpt>
<trkpt lat="57.465647" lon="9.797031">
<ele>17.767430</ele>
<time>2026-06-18T23:02:04.027Z</time>
</trkpt>
<trkpt lat="57.465948" lon="9.797071">
<ele>17.515098</ele>
<time>2026-06-18T23:02:09.874Z</time>
</trkpt>
<trkpt lat="57.466048" lon="9.797078">
<ele>17.431420</ele>
<time>2026-06-18T23:02:11.847Z</time>
</trkpt>
<trkpt lat="57.466144" lon="9.797080">
<ele>17.351142</ele>
<time>2026-06-18T23:02:13.714Z</time>
</trkpt>
<trkpt lat="57.466264" lon="9.797087">
<ele>17.250751</ele>
<time>2026-06-18T23:02:16.101Z</time>
</trkpt>
<trkpt lat="57.466326" lon="9.797082">
<ele>17.198859</ele>
<time>2026-06-18T23:02:17.335Z</time>
</trkpt>
<trkpt lat="57.466976" lon="9.797015">
<ele>16.654508</ele>
<time>2026-06-18T23:02:30.359Z</time>
</trkpt>
<trkpt lat="57.467420" lon="9.796931">
<ele>16.286718</ele>
<time>2026-06-18T23:02:39.392Z</time>
</trkpt>
<trkpt lat="57.467781" lon="9.796778">
<ele>16.002139</ele>
<time>2026-06-18T23:02:46.836Z</time>
</trkpt>
<trkpt lat="57.468659" lon="9.796395">
<ele>15.308994</ele>
<time>2026-06-18T23:03:04.353Z</time>
</trkpt>
<trkpt lat="57.469038" lon="9.796292">
<ele>15.014602</ele>
<time>2026-06-18T23:03:12.195Z</time>
</trkpt>
<trkpt lat="57.469364" lon="9.796247">
<ele>14.823144</ele>
<time>2026-06-18T23:03:18.860Z</time>
</trkpt>
<trkpt lat="57.469502" lon="9.796280">
<ele>14.747822</ele>
<time>2026-06-18T23:03:21.619Z</time>
</trkpt>
<trkpt lat="57.469955" lon="9.796606">
<ele>14.484867</ele>
<time>2026-06-18T23:03:31.348Z</time>
</trkpt>
<trkpt lat="57.470137" lon="9.796683">
<ele>14.383823</ele>
<time>2026-06-18T23:03:35.085Z</time>
</trkpt>
<trkpt lat="57.470520" lon="9.796735">
<ele>14.175933</ele>
<time>2026-06-18T23:03:43.083Z</time>
</trkpt>
<trkpt lat="57.470534" lon="9.796738">
<ele>14.168304</ele>
<time>2026-06-18T23:03:43.399Z</time>
</trkpt>
<trkpt lat="57.470815" lon="9.796781">
<ele>14.015669</ele>
<time>2026-06-18T23:03:49.457Z</time>
</trkpt>
<trkpt lat="57.471063" lon="9.796840">
<ele>13.870657</ele>
<time>2026-06-18T23:03:54.821Z</time>
</trkpt>
<trkpt lat="57.471466" lon="9.797005">
<ele>13.627919</ele>
<time>2026-06-18T23:04:03.175Z</time>
</trkpt>
<trkpt lat="57.471824" lon="9.797121">
<ele>13.414156</ele>
<time>2026-06-18T23:04:10.600Z</time>
</trkpt>
<trkpt lat="57.471947" lon="9.797159">
<ele>13.340811</ele>
<time>2026-06-18T23:04:13.117Z</time>
</trkpt>
<trkpt lat="57.472013" lon="9.797181">
<ele>13.301368</ele>
<time>2026-06-18T23:04:14.415Z</time>
</trkpt>
<trkpt lat="57.472064" lon="9.797195">
<ele>13.271043</ele>
<time>2026-06-18T23:04:15.423Z</time>
</trkpt>
<trkpt lat="57.472164" lon="9.797217">
<ele>13.211809</ele>
<time>2026-06-18T23:04:17.338Z</time>
</trkpt>
<trkpt lat="57.472405" lon="9.797269">
<ele>13.069092</ele>
<time>2026-06-18T23:04:21.940Z</time>
</trkpt>
<trkpt lat="57.472538" lon="9.797267">
<ele>12.990853</ele>
<time>2026-06-18T23:04:24.469Z</time>
</trkpt>
<trkpt lat="57.472629" lon="9.797259">
<ele>12.937263</ele>
<time>2026-06-18T23:04:26.229Z</time>
</trkpt>
<trkpt lat="57.472929" lon="9.797318">
<ele>13.730894</ele>
<time>2026-06-18T23:04:32.224Z</time>
</trkpt>
<trkpt lat="57.473077" lon="9.797392">
<ele>14.143741</ele>
<time>2026-06-18T23:04:35.668Z</time>
</trkpt>
<trkpt lat="57.473288" lon="9.797530">
<ele>14.746266</ele>
<time>2026-06-18T23:04:41.542Z</time>
</trkpt>
<trkpt lat="57.473340" lon="9.797562">
<ele>14.893815</ele>
<time>2026-06-18T23:04:43.160Z</time>
</trkpt>
<trkpt lat="57.473360" lon="9.797572">
<ele>14.949606</ele>
<time>2026-06-18T23:04:43.798Z</time>
</trkpt>
<trkpt lat="57.473543" lon="9.797597">
<ele>15.443908</ele>
<time>2026-06-18T23:04:49.641Z</time>
</trkpt>
<trkpt lat="57.473814" lon="9.797436">
<ele>16.210283</ele>
<time>2026-06-18T23:05:00.295Z</time>
</trkpt>
<trkpt lat="57.473872" lon="9.797848">
<ele>16.827155</ele>
<time>2026-06-18T23:05:09.593Z</time>
</trkpt>
<trkpt lat="57.473922" lon="9.798282">
<ele>17.470046</ele>
<time>2026-06-18T23:05:20.398Z</time>
</trkpt>
<trkpt lat="57.473957" lon="9.798579">
<ele>17.983508</ele>
<time>2026-06-18T23:05:28.304Z</time>
</trkpt>
<trkpt lat="57.473981" lon="9.799287">
<ele>19.582754</ele>
<time>2026-06-18T23:05:46.831Z</time>
</trkpt>
<trkpt lat="57.473926" lon="9.800043">
<ele>21.302570</ele>
<time>2026-06-18T23:06:05.862Z</time>
</trkpt>
<trkpt lat="57.473861" lon="9.800493">
<ele>22.352997</ele>
<time>2026-06-18T23:06:15.956Z</time>
</trkpt>
<trkpt lat="57.473834" lon="9.800705">
<ele>22.844144</ele>
<time>2026-06-18T23:06:20.265Z</time>
</trkpt>
<trkpt lat="57.473768" lon="9.801148">
<ele>23.880452</ele>
<time>2026-06-18T23:06:28.693Z</time>
</trkpt>
<trkpt lat="57.473725" lon="9.801538">
<ele>24.777947</ele>
<time>2026-06-18T23:06:35.202Z</time>
</trkpt>
<trkpt lat="57.473698" lon="9.802103">
<ele>25.380677</ele>
<time>2026-06-18T23:06:43.426Z</time>
</trkpt>
<trkpt lat="57.473742" lon="9.802701">
<ele>25.492224</ele>
<time>2026-06-18T23:06:51.076Z</time>
</trkpt>
<trkpt lat="57.473757" lon="9.802828">
<ele>25.516254</ele>
<time>2026-06-18T23:06:52.644Z</time>
</trkpt>
<trkpt lat="57.473802" lon="9.803213">
<ele>25.589068</ele>
<time>2026-06-18T23:06:57.339Z</time>
</trkpt>
<trkpt lat="57.473910" lon="9.804058">
<ele>25.749583</ele>
<time>2026-06-18T23:07:07.584Z</time>
</trkpt>
<trkpt lat="57.473962" lon="9.804526">
<ele>25.837901</ele>
<time>2026-06-18T23:07:13.178Z</time>
</trkpt>
<trkpt lat="57.473983" lon="9.804723">
<ele>25.875017</ele>
<time>2026-06-18T23:07:15.528Z</time>
</trkpt>
<trkpt lat="57.474146" lon="9.805977">
<ele>25.918448</ele>
<time>2026-06-18T23:07:30.554Z</time>
</trkpt>
<trkpt lat="57.474158" lon="9.806054">
<ele>25.916748</ele>
<time>2026-06-18T23:07:31.526Z</time>
</trkpt>
<trkpt lat="57.474248" lon="9.806803">
<ele>25.900465</ele>
<time>2026-06-18T23:07:40.780Z</time>
</trkpt>
<trkpt lat="57.475358" lon="9.806294">
<ele>25.665968</ele>
<time>2026-06-18T23:08:06.336Z</time>
</trkpt>
<trkpt lat="57.475640" lon="9.806248">
<ele>25.481438</ele>
<time>2026-06-18T23:08:12.398Z</time>
</trkpt>
<trkpt lat="57.475786" lon="9.806243">
<ele>25.386250</ele>
<time>2026-06-18T23:08:15.441Z</time>
</trkpt>
<trkpt lat="57.477703" lon="9.806074">
<ele>23.856799</ele>
<time>2026-06-18T23:08:52.289Z</time>
</trkpt>
<trkpt lat="57.478653" lon="9.805993">
<ele>22.924494</ele>
<time>2026-06-18T23:09:10.814Z</time>
</trkpt>
<trkpt lat="57.478863" lon="9.805993">
<ele>22.643007</ele>
<time>2026-06-18T23:09:14.951Z</time>
</trkpt>
<trkpt lat="57.479184" lon="9.806067">
<ele>22.209442</ele>
<time>2026-06-18T23:09:21.358Z</time>
</trkpt>
<trkpt lat="57.479230" lon="9.806088">
<ele>22.145953</ele>
<time>2026-06-18T23:09:22.311Z</time>
</trkpt>
<trkpt lat="57.479554" lon="9.806244">
<ele>21.697346</ele>
<time>2026-06-18T23:09:28.952Z</time>
</trkpt>
<trkpt lat="57.479910" lon="9.806346">
<ele>21.214531</ele>
<time>2026-06-18T23:09:35.917Z</time>
</trkpt>
<trkpt lat="57.480148" lon="9.806302">
<ele>20.893941</ele>
<time>2026-06-18T23:09:40.437Z</time>
</trkpt>
<trkpt lat="57.480573" lon="9.806091">
<ele>19.824593</ele>
<time>2026-06-18T23:09:48.221Z</time>
</trkpt>
<trkpt lat="57.480968" lon="9.805791">
<ele>18.029468</ele>
<time>2026-06-18T23:09:54.774Z</time>
</trkpt>
<trkpt lat="57.481448" lon="9.805141">
<ele>15.531448</ele>
<time>2026-06-18T23:10:03.738Z</time>
</trkpt>
<trkpt lat="57.481750" lon="9.804729">
<ele>13.955725</ele>
<time>2026-06-18T23:10:09.376Z</time>
</trkpt>
<trkpt lat="57.481766" lon="9.804706">
<ele>13.870648</ele>
<time>2026-06-18T23:10:09.673Z</time>
</trkpt>
<trkpt lat="57.481894" lon="9.804611">
<ele>13.290814</ele>
<time>2026-06-18T23:10:11.767Z</time>
</trkpt>
<trkpt lat="57.481939" lon="9.804616">
<ele>13.101142</ele>
<time>2026-06-18T23:10:12.453Z</time>
</trkpt>
<trkpt lat="57.482005" lon="9.804705">
<ele>12.863351</ele>
<time>2026-06-18T23:10:13.717Z</time>
</trkpt>
<trkpt lat="57.482137" lon="9.805164">
<ele>12.296745</ele>
<time>2026-06-18T23:10:18.048Z</time>
</trkpt>
<trkpt lat="57.482356" lon="9.805762">
<ele>11.509151</ele>
<time>2026-06-18T23:10:24.238Z</time>
</trkpt>
<trkpt lat="57.482394" lon="9.806075">
<ele>11.159883</ele>
<time>2026-06-18T23:10:27.364Z</time>
</trkpt>
<trkpt lat="57.482411" lon="9.806363">
<ele>10.844523</ele>
<time>2026-06-18T23:10:30.606Z</time>
</trkpt>
<trkpt lat="57.482416" lon="9.806816">
<ele>10.351349</ele>
<time>2026-06-18T23:10:36.028Z</time>
</trkpt>
<trkpt lat="57.482426" lon="9.807145">
<ele>9.992675</ele>
<time>2026-06-18T23:10:39.624Z</time>
</trkpt>
<trkpt lat="57.482463" lon="9.807447">
<ele>9.655532</ele>
<time>2026-06-18T23:10:42.919Z</time>
</trkpt>
<trkpt lat="57.482582" lon="9.808201">
<ele>9.254246</ele>
<time>2026-06-18T23:10:51.865Z</time>
</trkpt>
<trkpt lat="57.482587" lon="9.808465">
<ele>9.218352</ele>
<time>2026-06-18T23:10:55.053Z</time>
</trkpt>
<trkpt lat="57.482658" lon="9.808889">
<ele>9.158009</ele>
<time>2026-06-18T23:11:00.408Z</time>
</trkpt>
<trkpt lat="57.482703" lon="9.809194">
<ele>9.115034</ele>
<time>2026-06-18T23:11:04.197Z</time>
</trkpt>
<trkpt lat="57.482745" lon="9.809499">
<ele>9.072253</ele>
<time>2026-06-18T23:11:07.940Z</time>
</trkpt>
<trkpt lat="57.482779" lon="9.809694">
<ele>9.044398</ele>
<time>2026-06-18T23:11:10.369Z</time>
</trkpt>
<trkpt lat="57.482878" lon="9.809992">
<ele>8.996798</ele>
<time>2026-06-18T23:11:14.357Z</time>
</trkpt>
<trkpt lat="57.482996" lon="9.810264">
<ele>8.949305</ele>
<time>2026-06-18T23:11:18.201Z</time>
</trkpt>
<trkpt lat="57.483197" lon="9.810896">
<ele>8.846904</ele>
<time>2026-06-18T23:11:26.087Z</time>
</trkpt>
<trkpt lat="57.483306" lon="9.811110">
<ele>8.799768</ele>
<time>2026-06-18T23:11:29.313Z</time>
</trkpt>
<trkpt lat="57.483410" lon="9.811197">
<ele>8.765851</ele>
<time>2026-06-18T23:11:31.727Z</time>
</trkpt>
<trkpt lat="57.483638" lon="9.811293">
<ele>8.696320</ele>
<time>2026-06-18T23:11:36.918Z</time>
</trkpt>
<trkpt lat="57.483739" lon="9.811427">
<ele>8.659421</ele>
<time>2026-06-18T23:11:39.793Z</time>
</trkpt>
<trkpt lat="57.483770" lon="9.811885">
<ele>8.585616</ele>
<time>2026-06-18T23:11:45.394Z</time>
</trkpt>
<trkpt lat="57.483763" lon="9.812187">
<ele>8.537286</ele>
<time>2026-06-18T23:11:48.785Z</time>
</trkpt>
<trkpt lat="57.483666" lon="9.812600">
<ele>8.465225</ele>
<time>2026-06-18T23:11:53.670Z</time>
</trkpt>
<trkpt lat="57.483567" lon="9.813268">
<ele>8.354437</ele>
<time>2026-06-18T23:12:01.187Z</time>
</trkpt>
<trkpt lat="57.483532" lon="9.813543">
<ele>8.314319</ele>
<time>2026-06-18T23:12:04.398Z</time>
</trkpt>
<trkpt lat="57.483605" lon="9.813811">
<ele>8.278371</ele>
<time>2026-06-18T23:12:07.955Z</time>
</trkpt>
<trkpt lat="57.483729" lon="9.814146">
<ele>8.229706</ele>
<time>2026-06-18T23:12:12.940Z</time>
</trkpt>
<trkpt lat="57.483855" lon="9.814795">
<ele>8.147146</ele>
<time>2026-06-18T23:12:21.197Z</time>
</trkpt>
<trkpt lat="57.483878" lon="9.814878">
<ele>8.135973</ele>
<time>2026-06-18T23:12:22.246Z</time>
</trkpt>
<trkpt lat="57.483944" lon="9.814967">
<ele>8.117829</ele>
<time>2026-06-18T23:12:23.936Z</time>
</trkpt>
<trkpt lat="57.484127" lon="9.815019">
<ele>8.076624</ele>
<time>2026-06-18T23:12:27.732Z</time>
</trkpt>
<trkpt lat="57.484220" lon="9.815205">
<ele>8.046231</ele>
<time>2026-06-18T23:12:30.441Z</time>
</trkpt>
<trkpt lat="57.484269" lon="9.815418">
<ele>8.018511</ele>
<time>2026-06-18T23:12:32.991Z</time>
</trkpt>
<trkpt lat="57.484342" lon="9.815610">
<ele>7.990373</ele>
<time>2026-06-18T23:12:35.681Z</time>
</trkpt>
<trkpt lat="57.484444" lon="9.815761">
<ele>7.961359</ele>
<time>2026-06-18T23:12:38.625Z</time>
</trkpt>
<trkpt lat="57.484595" lon="9.815857">
<ele>7.928621</ele>
<time>2026-06-18T23:12:42.257Z</time>
</trkpt>
<trkpt lat="57.484731" lon="9.816164">
<ele>7.922446</ele>
<time>2026-06-18T23:12:47.067Z</time>
</trkpt>
<trkpt lat="57.484792" lon="9.816531">
<ele>7.916483</ele>
<time>2026-06-18T23:12:51.555Z</time>
</trkpt>
<trkpt lat="57.484931" lon="9.817048">
<ele>7.907510</ele>
<time>2026-06-18T23:12:58.071Z</time>
</trkpt>
<trkpt lat="57.485096" lon="9.817343">
<ele>7.900902</ele>
<time>2026-06-18T23:13:02.890Z</time>
</trkpt>
<trkpt lat="57.485274" lon="9.817488">
<ele>7.895291</ele>
<time>2026-06-18T23:13:07.229Z</time>
</trkpt>
<trkpt lat="57.485560" lon="9.817677">
<ele>7.886526</ele>
<time>2026-06-18T23:13:14.381Z</time>
</trkpt>
<trkpt lat="57.485788" lon="9.817993">
<ele>7.878316</ele>
<time>2026-06-18T23:13:21.010Z</time>
</trkpt>
<trkpt lat="57.485911" lon="9.818235">
<ele>7.921330</ele>
<time>2026-06-18T23:13:25.258Z</time>
</trkpt>
<trkpt lat="57.486008" lon="9.818513">
<ele>7.978950</ele>
<time>2026-06-18T23:13:29.365Z</time>
</trkpt>
<trkpt lat="57.486040" lon="9.818666">
<ele>8.007491</ele>
<time>2026-06-18T23:13:31.357Z</time>
</trkpt>
<trkpt lat="57.486067" lon="9.819016">
<ele>8.068960</ele>
<time>2026-06-18T23:13:35.608Z</time>
</trkpt>
<trkpt lat="57.486158" lon="9.819304">
<ele>8.127038</ele>
<time>2026-06-18T23:13:39.796Z</time>
</trkpt>
<trkpt lat="57.486305" lon="9.819582">
<ele>8.194833</ele>
<time>2026-06-18T23:13:44.874Z</time>
</trkpt>
<trkpt lat="57.486379" lon="9.819917">
<ele>8.257797</ele>
<time>2026-06-18T23:13:49.768Z</time>
</trkpt>
<trkpt lat="57.486426" lon="9.820207">
<ele>8.310454</ele>
<time>2026-06-18T23:13:53.787Z</time>
</trkpt>
<trkpt lat="57.486435" lon="9.820325">
<ele>8.331173</ele>
<time>2026-06-18T23:13:55.313Z</time>
</trkpt>
<trkpt lat="57.486450" lon="9.820527">
<ele>8.366623</ele>
<time>2026-06-18T23:13:57.926Z</time>
</trkpt>
<trkpt lat="57.486448" lon="9.820744">
<ele>8.404353</ele>
<time>2026-06-18T23:14:00.597Z</time>
</trkpt>
<trkpt lat="57.486427" lon="9.821039">
<ele>8.456085</ele>
<time>2026-06-18T23:14:04.178Z</time>
</trkpt>
<trkpt lat="57.486413" lon="9.821332">
<ele>8.556622</ele>
<time>2026-06-18T23:14:07.694Z</time>
</trkpt>
<trkpt lat="57.486431" lon="9.821504">
<ele>8.618184</ele>
<time>2026-06-18T23:14:09.855Z</time>
</trkpt>
<trkpt lat="57.486568" lon="9.822089">
<ele>8.842367</ele>
<time>2026-06-18T23:14:17.894Z</time>
</trkpt>
<trkpt lat="57.486633" lon="9.822570">
<ele>9.016611</ele>
<time>2026-06-18T23:14:24.214Z</time>
</trkpt>
<trkpt lat="57.486659" lon="9.822940">
<ele>9.147705</ele>
<time>2026-06-18T23:14:29.158Z</time>
</trkpt>
<trkpt lat="57.486720" lon="9.823176">
<ele>9.239705</ele>
<time>2026-06-18T23:14:32.817Z</time>
</trkpt>
<trkpt lat="57.486655" lon="9.823425">
<ele>9.336955</ele>
<time>2026-06-18T23:14:36.790Z</time>
</trkpt>
<trkpt lat="57.486655" lon="9.823637">
<ele>9.411434</ele>
<time>2026-06-18T23:14:39.920Z</time>
</trkpt>
<trkpt lat="57.486754" lon="9.823817">
<ele>9.501912</ele>
<time>2026-06-18T23:14:43.685Z</time>
</trkpt>
<trkpt lat="57.486920" lon="9.824542">
<ele>9.745094</ele>
<time>2026-06-18T23:14:55.173Z</time>
</trkpt>
<trkpt lat="57.486485" lon="9.824894">
<ele>9.982802</ele>
<time>2026-06-18T23:15:07.617Z</time>
</trkpt>
<trkpt lat="57.486459" lon="9.825034">
<ele>10.022697</ele>
<time>2026-06-18T23:15:09.608Z</time>
</trkpt>
<trkpt lat="57.486533" lon="9.825302">
<ele>10.103849</ele>
<time>2026-06-18T23:15:13.557Z</time>
</trkpt>
<trkpt lat="57.487042" lon="9.826654">
<ele>10.520857</ele>
<time>2026-06-18T23:15:33.884Z</time>
</trkpt>
<trkpt lat="57.487690" lon="9.828269">
<ele>9.881121</ele>
<time>2026-06-18T23:15:55.682Z</time>
</trkpt>
<trkpt lat="57.488329" lon="9.829502">
<ele>9.243933</ele>
<time>2026-06-18T23:16:14.030Z</time>
</trkpt>
<trkpt lat="57.488422" lon="9.829558">
<ele>9.146546</ele>
<time>2026-06-18T23:16:15.961Z</time>
</trkpt>
<trkpt lat="57.488516" lon="9.829557">
<ele>9.052893</ele>
<time>2026-06-18T23:16:17.810Z</time>
</trkpt>
<trkpt lat="57.488596" lon="9.829488">
<ele>8.965041</ele>
<time>2026-06-18T23:16:19.555Z</time>
</trkpt>
<trkpt lat="57.489120" lon="9.828606">
<ele>8.261052</ele>
<time>2026-06-18T23:16:33.244Z</time>
</trkpt>
<trkpt lat="57.489893" lon="9.827224">
<ele>7.082787</ele>
<time>2026-06-18T23:16:53.376Z</time>
</trkpt>
<trkpt lat="57.490698" lon="9.825822">
<ele>5.736417</ele>
<time>2026-06-18T23:17:13.993Z</time>
</trkpt>
<trkpt lat="57.491217" lon="9.824762">
<ele>5.175836</ele>
<time>2026-06-18T23:17:28.891Z</time>
</trkpt>
<trkpt lat="57.491360" lon="9.824641">
<ele>5.089790</ele>
<time>2026-06-18T23:17:32.069Z</time>
</trkpt>
<trkpt lat="57.491411" lon="9.824653">
<ele>5.061633</ele>
<time>2026-06-18T23:17:33.098Z</time>
</trkpt>
<trkpt lat="57.491575" lon="9.824816">
<ele>4.959792</ele>
<time>2026-06-18T23:17:36.912Z</time>
</trkpt>
<trkpt lat="57.491725" lon="9.825055">
<ele>4.851625</ele>
<time>2026-06-18T23:17:41.010Z</time>
</trkpt>
<trkpt lat="57.492071" lon="9.825670">
<ele>4.589536</ele>
<time>2026-06-18T23:17:51.048Z</time>
</trkpt>
<trkpt lat="57.492700" lon="9.826802">
<ele>4.761752</ele>
<time>2026-06-18T23:18:10.897Z</time>
</trkpt>
<trkpt lat="57.492744" lon="9.827008">
<ele>4.805539</ele>
<time>2026-06-18T23:18:13.716Z</time>
</trkpt>
<trkpt lat="57.492760" lon="9.827651">
<ele>4.932687</ele>
<time>2026-06-18T23:18:21.955Z</time>
</trkpt>
<trkpt lat="57.492841" lon="9.828395">
<ele>5.082634</ele>
<time>2026-06-18T23:18:31.983Z</time>
</trkpt>
<trkpt lat="57.492822" lon="9.828644">
<ele>5.132312</ele>
<time>2026-06-18T23:18:35.383Z</time>
</trkpt>
<trkpt lat="57.492641" lon="9.828959">
<ele>5.330201</ele>
<time>2026-06-18T23:18:41.792Z</time>
</trkpt>
<trkpt lat="57.492607" lon="9.829013">
<ele>5.374854</ele>
<time>2026-06-18T23:18:42.957Z</time>
</trkpt>
<trkpt lat="57.492007" lon="9.829928">
<ele>6.149780</ele>
<time>2026-06-18T23:19:03.597Z</time>
</trkpt>
<trkpt lat="57.491839" lon="9.830206">
<ele>6.374361</ele>
<time>2026-06-18T23:19:09.639Z</time>
</trkpt>
<trkpt lat="57.491484" lon="9.830973">
<ele>6.917777</ele>
<time>2026-06-18T23:19:24.053Z</time>
</trkpt>
<trkpt lat="57.491447" lon="9.831053">
<ele>6.974096</ele>
<time>2026-06-18T23:19:25.529Z</time>
</trkpt>
<trkpt lat="57.491307" lon="9.831381">
<ele>7.194283</ele>
<time>2026-06-18T23:19:31.380Z</time>
</trkpt>
<trkpt lat="57.490901" lon="9.832148">
<ele>7.760214</ele>
<time>2026-06-18T23:19:46.230Z</time>
</trkpt>
<trkpt lat="57.490790" lon="9.832424">
<ele>7.941430</ele>
<time>2026-06-18T23:19:50.985Z</time>
</trkpt>
<trkpt lat="57.490692" lon="9.832930">
<ele>8.224174</ele>
<time>2026-06-18T23:19:58.411Z</time>
</trkpt>
<trkpt lat="57.490655" lon="9.833299">
<ele>8.421501</ele>
<time>2026-06-18T23:20:03.586Z</time>
</trkpt>
<trkpt lat="57.490640" lon="9.833513">
<ele>8.534951</ele>
<time>2026-06-18T23:20:06.626Z</time>
</trkpt>
<trkpt lat="57.490598" lon="9.833961">
<ele>8.818584</ele>
<time>2026-06-18T23:20:13.017Z</time>
</trkpt>
<trkpt lat="57.490527" lon="9.834574">
<ele>9.407133</ele>
<time>2026-06-18T23:20:22.161Z</time>
</trkpt>
<trkpt lat="57.490352" lon="9.835746">
<ele>10.548799</ele>
<time>2026-06-18T23:20:41.706Z</time>
</trkpt>
<trkpt lat="57.490255" lon="9.836422">
<ele>11.205498</ele>
<time>2026-06-18T23:20:53.324Z</time>
</trkpt>
<trkpt lat="57.490183" lon="9.836929">
<ele>11.697686</ele>
<time>2026-06-18T23:21:02.090Z</time>
</trkpt>
<trkpt lat="57.490152" lon="9.837474">
<ele>12.014152</ele>
<time>2026-06-18T23:21:11.006Z</time>
</trkpt>
<trkpt lat="57.490183" lon="9.837836">
<ele>12.165691</ele>
<time>2026-06-18T23:21:16.783Z</time>
</trkpt>
<trkpt lat="57.490255" lon="9.838273">
<ele>12.354646</ele>
<time>2026-06-18T23:21:23.774Z</time>
</trkpt>
<trkpt lat="57.490389" lon="9.838679">
<ele>12.551608</ele>
<time>2026-06-18T23:21:30.481Z</time>
</trkpt>
<trkpt lat="57.490834" lon="9.839861">
<ele>13.148206</ele>
<time>2026-06-18T23:21:48.320Z</time>
</trkpt>
<trkpt lat="57.491044" lon="9.840315">
<ele>13.123959</ele>
<time>2026-06-18T23:21:55.033Z</time>
</trkpt>
<trkpt lat="57.491624" lon="9.841584">
<ele>12.596523</ele>
<time>2026-06-18T23:22:11.942Z</time>
</trkpt>
<trkpt lat="57.491754" lon="9.841782">
<ele>12.497550</ele>
<time>2026-06-18T23:22:15.385Z</time>
</trkpt>
<trkpt lat="57.491895" lon="9.841915">
<ele>12.404419</ele>
<time>2026-06-18T23:22:18.744Z</time>
</trkpt>
<trkpt lat="57.492033" lon="9.841944">
<ele>12.322601</ele>
<time>2026-06-18T23:22:21.733Z</time>
</trkpt>
<trkpt lat="57.492245" lon="9.841931">
<ele>12.197637</ele>
<time>2026-06-18T23:22:26.356Z</time>
</trkpt>
<trkpt lat="57.492342" lon="9.841988">
<ele>12.208556</ele>
<time>2026-06-18T23:22:28.574Z</time>
</trkpt>
<trkpt lat="57.492278" lon="9.842301">
<ele>12.271245</ele>
<time>2026-06-18T23:22:32.555Z</time>
</trkpt>
<trkpt lat="57.492223" lon="9.842748">
<ele>12.357084</ele>
<time>2026-06-18T23:22:41.736Z</time>
</trkpt>
<trkpt lat="57.492244" lon="9.842937">
<ele>12.393212</ele>
<time>2026-06-18T23:22:45.616Z</time>
</trkpt>
<trkpt lat="57.492768" lon="9.843792">
<ele>12.635964</ele>
<time>2026-06-18T23:23:13.661Z</time>
</trkpt>
<trkpt lat="57.493533" lon="9.845232">
<ele>12.972027</ele>
<time>2026-06-18T23:23:55.328Z</time>
</trkpt>
<trkpt lat="57.494236" lon="9.846347">
<ele>13.226754</ele>
<time>2026-06-18T23:24:30.278Z</time>
</trkpt>
<trkpt lat="57.494440" lon="9.846838">
<ele>13.332151</ele>
<time>2026-06-18T23:24:42.932Z</time>
</trkpt>
<trkpt lat="57.494483" lon="9.846966">
<ele>13.375987</ele>
<time>2026-06-18T23:24:46.069Z</time>
</trkpt>
<trkpt lat="57.494936" lon="9.847730">
<ele>13.706363</ele>
<time>2026-06-18T23:25:10.032Z</time>
</trkpt>
<trkpt lat="57.495702" lon="9.849135">
<ele>14.277567</ele>
<time>2026-06-18T23:25:53.501Z</time>
</trkpt>
<trkpt lat="57.496193" lon="9.850310">
<ele>14.311639</ele>
<time>2026-06-18T23:26:22.840Z</time>
</trkpt>
<trkpt lat="57.496399" lon="9.850565">
<ele>14.322179</ele>
<time>2026-06-18T23:26:31.982Z</time>
</trkpt>
<trkpt lat="57.496544" lon="9.850717">
<ele>14.329268</ele>
<time>2026-06-18T23:26:38.122Z</time>
</trkpt>
<trkpt lat="57.496933" lon="9.851262">
<ele>14.350010</ele>
<time>2026-06-18T23:26:55.841Z</time>
</trkpt>
<trkpt lat="57.497077" lon="9.851509">
<ele>14.379367</ele>
<time>2026-06-18T23:27:02.896Z</time>
</trkpt>
<trkpt lat="57.497108" lon="9.851551">
<ele>14.387836</ele>
<time>2026-06-18T23:27:04.269Z</time>
</trkpt>
<trkpt lat="57.497654" lon="9.852439">
<ele>14.547986</ele>
<time>2026-06-18T23:27:31.532Z</time>
</trkpt>
<trkpt lat="57.498245" lon="9.853505">
<ele>14.729762</ele>
<time>2026-06-18T23:28:03.729Z</time>
</trkpt>
<trkpt lat="57.498689" lon="9.854367">
<ele>14.855411</ele>
<time>2026-06-18T23:28:27.872Z</time>
</trkpt>
<trkpt lat="57.498822" lon="9.854715">
<ele>14.899358</ele>
<time>2026-06-18T23:28:36.355Z</time>
</trkpt>
<trkpt lat="57.499634" lon="9.856174">
<ele>15.187413</ele>
<time>2026-06-18T23:29:19.183Z</time>
</trkpt>
<trkpt lat="57.499840" lon="9.856608">
<ele>15.456381</ele>
<time>2026-06-18T23:29:30.951Z</time>
</trkpt>
<trkpt lat="57.500330" lon="9.857476">
<ele>16.041142</ele>
<time>2026-06-18T23:29:56.466Z</time>
</trkpt>
<trkpt lat="57.500856" lon="9.858252">
<ele>16.621354</ele>
<time>2026-06-18T23:30:25.340Z</time>
</trkpt>
<trkpt lat="57.501098" lon="9.858552">
<ele>17.256534</ele>
<time>2026-06-18T23:30:38.915Z</time>
</trkpt>
<trkpt lat="57.501239" lon="9.860031">
<ele>19.155921</ele>
<time>2026-06-18T23:31:06.645Z</time>
</trkpt>
<trkpt lat="57.501235" lon="9.860418">
<ele>19.645367</ele>
<time>2026-06-18T23:31:14.021Z</time>
</trkpt>
<trkpt lat="57.501162" lon="9.860802">
<ele>20.160428</ele>
<time>2026-06-18T23:31:21.388Z</time>
</trkpt>
<trkpt lat="57.500976" lon="9.861297">
<ele>20.894595</ele>
<time>2026-06-18T23:31:31.359Z</time>
</trkpt>
<trkpt lat="57.500140" lon="9.863211">
<ele>21.774068</ele>
<time>2026-06-18T23:32:02.193Z</time>
</trkpt>
<trkpt lat="57.500022" lon="9.863479">
<ele>21.897609</ele>
<time>2026-06-18T23:32:06.314Z</time>
</trkpt>
<trkpt lat="57.499913" lon="9.863723">
<ele>22.010749</ele>
<time>2026-06-18T23:32:10.199Z</time>
</trkpt>
<trkpt lat="57.498054" lon="9.867942">
<ele>24.688548</ele>
<time>2026-06-18T23:33:27.763Z</time>
</trkpt>
<trkpt lat="57.497864" lon="9.868369">
<ele>24.942623</ele>
<time>2026-06-18T23:33:35.402Z</time>
</trkpt>
<trkpt lat="57.497662" lon="9.868820">
<ele>25.211698</ele>
<time>2026-06-18T23:33:43.223Z</time>
</trkpt>
<trkpt lat="57.496986" lon="9.870366">
<ele>25.547069</ele>
<time>2026-06-18T23:34:08.696Z</time>
</trkpt>
<trkpt lat="57.496765" lon="9.870753">
<ele>25.615138</ele>
<time>2026-06-18T23:34:15.573Z</time>
</trkpt>
<trkpt lat="57.496449" lon="9.871155">
<ele>25.701001</ele>
<time>2026-06-18T23:34:24.209Z</time>
</trkpt>
<trkpt lat="57.496493" lon="9.871355">
<ele>25.727050</ele>
<time>2026-06-18T23:34:28.522Z</time>
</trkpt>
<trkpt lat="57.496535" lon="9.873126">
<ele>25.366527</ele>
<time>2026-06-18T23:35:02.876Z</time>
</trkpt>
<trkpt lat="57.496469" lon="9.873460">
<ele>25.284075</ele>
<time>2026-06-18T23:35:09.460Z</time>
</trkpt>
<trkpt lat="57.496454" lon="9.873658">
<ele>25.237746</ele>
<time>2026-06-18T23:35:13.173Z</time>
</trkpt>
<trkpt lat="57.496477" lon="9.874271">
<ele>25.095371</ele>
<time>2026-06-18T23:35:24.627Z</time>
</trkpt>
<trkpt lat="57.496555" lon="9.874897">
<ele>24.952158</ele>
<time>2026-06-18T23:35:36.663Z</time>
</trkpt>
<trkpt lat="57.496569" lon="9.875320">
<ele>24.879057</ele>
<time>2026-06-18T23:35:44.639Z</time>
</trkpt>
<trkpt lat="57.496533" lon="9.876601">
<ele>24.657798</ele>
<time>2026-06-18T23:36:09.161Z</time>
</trkpt>
<trkpt lat="57.496432" lon="9.877525">
<ele>24.495154</ele>
<time>2026-06-18T23:36:27.828Z</time>
</trkpt>
<trkpt lat="57.496399" lon="9.877918">
<ele>24.426543</ele>
<time>2026-06-18T23:36:35.686Z</time>
</trkpt>
<trkpt lat="57.496333" lon="9.878582">
<ele>24.313291</ele>
<time>2026-06-18T23:36:48.903Z</time>
</trkpt>
<trkpt lat="57.496311" lon="9.878888">
<ele>24.262151</ele>
<time>2026-06-18T23:36:54.859Z</time>
</trkpt>
<trkpt lat="57.496480" lon="9.879585">
<ele>24.135485</ele>
<time>2026-06-18T23:37:09.484Z</time>
</trkpt>
<trkpt lat="57.496546" lon="9.880386">
<ele>24.001250</ele>
<time>2026-06-18T23:37:24.980Z</time>
</trkpt>
<trkpt lat="57.496638" lon="9.880574">
<ele>23.959130</ele>
<time>2026-06-18T23:37:29.867Z</time>
</trkpt>
<trkpt lat="57.496910" lon="9.880807">
<ele>23.866825</ele>
<time>2026-06-18T23:37:40.531Z</time>
</trkpt>
<trkpt lat="57.496965" lon="9.880951">
<ele>23.837561</ele>
<time>2026-06-18T23:37:43.941Z</time>
</trkpt>
<trkpt lat="57.497037" lon="9.881480">
<ele>23.838283</ele>
<time>2026-06-18T23:37:54.523Z</time>
</trkpt>
<trkpt lat="57.497122" lon="9.881701">
<ele>23.838991</ele>
<time>2026-06-18T23:37:59.831Z</time>
</trkpt>
<trkpt lat="57.497375" lon="9.881986">
<ele>23.840425</ele>
<time>2026-06-18T23:38:10.800Z</time>
</trkpt>
<trkpt lat="57.497857" lon="9.882618">
<ele>23.843284</ele>
<time>2026-06-18T23:38:33.129Z</time>
</trkpt>
<trkpt lat="57.498210" lon="9.883183">
<ele>23.845541</ele>
<time>2026-06-18T23:38:50.724Z</time>
</trkpt>
<trkpt lat="57.498349" lon="9.883288">
<ele>23.814420</ele>
<time>2026-06-18T23:38:56.322Z</time>
</trkpt>
<trkpt lat="57.498681" lon="9.883332">
<ele>23.739967</ele>
<time>2026-06-18T23:39:08.606Z</time>
</trkpt>
<trkpt lat="57.499206" lon="9.883510">
<ele>23.620596</ele>
<time>2026-06-18T23:39:27.904Z</time>
</trkpt>
<trkpt lat="57.499785" lon="9.883815">
<ele>23.485992</ele>
<time>2026-06-18T23:39:49.227Z</time>
</trkpt>
<trkpt lat="57.500023" lon="9.884020">
<ele>23.422130</ele>
<time>2026-06-18T23:39:58.540Z</time>
</trkpt>
<trkpt lat="57.500235" lon="9.884360">
<ele>23.339096</ele>
<time>2026-06-18T23:40:08.484Z</time>
</trkpt>
<trkpt lat="57.500295" lon="9.884491">
<ele>23.311653</ele>
<time>2026-06-18T23:40:11.795Z</time>
</trkpt>
<trkpt lat="57.500301" lon="9.884782">
<ele>23.265228</ele>
<time>2026-06-18T23:40:17.401Z</time>
</trkpt>
<trkpt lat="57.500041" lon="9.886311">
<ele>23.009557</ele>
<time>2026-06-18T23:40:48.607Z</time>
</trkpt>
<trkpt lat="57.499929" lon="9.886922">
<ele>22.903916</ele>
<time>2026-06-18T23:41:01.232Z</time>
</trkpt>
<trkpt lat="57.499748" lon="9.887862">
<ele>22.597447</ele>
<time>2026-06-18T23:41:20.545Z</time>
</trkpt>
<trkpt lat="57.499585" lon="9.888944">
<ele>22.252556</ele>
<time>2026-06-18T23:41:41.811Z</time>
</trkpt>
<trkpt lat="57.499558" lon="9.889321">
<ele>22.135824</ele>
<time>2026-06-18T23:41:48.890Z</time>
</trkpt>
<trkpt lat="57.499513" lon="9.890401">
<ele>21.738913</ele>
<time>2026-06-18T23:42:08.773Z</time>
</trkpt>
<trkpt lat="57.499420" lon="9.895245">
<ele>18.898129</ele>
<time>2026-06-18T23:43:36.165Z</time>
</trkpt>
<trkpt lat="57.499410" lon="9.895487">
<ele>18.743843</ele>
<time>2026-06-18T23:43:40.497Z</time>
</trkpt>
<trkpt lat="57.499345" lon="9.895948">
<ele>18.440878</ele>
<time>2026-06-18T23:43:49.013Z</time>
</trkpt>
<trkpt lat="57.499142" lon="9.901709">
<ele>14.841571</ele>
<time>2026-06-18T23:45:31.194Z</time>
</trkpt>
<trkpt lat="57.500368" lon="9.901563">
<ele>13.971218</ele>
<time>2026-06-18T23:45:56.847Z</time>
</trkpt>
<trkpt lat="57.503493" lon="9.901198">
<ele>13.073431</ele>
<time>2026-06-18T23:47:02.193Z</time>
</trkpt>
<trkpt lat="57.503729" lon="9.901170">
<ele>13.047728</ele>
<time>2026-06-18T23:47:08.133Z</time>
</trkpt>
<trkpt lat="57.504575" lon="9.901082">
<ele>13.307860</ele>
<time>2026-06-18T23:47:29.900Z</time>
</trkpt>
<trkpt lat="57.505355" lon="9.901018">
<ele>13.547557</ele>
<time>2026-06-18T23:47:48.140Z</time>
</trkpt>
<trkpt lat="57.505540" lon="9.901001">
<ele>13.549006</ele>
<time>2026-06-18T23:47:51.942Z</time>
</trkpt>
<trkpt lat="57.507659" lon="9.900354">
<ele>12.027079</ele>
<time>2026-06-18T23:48:33.578Z</time>
</trkpt>
<trkpt lat="57.508066" lon="9.900169">
<ele>11.905813</ele>
<time>2026-06-18T23:48:42.667Z</time>
</trkpt>
<trkpt lat="57.508312" lon="9.899971">
<ele>11.828239</ele>
<time>2026-06-18T23:48:48.693Z</time>
</trkpt>
<trkpt lat="57.512593" lon="9.895745">
<ele>10.836390</ele>
<time>2026-06-18T23:50:34.518Z</time>
</trkpt>
<trkpt lat="57.512880" lon="9.895580">
<ele>10.619872</ele>
<time>2026-06-18T23:50:40.462Z</time>
</trkpt>
<trkpt lat="57.513163" lon="9.895489">
<ele>10.412856</ele>
<time>2026-06-18T23:50:46.020Z</time>
</trkpt>
<trkpt lat="57.514017" lon="9.895474">
<ele>9.680136</ele>
<time>2026-06-18T23:51:02.283Z</time>
</trkpt>
<trkpt lat="57.514313" lon="9.895399">
<ele>9.268414</ele>
<time>2026-06-18T23:51:08.192Z</time>
</trkpt>
<trkpt lat="57.514584" lon="9.895233">
<ele>8.875214</ele>
<time>2026-06-18T23:51:13.848Z</time>
</trkpt>
<trkpt lat="57.514819" lon="9.895036">
<ele>8.520011</ele>
<time>2026-06-18T23:51:18.812Z</time>
</trkpt>
<trkpt lat="57.515357" lon="9.894586">
<ele>7.707129</ele>
<time>2026-06-18T23:51:29.616Z</time>
</trkpt>
<trkpt lat="57.515519" lon="9.895155">
<ele>7.109338</ele>
<time>2026-06-18T23:51:35.555Z</time>
</trkpt>
<trkpt lat="57.515631" lon="9.895316">
<ele>6.805119</ele>
<time>2026-06-18T23:51:37.948Z</time>
</trkpt>
<trkpt lat="57.515947" lon="9.895653">
<ele>6.022159</ele>
<time>2026-06-18T23:51:43.956Z</time>
</trkpt>
<trkpt lat="57.516240" lon="9.896138">
<ele>5.179257</ele>
<time>2026-06-18T23:51:50.254Z</time>
</trkpt>
<trkpt lat="57.516395" lon="9.896531">
<ele>4.616239</ele>
<time>2026-06-18T23:51:54.634Z</time>
</trkpt>
<trkpt lat="57.516530" lon="9.896946">
<ele>4.055991</ele>
<time>2026-06-18T23:51:59.345Z</time>
</trkpt>
<trkpt lat="57.516671" lon="9.897608">
<ele>3.723183</ele>
<time>2026-06-18T23:52:07.124Z</time>
</trkpt>
<trkpt lat="57.516731" lon="9.897954">
<ele>3.897593</ele>
<time>2026-06-18T23:52:11.760Z</time>
</trkpt>
<trkpt lat="57.516762" lon="9.898317">
<ele>4.073907</ele>
<time>2026-06-18T23:52:16.798Z</time>
</trkpt>
<trkpt lat="57.516717" lon="9.898796">
<ele>4.307165</ele>
<time>2026-06-18T23:52:23.934Z</time>
</trkpt>
<trkpt lat="57.516598" lon="9.899633">
<ele>4.722495</ele>
<time>2026-06-18T23:52:37.762Z</time>
</trkpt>
<trkpt lat="57.516183" lon="9.902566">
<ele>6.534785</ele>
<time>2026-06-18T23:53:22.646Z</time>
</trkpt>
<trkpt lat="57.516185" lon="9.902857">
<ele>6.724707</ele>
<time>2026-06-18T23:53:26.561Z</time>
</trkpt>
<trkpt lat="57.516225" lon="9.903086">
<ele>6.881856</ele>
<time>2026-06-18T23:53:29.784Z</time>
</trkpt>
<trkpt lat="57.516890" lon="9.904871">
<ele>8.304667</ele>
<time>2026-06-18T23:54:00.971Z</time>
</trkpt>
<trkpt lat="57.517072" lon="9.905564">
<ele>8.810854</ele>
<time>2026-06-18T23:54:12.973Z</time>
</trkpt>
<trkpt lat="57.517211" lon="9.906338">
<ele>9.346373</ele>
<time>2026-06-18T23:54:25.403Z</time>
</trkpt>
<trkpt lat="57.517288" lon="9.906976">
<ele>9.509460</ele>
<time>2026-06-18T23:54:34.675Z</time>
</trkpt>
<trkpt lat="57.517316" lon="9.907650">
<ele>9.380966</ele>
<time>2026-06-18T23:54:43.400Z</time>
</trkpt>
<trkpt lat="57.517303" lon="9.908219">
<ele>9.272714</ele>
<time>2026-06-18T23:54:49.998Z</time>
</trkpt>
<trkpt lat="57.517255" lon="9.908676">
<ele>9.184204</ele>
<time>2026-06-18T23:54:54.948Z</time>
</trkpt>
<trkpt lat="57.517171" lon="9.909137">
<ele>9.091672</ele>
<time>2026-06-18T23:54:59.838Z</time>
</trkpt>
<trkpt lat="57.516371" lon="9.911908">
<ele>7.649211</ele>
<time>2026-06-18T23:55:31.654Z</time>
</trkpt>
<trkpt lat="57.516271" lon="9.912082">
<ele>7.507571</ele>
<time>2026-06-18T23:55:34.407Z</time>
</trkpt>
<trkpt lat="57.516159" lon="9.912186">
<ele>7.378053</ele>
<time>2026-06-18T23:55:36.931Z</time>
</trkpt>
<trkpt lat="57.515698" lon="9.912432">
<ele>6.965627</ele>
<time>2026-06-18T23:55:46.577Z</time>
</trkpt>
<trkpt lat="57.515587" lon="9.912533">
<ele>6.894355</ele>
<time>2026-06-18T23:55:49.039Z</time>
</trkpt>
<trkpt lat="57.515512" lon="9.912698">
<ele>6.827381</ele>
<time>2026-06-18T23:55:51.357Z</time>
</trkpt>
<trkpt lat="57.515459" lon="9.912962">
<ele>6.740058</ele>
<time>2026-06-18T23:55:54.348Z</time>
</trkpt>
<trkpt lat="57.515414" lon="9.913564">
<ele>6.551742</ele>
<time>2026-06-18T23:56:00.857Z</time>
</trkpt>
<trkpt lat="57.515353" lon="9.914030">
<ele>6.403134</ele>
<time>2026-06-18T23:56:05.993Z</time>
</trkpt>
<trkpt lat="57.515827" lon="9.914131">
<ele>6.127904</ele>
<time>2026-06-18T23:56:15.687Z</time>
</trkpt>
<trkpt lat="57.515975" lon="9.914282">
<ele>6.036835</ele>
<time>2026-06-18T23:56:19.217Z</time>
</trkpt>
<trkpt lat="57.516042" lon="9.914430">
<ele>6.098994</ele>
<time>2026-06-18T23:56:21.449Z</time>
</trkpt>
<trkpt lat="57.516175" lon="9.914845">
<ele>6.254186</ele>
<time>2026-06-18T23:56:27.215Z</time>
</trkpt>
<trkpt lat="57.516251" lon="9.914962">
<ele>6.313150</ele>
<time>2026-06-18T23:56:29.478Z</time>
</trkpt>
<trkpt lat="57.516336" lon="9.915011">
<ele>6.366354</ele>
<time>2026-06-18T23:56:31.580Z</time>
</trkpt>
<trkpt lat="57.516693" lon="9.915056">
<ele>6.580306</ele>
<time>2026-06-18T23:56:40.385Z</time>
</trkpt>
<trkpt lat="57.516818" lon="9.915114">
<ele>6.657333</ele>
<time>2026-06-18T23:56:43.759Z</time>
</trkpt>
<trkpt lat="57.516901" lon="9.915247">
<ele>6.722809</ele>
<time>2026-06-18T23:56:46.636Z</time>
</trkpt>
<trkpt lat="57.516950" lon="9.915413">
<ele>6.783636</ele>
<time>2026-06-18T23:56:49.336Z</time>
</trkpt>
<trkpt lat="57.516964" lon="9.915659">
<ele>6.863074</ele>
<time>2026-06-18T23:56:52.910Z</time>
</trkpt>
<trkpt lat="57.516866" lon="9.917107">
<ele>7.512176</ele>
<time>2026-06-18T23:57:14.107Z</time>
</trkpt>
<trkpt lat="57.516805" lon="9.918578">
<ele>8.369946</ele>
<time>2026-06-18T23:57:34.313Z</time>
</trkpt>
<trkpt lat="57.516818" lon="9.918821">
<ele>8.511923</ele>
<time>2026-06-18T23:57:37.711Z</time>
</trkpt>
<trkpt lat="57.516871" lon="9.919060">
<ele>8.662255</ele>
<time>2026-06-18T23:57:41.353Z</time>
</trkpt>
<trkpt lat="57.516957" lon="9.919231">
<ele>8.798459</ele>
<time>2026-06-18T23:57:44.685Z</time>
</trkpt>
<trkpt lat="57.517132" lon="9.919409">
<ele>9.014329</ele>
<time>2026-06-18T23:57:50.031Z</time>
</trkpt>
<trkpt lat="57.517322" lon="9.919543">
<ele>9.379762</ele>
<time>2026-06-18T23:57:55.516Z</time>
</trkpt>
<trkpt lat="57.518381" lon="9.920262">
<ele>11.597213</ele>
<time>2026-06-18T23:58:30.092Z</time>
</trkpt>
<trkpt lat="57.519468" lon="9.920804">
<ele>13.314893</ele>
<time>2026-06-18T23:59:05.486Z</time>
</trkpt>
<trkpt lat="57.521127" lon="9.921336">
<ele>15.211858</ele>
<time>2026-06-18T23:59:46.594Z</time>
</trkpt>
<trkpt lat="57.521222" lon="9.921408">
<ele>15.318258</ele>
<time>2026-06-18T23:59:49.047Z</time>
</trkpt>
<trkpt lat="57.521352" lon="9.921639">
<ele>15.504660</ele>
<time>2026-06-18T23:59:53.441Z</time>
</trkpt>
<trkpt lat="57.521409" lon="9.921805">
<ele>15.614420</ele>
<time>2026-06-18T23:59:56.080Z</time>
</trkpt>
<trkpt lat="57.521439" lon="9.922004">
<ele>15.729560</ele>
<time>2026-06-18T23:59:58.871Z</time>
</trkpt>
<trkpt lat="57.521339" lon="9.927916">
<ele>21.118795</ele>
<time>2026-06-19T00:01:29.537Z</time>
</trkpt>
<trkpt lat="57.521352" lon="9.928349">
<ele>21.792194</ele>
<time>2026-06-19T00:01:37.892Z</time>
</trkpt>
<trkpt lat="57.521456" lon="9.929195">
<ele>23.139818</ele>
<time>2026-06-19T00:01:55.486Z</time>
</trkpt>
<trkpt lat="57.521545" lon="9.929589">
<ele>23.803532</ele>
<time>2026-06-19T00:02:04.194Z</time>
</trkpt>
<trkpt lat="57.521780" lon="9.930244">
<ele>24.856894</ele>
<time>2026-06-19T00:02:19.692Z</time>
</trkpt>
<trkpt lat="57.521919" lon="9.930488">
<ele>25.166957</ele>
<time>2026-06-19T00:02:26.289Z</time>
</trkpt>
<trkpt lat="57.522084" lon="9.930700">
<ele>25.492346</ele>
<time>2026-06-19T00:02:32.811Z</time>
</trkpt>
<trkpt lat="57.522299" lon="9.930922">
<ele>25.891391</ele>
<time>2026-06-19T00:02:40.293Z</time>
</trkpt>
<trkpt lat="57.523324" lon="9.931785">
<ele>27.594855</ele>
<time>2026-06-19T00:03:08.620Z</time>
</trkpt>
<trkpt lat="57.523502" lon="9.932158">
<ele>27.693028</ele>
<time>2026-06-19T00:03:14.736Z</time>
</trkpt>
<trkpt lat="57.523736" lon="9.932855">
<ele>27.854745</ele>
<time>2026-06-19T00:03:25.067Z</time>
</trkpt>
<trkpt lat="57.523902" lon="9.933661">
<ele>28.024573</ele>
<time>2026-06-19T00:03:36.251Z</time>
</trkpt>
<trkpt lat="57.523935" lon="9.934449">
<ele>28.180066</ele>
<time>2026-06-19T00:03:46.240Z</time>
</trkpt>
<trkpt lat="57.523934" lon="9.934481">
<ele>28.186372</ele>
<time>2026-06-19T00:03:46.640Z</time>
</trkpt>
<trkpt lat="57.523915" lon="9.934948">
<ele>28.223184</ele>
<time>2026-06-19T00:03:52.415Z</time>
</trkpt>
<trkpt lat="57.523822" lon="9.936389">
<ele>28.247004</ele>
<time>2026-06-19T00:04:10.094Z</time>
</trkpt>
<trkpt lat="57.523915" lon="9.934948">
<ele>28.270823</ele>
<time>2026-06-19T00:04:27.069Z</time>
</trkpt>
<trkpt lat="57.523934" lon="9.934481">
<ele>28.253052</ele>
<time>2026-06-19T00:04:32.496Z</time>
</trkpt>
<trkpt lat="57.523935" lon="9.934449">
<ele>28.251092</ele>
<time>2026-06-19T00:04:32.869Z</time>
</trkpt>
<trkpt lat="57.523902" lon="9.933661">
<ele>28.202746</ele>
<time>2026-06-19T00:04:42.015Z</time>
</trkpt>
<trkpt lat="57.525073" lon="9.933594">
<ele>28.069286</ele>
<time>2026-06-19T00:05:25.020Z</time>
</trkpt>
<trkpt lat="57.525186" lon="9.933590">
<ele>28.064393</ele>
<time>2026-06-19T00:05:29.226Z</time>
</trkpt>
<trkpt lat="57.526237" lon="9.933556">
<ele>28.025529</ele>
<time>2026-06-19T00:06:07.856Z</time>
</trkpt>
<trkpt lat="57.526277" lon="9.933520">
<ele>28.023886</ele>
<time>2026-06-19T00:06:09.528Z</time>
</trkpt>
<trkpt lat="57.526315" lon="9.933591">
<ele>28.021896</ele>
<time>2026-06-19T00:06:11.468Z</time>
</trkpt>
<trkpt lat="57.526619" lon="9.932847">
<ele>28.003336</ele>
<time>2026-06-19T00:06:23.949Z</time>
</trkpt>
<trkpt lat="57.526668" lon="9.932613">
<ele>27.963678</ele>
<time>2026-06-19T00:06:27.314Z</time>
</trkpt>
<trkpt lat="57.526704" lon="9.932344">
<ele>27.901669</ele>
<time>2026-06-19T00:06:30.997Z</time>
</trkpt>
<trkpt lat="57.526766" lon="9.931054">
<ele>27.611978</ele>
<time>2026-06-19T00:06:48.045Z</time>
</trkpt>
<trkpt lat="57.526950" lon="9.929802">
<ele>27.321641</ele>
<time>2026-06-19T00:07:03.986Z</time>
</trkpt>
<trkpt lat="57.527135" lon="9.928200">
<ele>25.830175</ele>
<time>2026-06-19T00:07:22.510Z</time>
</trkpt>
<trkpt lat="57.527192" lon="9.927986">
<ele>25.574561</ele>
<time>2026-06-19T00:07:25.070Z</time>
</trkpt>
<trkpt lat="57.527639" lon="9.926807">
<ele>24.030180</ele>
<time>2026-06-19T00:07:39.964Z</time>
</trkpt>
<trkpt lat="57.527736" lon="9.926626">
<ele>23.756538</ele>
<time>2026-06-19T00:07:42.546Z</time>
</trkpt>
<trkpt lat="57.527842" lon="9.926488">
<ele>23.520036</ele>
<time>2026-06-19T00:07:44.956Z</time>
</trkpt>
<trkpt lat="57.528125" lon="9.926306">
<ele>22.998347</ele>
<time>2026-06-19T00:07:50.482Z</time>
</trkpt>
<trkpt lat="57.528258" lon="9.926170">
<ele>22.733969</ele>
<time>2026-06-19T00:07:53.304Z</time>
</trkpt>
<trkpt lat="57.528304" lon="9.926068">
<ele>22.609350</ele>
<time>2026-06-19T00:07:54.652Z</time>
</trkpt>
<trkpt lat="57.528345" lon="9.925772">
<ele>22.323372</ele>
<time>2026-06-19T00:07:57.769Z</time>
</trkpt>
<trkpt lat="57.528397" lon="9.925584">
<ele>22.125529</ele>
<time>2026-06-19T00:07:59.932Z</time>
</trkpt>
<trkpt lat="57.528572" lon="9.925268">
<ele>21.700822</ele>
<time>2026-06-19T00:08:04.689Z</time>
</trkpt>
<trkpt lat="57.528736" lon="9.925046">
<ele>21.347560</ele>
<time>2026-06-19T00:08:08.813Z</time>
</trkpt>
<trkpt lat="57.529260" lon="9.924213">
<ele>20.920143</ele>
<time>2026-06-19T00:08:25.414Z</time>
</trkpt>
<trkpt lat="57.529342" lon="9.924104">
<ele>21.095643</ele>
<time>2026-06-19T00:08:28.274Z</time>
</trkpt>
<trkpt lat="57.529516" lon="9.923862">
<ele>21.473951</ele>
<time>2026-06-19T00:08:34.974Z</time>
</trkpt>
<trkpt lat="57.529912" lon="9.923622">
<ele>22.199429</ele>
<time>2026-06-19T00:08:49.221Z</time>
</trkpt>
<trkpt lat="57.530206" lon="9.923344">
<ele>22.773827</ele>
<time>2026-06-19T00:09:00.934Z</time>
</trkpt>
<trkpt lat="57.530681" lon="9.923151">
<ele>23.620792</ele>
<time>2026-06-19T00:09:18.517Z</time>
</trkpt>
<trkpt lat="57.530789" lon="9.923072">
<ele>23.772404</ele>
<time>2026-06-19T00:09:22.553Z</time>
</trkpt>
<trkpt lat="57.531558" lon="9.922090">
<ele>24.869869</ele>
<time>2026-06-19T00:09:51.092Z</time>
</trkpt>
<trkpt lat="57.531662" lon="9.921951">
<ele>25.020538</ele>
<time>2026-06-19T00:09:54.622Z</time>
</trkpt>
<trkpt lat="57.532201" lon="9.921158">
<ele>25.784651</ele>
<time>2026-06-19T00:10:12.717Z</time>
</trkpt>
<trkpt lat="57.533163" lon="9.919718">
<ele>25.795318</ele>
<time>2026-06-19T00:10:43.104Z</time>
</trkpt>
<trkpt lat="57.533926" lon="9.918485">
<ele>25.858908</ele>
<time>2026-06-19T00:11:07.594Z</time>
</trkpt>
<trkpt lat="57.534052" lon="9.918215">
<ele>25.882359</ele>
<time>2026-06-19T00:11:12.214Z</time>
</trkpt>
<trkpt lat="57.534382" lon="9.917249">
<ele>25.957412</ele>
<time>2026-06-19T00:11:27.847Z</time>
</trkpt>
<trkpt lat="57.534554" lon="9.916730">
<ele>25.997391</ele>
<time>2026-06-19T00:11:36.539Z</time>
</trkpt>
<trkpt lat="57.535040" lon="9.916152">
<ele>25.940246</ele>
<time>2026-06-19T00:11:51.712Z</time>
</trkpt>
<trkpt lat="57.535108" lon="9.916124">
<ele>25.926293</ele>
<time>2026-06-19T00:11:53.496Z</time>
</trkpt>
<trkpt lat="57.535218" lon="9.916150">
<ele>25.904078</ele>
<time>2026-06-19T00:11:56.301Z</time>
</trkpt>
<trkpt lat="57.535443" lon="9.916339">
<ele>25.854627</ele>
<time>2026-06-19T00:12:02.435Z</time>
</trkpt>
<trkpt lat="57.535496" lon="9.916386">
<ele>25.842867</ele>
<time>2026-06-19T00:12:03.851Z</time>
</trkpt>
<trkpt lat="57.535715" lon="9.916593">
<ele>25.793665</ele>
<time>2026-06-19T00:12:09.738Z</time>
</trkpt>
<trkpt lat="57.536579" lon="9.917362">
<ele>25.443635</ele>
<time>2026-06-19T00:12:31.118Z</time>
</trkpt>
<trkpt lat="57.537084" lon="9.917718">
<ele>25.036882</ele>
<time>2026-06-19T00:12:42.756Z</time>
</trkpt>
<trkpt lat="57.537958" lon="9.917957">
<ele>24.371422</ele>
<time>2026-06-19T00:13:02.176Z</time>
</trkpt>
<trkpt lat="57.538160" lon="9.917984">
<ele>24.328702</ele>
<time>2026-06-19T00:13:07.009Z</time>
</trkpt>
<trkpt lat="57.538563" lon="9.917917">
<ele>24.416361</ele>
<time>2026-06-19T00:13:17.256Z</time>
</trkpt>
<trkpt lat="57.538730" lon="9.917846">
<ele>24.453472</ele>
<time>2026-06-19T00:13:21.686Z</time>
</trkpt>
<trkpt lat="57.538892" lon="9.917676">
<ele>24.493754</ele>
<time>2026-06-19T00:13:26.493Z</time>
</trkpt>
<trkpt lat="57.538947" lon="9.917552">
<ele>24.512460</ele>
<time>2026-06-19T00:13:28.771Z</time>
</trkpt>
<trkpt lat="57.539074" lon="9.917033">
<ele>24.578787</ele>
<time>2026-06-19T00:13:36.825Z</time>
</trkpt>
<trkpt lat="57.539258" lon="9.916607">
<ele>24.642372</ele>
<time>2026-06-19T00:13:44.699Z</time>
</trkpt>
<trkpt lat="57.540010" lon="9.915108">
<ele>24.940175</ele>
<time>2026-06-19T00:14:14.005Z</time>
</trkpt>
<trkpt lat="57.540320" lon="9.914690">
<ele>25.049314</ele>
<time>2026-06-19T00:14:23.790Z</time>
</trkpt>
<trkpt lat="57.540392" lon="9.914592">
<ele>25.074744</ele>
<time>2026-06-19T00:14:26.027Z</time>
</trkpt>
<trkpt lat="57.540642" lon="9.914384">
<ele>25.152833</ele>
<time>2026-06-19T00:14:32.964Z</time>
</trkpt>
<trkpt lat="57.540999" lon="9.914123">
<ele>25.218597</ele>
<time>2026-06-19T00:14:42.472Z</time>
</trkpt>
<trkpt lat="57.541025" lon="9.914105">
<ele>25.220277</ele>
<time>2026-06-19T00:14:43.153Z</time>
</trkpt>
<trkpt lat="57.541218" lon="9.913971">
<ele>25.232749</ele>
<time>2026-06-19T00:14:48.304Z</time>
</trkpt>
<trkpt lat="57.541551" lon="9.913741">
<ele>25.254254</ele>
<time>2026-06-19T00:14:57.173Z</time>
</trkpt>
<trkpt lat="57.541602" lon="9.913694">
<ele>25.257700</ele>
<time>2026-06-19T00:14:58.542Z</time>
</trkpt>
<trkpt lat="57.541722" lon="9.913598">
<ele>25.265608</ele>
<time>2026-06-19T00:15:01.709Z</time>
</trkpt>
<trkpt lat="57.541886" lon="9.913532">
<ele>25.275768</ele>
<time>2026-06-19T00:15:05.756Z</time>
</trkpt>
<trkpt lat="57.542156" lon="9.913482">
<ele>25.292198</ele>
<time>2026-06-19T00:15:12.378Z</time>
</trkpt>
<trkpt lat="57.542738" lon="9.913458">
<ele>25.350378</ele>
<time>2026-06-19T00:15:27.278Z</time>
</trkpt>
<trkpt lat="57.542973" lon="9.913719">
<ele>25.399432</ele>
<time>2026-06-19T00:15:34.496Z</time>
</trkpt>
<trkpt lat="57.543125" lon="9.913960">
<ele>25.435219</ele>
<time>2026-06-19T00:15:39.796Z</time>
</trkpt>
<trkpt lat="57.543219" lon="9.914171">
<ele>25.461607</ele>
<time>2026-06-19T00:15:43.658Z</time>
</trkpt>
<trkpt lat="57.543261" lon="9.914188">
<ele>25.469314</ele>
<time>2026-06-19T00:15:44.786Z</time>
</trkpt>
<trkpt lat="57.543521" lon="9.914228">
<ele>25.516092</ele>
<time>2026-06-19T00:15:51.533Z</time>
</trkpt>
<trkpt lat="57.544064" lon="9.913465">
<ele>25.638037</ele>
<time>2026-06-19T00:16:08.405Z</time>
</trkpt>
<trkpt lat="57.545011" lon="9.914819">
<ele>25.470460</ele>
<time>2026-06-19T00:16:36.784Z</time>
</trkpt>
<trkpt lat="57.545781" lon="9.916286">
<ele>25.103413</ele>
<time>2026-06-19T00:17:03.977Z</time>
</trkpt>
<trkpt lat="57.545789" lon="9.916301">
<ele>25.096953</ele>
<time>2026-06-19T00:17:04.255Z</time>
</trkpt>
<trkpt lat="57.545952" lon="9.916523">
<ele>24.982028</ele>
<time>2026-06-19T00:17:09.059Z</time>
</trkpt>
<trkpt lat="57.546537" lon="9.917087">
<ele>24.607100</ele>
<time>2026-06-19T00:17:24.102Z</time>
</trkpt>
<trkpt lat="57.546782" lon="9.917216">
<ele>24.462177</ele>
<time>2026-06-19T00:17:29.725Z</time>
</trkpt>
<trkpt lat="57.547116" lon="9.917369">
<ele>24.067034</ele>
<time>2026-06-19T00:17:36.974Z</time>
</trkpt>
<trkpt lat="57.547342" lon="9.917539">
<ele>23.636823</ele>
<time>2026-06-19T00:17:41.927Z</time>
</trkpt>
<trkpt lat="57.547618" lon="9.918111">
<ele>22.908181</ele>
<time>2026-06-19T00:17:50.025Z</time>
</trkpt>
<trkpt lat="57.547888" lon="9.918598">
<ele>22.244899</ele>
<time>2026-06-19T00:17:57.287Z</time>
</trkpt>
<trkpt lat="57.548042" lon="9.918721">
<ele>21.949141</ele>
<time>2026-06-19T00:18:00.554Z</time>
</trkpt>
<trkpt lat="57.548158" lon="9.918719">
<ele>21.744368</ele>
<time>2026-06-19T00:18:02.847Z</time>
</trkpt>
<trkpt lat="57.548325" lon="9.918612">
<ele>21.432641</ele>
<time>2026-06-19T00:18:06.463Z</time>
</trkpt>
<trkpt lat="57.548592" lon="9.918266">
<ele>21.252071</ele>
<time>2026-06-19T00:18:13.223Z</time>
</trkpt>
<trkpt lat="57.548668" lon="9.918218">
<ele>21.280507</ele>
<time>2026-06-19T00:18:14.949Z</time>
</trkpt>
<trkpt lat="57.548895" lon="9.918299">
<ele>21.362408</ele>
<time>2026-06-19T00:18:19.990Z</time>
</trkpt>
<trkpt lat="57.549098" lon="9.918640">
<ele>21.459251</ele>
<time>2026-06-19T00:18:26.418Z</time>
</trkpt>
<trkpt lat="57.549194" lon="9.918705">
<ele>21.495446</ele>
<time>2026-06-19T00:18:29.037Z</time>
</trkpt>
<trkpt lat="57.549274" lon="9.918806">
<ele>21.529687</ele>
<time>2026-06-19T00:18:31.560Z</time>
</trkpt>
<trkpt lat="57.549340" lon="9.919039">
<ele>21.579784</ele>
<time>2026-06-19T00:18:35.396Z</time>
</trkpt>
<trkpt lat="57.549452" lon="9.919262">
<ele>21.637861</ele>
<time>2026-06-19T00:18:40.121Z</time>
</trkpt>
<trkpt lat="57.549659" lon="9.919426">
<ele>21.717567</ele>
<time>2026-06-19T00:18:47.104Z</time>
</trkpt>
<trkpt lat="57.550047" lon="9.919387">
<ele>22.008918</ele>
<time>2026-06-19T00:19:00.344Z</time>
</trkpt>
<trkpt lat="57.550133" lon="9.919389">
<ele>22.187572</ele>
<time>2026-06-19T00:19:03.294Z</time>
</trkpt>
<trkpt lat="57.550338" lon="9.919480">
<ele>22.625315</ele>
<time>2026-06-19T00:19:10.435Z</time>
</trkpt>
<trkpt lat="57.551088" lon="9.920141">
<ele>24.348637</ele>
<time>2026-06-19T00:19:39.120Z</time>
</trkpt>
<trkpt lat="57.551426" lon="9.920513">
<ele>25.164014</ele>
<time>2026-06-19T00:19:52.042Z</time>
</trkpt>
<trkpt lat="57.551848" lon="9.920634">
<ele>25.666487</ele>
<time>2026-06-19T00:20:05.035Z</time>
</trkpt>
<trkpt lat="57.552048" lon="9.920792">
<ele>25.764487</ele>
<time>2026-06-19T00:20:11.152Z</time>
</trkpt>
<trkpt lat="57.552143" lon="9.920906">
<ele>25.815461</ele>
<time>2026-06-19T00:20:14.214Z</time>
</trkpt>
<trkpt lat="57.552757" lon="9.921671">
<ele>26.148656</ele>
<time>2026-06-19T00:20:32.765Z</time>
</trkpt>
<trkpt lat="57.553308" lon="9.922612">
<ele>26.409966</ele>
<time>2026-06-19T00:20:50.999Z</time>
</trkpt>
<trkpt lat="57.553403" lon="9.922842">
<ele>26.433697</ele>
<time>2026-06-19T00:20:54.905Z</time>
</trkpt>
<trkpt lat="57.553548" lon="9.923382">
<ele>26.483067</ele>
<time>2026-06-19T00:21:03.186Z</time>
</trkpt>
<trkpt lat="57.554145" lon="9.924603">
<ele>26.618128</ele>
<time>2026-06-19T00:21:26.254Z</time>
</trkpt>
<trkpt lat="57.554257" lon="9.924813">
<ele>26.642337</ele>
<time>2026-06-19T00:21:30.242Z</time>
</trkpt>
<trkpt lat="57.554399" lon="9.925046">
<ele>26.604448</ele>
<time>2026-06-19T00:21:34.931Z</time>
</trkpt>
<trkpt lat="57.554694" lon="9.925406">
<ele>26.519201</ele>
<time>2026-06-19T00:21:43.496Z</time>
</trkpt>
<trkpt lat="57.554832" lon="9.925572">
<ele>26.479493</ele>
<time>2026-06-19T00:21:47.396Z</time>
</trkpt>
<trkpt lat="57.555228" lon="9.925919">
<ele>26.373702</ele>
<time>2026-06-19T00:21:57.754Z</time>
</trkpt>
<trkpt lat="57.555838" lon="9.926418">
<ele>26.212647</ele>
<time>2026-06-19T00:22:13.131Z</time>
</trkpt>
<trkpt lat="57.555809" lon="9.926855">
<ele>26.224876</ele>
<time>2026-06-19T00:22:17.949Z</time>
</trkpt>
<trkpt lat="57.555748" lon="9.927674">
<ele>26.252878</ele>
<time>2026-06-19T00:22:27.290Z</time>
</trkpt>
<trkpt lat="57.555710" lon="9.928197">
<ele>26.270752</ele>
<time>2026-06-19T00:22:33.629Z</time>
</trkpt>
<trkpt lat="57.555672" lon="9.928714">
<ele>26.288424</ele>
<time>2026-06-19T00:22:40.195Z</time>
</trkpt>
<trkpt lat="57.555608" lon="9.929574">
<ele>26.317828</ele>
<time>2026-06-19T00:22:51.348Z</time>
</trkpt>
<trkpt lat="57.555595" lon="9.929746">
<ele>26.323710</ele>
<time>2026-06-19T00:22:53.613Z</time>
</trkpt>
<trkpt lat="57.555574" lon="9.930016">
<ele>26.388683</ele>
<time>2026-06-19T00:22:57.154Z</time>
</trkpt>
<trkpt lat="57.555497" lon="9.931051">
<ele>26.645950</ele>
<time>2026-06-19T00:23:10.996Z</time>
</trkpt>
<trkpt lat="57.555462" lon="9.931520">
<ele>26.762536</ele>
<time>2026-06-19T00:23:17.252Z</time>
</trkpt>
<trkpt lat="57.555360" lon="9.932892">
<ele>27.103568</ele>
<time>2026-06-19T00:23:35.046Z</time>
</trkpt>
<trkpt lat="57.555352" lon="9.932980">
<ele>27.125543</ele>
<time>2026-06-19T00:23:36.143Z</time>
</trkpt>
<trkpt lat="57.555334" lon="9.933226">
<ele>27.148239</ele>
<time>2026-06-19T00:23:39.190Z</time>
</trkpt>
<trkpt lat="57.555316" lon="9.933438">
<ele>27.146408</ele>
<time>2026-06-19T00:23:41.817Z</time>
</trkpt>
<trkpt lat="57.555229" lon="9.934604">
<ele>27.136364</ele>
<time>2026-06-19T00:23:56.001Z</time>
</trkpt>
<trkpt lat="57.555186" lon="9.935182">
<ele>27.131386</ele>
<time>2026-06-19T00:24:02.940Z</time>
</trkpt>
<trkpt lat="57.555022" lon="9.937394">
<ele>26.825706</ele>
<time>2026-06-19T00:24:28.671Z</time>
</trkpt>
<trkpt lat="57.554999" lon="9.937710">
<ele>26.732185</ele>
<time>2026-06-19T00:24:32.214Z</time>
</trkpt>
<trkpt lat="57.554995" lon="9.937777">
<ele>26.712415</ele>
<time>2026-06-19T00:24:32.961Z</time>
</trkpt>
<trkpt lat="57.554946" lon="9.938664">
<ele>26.450912</ele>
<time>2026-06-19T00:24:42.601Z</time>
</trkpt>
<trkpt lat="57.554985" lon="9.938667">
<ele>26.429575</ele>
<time>2026-06-19T00:24:43.413Z</time>
</trkpt>
<trkpt lat="57.555309" lon="9.938737">
<ele>26.251278</ele>
<time>2026-06-19T00:24:50.130Z</time>
</trkpt>
<trkpt lat="57.555331" lon="9.938741">
<ele>26.239195</ele>
<time>2026-06-19T00:24:50.602Z</time>
</trkpt>
<trkpt lat="57.556171" lon="9.938892">
<ele>25.699869</ele>
<time>2026-06-19T00:25:08.011Z</time>
</trkpt>
<trkpt lat="57.557345" lon="9.939081">
<ele>24.946482</ele>
<time>2026-06-19T00:25:32.727Z</time>
</trkpt>
<trkpt lat="57.558184" lon="9.939136">
<ele>25.060576</ele>
<time>2026-06-19T00:25:51.918Z</time>
</trkpt>
<trkpt lat="57.561217" lon="9.939285">
<ele>26.273002</ele>
<time>2026-06-19T00:27:08.404Z</time>
</trkpt>
<trkpt lat="57.561513" lon="9.939337">
<ele>26.399329</ele>
<time>2026-06-19T00:27:15.963Z</time>
</trkpt>
<trkpt lat="57.561843" lon="9.939455">
<ele>26.542103</ele>
<time>2026-06-19T00:27:24.455Z</time>
</trkpt>
<trkpt lat="57.564011" lon="9.940520">
<ele>27.251815</ele>
<time>2026-06-19T00:28:19.448Z</time>
</trkpt>
<trkpt lat="57.566080" lon="9.941548">
<ele>27.248448</ele>
<time>2026-06-19T00:29:08.765Z</time>
</trkpt>
<trkpt lat="57.566826" lon="9.941888">
<ele>27.200988</ele>
<time>2026-06-19T00:29:25.673Z</time>
</trkpt>
<trkpt lat="57.567665" lon="9.942066">
<ele>27.148725</ele>
<time>2026-06-19T00:29:45.267Z</time>
</trkpt>
<trkpt lat="57.567685" lon="9.942069">
<ele>27.147483</ele>
<time>2026-06-19T00:29:45.744Z</time>
</trkpt>
<trkpt lat="57.568740" lon="9.942224">
<ele>27.095110</ele>
<time>2026-06-19T00:30:10.696Z</time>
</trkpt>
<trkpt lat="57.569783" lon="9.942375">
<ele>27.047275</ele>
<time>2026-06-19T00:30:34.118Z</time>
</trkpt>
<trkpt lat="57.571424" lon="9.942642">
<ele>26.978302</ele>
<time>2026-06-19T00:31:12.208Z</time>
</trkpt>
<trkpt lat="57.571786" lon="9.942749">
<ele>26.926519</ele>
<time>2026-06-19T00:31:20.792Z</time>
</trkpt>
<trkpt lat="57.572179" lon="9.942887">
<ele>26.859447</ele>
<time>2026-06-19T00:31:29.827Z</time>
</trkpt>
<trkpt lat="57.572221" lon="9.942901">
<ele>26.852291</ele>
<time>2026-06-19T00:31:30.762Z</time>
</trkpt>
<trkpt lat="57.572937" lon="9.943145">
<ele>26.730217</ele>
<time>2026-06-19T00:31:46.907Z</time>
</trkpt>
<trkpt lat="57.573027" lon="9.943171">
<ele>26.714942</ele>
<time>2026-06-19T00:31:48.882Z</time>
</trkpt>
<trkpt lat="57.573147" lon="9.943217">
<ele>26.694395</ele>
<time>2026-06-19T00:31:51.574Z</time>
</trkpt>
<trkpt lat="57.575981" lon="9.944204">
<ele>26.059581</ele>
<time>2026-06-19T00:32:56.573Z</time>
</trkpt>
<trkpt lat="57.576994" lon="9.944579">
<ele>25.695796</ele>
<time>2026-06-19T00:33:18.787Z</time>
</trkpt>
<trkpt lat="57.578172" lon="9.945009">
<ele>25.104009</ele>
<time>2026-06-19T00:33:44.603Z</time>
</trkpt>
<trkpt lat="57.578617" lon="9.945217">
<ele>24.899508</ele>
<time>2026-06-19T00:33:54.364Z</time>
</trkpt>
<trkpt lat="57.578810" lon="9.945310">
<ele>24.881493</ele>
<time>2026-06-19T00:33:58.715Z</time>
</trkpt>
<trkpt lat="57.578744" lon="9.945056">
<ele>24.867816</ele>
<time>2026-06-19T00:34:01.907Z</time>
</trkpt>
<trkpt lat="57.578937" lon="9.944578">
<ele>24.838821</ele>
<time>2026-06-19T00:34:08.790Z</time>
</trkpt>
<trkpt lat="57.579046" lon="9.944416">
<ele>24.826225</ele>
<time>2026-06-19T00:34:11.830Z</time>
</trkpt>
<trkpt lat="57.579263" lon="9.944289">
<ele>24.805670</ele>
<time>2026-06-19T00:34:16.862Z</time>
</trkpt>
<trkpt lat="57.580297" lon="9.944045">
<ele>24.698928</ele>
<time>2026-06-19T00:34:40.822Z</time>
</trkpt>
<trkpt lat="57.580506" lon="9.943996">
<ele>24.672018</ele>
<time>2026-06-19T00:34:45.688Z</time>
</trkpt>
<trkpt lat="57.581309" lon="9.943803">
<ele>24.568586</ele>
<time>2026-06-19T00:35:03.277Z</time>
</trkpt>
<trkpt lat="57.581605" lon="9.943791">
<ele>24.530763</ele>
<time>2026-06-19T00:35:09.393Z</time>
</trkpt>
<trkpt lat="57.581960" lon="9.943844">
<ele>24.331336</ele>
<time>2026-06-19T00:35:16.707Z</time>
</trkpt>
<trkpt lat="57.582260" lon="9.943966">
<ele>24.066579</ele>
<time>2026-06-19T00:35:22.927Z</time>
</trkpt>
<trkpt lat="57.582578" lon="9.944182">
<ele>23.774764</ele>
<time>2026-06-19T00:35:29.702Z</time>
</trkpt>
<trkpt lat="57.583024" lon="9.944567">
<ele>23.351010</ele>
<time>2026-06-19T00:35:39.362Z</time>
</trkpt>
<trkpt lat="57.582992" lon="9.944676">
<ele>23.293564</ele>
<time>2026-06-19T00:35:40.612Z</time>
</trkpt>
<trkpt lat="57.583080" lon="9.944747">
<ele>23.210891</ele>
<time>2026-06-19T00:35:42.498Z</time>
</trkpt>
<trkpt lat="57.583686" lon="9.945294">
<ele>22.166213</ele>
<time>2026-06-19T00:35:55.097Z</time>
</trkpt>
<trkpt lat="57.584756" lon="9.946222">
<ele>19.720696</ele>
<time>2026-06-19T00:36:15.588Z</time>
</trkpt>
<trkpt lat="57.586338" lon="9.947335">
<ele>15.446325</ele>
<time>2026-06-19T00:36:43.604Z</time>
</trkpt>
<trkpt lat="57.586375" lon="9.947361">
<ele>15.343461</ele>
<time>2026-06-19T00:36:44.278Z</time>
</trkpt>
<trkpt lat="57.586818" lon="9.947608">
<ele>14.339614</ele>
<time>2026-06-19T00:36:52.408Z</time>
</trkpt>
<trkpt lat="57.587163" lon="9.947726">
<ele>13.866443</ele>
<time>2026-06-19T00:36:58.776Z</time>
</trkpt>
<trkpt lat="57.587172" lon="9.947857">
<ele>13.770942</ele>
<time>2026-06-19T00:37:00.095Z</time>
</trkpt>
<trkpt lat="57.587222" lon="9.947950">
<ele>13.675695</ele>
<time>2026-06-19T00:37:01.412Z</time>
</trkpt>
<trkpt lat="57.587326" lon="9.947944">
<ele>13.535329</ele>
<time>2026-06-19T00:37:03.369Z</time>
</trkpt>
<trkpt lat="57.587369" lon="9.947857">
<ele>13.449758</ele>
<time>2026-06-19T00:37:04.563Z</time>
</trkpt>
<trkpt lat="57.587380" lon="9.947740">
<ele>13.363864</ele>
<time>2026-06-19T00:37:05.782Z</time>
</trkpt>
<trkpt lat="57.587661" lon="9.947749">
<ele>12.984732</ele>
<time>2026-06-19T00:37:11.116Z</time>
</trkpt>
<trkpt lat="57.587780" lon="9.947786">
<ele>12.821984</ele>
<time>2026-06-19T00:37:13.426Z</time>
</trkpt>
<trkpt lat="57.588010" lon="9.947938">
<ele>12.492817</ele>
<time>2026-06-19T00:37:18.166Z</time>
</trkpt>
<trkpt lat="57.588121" lon="9.948033">
<ele>12.328071</ele>
<time>2026-06-19T00:37:20.516Z</time>
</trkpt>
<trkpt lat="57.588303" lon="9.948266">
<ele>12.078974</ele>
<time>2026-06-19T00:37:24.747Z</time>
</trkpt>
<trkpt lat="57.588536" lon="9.948800">
<ele>11.830212</ele>
<time>2026-06-19T00:37:31.931Z</time>
</trkpt>
<trkpt lat="57.588657" lon="9.949101">
<ele>11.694284</ele>
<time>2026-06-19T00:37:35.943Z</time>
</trkpt>
<trkpt lat="57.588896" lon="9.949676">
<ele>11.431410</ele>
<time>2026-06-19T00:37:43.869Z</time>
</trkpt>
<trkpt lat="57.589879" lon="9.952016">
<ele>10.366531</ele>
<time>2026-06-19T00:38:16.677Z</time>
</trkpt>
<trkpt lat="57.590158" lon="9.952551">
<ele>10.101310</ele>
<time>2026-06-19T00:38:24.589Z</time>
</trkpt>
<trkpt lat="57.590204" lon="9.952640">
<ele>10.057380</ele>
<time>2026-06-19T00:38:25.910Z</time>
</trkpt>
<trkpt lat="57.590277" lon="9.952775">
<ele>9.989243</ele>
<time>2026-06-19T00:38:27.921Z</time>
</trkpt>
<trkpt lat="57.590480" lon="9.953147">
<ele>9.800618</ele>
<time>2026-06-19T00:38:33.502Z</time>
</trkpt>
<trkpt lat="57.590502" lon="9.953186">
<ele>9.780501</ele>
<time>2026-06-19T00:38:34.103Z</time>
</trkpt>
<trkpt lat="57.590582" lon="9.953350">
<ele>9.724813</ele>
<time>2026-06-19T00:38:36.446Z</time>
</trkpt>
<trkpt lat="57.590793" lon="9.953749">
<ele>9.742860</ele>
<time>2026-06-19T00:38:42.334Z</time>
</trkpt>
<trkpt lat="57.590942" lon="9.954147">
<ele>9.758490</ele>
<time>2026-06-19T00:38:47.397Z</time>
</trkpt>
<trkpt lat="57.591022" lon="9.954496">
<ele>9.770711</ele>
<time>2026-06-19T00:38:51.444Z</time>
</trkpt>
<trkpt lat="57.591063" lon="9.954934">
<ele>9.785026</ele>
<time>2026-06-19T00:38:56.970Z</time>
</trkpt>
<trkpt lat="57.591084" lon="9.955407">
<ele>9.800307</ele>
<time>2026-06-19T00:39:03.467Z</time>
</trkpt>
<trkpt lat="57.591130" lon="9.955763">
<ele>9.812097</ele>
<time>2026-06-19T00:39:08.487Z</time>
</trkpt>
<trkpt lat="57.591144" lon="9.955834">
<ele>9.814533</ele>
<time>2026-06-19T00:39:09.581Z</time>
</trkpt>
<trkpt lat="57.591175" lon="9.955975">
<ele>9.819440</ele>
<time>2026-06-19T00:39:11.734Z</time>
</trkpt>
<trkpt lat="57.591254" lon="9.956296">
<ele>9.830812</ele>
<time>2026-06-19T00:39:16.635Z</time>
</trkpt>
<trkpt lat="57.591025" lon="9.956361">
<ele>10.021953</ele>
<time>2026-06-19T00:39:24.440Z</time>
</trkpt>
<trkpt lat="57.590833" lon="9.956384">
<ele>10.182088</ele>
<time>2026-06-19T00:39:30.819Z</time>
</trkpt>
<trkpt lat="57.590789" lon="9.956375">
<ele>10.218930</ele>
<time>2026-06-19T00:39:32.253Z</time>
</trkpt>
<trkpt lat="57.590762" lon="9.956530">
<ele>10.291635</ele>
<time>2026-06-19T00:39:34.619Z</time>
</trkpt>
<trkpt lat="57.590748" lon="9.956665">
<ele>10.352975</ele>
<time>2026-06-19T00:39:36.506Z</time>
</trkpt>
<trkpt lat="57.590714" lon="9.957161">
<ele>10.576040</ele>
<time>2026-06-19T00:39:43.701Z</time>
</trkpt>
<trkpt lat="57.590703" lon="9.957434">
<ele>10.698168</ele>
<time>2026-06-19T00:39:47.783Z</time>
</trkpt>
<trkpt lat="57.590685" lon="9.957770">
<ele>10.848803</ele>
<time>2026-06-19T00:39:52.922Z</time>
</trkpt>
<trkpt lat="57.590651" lon="9.958498">
<ele>11.174792</ele>
<time>2026-06-19T00:40:02.663Z</time>
</trkpt>
<trkpt lat="57.590635" lon="9.958818">
<ele>11.318163</ele>
<time>2026-06-19T00:40:06.619Z</time>
</trkpt>
<trkpt lat="57.590620" lon="9.959125">
<ele>11.281556</ele>
<time>2026-06-19T00:40:10.262Z</time>
</trkpt>
<trkpt lat="57.590592" lon="9.959693">
<ele>11.189011</ele>
<time>2026-06-19T00:40:16.724Z</time>
</trkpt>
<trkpt lat="57.590543" lon="9.960760">
<ele>11.015260</ele>
<time>2026-06-19T00:40:28.616Z</time>
</trkpt>
<trkpt lat="57.590536" lon="9.960905">
<ele>10.991639</ele>
<time>2026-06-19T00:40:30.161Z</time>
</trkpt>
<trkpt lat="57.590531" lon="9.961033">
<ele>10.970817</ele>
<time>2026-06-19T00:40:31.515Z</time>
</trkpt>
<trkpt lat="57.590505" lon="9.961643">
<ele>10.871534</ele>
<time>2026-06-19T00:40:37.922Z</time>
</trkpt>
<trkpt lat="57.590497" lon="9.961842">
<ele>10.839156</ele>
<time>2026-06-19T00:40:40.099Z</time>
</trkpt>
<trkpt lat="57.590466" lon="9.962644">
<ele>11.012427</ele>
<time>2026-06-19T00:40:48.994Z</time>
</trkpt>
<trkpt lat="57.590393" lon="9.963298">
<ele>11.344039</ele>
<time>2026-06-19T00:40:57.455Z</time>
</trkpt>
<trkpt lat="57.590370" lon="9.963424">
<ele>11.410114</ele>
<time>2026-06-19T00:40:59.311Z</time>
</trkpt>
<trkpt lat="57.590302" lon="9.963393">
<ele>11.474947</ele>
<time>2026-06-19T00:41:01.157Z</time>
</trkpt>
<trkpt lat="57.590211" lon="9.963481">
<ele>11.569877</ele>
<time>2026-06-19T00:41:03.968Z</time>
</trkpt>
<trkpt lat="57.590184" lon="9.963612">
<ele>11.639549</ele>
<time>2026-06-19T00:41:05.978Z</time>
</trkpt>
<trkpt lat="57.590203" lon="9.963747">
<ele>11.708836</ele>
<time>2026-06-19T00:41:08.044Z</time>
</trkpt>
<trkpt lat="57.590228" lon="9.963801">
<ele>11.744257</ele>
<time>2026-06-19T00:41:09.047Z</time>
</trkpt>
<trkpt lat="57.590171" lon="9.963878">
<ele>11.809434</ele>
<time>2026-06-19T00:41:11.005Z</time>
</trkpt>
<trkpt lat="57.589842" lon="9.964260">
<ele>12.168333</ele>
<time>2026-06-19T00:41:22.014Z</time>
</trkpt>
<trkpt lat="57.589671" lon="9.964332">
<ele>12.330693</ele>
<time>2026-06-19T00:41:27.290Z</time>
</trkpt>
<trkpt lat="57.589462" lon="9.964396">
<ele>12.534746</ele>
<time>2026-06-19T00:41:33.841Z</time>
</trkpt>
<trkpt lat="57.588739" lon="9.964770">
<ele>13.300425</ele>
<time>2026-06-19T00:41:55.935Z</time>
</trkpt>
<trkpt lat="57.588507" lon="9.964845">
<ele>13.540716</ele>
<time>2026-06-19T00:42:02.105Z</time>
</trkpt>
<trkpt lat="57.588162" lon="9.964943">
<ele>13.896856</ele>
<time>2026-06-19T00:42:10.528Z</time>
</trkpt>
<trkpt lat="57.588136" lon="9.964863">
<ele>13.948033</ele>
<time>2026-06-19T00:42:11.710Z</time>
</trkpt>
<trkpt lat="57.588088" lon="9.964832">
<ele>13.999870</ele>
<time>2026-06-19T00:42:12.902Z</time>
</trkpt>
<trkpt lat="57.588041" lon="9.964863">
<ele>14.050744</ele>
<time>2026-06-19T00:42:14.034Z</time>
</trkpt>
<trkpt lat="57.588015" lon="9.964991">
<ele>14.125620</ele>
<time>2026-06-19T00:42:15.706Z</time>
</trkpt>
<trkpt lat="57.588040" lon="9.965076">
<ele>14.178656</ele>
<time>2026-06-19T00:42:16.882Z</time>
</trkpt>
<trkpt lat="57.588094" lon="9.965109">
<ele>14.236646</ele>
<time>2026-06-19T00:42:18.120Z</time>
</trkpt>
<trkpt lat="57.588084" lon="9.965437">
<ele>14.187814</ele>
<time>2026-06-19T00:42:21.951Z</time>
</trkpt>
<trkpt lat="57.588076" lon="9.965566">
<ele>14.135303</ele>
<time>2026-06-19T00:42:23.448Z</time>
</trkpt>
<trkpt lat="57.588075" lon="9.966008">
<ele>13.956573</ele>
<time>2026-06-19T00:42:28.399Z</time>
</trkpt>
<trkpt lat="57.588074" lon="9.966039">
<ele>13.944016</ele>
<time>2026-06-19T00:42:28.751Z</time>
</trkpt>
<trkpt lat="57.588071" lon="9.966368">
<ele>13.810961</ele>
<time>2026-06-19T00:42:32.369Z</time>
</trkpt>
<trkpt lat="57.588062" lon="9.967236">
<ele>13.459909</ele>
<time>2026-06-19T00:42:41.498Z</time>
</trkpt>
<trkpt lat="57.588040" lon="9.969132">
<ele>12.659741</ele>
<time>2026-06-19T00:43:00.567Z</time>
</trkpt>
<trkpt lat="57.588027" lon="9.970747">
<ele>11.914019</ele>
<time>2026-06-19T00:43:17.483Z</time>
</trkpt>
<trkpt lat="57.587978" lon="9.970778">
<ele>11.869451</ele>
<time>2026-06-19T00:43:18.553Z</time>
</trkpt>
<trkpt lat="57.587949" lon="9.970859">
<ele>11.824479</ele>
<time>2026-06-19T00:43:19.622Z</time>
</trkpt>
<trkpt lat="57.587952" lon="9.970956">
<ele>11.779620</ele>
<time>2026-06-19T00:43:20.687Z</time>
</trkpt>
<trkpt lat="57.587983" lon="9.971026">
<ele>11.737697</ele>
<time>2026-06-19T00:43:21.679Z</time>
</trkpt>
<trkpt lat="57.588029" lon="9.971051">
<ele>11.696427</ele>
<time>2026-06-19T00:43:22.667Z</time>
</trkpt>
<trkpt lat="57.588026" lon="9.971305">
<ele>11.579128</ele>
<time>2026-06-19T00:43:25.463Z</time>
</trkpt>
<trkpt lat="57.588009" lon="9.972647">
<ele>11.044075</ele>
<time>2026-06-19T00:43:40.145Z</time>
</trkpt>
<trkpt lat="57.588007" lon="9.972778">
<ele>10.995790</ele>
<time>2026-06-19T00:43:41.570Z</time>
</trkpt>
<trkpt lat="57.587996" lon="9.974217">
<ele>10.465556</ele>
<time>2026-06-19T00:43:56.794Z</time>
</trkpt>
<trkpt lat="57.587982" lon="9.975450">
<ele>10.067595</ele>
<time>2026-06-19T00:44:09.809Z</time>
</trkpt>
<trkpt lat="57.587948" lon="9.975938">
<ele>9.964235</ele>
<time>2026-06-19T00:44:15.272Z</time>
</trkpt>
<trkpt lat="57.587861" lon="9.976500">
<ele>9.841370</ele>
<time>2026-06-19T00:44:21.762Z</time>
</trkpt>
<trkpt lat="57.587707" lon="9.977068">
<ele>9.707674</ele>
<time>2026-06-19T00:44:28.818Z</time>
</trkpt>
<trkpt lat="57.587561" lon="9.977442">
<ele>9.610495</ele>
<time>2026-06-19T00:44:34.109Z</time>
</trkpt>
<trkpt lat="57.587381" lon="9.977806">
<ele>9.506474</ele>
<time>2026-06-19T00:44:39.924Z</time>
</trkpt>
<trkpt lat="57.587295" lon="9.977982">
<ele>9.456452</ele>
<time>2026-06-19T00:44:42.731Z</time>
</trkpt>
<trkpt lat="57.586962" lon="9.978661">
<ele>9.630330</ele>
<time>2026-06-19T00:44:53.781Z</time>
</trkpt>
<trkpt lat="57.586604" lon="9.978052">
<ele>9.840062</ele>
<time>2026-06-19T00:45:04.660Z</time>
</trkpt>
<trkpt lat="57.586525" lon="9.978118">
<ele>9.877534</ele>
<time>2026-06-19T00:45:06.634Z</time>
</trkpt>
<trkpt lat="57.586445" lon="9.977971">
<ele>9.926144</ele>
<time>2026-06-19T00:45:09.312Z</time>
</trkpt>
<trkpt lat="57.586001" lon="9.977183">
<ele>10.191433</ele>
<time>2026-06-19T00:45:24.977Z</time>
</trkpt>
<trkpt lat="57.585901" lon="9.977185">
<ele>10.259133</ele>
<time>2026-06-19T00:45:27.664Z</time>
</trkpt>
<trkpt lat="57.584770" lon="9.978108">
<ele>11.498844</ele>
<time>2026-06-19T00:46:01.534Z</time>
</trkpt>
<trkpt lat="57.584036" lon="9.978740">
<ele>12.100756</ele>
<time>2026-06-19T00:46:21.399Z</time>
</trkpt>
<trkpt lat="57.584149" lon="9.979385">
<ele>12.199965</ele>
<time>2026-06-19T00:46:30.025Z</time>
</trkpt>
<trkpt lat="57.584195" lon="9.979494">
<ele>12.220246</ele>
<time>2026-06-19T00:46:31.794Z</time>
</trkpt>
<trkpt lat="57.584400" lon="9.979680">
<ele>12.282420</ele>
<time>2026-06-19T00:46:37.074Z</time>
</trkpt>
<trkpt lat="57.584509" lon="9.980703">
<ele>12.434909</ele>
<time>2026-06-19T00:46:49.449Z</time>
</trkpt>
<trkpt lat="57.584549" lon="9.981111">
<ele>12.495548</ele>
<time>2026-06-19T00:46:54.476Z</time>
</trkpt>
<trkpt lat="57.584568" lon="9.981414">
<ele>12.532122</ele>
<time>2026-06-19T00:46:58.308Z</time>
</trkpt>
<trkpt lat="57.584531" lon="9.981931">
<ele>12.585799</ele>
<time>2026-06-19T00:47:04.960Z</time>
</trkpt>
<trkpt lat="57.584450" lon="9.982288">
<ele>12.625694</ele>
<time>2026-06-19T00:47:09.899Z</time>
</trkpt>
<trkpt lat="57.583945" lon="9.984529">
<ele>12.860069</ele>
<time>2026-06-19T00:47:39.748Z</time>
</trkpt>
<trkpt lat="57.583700" lon="9.985836">
<ele>12.874114</ele>
<time>2026-06-19T00:47:56.350Z</time>
</trkpt>
<trkpt lat="57.583540" lon="9.986865">
<ele>12.884983</ele>
<time>2026-06-19T00:48:09.289Z</time>
</trkpt>
<trkpt lat="57.583511" lon="9.987309">
<ele>12.889520</ele>
<time>2026-06-19T00:48:14.659Z</time>
</trkpt>
<trkpt lat="57.583525" lon="9.989100">
<ele>12.517055</ele>
<time>2026-06-19T00:48:35.154Z</time>
</trkpt>
<trkpt lat="57.583525" lon="9.989405">
<ele>12.441223</ele>
<time>2026-06-19T00:48:38.553Z</time>
</trkpt>
<trkpt lat="57.583465" lon="9.989417">
<ele>12.413235</ele>
<time>2026-06-19T00:48:39.789Z</time>
</trkpt>
<trkpt lat="57.583440" lon="9.989474">
<ele>12.394924</ele>
<time>2026-06-19T00:48:40.619Z</time>
</trkpt>
<trkpt lat="57.583312" lon="9.990796">
<ele>12.060914</ele>
<time>2026-06-19T00:48:55.061Z</time>
</trkpt>
<trkpt lat="57.583289" lon="9.991173">
<ele>11.929409</ele>
<time>2026-06-19T00:48:58.980Z</time>
</trkpt>
<trkpt lat="57.583301" lon="9.991487">
<ele>11.819378</ele>
<time>2026-06-19T00:49:02.246Z</time>
</trkpt>
<trkpt lat="57.583354" lon="9.991663">
<ele>11.748819</ele>
<time>2026-06-19T00:49:04.353Z</time>
</trkpt>
<trkpt lat="57.583559" lon="9.992077">
<ele>11.551827</ele>
<time>2026-06-19T00:49:10.246Z</time>
</trkpt>
<trkpt lat="57.583537" lon="9.992370">
<ele>11.448416</ele>
<time>2026-06-19T00:49:13.361Z</time>
</trkpt>
<trkpt lat="57.583529" lon="9.993376">
<ele>11.096752</ele>
<time>2026-06-19T00:49:24.226Z</time>
</trkpt>
<trkpt lat="57.583487" lon="9.993775">
<ele>10.954627</ele>
<time>2026-06-19T00:49:28.723Z</time>
</trkpt>
<trkpt lat="57.583384" lon="9.994359">
<ele>10.887082</ele>
<time>2026-06-19T00:49:35.664Z</time>
</trkpt>
<trkpt lat="57.582931" lon="9.996965">
<ele>10.898086</ele>
<time>2026-06-19T00:50:09.563Z</time>
</trkpt>
<trkpt lat="57.582695" lon="9.998524">
<ele>10.653883</ele>
<time>2026-06-19T00:50:28.200Z</time>
</trkpt>
<trkpt lat="57.582649" lon="9.999044">
<ele>10.563021</ele>
<time>2026-06-19T00:50:33.900Z</time>
</trkpt>
<trkpt lat="57.582553" lon="10.000810">
<ele>10.269247</ele>
<time>2026-06-19T00:50:53.503Z</time>
</trkpt>
<trkpt lat="57.582456" lon="10.001319">
<ele>10.194097</ele>
<time>2026-06-19T00:50:59.514Z</time>
</trkpt>
<trkpt lat="57.582489" lon="10.001518">
<ele>10.165120</ele>
<time>2026-06-19T00:51:02.602Z</time>
</trkpt>
<trkpt lat="57.582491" lon="10.001684">
<ele>10.142021</ele>
<time>2026-06-19T00:51:05.098Z</time>
</trkpt>
<trkpt lat="57.582491" lon="10.001704">
<ele>10.139239</ele>
<time>2026-06-19T00:51:05.392Z</time>
</trkpt>
<trkpt lat="57.582456" lon="10.001860">
<ele>10.115713</ele>
<time>2026-06-19T00:51:07.944Z</time>
</trkpt>
<trkpt lat="57.582376" lon="10.001967">
<ele>10.090168</ele>
<time>2026-06-19T00:51:10.723Z</time>
</trkpt>
<trkpt lat="57.582288" lon="10.002012">
<ele>10.066490</ele>
<time>2026-06-19T00:51:13.341Z</time>
</trkpt>
<trkpt lat="57.582193" lon="10.002347">
<ele>10.013768</ele>
<time>2026-06-19T00:51:17.785Z</time>
</trkpt>
<trkpt lat="57.582014" lon="10.002726">
<ele>9.943500</ele>
<time>2026-06-19T00:51:23.870Z</time>
</trkpt>
<trkpt lat="57.581829" lon="10.003065">
<ele>9.876204</ele>
<time>2026-06-19T00:51:29.573Z</time>
</trkpt>
<trkpt lat="57.581350" lon="10.003692">
<ele>9.766825</ele>
<time>2026-06-19T00:51:42.303Z</time>
</trkpt>
<trkpt lat="57.579873" lon="10.005372">
<ele>9.383768</ele>
<time>2026-06-19T00:52:19.673Z</time>
</trkpt>
<trkpt lat="57.579298" lon="10.006056">
<ele>9.135497</ele>
<time>2026-06-19T00:52:33.282Z</time>
</trkpt>
<trkpt lat="57.578858" lon="10.006610">
<ele>8.942238</ele>
<time>2026-06-19T00:52:44.063Z</time>
</trkpt>
<trkpt lat="57.578795" lon="10.006759">
<ele>8.905201</ele>
<time>2026-06-19T00:52:46.207Z</time>
</trkpt>
<trkpt lat="57.578811" lon="10.007287">
<ele>9.126405</ele>
<time>2026-06-19T00:52:52.557Z</time>
</trkpt>
<trkpt lat="57.578858" lon="10.007949">
<ele>9.502767</ele>
<time>2026-06-19T00:53:01.284Z</time>
</trkpt>
<trkpt lat="57.579206" lon="10.012479">
<ele>12.185614</ele>
<time>2026-06-19T00:54:11.114Z</time>
</trkpt>
<trkpt lat="57.579394" lon="10.017710">
<ele>13.578783</ele>
<time>2026-06-19T00:55:16.858Z</time>
</trkpt>
<trkpt lat="57.579464" lon="10.019642">
<ele>14.029207</ele>
<time>2026-06-19T00:55:41.843Z</time>
</trkpt>
<trkpt lat="57.579493" lon="10.020522">
<ele>14.218878</ele>
<time>2026-06-19T00:55:53.364Z</time>
</trkpt>
<trkpt lat="57.579756" lon="10.028709">
<ele>15.333984</ele>
<time>2026-06-19T00:57:36.742Z</time>
</trkpt>
<trkpt lat="57.581554" lon="10.028448">
<ele>14.799478</ele>
<time>2026-06-19T00:58:13.971Z</time>
</trkpt>
<trkpt lat="57.581667" lon="10.028440">
<ele>14.743108</ele>
<time>2026-06-19T00:58:16.261Z</time>
</trkpt>
<trkpt lat="57.581766" lon="10.033066">
<ele>13.647842</ele>
<time>2026-06-19T00:59:07.382Z</time>
</trkpt>
<trkpt lat="57.581867" lon="10.035383">
<ele>13.083271</ele>
<time>2026-06-19T00:59:34.127Z</time>
</trkpt>
<trkpt lat="57.581895" lon="10.035867">
<ele>12.964820</ele>
<time>2026-06-19T00:59:39.432Z</time>
</trkpt>
<trkpt lat="57.581932" lon="10.036005">
<ele>12.927277</ele>
<time>2026-06-19T00:59:41.083Z</time>
</trkpt>
<trkpt lat="57.581998" lon="10.036095">
<ele>12.890170</ele>
<time>2026-06-19T00:59:42.704Z</time>
</trkpt>
<trkpt lat="57.582175" lon="10.036156">
<ele>12.802257</ele>
<time>2026-06-19T00:59:46.223Z</time>
</trkpt>
<trkpt lat="57.583420" lon="10.036160">
<ele>11.904411</ele>
<time>2026-06-19T01:00:10.116Z</time>
</trkpt>
<trkpt lat="57.583471" lon="10.036187">
<ele>11.866179</ele>
<time>2026-06-19T01:00:11.168Z</time>
</trkpt>
<trkpt lat="57.583546" lon="10.036340">
<ele>11.786029</ele>
<time>2026-06-19T01:00:13.396Z</time>
</trkpt>
<trkpt lat="57.583569" lon="10.036481">
<ele>11.729052</ele>
<time>2026-06-19T01:00:14.988Z</time>
</trkpt>
<trkpt lat="57.583494" lon="10.040789">
<ele>11.559342</ele>
<time>2026-06-19T01:01:07.319Z</time>
</trkpt>
<trkpt lat="57.583474" lon="10.041901">
<ele>11.532127</ele>
<time>2026-06-19T01:01:20.544Z</time>
</trkpt>
<trkpt lat="57.583517" lon="10.042332">
<ele>11.521404</ele>
<time>2026-06-19T01:01:25.688Z</time>
</trkpt>
<trkpt lat="57.583557" lon="10.042516">
<ele>11.516547</ele>
<time>2026-06-19T01:01:28.007Z</time>
</trkpt>
<trkpt lat="57.583590" lon="10.042678">
<ele>11.512308</ele>
<time>2026-06-19T01:01:31.397Z</time>
</trkpt>
<trkpt lat="57.583923" lon="10.043525">
<ele>11.484565</ele>
<time>2026-06-19T01:01:51.939Z</time>
</trkpt>
<trkpt lat="57.583981" lon="10.043804">
<ele>11.460777</ele>
<time>2026-06-19T01:01:57.755Z</time>
</trkpt>
<trkpt lat="57.584048" lon="10.044738">
<ele>11.385865</ele>
<time>2026-06-19T01:02:16.187Z</time>
</trkpt>
<trkpt lat="57.584138" lon="10.045394">
<ele>11.332035</ele>
<time>2026-06-19T01:02:29.470Z</time>
</trkpt>
<trkpt lat="57.584135" lon="10.045870">
<ele>11.294192</ele>
<time>2026-06-19T01:02:38.787Z</time>
</trkpt>
<trkpt lat="57.584184" lon="10.046715">
<ele>11.226627</ele>
<time>2026-06-19T01:02:55.423Z</time>
</trkpt>
<trkpt lat="57.584232" lon="10.047505">
<ele>11.149211</ele>
<time>2026-06-19T01:03:10.972Z</time>
</trkpt>
<trkpt lat="57.584187" lon="10.049199">
<ele>10.980981</ele>
<time>2026-06-19T01:03:43.927Z</time>
</trkpt>
<trkpt lat="57.584202" lon="10.049681">
<ele>10.933092</ele>
<time>2026-06-19T01:03:53.340Z</time>
</trkpt>
<trkpt lat="57.584100" lon="10.050482">
<ele>10.926496</ele>
<time>2026-06-19T01:04:09.359Z</time>
</trkpt>
<trkpt lat="57.584054" lon="10.051635">
<ele>11.047285</ele>
<time>2026-06-19T01:04:32.088Z</time>
</trkpt>
<trkpt lat="57.584019" lon="10.052514">
<ele>11.139369</ele>
<time>2026-06-19T01:04:50.252Z</time>
</trkpt>
<trkpt lat="57.584084" lon="10.053138">
<ele>11.205779</ele>
<time>2026-06-19T01:05:03.679Z</time>
</trkpt>
<trkpt lat="57.584087" lon="10.053420">
<ele>11.235246</ele>
<time>2026-06-19T01:05:09.667Z</time>
</trkpt>
<trkpt lat="57.584050" lon="10.053988">
<ele>11.348388</ele>
<time>2026-06-19T01:05:21.894Z</time>
</trkpt>
<trkpt lat="57.584082" lon="10.054284">
<ele>11.409731</ele>
<time>2026-06-19T01:05:28.363Z</time>
</trkpt>
<trkpt lat="57.584046" lon="10.054454">
<ele>11.446864</ele>
<time>2026-06-19T01:05:31.113Z</time>
</trkpt>
<trkpt lat="57.583761" lon="10.057246">
<ele>11.832551</ele>
<time>2026-06-19T01:06:10.679Z</time>
</trkpt>
<trkpt lat="57.583627" lon="10.061352">
<ele>11.428454</ele>
<time>2026-06-19T01:07:28.297Z</time>
</trkpt>
<trkpt lat="57.583597" lon="10.061696">
<ele>11.450922</ele>
<time>2026-06-19T01:07:35.195Z</time>
</trkpt>
<trkpt lat="57.583379" lon="10.062839">
<ele>11.529133</ele>
<time>2026-06-19T01:08:00.449Z</time>
</trkpt>
<trkpt lat="57.582866" lon="10.065444">
<ele>11.906720</ele>
<time>2026-06-19T01:09:00.479Z</time>
</trkpt>
<trkpt lat="57.583814" lon="10.065456">
<ele>11.891025</ele>
<time>2026-06-19T01:09:33.695Z</time>
</trkpt>
<trkpt lat="57.583944" lon="10.065522">
<ele>11.821536</ele>
<time>2026-06-19T01:09:38.188Z</time>
</trkpt>
<trkpt lat="57.584632" lon="10.066448">
<ele>11.383970</ele>
<time>2026-06-19T01:10:07.363Z</time>
</trkpt>
<trkpt lat="57.584560" lon="10.066629">
<ele>11.321653</ele>
<time>2026-06-19T01:10:11.725Z</time>
</trkpt>
<trkpt lat="57.584006" lon="10.067684">
<ele>11.177733</ele>
<time>2026-06-19T01:10:40.968Z</time>
</trkpt>
<trkpt lat="57.583990" lon="10.067713">
<ele>11.179224</ele>
<time>2026-06-19T01:10:41.812Z</time>
</trkpt>
<trkpt lat="57.583899" lon="10.067948">
<ele>11.189611</ele>
<time>2026-06-19T01:10:47.732Z</time>
</trkpt>
<trkpt lat="57.583092" lon="10.071542">
<ele>11.139595</ele>
<time>2026-06-19T01:12:06.540Z</time>
</trkpt>
<trkpt lat="57.582953" lon="10.072163">
<ele>11.089485</ele>
<time>2026-06-19T01:12:19.615Z</time>
</trkpt>
<trkpt lat="57.582950" lon="10.072309">
<ele>11.078606</ele>
<time>2026-06-19T01:12:22.422Z</time>
</trkpt>
<trkpt lat="57.583615" lon="10.072724">
<ele>10.848395</ele>
<time>2026-06-19T01:12:46.978Z</time>
</trkpt>
<trkpt lat="57.583775" lon="10.072968">
<ele>10.715480</ele>
<time>2026-06-19T01:12:54.065Z</time>
</trkpt>
<trkpt lat="57.584358" lon="10.074027">
<ele>10.192126</ele>
<time>2026-06-19T01:13:21.423Z</time>
</trkpt>
<trkpt lat="57.583917" lon="10.076256">
<ele>9.947027</ele>
<time>2026-06-19T01:13:51.989Z</time>
</trkpt>
<trkpt lat="57.583481" lon="10.078711">
<ele>10.162674</ele>
<time>2026-06-19T01:14:28.295Z</time>
</trkpt>
<trkpt lat="57.583136" lon="10.081727">
<ele>10.628571</ele>
<time>2026-06-19T01:15:10.851Z</time>
</trkpt>
<trkpt lat="57.583196" lon="10.083136">
<ele>10.840927</ele>
<time>2026-06-19T01:15:30.932Z</time>
</trkpt>
<trkpt lat="57.583407" lon="10.087557">
<ele>11.064009</ele>
<time>2026-06-19T01:16:31.506Z</time>
</trkpt>
<trkpt lat="57.583438" lon="10.087956">
<ele>11.062283</ele>
<time>2026-06-19T01:16:36.382Z</time>
</trkpt>
<trkpt lat="57.583509" lon="10.088378">
<ele>10.918991</ele>
<time>2026-06-19T01:16:41.577Z</time>
</trkpt>
<trkpt lat="57.584199" lon="10.090401">
<ele>9.972314</ele>
<time>2026-06-19T01:17:09.829Z</time>
</trkpt>
<trkpt lat="57.584292" lon="10.090754">
<ele>9.817024</ele>
<time>2026-06-19T01:17:14.534Z</time>
</trkpt>
<trkpt lat="57.584352" lon="10.091153">
<ele>9.682940</ele>
<time>2026-06-19T01:17:19.550Z</time>
</trkpt>
<trkpt lat="57.584539" lon="10.094680">
<ele>8.982087</ele>
<time>2026-06-19T01:18:03.374Z</time>
</trkpt>
<trkpt lat="57.584578" lon="10.095465">
<ele>9.184304</ele>
<time>2026-06-19T01:18:13.761Z</time>
</trkpt>
<trkpt lat="57.584615" lon="10.097505">
<ele>9.707866</ele>
<time>2026-06-19T01:18:44.286Z</time>
</trkpt>
<trkpt lat="57.584600" lon="10.097818">
<ele>9.851801</ele>
<time>2026-06-19T01:18:49.344Z</time>
</trkpt>
<trkpt lat="57.583954" lon="10.102782">
<ele>12.449821</ele>
<time>2026-06-19T01:20:09.635Z</time>
</trkpt>
<trkpt lat="57.583960" lon="10.103131">
<ele>12.580804</ele>
<time>2026-06-19T01:20:14.689Z</time>
</trkpt>
<trkpt lat="57.584876" lon="10.107946">
<ele>12.475062</ele>
<time>2026-06-19T01:21:54.703Z</time>
</trkpt>
<trkpt lat="57.584912" lon="10.108138">
<ele>12.407808</ele>
<time>2026-06-19T01:21:58.583Z</time>
</trkpt>
<trkpt lat="57.585263" lon="10.111406">
<ele>10.982613</ele>
<time>2026-06-19T01:23:00.123Z</time>
</trkpt>
<trkpt lat="57.585331" lon="10.111755">
<ele>10.722085</ele>
<time>2026-06-19T01:23:06.608Z</time>
</trkpt>
<trkpt lat="57.585425" lon="10.111992">
<ele>10.515241</ele>
<time>2026-06-19T01:23:11.693Z</time>
</trkpt>
<trkpt lat="57.586302" lon="10.113095">
<ele>9.165463</ele>
<time>2026-06-19T01:23:45.947Z</time>
</trkpt>
<trkpt lat="57.586416" lon="10.113295">
<ele>9.025675</ele>
<time>2026-06-19T01:23:51.093Z</time>
</trkpt>
<trkpt lat="57.586485" lon="10.113493">
<ele>8.912595</ele>
<time>2026-06-19T01:23:55.294Z</time>
</trkpt>
<trkpt lat="57.586513" lon="10.113670">
<ele>8.824231</ele>
<time>2026-06-19T01:23:58.615Z</time>
</trkpt>
<trkpt lat="57.586528" lon="10.113765">
<ele>8.776811</ele>
<time>2026-06-19T01:24:00.389Z</time>
</trkpt>
<trkpt lat="57.586826" lon="10.116522">
<ele>7.494642</ele>
<time>2026-06-19T01:24:52.716Z</time>
</trkpt>
<trkpt lat="57.587179" lon="10.118505">
<ele>6.812140</ele>
<time>2026-06-19T01:25:31.040Z</time>
</trkpt>
<trkpt lat="57.587238" lon="10.119088">
<ele>6.618349</ele>
<time>2026-06-19T01:25:42.289Z</time>
</trkpt>
<trkpt lat="57.587242" lon="10.119176">
<ele>6.589502</ele>
<time>2026-06-19T01:25:43.977Z</time>
</trkpt>
<trkpt lat="57.587329" lon="10.121205">
<ele>6.666836</ele>
<time>2026-06-19T01:26:24.922Z</time>
</trkpt>
<trkpt lat="57.587424" lon="10.125060">
<ele>6.882972</ele>
<time>2026-06-19T01:27:44.432Z</time>
</trkpt>
<trkpt lat="57.587569" lon="10.126309">
<ele>6.852576</ele>
<time>2026-06-19T01:28:08.716Z</time>
</trkpt>
<trkpt lat="57.588310" lon="10.133908">
<ele>4.817449</ele>
<time>2026-06-19T01:30:34.590Z</time>
</trkpt>
<trkpt lat="57.588182" lon="10.135266">
<ele>4.458244</ele>
<time>2026-06-19T01:31:01.024Z</time>
</trkpt>
<trkpt lat="57.588150" lon="10.136338">
<ele>4.054862</ele>
<time>2026-06-19T01:31:21.178Z</time>
</trkpt>
<trkpt lat="57.588169" lon="10.136613">
<ele>3.898972</ele>
<time>2026-06-19T01:31:26.289Z</time>
</trkpt>
<trkpt lat="57.588889" lon="10.139281">
<ele>2.123453</ele>
<time>2026-06-19T01:32:19.763Z</time>
</trkpt>
<trkpt lat="57.588928" lon="10.139596">
<ele>1.844148</ele>
<time>2026-06-19T01:32:25.400Z</time>
</trkpt>
<trkpt lat="57.588886" lon="10.140340">
<ele>1.197824</ele>
<time>2026-06-19T01:32:38.119Z</time>
</trkpt>
<trkpt lat="57.588781" lon="10.141198">
<ele>0.437489</ele>
<time>2026-06-19T01:32:52.928Z</time>
</trkpt>
<trkpt lat="57.588654" lon="10.141851">
<ele>-0.162655</ele>
<time>2026-06-19T01:33:04.864Z</time>
</trkpt>
<trkpt lat="57.588439" lon="10.142246">
<ele>-0.516513</ele>
<time>2026-06-19T01:33:14.729Z</time>
</trkpt>
<trkpt lat="57.588787" lon="10.142882">
<ele>-0.601410</ele>
<time>2026-06-19T01:33:31.117Z</time>
</trkpt>
<trkpt lat="57.589150" lon="10.143748">
<ele>-0.704102</ele>
<time>2026-06-19T01:33:52.689Z</time>
</trkpt>
<trkpt lat="57.589733" lon="10.144865">
<ele>-0.605414</ele>
<time>2026-06-19T01:34:26.473Z</time>
</trkpt>
<trkpt lat="57.589868" lon="10.145246">
<ele>-0.357157</ele>
<time>2026-06-19T01:34:36.403Z</time>
</trkpt>
<trkpt lat="57.590143" lon="10.147084">
<ele>0.680079</ele>
<time>2026-06-19T01:35:18.651Z</time>
</trkpt>
<trkpt lat="57.590119" lon="10.147253">
<ele>0.775108</ele>
<time>2026-06-19T01:35:22.538Z</time>
</trkpt>
<trkpt lat="57.590064" lon="10.147532">
<ele>0.936690</ele>
<time>2026-06-19T01:35:29.166Z</time>
</trkpt>
<trkpt lat="57.589979" lon="10.147588">
<ele>1.038704</ele>
<time>2026-06-19T01:35:32.907Z</time>
</trkpt>
<trkpt lat="57.589789" lon="10.147616">
<ele>1.346058</ele>
<time>2026-06-19T01:35:40.831Z</time>
</trkpt>
<trkpt lat="57.589241" lon="10.147635">
<ele>2.229934</ele>
<time>2026-06-19T01:36:03.845Z</time>
</trkpt>
<trkpt lat="57.588749" lon="10.147415">
<ele>3.045819</ele>
<time>2026-06-19T01:36:25.704Z</time>
</trkpt>
<trkpt lat="57.588658" lon="10.147438">
<ele>3.193909</ele>
<time>2026-06-19T01:36:29.751Z</time>
</trkpt>
<trkpt lat="57.588453" lon="10.147581">
<ele>3.546851</ele>
<time>2026-06-19T01:36:39.431Z</time>
</trkpt>
<trkpt lat="57.588216" lon="10.147729">
<ele>3.967984</ele>
<time>2026-06-19T01:36:50.850Z</time>
</trkpt>
<trkpt lat="57.588145" lon="10.147723">
<ele>4.135537</ele>
<time>2026-06-19T01:36:54.188Z</time>
</trkpt>
<trkpt lat="57.587927" lon="10.147885">
<ele>4.688740</ele>
<time>2026-06-19T01:37:05.330Z</time>
</trkpt>
<trkpt lat="57.587470" lon="10.147735">
<ele>5.782661</ele>
<time>2026-06-19T01:37:27.670Z</time>
</trkpt>
<trkpt lat="57.587195" lon="10.147555">
<ele>6.469716</ele>
<time>2026-06-19T01:37:41.794Z</time>
</trkpt>
<trkpt lat="57.587035" lon="10.147577">
<ele>6.847938</ele>
<time>2026-06-19T01:37:49.421Z</time>
</trkpt>
<trkpt lat="57.587014" lon="10.147654">
<ele>6.957110</ele>
<time>2026-06-19T01:37:51.621Z</time>
</trkpt>
<trkpt lat="57.586309" lon="10.147343">
<ele>8.321079</ele>
<time>2026-06-19T01:38:24.572Z</time>
</trkpt>
<trkpt lat="57.586242" lon="10.147977">
<ele>8.591301</ele>
<time>2026-06-19T01:38:33.943Z</time>
</trkpt>
<trkpt lat="57.586228" lon="10.148314">
<ele>8.732647</ele>
<time>2026-06-19T01:38:38.483Z</time>
</trkpt>
<trkpt lat="57.586163" lon="10.149855">
<ele>9.379041</ele>
<time>2026-06-19T01:38:58.034Z</time>
</trkpt>
<trkpt lat="57.586155" lon="10.150041">
<ele>9.457070</ele>
<time>2026-06-19T01:39:00.283Z</time>
</trkpt>
<trkpt lat="57.586125" lon="10.151029">
<ele>9.567971</ele>
<time>2026-06-19T01:39:12.051Z</time>
</trkpt>
<trkpt lat="57.586061" lon="10.152061">
<ele>9.586911</ele>
<time>2026-06-19T01:39:24.398Z</time>
</trkpt>
<trkpt lat="57.586026" lon="10.152631">
<ele>9.597371</ele>
<time>2026-06-19T01:39:31.231Z</time>
</trkpt>
<trkpt lat="57.585982" lon="10.153796">
<ele>9.632589</ele>
<time>2026-06-19T01:39:45.139Z</time>
</trkpt>
<trkpt lat="57.585977" lon="10.153907">
<ele>9.643124</ele>
<time>2026-06-19T01:39:46.466Z</time>
</trkpt>
<trkpt lat="57.585886" lon="10.155760">
<ele>9.819099</ele>
<time>2026-06-19T01:40:09.237Z</time>
</trkpt>
<trkpt lat="57.585843" lon="10.156907">
<ele>9.927839</ele>
<time>2026-06-19T01:40:24.069Z</time>
</trkpt>
<trkpt lat="57.585809" lon="10.157868">
<ele>9.848246</ele>
<time>2026-06-19T01:40:35.995Z</time>
</trkpt>
<trkpt lat="57.585787" lon="10.158097">
<ele>9.826710</ele>
<time>2026-06-19T01:40:38.719Z</time>
</trkpt>
<trkpt lat="57.585744" lon="10.159073">
<ele>9.736057</ele>
<time>2026-06-19T01:40:49.719Z</time>
</trkpt>
<trkpt lat="57.585688" lon="10.160371">
<ele>9.618939</ele>
<time>2026-06-19T01:41:04.176Z</time>
</trkpt>
<trkpt lat="57.585671" lon="10.160802">
<ele>9.599885</ele>
<time>2026-06-19T01:41:09.022Z</time>
</trkpt>
<trkpt lat="57.585632" lon="10.161782">
<ele>9.556558</ele>
<time>2026-06-19T01:41:20.168Z</time>
</trkpt>
<trkpt lat="57.585626" lon="10.161904">
<ele>9.551157</ele>
<time>2026-06-19T01:41:21.610Z</time>
</trkpt>
<trkpt lat="57.585582" lon="10.162772">
<ele>9.512716</ele>
<time>2026-06-19T01:41:32.156Z</time>
</trkpt>
<trkpt lat="57.585557" lon="10.163717">
<ele>9.483113</ele>
<time>2026-06-19T01:41:43.850Z</time>
</trkpt>
<trkpt lat="57.585566" lon="10.164588">
<ele>9.594055</ele>
<time>2026-06-19T01:41:54.507Z</time>
</trkpt>
<trkpt lat="57.585566" lon="10.164782">
<ele>9.618761</ele>
<time>2026-06-19T01:41:56.880Z</time>
</trkpt>
<trkpt lat="57.585582" lon="10.165854">
<ele>9.755333</ele>
<time>2026-06-19T01:42:10.336Z</time>
</trkpt>
<trkpt lat="57.585617" lon="10.167380">
<ele>9.955665</ele>
<time>2026-06-19T01:42:29.378Z</time>
</trkpt>
<trkpt lat="57.585621" lon="10.167520">
<ele>9.975665</ele>
<time>2026-06-19T01:42:31.207Z</time>
</trkpt>
<trkpt lat="57.585654" lon="10.168823">
<ele>10.161750</ele>
<time>2026-06-19T01:42:47.994Z</time>
</trkpt>
<trkpt lat="57.585694" lon="10.169549">
<ele>10.265862</ele>
<time>2026-06-19T01:42:57.056Z</time>
</trkpt>
<trkpt lat="57.585728" lon="10.170181">
<ele>10.356471</ele>
<time>2026-06-19T01:43:04.547Z</time>
</trkpt>
<trkpt lat="57.585770" lon="10.171033">
<ele>10.308327</ele>
<time>2026-06-19T01:43:14.785Z</time>
</trkpt>
<trkpt lat="57.585749" lon="10.171198">
<ele>10.290689</ele>
<time>2026-06-19T01:43:16.815Z</time>
</trkpt>
<trkpt lat="57.585718" lon="10.171252">
<ele>10.282459</ele>
<time>2026-06-19T01:43:17.767Z</time>
</trkpt>
<trkpt lat="57.585591" lon="10.171271">
<ele>10.257738</ele>
<time>2026-06-19T01:43:20.604Z</time>
</trkpt>
<trkpt lat="57.585476" lon="10.171201">
<ele>10.234267</ele>
<time>2026-06-19T01:43:23.270Z</time>
</trkpt>
<trkpt lat="57.585402" lon="10.171456">
<ele>10.204107</ele>
<time>2026-06-19T01:43:28.963Z</time>
</trkpt>
<trkpt lat="57.585475" lon="10.178259">
<ele>9.564204</ele>
<time>2026-06-19T01:45:39.823Z</time>
</trkpt>
<trkpt lat="57.585437" lon="10.178461">
<ele>9.573262</ele>
<time>2026-06-19T01:45:44.224Z</time>
</trkpt>
<trkpt lat="57.585431" lon="10.178730">
<ele>9.584653</ele>
<time>2026-06-19T01:45:49.780Z</time>
</trkpt>
<trkpt lat="57.585491" lon="10.179082">
<ele>9.600282</ele>
<time>2026-06-19T01:45:57.489Z</time>
</trkpt>
<trkpt lat="57.585460" lon="10.179172">
<ele>9.604808</ele>
<time>2026-06-19T01:45:59.740Z</time>
</trkpt>
<trkpt lat="57.585241" lon="10.179250">
<ele>9.622407</ele>
<time>2026-06-19T01:46:08.532Z</time>
</trkpt>
<trkpt lat="57.585050" lon="10.179425">
<ele>9.672076</ele>
<time>2026-06-19T01:46:16.982Z</time>
</trkpt>
<trkpt lat="57.584748" lon="10.180132">
<ele>9.856944</ele>
<time>2026-06-19T01:46:36.374Z</time>
</trkpt>
<trkpt lat="57.583993" lon="10.181172">
<ele>10.214978</ele>
<time>2026-06-19T01:47:13.096Z</time>
</trkpt>
<trkpt lat="57.583831" lon="10.181292">
<ele>10.281473</ele>
<time>2026-06-19T01:47:19.592Z</time>
</trkpt>
<trkpt lat="57.583516" lon="10.181354">
<ele>10.209813</ele>
<time>2026-06-19T01:47:31.070Z</time>
</trkpt>
<trkpt lat="57.583459" lon="10.181525">
<ele>10.158307</ele>
<time>2026-06-19T01:47:34.855Z</time>
</trkpt>
<trkpt lat="57.583441" lon="10.182022">
<ele>10.030889</ele>
<time>2026-06-19T01:47:43.906Z</time>
</trkpt>
<trkpt lat="57.583447" lon="10.182171">
<ele>9.992669</ele>
<time>2026-06-19T01:47:46.597Z</time>
</trkpt>
<trkpt lat="57.583443" lon="10.182450">
<ele>9.921278</ele>
<time>2026-06-19T01:47:51.643Z</time>
</trkpt>
<trkpt lat="57.583394" lon="10.182703">
<ele>9.852468</ele>
<time>2026-06-19T01:47:56.554Z</time>
</trkpt>
<trkpt lat="57.583315" lon="10.182872">
<ele>9.795113</ele>
<time>2026-06-19T01:48:00.739Z</time>
</trkpt>
<trkpt lat="57.583135" lon="10.182985">
<ele>9.704491</ele>
<time>2026-06-19T01:48:07.480Z</time>
</trkpt>
<trkpt lat="57.583084" lon="10.183090">
<ele>9.668248</ele>
<time>2026-06-19T01:48:10.107Z</time>
</trkpt>
<trkpt lat="57.582979" lon="10.183664">
<ele>9.513110</ele>
<time>2026-06-19T01:48:21.430Z</time>
</trkpt>
<trkpt lat="57.582847" lon="10.184295">
<ele>9.622756</ele>
<time>2026-06-19T01:48:34.471Z</time>
</trkpt>
<trkpt lat="57.582680" lon="10.184760">
<ele>9.820821</ele>
<time>2026-06-19T01:48:45.923Z</time>
</trkpt>
<trkpt lat="57.582790" lon="10.184969">
<ele>9.924467</ele>
<time>2026-06-19T01:48:49.908Z</time>
</trkpt>
<trkpt lat="57.583002" lon="10.185338">
<ele>10.115869</ele>
<time>2026-06-19T01:48:57.733Z</time>
</trkpt>
<trkpt lat="57.583144" lon="10.185543">
<ele>10.234397</ele>
<time>2026-06-19T01:49:02.778Z</time>
</trkpt>
<trkpt lat="57.583389" lon="10.185898">
<ele>10.439182</ele>
<time>2026-06-19T01:49:11.343Z</time>
</trkpt>
<trkpt lat="57.583594" lon="10.186189">
<ele>10.609229</ele>
<time>2026-06-19T01:49:18.048Z</time>
</trkpt>
<trkpt lat="57.583679" lon="10.186310">
<ele>10.623549</ele>
<time>2026-06-19T01:49:20.821Z</time>
</trkpt>
<trkpt lat="57.583823" lon="10.186513">
<ele>10.545302</ele>
<time>2026-06-19T01:49:25.432Z</time>
</trkpt>
<trkpt lat="57.583892" lon="10.186609">
<ele>10.507986</ele>
<time>2026-06-19T01:49:27.596Z</time>
</trkpt>
<trkpt lat="57.583978" lon="10.186728">
<ele>10.461567</ele>
<time>2026-06-19T01:49:30.243Z</time>
</trkpt>
<trkpt lat="57.584166" lon="10.186987">
<ele>10.360250</ele>
<time>2026-06-19T01:49:35.656Z</time>
</trkpt>
<trkpt lat="57.584496" lon="10.187443">
<ele>10.182218</ele>
<time>2026-06-19T01:49:43.886Z</time>
</trkpt>
<trkpt lat="57.584798" lon="10.187839">
<ele>10.022190</ele>
<time>2026-06-19T01:49:50.707Z</time>
</trkpt>
<trkpt lat="57.584920" lon="10.187901">
<ele>9.967374</ele>
<time>2026-06-19T01:49:53.023Z</time>
</trkpt>
<trkpt lat="57.585000" lon="10.187925">
<ele>9.932247</ele>
<time>2026-06-19T01:49:54.533Z</time>
</trkpt>
<trkpt lat="57.585364" lon="10.187896">
<ele>9.787411</ele>
<time>2026-06-19T01:50:01.302Z</time>
</trkpt>
<trkpt lat="57.585512" lon="10.187888">
<ele>9.732388</ele>
<time>2026-06-19T01:50:04.081Z</time>
</trkpt>
<trkpt lat="57.585689" lon="10.187868">
<ele>9.666490</ele>
<time>2026-06-19T01:50:07.456Z</time>
</trkpt>
<trkpt lat="57.585736" lon="10.187862">
<ele>9.648982</ele>
<time>2026-06-19T01:50:08.376Z</time>
</trkpt>
<trkpt lat="57.586049" lon="10.187813">
<ele>9.532255</ele>
<time>2026-06-19T01:50:14.634Z</time>
</trkpt>
<trkpt lat="57.586141" lon="10.187802">
<ele>9.497995</ele>
<time>2026-06-19T01:50:16.505Z</time>
</trkpt>
<trkpt lat="57.586197" lon="10.187796">
<ele>9.477150</ele>
<time>2026-06-19T01:50:17.658Z</time>
</trkpt>
<trkpt lat="57.586409" lon="10.187772">
<ele>9.398221</ele>
<time>2026-06-19T01:50:22.259Z</time>
</trkpt>
<trkpt lat="57.586569" lon="10.187753">
<ele>9.338641</ele>
<time>2026-06-19T01:50:25.995Z</time>
</trkpt>
<trkpt lat="57.586718" lon="10.188660">
<ele>9.319346</ele>
<time>2026-06-19T01:50:38.842Z</time>
</trkpt>
<trkpt lat="57.586773" lon="10.188991">
<ele>9.494219</ele>
<time>2026-06-19T01:50:43.761Z</time>
</trkpt>
<trkpt lat="57.586889" lon="10.189739">
<ele>9.887158</ele>
<time>2026-06-19T01:50:54.834Z</time>
</trkpt>
<trkpt lat="57.587121" lon="10.191201">
<ele>10.656566</ele>
<time>2026-06-19T01:51:16.402Z</time>
</trkpt>
<trkpt lat="57.587142" lon="10.191352">
<ele>10.735287</ele>
<time>2026-06-19T01:51:18.615Z</time>
</trkpt>
<trkpt lat="57.587246" lon="10.192014">
<ele>11.038048</ele>
<time>2026-06-19T01:51:28.325Z</time>
</trkpt>
<trkpt lat="57.587483" lon="10.193513">
<ele>11.640818</ele>
<time>2026-06-19T01:51:49.538Z</time>
</trkpt>
<trkpt lat="57.587650" lon="10.194628">
<ele>12.087328</ele>
<time>2026-06-19T01:52:04.796Z</time>
</trkpt>
<trkpt lat="57.587774" lon="10.195415">
<ele>12.220205</ele>
<time>2026-06-19T01:52:15.381Z</time>
</trkpt>
<trkpt lat="57.587865" lon="10.195976">
<ele>12.256428</ele>
<time>2026-06-19T01:52:22.567Z</time>
</trkpt>
<trkpt lat="57.588073" lon="10.197268">
<ele>12.339799</ele>
<time>2026-06-19T01:52:38.752Z</time>
</trkpt>
<trkpt lat="57.588147" lon="10.197735">
<ele>12.369894</ele>
<time>2026-06-19T01:52:44.577Z</time>
</trkpt>
<trkpt lat="57.588275" lon="10.198544">
<ele>12.340286</ele>
<time>2026-06-19T01:52:54.568Z</time>
</trkpt>
<trkpt lat="57.588354" lon="10.199041">
<ele>12.283407</ele>
<time>2026-06-19T01:53:00.635Z</time>
</trkpt>
<trkpt lat="57.588561" lon="10.200872">
<ele>12.078088</ele>
<time>2026-06-19T01:53:22.198Z</time>
</trkpt>
<trkpt lat="57.588644" lon="10.201900">
<ele>11.790244</ele>
<time>2026-06-19T01:53:33.813Z</time>
</trkpt>
<trkpt lat="57.588688" lon="10.202852">
<ele>11.383559</ele>
<time>2026-06-19T01:53:43.762Z</time>
</trkpt>
<trkpt lat="57.588704" lon="10.203427">
<ele>11.138504</ele>
<time>2026-06-19T01:53:49.613Z</time>
</trkpt>
<trkpt lat="57.588719" lon="10.204451">
<ele>10.702517</ele>
<time>2026-06-19T01:54:00.288Z</time>
</trkpt>
<trkpt lat="57.588721" lon="10.204552">
<ele>10.659501</ele>
<time>2026-06-19T01:54:01.360Z</time>
</trkpt>
<trkpt lat="57.588725" lon="10.204726">
<ele>10.596971</ele>
<time>2026-06-19T01:54:03.201Z</time>
</trkpt>
<trkpt lat="57.588732" lon="10.205675">
<ele>10.627532</ele>
<time>2026-06-19T01:54:13.464Z</time>
</trkpt>
<trkpt lat="57.588735" lon="10.206902">
<ele>10.667042</ele>
<time>2026-06-19T01:54:28.122Z</time>
</trkpt>
<trkpt lat="57.588724" lon="10.208068">
<ele>10.708613</ele>
<time>2026-06-19T01:54:43.968Z</time>
</trkpt>
<trkpt lat="57.588721" lon="10.208368">
<ele>10.819735</ele>
<time>2026-06-19T01:54:48.121Z</time>
</trkpt>
<trkpt lat="57.588718" lon="10.208795">
<ele>10.977885</ele>
<time>2026-06-19T01:54:54.036Z</time>
</trkpt>
<trkpt lat="57.588702" lon="10.210459">
<ele>11.594236</ele>
<time>2026-06-19T01:55:16.479Z</time>
</trkpt>
<trkpt lat="57.588685" lon="10.211600">
<ele>11.988405</ele>
<time>2026-06-19T01:55:31.573Z</time>
</trkpt>
<trkpt lat="57.588644" lon="10.212240">
<ele>12.129706</ele>
<time>2026-06-19T01:55:39.948Z</time>
</trkpt>
<trkpt lat="57.588568" lon="10.213035">
<ele>12.306738</ele>
<time>2026-06-19T01:55:50.212Z</time>
</trkpt>
<trkpt lat="57.588384" lon="10.214536">
<ele>12.644288</ele>
<time>2026-06-19T01:56:09.929Z</time>
</trkpt>
<trkpt lat="57.588343" lon="10.215000">
<ele>12.689520</ele>
<time>2026-06-19T01:56:15.712Z</time>
</trkpt>
<trkpt lat="57.588309" lon="10.215777">
<ele>12.707712</ele>
<time>2026-06-19T01:56:25.087Z</time>
</trkpt>
<trkpt lat="57.588332" lon="10.216918">
<ele>12.734357</ele>
<time>2026-06-19T01:56:38.566Z</time>
</trkpt>
<trkpt lat="57.588361" lon="10.217394">
<ele>12.745537</ele>
<time>2026-06-19T01:56:44.345Z</time>
</trkpt>
<trkpt lat="57.588482" lon="10.218441">
<ele>12.812164</ele>
<time>2026-06-19T01:56:56.988Z</time>
</trkpt>
<trkpt lat="57.588559" lon="10.218901">
<ele>12.872201</ele>
<time>2026-06-19T01:57:02.791Z</time>
</trkpt>
<trkpt lat="57.588679" lon="10.219496">
<ele>12.951401</ele>
<time>2026-06-19T01:57:10.715Z</time>
</trkpt>
<trkpt lat="57.588867" lon="10.220336">
<ele>13.064806</ele>
<time>2026-06-19T01:57:22.378Z</time>
</trkpt>
<trkpt lat="57.588956" lon="10.220732">
<ele>13.118301</ele>
<time>2026-06-19T01:57:27.830Z</time>
</trkpt>
<trkpt lat="57.589051" lon="10.221160">
<ele>13.176013</ele>
<time>2026-06-19T01:57:33.612Z</time>
</trkpt>
<trkpt lat="57.589141" lon="10.221560">
<ele>13.291642</ele>
<time>2026-06-19T01:57:38.973Z</time>
</trkpt>
<trkpt lat="57.589298" lon="10.222235">
<ele>13.493865</ele>
<time>2026-06-19T01:57:48.456Z</time>
</trkpt>
<trkpt lat="57.589518" lon="10.223222">
<ele>13.787641</ele>
<time>2026-06-19T01:58:02.808Z</time>
</trkpt>
<trkpt lat="57.589837" lon="10.224633">
<ele>14.140253</ele>
<time>2026-06-19T01:58:22.830Z</time>
</trkpt>
<trkpt lat="57.591127" lon="10.230685">
<ele>14.522458</ele>
<time>2026-06-19T01:59:42.031Z</time>
</trkpt>
<trkpt lat="57.592402" lon="10.230019">
<ele>14.347299</ele>
<time>2026-06-19T02:00:10.301Z</time>
</trkpt>
<trkpt lat="57.594667" lon="10.229147">
<ele>14.162878</ele>
<time>2026-06-19T02:01:01.076Z</time>
</trkpt>
<trkpt lat="57.594934" lon="10.229096">
<ele>14.141722</ele>
<time>2026-06-19T02:01:06.940Z</time>
</trkpt>
<trkpt lat="57.596472" lon="10.229096">
<ele>14.044217</ele>
<time>2026-06-19T02:01:40.610Z</time>
</trkpt>
<trkpt lat="57.596563" lon="10.229125">
<ele>14.051557</ele>
<time>2026-06-19T02:01:42.686Z</time>
</trkpt>
<trkpt lat="57.596679" lon="10.229176">
<ele>14.061032</ele>
<time>2026-06-19T02:01:45.357Z</time>
</trkpt>
<trkpt lat="57.597814" lon="10.230347">
<ele>14.164146</ele>
<time>2026-06-19T02:02:14.983Z</time>
</trkpt>
<trkpt lat="57.598003" lon="10.230617">
<ele>14.152402</ele>
<time>2026-06-19T02:02:20.397Z</time>
</trkpt>
<trkpt lat="57.598578" lon="10.231663">
<ele>13.964002</ele>
<time>2026-06-19T02:02:38.032Z</time>
</trkpt>
<trkpt lat="57.598795" lon="10.231966">
<ele>13.900415</ele>
<time>2026-06-19T02:02:43.787Z</time>
</trkpt>
<trkpt lat="57.599501" lon="10.232629">
<ele>13.636704</ele>
<time>2026-06-19T02:03:00.026Z</time>
</trkpt>
<trkpt lat="57.599784" lon="10.232894">
<ele>13.410676</ele>
<time>2026-06-19T02:03:06.331Z</time>
</trkpt>
<trkpt lat="57.600595" lon="10.233572">
<ele>12.776299</ele>
<time>2026-06-19T02:03:24.037Z</time>
</trkpt>
<trkpt lat="57.601157" lon="10.234333">
<ele>12.254651</ele>
<time>2026-06-19T02:03:37.817Z</time>
</trkpt>
<trkpt lat="57.601708" lon="10.234923">
<ele>11.738724</ele>
<time>2026-06-19T02:03:50.208Z</time>
</trkpt>
<trkpt lat="57.602383" lon="10.235729">
<ele>11.087912</ele>
<time>2026-06-19T02:04:05.882Z</time>
</trkpt>
<trkpt lat="57.602826" lon="10.236278">
<ele>10.808448</ele>
<time>2026-06-19T02:04:16.627Z</time>
</trkpt>
<trkpt lat="57.602786" lon="10.236550">
<ele>10.738783</ele>
<time>2026-06-19T02:04:19.769Z</time>
</trkpt>
<trkpt lat="57.602769" lon="10.236928">
<ele>10.645095</ele>
<time>2026-06-19T02:04:27.111Z</time>
</trkpt>
<trkpt lat="57.602789" lon="10.237077">
<ele>10.607157</ele>
<time>2026-06-19T02:04:30.079Z</time>
</trkpt>
<trkpt lat="57.602863" lon="10.237425">
<ele>10.514685</ele>
<time>2026-06-19T02:04:37.431Z</time>
</trkpt>
<trkpt lat="57.602966" lon="10.238133">
<ele>10.333489</ele>
<time>2026-06-19T02:04:51.522Z</time>
</trkpt>
<trkpt lat="57.603118" lon="10.238860">
<ele>10.145391</ele>
<time>2026-06-19T02:05:06.368Z</time>
</trkpt>
<trkpt lat="57.603214" lon="10.239155">
<ele>10.070395</ele>
<time>2026-06-19T02:05:12.811Z</time>
</trkpt>
<trkpt lat="57.603302" lon="10.239328">
<ele>10.018562</ele>
<time>2026-06-19T02:05:17.212Z</time>
</trkpt>
<trkpt lat="57.603381" lon="10.239411">
<ele>9.981797</ele>
<time>2026-06-19T02:05:20.332Z</time>
</trkpt>
<trkpt lat="57.604273" lon="10.239982">
<ele>9.599365</ele>
<time>2026-06-19T02:05:53.209Z</time>
</trkpt>
<trkpt lat="57.604640" lon="10.240337">
<ele>9.463322</ele>
<time>2026-06-19T02:06:08.342Z</time>
</trkpt>
<trkpt lat="57.605010" lon="10.240617">
<ele>9.582222</ele>
<time>2026-06-19T02:06:23.788Z</time>
</trkpt>
<trkpt lat="57.605408" lon="10.240882">
<ele>9.708065</ele>
<time>2026-06-19T02:06:40.372Z</time>
</trkpt>
<trkpt lat="57.605555" lon="10.241051">
<ele>9.759480</ele>
<time>2026-06-19T02:06:47.079Z</time>
</trkpt>
<trkpt lat="57.605762" lon="10.241475">
<ele>9.851003</ele>
<time>2026-06-19T02:06:58.964Z</time>
</trkpt>
<trkpt lat="57.605825" lon="10.241703">
<ele>9.891934</ele>
<time>2026-06-19T02:07:04.206Z</time>
</trkpt>
<trkpt lat="57.605846" lon="10.241801">
<ele>9.908774</ele>
<time>2026-06-19T02:07:06.370Z</time>
</trkpt>
<trkpt lat="57.606105" lon="10.242991">
<ele>10.062802</ele>
<time>2026-06-19T02:07:32.565Z</time>
</trkpt>
<trkpt lat="57.606262" lon="10.243700">
<ele>10.136569</ele>
<time>2026-06-19T02:07:48.091Z</time>
</trkpt>
<trkpt lat="57.606282" lon="10.243917">
<ele>10.157740</ele>
<time>2026-06-19T02:07:52.491Z</time>
</trkpt>
<trkpt lat="57.606275" lon="10.244149">
<ele>10.180083</ele>
<time>2026-06-19T02:07:57.156Z</time>
</trkpt>
<trkpt lat="57.606135" lon="10.245130">
<ele>10.277699</ele>
<time>2026-06-19T02:08:17.707Z</time>
</trkpt>
<trkpt lat="57.606139" lon="10.245541">
<ele>10.308728</ele>
<time>2026-06-19T02:08:26.048Z</time>
</trkpt>
<trkpt lat="57.606171" lon="10.245760">
<ele>10.309509</ele>
<time>2026-06-19T02:08:30.611Z</time>
</trkpt>
<trkpt lat="57.606571" lon="10.248468">
<ele>10.319170</ele>
<time>2026-06-19T02:09:25.939Z</time>
</trkpt>
<trkpt lat="57.606821" lon="10.250118">
<ele>10.922574</ele>
<time>2026-06-19T02:10:01.127Z</time>
</trkpt>
<trkpt lat="57.606946" lon="10.251275">
<ele>11.401516</ele>
<time>2026-06-19T02:10:27.818Z</time>
</trkpt>
<trkpt lat="57.607044" lon="10.253096">
<ele>11.753452</ele>
<time>2026-06-19T02:11:08.546Z</time>
</trkpt>
<trkpt lat="57.607118" lon="10.254272">
<ele>11.827440</ele>
<time>2026-06-19T02:11:32.430Z</time>
</trkpt>
<trkpt lat="57.607194" lon="10.255136">
<ele>11.882151</ele>
<time>2026-06-19T02:11:48.434Z</time>
</trkpt>
<trkpt lat="57.607382" lon="10.256424">
<ele>11.599560</ele>
<time>2026-06-19T02:12:12.039Z</time>
</trkpt>
<trkpt lat="57.607438" lon="10.257058">
<ele>11.439610</ele>
<time>2026-06-19T02:12:23.813Z</time>
</trkpt>
<trkpt lat="57.607444" lon="10.257809">
<ele>11.252645</ele>
<time>2026-06-19T02:12:38.349Z</time>
</trkpt>
<trkpt lat="57.607443" lon="10.258133">
<ele>11.171992</ele>
<time>2026-06-19T02:12:44.872Z</time>
</trkpt>
<trkpt lat="57.607443" lon="10.258838">
<ele>11.126452</ele>
<time>2026-06-19T02:12:59.589Z</time>
</trkpt>
<trkpt lat="57.607511" lon="10.260454">
<ele>11.598777</ele>
<time>2026-06-19T02:13:34.413Z</time>
</trkpt>
<trkpt lat="57.607780" lon="10.264433">
<ele>12.390707</ele>
<time>2026-06-19T02:14:57.622Z</time>
</trkpt>
<trkpt lat="57.607804" lon="10.264793">
<ele>12.442071</ele>
<time>2026-06-19T02:15:04.937Z</time>
</trkpt>
<trkpt lat="57.607834" lon="10.264961">
<ele>12.467144</ele>
<time>2026-06-19T02:15:08.495Z</time>
</trkpt>
<trkpt lat="57.608031" lon="10.266073">
<ele>12.403143</ele>
<time>2026-06-19T02:15:31.466Z</time>
</trkpt>
<trkpt lat="57.608275" lon="10.267154">
<ele>12.258707</ele>
<time>2026-06-19T02:15:53.592Z</time>
</trkpt>
<trkpt lat="57.608550" lon="10.268165">
<ele>12.119096</ele>
<time>2026-06-19T02:16:15.370Z</time>
</trkpt>
<trkpt lat="57.608704" lon="10.268944">
<ele>12.171152</ele>
<time>2026-06-19T02:16:31.930Z</time>
</trkpt>
<trkpt lat="57.609001" lon="10.271054">
<ele>12.422046</ele>
<time>2026-06-19T02:17:17.130Z</time>
</trkpt>
<trkpt lat="57.609066" lon="10.271298">
<ele>12.453384</ele>
<time>2026-06-19T02:17:22.722Z</time>
</trkpt>
<trkpt lat="57.609574" lon="10.272642">
<ele>12.455956</ele>
<time>2026-06-19T02:17:55.449Z</time>
</trkpt>
<trkpt lat="57.609611" lon="10.272867">
<ele>12.451414</ele>
<time>2026-06-19T02:18:00.026Z</time>
</trkpt>
<trkpt lat="57.609648" lon="10.274178">
<ele>12.426079</ele>
<time>2026-06-19T02:18:25.695Z</time>
</trkpt>
<trkpt lat="57.609698" lon="10.275836">
<ele>12.511566</ele>
<time>2026-06-19T02:18:58.404Z</time>
</trkpt>
<trkpt lat="57.609721" lon="10.276005">
<ele>12.524722</ele>
<time>2026-06-19T02:19:01.898Z</time>
</trkpt>
<trkpt lat="57.609774" lon="10.276146">
<ele>12.537717</ele>
<time>2026-06-19T02:19:05.387Z</time>
</trkpt>
<trkpt lat="57.609862" lon="10.276300">
<ele>12.554706</ele>
<time>2026-06-19T02:19:08.508Z</time>
</trkpt>
<trkpt lat="57.610043" lon="10.276957">
<ele>12.610445</ele>
<time>2026-06-19T02:19:18.821Z</time>
</trkpt>
<trkpt lat="57.610165" lon="10.277800">
<ele>12.689323</ele>
<time>2026-06-19T02:19:30.899Z</time>
</trkpt>
<trkpt lat="57.610153" lon="10.278174">
<ele>12.790626</ele>
<time>2026-06-19T02:19:36.052Z</time>
</trkpt>
<trkpt lat="57.610151" lon="10.278826">
<ele>12.966917</ele>
<time>2026-06-19T02:19:45.119Z</time>
</trkpt>
<trkpt lat="57.610194" lon="10.279217">
<ele>13.074840</ele>
<time>2026-06-19T02:19:50.763Z</time>
</trkpt>
<trkpt lat="57.610366" lon="10.280475">
<ele>13.425881</ele>
<time>2026-06-19T02:20:09.375Z</time>
</trkpt>
<trkpt lat="57.610441" lon="10.280934">
<ele>13.555630</ele>
<time>2026-06-19T02:20:16.556Z</time>
</trkpt>
<trkpt lat="57.610569" lon="10.281728">
<ele>13.828823</ele>
<time>2026-06-19T02:20:28.993Z</time>
</trkpt>
<trkpt lat="57.610750" lon="10.282857">
<ele>14.225265</ele>
<time>2026-06-19T02:20:46.800Z</time>
</trkpt>
<trkpt lat="57.610978" lon="10.284233">
<ele>14.708217</ele>
<time>2026-06-19T02:21:05.933Z</time>
</trkpt>
<trkpt lat="57.611033" lon="10.284415">
<ele>14.677063</ele>
<time>2026-06-19T02:21:08.476Z</time>
</trkpt>
<trkpt lat="57.611530" lon="10.284623">
<ele>14.535306</ele>
<time>2026-06-19T02:21:19.315Z</time>
</trkpt>
<trkpt lat="57.611816" lon="10.284630">
<ele>14.455701</ele>
<time>2026-06-19T02:21:25.209Z</time>
</trkpt>
<trkpt lat="57.612024" lon="10.284557">
<ele>14.396797</ele>
<time>2026-06-19T02:21:29.517Z</time>
</trkpt>
<trkpt lat="57.613615" lon="10.283961">
<ele>13.925733</ele>
<time>2026-06-19T02:22:03.076Z</time>
</trkpt>
<trkpt lat="57.613896" lon="10.283856">
<ele>13.840080</ele>
<time>2026-06-19T02:22:09.390Z</time>
</trkpt>
<trkpt lat="57.614177" lon="10.283743">
<ele>13.754166</ele>
<time>2026-06-19T02:22:15.754Z</time>
</trkpt>
<trkpt lat="57.614419" lon="10.283679">
<ele>13.681113</ele>
<time>2026-06-19T02:22:21.142Z</time>
</trkpt>
<trkpt lat="57.614755" lon="10.283627">
<ele>13.269574</ele>
<time>2026-06-19T02:22:28.365Z</time>
</trkpt>
<trkpt lat="57.615020" lon="10.283584">
<ele>12.916063</ele>
<time>2026-06-19T02:22:33.766Z</time>
</trkpt>
<trkpt lat="57.615114" lon="10.283531">
<ele>12.785566</ele>
<time>2026-06-19T02:22:35.690Z</time>
</trkpt>
<trkpt lat="57.615355" lon="10.283177">
<ele>12.378038</ele>
<time>2026-06-19T02:22:41.300Z</time>
</trkpt>
<trkpt lat="57.615537" lon="10.282878">
<ele>12.055856</ele>
<time>2026-06-19T02:22:45.549Z</time>
</trkpt>
<trkpt lat="57.615673" lon="10.282727">
<ele>11.845569</ele>
<time>2026-06-19T02:22:48.305Z</time>
</trkpt>
<trkpt lat="57.616012" lon="10.282405">
<ele>11.340091</ele>
<time>2026-06-19T02:22:54.935Z</time>
</trkpt>
<trkpt lat="57.616247" lon="10.282170">
<ele>11.118040</ele>
<time>2026-06-19T02:22:59.592Z</time>
</trkpt>
<trkpt lat="57.616377" lon="10.282137">
<ele>11.022018</ele>
<time>2026-06-19T02:23:01.879Z</time>
</trkpt>
<trkpt lat="57.616436" lon="10.282189">
<ele>10.974267</ele>
<time>2026-06-19T02:23:03.028Z</time>
</trkpt>
<trkpt lat="57.616855" lon="10.282894">
<ele>10.561456</ele>
<time>2026-06-19T02:23:13.404Z</time>
</trkpt>
<trkpt lat="57.616959" lon="10.282980">
<ele>10.478208</ele>
<time>2026-06-19T02:23:15.676Z</time>
</trkpt>
<trkpt lat="57.617051" lon="10.283006">
<ele>10.410107</ele>
<time>2026-06-19T02:23:17.617Z</time>
</trkpt>
<trkpt lat="57.617309" lon="10.282893">
<ele>10.216153</ele>
<time>2026-06-19T02:23:23.627Z</time>
</trkpt>
<trkpt lat="57.617489" lon="10.284051">
<ele>10.363587</ele>
<time>2026-06-19T02:23:40.649Z</time>
</trkpt>
<trkpt lat="57.617523" lon="10.284716">
<ele>10.839090</ele>
<time>2026-06-19T02:23:50.813Z</time>
</trkpt>
<trkpt lat="57.617514" lon="10.284988">
<ele>11.033070</ele>
<time>2026-06-19T02:23:55.106Z</time>
</trkpt>
<trkpt lat="57.617418" lon="10.285865">
<ele>11.670230</ele>
<time>2026-06-19T02:24:09.081Z</time>
</trkpt>
<trkpt lat="57.617381" lon="10.286569">
<ele>12.173750</ele>
<time>2026-06-19T02:24:19.726Z</time>
</trkpt>
<trkpt lat="57.617392" lon="10.287763">
<ele>12.608364</ele>
<time>2026-06-19T02:24:36.677Z</time>
</trkpt>
<trkpt lat="57.617328" lon="10.290328">
<ele>13.245178</ele>
<time>2026-06-19T02:25:08.867Z</time>
</trkpt>
<trkpt lat="57.617241" lon="10.292612">
<ele>12.994833</ele>
<time>2026-06-19T02:25:34.742Z</time>
</trkpt>
<trkpt lat="57.617174" lon="10.293613">
<ele>12.900566</ele>
<time>2026-06-19T02:25:46.147Z</time>
</trkpt>
<trkpt lat="57.617172" lon="10.294104">
<ele>12.934078</ele>
<time>2026-06-19T02:25:51.835Z</time>
</trkpt>
<trkpt lat="57.617208" lon="10.294546">
<ele>12.964590</ele>
<time>2026-06-19T02:25:57.115Z</time>
</trkpt>
<trkpt lat="57.617455" lon="10.296044">
<ele>13.071562</ele>
<time>2026-06-19T02:26:16.209Z</time>
</trkpt>
<trkpt lat="57.617745" lon="10.297908">
<ele>13.457503</ele>
<time>2026-06-19T02:26:41.337Z</time>
</trkpt>
<trkpt lat="57.618291" lon="10.300705">
<ele>14.065192</ele>
<time>2026-06-19T02:27:20.869Z</time>
</trkpt>
<trkpt lat="57.618866" lon="10.303705">
<ele>14.045472</ele>
<time>2026-06-19T02:27:56.943Z</time>
</trkpt>
<trkpt lat="57.618902" lon="10.303913">
<ele>14.049795</ele>
<time>2026-06-19T02:27:59.431Z</time>
</trkpt>
<trkpt lat="57.619442" lon="10.307195">
<ele>14.008928</ele>
<time>2026-06-19T02:28:41.513Z</time>
</trkpt>
<trkpt lat="57.619505" lon="10.307854">
<ele>13.942883</ele>
<time>2026-06-19T02:28:49.364Z</time>
</trkpt>
<trkpt lat="57.619508" lon="10.308248">
<ele>13.904006</ele>
<time>2026-06-19T02:28:53.857Z</time>
</trkpt>
<trkpt lat="57.619513" lon="10.309183">
<ele>13.811753</ele>
<time>2026-06-19T02:29:04.259Z</time>
</trkpt>
<trkpt lat="57.619518" lon="10.309292">
<ele>13.800960</ele>
<time>2026-06-19T02:29:05.464Z</time>
</trkpt>
<trkpt lat="57.619585" lon="10.310085">
<ele>13.825084</ele>
<time>2026-06-19T02:29:14.352Z</time>
</trkpt>
<trkpt lat="57.619683" lon="10.310755">
<ele>13.909090</ele>
<time>2026-06-19T02:29:22.176Z</time>
</trkpt>
<trkpt lat="57.619827" lon="10.311436">
<ele>13.997646</ele>
<time>2026-06-19T02:29:31.066Z</time>
</trkpt>
<trkpt lat="57.619994" lon="10.311970">
<ele>14.072441</ele>
<time>2026-06-19T02:29:39.162Z</time>
</trkpt>
<trkpt lat="57.620510" lon="10.313210">
<ele>14.464957</ele>
<time>2026-06-19T02:30:01.113Z</time>
</trkpt>
<trkpt lat="57.620761" lon="10.313708">
<ele>14.738142</ele>
<time>2026-06-19T02:30:10.823Z</time>
</trkpt>
<trkpt lat="57.621322" lon="10.314614">
<ele>15.291405</ele>
<time>2026-06-19T02:30:29.727Z</time>
</trkpt>
<trkpt lat="57.621855" lon="10.315356">
<ele>15.537854</ele>
<time>2026-06-19T02:30:45.147Z</time>
</trkpt>
<trkpt lat="57.622120" lon="10.315726">
<ele>15.557670</ele>
<time>2026-06-19T02:30:52.547Z</time>
</trkpt>
<trkpt lat="57.622482" lon="10.316315">
<ele>15.586423</ele>
<time>2026-06-19T02:31:03.047Z</time>
</trkpt>
<trkpt lat="57.624161" lon="10.319873">
<ele>15.374905</ele>
<time>2026-06-19T02:31:58.384Z</time>
</trkpt>
<trkpt lat="57.624329" lon="10.320346">
<ele>15.320854</ele>
<time>2026-06-19T02:32:04.929Z</time>
</trkpt>
<trkpt lat="57.624431" lon="10.320747">
<ele>15.278578</ele>
<time>2026-06-19T02:32:10.005Z</time>
</trkpt>
<trkpt lat="57.625273" lon="10.325228">
<ele>15.077442</ele>
<time>2026-06-19T02:33:04.804Z</time>
</trkpt>
<trkpt lat="57.625672" lon="10.327411">
<ele>15.283415</ele>
<time>2026-06-19T02:33:35.232Z</time>
</trkpt>
<trkpt lat="57.625748" lon="10.328030">
<ele>15.366693</ele>
<time>2026-06-19T02:33:43.232Z</time>
</trkpt>
<trkpt lat="57.625780" lon="10.329075">
<ele>15.503950</ele>
<time>2026-06-19T02:33:55.637Z</time>
</trkpt>
<trkpt lat="57.625729" lon="10.330294">
<ele>15.397686</ele>
<time>2026-06-19T02:34:09.493Z</time>
</trkpt>
<trkpt lat="57.625508" lon="10.333112">
<ele>15.084278</ele>
<time>2026-06-19T02:34:42.052Z</time>
</trkpt>
<trkpt lat="57.625393" lon="10.334345">
<ele>14.939335</ele>
<time>2026-06-19T02:34:56.538Z</time>
</trkpt>
<trkpt lat="57.625196" lon="10.336571">
<ele>14.690181</ele>
<time>2026-06-19T02:35:22.490Z</time>
</trkpt>
<trkpt lat="57.624623" lon="10.343256">
<ele>14.079966</ele>
<time>2026-06-19T02:36:40.461Z</time>
</trkpt>
<trkpt lat="57.624615" lon="10.343591">
<ele>14.075974</ele>
<time>2026-06-19T02:36:44.353Z</time>
</trkpt>
<trkpt lat="57.624677" lon="10.344413">
<ele>14.066091</ele>
<time>2026-06-19T02:36:54.091Z</time>
</trkpt>
<trkpt lat="57.624751" lon="10.345061">
<ele>14.058204</ele>
<time>2026-06-19T02:37:01.971Z</time>
</trkpt>
<trkpt lat="57.625104" lon="10.347301">
<ele>14.435205</ele>
<time>2026-06-19T02:37:31.275Z</time>
</trkpt>
<trkpt lat="57.625346" lon="10.348427">
<ele>14.726565</ele>
<time>2026-06-19T02:37:47.328Z</time>
</trkpt>
<trkpt lat="57.625438" lon="10.349225">
<ele>14.903010</ele>
<time>2026-06-19T02:37:58.134Z</time>
</trkpt>
<trkpt lat="57.625580" lon="10.351222">
<ele>15.244207</ele>
<time>2026-06-19T02:38:23.971Z</time>
</trkpt>
<trkpt lat="57.625509" lon="10.354328">
<ele>15.581526</ele>
<time>2026-06-19T02:39:01.147Z</time>
</trkpt>
<trkpt lat="57.625428" lon="10.354837">
<ele>15.622229</ele>
<time>2026-06-19T02:39:07.603Z</time>
</trkpt>
<trkpt lat="57.625401" lon="10.355019">
<ele>15.636705</ele>
<time>2026-06-19T02:39:09.924Z</time>
</trkpt>
<trkpt lat="57.625387" lon="10.355165">
<ele>15.648075</ele>
<time>2026-06-19T02:39:11.794Z</time>
</trkpt>
<trkpt lat="57.625353" lon="10.355510">
<ele>15.674964</ele>
<time>2026-06-19T02:39:16.186Z</time>
</trkpt>
<trkpt lat="57.625394" lon="10.357912">
<ele>16.027252</ele>
<time>2026-06-19T02:39:47.279Z</time>
</trkpt>
<trkpt lat="57.625386" lon="10.358536">
<ele>16.120632</ele>
<time>2026-06-19T02:39:55.112Z</time>
</trkpt>
<trkpt lat="57.625341" lon="10.359244">
<ele>16.138488</ele>
<time>2026-06-19T02:40:03.585Z</time>
</trkpt>
<trkpt lat="57.625036" lon="10.361581">
<ele>15.740725</ele>
<time>2026-06-19T02:40:30.049Z</time>
</trkpt>
<trkpt lat="57.625008" lon="10.362239">
<ele>15.631573</ele>
<time>2026-06-19T02:40:37.517Z</time>
</trkpt>
<trkpt lat="57.625004" lon="10.362789">
<ele>15.568494</ele>
<time>2026-06-19T02:40:43.854Z</time>
</trkpt>
<trkpt lat="57.625023" lon="10.363061">
<ele>15.537338</ele>
<time>2026-06-19T02:40:47.026Z</time>
</trkpt>
<trkpt lat="57.625028" lon="10.363122">
<ele>15.530329</ele>
<time>2026-06-19T02:40:47.739Z</time>
</trkpt>
<trkpt lat="57.625035" lon="10.363230">
<ele>15.517973</ele>
<time>2026-06-19T02:40:49.006Z</time>
</trkpt>
<trkpt lat="57.625160" lon="10.364467">
<ele>15.374992</ele>
<time>2026-06-19T02:41:03.598Z</time>
</trkpt>
<trkpt lat="57.625305" lon="10.365833">
<ele>15.227490</ele>
<time>2026-06-19T02:41:19.630Z</time>
</trkpt>
<trkpt lat="57.625586" lon="10.368664">
<ele>15.011949</ele>
<time>2026-06-19T02:41:52.788Z</time>
</trkpt>
<trkpt lat="57.625858" lon="10.370239">
<ele>15.075922</ele>
<time>2026-06-19T02:42:13.067Z</time>
</trkpt>
<trkpt lat="57.625890" lon="10.370594">
<ele>15.095594</ele>
<time>2026-06-19T02:42:17.544Z</time>
</trkpt>
<trkpt lat="57.625892" lon="10.370994">
<ele>15.117454</ele>
<time>2026-06-19T02:42:22.525Z</time>
</trkpt>
<trkpt lat="57.625837" lon="10.372514">
<ele>15.154027</ele>
<time>2026-06-19T02:42:40.944Z</time>
</trkpt>
<trkpt lat="57.625793" lon="10.372892">
<ele>15.127000</ele>
<time>2026-06-19T02:42:45.483Z</time>
</trkpt>
<trkpt lat="57.625577" lon="10.374089">
<ele>15.038748</ele>
<time>2026-06-19T02:43:00.068Z</time>
</trkpt>
<trkpt lat="57.625496" lon="10.374726">
<ele>14.993005</ele>
<time>2026-06-19T02:43:07.492Z</time>
</trkpt>
<trkpt lat="57.625206" lon="10.380156">
<ele>14.774758</ele>
<time>2026-06-19T02:44:10.792Z</time>
</trkpt>
<trkpt lat="57.625175" lon="10.381167">
<ele>14.875335</ele>
<time>2026-06-19T02:44:23.707Z</time>
</trkpt>
<trkpt lat="57.625200" lon="10.381621">
<ele>14.920664</ele>
<time>2026-06-19T02:44:29.600Z</time>
</trkpt>
<trkpt lat="57.625449" lon="10.383131">
<ele>14.986818</ele>
<time>2026-06-19T02:44:49.644Z</time>
</trkpt>
<trkpt lat="57.625504" lon="10.383997">
<ele>15.002005</ele>
<time>2026-06-19T02:44:59.935Z</time>
</trkpt>
<trkpt lat="57.625531" lon="10.384623">
<ele>15.012942</ele>
<time>2026-06-19T02:45:07.100Z</time>
</trkpt>
<trkpt lat="57.625607" lon="10.386378">
<ele>15.123948</ele>
<time>2026-06-19T02:45:27.280Z</time>
</trkpt>
<trkpt lat="57.625678" lon="10.386849">
<ele>15.171395</ele>
<time>2026-06-19T02:45:33.162Z</time>
</trkpt>
<trkpt lat="57.625784" lon="10.387239">
<ele>15.213805</ele>
<time>2026-06-19T02:45:38.550Z</time>
</trkpt>
<trkpt lat="57.626959" lon="10.389950">
<ele>15.903765</ele>
<time>2026-06-19T02:46:24.451Z</time>
</trkpt>
<trkpt lat="57.627597" lon="10.392147">
<ele>16.259404</ele>
<time>2026-06-19T02:46:56.244Z</time>
</trkpt>
<trkpt lat="57.627659" lon="10.392588">
<ele>16.263115</ele>
<time>2026-06-19T02:47:01.730Z</time>
</trkpt>
<trkpt lat="57.627595" lon="10.396392">
<ele>16.027827</ele>
<time>2026-06-19T02:47:45.201Z</time>
</trkpt>
<trkpt lat="57.627602" lon="10.397265">
<ele>15.924648</ele>
<time>2026-06-19T02:47:55.169Z</time>
</trkpt>
<trkpt lat="57.627622" lon="10.398062">
<ele>15.892799</ele>
<time>2026-06-19T02:48:04.323Z</time>
</trkpt>
<trkpt lat="57.627639" lon="10.399159">
<ele>15.926412</ele>
<time>2026-06-19T02:48:17.112Z</time>
</trkpt>
<trkpt lat="57.627621" lon="10.399559">
<ele>15.938706</ele>
<time>2026-06-19T02:48:21.956Z</time>
</trkpt>
<trkpt lat="57.627573" lon="10.399994">
<ele>15.952310</ele>
<time>2026-06-19T02:48:27.386Z</time>
</trkpt>
<trkpt lat="57.627511" lon="10.400334">
<ele>15.963311</ele>
<time>2026-06-19T02:48:31.837Z</time>
</trkpt>
<trkpt lat="57.627395" lon="10.400692">
<ele>15.976127</ele>
<time>2026-06-19T02:48:37.043Z</time>
</trkpt>
<trkpt lat="57.627060" lon="10.401499">
<ele>16.086929</ele>
<time>2026-06-19T02:48:50.073Z</time>
</trkpt>
<trkpt lat="57.627127" lon="10.401564">
<ele>16.105229</ele>
<time>2026-06-19T02:48:52.981Z</time>
</trkpt>
<trkpt lat="57.628074" lon="10.401926">
<ele>16.339525</ele>
<time>2026-06-19T02:49:30.130Z</time>
</trkpt>
<trkpt lat="57.628206" lon="10.401950">
<ele>16.371671</ele>
<time>2026-06-19T02:49:35.065Z</time>
</trkpt>
<trkpt lat="57.628360" lon="10.401979">
<ele>16.409187</ele>
<time>2026-06-19T02:49:40.805Z</time>
</trkpt>
<trkpt lat="57.629748" lon="10.402062">
<ele>16.284628</ele>
<time>2026-06-19T02:50:31.181Z</time>
</trkpt>
<trkpt lat="57.631568" lon="10.402202">
<ele>16.369800</ele>
<time>2026-06-19T02:51:39.233Z</time>
</trkpt>
<trkpt lat="57.631779" lon="10.402245">
<ele>16.389895</ele>
<time>2026-06-19T02:51:47.425Z</time>
</trkpt>
<trkpt lat="57.632336" lon="10.402551">
<ele>16.487030</ele>
<time>2026-06-19T02:52:09.267Z</time>
</trkpt>
<trkpt lat="57.632537" lon="10.402478">
<ele>16.529999</ele>
<time>2026-06-19T02:52:16.945Z</time>
</trkpt>
<trkpt lat="57.632563" lon="10.402459">
<ele>16.535857</ele>
<time>2026-06-19T02:52:17.996Z</time>
</trkpt>
<trkpt lat="57.632614" lon="10.402351">
<ele>16.552035</ele>
<time>2026-06-19T02:52:20.838Z</time>
</trkpt>
<trkpt lat="57.632623" lon="10.402249">
<ele>16.563648</ele>
<time>2026-06-19T02:52:22.933Z</time>
</trkpt>
<trkpt lat="57.632435" lon="10.401638">
<ele>16.642816</ele>
<time>2026-06-19T02:52:36.943Z</time>
</trkpt>
<trkpt lat="57.632363" lon="10.401039">
<ele>16.711783</ele>
<time>2026-06-19T02:52:49.447Z</time>
</trkpt>
<trkpt lat="57.632250" lon="10.399740">
<ele>16.909955</ele>
<time>2026-06-19T02:53:16.846Z</time>
</trkpt>
<trkpt lat="57.632285" lon="10.399531">
<ele>16.951753</ele>
<time>2026-06-19T02:53:21.411Z</time>
</trkpt>
<trkpt lat="57.632445" lon="10.399424">
<ele>17.012343</ele>
<time>2026-06-19T02:53:28.037Z</time>
</trkpt>
<trkpt lat="57.633071" lon="10.399236">
<ele>17.238397</ele>
<time>2026-06-19T02:53:52.744Z</time>
</trkpt>
<trkpt lat="57.633417" lon="10.399177">
<ele>17.362270</ele>
<time>2026-06-19T02:54:06.223Z</time>
</trkpt>
<trkpt lat="57.638939" lon="10.400265">
<ele>17.117011</ele>
<time>2026-06-19T02:57:30.158Z</time>
</trkpt>
<trkpt lat="57.640154" lon="10.400488">
<ele>17.144891</ele>
<time>2026-06-19T02:58:15.708Z</time>
</trkpt>
<trkpt lat="57.640305" lon="10.400605">
<ele>17.148978</ele>
<time>2026-06-19T02:58:21.846Z</time>
</trkpt>
<trkpt lat="57.640671" lon="10.401311">
<ele>17.148484</ele>
<time>2026-06-19T02:58:41.538Z</time>
</trkpt>
<trkpt lat="57.640902" lon="10.401903">
<ele>17.092689</ele>
<time>2026-06-19T02:58:56.165Z</time>
</trkpt>
<trkpt lat="57.641338" lon="10.402520">
<ele>17.014862</ele>
<time>2026-06-19T02:59:16.225Z</time>
</trkpt>
<trkpt lat="57.641638" lon="10.403046">
<ele>16.956322</ele>
<time>2026-06-19T02:59:30.936Z</time>
</trkpt>
<trkpt lat="57.641832" lon="10.403482">
<ele>16.913142</ele>
<time>2026-06-19T02:59:41.735Z</time>
</trkpt>
<trkpt lat="57.642134" lon="10.404387">
<ele>16.941852</ele>
<time>2026-06-19T03:00:02.145Z</time>
</trkpt>
<trkpt lat="57.642543" lon="10.405775">
<ele>17.004821</ele>
<time>2026-06-19T03:00:33.798Z</time>
</trkpt>
<trkpt lat="57.642671" lon="10.406244">
<ele>17.025743</ele>
<time>2026-06-19T03:00:44.845Z</time>
</trkpt>
<trkpt lat="57.642874" lon="10.406984">
<ele>17.061420</ele>
<time>2026-06-19T03:01:02.367Z</time>
</trkpt>
<trkpt lat="57.642922" lon="10.407263">
<ele>17.074520</ele>
<time>2026-06-19T03:01:08.514Z</time>
</trkpt>
<trkpt lat="57.642905" lon="10.407713">
<ele>17.094685</ele>
<time>2026-06-19T03:01:17.908Z</time>
</trkpt>
<trkpt lat="57.642867" lon="10.407937">
<ele>17.105189</ele>
<time>2026-06-19T03:01:22.772Z</time>
</trkpt>
<trkpt lat="57.642553" lon="10.408879">
<ele>17.154797</ele>
<time>2026-06-19T03:01:45.014Z</time>
</trkpt>
<trkpt lat="57.642495" lon="10.409171">
<ele>17.168720</ele>
<time>2026-06-19T03:01:51.050Z</time>
</trkpt>
<trkpt lat="57.642235" lon="10.411686">
<ele>16.378570</ele>
<time>2026-06-19T03:02:38.793Z</time>
</trkpt>
<trkpt lat="57.641746" lon="10.416222">
<ele>14.397370</ele>
<time>2026-06-19T03:04:02.987Z</time>
</trkpt>
<trkpt lat="57.641696" lon="10.417022">
<ele>14.321284</ele>
<time>2026-06-19T03:04:18.139Z</time>
</trkpt>
<trkpt lat="57.641456" lon="10.420563">
<ele>14.241747</ele>
<time>2026-06-19T03:05:29.384Z</time>
</trkpt>
<trkpt lat="57.641369" lon="10.421767">
<ele>14.424695</ele>
<time>2026-06-19T03:05:54.564Z</time>
</trkpt>
<trkpt lat="57.641338" lon="10.421872">
<ele>14.442753</ele>
<time>2026-06-19T03:05:57.047Z</time>
</trkpt>
<trkpt lat="57.641415" lon="10.422136">
<ele>14.488027</ele>
<time>2026-06-19T03:06:00.899Z</time>
</trkpt>
<trkpt lat="57.641462" lon="10.422418">
<ele>14.532503</ele>
<time>2026-06-19T03:06:04.680Z</time>
</trkpt>
<trkpt lat="57.641891" lon="10.425366">
<ele>14.841267</ele>
<time>2026-06-19T03:06:42.261Z</time>
</trkpt>
<trkpt lat="57.642620" lon="10.429271">
<ele>14.948916</ele>
<time>2026-06-19T03:07:31.919Z</time>
</trkpt>
<trkpt lat="57.642741" lon="10.430075">
<ele>14.748226</ele>
<time>2026-06-19T03:07:41.831Z</time>
</trkpt>
<trkpt lat="57.642751" lon="10.430551">
<ele>14.633757</ele>
<time>2026-06-19T03:07:47.301Z</time>
</trkpt>
<trkpt lat="57.642708" lon="10.430993">
<ele>14.525806</ele>
<time>2026-06-19T03:07:52.328Z</time>
</trkpt>
<trkpt lat="57.642521" lon="10.431956">
<ele>14.279641</ele>
<time>2026-06-19T03:08:03.375Z</time>
</trkpt>
<trkpt lat="57.642508" lon="10.432311">
<ele>14.194136</ele>
<time>2026-06-19T03:08:07.075Z</time>
</trkpt>
<trkpt lat="57.643181" lon="10.435546">
<ele>12.411593</ele>
<time>2026-06-19T03:08:42.597Z</time>
</trkpt>
<trkpt lat="57.643230" lon="10.435987">
<ele>12.197136</ele>
<time>2026-06-19T03:08:47.497Z</time>
</trkpt>
<trkpt lat="57.643206" lon="10.436204">
<ele>12.092084</ele>
<time>2026-06-19T03:08:49.902Z</time>
</trkpt>
<trkpt lat="57.643095" lon="10.436628">
<ele>11.868308</ele>
<time>2026-06-19T03:08:55.016Z</time>
</trkpt>
<trkpt lat="57.643021" lon="10.436792">
<ele>11.766611</ele>
<time>2026-06-19T03:08:57.316Z</time>
</trkpt>
<trkpt lat="57.642857" lon="10.436942">
<ele>11.604861</ele>
<time>2026-06-19T03:09:00.991Z</time>
</trkpt>
<trkpt lat="57.642488" lon="10.436880">
<ele>11.276667</ele>
<time>2026-06-19T03:09:08.382Z</time>
</trkpt>
<trkpt lat="57.641724" lon="10.436898">
<ele>10.514003</ele>
<time>2026-06-19T03:09:22.867Z</time>
</trkpt>
<trkpt lat="57.641633" lon="10.437046">
<ele>10.363193</ele>
<time>2026-06-19T03:09:25.056Z</time>
</trkpt>
<trkpt lat="57.641628" lon="10.437924">
<ele>9.775752</ele>
<time>2026-06-19T03:09:33.691Z</time>
</trkpt>
<trkpt lat="57.641500" lon="10.440012">
<ele>8.489266</ele>
<time>2026-06-19T03:09:54.778Z</time>
</trkpt>
<trkpt lat="57.641460" lon="10.440385">
<ele>8.394462</ele>
<time>2026-06-19T03:09:58.727Z</time>
</trkpt>
<trkpt lat="57.641259" lon="10.441533">
<ele>8.093445</ele>
<time>2026-06-19T03:10:11.771Z</time>
</trkpt>
<trkpt lat="57.641244" lon="10.441779">
<ele>8.031741</ele>
<time>2026-06-19T03:10:14.553Z</time>
</trkpt>
<trkpt lat="57.641542" lon="10.442100">
<ele>7.871574</ele>
<time>2026-06-19T03:10:22.001Z</time>
</trkpt>
<trkpt lat="57.641909" lon="10.442495">
<ele>7.753717</ele>
<time>2026-06-19T03:10:32.766Z</time>
</trkpt>
<trkpt lat="57.642304" lon="10.442804">
<ele>7.881339</ele>
<time>2026-06-19T03:10:44.249Z</time>
</trkpt>
<trkpt lat="57.642563" lon="10.442970">
<ele>7.962943</ele>
<time>2026-06-19T03:10:51.644Z</time>
</trkpt>
<trkpt lat="57.642685" lon="10.443097">
<ele>8.004564</ele>
<time>2026-06-19T03:10:55.372Z</time>
</trkpt>
<trkpt lat="57.643163" lon="10.443853">
<ele>8.191204</ele>
<time>2026-06-19T03:11:11.848Z</time>
</trkpt>
<trkpt lat="57.643959" lon="10.444845">
<ele>8.087237</ele>
<time>2026-06-19T03:11:35.504Z</time>
</trkpt>
<trkpt lat="57.644014" lon="10.444964">
<ele>8.067462</ele>
<time>2026-06-19T03:11:37.487Z</time>
</trkpt>
<trkpt lat="57.644130" lon="10.445371">
<ele>8.009469</ele>
<time>2026-06-19T03:11:43.278Z</time>
</trkpt>
<trkpt lat="57.644253" lon="10.445908">
<ele>7.936007</ele>
<time>2026-06-19T03:11:50.544Z</time>
</trkpt>
<trkpt lat="57.644429" lon="10.446217">
<ele>7.879254</ele>
<time>2026-06-19T03:11:56.116Z</time>
</trkpt>
<trkpt lat="57.644838" lon="10.446639">
<ele>7.626480</ele>
<time>2026-06-19T03:12:06.721Z</time>
</trkpt>
<trkpt lat="57.644941" lon="10.446846">
<ele>7.514676</ele>
<time>2026-06-19T03:12:10.123Z</time>
</trkpt>
<trkpt lat="57.645388" lon="10.448049">
<ele>6.935377</ele>
<time>2026-06-19T03:12:27.528Z</time>
</trkpt>
<trkpt lat="57.646502" lon="10.451171">
<ele>5.531127</ele>
<time>2026-06-19T03:13:11.855Z</time>
</trkpt>
<trkpt lat="57.646727" lon="10.451776">
<ele>5.278246</ele>
<time>2026-06-19T03:13:21.354Z</time>
</trkpt>
<trkpt lat="57.647134" lon="10.452926">
<ele>5.286431</ele>
<time>2026-06-19T03:13:39.183Z</time>
</trkpt>
<trkpt lat="57.647222" lon="10.453029">
<ele>5.287583</ele>
<time>2026-06-19T03:13:41.762Z</time>
</trkpt>
<trkpt lat="57.647330" lon="10.453055">
<ele>5.288792</ele>
<time>2026-06-19T03:13:44.469Z</time>
</trkpt>
<trkpt lat="57.647463" lon="10.452900">
<ele>5.290531</ele>
<time>2026-06-19T03:13:48.431Z</time>
</trkpt>
<trkpt lat="57.647644" lon="10.452554">
<ele>5.293403</ele>
<time>2026-06-19T03:13:55.011Z</time>
</trkpt>
<trkpt lat="57.647894" lon="10.452209">
<ele>5.296851</ele>
<time>2026-06-19T03:14:02.876Z</time>
</trkpt>
<trkpt lat="57.648032" lon="10.451924">
<ele>5.350413</ele>
<time>2026-06-19T03:14:08.062Z</time>
</trkpt>
<trkpt lat="57.648122" lon="10.451856">
<ele>5.397699</ele>
<time>2026-06-19T03:14:10.476Z</time>
</trkpt>
<trkpt lat="57.648214" lon="10.451874">
<ele>5.442757</ele>
<time>2026-06-19T03:14:12.817Z</time>
</trkpt>
<trkpt lat="57.648315" lon="10.451952">
<ele>5.495990</ele>
<time>2026-06-19T03:14:15.573Z</time>
</trkpt>
<trkpt lat="57.650547" lon="10.454816">
<ele>6.877731</ele>
<time>2026-06-19T03:15:29.359Z</time>
</trkpt>
<trkpt lat="57.650647" lon="10.454909">
<ele>6.937483</ele>
<time>2026-06-19T03:15:32.294Z</time>
</trkpt>
<trkpt lat="57.650828" lon="10.454970">
<ele>7.035869</ele>
<time>2026-06-19T03:15:37.101Z</time>
</trkpt>
<trkpt lat="57.650999" lon="10.455072">
<ele>7.131890</ele>
<time>2026-06-19T03:15:41.732Z</time>
</trkpt>
<trkpt lat="57.651524" lon="10.455814">
<ele>7.314384</ele>
<time>2026-06-19T03:15:58.518Z</time>
</trkpt>
<trkpt lat="57.652120" lon="10.456419">
<ele>7.500252</ele>
<time>2026-06-19T03:16:15.899Z</time>
</trkpt>
<trkpt lat="57.652499" lon="10.456675">
<ele>7.610690</ele>
<time>2026-06-19T03:16:26.331Z</time>
</trkpt>
<trkpt lat="57.652621" lon="10.456706">
<ele>7.649911</ele>
<time>2026-06-19T03:16:29.575Z</time>
</trkpt>
<trkpt lat="57.655606" lon="10.457135">
<ele>8.619672</ele>
<time>2026-06-19T03:17:48.224Z</time>
</trkpt>
<trkpt lat="57.655619" lon="10.458106">
<ele>8.753057</ele>
<time>2026-06-19T03:17:59.867Z</time>
</trkpt>
<trkpt lat="57.655660" lon="10.458477">
<ele>8.715823</ele>
<time>2026-06-19T03:18:04.256Z</time>
</trkpt>
<trkpt lat="57.655688" lon="10.458657">
<ele>8.690323</ele>
<time>2026-06-19T03:18:06.409Z</time>
</trkpt>
<trkpt lat="57.655758" lon="10.458889">
<ele>8.654089</ele>
<time>2026-06-19T03:18:09.453Z</time>
</trkpt>
<trkpt lat="57.656127" lon="10.459511">
<ele>8.527746</ele>
<time>2026-06-19T03:18:19.942Z</time>
</trkpt>
<trkpt lat="57.656411" lon="10.460113">
<ele>8.418563</ele>
<time>2026-06-19T03:18:28.700Z</time>
</trkpt>
<trkpt lat="57.656604" lon="10.460261">
<ele>8.365520</ele>
<time>2026-06-19T03:18:33.020Z</time>
</trkpt>
<trkpt lat="57.656937" lon="10.460596">
<ele>8.307042</ele>
<time>2026-06-19T03:18:41.203Z</time>
</trkpt>
<trkpt lat="57.657564" lon="10.461052">
<ele>8.328165</ele>
<time>2026-06-19T03:18:56.215Z</time>
</trkpt>
<trkpt lat="57.657648" lon="10.461187">
<ele>8.331643</ele>
<time>2026-06-19T03:18:58.699Z</time>
</trkpt>
<trkpt lat="57.657775" lon="10.461292">
<ele>8.336003</ele>
<time>2026-06-19T03:19:01.817Z</time>
</trkpt>
<trkpt lat="57.657919" lon="10.461472">
<ele>8.341442</ele>
<time>2026-06-19T03:19:05.727Z</time>
</trkpt>
<trkpt lat="57.657800" lon="10.462015">
<ele>8.351298</ele>
<time>2026-06-19T03:19:12.842Z</time>
</trkpt>
<trkpt lat="57.657800" lon="10.462132">
<ele>8.353263</ele>
<time>2026-06-19T03:19:14.246Z</time>
</trkpt>
<trkpt lat="57.657862" lon="10.462241">
<ele>8.355935</ele>
<time>2026-06-19T03:19:16.242Z</time>
</trkpt>
<trkpt lat="57.658123" lon="10.462461">
<ele>8.402857</ele>
<time>2026-06-19T03:19:22.840Z</time>
</trkpt>
<trkpt lat="57.658513" lon="10.462788">
<ele>8.507958</ele>
<time>2026-06-19T03:19:32.775Z</time>
</trkpt>
<trkpt lat="57.659404" lon="10.463524">
<ele>8.747480</ele>
<time>2026-06-19T03:19:56.291Z</time>
</trkpt>
<trkpt lat="57.659953" lon="10.463949">
<ele>8.776111</ele>
<time>2026-06-19T03:20:09.116Z</time>
</trkpt>
<trkpt lat="57.660174" lon="10.464066">
<ele>8.760435</ele>
<time>2026-06-19T03:20:14.068Z</time>
</trkpt>
<trkpt lat="57.660241" lon="10.464101">
<ele>8.755687</ele>
<time>2026-06-19T03:20:15.596Z</time>
</trkpt>
<trkpt lat="57.660767" lon="10.464342">
<ele>8.718728</ele>
<time>2026-06-19T03:20:27.542Z</time>
</trkpt>
<trkpt lat="57.661575" lon="10.464974">
<ele>8.654433</ele>
<time>2026-06-19T03:20:46.338Z</time>
</trkpt>
<trkpt lat="57.663497" lon="10.466533">
<ele>8.482720</ele>
<time>2026-06-19T03:21:32.660Z</time>
</trkpt>
<trkpt lat="57.663675" lon="10.466743">
<ele>8.466419</ele>
<time>2026-06-19T03:21:37.164Z</time>
</trkpt>
<trkpt lat="57.663861" lon="10.467083">
<ele>8.446274</ele>
<time>2026-06-19T03:21:42.750Z</time>
</trkpt>
<trkpt lat="57.664373" lon="10.468144">
<ele>8.382877</ele>
<time>2026-06-19T03:21:59.580Z</time>
</trkpt>
<trkpt lat="57.664634" lon="10.468706">
<ele>8.284592</ele>
<time>2026-06-19T03:22:08.461Z</time>
</trkpt>
<trkpt lat="57.664907" lon="10.469397">
<ele>8.171150</ele>
<time>2026-06-19T03:22:18.572Z</time>
</trkpt>
<trkpt lat="57.665295" lon="10.470398">
<ele>8.007905</ele>
<time>2026-06-19T03:22:32.609Z</time>
</trkpt>
<trkpt lat="57.666021" lon="10.472239">
<ele>7.213478</ele>
<time>2026-06-19T03:22:56.958Z</time>
</trkpt>
<trkpt lat="57.666130" lon="10.472693">
<ele>7.012425</ele>
<time>2026-06-19T03:23:02.168Z</time>
</trkpt>
<trkpt lat="57.666425" lon="10.474810">
<ele>6.209137</ele>
<time>2026-06-19T03:23:25.407Z</time>
</trkpt>
<trkpt lat="57.666440" lon="10.474910">
<ele>6.174562</ele>
<time>2026-06-19T03:23:26.522Z</time>
</trkpt>
<trkpt lat="57.666827" lon="10.477120">
<ele>5.418925</ele>
<time>2026-06-19T03:23:51.788Z</time>
</trkpt>
<trkpt lat="57.667126" lon="10.478814">
<ele>4.990748</ele>
<time>2026-06-19T03:24:11.330Z</time>
</trkpt>
<trkpt lat="57.667218" lon="10.479323">
<ele>4.861787</ele>
<time>2026-06-19T03:24:17.307Z</time>
</trkpt>
<trkpt lat="57.667416" lon="10.480395">
<ele>4.622772</ele>
<time>2026-06-19T03:24:30.137Z</time>
</trkpt>
<trkpt lat="57.667627" lon="10.481613">
<ele>4.461251</ele>
<time>2026-06-19T03:24:44.762Z</time>
</trkpt>
<trkpt lat="57.667781" lon="10.482365">
<ele>4.359663</ele>
<time>2026-06-19T03:24:54.069Z</time>
</trkpt>
<trkpt lat="57.668417" lon="10.484980">
<ele>4.126747</ele>
<time>2026-06-19T03:25:27.249Z</time>
</trkpt>
<trkpt lat="57.668544" lon="10.485342">
<ele>4.101842</ele>
<time>2026-06-19T03:25:32.278Z</time>
</trkpt>
<trkpt lat="57.669069" lon="10.486486">
<ele>4.049058</ele>
<time>2026-06-19T03:25:50.012Z</time>
</trkpt>
<trkpt lat="57.669481" lon="10.487591">
<ele>4.070053</ele>
<time>2026-06-19T03:26:06.074Z</time>
</trkpt>
<trkpt lat="57.670079" lon="10.488958">
<ele>4.105722</ele>
<time>2026-06-19T03:26:27.319Z</time>
</trkpt>
<trkpt lat="57.670552" lon="10.489907">
<ele>4.175298</ele>
<time>2026-06-19T03:26:43.181Z</time>
</trkpt>
<trkpt lat="57.670668" lon="10.490239">
<ele>4.196568</ele>
<time>2026-06-19T03:26:48.056Z</time>
</trkpt>
<trkpt lat="57.670807" lon="10.490793">
<ele>4.229388</ele>
<time>2026-06-19T03:26:55.570Z</time>
</trkpt>
<trkpt lat="57.671007" lon="10.491866">
<ele>4.230021</ele>
<time>2026-06-19T03:27:09.208Z</time>
</trkpt>
<trkpt lat="57.671124" lon="10.492375">
<ele>4.145624</ele>
<time>2026-06-19T03:27:15.696Z</time>
</trkpt>
<trkpt lat="57.671421" lon="10.493307">
<ele>3.980355</ele>
<time>2026-06-19T03:27:28.210Z</time>
</trkpt>
<trkpt lat="57.671624" lon="10.494051">
<ele>3.853121</ele>
<time>2026-06-19T03:27:37.477Z</time>
</trkpt>
<trkpt lat="57.671772" lon="10.494322">
<ele>3.794117</ele>
<time>2026-06-19T03:27:41.686Z</time>
</trkpt>
<trkpt lat="57.671901" lon="10.494600">
<ele>3.721170</ele>
<time>2026-06-19T03:27:45.594Z</time>
</trkpt>
<trkpt lat="57.672436" lon="10.495719">
<ele>3.333232</ele>
<time>2026-06-19T03:28:01.648Z</time>
</trkpt>
<trkpt lat="57.672476" lon="10.495878">
<ele>3.287819</ele>
<time>2026-06-19T03:28:03.572Z</time>
</trkpt>
<trkpt lat="57.672496" lon="10.496163">
<ele>3.213530</ele>
<time>2026-06-19T03:28:06.715Z</time>
</trkpt>
<trkpt lat="57.672588" lon="10.496412">
<ele>3.135310</ele>
<time>2026-06-19T03:28:10.051Z</time>
</trkpt>
<trkpt lat="57.673258" lon="10.497528">
<ele>2.912104</ele>
<time>2026-06-19T03:28:29.381Z</time>
</trkpt>
<trkpt lat="57.673589" lon="10.497875">
<ele>2.930419</ele>
<time>2026-06-19T03:28:38.229Z</time>
</trkpt>
<trkpt lat="57.673770" lon="10.497938">
<ele>2.939305</ele>
<time>2026-06-19T03:28:42.502Z</time>
</trkpt>
<trkpt lat="57.674180" lon="10.497869">
<ele>2.959174</ele>
<time>2026-06-19T03:28:51.912Z</time>
</trkpt>
<trkpt lat="57.674681" lon="10.497990">
<ele>2.971289</ele>
<time>2026-06-19T03:29:03.204Z</time>
</trkpt>
<trkpt lat="57.674989" lon="10.498129">
<ele>2.936506</ele>
<time>2026-06-19T03:29:10.225Z</time>
</trkpt>
<trkpt lat="57.675185" lon="10.498312">
<ele>2.912456</ele>
<time>2026-06-19T03:29:15.003Z</time>
</trkpt>
<trkpt lat="57.675546" lon="10.498714">
<ele>2.866332</ele>
<time>2026-06-19T03:29:23.982Z</time>
</trkpt>
<trkpt lat="57.675628" lon="10.498855">
<ele>2.854103</ele>
<time>2026-06-19T03:29:26.375Z</time>
</trkpt>
<trkpt lat="57.675922" lon="10.499862">
<ele>2.786754</ele>
<time>2026-06-19T03:29:39.624Z</time>
</trkpt>
<trkpt lat="57.676013" lon="10.500094">
<ele>2.790347</ele>
<time>2026-06-19T03:29:43.002Z</time>
</trkpt>
<trkpt lat="57.676130" lon="10.500287">
<ele>2.801308</ele>
<time>2026-06-19T03:29:46.452Z</time>
</trkpt>
<trkpt lat="57.676588" lon="10.500855">
<ele>2.839921</ele>
<time>2026-06-19T03:29:58.836Z</time>
</trkpt>
<trkpt lat="57.676828" lon="10.501283">
<ele>2.863222</ele>
<time>2026-06-19T03:30:06.403Z</time>
</trkpt>
<trkpt lat="57.677001" lon="10.501502">
<ele>2.877900</ele>
<time>2026-06-19T03:30:11.165Z</time>
</trkpt>
<trkpt lat="57.677194" lon="10.501680">
<ele>2.893019</ele>
<time>2026-06-19T03:30:16.086Z</time>
</trkpt>
<trkpt lat="57.677521" lon="10.501854">
<ele>2.931338</ele>
<time>2026-06-19T03:30:23.856Z</time>
</trkpt>
<trkpt lat="57.678109" lon="10.502161">
<ele>3.049932</ele>
<time>2026-06-19T03:30:37.787Z</time>
</trkpt>
<trkpt lat="57.678528" lon="10.502219">
<ele>3.131551</ele>
<time>2026-06-19T03:30:47.310Z</time>
</trkpt>
<trkpt lat="57.678728" lon="10.502299">
<ele>3.171283</ele>
<time>2026-06-19T03:30:51.916Z</time>
</trkpt>
<trkpt lat="57.679908" lon="10.503028">
<ele>3.602914</ele>
<time>2026-06-19T03:31:21.039Z</time>
</trkpt>
<trkpt lat="57.680223" lon="10.503055">
<ele>3.739565</ele>
<time>2026-06-19T03:31:28.754Z</time>
</trkpt>
<trkpt lat="57.680646" lon="10.503226">
<ele>3.927107</ele>
<time>2026-06-19T03:31:39.443Z</time>
</trkpt>
<trkpt lat="57.681681" lon="10.503020">
<ele>4.418534</ele>
<time>2026-06-19T03:32:05.145Z</time>
</trkpt>
<trkpt lat="57.683129" lon="10.503175">
<ele>4.996707</ele>
<time>2026-06-19T03:32:39.541Z</time>
</trkpt>
<trkpt lat="57.683513" lon="10.503173">
<ele>5.073278</ele>
<time>2026-06-19T03:32:48.398Z</time>
</trkpt>
<trkpt lat="57.683862" lon="10.503009">
<ele>5.145033</ele>
<time>2026-06-19T03:32:56.590Z</time>
</trkpt>
<trkpt lat="57.684238" lon="10.503055">
<ele>5.220169</ele>
<time>2026-06-19T03:33:05.132Z</time>
</trkpt>
<trkpt lat="57.684495" lon="10.502947">
<ele>5.274912</ele>
<time>2026-06-19T03:33:11.096Z</time>
</trkpt>
<trkpt lat="57.684624" lon="10.502936">
<ele>5.313111</ele>
<time>2026-06-19T03:33:14.039Z</time>
</trkpt>
<trkpt lat="57.685021" lon="10.503030">
<ele>5.431485</ele>
<time>2026-06-19T03:33:23.150Z</time>
</trkpt>
<trkpt lat="57.686123" lon="10.502778">
<ele>5.759894</ele>
<time>2026-06-19T03:33:49.317Z</time>
</trkpt>
<trkpt lat="57.686229" lon="10.502721">
<ele>5.792520</ele>
<time>2026-06-19T03:33:51.998Z</time>
</trkpt>
<trkpt lat="57.686322" lon="10.502614">
<ele>5.835228</ele>
<time>2026-06-19T03:33:54.643Z</time>
</trkpt>
<trkpt lat="57.686482" lon="10.502332">
<ele>5.927711</ele>
<time>2026-06-19T03:33:59.957Z</time>
</trkpt>
<trkpt lat="57.686576" lon="10.502219">
<ele>5.974719</ele>
<time>2026-06-19T03:34:02.670Z</time>
</trkpt>
<trkpt lat="57.686909" lon="10.502030">
<ele>6.121121</ele>
<time>2026-06-19T03:34:11.121Z</time>
</trkpt>
<trkpt lat="57.686991" lon="10.501944">
<ele>6.160671</ele>
<time>2026-06-19T03:34:13.401Z</time>
</trkpt>
<trkpt lat="57.687162" lon="10.501565">
<ele>6.272206</ele>
<time>2026-06-19T03:34:19.814Z</time>
</trkpt>
<trkpt lat="57.687235" lon="10.501481">
<ele>6.308262</ele>
<time>2026-06-19T03:34:21.890Z</time>
</trkpt>
<trkpt lat="57.687852" lon="10.501360">
<ele>6.562156</ele>
<time>2026-06-19T03:34:36.675Z</time>
</trkpt>
<trkpt lat="57.688762" lon="10.501640">
<ele>6.727734</ele>
<time>2026-06-19T03:34:58.045Z</time>
</trkpt>
<trkpt lat="57.689354" lon="10.501959">
<ele>6.838344</ele>
<time>2026-06-19T03:35:11.947Z</time>
</trkpt>
<trkpt lat="57.689562" lon="10.502116">
<ele>6.878613</ele>
<time>2026-06-19T03:35:16.947Z</time>
</trkpt>
<trkpt lat="57.689659" lon="10.502125">
<ele>6.878154</ele>
<time>2026-06-19T03:35:19.109Z</time>
</trkpt>
<trkpt lat="57.690363" lon="10.501869">
<ele>6.865136</ele>
<time>2026-06-19T03:35:34.979Z</time>
</trkpt>
<trkpt lat="57.690515" lon="10.501871">
<ele>6.862376</ele>
<time>2026-06-19T03:35:38.351Z</time>
</trkpt>
<trkpt lat="57.690886" lon="10.501979">
<ele>6.855561</ele>
<time>2026-06-19T03:35:46.650Z</time>
</trkpt>
<trkpt lat="57.691637" lon="10.502615">
<ele>6.838932</ele>
<time>2026-06-19T03:36:04.802Z</time>
</trkpt>
<trkpt lat="57.691727" lon="10.502736">
<ele>6.836408</ele>
<time>2026-06-19T03:36:07.232Z</time>
</trkpt>
<trkpt lat="57.691918" lon="10.503343">
<ele>6.827837</ele>
<time>2026-06-19T03:36:15.464Z</time>
</trkpt>
<trkpt lat="57.691963" lon="10.503669">
<ele>6.823740</ele>
<time>2026-06-19T03:36:19.417Z</time>
</trkpt>
<trkpt lat="57.691985" lon="10.504060">
<ele>6.818956</ele>
<time>2026-06-19T03:36:24.037Z</time>
</trkpt>
<trkpt lat="57.692038" lon="10.504189">
<ele>6.816976</ele>
<time>2026-06-19T03:36:25.958Z</time>
</trkpt>
<trkpt lat="57.692088" lon="10.504239">
<ele>6.815685</ele>
<time>2026-06-19T03:36:27.224Z</time>
</trkpt>
<trkpt lat="57.692155" lon="10.504252">
<ele>6.814152</ele>
<time>2026-06-19T03:36:28.708Z</time>
</trkpt>
<trkpt lat="57.692216" lon="10.504199">
<ele>6.812620</ele>
<time>2026-06-19T03:36:30.205Z</time>
</trkpt>
<trkpt lat="57.692318" lon="10.503949">
<ele>6.808793</ele>
<time>2026-06-19T03:36:33.936Z</time>
</trkpt>
<trkpt lat="57.692489" lon="10.503849">
<ele>6.830691</ele>
<time>2026-06-19T03:36:37.931Z</time>
</trkpt>
<trkpt lat="57.693120" lon="10.503872">
<ele>7.067963</ele>
<time>2026-06-19T03:36:52.866Z</time>
</trkpt>
<trkpt lat="57.693452" lon="10.504029">
<ele>7.196704</ele>
<time>2026-06-19T03:37:01.457Z</time>
</trkpt>
<trkpt lat="57.693675" lon="10.504078">
<ele>7.281118</ele>
<time>2026-06-19T03:37:07.156Z</time>
</trkpt>
<trkpt lat="57.693995" lon="10.504052">
<ele>7.401537</ele>
<time>2026-06-19T03:37:14.939Z</time>
</trkpt>
<trkpt lat="57.694270" lon="10.503893">
<ele>7.445253</ele>
<time>2026-06-19T03:37:21.613Z</time>
</trkpt>
<trkpt lat="57.694371" lon="10.503887">
<ele>7.393634</ele>
<time>2026-06-19T03:37:23.934Z</time>
</trkpt>
<trkpt lat="57.694464" lon="10.503930">
<ele>7.344698</ele>
<time>2026-06-19T03:37:26.080Z</time>
</trkpt>
<trkpt lat="57.694622" lon="10.504093">
<ele>7.252534</ele>
<time>2026-06-19T03:37:30.075Z</time>
</trkpt>
<trkpt lat="57.695101" lon="10.504345">
<ele>6.998361</ele>
<time>2026-06-19T03:37:40.504Z</time>
</trkpt>
<trkpt lat="57.695130" lon="10.504418">
<ele>6.973530</ele>
<time>2026-06-19T03:37:41.455Z</time>
</trkpt>
<trkpt lat="57.695191" lon="10.506713">
<ele>6.251229</ele>
<time>2026-06-19T03:38:04.927Z</time>
</trkpt>
<trkpt lat="57.695245" lon="10.506900">
<ele>6.167844</ele>
<time>2026-06-19T03:38:07.146Z</time>
</trkpt>
<trkpt lat="57.695400" lon="10.507195">
<ele>6.005553</ele>
<time>2026-06-19T03:38:11.496Z</time>
</trkpt>
<trkpt lat="57.696112" lon="10.507834">
<ele>5.425896</ele>
<time>2026-06-19T03:38:27.462Z</time>
</trkpt>
<trkpt lat="57.696255" lon="10.508035">
<ele>5.294610</ele>
<time>2026-06-19T03:38:31.165Z</time>
</trkpt>
<trkpt lat="57.696373" lon="10.508281">
<ele>5.201285</ele>
<time>2026-06-19T03:38:34.877Z</time>
</trkpt>
<trkpt lat="57.696440" lon="10.508491">
<ele>5.149843</ele>
<time>2026-06-19T03:38:37.627Z</time>
</trkpt>
<trkpt lat="57.696538" lon="10.509086">
<ele>5.018890</ele>
<time>2026-06-19T03:38:44.666Z</time>
</trkpt>
<trkpt lat="57.696605" lon="10.509289">
<ele>4.968707</ele>
<time>2026-06-19T03:38:47.379Z</time>
</trkpt>
<trkpt lat="57.697483" lon="10.510321">
<ele>4.560634</ele>
<time>2026-06-19T03:39:09.048Z</time>
</trkpt>
<trkpt lat="57.698582" lon="10.511605">
<ele>4.000509</ele>
<time>2026-06-19T03:39:35.651Z</time>
</trkpt>
<trkpt lat="57.698737" lon="10.511715">
<ele>3.928507</ele>
<time>2026-06-19T03:39:39.099Z</time>
</trkpt>
<trkpt lat="57.699386" lon="10.511867">
<ele>3.759922</ele>
<time>2026-06-19T03:39:52.860Z</time>
</trkpt>
<trkpt lat="57.699510" lon="10.511953">
<ele>3.762930</ele>
<time>2026-06-19T03:39:55.669Z</time>
</trkpt>
<trkpt lat="57.700404" lon="10.513246">
<ele>3.788633</ele>
<time>2026-06-19T03:40:20.897Z</time>
</trkpt>
<trkpt lat="57.701591" lon="10.515242">
<ele>4.329183</ele>
<time>2026-06-19T03:40:59.371Z</time>
</trkpt>
<trkpt lat="57.702006" lon="10.515904">
<ele>4.537554</ele>
<time>2026-06-19T03:41:12.297Z</time>
</trkpt>
<trkpt lat="57.703816" lon="10.520107">
<ele>5.051390</ele>
<time>2026-06-19T03:42:18.262Z</time>
</trkpt>
<trkpt lat="57.704256" lon="10.521134">
<ele>5.169922</ele>
<time>2026-06-19T03:42:34.718Z</time>
</trkpt>
<trkpt lat="57.704365" lon="10.521456">
<ele>5.163224</ele>
<time>2026-06-19T03:42:39.368Z</time>
</trkpt>
<trkpt lat="57.704485" lon="10.521938">
<ele>5.153881</ele>
<time>2026-06-19T03:42:45.776Z</time>
</trkpt>
<trkpt lat="57.704548" lon="10.522350">
<ele>5.146351</ele>
<time>2026-06-19T03:42:50.863Z</time>
</trkpt>
<trkpt lat="57.704606" lon="10.522989">
<ele>5.134962</ele>
<time>2026-06-19T03:42:58.382Z</time>
</trkpt>
<trkpt lat="57.704774" lon="10.523271">
<ele>5.127541</ele>
<time>2026-06-19T03:43:03.232Z</time>
</trkpt>
<trkpt lat="57.705104" lon="10.524068">
<ele>5.112596</ele>
<time>2026-06-19T03:43:14.800Z</time>
</trkpt>
<trkpt lat="57.705189" lon="10.524333">
<ele>5.113052</ele>
<time>2026-06-19T03:43:18.354Z</time>
</trkpt>
<trkpt lat="57.705263" lon="10.524456">
<ele>5.113325</ele>
<time>2026-06-19T03:43:20.487Z</time>
</trkpt>
<trkpt lat="57.705473" lon="10.524426">
<ele>5.113907</ele>
<time>2026-06-19T03:43:25.067Z</time>
</trkpt>
<trkpt lat="57.707568" lon="10.523775">
<ele>5.239305</ele>
<time>2026-06-19T03:44:13.018Z</time>
</trkpt>
<trkpt lat="57.707946" lon="10.523667">
<ele>5.292450</ele>
<time>2026-06-19T03:44:21.735Z</time>
</trkpt>
<trkpt lat="57.708187" lon="10.523590">
<ele>5.326430</ele>
<time>2026-06-19T03:44:27.390Z</time>
</trkpt>
<trkpt lat="57.708258" lon="10.523508">
<ele>5.338025</ele>
<time>2026-06-19T03:44:29.303Z</time>
</trkpt>
<trkpt lat="57.708613" lon="10.522880">
<ele>5.422091</ele>
<time>2026-06-19T03:44:40.680Z</time>
</trkpt>
<trkpt lat="57.708823" lon="10.522642">
<ele>5.470520</ele>
<time>2026-06-19T03:44:46.416Z</time>
</trkpt>
<trkpt lat="57.708978" lon="10.522656">
<ele>5.501132</ele>
<time>2026-06-19T03:44:50.068Z</time>
</trkpt>
<trkpt lat="57.709011" lon="10.522691">
<ele>5.508615</ele>
<time>2026-06-19T03:44:50.947Z</time>
</trkpt>
<trkpt lat="57.709451" lon="10.523324">
<ele>5.618088</ele>
<time>2026-06-19T03:45:03.879Z</time>
</trkpt>
<trkpt lat="57.709797" lon="10.523767">
<ele>5.700783</ele>
<time>2026-06-19T03:45:13.510Z</time>
</trkpt>
<trkpt lat="57.710408" lon="10.524709">
<ele>5.568350</ele>
<time>2026-06-19T03:45:30.939Z</time>
</trkpt>
<trkpt lat="57.710873" lon="10.526043">
<ele>5.376792</ele>
<time>2026-06-19T03:45:48.780Z</time>
</trkpt>
<trkpt lat="57.711343" lon="10.527462">
<ele>5.261433</ele>
<time>2026-06-19T03:46:07.382Z</time>
</trkpt>
<trkpt lat="57.711455" lon="10.527586">
<ele>5.249858</ele>
<time>2026-06-19T03:46:10.167Z</time>
</trkpt>
<trkpt lat="57.711540" lon="10.527971">
<ele>5.230062</ele>
<time>2026-06-19T03:46:14.927Z</time>
</trkpt>
<trkpt lat="57.712347" lon="10.530452">
<ele>5.168374</ele>
<time>2026-06-19T03:46:50.450Z</time>
</trkpt>
<trkpt lat="57.712962" lon="10.532124">
<ele>5.183722</ele>
<time>2026-06-19T03:47:14.272Z</time>
</trkpt>
<trkpt lat="57.713246" lon="10.532724">
<ele>5.164669</ele>
<time>2026-06-19T03:47:23.561Z</time>
</trkpt>
<trkpt lat="57.714274" lon="10.534484">
<ele>5.105389</ele>
<time>2026-06-19T03:47:54.414Z</time>
</trkpt>
<trkpt lat="57.717632" lon="10.540129">
<ele>5.233733</ele>
<time>2026-06-19T03:49:35.006Z</time>
</trkpt>
<trkpt lat="57.718084" lon="10.540779">
<ele>5.266449</ele>
<time>2026-06-19T03:49:48.050Z</time>
</trkpt>
<trkpt lat="57.719277" lon="10.542127">
<ele>5.288932</ele>
<time>2026-06-19T03:50:19.928Z</time>
</trkpt>
<trkpt lat="57.719501" lon="10.542418">
<ele>5.290606</ele>
<time>2026-06-19T03:50:25.840Z</time>
</trkpt>
<trkpt lat="57.720306" lon="10.543880">
<ele>5.216092</ele>
<time>2026-06-19T03:50:49.550Z</time>
</trkpt>
<trkpt lat="57.721732" lon="10.546530">
<ele>5.059789</ele>
<time>2026-06-19T03:51:34.276Z</time>
</trkpt>
<trkpt lat="57.721835" lon="10.546724">
<ele>5.053457</ele>
<time>2026-06-19T03:51:37.531Z</time>
</trkpt>
<trkpt lat="57.722169" lon="10.547357">
<ele>5.032858</ele>
<time>2026-06-19T03:51:48.012Z</time>
</trkpt>
<trkpt lat="57.722278" lon="10.547638">
<ele>5.024818</ele>
<time>2026-06-19T03:51:52.069Z</time>
</trkpt>
<trkpt lat="57.722334" lon="10.547781">
<ele>5.014394</ele>
<time>2026-06-19T03:51:54.121Z</time>
</trkpt>
<trkpt lat="57.722445" lon="10.548141">
<ele>4.958742</ele>
<time>2026-06-19T03:51:58.903Z</time>
</trkpt>
<trkpt lat="57.722606" lon="10.548830">
<ele>4.858056</ele>
<time>2026-06-19T03:52:07.405Z</time>
</trkpt>
<trkpt lat="57.722639" lon="10.548979">
<ele>4.836461</ele>
<time>2026-06-19T03:52:09.214Z</time>
</trkpt>
<trkpt lat="57.723117" lon="10.551168">
<ele>4.532991</ele>
<time>2026-06-19T03:52:35.881Z</time>
</trkpt>
<trkpt lat="57.723235" lon="10.551858">
<ele>4.460853</ele>
<time>2026-06-19T03:52:44.101Z</time>
</trkpt>
<trkpt lat="57.723390" lon="10.553014">
<ele>4.342181</ele>
<time>2026-06-19T03:52:57.811Z</time>
</trkpt>
<trkpt lat="57.723533" lon="10.554295">
<ele>4.248706</ele>
<time>2026-06-19T03:53:13.257Z</time>
</trkpt>
<trkpt lat="57.723659" lon="10.555443">
<ele>4.311962</ele>
<time>2026-06-19T03:53:27.495Z</time>
</trkpt>
<trkpt lat="57.723814" lon="10.556705">
<ele>4.381854</ele>
<time>2026-06-19T03:53:43.270Z</time>
</trkpt>
<trkpt lat="57.723894" lon="10.557277">
<ele>4.413768</ele>
<time>2026-06-19T03:53:50.453Z</time>
</trkpt>
<trkpt lat="57.724079" lon="10.558695">
<ele>4.387438</ele>
<time>2026-06-19T03:54:07.973Z</time>
</trkpt>
<trkpt lat="57.724260" lon="10.560135">
<ele>4.355377</ele>
<time>2026-06-19T03:54:25.240Z</time>
</trkpt>
<trkpt lat="57.724409" lon="10.561295">
<ele>4.276610</ele>
<time>2026-06-19T03:54:38.887Z</time>
</trkpt>
<trkpt lat="57.724436" lon="10.561763">
<ele>4.230508</ele>
<time>2026-06-19T03:54:44.279Z</time>
</trkpt>
<trkpt lat="57.724416" lon="10.561891">
<ele>4.217446</ele>
<time>2026-06-19T03:54:45.827Z</time>
</trkpt>
<trkpt lat="57.724391" lon="10.562055">
<ele>4.200742</ele>
<time>2026-06-19T03:54:47.797Z</time>
</trkpt>
<trkpt lat="57.724330" lon="10.562263">
<ele>4.177500</ele>
<time>2026-06-19T03:54:50.547Z</time>
</trkpt>
<trkpt lat="57.723967" lon="10.563412">
<ele>4.046747</ele>
<time>2026-06-19T03:55:05.996Z</time>
</trkpt>
<trkpt lat="57.723641" lon="10.564360">
<ele>3.917205</ele>
<time>2026-06-19T03:55:18.681Z</time>
</trkpt>
<trkpt lat="57.723076" lon="10.565762">
<ele>3.703224</ele>
<time>2026-06-19T03:55:38.704Z</time>
</trkpt>
<trkpt lat="57.722919" lon="10.565613">
<ele>3.663070</ele>
<time>2026-06-19T03:55:42.447Z</time>
</trkpt>
<trkpt lat="57.722583" lon="10.565730">
<ele>3.594564</ele>
<time>2026-06-19T03:55:49.860Z</time>
</trkpt>
<trkpt lat="57.722326" lon="10.565847">
<ele>3.563919</ele>
<time>2026-06-19T03:55:55.814Z</time>
</trkpt>
<trkpt lat="57.721929" lon="10.566035">
<ele>3.516472</ele>
<time>2026-06-19T03:56:05.087Z</time>
</trkpt>
<trkpt lat="57.721645" lon="10.566170">
<ele>3.482522</ele>
<time>2026-06-19T03:56:11.830Z</time>
</trkpt>
<trkpt lat="57.721329" lon="10.566313">
<ele>3.444854</ele>
<time>2026-06-19T03:56:18.898Z</time>
</trkpt>
<trkpt lat="57.721206" lon="10.566368">
<ele>3.430202</ele>
<time>2026-06-19T03:56:21.507Z</time>
</trkpt>
<trkpt lat="57.720924" lon="10.566530">
<ele>3.396024</ele>
<time>2026-06-19T03:56:27.580Z</time>
</trkpt>
<trkpt lat="57.720860" lon="10.566583">
<ele>3.370261</ele>
<time>2026-06-19T03:56:29.040Z</time>
</trkpt>
<trkpt lat="57.720674" lon="10.566734">
<ele>3.294998</ele>
<time>2026-06-19T03:56:33.227Z</time>
</trkpt>
<trkpt lat="57.720263" lon="10.567329">
<ele>3.102130</ele>
<time>2026-06-19T03:56:43.855Z</time>
</trkpt>
<trkpt lat="57.719365" lon="10.568999">
<ele>2.738612</ele>
<time>2026-06-19T03:57:10.648Z</time>
</trkpt>
<trkpt lat="57.719152" lon="10.569359">
<ele>2.750194</ele>
<time>2026-06-19T03:57:17.049Z</time>
</trkpt>
<trkpt lat="57.718885" lon="10.569732">
<ele>2.763640</ele>
<time>2026-06-19T03:57:24.589Z</time>
</trkpt>
<trkpt lat="57.717975" lon="10.570804">
<ele>2.788574</ele>
<time>2026-06-19T03:57:48.992Z</time>
</trkpt>
<trkpt lat="57.717619" lon="10.571245">
<ele>2.754936</ele>
<time>2026-06-19T03:57:58.827Z</time>
</trkpt>
<trkpt lat="57.717155" lon="10.571775">
<ele>2.712103</ele>
<time>2026-06-19T03:58:10.792Z</time>
</trkpt>
<trkpt lat="57.717204" lon="10.571956">
<ele>2.703563</ele>
<time>2026-06-19T03:58:13.113Z</time>
</trkpt>
<trkpt lat="57.717276" lon="10.572294">
<ele>2.688247</ele>
<time>2026-06-19T03:58:17.238Z</time>
</trkpt>
<trkpt lat="57.717461" lon="10.573794">
<ele>2.541765</ele>
<time>2026-06-19T03:58:34.680Z</time>
</trkpt>
<trkpt lat="57.717650" lon="10.575323">
<ele>2.324102</ele>
<time>2026-06-19T03:58:52.400Z</time>
</trkpt>
<trkpt lat="57.717709" lon="10.575795">
<ele>2.256872</ele>
<time>2026-06-19T03:58:57.936Z</time>
</trkpt>
<trkpt lat="57.717744" lon="10.576021">
<ele>2.224237</ele>
<time>2026-06-19T03:59:00.653Z</time>
</trkpt>
<trkpt lat="57.717809" lon="10.576350">
<ele>2.187142</ele>
<time>2026-06-19T03:59:04.681Z</time>
</trkpt>
<trkpt lat="57.718104" lon="10.577795">
<ele>2.123815</ele>
<time>2026-06-19T03:59:22.563Z</time>
</trkpt>
<trkpt lat="57.718421" lon="10.578858">
<ele>2.073976</ele>
<time>2026-06-19T03:59:36.949Z</time>
</trkpt>
<trkpt lat="57.718602" lon="10.579462">
<ele>2.063883</ele>
<time>2026-06-19T03:59:45.378Z</time>
</trkpt>
<trkpt lat="57.718755" lon="10.579978">
<ele>2.091648</ele>
<time>2026-06-19T03:59:52.523Z</time>
</trkpt>
<trkpt lat="57.719009" lon="10.580891">
<ele>2.140076</ele>
<time>2026-06-19T04:00:04.871Z</time>
</trkpt>
<trkpt lat="57.719056" lon="10.581024">
<ele>2.147579</ele>
<time>2026-06-19T04:00:06.787Z</time>
</trkpt>
<trkpt lat="57.719490" lon="10.582522">
<ele>2.211536</ele>
<time>2026-06-19T04:00:27.642Z</time>
</trkpt>
<trkpt lat="57.719847" lon="10.583817">
<ele>2.206959</ele>
<time>2026-06-19T04:00:44.627Z</time>
</trkpt>
<trkpt lat="57.719877" lon="10.583924">
<ele>2.206580</ele>
<time>2026-06-19T04:00:46.075Z</time>
</trkpt>
<trkpt lat="57.719962" lon="10.584203">
<ele>2.205571</ele>
<time>2026-06-19T04:00:50.072Z</time>
</trkpt>
<trkpt lat="57.720074" lon="10.584600">
<ele>2.204161</ele>
<time>2026-06-19T04:00:55.710Z</time>
</trkpt>
<trkpt lat="57.720120" lon="10.584693">
<ele>2.203763</ele>
<time>2026-06-19T04:00:57.281Z</time>
</trkpt>
<trkpt lat="57.720349" lon="10.584943">
<ele>2.202204</ele>
<time>2026-06-19T04:01:03.420Z</time>
</trkpt>
<trkpt lat="57.720421" lon="10.585021">
<ele>2.205756</ele>
<time>2026-06-19T04:01:05.324Z</time>
</trkpt>
<trkpt lat="57.720601" lon="10.585217">
<ele>2.223638</ele>
<time>2026-06-19T04:01:10.067Z</time>
</trkpt>
<trkpt lat="57.720947" lon="10.585595">
<ele>2.258040</ele>
<time>2026-06-19T04:01:19.231Z</time>
</trkpt>
<trkpt lat="57.721043" lon="10.585691">
<ele>2.267387</ele>
<time>2026-06-19T04:01:21.778Z</time>
</trkpt>
<trkpt lat="57.721284" lon="10.585959">
<ele>2.291459</ele>
<time>2026-06-19T04:01:28.512Z</time>
</trkpt>
<trkpt lat="57.721371" lon="10.586146">
<ele>2.302833</ele>
<time>2026-06-19T04:01:31.672Z</time>
</trkpt>
<trkpt lat="57.721541" lon="10.586642">
<ele>2.329863</ele>
<time>2026-06-19T04:01:39.136Z</time>
</trkpt>
<trkpt lat="57.721710" lon="10.587139">
<ele>2.356398</ele>
<time>2026-06-19T04:01:46.604Z</time>
</trkpt>
<trkpt lat="57.721836" lon="10.587589">
<ele>2.354132</ele>
<time>2026-06-19T04:01:52.985Z</time>
</trkpt>
<trkpt lat="57.721917" lon="10.587878">
<ele>2.352677</ele>
<time>2026-06-19T04:01:57.037Z</time>
</trkpt>
<trkpt lat="57.721935" lon="10.587941">
<ele>2.352358</ele>
<time>2026-06-19T04:01:57.915Z</time>
</trkpt>
<trkpt lat="57.722151" lon="10.588804">
<ele>2.348108</ele>
<time>2026-06-19T04:02:09.773Z</time>
</trkpt>
<trkpt lat="57.722397" lon="10.589801">
<ele>2.343210</ele>
<time>2026-06-19T04:02:23.193Z</time>
</trkpt>
<trkpt lat="57.722448" lon="10.590004">
<ele>2.342210</ele>
<time>2026-06-19T04:02:25.896Z</time>
</trkpt>
<trkpt lat="57.722537" lon="10.590304">
<ele>2.335918</ele>
<time>2026-06-19T04:02:30.050Z</time>
</trkpt>
<trkpt lat="57.722639" lon="10.590502">
<ele>2.326821</ele>
<time>2026-06-19T04:02:33.384Z</time>
</trkpt>
<trkpt lat="57.722741" lon="10.590701">
<ele>2.317700</ele>
<time>2026-06-19T04:02:36.724Z</time>
</trkpt>
<trkpt lat="57.722545" lon="10.591015">
<ele>2.301728</ele>
<time>2026-06-19T04:02:42.673Z</time>
</trkpt>
<trkpt lat="57.722518" lon="10.591329">
<ele>2.291212</ele>
<time>2026-06-19T04:02:46.632Z</time>
</trkpt>
<trkpt lat="57.722500" lon="10.591528">
<ele>2.284538</ele>
<time>2026-06-19T04:02:49.156Z</time>
</trkpt>
<trkpt lat="57.722491" lon="10.591633">
<ele>2.281021</ele>
<time>2026-06-19T04:02:50.484Z</time>
</trkpt>
<trkpt lat="57.722482" lon="10.591735">
<ele>2.277603</ele>
<time>2026-06-19T04:02:51.729Z</time>
</trkpt>
<trkpt lat="57.722437" lon="10.592178">
<ele>2.262691</ele>
<time>2026-06-19T04:02:57.037Z</time>
</trkpt>
<trkpt lat="57.722398" lon="10.592563">
<ele>2.249733</ele>
<time>2026-06-19T04:03:01.556Z</time>
</trkpt>
<trkpt lat="57.722410" lon="10.592845">
<ele>2.240379</ele>
<time>2026-06-19T04:03:04.802Z</time>
</trkpt>
<trkpt lat="57.722464" lon="10.592933">
<ele>2.235946</ele>
<time>2026-06-19T04:03:06.330Z</time>
</trkpt>
<trkpt lat="57.722413" lon="10.593002">
<ele>2.232050</ele>
<time>2026-06-19T04:03:07.689Z</time>
</trkpt>
<trkpt lat="57.722381" lon="10.593045">
<ele>2.227647</ele>
<time>2026-06-19T04:03:08.541Z</time>
</trkpt>
<trkpt lat="57.722156" lon="10.593310">
<ele>2.137175</ele>
<time>2026-06-19T04:03:14.471Z</time>
</trkpt>
<trkpt lat="57.721968" lon="10.593512">
<ele>2.063398</ele>
<time>2026-06-19T04:03:19.322Z</time>
</trkpt>
<trkpt lat="57.721808" lon="10.593683">
<ele>2.000693</ele>
<time>2026-06-19T04:03:23.408Z</time>
</trkpt>
<trkpt lat="57.722000" lon="10.594417">
<ele>1.852128</ele>
<time>2026-06-19T04:03:32.355Z</time>
</trkpt>
<trkpt lat="57.722073" lon="10.594689">
<ele>1.796794</ele>
<time>2026-06-19T04:03:35.646Z</time>
</trkpt>
<trkpt lat="57.722284" lon="10.595448">
<ele>1.641258</ele>
<time>2026-06-19T04:03:44.957Z</time>
</trkpt>
<trkpt lat="57.722405" lon="10.595890">
<ele>1.556109</ele>
<time>2026-06-19T04:03:50.455Z</time>
</trkpt>
<trkpt lat="57.722491" lon="10.596168">
<ele>1.502195</ele>
<time>2026-06-19T04:03:54.063Z</time>
</trkpt>
<trkpt lat="57.723092" lon="10.598374">
<ele>1.086615</ele>
<time>2026-06-19T04:04:21.752Z</time>
</trkpt>
<trkpt lat="57.723526" lon="10.599975">
<ele>1.061264</ele>
<time>2026-06-19T04:04:43.379Z</time>
</trkpt>
<trkpt lat="57.723935" lon="10.601454">
<ele>1.070292</ele>
<time>2026-06-19T04:05:03.030Z</time>
</trkpt>
<trkpt lat="57.724261" lon="10.602562">
<ele>1.145854</ele>
<time>2026-06-19T04:05:18.656Z</time>
</trkpt>
<trkpt lat="57.724834" lon="10.604426">
<ele>1.285412</ele>
<time>2026-06-19T04:05:44.632Z</time>
</trkpt>
<trkpt lat="57.725100" lon="10.605240">
<ele>1.335388</ele>
<time>2026-06-19T04:05:56.313Z</time>
</trkpt>
<trkpt lat="57.725881" lon="10.607205">
<ele>1.461530</ele>
<time>2026-06-19T04:06:26.196Z</time>
</trkpt>
<trkpt lat="57.726265" lon="10.607028">
<ele>1.356392</ele>
<time>2026-06-19T04:06:34.991Z</time>
</trkpt>
<trkpt lat="57.726410" lon="10.606960">
<ele>1.314632</ele>
<time>2026-06-19T04:06:38.231Z</time>
</trkpt>
<trkpt lat="57.726487" lon="10.606836">
<ele>1.286261</ele>
<time>2026-06-19T04:06:40.405Z</time>
</trkpt>
<trkpt lat="57.726507" lon="10.606730">
<ele>1.269490</ele>
<time>2026-06-19T04:06:41.716Z</time>
</trkpt>
<trkpt lat="57.726556" lon="10.606788">
<ele>1.253296</ele>
<time>2026-06-19T04:06:43.066Z</time>
</trkpt>
<trkpt lat="57.726630" lon="10.607059">
<ele>1.207890</ele>
<time>2026-06-19T04:06:46.896Z</time>
</trkpt>
<trkpt lat="57.726694" lon="10.607149">
<ele>1.185530</ele>
<time>2026-06-19T04:06:48.819Z</time>
</trkpt>
<trkpt lat="57.726890" lon="10.607212">
<ele>1.129972</ele>
<time>2026-06-19T04:06:53.431Z</time>
</trkpt>
<trkpt lat="57.727425" lon="10.607875">
<ele>0.956122</ele>
<time>2026-06-19T04:07:07.837Z</time>
</trkpt>
<trkpt lat="57.727524" lon="10.607956">
<ele>0.942735</ele>
<time>2026-06-19T04:07:10.286Z</time>
</trkpt>
<trkpt lat="57.727651" lon="10.607990">
<ele>0.926839</ele>
<time>2026-06-19T04:07:13.243Z</time>
</trkpt>
<trkpt lat="57.728156" lon="10.607886">
<ele>0.863887</ele>
<time>2026-06-19T04:07:25.363Z</time>
</trkpt>
<trkpt lat="57.728384" lon="10.607698">
<ele>0.833018</ele>
<time>2026-06-19T04:07:31.515Z</time>
</trkpt>
<trkpt lat="57.729150" lon="10.607151">
<ele>0.736208</ele>
<time>2026-06-19T04:07:52.341Z</time>
</trkpt>
<trkpt lat="57.729225" lon="10.607149">
<ele>0.734185</ele>
<time>2026-06-19T04:07:54.314Z</time>
</trkpt>
<trkpt lat="57.729270" lon="10.607132">
<ele>0.732947</ele>
<time>2026-06-19T04:07:55.512Z</time>
</trkpt>
<trkpt lat="57.729292" lon="10.607109">
<ele>0.732267</ele>
<time>2026-06-19T04:07:56.159Z</time>
</trkpt>
<trkpt lat="57.729600" lon="10.607835">
<ele>0.718914</ele>
<time>2026-06-19T04:08:07.520Z</time>
</trkpt>
<trkpt lat="57.729799" lon="10.608636">
<ele>0.706193</ele>
<time>2026-06-19T04:08:17.631Z</time>
</trkpt>
<trkpt lat="57.729778" lon="10.608889">
<ele>0.702506</ele>
<time>2026-06-19T04:08:20.561Z</time>
</trkpt>
<trkpt lat="57.729803" lon="10.609010">
<ele>0.700638</ele>
<time>2026-06-19T04:08:22.056Z</time>
</trkpt>
<trkpt lat="57.729875" lon="10.609139">
<ele>0.697950</ele>
<time>2026-06-19T04:08:24.224Z</time>
</trkpt>
<trkpt lat="57.729959" lon="10.609199">
<ele>0.695526</ele>
<time>2026-06-19T04:08:26.154Z</time>
</trkpt>
<trkpt lat="57.730060" lon="10.609479">
<ele>0.690660</ele>
<time>2026-06-19T04:08:30.118Z</time>
</trkpt>
<trkpt lat="57.731182" lon="10.613201">
<ele>0.924460</ele>
<time>2026-06-19T04:09:22.821Z</time>
</trkpt>
<trkpt lat="57.731519" lon="10.614353">
<ele>0.824813</ele>
<time>2026-06-19T04:09:38.085Z</time>
</trkpt>
<trkpt lat="57.732374" lon="10.617246">
<ele>0.402320</ele>
<time>2026-06-19T04:10:14.727Z</time>
</trkpt>
<trkpt lat="57.733295" lon="10.620348">
<ele>0.078795</ele>
<time>2026-06-19T04:10:55.797Z</time>
</trkpt>
<trkpt lat="57.735039" lon="10.626226">
<ele>0.106684</ele>
<time>2026-06-19T04:12:15.996Z</time>
</trkpt>
<trkpt lat="57.735383" lon="10.627386">
<ele>0.140229</ele>
<time>2026-06-19T04:12:31.881Z</time>
</trkpt>
<trkpt lat="57.735400" lon="10.627443">
<ele>0.145209</ele>
<time>2026-06-19T04:12:32.667Z</time>
</trkpt>
<trkpt lat="57.736267" lon="10.630368">
<ele>0.388211</ele>
<time>2026-06-19T04:13:13.533Z</time>
</trkpt>
<trkpt lat="57.736470" lon="10.631055">
<ele>0.402538</ele>
<time>2026-06-19T04:13:23.151Z</time>
</trkpt>
<trkpt lat="57.736828" lon="10.632202">
<ele>0.426779</ele>
<time>2026-06-19T04:13:39.143Z</time>
</trkpt>
<trkpt lat="57.736917" lon="10.632383">
<ele>0.431269</ele>
<time>2026-06-19T04:13:42.039Z</time>
</trkpt>
<trkpt lat="57.736957" lon="10.632464">
<ele>0.433282</ele>
<time>2026-06-19T04:13:43.341Z</time>
</trkpt>
<trkpt lat="57.737150" lon="10.632790">
<ele>0.442164</ele>
<time>2026-06-19T04:13:48.935Z</time>
</trkpt>
<trkpt lat="57.737345" lon="10.633011">
<ele>0.442779</ele>
<time>2026-06-19T04:13:53.882Z</time>
</trkpt>
<trkpt lat="57.737559" lon="10.633196">
<ele>0.436701</ele>
<time>2026-06-19T04:13:59.047Z</time>
</trkpt>
<trkpt lat="57.737941" lon="10.633384">
<ele>0.426517</ele>
<time>2026-06-19T04:14:07.773Z</time>
</trkpt>
<trkpt lat="57.737997" lon="10.633620">
<ele>0.422962</ele>
<time>2026-06-19T04:14:10.667Z</time>
</trkpt>
<trkpt lat="57.738050" lon="10.633730">
<ele>0.420923</ele>
<time>2026-06-19T04:14:12.340Z</time>
</trkpt>
<trkpt lat="57.738430" lon="10.633882">
<ele>0.410903</ele>
<time>2026-06-19T04:14:20.995Z</time>
</trkpt>
<trkpt lat="57.738534" lon="10.634084">
<ele>0.407040</ele>
<time>2026-06-19T04:14:24.397Z</time>
</trkpt>
<trkpt lat="57.738626" lon="10.634148">
<ele>0.404510</ele>
<time>2026-06-19T04:14:26.648Z</time>
</trkpt>
<trkpt lat="57.738720" lon="10.634048">
<ele>0.401722</ele>
<time>2026-06-19T04:14:34.123Z</time>
</trkpt>
<trkpt lat="57.738892" lon="10.634101">
<ele>0.427016</ele>
<time>2026-06-19T04:14:39.427Z</time>
</trkpt>
<trkpt lat="57.739023" lon="10.634142">
<ele>0.468787</ele>
<time>2026-06-19T04:14:43.424Z</time>
</trkpt>
<trkpt lat="57.739021" lon="10.634018">
<ele>0.489613</ele>
<time>2026-06-19T04:14:45.450Z</time>
</trkpt>
<trkpt lat="57.739016" lon="10.633699">
<ele>0.543188</ele>
<time>2026-06-19T04:14:50.509Z</time>
</trkpt>
<trkpt lat="57.738994" lon="10.633417">
<ele>0.591031</ele>
<time>2026-06-19T04:14:54.944Z</time>
</trkpt>
<trkpt lat="57.739069" lon="10.633142">
<ele>0.642873</ele>
<time>2026-06-19T04:14:59.868Z</time>
</trkpt>
<trkpt lat="57.739174" lon="10.633235">
<ele>0.679401</ele>
<time>2026-06-19T04:15:07.947Z</time>
</trkpt>
<trkpt lat="57.739249" lon="10.632954">
<ele>0.732142</ele>
<time>2026-06-19T04:15:12.045Z</time>
</trkpt>
<trkpt lat="57.739424" lon="10.632858">
<ele>0.789491</ele>
<time>2026-06-19T04:15:16.590Z</time>
</trkpt>
<trkpt lat="57.739629" lon="10.632121">
<ele>0.929004</ele>
<time>2026-06-19T04:15:27.360Z</time>
</trkpt>
<trkpt lat="57.739668" lon="10.632167">
<ele>0.943498</ele>
<time>2026-06-19T04:15:29.120Z</time>
</trkpt>
<trkpt lat="57.740067" lon="10.632388">
<ele>0.961659</ele>
<time>2026-06-19T04:15:44.930Z</time>
</trkpt>
<trkpt lat="57.740199" lon="10.632404">
<ele>0.960324</ele>
<time>2026-06-19T04:15:49.919Z</time>
</trkpt>
<trkpt lat="57.740411" lon="10.632393">
<ele>0.958183</ele>
<time>2026-06-19T04:15:57.893Z</time>
</trkpt>
<trkpt lat="57.740577" lon="10.632447">
<ele>0.956482</ele>
<time>2026-06-19T04:16:04.283Z</time>
</trkpt>
<trkpt lat="57.741490" lon="10.633268">
<ele>0.917909</ele>
<time>2026-06-19T04:16:41.094Z</time>
</trkpt>
<trkpt lat="57.741822" lon="10.633386">
<ele>0.785203</ele>
<time>2026-06-19T04:16:53.053Z</time>
</trkpt>
<trkpt lat="57.742005" lon="10.633536">
<ele>0.706760</ele>
<time>2026-06-19T04:17:00.108Z</time>
</trkpt>
<trkpt lat="57.742357" lon="10.634024">
<ele>0.534797</ele>
<time>2026-06-19T04:17:15.517Z</time>
</trkpt>
<trkpt lat="57.742512" lon="10.634190">
<ele>0.464684</ele>
<time>2026-06-19T04:17:21.772Z</time>
</trkpt>
<trkpt lat="57.742853" lon="10.634383">
<ele>0.324793</ele>
<time>2026-06-19T04:17:34.284Z</time>
</trkpt>
<trkpt lat="57.743891" lon="10.634745">
<ele>0.303809</ele>
<time>2026-06-19T04:18:13.106Z</time>
</trkpt>
<trkpt lat="57.743977" lon="10.634955">
<ele>0.314410</ele>
<time>2026-06-19T04:18:18.452Z</time>
</trkpt>
<trkpt lat="57.744014" lon="10.635141">
<ele>0.322360</ele>
<time>2026-06-19T04:18:22.474Z</time>
</trkpt>
<trkpt lat="57.744031" lon="10.635294">
<ele>0.328618</ele>
<time>2026-06-19T04:18:25.634Z</time>
</trkpt>
<trkpt lat="57.743969" lon="10.635702">
<ele>0.345607</ele>
<time>2026-06-19T04:18:34.262Z</time>
</trkpt>
<trkpt lat="57.744011" lon="10.635935">
<ele>0.355456</ele>
<time>2026-06-19T04:18:39.298Z</time>
</trkpt>
<trkpt lat="57.744084" lon="10.636072">
<ele>0.363209</ele>
<time>2026-06-19T04:18:43.224Z</time>
</trkpt>
<trkpt lat="57.744125" lon="10.636277">
<ele>0.371977</ele>
<time>2026-06-19T04:18:47.705Z</time>
</trkpt>
<trkpt lat="57.744099" lon="10.636406">
<ele>0.376318</ele>
<time>2026-06-19T04:18:50.510Z</time>
</trkpt>
<trkpt lat="57.744173" lon="10.636793">
<ele>0.382406</ele>
<time>2026-06-19T04:18:58.930Z</time>
</trkpt>
<trkpt lat="57.744165" lon="10.636984">
<ele>0.385243</ele>
<time>2026-06-19T04:19:02.752Z</time>
</trkpt>
<trkpt lat="57.744100" lon="10.637613">
<ele>0.394732</ele>
<time>2026-06-19T04:19:15.434Z</time>
</trkpt>
<trkpt lat="57.744006" lon="10.637827">
<ele>0.398836</ele>
<time>2026-06-19T04:19:20.931Z</time>
</trkpt>
<trkpt lat="57.743879" lon="10.638010">
<ele>0.403282</ele>
<time>2026-06-19T04:19:26.838Z</time>
</trkpt>
<trkpt lat="57.743797" lon="10.638293">
<ele>0.408051</ele>
<time>2026-06-19T04:19:33.175Z</time>
</trkpt>
<trkpt lat="57.743774" lon="10.638509">
<ele>0.411313</ele>
<time>2026-06-19T04:19:37.518Z</time>
</trkpt>
<trkpt lat="57.743662" lon="10.639052">
<ele>0.419934</ele>
<time>2026-06-19T04:19:48.979Z</time>
</trkpt>
<trkpt lat="57.743609" lon="10.639203">
<ele>0.422611</ele>
<time>2026-06-19T04:19:52.553Z</time>
</trkpt>
<trkpt lat="57.743606" lon="10.639394">
<ele>0.425441</ele>
<time>2026-06-19T04:19:56.302Z</time>
</trkpt>
<trkpt lat="57.743548" lon="10.639823">
<ele>0.395521</ele>
<time>2026-06-19T04:20:05.006Z</time>
</trkpt>
<trkpt lat="57.743558" lon="10.640299">
<ele>0.362741</ele>
<time>2026-06-19T04:20:14.333Z</time>
</trkpt>
<trkpt lat="57.743553" lon="10.640456">
<ele>0.351918</ele>
<time>2026-06-19T04:20:17.400Z</time>
</trkpt>
<trkpt lat="57.743523" lon="10.640535">
<ele>0.345246</ele>
<time>2026-06-19T04:20:19.311Z</time>
</trkpt>
<trkpt lat="57.743527" lon="10.640770">
<ele>0.329066</ele>
<time>2026-06-19T04:20:23.890Z</time>
</trkpt>
<trkpt lat="57.743498" lon="10.640829">
<ele>0.323547</ele>
<time>2026-06-19T04:20:25.463Z</time>
</trkpt>
<trkpt lat="57.743503" lon="10.640924">
<ele>0.316978</ele>
<time>2026-06-19T04:20:27.329Z</time>
</trkpt>
<trkpt lat="57.743475" lon="10.641080">
<ele>0.305652</ele>
<time>2026-06-19T04:20:30.531Z</time>
</trkpt>
<trkpt lat="57.743417" lon="10.641149">
<ele>0.296794</ele>
<time>2026-06-19T04:20:33.031Z</time>
</trkpt>
<trkpt lat="57.743447" lon="10.641491">
<ele>0.272944</ele>
<time>2026-06-19T04:20:39.795Z</time>
</trkpt>
<trkpt lat="57.743422" lon="10.641584">
<ele>0.265778</ele>
<time>2026-06-19T04:20:41.819Z</time>
</trkpt>
<trkpt lat="57.743318" lon="10.641675">
<ele>0.250979</ele>
<time>2026-06-19T04:20:46.009Z</time>
</trkpt>
<trkpt lat="57.743278" lon="10.641782">
<ele>0.241989</ele>
<time>2026-06-19T04:20:48.561Z</time>
</trkpt>
<trkpt lat="57.743240" lon="10.642093">
<ele>0.220034</ele>
<time>2026-06-19T04:20:54.772Z</time>
</trkpt>
<trkpt lat="57.743283" lon="10.642254">
<ele>0.207645</ele>
<time>2026-06-19T04:20:58.271Z</time>
</trkpt>
<trkpt lat="57.743268" lon="10.642518">
<ele>0.190287</ele>
<time>2026-06-19T04:21:03.424Z</time>
</trkpt>
<trkpt lat="57.743465" lon="10.642930">
<ele>0.160380</ele>
<time>2026-06-19T04:21:14.120Z</time>
</trkpt>
<trkpt lat="57.743510" lon="10.643113">
<ele>0.149486</ele>
<time>2026-06-19T04:21:18.026Z</time>
</trkpt>
<trkpt lat="57.743528" lon="10.643317">
<ele>0.138307</ele>
<time>2026-06-19T04:21:22.022Z</time>
</trkpt>
<trkpt lat="57.743413" lon="10.643789">
<ele>0.110255</ele>
<time>2026-06-19T04:21:32.080Z</time>
</trkpt>
<trkpt lat="57.743121" lon="10.644669">
<ele>0.054232</ele>
<time>2026-06-19T04:21:52.384Z</time>
</trkpt>
<trkpt lat="57.744245" lon="10.647274">
<ele>0.002753</ele>
<time>2026-06-19T04:22:58.649Z</time>
</trkpt>
<trkpt lat="57.744738" lon="10.648338">
<ele>-0.000000</ele>
<time>2026-06-19T04:23:26.512Z</time>
</trkpt>
<trkpt lat="57.746087" lon="10.652165">
<ele>-0.000000</ele>
<time>2026-06-19T04:24:57.246Z</time>
</trkpt>
<trkpt lat="57.746191" lon="10.651803">
<ele>-0.000000</ele>
<time>2026-06-19T04:25:05.384Z</time>
</trkpt>
</trkseg>
</trk>
</gpx>